<?xml version="1.0" encoding="UTF-8" standalone="no" ?>
<gpx xmlns="http://www.topografix.com/GPX/1/1" xmlns:xsi="http://www.w3.org/2001/XMLSchema-instance" xsi:schemaLocation="http://www.topografix.com/GPX/1/1 http://www.topografix.com/GPX/1/1/gpx.xsd" version="1.1" creator="VisuGPX - https://www.visugpx.com">
  <metadata>
    <name>Tournefeuille Gravel bike</name>
  </metadata>
  <trk>
    <name><![CDATA[Tournefeuille Gravel bike_1]]></name>
    <trkseg>
      <trkpt lat="43.58675" lon="1.32229">
        <ele>185.8</ele>
        <time>2024-07-09T04:49:47Z</time>
      </trkpt>
      <trkpt lat="43.58676" lon="1.32229">
        <ele>186</ele>
        <time>2024-07-09T04:49:52Z</time>
      </trkpt>
      <trkpt lat="43.58669" lon="1.3223">
        <ele>186.2</ele>
        <time>2024-07-09T04:49:57Z</time>
      </trkpt>
      <trkpt lat="43.5868" lon="1.3224">
        <ele>186.2</ele>
        <time>2024-07-09T04:50:34Z</time>
      </trkpt>
      <trkpt lat="43.5868" lon="1.32244">
        <ele>186.2</ele>
        <time>2024-07-09T04:50:35Z</time>
      </trkpt>
      <trkpt lat="43.5868" lon="1.32248">
        <ele>186.2</ele>
        <time>2024-07-09T04:50:36Z</time>
      </trkpt>
      <trkpt lat="43.5868" lon="1.32253">
        <ele>186</ele>
        <time>2024-07-09T04:50:37Z</time>
      </trkpt>
      <trkpt lat="43.58679" lon="1.32259">
        <ele>186</ele>
        <time>2024-07-09T04:50:38Z</time>
      </trkpt>
      <trkpt lat="43.58679" lon="1.32264">
        <ele>186</ele>
        <time>2024-07-09T04:50:39Z</time>
      </trkpt>
      <trkpt lat="43.58679" lon="1.3227">
        <ele>185.8</ele>
        <time>2024-07-09T04:50:40Z</time>
      </trkpt>
      <trkpt lat="43.58678" lon="1.32275">
        <ele>185.8</ele>
        <time>2024-07-09T04:50:41Z</time>
      </trkpt>
      <trkpt lat="43.58679" lon="1.3228">
        <ele>185.8</ele>
        <time>2024-07-09T04:50:42Z</time>
      </trkpt>
      <trkpt lat="43.5868" lon="1.32283">
        <ele>185.8</ele>
        <time>2024-07-09T04:50:43Z</time>
      </trkpt>
      <trkpt lat="43.58682" lon="1.32284">
        <ele>185.8</ele>
        <time>2024-07-09T04:50:44Z</time>
      </trkpt>
      <trkpt lat="43.58685" lon="1.32284">
        <ele>185.8</ele>
        <time>2024-07-09T04:50:45Z</time>
      </trkpt>
      <trkpt lat="43.58687" lon="1.32282">
        <ele>185.6</ele>
        <time>2024-07-09T04:50:46Z</time>
      </trkpt>
      <trkpt lat="43.58689" lon="1.32279">
        <ele>185.6</ele>
        <time>2024-07-09T04:50:47Z</time>
      </trkpt>
      <trkpt lat="43.58692" lon="1.32277">
        <ele>185.6</ele>
        <time>2024-07-09T04:50:48Z</time>
      </trkpt>
      <trkpt lat="43.58695" lon="1.32274">
        <ele>185.8</ele>
        <time>2024-07-09T04:50:49Z</time>
      </trkpt>
      <trkpt lat="43.58697" lon="1.32272">
        <ele>185.8</ele>
        <time>2024-07-09T04:50:50Z</time>
      </trkpt>
      <trkpt lat="43.587" lon="1.32269">
        <ele>186</ele>
        <time>2024-07-09T04:50:51Z</time>
      </trkpt>
      <trkpt lat="43.58703" lon="1.32266">
        <ele>186</ele>
        <time>2024-07-09T04:50:52Z</time>
      </trkpt>
      <trkpt lat="43.58706" lon="1.32263">
        <ele>186</ele>
        <time>2024-07-09T04:50:53Z</time>
      </trkpt>
      <trkpt lat="43.58709" lon="1.3226">
        <ele>186.4</ele>
        <time>2024-07-09T04:50:54Z</time>
      </trkpt>
      <trkpt lat="43.58712" lon="1.32257">
        <ele>186.6</ele>
        <time>2024-07-09T04:50:55Z</time>
      </trkpt>
      <trkpt lat="43.58716" lon="1.32253">
        <ele>186.8</ele>
        <time>2024-07-09T04:50:56Z</time>
      </trkpt>
      <trkpt lat="43.58719" lon="1.3225">
        <ele>186.8</ele>
        <time>2024-07-09T04:50:57Z</time>
      </trkpt>
      <trkpt lat="43.58722" lon="1.32246">
        <ele>187</ele>
        <time>2024-07-09T04:50:58Z</time>
      </trkpt>
      <trkpt lat="43.58726" lon="1.32243">
        <ele>187.2</ele>
        <time>2024-07-09T04:50:59Z</time>
      </trkpt>
      <trkpt lat="43.58729" lon="1.32239">
        <ele>187.4</ele>
        <time>2024-07-09T04:51:00Z</time>
      </trkpt>
      <trkpt lat="43.58733" lon="1.32235">
        <ele>187.6</ele>
        <time>2024-07-09T04:51:01Z</time>
      </trkpt>
      <trkpt lat="43.58736" lon="1.32232">
        <ele>187.6</ele>
        <time>2024-07-09T04:51:02Z</time>
      </trkpt>
      <trkpt lat="43.58739" lon="1.32228">
        <ele>187.8</ele>
        <time>2024-07-09T04:51:03Z</time>
      </trkpt>
      <trkpt lat="43.58743" lon="1.32224">
        <ele>188</ele>
        <time>2024-07-09T04:51:04Z</time>
      </trkpt>
      <trkpt lat="43.58746" lon="1.32221">
        <ele>188</ele>
        <time>2024-07-09T04:51:05Z</time>
      </trkpt>
      <trkpt lat="43.5875" lon="1.32217">
        <ele>188.2</ele>
        <time>2024-07-09T04:51:06Z</time>
      </trkpt>
      <trkpt lat="43.58754" lon="1.32213">
        <ele>188.2</ele>
        <time>2024-07-09T04:51:07Z</time>
      </trkpt>
      <trkpt lat="43.58757" lon="1.32209">
        <ele>188.2</ele>
        <time>2024-07-09T04:51:08Z</time>
      </trkpt>
      <trkpt lat="43.58761" lon="1.32205">
        <ele>188.2</ele>
        <time>2024-07-09T04:51:09Z</time>
      </trkpt>
      <trkpt lat="43.58765" lon="1.32201">
        <ele>188.2</ele>
        <time>2024-07-09T04:51:10Z</time>
      </trkpt>
      <trkpt lat="43.58769" lon="1.32197">
        <ele>188.2</ele>
        <time>2024-07-09T04:51:11Z</time>
      </trkpt>
      <trkpt lat="43.58772" lon="1.32194">
        <ele>188.2</ele>
        <time>2024-07-09T04:51:12Z</time>
      </trkpt>
      <trkpt lat="43.58776" lon="1.3219">
        <ele>188.2</ele>
        <time>2024-07-09T04:51:13Z</time>
      </trkpt>
      <trkpt lat="43.5878" lon="1.32186">
        <ele>188.2</ele>
        <time>2024-07-09T04:51:14Z</time>
      </trkpt>
      <trkpt lat="43.58783" lon="1.32182">
        <ele>188.2</ele>
        <time>2024-07-09T04:51:15Z</time>
      </trkpt>
      <trkpt lat="43.58787" lon="1.32178">
        <ele>188.2</ele>
        <time>2024-07-09T04:51:16Z</time>
      </trkpt>
      <trkpt lat="43.58791" lon="1.32173">
        <ele>188.4</ele>
        <time>2024-07-09T04:51:17Z</time>
      </trkpt>
      <trkpt lat="43.58794" lon="1.32169">
        <ele>188.4</ele>
        <time>2024-07-09T04:51:18Z</time>
      </trkpt>
      <trkpt lat="43.58798" lon="1.32166">
        <ele>188.4</ele>
        <time>2024-07-09T04:51:19Z</time>
      </trkpt>
      <trkpt lat="43.58801" lon="1.32163">
        <ele>188.4</ele>
        <time>2024-07-09T04:51:20Z</time>
      </trkpt>
      <trkpt lat="43.58804" lon="1.32159">
        <ele>188.6</ele>
        <time>2024-07-09T04:51:21Z</time>
      </trkpt>
      <trkpt lat="43.58806" lon="1.32156">
        <ele>188.6</ele>
        <time>2024-07-09T04:51:22Z</time>
      </trkpt>
      <trkpt lat="43.58807" lon="1.32153">
        <ele>188.6</ele>
        <time>2024-07-09T04:51:23Z</time>
      </trkpt>
      <trkpt lat="43.58807" lon="1.3215">
        <ele>188.6</ele>
        <time>2024-07-09T04:51:24Z</time>
      </trkpt>
      <trkpt lat="43.58808" lon="1.32148">
        <ele>188.8</ele>
        <time>2024-07-09T04:51:25Z</time>
      </trkpt>
      <trkpt lat="43.58809" lon="1.32145">
        <ele>188.8</ele>
        <time>2024-07-09T04:51:26Z</time>
      </trkpt>
      <trkpt lat="43.5881" lon="1.32142">
        <ele>188.8</ele>
        <time>2024-07-09T04:51:27Z</time>
      </trkpt>
      <trkpt lat="43.58812" lon="1.32138">
        <ele>188.8</ele>
        <time>2024-07-09T04:51:28Z</time>
      </trkpt>
      <trkpt lat="43.58812" lon="1.32133">
        <ele>188.8</ele>
        <time>2024-07-09T04:51:29Z</time>
      </trkpt>
      <trkpt lat="43.58813" lon="1.32128">
        <ele>188.8</ele>
        <time>2024-07-09T04:51:30Z</time>
      </trkpt>
      <trkpt lat="43.58815" lon="1.32124">
        <ele>188.8</ele>
        <time>2024-07-09T04:51:31Z</time>
      </trkpt>
      <trkpt lat="43.58817" lon="1.32119">
        <ele>188.8</ele>
        <time>2024-07-09T04:51:32Z</time>
      </trkpt>
      <trkpt lat="43.5882" lon="1.32115">
        <ele>188.8</ele>
        <time>2024-07-09T04:51:33Z</time>
      </trkpt>
      <trkpt lat="43.58824" lon="1.32111">
        <ele>188.8</ele>
        <time>2024-07-09T04:51:34Z</time>
      </trkpt>
      <trkpt lat="43.58828" lon="1.32108">
        <ele>188.6</ele>
        <time>2024-07-09T04:51:35Z</time>
      </trkpt>
      <trkpt lat="43.58832" lon="1.32104">
        <ele>188.6</ele>
        <time>2024-07-09T04:51:36Z</time>
      </trkpt>
      <trkpt lat="43.58835" lon="1.321">
        <ele>188.8</ele>
        <time>2024-07-09T04:51:37Z</time>
      </trkpt>
      <trkpt lat="43.58839" lon="1.32096">
        <ele>188.8</ele>
        <time>2024-07-09T04:51:38Z</time>
      </trkpt>
      <trkpt lat="43.58843" lon="1.32092">
        <ele>188.8</ele>
        <time>2024-07-09T04:51:39Z</time>
      </trkpt>
      <trkpt lat="43.58847" lon="1.32088">
        <ele>188.8</ele>
        <time>2024-07-09T04:51:40Z</time>
      </trkpt>
      <trkpt lat="43.58851" lon="1.32084">
        <ele>189</ele>
        <time>2024-07-09T04:51:41Z</time>
      </trkpt>
      <trkpt lat="43.58855" lon="1.3208">
        <ele>189</ele>
        <time>2024-07-09T04:51:42Z</time>
      </trkpt>
      <trkpt lat="43.58859" lon="1.32077">
        <ele>189.2</ele>
        <time>2024-07-09T04:51:43Z</time>
      </trkpt>
      <trkpt lat="43.58863" lon="1.32073">
        <ele>189.2</ele>
        <time>2024-07-09T04:51:44Z</time>
      </trkpt>
      <trkpt lat="43.58867" lon="1.32069">
        <ele>189.2</ele>
        <time>2024-07-09T04:51:45Z</time>
      </trkpt>
      <trkpt lat="43.58871" lon="1.32064">
        <ele>189.2</ele>
        <time>2024-07-09T04:51:46Z</time>
      </trkpt>
      <trkpt lat="43.58875" lon="1.3206">
        <ele>189.2</ele>
        <time>2024-07-09T04:51:47Z</time>
      </trkpt>
      <trkpt lat="43.58879" lon="1.32056">
        <ele>189.4</ele>
        <time>2024-07-09T04:51:48Z</time>
      </trkpt>
      <trkpt lat="43.58883" lon="1.32052">
        <ele>189.4</ele>
        <time>2024-07-09T04:51:49Z</time>
      </trkpt>
      <trkpt lat="43.58887" lon="1.32048">
        <ele>189.4</ele>
        <time>2024-07-09T04:51:50Z</time>
      </trkpt>
      <trkpt lat="43.58892" lon="1.32044">
        <ele>189.6</ele>
        <time>2024-07-09T04:51:51Z</time>
      </trkpt>
      <trkpt lat="43.58896" lon="1.32041">
        <ele>189.6</ele>
        <time>2024-07-09T04:51:52Z</time>
      </trkpt>
      <trkpt lat="43.589" lon="1.32037">
        <ele>189.6</ele>
        <time>2024-07-09T04:51:53Z</time>
      </trkpt>
      <trkpt lat="43.58904" lon="1.32032">
        <ele>189.6</ele>
        <time>2024-07-09T04:51:54Z</time>
      </trkpt>
      <trkpt lat="43.58908" lon="1.32028">
        <ele>189.6</ele>
        <time>2024-07-09T04:51:55Z</time>
      </trkpt>
      <trkpt lat="43.58912" lon="1.32024">
        <ele>189.6</ele>
        <time>2024-07-09T04:51:56Z</time>
      </trkpt>
      <trkpt lat="43.58916" lon="1.3202">
        <ele>189.6</ele>
        <time>2024-07-09T04:51:57Z</time>
      </trkpt>
      <trkpt lat="43.58921" lon="1.32017">
        <ele>189.6</ele>
        <time>2024-07-09T04:51:58Z</time>
      </trkpt>
      <trkpt lat="43.58925" lon="1.32013">
        <ele>189.6</ele>
        <time>2024-07-09T04:51:59Z</time>
      </trkpt>
      <trkpt lat="43.58929" lon="1.32009">
        <ele>189.6</ele>
        <time>2024-07-09T04:52:00Z</time>
      </trkpt>
      <trkpt lat="43.58933" lon="1.32007">
        <ele>189.6</ele>
        <time>2024-07-09T04:52:01Z</time>
      </trkpt>
      <trkpt lat="43.58937" lon="1.32007">
        <ele>189.4</ele>
        <time>2024-07-09T04:52:02Z</time>
      </trkpt>
      <trkpt lat="43.5894" lon="1.32007">
        <ele>189.4</ele>
        <time>2024-07-09T04:52:03Z</time>
      </trkpt>
      <trkpt lat="43.58944" lon="1.32007">
        <ele>189.4</ele>
        <time>2024-07-09T04:52:04Z</time>
      </trkpt>
      <trkpt lat="43.58948" lon="1.32005">
        <ele>189.2</ele>
        <time>2024-07-09T04:52:05Z</time>
      </trkpt>
      <trkpt lat="43.58952" lon="1.32002">
        <ele>189.2</ele>
        <time>2024-07-09T04:52:06Z</time>
      </trkpt>
      <trkpt lat="43.58955" lon="1.32">
        <ele>189.2</ele>
        <time>2024-07-09T04:52:07Z</time>
      </trkpt>
      <trkpt lat="43.5896" lon="1.31997">
        <ele>189</ele>
        <time>2024-07-09T04:52:08Z</time>
      </trkpt>
      <trkpt lat="43.58964" lon="1.31995">
        <ele>189</ele>
        <time>2024-07-09T04:52:09Z</time>
      </trkpt>
      <trkpt lat="43.58969" lon="1.31992">
        <ele>189</ele>
        <time>2024-07-09T04:52:10Z</time>
      </trkpt>
      <trkpt lat="43.58974" lon="1.31988">
        <ele>189</ele>
        <time>2024-07-09T04:52:11Z</time>
      </trkpt>
      <trkpt lat="43.58979" lon="1.31984">
        <ele>189</ele>
        <time>2024-07-09T04:52:12Z</time>
      </trkpt>
      <trkpt lat="43.58983" lon="1.3198">
        <ele>189</ele>
        <time>2024-07-09T04:52:13Z</time>
      </trkpt>
      <trkpt lat="43.58988" lon="1.31975">
        <ele>188.8</ele>
        <time>2024-07-09T04:52:14Z</time>
      </trkpt>
      <trkpt lat="43.58992" lon="1.3197">
        <ele>188.8</ele>
        <time>2024-07-09T04:52:15Z</time>
      </trkpt>
      <trkpt lat="43.58997" lon="1.31966">
        <ele>188.8</ele>
        <time>2024-07-09T04:52:16Z</time>
      </trkpt>
      <trkpt lat="43.59001" lon="1.31961">
        <ele>188.8</ele>
        <time>2024-07-09T04:52:17Z</time>
      </trkpt>
      <trkpt lat="43.59006" lon="1.31957">
        <ele>188.8</ele>
        <time>2024-07-09T04:52:18Z</time>
      </trkpt>
      <trkpt lat="43.59011" lon="1.31952">
        <ele>188.8</ele>
        <time>2024-07-09T04:52:19Z</time>
      </trkpt>
      <trkpt lat="43.59015" lon="1.31947">
        <ele>188.8</ele>
        <time>2024-07-09T04:52:20Z</time>
      </trkpt>
      <trkpt lat="43.5902" lon="1.31942">
        <ele>188.8</ele>
        <time>2024-07-09T04:52:21Z</time>
      </trkpt>
      <trkpt lat="43.59024" lon="1.31936">
        <ele>188.8</ele>
        <time>2024-07-09T04:52:22Z</time>
      </trkpt>
      <trkpt lat="43.59028" lon="1.3193">
        <ele>188.8</ele>
        <time>2024-07-09T04:52:23Z</time>
      </trkpt>
      <trkpt lat="43.59032" lon="1.31923">
        <ele>188.8</ele>
        <time>2024-07-09T04:52:24Z</time>
      </trkpt>
      <trkpt lat="43.59036" lon="1.31917">
        <ele>188.8</ele>
        <time>2024-07-09T04:52:25Z</time>
      </trkpt>
      <trkpt lat="43.59039" lon="1.31911">
        <ele>188.8</ele>
        <time>2024-07-09T04:52:26Z</time>
      </trkpt>
      <trkpt lat="43.59043" lon="1.31905">
        <ele>188.8</ele>
        <time>2024-07-09T04:52:27Z</time>
      </trkpt>
      <trkpt lat="43.59048" lon="1.319">
        <ele>188.8</ele>
        <time>2024-07-09T04:52:28Z</time>
      </trkpt>
      <trkpt lat="43.59053" lon="1.31896">
        <ele>188.8</ele>
        <time>2024-07-09T04:52:29Z</time>
      </trkpt>
      <trkpt lat="43.59059" lon="1.31892">
        <ele>188.8</ele>
        <time>2024-07-09T04:52:30Z</time>
      </trkpt>
      <trkpt lat="43.59064" lon="1.31889">
        <ele>188.8</ele>
        <time>2024-07-09T04:52:31Z</time>
      </trkpt>
      <trkpt lat="43.59068" lon="1.31885">
        <ele>188.8</ele>
        <time>2024-07-09T04:52:32Z</time>
      </trkpt>
      <trkpt lat="43.59072" lon="1.31878">
        <ele>188.8</ele>
        <time>2024-07-09T04:52:33Z</time>
      </trkpt>
      <trkpt lat="43.59076" lon="1.31872">
        <ele>188.8</ele>
        <time>2024-07-09T04:52:34Z</time>
      </trkpt>
      <trkpt lat="43.5908" lon="1.31866">
        <ele>188.8</ele>
        <time>2024-07-09T04:52:35Z</time>
      </trkpt>
      <trkpt lat="43.59084" lon="1.31861">
        <ele>188.8</ele>
        <time>2024-07-09T04:52:36Z</time>
      </trkpt>
      <trkpt lat="43.59089" lon="1.31855">
        <ele>188.8</ele>
        <time>2024-07-09T04:52:37Z</time>
      </trkpt>
      <trkpt lat="43.59094" lon="1.3185">
        <ele>188.8</ele>
        <time>2024-07-09T04:52:38Z</time>
      </trkpt>
      <trkpt lat="43.59098" lon="1.31845">
        <ele>188.8</ele>
        <time>2024-07-09T04:52:39Z</time>
      </trkpt>
      <trkpt lat="43.59103" lon="1.3184">
        <ele>188.8</ele>
        <time>2024-07-09T04:52:40Z</time>
      </trkpt>
      <trkpt lat="43.59108" lon="1.31835">
        <ele>188.8</ele>
        <time>2024-07-09T04:52:41Z</time>
      </trkpt>
      <trkpt lat="43.59113" lon="1.31831">
        <ele>188.8</ele>
        <time>2024-07-09T04:52:42Z</time>
      </trkpt>
      <trkpt lat="43.59118" lon="1.31826">
        <ele>188.8</ele>
        <time>2024-07-09T04:52:43Z</time>
      </trkpt>
      <trkpt lat="43.59123" lon="1.31821">
        <ele>188.8</ele>
        <time>2024-07-09T04:52:44Z</time>
      </trkpt>
      <trkpt lat="43.59127" lon="1.31817">
        <ele>188.8</ele>
        <time>2024-07-09T04:52:45Z</time>
      </trkpt>
      <trkpt lat="43.59132" lon="1.31813">
        <ele>188.8</ele>
        <time>2024-07-09T04:52:46Z</time>
      </trkpt>
      <trkpt lat="43.59137" lon="1.31809">
        <ele>188.8</ele>
        <time>2024-07-09T04:52:47Z</time>
      </trkpt>
      <trkpt lat="43.59141" lon="1.31805">
        <ele>188.8</ele>
        <time>2024-07-09T04:52:48Z</time>
      </trkpt>
      <trkpt lat="43.59145" lon="1.31803">
        <ele>188.8</ele>
        <time>2024-07-09T04:52:49Z</time>
      </trkpt>
      <trkpt lat="43.59148" lon="1.31801">
        <ele>188.8</ele>
        <time>2024-07-09T04:52:50Z</time>
      </trkpt>
      <trkpt lat="43.59151" lon="1.31799">
        <ele>188.8</ele>
        <time>2024-07-09T04:52:51Z</time>
      </trkpt>
      <trkpt lat="43.59153" lon="1.31798">
        <ele>189</ele>
        <time>2024-07-09T04:52:52Z</time>
      </trkpt>
      <trkpt lat="43.59155" lon="1.31797">
        <ele>189</ele>
        <time>2024-07-09T04:52:53Z</time>
      </trkpt>
      <trkpt lat="43.59158" lon="1.31795">
        <ele>189</ele>
        <time>2024-07-09T04:52:54Z</time>
      </trkpt>
      <trkpt lat="43.59161" lon="1.31793">
        <ele>189</ele>
        <time>2024-07-09T04:52:55Z</time>
      </trkpt>
      <trkpt lat="43.59164" lon="1.3179">
        <ele>189</ele>
        <time>2024-07-09T04:52:56Z</time>
      </trkpt>
      <trkpt lat="43.59167" lon="1.31788">
        <ele>189</ele>
        <time>2024-07-09T04:52:57Z</time>
      </trkpt>
      <trkpt lat="43.59171" lon="1.31786">
        <ele>189</ele>
        <time>2024-07-09T04:52:58Z</time>
      </trkpt>
      <trkpt lat="43.59175" lon="1.31784">
        <ele>189</ele>
        <time>2024-07-09T04:52:59Z</time>
      </trkpt>
      <trkpt lat="43.5918" lon="1.31782">
        <ele>189</ele>
        <time>2024-07-09T04:53:00Z</time>
      </trkpt>
      <trkpt lat="43.59185" lon="1.31781">
        <ele>189</ele>
        <time>2024-07-09T04:53:01Z</time>
      </trkpt>
      <trkpt lat="43.5919" lon="1.31779">
        <ele>189</ele>
        <time>2024-07-09T04:53:02Z</time>
      </trkpt>
      <trkpt lat="43.59194" lon="1.31777">
        <ele>189</ele>
        <time>2024-07-09T04:53:03Z</time>
      </trkpt>
      <trkpt lat="43.59199" lon="1.31775">
        <ele>188.8</ele>
        <time>2024-07-09T04:53:04Z</time>
      </trkpt>
      <trkpt lat="43.59204" lon="1.31774">
        <ele>188.8</ele>
        <time>2024-07-09T04:53:05Z</time>
      </trkpt>
      <trkpt lat="43.59208" lon="1.31772">
        <ele>188.8</ele>
        <time>2024-07-09T04:53:06Z</time>
      </trkpt>
      <trkpt lat="43.59211" lon="1.31771">
        <ele>188.6</ele>
        <time>2024-07-09T04:53:07Z</time>
      </trkpt>
      <trkpt lat="43.59214" lon="1.31769">
        <ele>188.4</ele>
        <time>2024-07-09T04:53:08Z</time>
      </trkpt>
      <trkpt lat="43.59218" lon="1.31768">
        <ele>188.4</ele>
        <time>2024-07-09T04:53:09Z</time>
      </trkpt>
      <trkpt lat="43.59221" lon="1.31766">
        <ele>188.2</ele>
        <time>2024-07-09T04:53:10Z</time>
      </trkpt>
      <trkpt lat="43.59224" lon="1.31765">
        <ele>188.2</ele>
        <time>2024-07-09T04:53:11Z</time>
      </trkpt>
      <trkpt lat="43.59228" lon="1.31763">
        <ele>188</ele>
        <time>2024-07-09T04:53:12Z</time>
      </trkpt>
      <trkpt lat="43.59232" lon="1.31761">
        <ele>188</ele>
        <time>2024-07-09T04:53:13Z</time>
      </trkpt>
      <trkpt lat="43.59236" lon="1.3176">
        <ele>188</ele>
        <time>2024-07-09T04:53:14Z</time>
      </trkpt>
      <trkpt lat="43.5924" lon="1.31759">
        <ele>188</ele>
        <time>2024-07-09T04:53:15Z</time>
      </trkpt>
      <trkpt lat="43.59245" lon="1.31759">
        <ele>188</ele>
        <time>2024-07-09T04:53:16Z</time>
      </trkpt>
      <trkpt lat="43.5925" lon="1.3176">
        <ele>188</ele>
        <time>2024-07-09T04:53:17Z</time>
      </trkpt>
      <trkpt lat="43.59254" lon="1.31762">
        <ele>188</ele>
        <time>2024-07-09T04:53:18Z</time>
      </trkpt>
      <trkpt lat="43.59258" lon="1.31765">
        <ele>188</ele>
        <time>2024-07-09T04:53:19Z</time>
      </trkpt>
      <trkpt lat="43.59263" lon="1.31767">
        <ele>188</ele>
        <time>2024-07-09T04:53:20Z</time>
      </trkpt>
      <trkpt lat="43.59268" lon="1.31769">
        <ele>188</ele>
        <time>2024-07-09T04:53:21Z</time>
      </trkpt>
      <trkpt lat="43.59273" lon="1.3177">
        <ele>188</ele>
        <time>2024-07-09T04:53:22Z</time>
      </trkpt>
      <trkpt lat="43.59278" lon="1.31772">
        <ele>188.2</ele>
        <time>2024-07-09T04:53:23Z</time>
      </trkpt>
      <trkpt lat="43.59283" lon="1.31773">
        <ele>188.2</ele>
        <time>2024-07-09T04:53:24Z</time>
      </trkpt>
      <trkpt lat="43.59288" lon="1.31774">
        <ele>188.2</ele>
        <time>2024-07-09T04:53:25Z</time>
      </trkpt>
      <trkpt lat="43.59292" lon="1.31777">
        <ele>188.2</ele>
        <time>2024-07-09T04:53:26Z</time>
      </trkpt>
      <trkpt lat="43.59298" lon="1.3178">
        <ele>188.2</ele>
        <time>2024-07-09T04:53:27Z</time>
      </trkpt>
      <trkpt lat="43.59303" lon="1.31782">
        <ele>188.4</ele>
        <time>2024-07-09T04:53:28Z</time>
      </trkpt>
      <trkpt lat="43.59307" lon="1.31784">
        <ele>188.4</ele>
        <time>2024-07-09T04:53:29Z</time>
      </trkpt>
      <trkpt lat="43.59312" lon="1.31785">
        <ele>188.4</ele>
        <time>2024-07-09T04:53:30Z</time>
      </trkpt>
      <trkpt lat="43.59317" lon="1.31786">
        <ele>188.6</ele>
        <time>2024-07-09T04:53:31Z</time>
      </trkpt>
      <trkpt lat="43.59323" lon="1.31786">
        <ele>188.6</ele>
        <time>2024-07-09T04:53:32Z</time>
      </trkpt>
      <trkpt lat="43.59328" lon="1.31787">
        <ele>188.6</ele>
        <time>2024-07-09T04:53:33Z</time>
      </trkpt>
      <trkpt lat="43.59332" lon="1.31785">
        <ele>188.6</ele>
        <time>2024-07-09T04:53:34Z</time>
      </trkpt>
      <trkpt lat="43.59336" lon="1.31784">
        <ele>188.6</ele>
        <time>2024-07-09T04:53:35Z</time>
      </trkpt>
      <trkpt lat="43.59338" lon="1.31783">
        <ele>188.6</ele>
        <time>2024-07-09T04:53:36Z</time>
      </trkpt>
      <trkpt lat="43.5934" lon="1.31781">
        <ele>188.6</ele>
        <time>2024-07-09T04:53:37Z</time>
      </trkpt>
      <trkpt lat="43.59342" lon="1.31778">
        <ele>188.6</ele>
        <time>2024-07-09T04:53:38Z</time>
      </trkpt>
      <trkpt lat="43.59344" lon="1.31774">
        <ele>188.8</ele>
        <time>2024-07-09T04:53:39Z</time>
      </trkpt>
      <trkpt lat="43.59348" lon="1.31771">
        <ele>188.6</ele>
        <time>2024-07-09T04:53:40Z</time>
      </trkpt>
      <trkpt lat="43.5935" lon="1.31769">
        <ele>188.6</ele>
        <time>2024-07-09T04:53:41Z</time>
      </trkpt>
      <trkpt lat="43.59354" lon="1.31766">
        <ele>188.6</ele>
        <time>2024-07-09T04:53:42Z</time>
      </trkpt>
      <trkpt lat="43.59357" lon="1.31763">
        <ele>188.6</ele>
        <time>2024-07-09T04:53:43Z</time>
      </trkpt>
      <trkpt lat="43.59361" lon="1.31759">
        <ele>188.6</ele>
        <time>2024-07-09T04:53:44Z</time>
      </trkpt>
      <trkpt lat="43.59364" lon="1.31756">
        <ele>188.6</ele>
        <time>2024-07-09T04:53:45Z</time>
      </trkpt>
      <trkpt lat="43.59368" lon="1.31753">
        <ele>188.6</ele>
        <time>2024-07-09T04:53:46Z</time>
      </trkpt>
      <trkpt lat="43.59372" lon="1.3175">
        <ele>188.6</ele>
        <time>2024-07-09T04:53:47Z</time>
      </trkpt>
      <trkpt lat="43.59377" lon="1.31747">
        <ele>188.6</ele>
        <time>2024-07-09T04:53:48Z</time>
      </trkpt>
      <trkpt lat="43.59381" lon="1.31743">
        <ele>188.6</ele>
        <time>2024-07-09T04:53:49Z</time>
      </trkpt>
      <trkpt lat="43.59384" lon="1.31739">
        <ele>188.4</ele>
        <time>2024-07-09T04:53:50Z</time>
      </trkpt>
      <trkpt lat="43.59389" lon="1.31737">
        <ele>188.4</ele>
        <time>2024-07-09T04:53:51Z</time>
      </trkpt>
      <trkpt lat="43.59394" lon="1.31735">
        <ele>188.4</ele>
        <time>2024-07-09T04:53:52Z</time>
      </trkpt>
      <trkpt lat="43.59399" lon="1.31734">
        <ele>188.4</ele>
        <time>2024-07-09T04:53:53Z</time>
      </trkpt>
      <trkpt lat="43.59404" lon="1.31734">
        <ele>188.4</ele>
        <time>2024-07-09T04:53:54Z</time>
      </trkpt>
      <trkpt lat="43.59409" lon="1.31734">
        <ele>188.4</ele>
        <time>2024-07-09T04:53:55Z</time>
      </trkpt>
      <trkpt lat="43.59415" lon="1.31734">
        <ele>188.4</ele>
        <time>2024-07-09T04:53:56Z</time>
      </trkpt>
      <trkpt lat="43.5942" lon="1.31732">
        <ele>188.4</ele>
        <time>2024-07-09T04:53:57Z</time>
      </trkpt>
      <trkpt lat="43.59425" lon="1.3173">
        <ele>188.4</ele>
        <time>2024-07-09T04:53:58Z</time>
      </trkpt>
      <trkpt lat="43.59431" lon="1.31729">
        <ele>188.4</ele>
        <time>2024-07-09T04:53:59Z</time>
      </trkpt>
      <trkpt lat="43.59436" lon="1.31729">
        <ele>188.4</ele>
        <time>2024-07-09T04:54:00Z</time>
      </trkpt>
      <trkpt lat="43.59442" lon="1.3173">
        <ele>188.4</ele>
        <time>2024-07-09T04:54:01Z</time>
      </trkpt>
      <trkpt lat="43.59447" lon="1.31731">
        <ele>188.4</ele>
        <time>2024-07-09T04:54:02Z</time>
      </trkpt>
      <trkpt lat="43.59453" lon="1.31731">
        <ele>188.4</ele>
        <time>2024-07-09T04:54:03Z</time>
      </trkpt>
      <trkpt lat="43.59458" lon="1.31732">
        <ele>188.4</ele>
        <time>2024-07-09T04:54:04Z</time>
      </trkpt>
      <trkpt lat="43.59463" lon="1.31733">
        <ele>188.4</ele>
        <time>2024-07-09T04:54:05Z</time>
      </trkpt>
      <trkpt lat="43.59469" lon="1.31733">
        <ele>188.4</ele>
        <time>2024-07-09T04:54:06Z</time>
      </trkpt>
      <trkpt lat="43.59474" lon="1.31733">
        <ele>188.6</ele>
        <time>2024-07-09T04:54:07Z</time>
      </trkpt>
      <trkpt lat="43.5948" lon="1.31733">
        <ele>188.6</ele>
        <time>2024-07-09T04:54:08Z</time>
      </trkpt>
      <trkpt lat="43.59485" lon="1.31735">
        <ele>188.6</ele>
        <time>2024-07-09T04:54:09Z</time>
      </trkpt>
      <trkpt lat="43.59488" lon="1.31739">
        <ele>188.6</ele>
        <time>2024-07-09T04:54:10Z</time>
      </trkpt>
      <trkpt lat="43.59489" lon="1.31745">
        <ele>188.8</ele>
        <time>2024-07-09T04:54:11Z</time>
      </trkpt>
      <trkpt lat="43.59489" lon="1.31752">
        <ele>188.8</ele>
        <time>2024-07-09T04:54:12Z</time>
      </trkpt>
      <trkpt lat="43.59489" lon="1.31759">
        <ele>188.8</ele>
        <time>2024-07-09T04:54:13Z</time>
      </trkpt>
      <trkpt lat="43.59489" lon="1.31766">
        <ele>188.8</ele>
        <time>2024-07-09T04:54:14Z</time>
      </trkpt>
      <trkpt lat="43.59489" lon="1.31772">
        <ele>188.8</ele>
        <time>2024-07-09T04:54:15Z</time>
      </trkpt>
      <trkpt lat="43.59489" lon="1.31779">
        <ele>188.8</ele>
        <time>2024-07-09T04:54:16Z</time>
      </trkpt>
      <trkpt lat="43.59489" lon="1.31786">
        <ele>188.6</ele>
        <time>2024-07-09T04:54:17Z</time>
      </trkpt>
      <trkpt lat="43.59489" lon="1.31793">
        <ele>188.4</ele>
        <time>2024-07-09T04:54:18Z</time>
      </trkpt>
      <trkpt lat="43.59489" lon="1.31801">
        <ele>188.6</ele>
        <time>2024-07-09T04:54:19Z</time>
      </trkpt>
      <trkpt lat="43.59488" lon="1.31808">
        <ele>188.6</ele>
        <time>2024-07-09T04:54:20Z</time>
      </trkpt>
      <trkpt lat="43.59488" lon="1.31815">
        <ele>188.6</ele>
        <time>2024-07-09T04:54:21Z</time>
      </trkpt>
      <trkpt lat="43.59488" lon="1.31822">
        <ele>188.6</ele>
        <time>2024-07-09T04:54:22Z</time>
      </trkpt>
      <trkpt lat="43.59488" lon="1.3183">
        <ele>188.4</ele>
        <time>2024-07-09T04:54:23Z</time>
      </trkpt>
      <trkpt lat="43.59488" lon="1.31837">
        <ele>188.4</ele>
        <time>2024-07-09T04:54:24Z</time>
      </trkpt>
      <trkpt lat="43.59488" lon="1.31845">
        <ele>188.4</ele>
        <time>2024-07-09T04:54:25Z</time>
      </trkpt>
      <trkpt lat="43.59488" lon="1.31852">
        <ele>188.4</ele>
        <time>2024-07-09T04:54:26Z</time>
      </trkpt>
      <trkpt lat="43.59487" lon="1.3186">
        <ele>188.4</ele>
        <time>2024-07-09T04:54:27Z</time>
      </trkpt>
      <trkpt lat="43.59487" lon="1.31867">
        <ele>188.4</ele>
        <time>2024-07-09T04:54:28Z</time>
      </trkpt>
      <trkpt lat="43.59487" lon="1.31874">
        <ele>188.4</ele>
        <time>2024-07-09T04:54:29Z</time>
      </trkpt>
      <trkpt lat="43.59488" lon="1.31881">
        <ele>188.4</ele>
        <time>2024-07-09T04:54:30Z</time>
      </trkpt>
      <trkpt lat="43.59488" lon="1.31889">
        <ele>188.4</ele>
        <time>2024-07-09T04:54:31Z</time>
      </trkpt>
      <trkpt lat="43.5949" lon="1.31896">
        <ele>188.4</ele>
        <time>2024-07-09T04:54:32Z</time>
      </trkpt>
      <trkpt lat="43.59492" lon="1.31903">
        <ele>188.4</ele>
        <time>2024-07-09T04:54:33Z</time>
      </trkpt>
      <trkpt lat="43.59494" lon="1.31911">
        <ele>188.4</ele>
        <time>2024-07-09T04:54:34Z</time>
      </trkpt>
      <trkpt lat="43.59496" lon="1.31917">
        <ele>188.4</ele>
        <time>2024-07-09T04:54:35Z</time>
      </trkpt>
      <trkpt lat="43.59498" lon="1.31923">
        <ele>188.6</ele>
        <time>2024-07-09T04:54:36Z</time>
      </trkpt>
      <trkpt lat="43.59501" lon="1.3193">
        <ele>188.6</ele>
        <time>2024-07-09T04:54:37Z</time>
      </trkpt>
      <trkpt lat="43.59504" lon="1.31936">
        <ele>188.6</ele>
        <time>2024-07-09T04:54:38Z</time>
      </trkpt>
      <trkpt lat="43.59507" lon="1.31942">
        <ele>188.6</ele>
        <time>2024-07-09T04:54:39Z</time>
      </trkpt>
      <trkpt lat="43.59511" lon="1.31948">
        <ele>188.6</ele>
        <time>2024-07-09T04:54:40Z</time>
      </trkpt>
      <trkpt lat="43.59514" lon="1.31954">
        <ele>188.6</ele>
        <time>2024-07-09T04:54:41Z</time>
      </trkpt>
      <trkpt lat="43.59517" lon="1.31961">
        <ele>188.6</ele>
        <time>2024-07-09T04:54:42Z</time>
      </trkpt>
      <trkpt lat="43.5952" lon="1.31967">
        <ele>188.6</ele>
        <time>2024-07-09T04:54:43Z</time>
      </trkpt>
      <trkpt lat="43.59524" lon="1.31973">
        <ele>188.6</ele>
        <time>2024-07-09T04:54:44Z</time>
      </trkpt>
      <trkpt lat="43.59529" lon="1.31977">
        <ele>188.6</ele>
        <time>2024-07-09T04:54:45Z</time>
      </trkpt>
      <trkpt lat="43.59534" lon="1.3198">
        <ele>188.6</ele>
        <time>2024-07-09T04:54:46Z</time>
      </trkpt>
      <trkpt lat="43.59539" lon="1.31984">
        <ele>188.6</ele>
        <time>2024-07-09T04:54:47Z</time>
      </trkpt>
      <trkpt lat="43.59544" lon="1.31987">
        <ele>188.6</ele>
        <time>2024-07-09T04:54:48Z</time>
      </trkpt>
      <trkpt lat="43.59549" lon="1.31991">
        <ele>188.4</ele>
        <time>2024-07-09T04:54:49Z</time>
      </trkpt>
      <trkpt lat="43.59555" lon="1.31993">
        <ele>188.4</ele>
        <time>2024-07-09T04:54:50Z</time>
      </trkpt>
      <trkpt lat="43.5956" lon="1.31995">
        <ele>188.4</ele>
        <time>2024-07-09T04:54:51Z</time>
      </trkpt>
      <trkpt lat="43.59565" lon="1.31995">
        <ele>188.4</ele>
        <time>2024-07-09T04:54:52Z</time>
      </trkpt>
      <trkpt lat="43.5957" lon="1.31994">
        <ele>188.4</ele>
        <time>2024-07-09T04:54:53Z</time>
      </trkpt>
      <trkpt lat="43.59576" lon="1.31994">
        <ele>188.2</ele>
        <time>2024-07-09T04:54:54Z</time>
      </trkpt>
      <trkpt lat="43.59582" lon="1.31996">
        <ele>188.2</ele>
        <time>2024-07-09T04:54:55Z</time>
      </trkpt>
      <trkpt lat="43.59584" lon="1.32">
        <ele>188</ele>
        <time>2024-07-09T04:54:56Z</time>
      </trkpt>
      <trkpt lat="43.59587" lon="1.32006">
        <ele>188</ele>
        <time>2024-07-09T04:54:57Z</time>
      </trkpt>
      <trkpt lat="43.59589" lon="1.32013">
        <ele>188</ele>
        <time>2024-07-09T04:54:58Z</time>
      </trkpt>
      <trkpt lat="43.59592" lon="1.32019">
        <ele>188</ele>
        <time>2024-07-09T04:54:59Z</time>
      </trkpt>
      <trkpt lat="43.59595" lon="1.32025">
        <ele>187.8</ele>
        <time>2024-07-09T04:55:00Z</time>
      </trkpt>
      <trkpt lat="43.59599" lon="1.32029">
        <ele>187.8</ele>
        <time>2024-07-09T04:55:01Z</time>
      </trkpt>
      <trkpt lat="43.59604" lon="1.32033">
        <ele>187.8</ele>
        <time>2024-07-09T04:55:02Z</time>
      </trkpt>
      <trkpt lat="43.59608" lon="1.32037">
        <ele>187.8</ele>
        <time>2024-07-09T04:55:03Z</time>
      </trkpt>
      <trkpt lat="43.59613" lon="1.3204">
        <ele>187.6</ele>
        <time>2024-07-09T04:55:04Z</time>
      </trkpt>
      <trkpt lat="43.59618" lon="1.32044">
        <ele>187.6</ele>
        <time>2024-07-09T04:55:05Z</time>
      </trkpt>
      <trkpt lat="43.59623" lon="1.32048">
        <ele>187.6</ele>
        <time>2024-07-09T04:55:06Z</time>
      </trkpt>
      <trkpt lat="43.59628" lon="1.32051">
        <ele>187.6</ele>
        <time>2024-07-09T04:55:07Z</time>
      </trkpt>
      <trkpt lat="43.59633" lon="1.32055">
        <ele>187.6</ele>
        <time>2024-07-09T04:55:08Z</time>
      </trkpt>
      <trkpt lat="43.59638" lon="1.32059">
        <ele>187.6</ele>
        <time>2024-07-09T04:55:09Z</time>
      </trkpt>
      <trkpt lat="43.59643" lon="1.32062">
        <ele>187.6</ele>
        <time>2024-07-09T04:55:10Z</time>
      </trkpt>
      <trkpt lat="43.59648" lon="1.32066">
        <ele>187.6</ele>
        <time>2024-07-09T04:55:11Z</time>
      </trkpt>
      <trkpt lat="43.59653" lon="1.3207">
        <ele>187.6</ele>
        <time>2024-07-09T04:55:12Z</time>
      </trkpt>
      <trkpt lat="43.59658" lon="1.32074">
        <ele>187.6</ele>
        <time>2024-07-09T04:55:13Z</time>
      </trkpt>
      <trkpt lat="43.59663" lon="1.32078">
        <ele>187.6</ele>
        <time>2024-07-09T04:55:14Z</time>
      </trkpt>
      <trkpt lat="43.59669" lon="1.32081">
        <ele>187.6</ele>
        <time>2024-07-09T04:55:15Z</time>
      </trkpt>
      <trkpt lat="43.59676" lon="1.32086">
        <ele>187.6</ele>
        <time>2024-07-09T04:55:16Z</time>
      </trkpt>
      <trkpt lat="43.59681" lon="1.32089">
        <ele>187.6</ele>
        <time>2024-07-09T04:55:17Z</time>
      </trkpt>
      <trkpt lat="43.59687" lon="1.32094">
        <ele>187.6</ele>
        <time>2024-07-09T04:55:18Z</time>
      </trkpt>
      <trkpt lat="43.59692" lon="1.32098">
        <ele>187.6</ele>
        <time>2024-07-09T04:55:19Z</time>
      </trkpt>
      <trkpt lat="43.59698" lon="1.32102">
        <ele>187.6</ele>
        <time>2024-07-09T04:55:20Z</time>
      </trkpt>
      <trkpt lat="43.59704" lon="1.32106">
        <ele>187.6</ele>
        <time>2024-07-09T04:55:21Z</time>
      </trkpt>
      <trkpt lat="43.5971" lon="1.3211">
        <ele>187.4</ele>
        <time>2024-07-09T04:55:22Z</time>
      </trkpt>
      <trkpt lat="43.59715" lon="1.32114">
        <ele>187.4</ele>
        <time>2024-07-09T04:55:23Z</time>
      </trkpt>
      <trkpt lat="43.59721" lon="1.32118">
        <ele>187.4</ele>
        <time>2024-07-09T04:55:24Z</time>
      </trkpt>
      <trkpt lat="43.59727" lon="1.32122">
        <ele>187.4</ele>
        <time>2024-07-09T04:55:25Z</time>
      </trkpt>
      <trkpt lat="43.59732" lon="1.32127">
        <ele>187.4</ele>
        <time>2024-07-09T04:55:26Z</time>
      </trkpt>
      <trkpt lat="43.59738" lon="1.32131">
        <ele>187.4</ele>
        <time>2024-07-09T04:55:27Z</time>
      </trkpt>
      <trkpt lat="43.59744" lon="1.32135">
        <ele>187.4</ele>
        <time>2024-07-09T04:55:28Z</time>
      </trkpt>
      <trkpt lat="43.5975" lon="1.32139">
        <ele>187.4</ele>
        <time>2024-07-09T04:55:29Z</time>
      </trkpt>
      <trkpt lat="43.59756" lon="1.32143">
        <ele>187.4</ele>
        <time>2024-07-09T04:55:30Z</time>
      </trkpt>
      <trkpt lat="43.59762" lon="1.32147">
        <ele>187.2</ele>
        <time>2024-07-09T04:55:31Z</time>
      </trkpt>
      <trkpt lat="43.59767" lon="1.32148">
        <ele>187.2</ele>
        <time>2024-07-09T04:55:32Z</time>
      </trkpt>
      <trkpt lat="43.59772" lon="1.32148">
        <ele>187.2</ele>
        <time>2024-07-09T04:55:33Z</time>
      </trkpt>
      <trkpt lat="43.59777" lon="1.32148">
        <ele>187.2</ele>
        <time>2024-07-09T04:55:34Z</time>
      </trkpt>
      <trkpt lat="43.59782" lon="1.3215">
        <ele>187.2</ele>
        <time>2024-07-09T04:55:35Z</time>
      </trkpt>
      <trkpt lat="43.59786" lon="1.32154">
        <ele>187.2</ele>
        <time>2024-07-09T04:55:36Z</time>
      </trkpt>
      <trkpt lat="43.59787" lon="1.3216">
        <ele>187.2</ele>
        <time>2024-07-09T04:55:37Z</time>
      </trkpt>
      <trkpt lat="43.5979" lon="1.32166">
        <ele>187.2</ele>
        <time>2024-07-09T04:55:38Z</time>
      </trkpt>
      <trkpt lat="43.59793" lon="1.32171">
        <ele>187.2</ele>
        <time>2024-07-09T04:55:39Z</time>
      </trkpt>
      <trkpt lat="43.59797" lon="1.32176">
        <ele>187.2</ele>
        <time>2024-07-09T04:55:40Z</time>
      </trkpt>
      <trkpt lat="43.59802" lon="1.3218">
        <ele>187.2</ele>
        <time>2024-07-09T04:55:41Z</time>
      </trkpt>
      <trkpt lat="43.59807" lon="1.32184">
        <ele>187.2</ele>
        <time>2024-07-09T04:55:42Z</time>
      </trkpt>
      <trkpt lat="43.59812" lon="1.32189">
        <ele>187.2</ele>
        <time>2024-07-09T04:55:43Z</time>
      </trkpt>
      <trkpt lat="43.59816" lon="1.32194">
        <ele>187.2</ele>
        <time>2024-07-09T04:55:44Z</time>
      </trkpt>
      <trkpt lat="43.5982" lon="1.32199">
        <ele>187.2</ele>
        <time>2024-07-09T04:55:45Z</time>
      </trkpt>
      <trkpt lat="43.59825" lon="1.32204">
        <ele>187.2</ele>
        <time>2024-07-09T04:55:46Z</time>
      </trkpt>
      <trkpt lat="43.5983" lon="1.32208">
        <ele>187.2</ele>
        <time>2024-07-09T04:55:47Z</time>
      </trkpt>
      <trkpt lat="43.59835" lon="1.32212">
        <ele>187.2</ele>
        <time>2024-07-09T04:55:48Z</time>
      </trkpt>
      <trkpt lat="43.59841" lon="1.32214">
        <ele>187.2</ele>
        <time>2024-07-09T04:55:49Z</time>
      </trkpt>
      <trkpt lat="43.59848" lon="1.32215">
        <ele>187.2</ele>
        <time>2024-07-09T04:55:50Z</time>
      </trkpt>
      <trkpt lat="43.59854" lon="1.32216">
        <ele>187.2</ele>
        <time>2024-07-09T04:55:51Z</time>
      </trkpt>
      <trkpt lat="43.5986" lon="1.32217">
        <ele>187.4</ele>
        <time>2024-07-09T04:55:52Z</time>
      </trkpt>
      <trkpt lat="43.59866" lon="1.32217">
        <ele>187.2</ele>
        <time>2024-07-09T04:55:53Z</time>
      </trkpt>
      <trkpt lat="43.59873" lon="1.32218">
        <ele>187.2</ele>
        <time>2024-07-09T04:55:54Z</time>
      </trkpt>
      <trkpt lat="43.59879" lon="1.32219">
        <ele>187.2</ele>
        <time>2024-07-09T04:55:55Z</time>
      </trkpt>
      <trkpt lat="43.59886" lon="1.32219">
        <ele>187.2</ele>
        <time>2024-07-09T04:55:56Z</time>
      </trkpt>
      <trkpt lat="43.59892" lon="1.3222">
        <ele>187.2</ele>
        <time>2024-07-09T04:55:57Z</time>
      </trkpt>
      <trkpt lat="43.59898" lon="1.32221">
        <ele>187.2</ele>
        <time>2024-07-09T04:55:58Z</time>
      </trkpt>
      <trkpt lat="43.59905" lon="1.32222">
        <ele>187.2</ele>
        <time>2024-07-09T04:55:59Z</time>
      </trkpt>
      <trkpt lat="43.59911" lon="1.32223">
        <ele>187.2</ele>
        <time>2024-07-09T04:56:00Z</time>
      </trkpt>
      <trkpt lat="43.59918" lon="1.32224">
        <ele>187.2</ele>
        <time>2024-07-09T04:56:01Z</time>
      </trkpt>
      <trkpt lat="43.59924" lon="1.32225">
        <ele>187.2</ele>
        <time>2024-07-09T04:56:02Z</time>
      </trkpt>
      <trkpt lat="43.59931" lon="1.32225">
        <ele>187.2</ele>
        <time>2024-07-09T04:56:03Z</time>
      </trkpt>
      <trkpt lat="43.59937" lon="1.32226">
        <ele>187.2</ele>
        <time>2024-07-09T04:56:04Z</time>
      </trkpt>
      <trkpt lat="43.59943" lon="1.32227">
        <ele>187.2</ele>
        <time>2024-07-09T04:56:05Z</time>
      </trkpt>
      <trkpt lat="43.59949" lon="1.32228">
        <ele>187.2</ele>
        <time>2024-07-09T04:56:06Z</time>
      </trkpt>
      <trkpt lat="43.59956" lon="1.3223">
        <ele>187.2</ele>
        <time>2024-07-09T04:56:07Z</time>
      </trkpt>
      <trkpt lat="43.59962" lon="1.32233">
        <ele>187.2</ele>
        <time>2024-07-09T04:56:08Z</time>
      </trkpt>
      <trkpt lat="43.59967" lon="1.32237">
        <ele>187.2</ele>
        <time>2024-07-09T04:56:09Z</time>
      </trkpt>
      <trkpt lat="43.59973" lon="1.32241">
        <ele>187.2</ele>
        <time>2024-07-09T04:56:10Z</time>
      </trkpt>
      <trkpt lat="43.59978" lon="1.32246">
        <ele>187.2</ele>
        <time>2024-07-09T04:56:11Z</time>
      </trkpt>
      <trkpt lat="43.59983" lon="1.32252">
        <ele>187.4</ele>
        <time>2024-07-09T04:56:12Z</time>
      </trkpt>
      <trkpt lat="43.59987" lon="1.32256">
        <ele>187.4</ele>
        <time>2024-07-09T04:56:13Z</time>
      </trkpt>
      <trkpt lat="43.59992" lon="1.32261">
        <ele>187.4</ele>
        <time>2024-07-09T04:56:14Z</time>
      </trkpt>
      <trkpt lat="43.59995" lon="1.32265">
        <ele>187.4</ele>
        <time>2024-07-09T04:56:15Z</time>
      </trkpt>
      <trkpt lat="43.6" lon="1.32269">
        <ele>187.6</ele>
        <time>2024-07-09T04:56:16Z</time>
      </trkpt>
      <trkpt lat="43.60005" lon="1.32271">
        <ele>187.6</ele>
        <time>2024-07-09T04:56:17Z</time>
      </trkpt>
      <trkpt lat="43.6001" lon="1.32271">
        <ele>187.4</ele>
        <time>2024-07-09T04:56:18Z</time>
      </trkpt>
      <trkpt lat="43.60016" lon="1.32271">
        <ele>187.2</ele>
        <time>2024-07-09T04:56:19Z</time>
      </trkpt>
      <trkpt lat="43.60021" lon="1.32269">
        <ele>187.4</ele>
        <time>2024-07-09T04:56:20Z</time>
      </trkpt>
      <trkpt lat="43.60027" lon="1.32268">
        <ele>187.2</ele>
        <time>2024-07-09T04:56:21Z</time>
      </trkpt>
      <trkpt lat="43.60032" lon="1.32265">
        <ele>187.2</ele>
        <time>2024-07-09T04:56:22Z</time>
      </trkpt>
      <trkpt lat="43.60036" lon="1.32263">
        <ele>187.2</ele>
        <time>2024-07-09T04:56:23Z</time>
      </trkpt>
      <trkpt lat="43.6004" lon="1.32261">
        <ele>187.2</ele>
        <time>2024-07-09T04:56:24Z</time>
      </trkpt>
      <trkpt lat="43.60043" lon="1.32261">
        <ele>187.2</ele>
        <time>2024-07-09T04:56:25Z</time>
      </trkpt>
      <trkpt lat="43.60047" lon="1.32263">
        <ele>187.2</ele>
        <time>2024-07-09T04:56:26Z</time>
      </trkpt>
      <trkpt lat="43.60049" lon="1.32267">
        <ele>187.2</ele>
        <time>2024-07-09T04:56:27Z</time>
      </trkpt>
      <trkpt lat="43.60049" lon="1.32272">
        <ele>187.2</ele>
        <time>2024-07-09T04:56:28Z</time>
      </trkpt>
      <trkpt lat="43.60049" lon="1.32277">
        <ele>187.2</ele>
        <time>2024-07-09T04:56:29Z</time>
      </trkpt>
      <trkpt lat="43.60048" lon="1.32283">
        <ele>187.2</ele>
        <time>2024-07-09T04:56:30Z</time>
      </trkpt>
      <trkpt lat="43.60049" lon="1.3229">
        <ele>187.2</ele>
        <time>2024-07-09T04:56:31Z</time>
      </trkpt>
      <trkpt lat="43.60049" lon="1.32296">
        <ele>187.2</ele>
        <time>2024-07-09T04:56:32Z</time>
      </trkpt>
      <trkpt lat="43.60049" lon="1.32303">
        <ele>187.2</ele>
        <time>2024-07-09T04:56:33Z</time>
      </trkpt>
      <trkpt lat="43.6005" lon="1.32309">
        <ele>187.2</ele>
        <time>2024-07-09T04:56:34Z</time>
      </trkpt>
      <trkpt lat="43.6005" lon="1.32316">
        <ele>187.2</ele>
        <time>2024-07-09T04:56:35Z</time>
      </trkpt>
      <trkpt lat="43.60052" lon="1.32323">
        <ele>187.2</ele>
        <time>2024-07-09T04:56:36Z</time>
      </trkpt>
      <trkpt lat="43.60054" lon="1.32329">
        <ele>187.2</ele>
        <time>2024-07-09T04:56:37Z</time>
      </trkpt>
      <trkpt lat="43.60056" lon="1.32335">
        <ele>187.2</ele>
        <time>2024-07-09T04:56:38Z</time>
      </trkpt>
      <trkpt lat="43.6006" lon="1.3234">
        <ele>187.2</ele>
        <time>2024-07-09T04:56:39Z</time>
      </trkpt>
      <trkpt lat="43.60063" lon="1.32346">
        <ele>187.2</ele>
        <time>2024-07-09T04:56:40Z</time>
      </trkpt>
      <trkpt lat="43.60067" lon="1.32351">
        <ele>187.4</ele>
        <time>2024-07-09T04:56:41Z</time>
      </trkpt>
      <trkpt lat="43.60072" lon="1.32356">
        <ele>187.4</ele>
        <time>2024-07-09T04:56:42Z</time>
      </trkpt>
      <trkpt lat="43.60076" lon="1.32362">
        <ele>187.4</ele>
        <time>2024-07-09T04:56:43Z</time>
      </trkpt>
      <trkpt lat="43.60081" lon="1.32367">
        <ele>187.4</ele>
        <time>2024-07-09T04:56:44Z</time>
      </trkpt>
      <trkpt lat="43.60086" lon="1.32373">
        <ele>187.4</ele>
        <time>2024-07-09T04:56:45Z</time>
      </trkpt>
      <trkpt lat="43.6009" lon="1.32378">
        <ele>187.4</ele>
        <time>2024-07-09T04:56:46Z</time>
      </trkpt>
      <trkpt lat="43.60095" lon="1.32384">
        <ele>187.4</ele>
        <time>2024-07-09T04:56:47Z</time>
      </trkpt>
      <trkpt lat="43.601" lon="1.32389">
        <ele>187.4</ele>
        <time>2024-07-09T04:56:48Z</time>
      </trkpt>
      <trkpt lat="43.60104" lon="1.32395">
        <ele>187.4</ele>
        <time>2024-07-09T04:56:49Z</time>
      </trkpt>
      <trkpt lat="43.60109" lon="1.32401">
        <ele>187.4</ele>
        <time>2024-07-09T04:56:50Z</time>
      </trkpt>
      <trkpt lat="43.60114" lon="1.32407">
        <ele>187.2</ele>
        <time>2024-07-09T04:56:51Z</time>
      </trkpt>
      <trkpt lat="43.60118" lon="1.32413">
        <ele>187.2</ele>
        <time>2024-07-09T04:56:52Z</time>
      </trkpt>
      <trkpt lat="43.60123" lon="1.32418">
        <ele>187</ele>
        <time>2024-07-09T04:56:53Z</time>
      </trkpt>
      <trkpt lat="43.60128" lon="1.32424">
        <ele>187</ele>
        <time>2024-07-09T04:56:54Z</time>
      </trkpt>
      <trkpt lat="43.60133" lon="1.32429">
        <ele>186.8</ele>
        <time>2024-07-09T04:56:55Z</time>
      </trkpt>
      <trkpt lat="43.60137" lon="1.32434">
        <ele>186.8</ele>
        <time>2024-07-09T04:56:56Z</time>
      </trkpt>
      <trkpt lat="43.60142" lon="1.32439">
        <ele>186.6</ele>
        <time>2024-07-09T04:56:57Z</time>
      </trkpt>
      <trkpt lat="43.60147" lon="1.32445">
        <ele>186.6</ele>
        <time>2024-07-09T04:56:58Z</time>
      </trkpt>
      <trkpt lat="43.60151" lon="1.32451">
        <ele>186.6</ele>
        <time>2024-07-09T04:56:59Z</time>
      </trkpt>
      <trkpt lat="43.60156" lon="1.32456">
        <ele>186.6</ele>
        <time>2024-07-09T04:57:00Z</time>
      </trkpt>
      <trkpt lat="43.60161" lon="1.32462">
        <ele>186.6</ele>
        <time>2024-07-09T04:57:01Z</time>
      </trkpt>
      <trkpt lat="43.60165" lon="1.32467">
        <ele>186.6</ele>
        <time>2024-07-09T04:57:02Z</time>
      </trkpt>
      <trkpt lat="43.6017" lon="1.32472">
        <ele>186.6</ele>
        <time>2024-07-09T04:57:03Z</time>
      </trkpt>
      <trkpt lat="43.60175" lon="1.32477">
        <ele>186.6</ele>
        <time>2024-07-09T04:57:04Z</time>
      </trkpt>
      <trkpt lat="43.6018" lon="1.32483">
        <ele>186.6</ele>
        <time>2024-07-09T04:57:05Z</time>
      </trkpt>
      <trkpt lat="43.60184" lon="1.32488">
        <ele>186.6</ele>
        <time>2024-07-09T04:57:06Z</time>
      </trkpt>
      <trkpt lat="43.60189" lon="1.32494">
        <ele>186.6</ele>
        <time>2024-07-09T04:57:07Z</time>
      </trkpt>
      <trkpt lat="43.60194" lon="1.32499">
        <ele>186.6</ele>
        <time>2024-07-09T04:57:08Z</time>
      </trkpt>
      <trkpt lat="43.60198" lon="1.32505">
        <ele>186.6</ele>
        <time>2024-07-09T04:57:09Z</time>
      </trkpt>
      <trkpt lat="43.60203" lon="1.32511">
        <ele>186.6</ele>
        <time>2024-07-09T04:57:10Z</time>
      </trkpt>
      <trkpt lat="43.60207" lon="1.32516">
        <ele>186.6</ele>
        <time>2024-07-09T04:57:11Z</time>
      </trkpt>
      <trkpt lat="43.60212" lon="1.32521">
        <ele>186.6</ele>
        <time>2024-07-09T04:57:12Z</time>
      </trkpt>
      <trkpt lat="43.60217" lon="1.32527">
        <ele>186.6</ele>
        <time>2024-07-09T04:57:13Z</time>
      </trkpt>
      <trkpt lat="43.60221" lon="1.32532">
        <ele>186.8</ele>
        <time>2024-07-09T04:57:14Z</time>
      </trkpt>
      <trkpt lat="43.60226" lon="1.32538">
        <ele>186.8</ele>
        <time>2024-07-09T04:57:15Z</time>
      </trkpt>
      <trkpt lat="43.60231" lon="1.32543">
        <ele>186.8</ele>
        <time>2024-07-09T04:57:16Z</time>
      </trkpt>
      <trkpt lat="43.60235" lon="1.32549">
        <ele>187</ele>
        <time>2024-07-09T04:57:17Z</time>
      </trkpt>
      <trkpt lat="43.6024" lon="1.32554">
        <ele>187</ele>
        <time>2024-07-09T04:57:18Z</time>
      </trkpt>
      <trkpt lat="43.60244" lon="1.3256">
        <ele>187</ele>
        <time>2024-07-09T04:57:19Z</time>
      </trkpt>
      <trkpt lat="43.60248" lon="1.32565">
        <ele>187</ele>
        <time>2024-07-09T04:57:20Z</time>
      </trkpt>
      <trkpt lat="43.60253" lon="1.3257">
        <ele>187</ele>
        <time>2024-07-09T04:57:21Z</time>
      </trkpt>
      <trkpt lat="43.60257" lon="1.32576">
        <ele>187</ele>
        <time>2024-07-09T04:57:22Z</time>
      </trkpt>
      <trkpt lat="43.60262" lon="1.32582">
        <ele>187.2</ele>
        <time>2024-07-09T04:57:23Z</time>
      </trkpt>
      <trkpt lat="43.60266" lon="1.32587">
        <ele>187.2</ele>
        <time>2024-07-09T04:57:24Z</time>
      </trkpt>
      <trkpt lat="43.60271" lon="1.32592">
        <ele>187.2</ele>
        <time>2024-07-09T04:57:25Z</time>
      </trkpt>
      <trkpt lat="43.60276" lon="1.32598">
        <ele>187.2</ele>
        <time>2024-07-09T04:57:26Z</time>
      </trkpt>
      <trkpt lat="43.60281" lon="1.32603">
        <ele>187.2</ele>
        <time>2024-07-09T04:57:27Z</time>
      </trkpt>
      <trkpt lat="43.60285" lon="1.32608">
        <ele>187.2</ele>
        <time>2024-07-09T04:57:28Z</time>
      </trkpt>
      <trkpt lat="43.6029" lon="1.32614">
        <ele>187.2</ele>
        <time>2024-07-09T04:57:29Z</time>
      </trkpt>
      <trkpt lat="43.60296" lon="1.32618">
        <ele>187.2</ele>
        <time>2024-07-09T04:57:30Z</time>
      </trkpt>
      <trkpt lat="43.60302" lon="1.3262">
        <ele>187.2</ele>
        <time>2024-07-09T04:57:31Z</time>
      </trkpt>
      <trkpt lat="43.60308" lon="1.3262">
        <ele>187.2</ele>
        <time>2024-07-09T04:57:32Z</time>
      </trkpt>
      <trkpt lat="43.60314" lon="1.32619">
        <ele>187.2</ele>
        <time>2024-07-09T04:57:33Z</time>
      </trkpt>
      <trkpt lat="43.6032" lon="1.32618">
        <ele>187.2</ele>
        <time>2024-07-09T04:57:34Z</time>
      </trkpt>
      <trkpt lat="43.60326" lon="1.32616">
        <ele>187.2</ele>
        <time>2024-07-09T04:57:35Z</time>
      </trkpt>
      <trkpt lat="43.60332" lon="1.32615">
        <ele>187.2</ele>
        <time>2024-07-09T04:57:36Z</time>
      </trkpt>
      <trkpt lat="43.60338" lon="1.32614">
        <ele>187.2</ele>
        <time>2024-07-09T04:57:37Z</time>
      </trkpt>
      <trkpt lat="43.60345" lon="1.32613">
        <ele>187.2</ele>
        <time>2024-07-09T04:57:38Z</time>
      </trkpt>
      <trkpt lat="43.60351" lon="1.32611">
        <ele>187.2</ele>
        <time>2024-07-09T04:57:39Z</time>
      </trkpt>
      <trkpt lat="43.60356" lon="1.32608">
        <ele>187.4</ele>
        <time>2024-07-09T04:57:40Z</time>
      </trkpt>
      <trkpt lat="43.60361" lon="1.32603">
        <ele>187.4</ele>
        <time>2024-07-09T04:57:41Z</time>
      </trkpt>
      <trkpt lat="43.60365" lon="1.32596">
        <ele>187.4</ele>
        <time>2024-07-09T04:57:42Z</time>
      </trkpt>
      <trkpt lat="43.60368" lon="1.32589">
        <ele>187.4</ele>
        <time>2024-07-09T04:57:43Z</time>
      </trkpt>
      <trkpt lat="43.60371" lon="1.32582">
        <ele>187.6</ele>
        <time>2024-07-09T04:57:44Z</time>
      </trkpt>
      <trkpt lat="43.60375" lon="1.32575">
        <ele>187.4</ele>
        <time>2024-07-09T04:57:45Z</time>
      </trkpt>
      <trkpt lat="43.60378" lon="1.32568">
        <ele>187.4</ele>
        <time>2024-07-09T04:57:46Z</time>
      </trkpt>
      <trkpt lat="43.60382" lon="1.32561">
        <ele>187.4</ele>
        <time>2024-07-09T04:57:47Z</time>
      </trkpt>
      <trkpt lat="43.60386" lon="1.32554">
        <ele>187.2</ele>
        <time>2024-07-09T04:57:48Z</time>
      </trkpt>
      <trkpt lat="43.60389" lon="1.32546">
        <ele>187.2</ele>
        <time>2024-07-09T04:57:49Z</time>
      </trkpt>
      <trkpt lat="43.60393" lon="1.32539">
        <ele>187.2</ele>
        <time>2024-07-09T04:57:50Z</time>
      </trkpt>
      <trkpt lat="43.60396" lon="1.32532">
        <ele>187.2</ele>
        <time>2024-07-09T04:57:51Z</time>
      </trkpt>
      <trkpt lat="43.604" lon="1.32525">
        <ele>187.2</ele>
        <time>2024-07-09T04:57:52Z</time>
      </trkpt>
      <trkpt lat="43.60404" lon="1.32518">
        <ele>187</ele>
        <time>2024-07-09T04:57:53Z</time>
      </trkpt>
      <trkpt lat="43.60407" lon="1.32511">
        <ele>187</ele>
        <time>2024-07-09T04:57:54Z</time>
      </trkpt>
      <trkpt lat="43.6041" lon="1.32505">
        <ele>187</ele>
        <time>2024-07-09T04:57:55Z</time>
      </trkpt>
      <trkpt lat="43.60414" lon="1.32498">
        <ele>186.8</ele>
        <time>2024-07-09T04:57:56Z</time>
      </trkpt>
      <trkpt lat="43.60418" lon="1.3249">
        <ele>186.8</ele>
        <time>2024-07-09T04:57:57Z</time>
      </trkpt>
      <trkpt lat="43.60421" lon="1.32484">
        <ele>187</ele>
        <time>2024-07-09T04:57:58Z</time>
      </trkpt>
      <trkpt lat="43.60425" lon="1.32477">
        <ele>187</ele>
        <time>2024-07-09T04:57:59Z</time>
      </trkpt>
      <trkpt lat="43.60429" lon="1.32469">
        <ele>187</ele>
        <time>2024-07-09T04:58:00Z</time>
      </trkpt>
      <trkpt lat="43.60433" lon="1.32462">
        <ele>187.2</ele>
        <time>2024-07-09T04:58:01Z</time>
      </trkpt>
      <trkpt lat="43.60436" lon="1.32455">
        <ele>187.2</ele>
        <time>2024-07-09T04:58:02Z</time>
      </trkpt>
      <trkpt lat="43.6044" lon="1.32448">
        <ele>187</ele>
        <time>2024-07-09T04:58:03Z</time>
      </trkpt>
      <trkpt lat="43.60444" lon="1.32441">
        <ele>187</ele>
        <time>2024-07-09T04:58:04Z</time>
      </trkpt>
      <trkpt lat="43.60447" lon="1.32434">
        <ele>187.2</ele>
        <time>2024-07-09T04:58:05Z</time>
      </trkpt>
      <trkpt lat="43.60451" lon="1.32426">
        <ele>187.2</ele>
        <time>2024-07-09T04:58:06Z</time>
      </trkpt>
      <trkpt lat="43.60455" lon="1.32419">
        <ele>187</ele>
        <time>2024-07-09T04:58:07Z</time>
      </trkpt>
      <trkpt lat="43.60459" lon="1.32412">
        <ele>187</ele>
        <time>2024-07-09T04:58:08Z</time>
      </trkpt>
      <trkpt lat="43.60463" lon="1.32405">
        <ele>187</ele>
        <time>2024-07-09T04:58:09Z</time>
      </trkpt>
      <trkpt lat="43.60468" lon="1.32399">
        <ele>186.8</ele>
        <time>2024-07-09T04:58:10Z</time>
      </trkpt>
      <trkpt lat="43.60473" lon="1.32394">
        <ele>186.8</ele>
        <time>2024-07-09T04:58:11Z</time>
      </trkpt>
      <trkpt lat="43.60479" lon="1.32389">
        <ele>186.6</ele>
        <time>2024-07-09T04:58:12Z</time>
      </trkpt>
      <trkpt lat="43.60484" lon="1.32385">
        <ele>186.6</ele>
        <time>2024-07-09T04:58:13Z</time>
      </trkpt>
      <trkpt lat="43.6049" lon="1.32381">
        <ele>186.6</ele>
        <time>2024-07-09T04:58:14Z</time>
      </trkpt>
      <trkpt lat="43.60495" lon="1.32379">
        <ele>186.6</ele>
        <time>2024-07-09T04:58:15Z</time>
      </trkpt>
      <trkpt lat="43.605" lon="1.32378">
        <ele>186.6</ele>
        <time>2024-07-09T04:58:16Z</time>
      </trkpt>
      <trkpt lat="43.60505" lon="1.32378">
        <ele>186.6</ele>
        <time>2024-07-09T04:58:17Z</time>
      </trkpt>
      <trkpt lat="43.6051" lon="1.32381">
        <ele>186.8</ele>
        <time>2024-07-09T04:58:18Z</time>
      </trkpt>
      <trkpt lat="43.60515" lon="1.32384">
        <ele>186.8</ele>
        <time>2024-07-09T04:58:19Z</time>
      </trkpt>
      <trkpt lat="43.60519" lon="1.32387">
        <ele>187</ele>
        <time>2024-07-09T04:58:20Z</time>
      </trkpt>
      <trkpt lat="43.60524" lon="1.3239">
        <ele>187</ele>
        <time>2024-07-09T04:58:21Z</time>
      </trkpt>
      <trkpt lat="43.60529" lon="1.32393">
        <ele>187.2</ele>
        <time>2024-07-09T04:58:22Z</time>
      </trkpt>
      <trkpt lat="43.60534" lon="1.32393">
        <ele>187.2</ele>
        <time>2024-07-09T04:58:23Z</time>
      </trkpt>
      <trkpt lat="43.60539" lon="1.3239">
        <ele>187.4</ele>
        <time>2024-07-09T04:58:24Z</time>
      </trkpt>
      <trkpt lat="43.60543" lon="1.32386">
        <ele>187.4</ele>
        <time>2024-07-09T04:58:25Z</time>
      </trkpt>
      <trkpt lat="43.60547" lon="1.3238">
        <ele>187.4</ele>
        <time>2024-07-09T04:58:26Z</time>
      </trkpt>
      <trkpt lat="43.60551" lon="1.32375">
        <ele>187.4</ele>
        <time>2024-07-09T04:58:27Z</time>
      </trkpt>
      <trkpt lat="43.60557" lon="1.32372">
        <ele>187.4</ele>
        <time>2024-07-09T04:58:28Z</time>
      </trkpt>
      <trkpt lat="43.60563" lon="1.3237">
        <ele>187.4</ele>
        <time>2024-07-09T04:58:29Z</time>
      </trkpt>
      <trkpt lat="43.60569" lon="1.32369">
        <ele>187.4</ele>
        <time>2024-07-09T04:58:30Z</time>
      </trkpt>
      <trkpt lat="43.60576" lon="1.32368">
        <ele>187.4</ele>
        <time>2024-07-09T04:58:31Z</time>
      </trkpt>
      <trkpt lat="43.60582" lon="1.32368">
        <ele>187.4</ele>
        <time>2024-07-09T04:58:32Z</time>
      </trkpt>
      <trkpt lat="43.60589" lon="1.32368">
        <ele>187.4</ele>
        <time>2024-07-09T04:58:33Z</time>
      </trkpt>
      <trkpt lat="43.60595" lon="1.32372">
        <ele>187</ele>
        <time>2024-07-09T04:58:34Z</time>
      </trkpt>
      <trkpt lat="43.60601" lon="1.32377">
        <ele>187</ele>
        <time>2024-07-09T04:58:35Z</time>
      </trkpt>
      <trkpt lat="43.60606" lon="1.32383">
        <ele>186.8</ele>
        <time>2024-07-09T04:58:36Z</time>
      </trkpt>
      <trkpt lat="43.60611" lon="1.32389">
        <ele>186.8</ele>
        <time>2024-07-09T04:58:37Z</time>
      </trkpt>
      <trkpt lat="43.60616" lon="1.32394">
        <ele>187</ele>
        <time>2024-07-09T04:58:38Z</time>
      </trkpt>
      <trkpt lat="43.60621" lon="1.324">
        <ele>186.8</ele>
        <time>2024-07-09T04:58:39Z</time>
      </trkpt>
      <trkpt lat="43.60627" lon="1.32406">
        <ele>186.8</ele>
        <time>2024-07-09T04:58:40Z</time>
      </trkpt>
      <trkpt lat="43.60632" lon="1.32412">
        <ele>186.6</ele>
        <time>2024-07-09T04:58:41Z</time>
      </trkpt>
      <trkpt lat="43.60637" lon="1.32417">
        <ele>186.6</ele>
        <time>2024-07-09T04:58:42Z</time>
      </trkpt>
      <trkpt lat="43.60642" lon="1.32423">
        <ele>186.6</ele>
        <time>2024-07-09T04:58:43Z</time>
      </trkpt>
      <trkpt lat="43.60647" lon="1.32428">
        <ele>186.6</ele>
        <time>2024-07-09T04:58:44Z</time>
      </trkpt>
      <trkpt lat="43.60653" lon="1.32432">
        <ele>186.4</ele>
        <time>2024-07-09T04:58:45Z</time>
      </trkpt>
      <trkpt lat="43.60659" lon="1.32435">
        <ele>186.4</ele>
        <time>2024-07-09T04:58:46Z</time>
      </trkpt>
      <trkpt lat="43.60665" lon="1.32437">
        <ele>186.4</ele>
        <time>2024-07-09T04:58:47Z</time>
      </trkpt>
      <trkpt lat="43.60671" lon="1.32436">
        <ele>186.2</ele>
        <time>2024-07-09T04:58:48Z</time>
      </trkpt>
      <trkpt lat="43.60678" lon="1.32435">
        <ele>186.2</ele>
        <time>2024-07-09T04:58:49Z</time>
      </trkpt>
      <trkpt lat="43.60684" lon="1.32434">
        <ele>186</ele>
        <time>2024-07-09T04:58:50Z</time>
      </trkpt>
      <trkpt lat="43.60691" lon="1.32432">
        <ele>186</ele>
        <time>2024-07-09T04:58:51Z</time>
      </trkpt>
      <trkpt lat="43.60696" lon="1.3243">
        <ele>186.2</ele>
        <time>2024-07-09T04:58:52Z</time>
      </trkpt>
      <trkpt lat="43.60699" lon="1.32429">
        <ele>186.4</ele>
        <time>2024-07-09T04:58:53Z</time>
      </trkpt>
      <trkpt lat="43.60713" lon="1.32418">
        <ele>186.4</ele>
        <time>2024-07-09T04:58:56Z</time>
      </trkpt>
      <trkpt lat="43.6072" lon="1.32413">
        <ele>186.4</ele>
        <time>2024-07-09T04:58:57Z</time>
      </trkpt>
      <trkpt lat="43.60729" lon="1.32407">
        <ele>186.4</ele>
        <time>2024-07-09T04:58:58Z</time>
      </trkpt>
      <trkpt lat="43.60734" lon="1.32402">
        <ele>186.6</ele>
        <time>2024-07-09T04:58:59Z</time>
      </trkpt>
      <trkpt lat="43.60739" lon="1.32395">
        <ele>186.6</ele>
        <time>2024-07-09T04:59:00Z</time>
      </trkpt>
      <trkpt lat="43.60742" lon="1.32387">
        <ele>186.6</ele>
        <time>2024-07-09T04:59:01Z</time>
      </trkpt>
      <trkpt lat="43.60746" lon="1.32379">
        <ele>186.6</ele>
        <time>2024-07-09T04:59:02Z</time>
      </trkpt>
      <trkpt lat="43.60749" lon="1.32371">
        <ele>186.6</ele>
        <time>2024-07-09T04:59:03Z</time>
      </trkpt>
      <trkpt lat="43.60754" lon="1.32364">
        <ele>186.6</ele>
        <time>2024-07-09T04:59:04Z</time>
      </trkpt>
      <trkpt lat="43.60759" lon="1.32358">
        <ele>186.6</ele>
        <time>2024-07-09T04:59:05Z</time>
      </trkpt>
      <trkpt lat="43.60763" lon="1.32354">
        <ele>186.6</ele>
        <time>2024-07-09T04:59:06Z</time>
      </trkpt>
      <trkpt lat="43.60767" lon="1.32349">
        <ele>186.6</ele>
        <time>2024-07-09T04:59:07Z</time>
      </trkpt>
      <trkpt lat="43.60771" lon="1.32344">
        <ele>186.6</ele>
        <time>2024-07-09T04:59:08Z</time>
      </trkpt>
      <trkpt lat="43.60775" lon="1.32342">
        <ele>186.6</ele>
        <time>2024-07-09T04:59:09Z</time>
      </trkpt>
      <trkpt lat="43.60779" lon="1.32342">
        <ele>186.6</ele>
        <time>2024-07-09T04:59:10Z</time>
      </trkpt>
      <trkpt lat="43.60783" lon="1.32343">
        <ele>186.6</ele>
        <time>2024-07-09T04:59:11Z</time>
      </trkpt>
      <trkpt lat="43.60787" lon="1.32344">
        <ele>186.6</ele>
        <time>2024-07-09T04:59:12Z</time>
      </trkpt>
      <trkpt lat="43.60791" lon="1.32345">
        <ele>186.6</ele>
        <time>2024-07-09T04:59:13Z</time>
      </trkpt>
      <trkpt lat="43.60796" lon="1.32346">
        <ele>186.6</ele>
        <time>2024-07-09T04:59:14Z</time>
      </trkpt>
      <trkpt lat="43.60801" lon="1.32347">
        <ele>186.6</ele>
        <time>2024-07-09T04:59:15Z</time>
      </trkpt>
      <trkpt lat="43.60806" lon="1.32346">
        <ele>186.6</ele>
        <time>2024-07-09T04:59:16Z</time>
      </trkpt>
      <trkpt lat="43.60811" lon="1.32346">
        <ele>186.8</ele>
        <time>2024-07-09T04:59:17Z</time>
      </trkpt>
      <trkpt lat="43.60816" lon="1.32345">
        <ele>186.8</ele>
        <time>2024-07-09T04:59:18Z</time>
      </trkpt>
      <trkpt lat="43.60821" lon="1.32343">
        <ele>186.8</ele>
        <time>2024-07-09T04:59:19Z</time>
      </trkpt>
      <trkpt lat="43.60826" lon="1.32342">
        <ele>186.8</ele>
        <time>2024-07-09T04:59:20Z</time>
      </trkpt>
      <trkpt lat="43.60831" lon="1.3234">
        <ele>186.8</ele>
        <time>2024-07-09T04:59:21Z</time>
      </trkpt>
      <trkpt lat="43.60836" lon="1.32337">
        <ele>186.8</ele>
        <time>2024-07-09T04:59:22Z</time>
      </trkpt>
      <trkpt lat="43.60841" lon="1.32334">
        <ele>186.8</ele>
        <time>2024-07-09T04:59:23Z</time>
      </trkpt>
      <trkpt lat="43.60846" lon="1.32331">
        <ele>187</ele>
        <time>2024-07-09T04:59:24Z</time>
      </trkpt>
      <trkpt lat="43.60851" lon="1.32327">
        <ele>187</ele>
        <time>2024-07-09T04:59:25Z</time>
      </trkpt>
      <trkpt lat="43.60857" lon="1.32323">
        <ele>187</ele>
        <time>2024-07-09T04:59:26Z</time>
      </trkpt>
      <trkpt lat="43.60862" lon="1.3232">
        <ele>187</ele>
        <time>2024-07-09T04:59:27Z</time>
      </trkpt>
      <trkpt lat="43.60868" lon="1.32318">
        <ele>187</ele>
        <time>2024-07-09T04:59:28Z</time>
      </trkpt>
      <trkpt lat="43.60873" lon="1.32317">
        <ele>187</ele>
        <time>2024-07-09T04:59:29Z</time>
      </trkpt>
      <trkpt lat="43.60878" lon="1.32318">
        <ele>187</ele>
        <time>2024-07-09T04:59:30Z</time>
      </trkpt>
      <trkpt lat="43.60886" lon="1.32319">
        <ele>187</ele>
        <time>2024-07-09T04:59:31Z</time>
      </trkpt>
      <trkpt lat="43.60892" lon="1.32319">
        <ele>187</ele>
        <time>2024-07-09T04:59:32Z</time>
      </trkpt>
      <trkpt lat="43.60897" lon="1.32319">
        <ele>187</ele>
        <time>2024-07-09T04:59:33Z</time>
      </trkpt>
      <trkpt lat="43.60902" lon="1.32317">
        <ele>186.8</ele>
        <time>2024-07-09T04:59:34Z</time>
      </trkpt>
      <trkpt lat="43.60909" lon="1.32313">
        <ele>186.8</ele>
        <time>2024-07-09T04:59:35Z</time>
      </trkpt>
      <trkpt lat="43.60915" lon="1.32311">
        <ele>186.8</ele>
        <time>2024-07-09T04:59:36Z</time>
      </trkpt>
      <trkpt lat="43.60919" lon="1.32309">
        <ele>186.8</ele>
        <time>2024-07-09T04:59:37Z</time>
      </trkpt>
      <trkpt lat="43.60924" lon="1.32307">
        <ele>187</ele>
        <time>2024-07-09T04:59:38Z</time>
      </trkpt>
      <trkpt lat="43.60928" lon="1.32305">
        <ele>187.2</ele>
        <time>2024-07-09T04:59:39Z</time>
      </trkpt>
      <trkpt lat="43.60932" lon="1.32302">
        <ele>187.4</ele>
        <time>2024-07-09T04:59:40Z</time>
      </trkpt>
      <trkpt lat="43.60936" lon="1.323">
        <ele>187.8</ele>
        <time>2024-07-09T04:59:41Z</time>
      </trkpt>
      <trkpt lat="43.60938" lon="1.32301">
        <ele>188.2</ele>
        <time>2024-07-09T04:59:42Z</time>
      </trkpt>
      <trkpt lat="43.6094" lon="1.32304">
        <ele>188.6</ele>
        <time>2024-07-09T04:59:43Z</time>
      </trkpt>
      <trkpt lat="43.60941" lon="1.32307">
        <ele>188.8</ele>
        <time>2024-07-09T04:59:44Z</time>
      </trkpt>
      <trkpt lat="43.60942" lon="1.32311">
        <ele>189.6</ele>
        <time>2024-07-09T04:59:45Z</time>
      </trkpt>
      <trkpt lat="43.60943" lon="1.32316">
        <ele>190</ele>
        <time>2024-07-09T04:59:46Z</time>
      </trkpt>
      <trkpt lat="43.60944" lon="1.32321">
        <ele>190.4</ele>
        <time>2024-07-09T04:59:47Z</time>
      </trkpt>
      <trkpt lat="43.60943" lon="1.32324">
        <ele>190.8</ele>
        <time>2024-07-09T04:59:48Z</time>
      </trkpt>
      <trkpt lat="43.60941" lon="1.32327">
        <ele>190.8</ele>
        <time>2024-07-09T04:59:49Z</time>
      </trkpt>
      <trkpt lat="43.60936" lon="1.32329">
        <ele>191</ele>
        <time>2024-07-09T04:59:50Z</time>
      </trkpt>
      <trkpt lat="43.60931" lon="1.32332">
        <ele>191</ele>
        <time>2024-07-09T04:59:51Z</time>
      </trkpt>
      <trkpt lat="43.60926" lon="1.32334">
        <ele>191</ele>
        <time>2024-07-09T04:59:52Z</time>
      </trkpt>
      <trkpt lat="43.60919" lon="1.32337">
        <ele>191</ele>
        <time>2024-07-09T04:59:53Z</time>
      </trkpt>
      <trkpt lat="43.60912" lon="1.32341">
        <ele>190.8</ele>
        <time>2024-07-09T04:59:54Z</time>
      </trkpt>
      <trkpt lat="43.60903" lon="1.32346">
        <ele>190.4</ele>
        <time>2024-07-09T04:59:55Z</time>
      </trkpt>
      <trkpt lat="43.60897" lon="1.32349">
        <ele>190.4</ele>
        <time>2024-07-09T04:59:56Z</time>
      </trkpt>
      <trkpt lat="43.60889" lon="1.32352">
        <ele>189.6</ele>
        <time>2024-07-09T04:59:57Z</time>
      </trkpt>
      <trkpt lat="43.60882" lon="1.32355">
        <ele>189.2</ele>
        <time>2024-07-09T04:59:58Z</time>
      </trkpt>
      <trkpt lat="43.60875" lon="1.3236">
        <ele>188.4</ele>
        <time>2024-07-09T04:59:59Z</time>
      </trkpt>
      <trkpt lat="43.60871" lon="1.32367">
        <ele>187.8</ele>
        <time>2024-07-09T05:00:00Z</time>
      </trkpt>
      <trkpt lat="43.60871" lon="1.32374">
        <ele>187</ele>
        <time>2024-07-09T05:00:01Z</time>
      </trkpt>
      <trkpt lat="43.60871" lon="1.3238">
        <ele>186.6</ele>
        <time>2024-07-09T05:00:02Z</time>
      </trkpt>
      <trkpt lat="43.60872" lon="1.32387">
        <ele>186.6</ele>
        <time>2024-07-09T05:00:03Z</time>
      </trkpt>
      <trkpt lat="43.60874" lon="1.32394">
        <ele>186.4</ele>
        <time>2024-07-09T05:00:04Z</time>
      </trkpt>
      <trkpt lat="43.60876" lon="1.32401">
        <ele>186.2</ele>
        <time>2024-07-09T05:00:05Z</time>
      </trkpt>
      <trkpt lat="43.60878" lon="1.32408">
        <ele>186.2</ele>
        <time>2024-07-09T05:00:06Z</time>
      </trkpt>
      <trkpt lat="43.6088" lon="1.32415">
        <ele>186.2</ele>
        <time>2024-07-09T05:00:07Z</time>
      </trkpt>
      <trkpt lat="43.60882" lon="1.32422">
        <ele>186.2</ele>
        <time>2024-07-09T05:00:08Z</time>
      </trkpt>
      <trkpt lat="43.60886" lon="1.32429">
        <ele>186.2</ele>
        <time>2024-07-09T05:00:09Z</time>
      </trkpt>
      <trkpt lat="43.60889" lon="1.32435">
        <ele>186</ele>
        <time>2024-07-09T05:00:10Z</time>
      </trkpt>
      <trkpt lat="43.6089" lon="1.3244">
        <ele>186</ele>
        <time>2024-07-09T05:00:11Z</time>
      </trkpt>
      <trkpt lat="43.60891" lon="1.32448">
        <ele>186</ele>
        <time>2024-07-09T05:00:12Z</time>
      </trkpt>
      <trkpt lat="43.60892" lon="1.32457">
        <ele>186</ele>
        <time>2024-07-09T05:00:13Z</time>
      </trkpt>
      <trkpt lat="43.60894" lon="1.32464">
        <ele>186</ele>
        <time>2024-07-09T05:00:14Z</time>
      </trkpt>
      <trkpt lat="43.60898" lon="1.32469">
        <ele>186</ele>
        <time>2024-07-09T05:00:15Z</time>
      </trkpt>
      <trkpt lat="43.60902" lon="1.32473">
        <ele>186</ele>
        <time>2024-07-09T05:00:16Z</time>
      </trkpt>
      <trkpt lat="43.60906" lon="1.32478">
        <ele>186</ele>
        <time>2024-07-09T05:00:17Z</time>
      </trkpt>
      <trkpt lat="43.60911" lon="1.32485">
        <ele>186</ele>
        <time>2024-07-09T05:00:18Z</time>
      </trkpt>
      <trkpt lat="43.60915" lon="1.3249">
        <ele>186</ele>
        <time>2024-07-09T05:00:19Z</time>
      </trkpt>
      <trkpt lat="43.60918" lon="1.32493">
        <ele>186</ele>
        <time>2024-07-09T05:00:20Z</time>
      </trkpt>
      <trkpt lat="43.6092" lon="1.32498">
        <ele>186</ele>
        <time>2024-07-09T05:00:21Z</time>
      </trkpt>
      <trkpt lat="43.6092" lon="1.32505">
        <ele>186</ele>
        <time>2024-07-09T05:00:22Z</time>
      </trkpt>
      <trkpt lat="43.60918" lon="1.32509">
        <ele>185.8</ele>
        <time>2024-07-09T05:00:23Z</time>
      </trkpt>
      <trkpt lat="43.60916" lon="1.32515">
        <ele>185.8</ele>
        <time>2024-07-09T05:00:24Z</time>
      </trkpt>
      <trkpt lat="43.60914" lon="1.32519">
        <ele>185.8</ele>
        <time>2024-07-09T05:00:25Z</time>
      </trkpt>
      <trkpt lat="43.60912" lon="1.32524">
        <ele>185.6</ele>
        <time>2024-07-09T05:00:26Z</time>
      </trkpt>
      <trkpt lat="43.60911" lon="1.3253">
        <ele>185.6</ele>
        <time>2024-07-09T05:00:27Z</time>
      </trkpt>
      <trkpt lat="43.60912" lon="1.32536">
        <ele>185.6</ele>
        <time>2024-07-09T05:00:28Z</time>
      </trkpt>
      <trkpt lat="43.60915" lon="1.32541">
        <ele>185.6</ele>
        <time>2024-07-09T05:00:29Z</time>
      </trkpt>
      <trkpt lat="43.60917" lon="1.32545">
        <ele>185.6</ele>
        <time>2024-07-09T05:00:30Z</time>
      </trkpt>
      <trkpt lat="43.60921" lon="1.32549">
        <ele>185.4</ele>
        <time>2024-07-09T05:00:31Z</time>
      </trkpt>
      <trkpt lat="43.60926" lon="1.32554">
        <ele>185.4</ele>
        <time>2024-07-09T05:00:32Z</time>
      </trkpt>
      <trkpt lat="43.6093" lon="1.32557">
        <ele>185.4</ele>
        <time>2024-07-09T05:00:33Z</time>
      </trkpt>
      <trkpt lat="43.60934" lon="1.32559">
        <ele>185.4</ele>
        <time>2024-07-09T05:00:34Z</time>
      </trkpt>
      <trkpt lat="43.60938" lon="1.32561">
        <ele>185.4</ele>
        <time>2024-07-09T05:00:35Z</time>
      </trkpt>
      <trkpt lat="43.60942" lon="1.32563">
        <ele>185.2</ele>
        <time>2024-07-09T05:00:36Z</time>
      </trkpt>
      <trkpt lat="43.60944" lon="1.32565">
        <ele>185.2</ele>
        <time>2024-07-09T05:00:37Z</time>
      </trkpt>
      <trkpt lat="43.60945" lon="1.32567">
        <ele>185.2</ele>
        <time>2024-07-09T05:00:38Z</time>
      </trkpt>
      <trkpt lat="43.60946" lon="1.3257">
        <ele>185.4</ele>
        <time>2024-07-09T05:00:39Z</time>
      </trkpt>
      <trkpt lat="43.60946" lon="1.32574">
        <ele>185.4</ele>
        <time>2024-07-09T05:00:40Z</time>
      </trkpt>
      <trkpt lat="43.60945" lon="1.32578">
        <ele>185.2</ele>
        <time>2024-07-09T05:00:41Z</time>
      </trkpt>
      <trkpt lat="43.60943" lon="1.32582">
        <ele>185.2</ele>
        <time>2024-07-09T05:00:42Z</time>
      </trkpt>
      <trkpt lat="43.60941" lon="1.32585">
        <ele>185.2</ele>
        <time>2024-07-09T05:00:43Z</time>
      </trkpt>
      <trkpt lat="43.60938" lon="1.3259">
        <ele>185.2</ele>
        <time>2024-07-09T05:00:44Z</time>
      </trkpt>
      <trkpt lat="43.60935" lon="1.32595">
        <ele>185.2</ele>
        <time>2024-07-09T05:00:45Z</time>
      </trkpt>
      <trkpt lat="43.60933" lon="1.32598">
        <ele>185.2</ele>
        <time>2024-07-09T05:00:46Z</time>
      </trkpt>
      <trkpt lat="43.6093" lon="1.32603">
        <ele>185.2</ele>
        <time>2024-07-09T05:00:47Z</time>
      </trkpt>
      <trkpt lat="43.60927" lon="1.32608">
        <ele>185.2</ele>
        <time>2024-07-09T05:00:48Z</time>
      </trkpt>
      <trkpt lat="43.60924" lon="1.32613">
        <ele>185.2</ele>
        <time>2024-07-09T05:00:49Z</time>
      </trkpt>
      <trkpt lat="43.60921" lon="1.32619">
        <ele>185.2</ele>
        <time>2024-07-09T05:00:50Z</time>
      </trkpt>
      <trkpt lat="43.60917" lon="1.32625">
        <ele>185.2</ele>
        <time>2024-07-09T05:00:51Z</time>
      </trkpt>
      <trkpt lat="43.60913" lon="1.3263">
        <ele>185.2</ele>
        <time>2024-07-09T05:00:52Z</time>
      </trkpt>
      <trkpt lat="43.60909" lon="1.32633">
        <ele>185.2</ele>
        <time>2024-07-09T05:00:53Z</time>
      </trkpt>
      <trkpt lat="43.60904" lon="1.32635">
        <ele>185.2</ele>
        <time>2024-07-09T05:00:54Z</time>
      </trkpt>
      <trkpt lat="43.60898" lon="1.32638">
        <ele>185.2</ele>
        <time>2024-07-09T05:00:55Z</time>
      </trkpt>
      <trkpt lat="43.60893" lon="1.32641">
        <ele>185.2</ele>
        <time>2024-07-09T05:00:56Z</time>
      </trkpt>
      <trkpt lat="43.60888" lon="1.32644">
        <ele>185.2</ele>
        <time>2024-07-09T05:00:57Z</time>
      </trkpt>
      <trkpt lat="43.60883" lon="1.32648">
        <ele>185.2</ele>
        <time>2024-07-09T05:00:58Z</time>
      </trkpt>
      <trkpt lat="43.60878" lon="1.32653">
        <ele>185.2</ele>
        <time>2024-07-09T05:00:59Z</time>
      </trkpt>
      <trkpt lat="43.60873" lon="1.32659">
        <ele>185.2</ele>
        <time>2024-07-09T05:01:00Z</time>
      </trkpt>
      <trkpt lat="43.60869" lon="1.32664">
        <ele>185.2</ele>
        <time>2024-07-09T05:01:01Z</time>
      </trkpt>
      <trkpt lat="43.60867" lon="1.32669">
        <ele>185.2</ele>
        <time>2024-07-09T05:01:02Z</time>
      </trkpt>
      <trkpt lat="43.60864" lon="1.32676">
        <ele>185.2</ele>
        <time>2024-07-09T05:01:03Z</time>
      </trkpt>
      <trkpt lat="43.60862" lon="1.32683">
        <ele>185.2</ele>
        <time>2024-07-09T05:01:04Z</time>
      </trkpt>
      <trkpt lat="43.6086" lon="1.32692">
        <ele>185.2</ele>
        <time>2024-07-09T05:01:05Z</time>
      </trkpt>
      <trkpt lat="43.6086" lon="1.32698">
        <ele>185.4</ele>
        <time>2024-07-09T05:01:06Z</time>
      </trkpt>
      <trkpt lat="43.6086" lon="1.32706">
        <ele>185.4</ele>
        <time>2024-07-09T05:01:07Z</time>
      </trkpt>
      <trkpt lat="43.60862" lon="1.32714">
        <ele>185.4</ele>
        <time>2024-07-09T05:01:08Z</time>
      </trkpt>
      <trkpt lat="43.60864" lon="1.32723">
        <ele>185.4</ele>
        <time>2024-07-09T05:01:09Z</time>
      </trkpt>
      <trkpt lat="43.60867" lon="1.32729">
        <ele>185.4</ele>
        <time>2024-07-09T05:01:10Z</time>
      </trkpt>
      <trkpt lat="43.6087" lon="1.32734">
        <ele>185.4</ele>
        <time>2024-07-09T05:01:11Z</time>
      </trkpt>
      <trkpt lat="43.60874" lon="1.3274">
        <ele>185.4</ele>
        <time>2024-07-09T05:01:12Z</time>
      </trkpt>
      <trkpt lat="43.60881" lon="1.32745">
        <ele>185.4</ele>
        <time>2024-07-09T05:01:13Z</time>
      </trkpt>
      <trkpt lat="43.60886" lon="1.32748">
        <ele>185.6</ele>
        <time>2024-07-09T05:01:14Z</time>
      </trkpt>
      <trkpt lat="43.60892" lon="1.32749">
        <ele>185.6</ele>
        <time>2024-07-09T05:01:15Z</time>
      </trkpt>
      <trkpt lat="43.60897" lon="1.3275">
        <ele>185.6</ele>
        <time>2024-07-09T05:01:16Z</time>
      </trkpt>
      <trkpt lat="43.60903" lon="1.3275">
        <ele>185.6</ele>
        <time>2024-07-09T05:01:17Z</time>
      </trkpt>
      <trkpt lat="43.60909" lon="1.32749">
        <ele>185.6</ele>
        <time>2024-07-09T05:01:18Z</time>
      </trkpt>
      <trkpt lat="43.60916" lon="1.32749">
        <ele>185.6</ele>
        <time>2024-07-09T05:01:19Z</time>
      </trkpt>
      <trkpt lat="43.60921" lon="1.32749">
        <ele>185.6</ele>
        <time>2024-07-09T05:01:20Z</time>
      </trkpt>
      <trkpt lat="43.60927" lon="1.32752">
        <ele>185.6</ele>
        <time>2024-07-09T05:01:21Z</time>
      </trkpt>
      <trkpt lat="43.60934" lon="1.32757">
        <ele>185.6</ele>
        <time>2024-07-09T05:01:22Z</time>
      </trkpt>
      <trkpt lat="43.60939" lon="1.32763">
        <ele>185.6</ele>
        <time>2024-07-09T05:01:23Z</time>
      </trkpt>
      <trkpt lat="43.60943" lon="1.32768">
        <ele>185.6</ele>
        <time>2024-07-09T05:01:24Z</time>
      </trkpt>
      <trkpt lat="43.60947" lon="1.32775">
        <ele>185.6</ele>
        <time>2024-07-09T05:01:25Z</time>
      </trkpt>
      <trkpt lat="43.60952" lon="1.3278">
        <ele>185.6</ele>
        <time>2024-07-09T05:01:26Z</time>
      </trkpt>
      <trkpt lat="43.60958" lon="1.32787">
        <ele>185.6</ele>
        <time>2024-07-09T05:01:27Z</time>
      </trkpt>
      <trkpt lat="43.60963" lon="1.32793">
        <ele>185.6</ele>
        <time>2024-07-09T05:01:28Z</time>
      </trkpt>
      <trkpt lat="43.60967" lon="1.32797">
        <ele>185.6</ele>
        <time>2024-07-09T05:01:29Z</time>
      </trkpt>
      <trkpt lat="43.60972" lon="1.32803">
        <ele>185.4</ele>
        <time>2024-07-09T05:01:30Z</time>
      </trkpt>
      <trkpt lat="43.60976" lon="1.32809">
        <ele>185.4</ele>
        <time>2024-07-09T05:01:31Z</time>
      </trkpt>
      <trkpt lat="43.60982" lon="1.32815">
        <ele>185.4</ele>
        <time>2024-07-09T05:01:32Z</time>
      </trkpt>
      <trkpt lat="43.60986" lon="1.3282">
        <ele>185.4</ele>
        <time>2024-07-09T05:01:33Z</time>
      </trkpt>
      <trkpt lat="43.60991" lon="1.32826">
        <ele>185.4</ele>
        <time>2024-07-09T05:01:34Z</time>
      </trkpt>
      <trkpt lat="43.60994" lon="1.32831">
        <ele>185.6</ele>
        <time>2024-07-09T05:01:35Z</time>
      </trkpt>
      <trkpt lat="43.60999" lon="1.32838">
        <ele>185.6</ele>
        <time>2024-07-09T05:01:36Z</time>
      </trkpt>
      <trkpt lat="43.61003" lon="1.32844">
        <ele>185.6</ele>
        <time>2024-07-09T05:01:37Z</time>
      </trkpt>
      <trkpt lat="43.61008" lon="1.32851">
        <ele>185.6</ele>
        <time>2024-07-09T05:01:38Z</time>
      </trkpt>
      <trkpt lat="43.61011" lon="1.32855">
        <ele>185.8</ele>
        <time>2024-07-09T05:01:39Z</time>
      </trkpt>
      <trkpt lat="43.61016" lon="1.32861">
        <ele>185.8</ele>
        <time>2024-07-09T05:01:40Z</time>
      </trkpt>
      <trkpt lat="43.61021" lon="1.32868">
        <ele>185.8</ele>
        <time>2024-07-09T05:01:41Z</time>
      </trkpt>
      <trkpt lat="43.61026" lon="1.32874">
        <ele>185.8</ele>
        <time>2024-07-09T05:01:42Z</time>
      </trkpt>
      <trkpt lat="43.61029" lon="1.32879">
        <ele>185.8</ele>
        <time>2024-07-09T05:01:43Z</time>
      </trkpt>
      <trkpt lat="43.61033" lon="1.32884">
        <ele>186</ele>
        <time>2024-07-09T05:01:44Z</time>
      </trkpt>
      <trkpt lat="43.61039" lon="1.32891">
        <ele>186</ele>
        <time>2024-07-09T05:01:45Z</time>
      </trkpt>
      <trkpt lat="43.61044" lon="1.32895">
        <ele>186</ele>
        <time>2024-07-09T05:01:46Z</time>
      </trkpt>
      <trkpt lat="43.61047" lon="1.32899">
        <ele>186</ele>
        <time>2024-07-09T05:01:47Z</time>
      </trkpt>
      <trkpt lat="43.61052" lon="1.32904">
        <ele>186</ele>
        <time>2024-07-09T05:01:48Z</time>
      </trkpt>
      <trkpt lat="43.61056" lon="1.32908">
        <ele>186</ele>
        <time>2024-07-09T05:01:49Z</time>
      </trkpt>
      <trkpt lat="43.61061" lon="1.32913">
        <ele>186</ele>
        <time>2024-07-09T05:01:50Z</time>
      </trkpt>
      <trkpt lat="43.61064" lon="1.32919">
        <ele>186</ele>
        <time>2024-07-09T05:01:51Z</time>
      </trkpt>
      <trkpt lat="43.61067" lon="1.32926">
        <ele>186.2</ele>
        <time>2024-07-09T05:01:52Z</time>
      </trkpt>
      <trkpt lat="43.61069" lon="1.32933">
        <ele>186.2</ele>
        <time>2024-07-09T05:01:53Z</time>
      </trkpt>
      <trkpt lat="43.61073" lon="1.32939">
        <ele>186.2</ele>
        <time>2024-07-09T05:01:54Z</time>
      </trkpt>
      <trkpt lat="43.61079" lon="1.32945">
        <ele>186.4</ele>
        <time>2024-07-09T05:01:55Z</time>
      </trkpt>
      <trkpt lat="43.61085" lon="1.32949">
        <ele>186.4</ele>
        <time>2024-07-09T05:01:56Z</time>
      </trkpt>
      <trkpt lat="43.6109" lon="1.32952">
        <ele>186.4</ele>
        <time>2024-07-09T05:01:57Z</time>
      </trkpt>
      <trkpt lat="43.61095" lon="1.32956">
        <ele>186.4</ele>
        <time>2024-07-09T05:01:58Z</time>
      </trkpt>
      <trkpt lat="43.61102" lon="1.32962">
        <ele>186.2</ele>
        <time>2024-07-09T05:01:59Z</time>
      </trkpt>
      <trkpt lat="43.61106" lon="1.32967">
        <ele>186.2</ele>
        <time>2024-07-09T05:02:00Z</time>
      </trkpt>
      <trkpt lat="43.61112" lon="1.32974">
        <ele>186.2</ele>
        <time>2024-07-09T05:02:01Z</time>
      </trkpt>
      <trkpt lat="43.61118" lon="1.32981">
        <ele>186.2</ele>
        <time>2024-07-09T05:02:02Z</time>
      </trkpt>
      <trkpt lat="43.61124" lon="1.32988">
        <ele>186.2</ele>
        <time>2024-07-09T05:02:03Z</time>
      </trkpt>
      <trkpt lat="43.61129" lon="1.32995">
        <ele>186</ele>
        <time>2024-07-09T05:02:04Z</time>
      </trkpt>
      <trkpt lat="43.61135" lon="1.33002">
        <ele>185.8</ele>
        <time>2024-07-09T05:02:05Z</time>
      </trkpt>
      <trkpt lat="43.61142" lon="1.3301">
        <ele>185.8</ele>
        <time>2024-07-09T05:02:06Z</time>
      </trkpt>
      <trkpt lat="43.61146" lon="1.33016">
        <ele>185.2</ele>
        <time>2024-07-09T05:02:07Z</time>
      </trkpt>
      <trkpt lat="43.61151" lon="1.33022">
        <ele>185</ele>
        <time>2024-07-09T05:02:08Z</time>
      </trkpt>
      <trkpt lat="43.61157" lon="1.3303">
        <ele>184.6</ele>
        <time>2024-07-09T05:02:09Z</time>
      </trkpt>
      <trkpt lat="43.61161" lon="1.33035">
        <ele>184.4</ele>
        <time>2024-07-09T05:02:10Z</time>
      </trkpt>
      <trkpt lat="43.61166" lon="1.33041">
        <ele>184.4</ele>
        <time>2024-07-09T05:02:11Z</time>
      </trkpt>
      <trkpt lat="43.61171" lon="1.33047">
        <ele>184.2</ele>
        <time>2024-07-09T05:02:12Z</time>
      </trkpt>
      <trkpt lat="43.61177" lon="1.33054">
        <ele>184.2</ele>
        <time>2024-07-09T05:02:13Z</time>
      </trkpt>
      <trkpt lat="43.61182" lon="1.33059">
        <ele>184</ele>
        <time>2024-07-09T05:02:14Z</time>
      </trkpt>
      <trkpt lat="43.61188" lon="1.33066">
        <ele>184</ele>
        <time>2024-07-09T05:02:15Z</time>
      </trkpt>
      <trkpt lat="43.61192" lon="1.3307">
        <ele>184</ele>
        <time>2024-07-09T05:02:16Z</time>
      </trkpt>
      <trkpt lat="43.61197" lon="1.33075">
        <ele>184</ele>
        <time>2024-07-09T05:02:17Z</time>
      </trkpt>
      <trkpt lat="43.61203" lon="1.3308">
        <ele>184</ele>
        <time>2024-07-09T05:02:18Z</time>
      </trkpt>
      <trkpt lat="43.61209" lon="1.33085">
        <ele>184</ele>
        <time>2024-07-09T05:02:19Z</time>
      </trkpt>
      <trkpt lat="43.61213" lon="1.33088">
        <ele>184</ele>
        <time>2024-07-09T05:02:20Z</time>
      </trkpt>
      <trkpt lat="43.61218" lon="1.33091">
        <ele>184</ele>
        <time>2024-07-09T05:02:21Z</time>
      </trkpt>
      <trkpt lat="43.61224" lon="1.33094">
        <ele>184</ele>
        <time>2024-07-09T05:02:22Z</time>
      </trkpt>
      <trkpt lat="43.61229" lon="1.33097">
        <ele>184</ele>
        <time>2024-07-09T05:02:23Z</time>
      </trkpt>
      <trkpt lat="43.61236" lon="1.331">
        <ele>184</ele>
        <time>2024-07-09T05:02:24Z</time>
      </trkpt>
      <trkpt lat="43.6124" lon="1.33103">
        <ele>184.2</ele>
        <time>2024-07-09T05:02:25Z</time>
      </trkpt>
      <trkpt lat="43.61245" lon="1.33107">
        <ele>184.6</ele>
        <time>2024-07-09T05:02:26Z</time>
      </trkpt>
      <trkpt lat="43.6125" lon="1.33112">
        <ele>184.6</ele>
        <time>2024-07-09T05:02:27Z</time>
      </trkpt>
      <trkpt lat="43.61253" lon="1.33117">
        <ele>184.8</ele>
        <time>2024-07-09T05:02:28Z</time>
      </trkpt>
      <trkpt lat="43.61256" lon="1.33122">
        <ele>184.8</ele>
        <time>2024-07-09T05:02:29Z</time>
      </trkpt>
      <trkpt lat="43.61257" lon="1.33127">
        <ele>185</ele>
        <time>2024-07-09T05:02:30Z</time>
      </trkpt>
      <trkpt lat="43.61258" lon="1.33134">
        <ele>185</ele>
        <time>2024-07-09T05:02:31Z</time>
      </trkpt>
      <trkpt lat="43.6126" lon="1.33141">
        <ele>185</ele>
        <time>2024-07-09T05:02:32Z</time>
      </trkpt>
      <trkpt lat="43.61261" lon="1.33149">
        <ele>185.2</ele>
        <time>2024-07-09T05:02:33Z</time>
      </trkpt>
      <trkpt lat="43.61262" lon="1.33157">
        <ele>185.2</ele>
        <time>2024-07-09T05:02:34Z</time>
      </trkpt>
      <trkpt lat="43.61264" lon="1.33165">
        <ele>185.2</ele>
        <time>2024-07-09T05:02:35Z</time>
      </trkpt>
      <trkpt lat="43.61267" lon="1.33172">
        <ele>185.2</ele>
        <time>2024-07-09T05:02:36Z</time>
      </trkpt>
      <trkpt lat="43.61271" lon="1.33178">
        <ele>185.2</ele>
        <time>2024-07-09T05:02:37Z</time>
      </trkpt>
      <trkpt lat="43.61276" lon="1.33183">
        <ele>185.2</ele>
        <time>2024-07-09T05:02:38Z</time>
      </trkpt>
      <trkpt lat="43.61283" lon="1.33187">
        <ele>185.4</ele>
        <time>2024-07-09T05:02:39Z</time>
      </trkpt>
      <trkpt lat="43.61288" lon="1.33189">
        <ele>185.4</ele>
        <time>2024-07-09T05:02:40Z</time>
      </trkpt>
      <trkpt lat="43.61294" lon="1.3319">
        <ele>185.4</ele>
        <time>2024-07-09T05:02:41Z</time>
      </trkpt>
      <trkpt lat="43.61301" lon="1.33188">
        <ele>185.4</ele>
        <time>2024-07-09T05:02:42Z</time>
      </trkpt>
      <trkpt lat="43.61307" lon="1.33184">
        <ele>185.4</ele>
        <time>2024-07-09T05:02:43Z</time>
      </trkpt>
      <trkpt lat="43.61312" lon="1.3318">
        <ele>185.2</ele>
        <time>2024-07-09T05:02:44Z</time>
      </trkpt>
      <trkpt lat="43.61317" lon="1.33173">
        <ele>185</ele>
        <time>2024-07-09T05:02:45Z</time>
      </trkpt>
      <trkpt lat="43.61321" lon="1.33167">
        <ele>185</ele>
        <time>2024-07-09T05:02:46Z</time>
      </trkpt>
      <trkpt lat="43.61326" lon="1.33158">
        <ele>185.2</ele>
        <time>2024-07-09T05:02:47Z</time>
      </trkpt>
      <trkpt lat="43.61331" lon="1.33151">
        <ele>185</ele>
        <time>2024-07-09T05:02:48Z</time>
      </trkpt>
      <trkpt lat="43.61335" lon="1.33146">
        <ele>185</ele>
        <time>2024-07-09T05:02:49Z</time>
      </trkpt>
      <trkpt lat="43.61341" lon="1.33141">
        <ele>185.2</ele>
        <time>2024-07-09T05:02:50Z</time>
      </trkpt>
      <trkpt lat="43.61347" lon="1.33139">
        <ele>185</ele>
        <time>2024-07-09T05:02:51Z</time>
      </trkpt>
      <trkpt lat="43.61355" lon="1.33138">
        <ele>185</ele>
        <time>2024-07-09T05:02:52Z</time>
      </trkpt>
      <trkpt lat="43.61361" lon="1.33138">
        <ele>184.8</ele>
        <time>2024-07-09T05:02:53Z</time>
      </trkpt>
      <trkpt lat="43.61367" lon="1.33139">
        <ele>184.8</ele>
        <time>2024-07-09T05:02:54Z</time>
      </trkpt>
      <trkpt lat="43.61374" lon="1.3314">
        <ele>184.8</ele>
        <time>2024-07-09T05:02:55Z</time>
      </trkpt>
      <trkpt lat="43.61382" lon="1.33142">
        <ele>184.8</ele>
        <time>2024-07-09T05:02:56Z</time>
      </trkpt>
      <trkpt lat="43.61388" lon="1.33143">
        <ele>184.8</ele>
        <time>2024-07-09T05:02:57Z</time>
      </trkpt>
      <trkpt lat="43.61394" lon="1.33145">
        <ele>184.8</ele>
        <time>2024-07-09T05:02:58Z</time>
      </trkpt>
      <trkpt lat="43.614" lon="1.33147">
        <ele>184.8</ele>
        <time>2024-07-09T05:02:59Z</time>
      </trkpt>
      <trkpt lat="43.61408" lon="1.3315">
        <ele>184.8</ele>
        <time>2024-07-09T05:03:00Z</time>
      </trkpt>
      <trkpt lat="43.61415" lon="1.33153">
        <ele>184.8</ele>
        <time>2024-07-09T05:03:01Z</time>
      </trkpt>
      <trkpt lat="43.61421" lon="1.33157">
        <ele>184.8</ele>
        <time>2024-07-09T05:03:02Z</time>
      </trkpt>
      <trkpt lat="43.61426" lon="1.3316">
        <ele>185</ele>
        <time>2024-07-09T05:03:03Z</time>
      </trkpt>
      <trkpt lat="43.61432" lon="1.33163">
        <ele>185</ele>
        <time>2024-07-09T05:03:04Z</time>
      </trkpt>
      <trkpt lat="43.61439" lon="1.33167">
        <ele>185</ele>
        <time>2024-07-09T05:03:05Z</time>
      </trkpt>
      <trkpt lat="43.61446" lon="1.33172">
        <ele>185</ele>
        <time>2024-07-09T05:03:06Z</time>
      </trkpt>
      <trkpt lat="43.61451" lon="1.33176">
        <ele>185</ele>
        <time>2024-07-09T05:03:07Z</time>
      </trkpt>
      <trkpt lat="43.61456" lon="1.3318">
        <ele>185.2</ele>
        <time>2024-07-09T05:03:08Z</time>
      </trkpt>
      <trkpt lat="43.61464" lon="1.33185">
        <ele>185.2</ele>
        <time>2024-07-09T05:03:09Z</time>
      </trkpt>
      <trkpt lat="43.6147" lon="1.33189">
        <ele>185.2</ele>
        <time>2024-07-09T05:03:10Z</time>
      </trkpt>
      <trkpt lat="43.61475" lon="1.33192">
        <ele>185.2</ele>
        <time>2024-07-09T05:03:11Z</time>
      </trkpt>
      <trkpt lat="43.6148" lon="1.33196">
        <ele>185</ele>
        <time>2024-07-09T05:03:12Z</time>
      </trkpt>
      <trkpt lat="43.61486" lon="1.332">
        <ele>185</ele>
        <time>2024-07-09T05:03:13Z</time>
      </trkpt>
      <trkpt lat="43.61494" lon="1.33205">
        <ele>185</ele>
        <time>2024-07-09T05:03:14Z</time>
      </trkpt>
      <trkpt lat="43.61498" lon="1.33208">
        <ele>185</ele>
        <time>2024-07-09T05:03:15Z</time>
      </trkpt>
      <trkpt lat="43.61504" lon="1.33212">
        <ele>185.2</ele>
        <time>2024-07-09T05:03:16Z</time>
      </trkpt>
      <trkpt lat="43.6151" lon="1.33216">
        <ele>185.2</ele>
        <time>2024-07-09T05:03:17Z</time>
      </trkpt>
      <trkpt lat="43.61516" lon="1.3322">
        <ele>185.2</ele>
        <time>2024-07-09T05:03:18Z</time>
      </trkpt>
      <trkpt lat="43.61522" lon="1.33224">
        <ele>185.2</ele>
        <time>2024-07-09T05:03:19Z</time>
      </trkpt>
      <trkpt lat="43.61528" lon="1.33229">
        <ele>185.2</ele>
        <time>2024-07-09T05:03:20Z</time>
      </trkpt>
      <trkpt lat="43.61534" lon="1.33233">
        <ele>185.2</ele>
        <time>2024-07-09T05:03:21Z</time>
      </trkpt>
      <trkpt lat="43.6154" lon="1.33237">
        <ele>185.2</ele>
        <time>2024-07-09T05:03:22Z</time>
      </trkpt>
      <trkpt lat="43.61546" lon="1.33241">
        <ele>185.2</ele>
        <time>2024-07-09T05:03:23Z</time>
      </trkpt>
      <trkpt lat="43.61554" lon="1.33245">
        <ele>185.2</ele>
        <time>2024-07-09T05:03:24Z</time>
      </trkpt>
      <trkpt lat="43.61561" lon="1.33248">
        <ele>185.2</ele>
        <time>2024-07-09T05:03:25Z</time>
      </trkpt>
      <trkpt lat="43.61567" lon="1.33251">
        <ele>185.2</ele>
        <time>2024-07-09T05:03:26Z</time>
      </trkpt>
      <trkpt lat="43.61572" lon="1.33254">
        <ele>185.2</ele>
        <time>2024-07-09T05:03:27Z</time>
      </trkpt>
      <trkpt lat="43.61577" lon="1.33258">
        <ele>185.2</ele>
        <time>2024-07-09T05:03:28Z</time>
      </trkpt>
      <trkpt lat="43.61582" lon="1.33264">
        <ele>185</ele>
        <time>2024-07-09T05:03:29Z</time>
      </trkpt>
      <trkpt lat="43.61588" lon="1.33272">
        <ele>184.8</ele>
        <time>2024-07-09T05:03:30Z</time>
      </trkpt>
      <trkpt lat="43.61592" lon="1.33276">
        <ele>184.6</ele>
        <time>2024-07-09T05:03:31Z</time>
      </trkpt>
      <trkpt lat="43.61597" lon="1.33281">
        <ele>184.6</ele>
        <time>2024-07-09T05:03:32Z</time>
      </trkpt>
      <trkpt lat="43.61604" lon="1.33286">
        <ele>184.6</ele>
        <time>2024-07-09T05:03:33Z</time>
      </trkpt>
      <trkpt lat="43.6161" lon="1.33289">
        <ele>184.6</ele>
        <time>2024-07-09T05:03:34Z</time>
      </trkpt>
      <trkpt lat="43.61617" lon="1.33291">
        <ele>184.4</ele>
        <time>2024-07-09T05:03:35Z</time>
      </trkpt>
      <trkpt lat="43.61622" lon="1.33292">
        <ele>184.4</ele>
        <time>2024-07-09T05:03:36Z</time>
      </trkpt>
      <trkpt lat="43.61628" lon="1.33293">
        <ele>184.4</ele>
        <time>2024-07-09T05:03:37Z</time>
      </trkpt>
      <trkpt lat="43.61635" lon="1.33294">
        <ele>184.4</ele>
        <time>2024-07-09T05:03:38Z</time>
      </trkpt>
      <trkpt lat="43.61642" lon="1.33298">
        <ele>184.4</ele>
        <time>2024-07-09T05:03:39Z</time>
      </trkpt>
      <trkpt lat="43.61646" lon="1.33302">
        <ele>184.4</ele>
        <time>2024-07-09T05:03:40Z</time>
      </trkpt>
      <trkpt lat="43.61652" lon="1.33309">
        <ele>184.6</ele>
        <time>2024-07-09T05:03:41Z</time>
      </trkpt>
      <trkpt lat="43.61657" lon="1.33313">
        <ele>184.6</ele>
        <time>2024-07-09T05:03:42Z</time>
      </trkpt>
      <trkpt lat="43.61662" lon="1.33315">
        <ele>184.6</ele>
        <time>2024-07-09T05:03:43Z</time>
      </trkpt>
      <trkpt lat="43.61668" lon="1.33315">
        <ele>184.8</ele>
        <time>2024-07-09T05:03:44Z</time>
      </trkpt>
      <trkpt lat="43.61673" lon="1.33315">
        <ele>184.8</ele>
        <time>2024-07-09T05:03:45Z</time>
      </trkpt>
      <trkpt lat="43.61679" lon="1.33316">
        <ele>184.8</ele>
        <time>2024-07-09T05:03:46Z</time>
      </trkpt>
      <trkpt lat="43.61685" lon="1.33318">
        <ele>184.8</ele>
        <time>2024-07-09T05:03:47Z</time>
      </trkpt>
      <trkpt lat="43.61691" lon="1.33321">
        <ele>185</ele>
        <time>2024-07-09T05:03:48Z</time>
      </trkpt>
      <trkpt lat="43.61696" lon="1.33324">
        <ele>185</ele>
        <time>2024-07-09T05:03:49Z</time>
      </trkpt>
      <trkpt lat="43.61702" lon="1.33327">
        <ele>185</ele>
        <time>2024-07-09T05:03:50Z</time>
      </trkpt>
      <trkpt lat="43.61708" lon="1.3333">
        <ele>185</ele>
        <time>2024-07-09T05:03:51Z</time>
      </trkpt>
      <trkpt lat="43.61713" lon="1.33334">
        <ele>185</ele>
        <time>2024-07-09T05:03:52Z</time>
      </trkpt>
      <trkpt lat="43.61719" lon="1.33337">
        <ele>185</ele>
        <time>2024-07-09T05:03:53Z</time>
      </trkpt>
      <trkpt lat="43.61725" lon="1.3334">
        <ele>185</ele>
        <time>2024-07-09T05:03:54Z</time>
      </trkpt>
      <trkpt lat="43.61731" lon="1.33344">
        <ele>185</ele>
        <time>2024-07-09T05:03:55Z</time>
      </trkpt>
      <trkpt lat="43.61738" lon="1.33347">
        <ele>185</ele>
        <time>2024-07-09T05:03:56Z</time>
      </trkpt>
      <trkpt lat="43.61744" lon="1.3335">
        <ele>185</ele>
        <time>2024-07-09T05:03:57Z</time>
      </trkpt>
      <trkpt lat="43.6175" lon="1.33353">
        <ele>184.8</ele>
        <time>2024-07-09T05:03:58Z</time>
      </trkpt>
      <trkpt lat="43.61756" lon="1.33356">
        <ele>184.8</ele>
        <time>2024-07-09T05:03:59Z</time>
      </trkpt>
      <trkpt lat="43.61762" lon="1.33359">
        <ele>184.8</ele>
        <time>2024-07-09T05:04:00Z</time>
      </trkpt>
      <trkpt lat="43.61768" lon="1.33363">
        <ele>184.8</ele>
        <time>2024-07-09T05:04:01Z</time>
      </trkpt>
      <trkpt lat="43.61774" lon="1.33365">
        <ele>184.8</ele>
        <time>2024-07-09T05:04:02Z</time>
      </trkpt>
      <trkpt lat="43.6178" lon="1.33369">
        <ele>184.8</ele>
        <time>2024-07-09T05:04:03Z</time>
      </trkpt>
      <trkpt lat="43.61786" lon="1.33372">
        <ele>184.8</ele>
        <time>2024-07-09T05:04:04Z</time>
      </trkpt>
      <trkpt lat="43.61792" lon="1.33375">
        <ele>184.8</ele>
        <time>2024-07-09T05:04:05Z</time>
      </trkpt>
      <trkpt lat="43.61798" lon="1.33378">
        <ele>184.8</ele>
        <time>2024-07-09T05:04:06Z</time>
      </trkpt>
      <trkpt lat="43.61804" lon="1.33381">
        <ele>184.8</ele>
        <time>2024-07-09T05:04:07Z</time>
      </trkpt>
      <trkpt lat="43.61809" lon="1.33384">
        <ele>184.8</ele>
        <time>2024-07-09T05:04:08Z</time>
      </trkpt>
      <trkpt lat="43.61815" lon="1.33387">
        <ele>184.8</ele>
        <time>2024-07-09T05:04:09Z</time>
      </trkpt>
      <trkpt lat="43.6182" lon="1.33391">
        <ele>184.8</ele>
        <time>2024-07-09T05:04:10Z</time>
      </trkpt>
      <trkpt lat="43.61825" lon="1.33396">
        <ele>184.8</ele>
        <time>2024-07-09T05:04:11Z</time>
      </trkpt>
      <trkpt lat="43.61829" lon="1.33402">
        <ele>184.8</ele>
        <time>2024-07-09T05:04:12Z</time>
      </trkpt>
      <trkpt lat="43.61833" lon="1.33409">
        <ele>184.8</ele>
        <time>2024-07-09T05:04:13Z</time>
      </trkpt>
      <trkpt lat="43.61836" lon="1.33417">
        <ele>184.8</ele>
        <time>2024-07-09T05:04:14Z</time>
      </trkpt>
      <trkpt lat="43.61839" lon="1.33425">
        <ele>184.6</ele>
        <time>2024-07-09T05:04:15Z</time>
      </trkpt>
      <trkpt lat="43.61842" lon="1.33433">
        <ele>184.6</ele>
        <time>2024-07-09T05:04:16Z</time>
      </trkpt>
      <trkpt lat="43.61846" lon="1.33441">
        <ele>184.6</ele>
        <time>2024-07-09T05:04:17Z</time>
      </trkpt>
      <trkpt lat="43.6185" lon="1.33448">
        <ele>184.4</ele>
        <time>2024-07-09T05:04:18Z</time>
      </trkpt>
      <trkpt lat="43.61855" lon="1.33456">
        <ele>184.4</ele>
        <time>2024-07-09T05:04:19Z</time>
      </trkpt>
      <trkpt lat="43.61859" lon="1.33463">
        <ele>184.2</ele>
        <time>2024-07-09T05:04:20Z</time>
      </trkpt>
      <trkpt lat="43.61863" lon="1.3347">
        <ele>184.2</ele>
        <time>2024-07-09T05:04:21Z</time>
      </trkpt>
      <trkpt lat="43.61868" lon="1.33478">
        <ele>184</ele>
        <time>2024-07-09T05:04:22Z</time>
      </trkpt>
      <trkpt lat="43.61872" lon="1.33485">
        <ele>183.8</ele>
        <time>2024-07-09T05:04:23Z</time>
      </trkpt>
      <trkpt lat="43.61876" lon="1.33493">
        <ele>183.8</ele>
        <time>2024-07-09T05:04:24Z</time>
      </trkpt>
      <trkpt lat="43.6188" lon="1.335">
        <ele>183.6</ele>
        <time>2024-07-09T05:04:25Z</time>
      </trkpt>
      <trkpt lat="43.61885" lon="1.33508">
        <ele>183.4</ele>
        <time>2024-07-09T05:04:26Z</time>
      </trkpt>
      <trkpt lat="43.61889" lon="1.33515">
        <ele>183.4</ele>
        <time>2024-07-09T05:04:27Z</time>
      </trkpt>
      <trkpt lat="43.61893" lon="1.33521">
        <ele>183.2</ele>
        <time>2024-07-09T05:04:28Z</time>
      </trkpt>
      <trkpt lat="43.61898" lon="1.33527">
        <ele>183.2</ele>
        <time>2024-07-09T05:04:29Z</time>
      </trkpt>
      <trkpt lat="43.61902" lon="1.33532">
        <ele>183.2</ele>
        <time>2024-07-09T05:04:30Z</time>
      </trkpt>
      <trkpt lat="43.61907" lon="1.33536">
        <ele>183.2</ele>
        <time>2024-07-09T05:04:31Z</time>
      </trkpt>
      <trkpt lat="43.61913" lon="1.33542">
        <ele>183.2</ele>
        <time>2024-07-09T05:04:32Z</time>
      </trkpt>
      <trkpt lat="43.61916" lon="1.33548">
        <ele>183</ele>
        <time>2024-07-09T05:04:33Z</time>
      </trkpt>
      <trkpt lat="43.61917" lon="1.33555">
        <ele>183</ele>
        <time>2024-07-09T05:04:34Z</time>
      </trkpt>
      <trkpt lat="43.61917" lon="1.33562">
        <ele>183</ele>
        <time>2024-07-09T05:04:35Z</time>
      </trkpt>
      <trkpt lat="43.61917" lon="1.33569">
        <ele>183</ele>
        <time>2024-07-09T05:04:36Z</time>
      </trkpt>
      <trkpt lat="43.61919" lon="1.33576">
        <ele>183</ele>
        <time>2024-07-09T05:04:37Z</time>
      </trkpt>
      <trkpt lat="43.61922" lon="1.33581">
        <ele>183</ele>
        <time>2024-07-09T05:04:38Z</time>
      </trkpt>
      <trkpt lat="43.61927" lon="1.33586">
        <ele>183</ele>
        <time>2024-07-09T05:04:39Z</time>
      </trkpt>
      <trkpt lat="43.61931" lon="1.3359">
        <ele>183</ele>
        <time>2024-07-09T05:04:40Z</time>
      </trkpt>
      <trkpt lat="43.61936" lon="1.33594">
        <ele>183</ele>
        <time>2024-07-09T05:04:41Z</time>
      </trkpt>
      <trkpt lat="43.61941" lon="1.33599">
        <ele>183</ele>
        <time>2024-07-09T05:04:42Z</time>
      </trkpt>
      <trkpt lat="43.61946" lon="1.33603">
        <ele>183</ele>
        <time>2024-07-09T05:04:43Z</time>
      </trkpt>
      <trkpt lat="43.61951" lon="1.33608">
        <ele>183</ele>
        <time>2024-07-09T05:04:44Z</time>
      </trkpt>
      <trkpt lat="43.61955" lon="1.33613">
        <ele>182.8</ele>
        <time>2024-07-09T05:04:45Z</time>
      </trkpt>
      <trkpt lat="43.61959" lon="1.33619">
        <ele>182.8</ele>
        <time>2024-07-09T05:04:46Z</time>
      </trkpt>
      <trkpt lat="43.61962" lon="1.33625">
        <ele>182.8</ele>
        <time>2024-07-09T05:04:47Z</time>
      </trkpt>
      <trkpt lat="43.61966" lon="1.33631">
        <ele>182.8</ele>
        <time>2024-07-09T05:04:48Z</time>
      </trkpt>
      <trkpt lat="43.61969" lon="1.33638">
        <ele>182.8</ele>
        <time>2024-07-09T05:04:49Z</time>
      </trkpt>
      <trkpt lat="43.61971" lon="1.33644">
        <ele>182.8</ele>
        <time>2024-07-09T05:04:50Z</time>
      </trkpt>
      <trkpt lat="43.61973" lon="1.33651">
        <ele>182.8</ele>
        <time>2024-07-09T05:04:51Z</time>
      </trkpt>
      <trkpt lat="43.61973" lon="1.33658">
        <ele>182.8</ele>
        <time>2024-07-09T05:04:52Z</time>
      </trkpt>
      <trkpt lat="43.61972" lon="1.33664">
        <ele>182.8</ele>
        <time>2024-07-09T05:04:53Z</time>
      </trkpt>
      <trkpt lat="43.61972" lon="1.33671">
        <ele>182.8</ele>
        <time>2024-07-09T05:04:54Z</time>
      </trkpt>
      <trkpt lat="43.61972" lon="1.33678">
        <ele>182.8</ele>
        <time>2024-07-09T05:04:55Z</time>
      </trkpt>
      <trkpt lat="43.61972" lon="1.33685">
        <ele>182.8</ele>
        <time>2024-07-09T05:04:56Z</time>
      </trkpt>
      <trkpt lat="43.6197" lon="1.33691">
        <ele>182.8</ele>
        <time>2024-07-09T05:04:57Z</time>
      </trkpt>
      <trkpt lat="43.61967" lon="1.33696">
        <ele>182.8</ele>
        <time>2024-07-09T05:04:58Z</time>
      </trkpt>
      <trkpt lat="43.61962" lon="1.337">
        <ele>182.8</ele>
        <time>2024-07-09T05:04:59Z</time>
      </trkpt>
      <trkpt lat="43.61957" lon="1.33703">
        <ele>182.6</ele>
        <time>2024-07-09T05:05:00Z</time>
      </trkpt>
      <trkpt lat="43.61952" lon="1.33706">
        <ele>182.6</ele>
        <time>2024-07-09T05:05:01Z</time>
      </trkpt>
      <trkpt lat="43.61948" lon="1.3371">
        <ele>182.6</ele>
        <time>2024-07-09T05:05:02Z</time>
      </trkpt>
      <trkpt lat="43.61943" lon="1.33715">
        <ele>182.4</ele>
        <time>2024-07-09T05:05:03Z</time>
      </trkpt>
      <trkpt lat="43.61939" lon="1.33721">
        <ele>182.4</ele>
        <time>2024-07-09T05:05:04Z</time>
      </trkpt>
      <trkpt lat="43.61936" lon="1.33727">
        <ele>182.4</ele>
        <time>2024-07-09T05:05:05Z</time>
      </trkpt>
      <trkpt lat="43.61933" lon="1.33734">
        <ele>182.2</ele>
        <time>2024-07-09T05:05:06Z</time>
      </trkpt>
      <trkpt lat="43.6193" lon="1.33741">
        <ele>182.2</ele>
        <time>2024-07-09T05:05:07Z</time>
      </trkpt>
      <trkpt lat="43.61927" lon="1.33748">
        <ele>182.2</ele>
        <time>2024-07-09T05:05:08Z</time>
      </trkpt>
      <trkpt lat="43.61924" lon="1.33755">
        <ele>182</ele>
        <time>2024-07-09T05:05:09Z</time>
      </trkpt>
      <trkpt lat="43.61922" lon="1.33762">
        <ele>182</ele>
        <time>2024-07-09T05:05:10Z</time>
      </trkpt>
      <trkpt lat="43.61919" lon="1.3377">
        <ele>182</ele>
        <time>2024-07-09T05:05:11Z</time>
      </trkpt>
      <trkpt lat="43.61916" lon="1.33777">
        <ele>182</ele>
        <time>2024-07-09T05:05:12Z</time>
      </trkpt>
      <trkpt lat="43.61913" lon="1.33784">
        <ele>181.8</ele>
        <time>2024-07-09T05:05:13Z</time>
      </trkpt>
      <trkpt lat="43.6191" lon="1.3379">
        <ele>181.8</ele>
        <time>2024-07-09T05:05:14Z</time>
      </trkpt>
      <trkpt lat="43.61906" lon="1.33797">
        <ele>181.8</ele>
        <time>2024-07-09T05:05:15Z</time>
      </trkpt>
      <trkpt lat="43.61902" lon="1.33802">
        <ele>181.6</ele>
        <time>2024-07-09T05:05:16Z</time>
      </trkpt>
      <trkpt lat="43.61898" lon="1.33808">
        <ele>181.6</ele>
        <time>2024-07-09T05:05:17Z</time>
      </trkpt>
      <trkpt lat="43.61894" lon="1.33814">
        <ele>181.6</ele>
        <time>2024-07-09T05:05:18Z</time>
      </trkpt>
      <trkpt lat="43.6189" lon="1.3382">
        <ele>181.6</ele>
        <time>2024-07-09T05:05:19Z</time>
      </trkpt>
      <trkpt lat="43.61886" lon="1.33826">
        <ele>181.6</ele>
        <time>2024-07-09T05:05:20Z</time>
      </trkpt>
      <trkpt lat="43.61882" lon="1.33832">
        <ele>181.6</ele>
        <time>2024-07-09T05:05:21Z</time>
      </trkpt>
      <trkpt lat="43.61877" lon="1.33838">
        <ele>181.6</ele>
        <time>2024-07-09T05:05:22Z</time>
      </trkpt>
      <trkpt lat="43.61873" lon="1.33844">
        <ele>181.4</ele>
        <time>2024-07-09T05:05:23Z</time>
      </trkpt>
      <trkpt lat="43.61869" lon="1.3385">
        <ele>181.4</ele>
        <time>2024-07-09T05:05:24Z</time>
      </trkpt>
      <trkpt lat="43.61864" lon="1.33856">
        <ele>181.4</ele>
        <time>2024-07-09T05:05:25Z</time>
      </trkpt>
      <trkpt lat="43.6186" lon="1.33863">
        <ele>181.2</ele>
        <time>2024-07-09T05:05:26Z</time>
      </trkpt>
      <trkpt lat="43.61856" lon="1.3387">
        <ele>181.2</ele>
        <time>2024-07-09T05:05:27Z</time>
      </trkpt>
      <trkpt lat="43.61852" lon="1.33877">
        <ele>181.2</ele>
        <time>2024-07-09T05:05:28Z</time>
      </trkpt>
      <trkpt lat="43.61849" lon="1.33885">
        <ele>181</ele>
        <time>2024-07-09T05:05:29Z</time>
      </trkpt>
      <trkpt lat="43.61846" lon="1.33892">
        <ele>180.8</ele>
        <time>2024-07-09T05:05:30Z</time>
      </trkpt>
      <trkpt lat="43.61844" lon="1.339">
        <ele>180.6</ele>
        <time>2024-07-09T05:05:31Z</time>
      </trkpt>
      <trkpt lat="43.61843" lon="1.33908">
        <ele>180.6</ele>
        <time>2024-07-09T05:05:32Z</time>
      </trkpt>
      <trkpt lat="43.61842" lon="1.33915">
        <ele>180.6</ele>
        <time>2024-07-09T05:05:33Z</time>
      </trkpt>
      <trkpt lat="43.6184" lon="1.33923">
        <ele>180.4</ele>
        <time>2024-07-09T05:05:34Z</time>
      </trkpt>
      <trkpt lat="43.61838" lon="1.3393">
        <ele>180.4</ele>
        <time>2024-07-09T05:05:35Z</time>
      </trkpt>
      <trkpt lat="43.61834" lon="1.33934">
        <ele>180.2</ele>
        <time>2024-07-09T05:05:36Z</time>
      </trkpt>
      <trkpt lat="43.6183" lon="1.33936">
        <ele>180</ele>
        <time>2024-07-09T05:05:37Z</time>
      </trkpt>
      <trkpt lat="43.61824" lon="1.33937">
        <ele>179.8</ele>
        <time>2024-07-09T05:05:38Z</time>
      </trkpt>
      <trkpt lat="43.61819" lon="1.3394">
        <ele>179.6</ele>
        <time>2024-07-09T05:05:39Z</time>
      </trkpt>
      <trkpt lat="43.61815" lon="1.33944">
        <ele>179.6</ele>
        <time>2024-07-09T05:05:40Z</time>
      </trkpt>
      <trkpt lat="43.61812" lon="1.33949">
        <ele>179.4</ele>
        <time>2024-07-09T05:05:41Z</time>
      </trkpt>
      <trkpt lat="43.61807" lon="1.33955">
        <ele>179.4</ele>
        <time>2024-07-09T05:05:42Z</time>
      </trkpt>
      <trkpt lat="43.61802" lon="1.33962">
        <ele>179.2</ele>
        <time>2024-07-09T05:05:43Z</time>
      </trkpt>
      <trkpt lat="43.61797" lon="1.33968">
        <ele>179.2</ele>
        <time>2024-07-09T05:05:44Z</time>
      </trkpt>
      <trkpt lat="43.6179" lon="1.33975">
        <ele>178.8</ele>
        <time>2024-07-09T05:05:45Z</time>
      </trkpt>
      <trkpt lat="43.61784" lon="1.33981">
        <ele>178.6</ele>
        <time>2024-07-09T05:05:46Z</time>
      </trkpt>
      <trkpt lat="43.61777" lon="1.33987">
        <ele>178.4</ele>
        <time>2024-07-09T05:05:47Z</time>
      </trkpt>
      <trkpt lat="43.61771" lon="1.33992">
        <ele>177.6</ele>
        <time>2024-07-09T05:05:48Z</time>
      </trkpt>
      <trkpt lat="43.61766" lon="1.33994">
        <ele>177.2</ele>
        <time>2024-07-09T05:05:49Z</time>
      </trkpt>
      <trkpt lat="43.61761" lon="1.33997">
        <ele>176.4</ele>
        <time>2024-07-09T05:05:50Z</time>
      </trkpt>
      <trkpt lat="43.61759" lon="1.34001">
        <ele>175.8</ele>
        <time>2024-07-09T05:05:51Z</time>
      </trkpt>
      <trkpt lat="43.6176" lon="1.34005">
        <ele>174.4</ele>
        <time>2024-07-09T05:05:52Z</time>
      </trkpt>
      <trkpt lat="43.61762" lon="1.34012">
        <ele>173.4</ele>
        <time>2024-07-09T05:05:53Z</time>
      </trkpt>
      <trkpt lat="43.61764" lon="1.34019">
        <ele>173</ele>
        <time>2024-07-09T05:05:54Z</time>
      </trkpt>
      <trkpt lat="43.61767" lon="1.3403">
        <ele>172.4</ele>
        <time>2024-07-09T05:05:55Z</time>
      </trkpt>
      <trkpt lat="43.6177" lon="1.34039">
        <ele>172.2</ele>
        <time>2024-07-09T05:05:56Z</time>
      </trkpt>
      <trkpt lat="43.61773" lon="1.34049">
        <ele>171.6</ele>
        <time>2024-07-09T05:05:57Z</time>
      </trkpt>
      <trkpt lat="43.61776" lon="1.3406">
        <ele>171.4</ele>
        <time>2024-07-09T05:05:58Z</time>
      </trkpt>
      <trkpt lat="43.61779" lon="1.34071">
        <ele>171</ele>
        <time>2024-07-09T05:05:59Z</time>
      </trkpt>
      <trkpt lat="43.61782" lon="1.34083">
        <ele>170.4</ele>
        <time>2024-07-09T05:06:00Z</time>
      </trkpt>
      <trkpt lat="43.61786" lon="1.34095">
        <ele>170</ele>
        <time>2024-07-09T05:06:01Z</time>
      </trkpt>
      <trkpt lat="43.61789" lon="1.34107">
        <ele>169.2</ele>
        <time>2024-07-09T05:06:02Z</time>
      </trkpt>
      <trkpt lat="43.61793" lon="1.34119">
        <ele>168.8</ele>
        <time>2024-07-09T05:06:03Z</time>
      </trkpt>
      <trkpt lat="43.61796" lon="1.34131">
        <ele>168</ele>
        <time>2024-07-09T05:06:04Z</time>
      </trkpt>
      <trkpt lat="43.61798" lon="1.34142">
        <ele>167.4</ele>
        <time>2024-07-09T05:06:05Z</time>
      </trkpt>
      <trkpt lat="43.61802" lon="1.34152">
        <ele>166.6</ele>
        <time>2024-07-09T05:06:06Z</time>
      </trkpt>
      <trkpt lat="43.61807" lon="1.34161">
        <ele>166</ele>
        <time>2024-07-09T05:06:07Z</time>
      </trkpt>
      <trkpt lat="43.61813" lon="1.34169">
        <ele>165.8</ele>
        <time>2024-07-09T05:06:08Z</time>
      </trkpt>
      <trkpt lat="43.61819" lon="1.34176">
        <ele>165</ele>
        <time>2024-07-09T05:06:09Z</time>
      </trkpt>
      <trkpt lat="43.61825" lon="1.34183">
        <ele>164.8</ele>
        <time>2024-07-09T05:06:10Z</time>
      </trkpt>
      <trkpt lat="43.6183" lon="1.34191">
        <ele>164.4</ele>
        <time>2024-07-09T05:06:11Z</time>
      </trkpt>
      <trkpt lat="43.61836" lon="1.34199">
        <ele>164.2</ele>
        <time>2024-07-09T05:06:12Z</time>
      </trkpt>
      <trkpt lat="43.61841" lon="1.34206">
        <ele>164</ele>
        <time>2024-07-09T05:06:13Z</time>
      </trkpt>
      <trkpt lat="43.61846" lon="1.34213">
        <ele>163.8</ele>
        <time>2024-07-09T05:06:14Z</time>
      </trkpt>
      <trkpt lat="43.61852" lon="1.3422">
        <ele>163.6</ele>
        <time>2024-07-09T05:06:15Z</time>
      </trkpt>
      <trkpt lat="43.61858" lon="1.34227">
        <ele>163.6</ele>
        <time>2024-07-09T05:06:16Z</time>
      </trkpt>
      <trkpt lat="43.61864" lon="1.34233">
        <ele>163.6</ele>
        <time>2024-07-09T05:06:17Z</time>
      </trkpt>
      <trkpt lat="43.6187" lon="1.3424">
        <ele>163.4</ele>
        <time>2024-07-09T05:06:18Z</time>
      </trkpt>
      <trkpt lat="43.61876" lon="1.34247">
        <ele>163.4</ele>
        <time>2024-07-09T05:06:19Z</time>
      </trkpt>
      <trkpt lat="43.61882" lon="1.34254">
        <ele>163.2</ele>
        <time>2024-07-09T05:06:20Z</time>
      </trkpt>
      <trkpt lat="43.61888" lon="1.34261">
        <ele>163.2</ele>
        <time>2024-07-09T05:06:21Z</time>
      </trkpt>
      <trkpt lat="43.61894" lon="1.34268">
        <ele>163.2</ele>
        <time>2024-07-09T05:06:22Z</time>
      </trkpt>
      <trkpt lat="43.619" lon="1.34275">
        <ele>163</ele>
        <time>2024-07-09T05:06:23Z</time>
      </trkpt>
      <trkpt lat="43.61905" lon="1.34282">
        <ele>162.8</ele>
        <time>2024-07-09T05:06:24Z</time>
      </trkpt>
      <trkpt lat="43.61911" lon="1.34289">
        <ele>162.8</ele>
        <time>2024-07-09T05:06:25Z</time>
      </trkpt>
      <trkpt lat="43.61917" lon="1.34295">
        <ele>162.8</ele>
        <time>2024-07-09T05:06:26Z</time>
      </trkpt>
      <trkpt lat="43.61923" lon="1.34302">
        <ele>162.4</ele>
        <time>2024-07-09T05:06:27Z</time>
      </trkpt>
      <trkpt lat="43.61929" lon="1.34308">
        <ele>162.4</ele>
        <time>2024-07-09T05:06:28Z</time>
      </trkpt>
      <trkpt lat="43.61935" lon="1.34313">
        <ele>162.2</ele>
        <time>2024-07-09T05:06:29Z</time>
      </trkpt>
      <trkpt lat="43.61941" lon="1.34319">
        <ele>162.2</ele>
        <time>2024-07-09T05:06:30Z</time>
      </trkpt>
      <trkpt lat="43.61947" lon="1.34325">
        <ele>162.2</ele>
        <time>2024-07-09T05:06:31Z</time>
      </trkpt>
      <trkpt lat="43.61952" lon="1.34332">
        <ele>162</ele>
        <time>2024-07-09T05:06:32Z</time>
      </trkpt>
      <trkpt lat="43.61958" lon="1.34338">
        <ele>162</ele>
        <time>2024-07-09T05:06:33Z</time>
      </trkpt>
      <trkpt lat="43.61963" lon="1.34343">
        <ele>161.8</ele>
        <time>2024-07-09T05:06:34Z</time>
      </trkpt>
      <trkpt lat="43.61969" lon="1.34347">
        <ele>161.6</ele>
        <time>2024-07-09T05:06:35Z</time>
      </trkpt>
      <trkpt lat="43.61975" lon="1.34353">
        <ele>161.4</ele>
        <time>2024-07-09T05:06:36Z</time>
      </trkpt>
      <trkpt lat="43.6198" lon="1.34358">
        <ele>161.4</ele>
        <time>2024-07-09T05:06:37Z</time>
      </trkpt>
      <trkpt lat="43.61985" lon="1.34364">
        <ele>161.2</ele>
        <time>2024-07-09T05:06:38Z</time>
      </trkpt>
      <trkpt lat="43.6199" lon="1.34369">
        <ele>161.2</ele>
        <time>2024-07-09T05:06:39Z</time>
      </trkpt>
      <trkpt lat="43.61995" lon="1.34374">
        <ele>161.2</ele>
        <time>2024-07-09T05:06:40Z</time>
      </trkpt>
      <trkpt lat="43.62" lon="1.3438">
        <ele>161.2</ele>
        <time>2024-07-09T05:06:41Z</time>
      </trkpt>
      <trkpt lat="43.62005" lon="1.34386">
        <ele>161.2</ele>
        <time>2024-07-09T05:06:42Z</time>
      </trkpt>
      <trkpt lat="43.62009" lon="1.34391">
        <ele>161.2</ele>
        <time>2024-07-09T05:06:43Z</time>
      </trkpt>
      <trkpt lat="43.62013" lon="1.34397">
        <ele>161</ele>
        <time>2024-07-09T05:06:44Z</time>
      </trkpt>
      <trkpt lat="43.62018" lon="1.34403">
        <ele>161</ele>
        <time>2024-07-09T05:06:45Z</time>
      </trkpt>
      <trkpt lat="43.62022" lon="1.3441">
        <ele>161</ele>
        <time>2024-07-09T05:06:46Z</time>
      </trkpt>
      <trkpt lat="43.62026" lon="1.34416">
        <ele>161</ele>
        <time>2024-07-09T05:06:47Z</time>
      </trkpt>
      <trkpt lat="43.62029" lon="1.34423">
        <ele>160.8</ele>
        <time>2024-07-09T05:06:48Z</time>
      </trkpt>
      <trkpt lat="43.62031" lon="1.3443">
        <ele>160.8</ele>
        <time>2024-07-09T05:06:49Z</time>
      </trkpt>
      <trkpt lat="43.62031" lon="1.34438">
        <ele>160.8</ele>
        <time>2024-07-09T05:06:50Z</time>
      </trkpt>
      <trkpt lat="43.6203" lon="1.34445">
        <ele>160.6</ele>
        <time>2024-07-09T05:06:51Z</time>
      </trkpt>
      <trkpt lat="43.62027" lon="1.34451">
        <ele>160.4</ele>
        <time>2024-07-09T05:06:52Z</time>
      </trkpt>
      <trkpt lat="43.62025" lon="1.34456">
        <ele>160.4</ele>
        <time>2024-07-09T05:06:53Z</time>
      </trkpt>
      <trkpt lat="43.62025" lon="1.34461">
        <ele>160.2</ele>
        <time>2024-07-09T05:06:54Z</time>
      </trkpt>
      <trkpt lat="43.62027" lon="1.34465">
        <ele>160.2</ele>
        <time>2024-07-09T05:06:55Z</time>
      </trkpt>
      <trkpt lat="43.6203" lon="1.34466">
        <ele>160.2</ele>
        <time>2024-07-09T05:06:56Z</time>
      </trkpt>
      <trkpt lat="43.62033" lon="1.34466">
        <ele>160</ele>
        <time>2024-07-09T05:06:57Z</time>
      </trkpt>
      <trkpt lat="43.62036" lon="1.34463">
        <ele>160</ele>
        <time>2024-07-09T05:06:58Z</time>
      </trkpt>
      <trkpt lat="43.6204" lon="1.34461">
        <ele>160</ele>
        <time>2024-07-09T05:06:59Z</time>
      </trkpt>
      <trkpt lat="43.62044" lon="1.3446">
        <ele>160</ele>
        <time>2024-07-09T05:07:00Z</time>
      </trkpt>
      <trkpt lat="43.62048" lon="1.34459">
        <ele>160</ele>
        <time>2024-07-09T05:07:01Z</time>
      </trkpt>
      <trkpt lat="43.62053" lon="1.34459">
        <ele>160</ele>
        <time>2024-07-09T05:07:02Z</time>
      </trkpt>
      <trkpt lat="43.62058" lon="1.34458">
        <ele>160</ele>
        <time>2024-07-09T05:07:03Z</time>
      </trkpt>
      <trkpt lat="43.62063" lon="1.34458">
        <ele>160</ele>
        <time>2024-07-09T05:07:04Z</time>
      </trkpt>
      <trkpt lat="43.62068" lon="1.34459">
        <ele>160</ele>
        <time>2024-07-09T05:07:05Z</time>
      </trkpt>
      <trkpt lat="43.62074" lon="1.34462">
        <ele>160</ele>
        <time>2024-07-09T05:07:06Z</time>
      </trkpt>
      <trkpt lat="43.62078" lon="1.34465">
        <ele>160</ele>
        <time>2024-07-09T05:07:07Z</time>
      </trkpt>
      <trkpt lat="43.62083" lon="1.3447">
        <ele>160</ele>
        <time>2024-07-09T05:07:08Z</time>
      </trkpt>
      <trkpt lat="43.62088" lon="1.34474">
        <ele>160</ele>
        <time>2024-07-09T05:07:09Z</time>
      </trkpt>
      <trkpt lat="43.62092" lon="1.3448">
        <ele>160.2</ele>
        <time>2024-07-09T05:07:10Z</time>
      </trkpt>
      <trkpt lat="43.62097" lon="1.34485">
        <ele>160</ele>
        <time>2024-07-09T05:07:11Z</time>
      </trkpt>
      <trkpt lat="43.62102" lon="1.34491">
        <ele>160</ele>
        <time>2024-07-09T05:07:12Z</time>
      </trkpt>
      <trkpt lat="43.62106" lon="1.34496">
        <ele>160</ele>
        <time>2024-07-09T05:07:13Z</time>
      </trkpt>
      <trkpt lat="43.62111" lon="1.34501">
        <ele>159.8</ele>
        <time>2024-07-09T05:07:14Z</time>
      </trkpt>
      <trkpt lat="43.62116" lon="1.34507">
        <ele>159.8</ele>
        <time>2024-07-09T05:07:15Z</time>
      </trkpt>
      <trkpt lat="43.62121" lon="1.34512">
        <ele>159.8</ele>
        <time>2024-07-09T05:07:16Z</time>
      </trkpt>
      <trkpt lat="43.62126" lon="1.34517">
        <ele>159.6</ele>
        <time>2024-07-09T05:07:17Z</time>
      </trkpt>
      <trkpt lat="43.62131" lon="1.34522">
        <ele>159.6</ele>
        <time>2024-07-09T05:07:18Z</time>
      </trkpt>
      <trkpt lat="43.62136" lon="1.34527">
        <ele>159.6</ele>
        <time>2024-07-09T05:07:19Z</time>
      </trkpt>
      <trkpt lat="43.62142" lon="1.34532">
        <ele>159.4</ele>
        <time>2024-07-09T05:07:20Z</time>
      </trkpt>
      <trkpt lat="43.62148" lon="1.34537">
        <ele>159.4</ele>
        <time>2024-07-09T05:07:21Z</time>
      </trkpt>
      <trkpt lat="43.62153" lon="1.34542">
        <ele>159.4</ele>
        <time>2024-07-09T05:07:22Z</time>
      </trkpt>
      <trkpt lat="43.62159" lon="1.34547">
        <ele>159.4</ele>
        <time>2024-07-09T05:07:23Z</time>
      </trkpt>
      <trkpt lat="43.62164" lon="1.34551">
        <ele>159.2</ele>
        <time>2024-07-09T05:07:24Z</time>
      </trkpt>
      <trkpt lat="43.6217" lon="1.34556">
        <ele>159.2</ele>
        <time>2024-07-09T05:07:25Z</time>
      </trkpt>
      <trkpt lat="43.62175" lon="1.3456">
        <ele>159.2</ele>
        <time>2024-07-09T05:07:26Z</time>
      </trkpt>
      <trkpt lat="43.62181" lon="1.34565">
        <ele>159</ele>
        <time>2024-07-09T05:07:27Z</time>
      </trkpt>
      <trkpt lat="43.62186" lon="1.3457">
        <ele>159</ele>
        <time>2024-07-09T05:07:28Z</time>
      </trkpt>
      <trkpt lat="43.62192" lon="1.34574">
        <ele>159</ele>
        <time>2024-07-09T05:07:29Z</time>
      </trkpt>
      <trkpt lat="43.62197" lon="1.34578">
        <ele>158.8</ele>
        <time>2024-07-09T05:07:30Z</time>
      </trkpt>
      <trkpt lat="43.62203" lon="1.34583">
        <ele>158.8</ele>
        <time>2024-07-09T05:07:31Z</time>
      </trkpt>
      <trkpt lat="43.62209" lon="1.34587">
        <ele>158.6</ele>
        <time>2024-07-09T05:07:32Z</time>
      </trkpt>
      <trkpt lat="43.62215" lon="1.34591">
        <ele>158.6</ele>
        <time>2024-07-09T05:07:33Z</time>
      </trkpt>
      <trkpt lat="43.62221" lon="1.34595">
        <ele>158.6</ele>
        <time>2024-07-09T05:07:34Z</time>
      </trkpt>
      <trkpt lat="43.62227" lon="1.34599">
        <ele>158.6</ele>
        <time>2024-07-09T05:07:35Z</time>
      </trkpt>
      <trkpt lat="43.62233" lon="1.34603">
        <ele>158.6</ele>
        <time>2024-07-09T05:07:36Z</time>
      </trkpt>
      <trkpt lat="43.6224" lon="1.34607">
        <ele>158.4</ele>
        <time>2024-07-09T05:07:37Z</time>
      </trkpt>
      <trkpt lat="43.62246" lon="1.34611">
        <ele>158.4</ele>
        <time>2024-07-09T05:07:38Z</time>
      </trkpt>
      <trkpt lat="43.62252" lon="1.34615">
        <ele>158.4</ele>
        <time>2024-07-09T05:07:39Z</time>
      </trkpt>
      <trkpt lat="43.62259" lon="1.34619">
        <ele>158.4</ele>
        <time>2024-07-09T05:07:40Z</time>
      </trkpt>
      <trkpt lat="43.62266" lon="1.34622">
        <ele>158.4</ele>
        <time>2024-07-09T05:07:41Z</time>
      </trkpt>
      <trkpt lat="43.62272" lon="1.34625">
        <ele>158.2</ele>
        <time>2024-07-09T05:07:42Z</time>
      </trkpt>
      <trkpt lat="43.62279" lon="1.34629">
        <ele>158.2</ele>
        <time>2024-07-09T05:07:43Z</time>
      </trkpt>
      <trkpt lat="43.62286" lon="1.34632">
        <ele>158.2</ele>
        <time>2024-07-09T05:07:44Z</time>
      </trkpt>
      <trkpt lat="43.62292" lon="1.34635">
        <ele>158.4</ele>
        <time>2024-07-09T05:07:45Z</time>
      </trkpt>
      <trkpt lat="43.62299" lon="1.34639">
        <ele>158.4</ele>
        <time>2024-07-09T05:07:46Z</time>
      </trkpt>
      <trkpt lat="43.62305" lon="1.34642">
        <ele>158.4</ele>
        <time>2024-07-09T05:07:47Z</time>
      </trkpt>
      <trkpt lat="43.62311" lon="1.34644">
        <ele>158.4</ele>
        <time>2024-07-09T05:07:48Z</time>
      </trkpt>
      <trkpt lat="43.62318" lon="1.34647">
        <ele>158.4</ele>
        <time>2024-07-09T05:07:49Z</time>
      </trkpt>
      <trkpt lat="43.62324" lon="1.3465">
        <ele>158.4</ele>
        <time>2024-07-09T05:07:50Z</time>
      </trkpt>
      <trkpt lat="43.62331" lon="1.34652">
        <ele>158.4</ele>
        <time>2024-07-09T05:07:51Z</time>
      </trkpt>
      <trkpt lat="43.62337" lon="1.34655">
        <ele>158.4</ele>
        <time>2024-07-09T05:07:52Z</time>
      </trkpt>
      <trkpt lat="43.62343" lon="1.34658">
        <ele>158.4</ele>
        <time>2024-07-09T05:07:53Z</time>
      </trkpt>
      <trkpt lat="43.62349" lon="1.3466">
        <ele>158.4</ele>
        <time>2024-07-09T05:07:54Z</time>
      </trkpt>
      <trkpt lat="43.62355" lon="1.34663">
        <ele>158.4</ele>
        <time>2024-07-09T05:07:55Z</time>
      </trkpt>
      <trkpt lat="43.62361" lon="1.34666">
        <ele>158.6</ele>
        <time>2024-07-09T05:07:56Z</time>
      </trkpt>
      <trkpt lat="43.62366" lon="1.3467">
        <ele>158.6</ele>
        <time>2024-07-09T05:07:57Z</time>
      </trkpt>
      <trkpt lat="43.62371" lon="1.34674">
        <ele>158.6</ele>
        <time>2024-07-09T05:07:58Z</time>
      </trkpt>
      <trkpt lat="43.62375" lon="1.3468">
        <ele>158.6</ele>
        <time>2024-07-09T05:07:59Z</time>
      </trkpt>
      <trkpt lat="43.62379" lon="1.34687">
        <ele>158.6</ele>
        <time>2024-07-09T05:08:00Z</time>
      </trkpt>
      <trkpt lat="43.62383" lon="1.34693">
        <ele>158.6</ele>
        <time>2024-07-09T05:08:01Z</time>
      </trkpt>
      <trkpt lat="43.62388" lon="1.34696">
        <ele>158.6</ele>
        <time>2024-07-09T05:08:02Z</time>
      </trkpt>
      <trkpt lat="43.62393" lon="1.34697">
        <ele>158.6</ele>
        <time>2024-07-09T05:08:03Z</time>
      </trkpt>
      <trkpt lat="43.62397" lon="1.34694">
        <ele>158.6</ele>
        <time>2024-07-09T05:08:04Z</time>
      </trkpt>
      <trkpt lat="43.62402" lon="1.34691">
        <ele>158.8</ele>
        <time>2024-07-09T05:08:05Z</time>
      </trkpt>
      <trkpt lat="43.62408" lon="1.34688">
        <ele>158.8</ele>
        <time>2024-07-09T05:08:06Z</time>
      </trkpt>
      <trkpt lat="43.62414" lon="1.34686">
        <ele>158.8</ele>
        <time>2024-07-09T05:08:07Z</time>
      </trkpt>
      <trkpt lat="43.62419" lon="1.34685">
        <ele>158.8</ele>
        <time>2024-07-09T05:08:08Z</time>
      </trkpt>
      <trkpt lat="43.62426" lon="1.34685">
        <ele>158.8</ele>
        <time>2024-07-09T05:08:09Z</time>
      </trkpt>
      <trkpt lat="43.62432" lon="1.34685">
        <ele>158.8</ele>
        <time>2024-07-09T05:08:10Z</time>
      </trkpt>
      <trkpt lat="43.62439" lon="1.34685">
        <ele>158.8</ele>
        <time>2024-07-09T05:08:11Z</time>
      </trkpt>
      <trkpt lat="43.62445" lon="1.34685">
        <ele>158.8</ele>
        <time>2024-07-09T05:08:12Z</time>
      </trkpt>
      <trkpt lat="43.62451" lon="1.34685">
        <ele>158.6</ele>
        <time>2024-07-09T05:08:13Z</time>
      </trkpt>
      <trkpt lat="43.62458" lon="1.34684">
        <ele>158.6</ele>
        <time>2024-07-09T05:08:14Z</time>
      </trkpt>
      <trkpt lat="43.62464" lon="1.34684">
        <ele>158.6</ele>
        <time>2024-07-09T05:08:15Z</time>
      </trkpt>
      <trkpt lat="43.6247" lon="1.34685">
        <ele>158.6</ele>
        <time>2024-07-09T05:08:16Z</time>
      </trkpt>
      <trkpt lat="43.62476" lon="1.34686">
        <ele>158.6</ele>
        <time>2024-07-09T05:08:17Z</time>
      </trkpt>
      <trkpt lat="43.62482" lon="1.34686">
        <ele>158.6</ele>
        <time>2024-07-09T05:08:18Z</time>
      </trkpt>
      <trkpt lat="43.62488" lon="1.34688">
        <ele>158.6</ele>
        <time>2024-07-09T05:08:19Z</time>
      </trkpt>
      <trkpt lat="43.62493" lon="1.34691">
        <ele>158.6</ele>
        <time>2024-07-09T05:08:20Z</time>
      </trkpt>
      <trkpt lat="43.62497" lon="1.34695">
        <ele>158.6</ele>
        <time>2024-07-09T05:08:21Z</time>
      </trkpt>
      <trkpt lat="43.62501" lon="1.34701">
        <ele>158.4</ele>
        <time>2024-07-09T05:08:22Z</time>
      </trkpt>
      <trkpt lat="43.62504" lon="1.34708">
        <ele>158.4</ele>
        <time>2024-07-09T05:08:23Z</time>
      </trkpt>
      <trkpt lat="43.62506" lon="1.34715">
        <ele>158.2</ele>
        <time>2024-07-09T05:08:24Z</time>
      </trkpt>
      <trkpt lat="43.62507" lon="1.34722">
        <ele>158.2</ele>
        <time>2024-07-09T05:08:25Z</time>
      </trkpt>
      <trkpt lat="43.62508" lon="1.34728">
        <ele>158.2</ele>
        <time>2024-07-09T05:08:26Z</time>
      </trkpt>
      <trkpt lat="43.62509" lon="1.34733">
        <ele>158.2</ele>
        <time>2024-07-09T05:08:27Z</time>
      </trkpt>
      <trkpt lat="43.6251" lon="1.34738">
        <ele>158.2</ele>
        <time>2024-07-09T05:08:28Z</time>
      </trkpt>
      <trkpt lat="43.6251" lon="1.34741">
        <ele>158</ele>
        <time>2024-07-09T05:08:29Z</time>
      </trkpt>
      <trkpt lat="43.6251" lon="1.34743">
        <ele>158</ele>
        <time>2024-07-09T05:08:30Z</time>
      </trkpt>
      <trkpt lat="43.6251" lon="1.34744">
        <ele>158</ele>
        <time>2024-07-09T05:08:31Z</time>
      </trkpt>
      <trkpt lat="43.6251" lon="1.34745">
        <ele>158</ele>
        <time>2024-07-09T05:08:32Z</time>
      </trkpt>
      <trkpt lat="43.6251" lon="1.34745">
        <ele>157.8</ele>
        <time>2024-07-09T05:08:33Z</time>
      </trkpt>
      <trkpt lat="43.6251" lon="1.34751">
        <ele>157.6</ele>
        <time>2024-07-09T05:08:37Z</time>
      </trkpt>
      <trkpt lat="43.6251" lon="1.34755">
        <ele>157.6</ele>
        <time>2024-07-09T05:08:38Z</time>
      </trkpt>
      <trkpt lat="43.62509" lon="1.34758">
        <ele>157.6</ele>
        <time>2024-07-09T05:08:39Z</time>
      </trkpt>
      <trkpt lat="43.62509" lon="1.34763">
        <ele>157.6</ele>
        <time>2024-07-09T05:08:40Z</time>
      </trkpt>
      <trkpt lat="43.62508" lon="1.34767">
        <ele>157.6</ele>
        <time>2024-07-09T05:08:41Z</time>
      </trkpt>
      <trkpt lat="43.62507" lon="1.34771">
        <ele>157.6</ele>
        <time>2024-07-09T05:08:42Z</time>
      </trkpt>
      <trkpt lat="43.62504" lon="1.34773">
        <ele>157.6</ele>
        <time>2024-07-09T05:08:43Z</time>
      </trkpt>
      <trkpt lat="43.625" lon="1.34774">
        <ele>157.6</ele>
        <time>2024-07-09T05:08:44Z</time>
      </trkpt>
      <trkpt lat="43.62496" lon="1.34775">
        <ele>157.6</ele>
        <time>2024-07-09T05:08:45Z</time>
      </trkpt>
      <trkpt lat="43.62492" lon="1.34775">
        <ele>157.6</ele>
        <time>2024-07-09T05:08:46Z</time>
      </trkpt>
      <trkpt lat="43.62488" lon="1.34776">
        <ele>157.6</ele>
        <time>2024-07-09T05:08:47Z</time>
      </trkpt>
      <trkpt lat="43.62483" lon="1.34776">
        <ele>157.8</ele>
        <time>2024-07-09T05:08:48Z</time>
      </trkpt>
      <trkpt lat="43.62479" lon="1.34776">
        <ele>157.8</ele>
        <time>2024-07-09T05:08:49Z</time>
      </trkpt>
      <trkpt lat="43.62474" lon="1.34776">
        <ele>157.8</ele>
        <time>2024-07-09T05:08:50Z</time>
      </trkpt>
      <trkpt lat="43.6247" lon="1.34776">
        <ele>157.8</ele>
        <time>2024-07-09T05:08:51Z</time>
      </trkpt>
      <trkpt lat="43.62465" lon="1.34776">
        <ele>158</ele>
        <time>2024-07-09T05:08:52Z</time>
      </trkpt>
      <trkpt lat="43.6246" lon="1.34777">
        <ele>158</ele>
        <time>2024-07-09T05:08:53Z</time>
      </trkpt>
      <trkpt lat="43.62455" lon="1.34776">
        <ele>158.2</ele>
        <time>2024-07-09T05:08:54Z</time>
      </trkpt>
      <trkpt lat="43.6245" lon="1.34777">
        <ele>158.2</ele>
        <time>2024-07-09T05:08:55Z</time>
      </trkpt>
      <trkpt lat="43.62445" lon="1.34777">
        <ele>158.2</ele>
        <time>2024-07-09T05:08:56Z</time>
      </trkpt>
      <trkpt lat="43.62439" lon="1.34777">
        <ele>158.2</ele>
        <time>2024-07-09T05:08:57Z</time>
      </trkpt>
      <trkpt lat="43.62434" lon="1.34776">
        <ele>158.2</ele>
        <time>2024-07-09T05:08:58Z</time>
      </trkpt>
      <trkpt lat="43.62429" lon="1.34776">
        <ele>158.2</ele>
        <time>2024-07-09T05:08:59Z</time>
      </trkpt>
      <trkpt lat="43.62424" lon="1.34777">
        <ele>158.4</ele>
        <time>2024-07-09T05:09:00Z</time>
      </trkpt>
      <trkpt lat="43.6242" lon="1.34778">
        <ele>158.4</ele>
        <time>2024-07-09T05:09:01Z</time>
      </trkpt>
      <trkpt lat="43.62414" lon="1.34778">
        <ele>158.4</ele>
        <time>2024-07-09T05:09:02Z</time>
      </trkpt>
      <trkpt lat="43.62409" lon="1.34778">
        <ele>158.4</ele>
        <time>2024-07-09T05:09:03Z</time>
      </trkpt>
      <trkpt lat="43.62404" lon="1.34778">
        <ele>158.4</ele>
        <time>2024-07-09T05:09:04Z</time>
      </trkpt>
      <trkpt lat="43.62399" lon="1.34778">
        <ele>158.4</ele>
        <time>2024-07-09T05:09:05Z</time>
      </trkpt>
      <trkpt lat="43.62393" lon="1.34779">
        <ele>158.6</ele>
        <time>2024-07-09T05:09:06Z</time>
      </trkpt>
      <trkpt lat="43.62388" lon="1.34779">
        <ele>158.6</ele>
        <time>2024-07-09T05:09:07Z</time>
      </trkpt>
      <trkpt lat="43.62382" lon="1.34779">
        <ele>158.8</ele>
        <time>2024-07-09T05:09:08Z</time>
      </trkpt>
      <trkpt lat="43.62377" lon="1.34779">
        <ele>158.8</ele>
        <time>2024-07-09T05:09:09Z</time>
      </trkpt>
      <trkpt lat="43.62371" lon="1.34779">
        <ele>158.8</ele>
        <time>2024-07-09T05:09:10Z</time>
      </trkpt>
      <trkpt lat="43.62366" lon="1.34779">
        <ele>158.8</ele>
        <time>2024-07-09T05:09:11Z</time>
      </trkpt>
      <trkpt lat="43.62361" lon="1.3478">
        <ele>158.8</ele>
        <time>2024-07-09T05:09:12Z</time>
      </trkpt>
      <trkpt lat="43.62356" lon="1.34781">
        <ele>158.8</ele>
        <time>2024-07-09T05:09:13Z</time>
      </trkpt>
      <trkpt lat="43.62351" lon="1.34782">
        <ele>158.8</ele>
        <time>2024-07-09T05:09:14Z</time>
      </trkpt>
      <trkpt lat="43.62346" lon="1.34783">
        <ele>158.8</ele>
        <time>2024-07-09T05:09:15Z</time>
      </trkpt>
      <trkpt lat="43.62341" lon="1.34786">
        <ele>158.8</ele>
        <time>2024-07-09T05:09:16Z</time>
      </trkpt>
      <trkpt lat="43.62336" lon="1.3479">
        <ele>158.8</ele>
        <time>2024-07-09T05:09:17Z</time>
      </trkpt>
      <trkpt lat="43.62331" lon="1.34793">
        <ele>158.6</ele>
        <time>2024-07-09T05:09:18Z</time>
      </trkpt>
      <trkpt lat="43.62327" lon="1.34797">
        <ele>158.6</ele>
        <time>2024-07-09T05:09:19Z</time>
      </trkpt>
      <trkpt lat="43.62322" lon="1.34801">
        <ele>158.4</ele>
        <time>2024-07-09T05:09:20Z</time>
      </trkpt>
      <trkpt lat="43.62318" lon="1.34805">
        <ele>158.4</ele>
        <time>2024-07-09T05:09:21Z</time>
      </trkpt>
      <trkpt lat="43.62313" lon="1.3481">
        <ele>158.2</ele>
        <time>2024-07-09T05:09:22Z</time>
      </trkpt>
      <trkpt lat="43.62309" lon="1.34815">
        <ele>158.2</ele>
        <time>2024-07-09T05:09:23Z</time>
      </trkpt>
      <trkpt lat="43.62304" lon="1.34819">
        <ele>158.2</ele>
        <time>2024-07-09T05:09:24Z</time>
      </trkpt>
      <trkpt lat="43.623" lon="1.34824">
        <ele>158.2</ele>
        <time>2024-07-09T05:09:25Z</time>
      </trkpt>
      <trkpt lat="43.62295" lon="1.34829">
        <ele>158</ele>
        <time>2024-07-09T05:09:26Z</time>
      </trkpt>
      <trkpt lat="43.62291" lon="1.34833">
        <ele>158</ele>
        <time>2024-07-09T05:09:27Z</time>
      </trkpt>
      <trkpt lat="43.62286" lon="1.34838">
        <ele>157.8</ele>
        <time>2024-07-09T05:09:28Z</time>
      </trkpt>
      <trkpt lat="43.62282" lon="1.34843">
        <ele>157.6</ele>
        <time>2024-07-09T05:09:29Z</time>
      </trkpt>
      <trkpt lat="43.62278" lon="1.34848">
        <ele>157.6</ele>
        <time>2024-07-09T05:09:30Z</time>
      </trkpt>
      <trkpt lat="43.62274" lon="1.34852">
        <ele>157.6</ele>
        <time>2024-07-09T05:09:31Z</time>
      </trkpt>
      <trkpt lat="43.6227" lon="1.34857">
        <ele>157.4</ele>
        <time>2024-07-09T05:09:32Z</time>
      </trkpt>
      <trkpt lat="43.62266" lon="1.34861">
        <ele>157.4</ele>
        <time>2024-07-09T05:09:33Z</time>
      </trkpt>
      <trkpt lat="43.62263" lon="1.34865">
        <ele>157.2</ele>
        <time>2024-07-09T05:09:34Z</time>
      </trkpt>
      <trkpt lat="43.6226" lon="1.3487">
        <ele>157</ele>
        <time>2024-07-09T05:09:35Z</time>
      </trkpt>
      <trkpt lat="43.62258" lon="1.34875">
        <ele>157</ele>
        <time>2024-07-09T05:09:36Z</time>
      </trkpt>
      <trkpt lat="43.62257" lon="1.34881">
        <ele>156.8</ele>
        <time>2024-07-09T05:09:37Z</time>
      </trkpt>
      <trkpt lat="43.62256" lon="1.34886">
        <ele>156.8</ele>
        <time>2024-07-09T05:09:38Z</time>
      </trkpt>
      <trkpt lat="43.62256" lon="1.34892">
        <ele>156.8</ele>
        <time>2024-07-09T05:09:39Z</time>
      </trkpt>
      <trkpt lat="43.62256" lon="1.34898">
        <ele>156.8</ele>
        <time>2024-07-09T05:09:40Z</time>
      </trkpt>
      <trkpt lat="43.62256" lon="1.34905">
        <ele>156.8</ele>
        <time>2024-07-09T05:09:41Z</time>
      </trkpt>
      <trkpt lat="43.62257" lon="1.34911">
        <ele>156.8</ele>
        <time>2024-07-09T05:09:42Z</time>
      </trkpt>
      <trkpt lat="43.62257" lon="1.34917">
        <ele>156.8</ele>
        <time>2024-07-09T05:09:43Z</time>
      </trkpt>
      <trkpt lat="43.62257" lon="1.34924">
        <ele>156.6</ele>
        <time>2024-07-09T05:09:44Z</time>
      </trkpt>
      <trkpt lat="43.62257" lon="1.3493">
        <ele>156.6</ele>
        <time>2024-07-09T05:09:45Z</time>
      </trkpt>
      <trkpt lat="43.62257" lon="1.34936">
        <ele>156.6</ele>
        <time>2024-07-09T05:09:46Z</time>
      </trkpt>
      <trkpt lat="43.62257" lon="1.34942">
        <ele>156.6</ele>
        <time>2024-07-09T05:09:47Z</time>
      </trkpt>
      <trkpt lat="43.62257" lon="1.34949">
        <ele>156.4</ele>
        <time>2024-07-09T05:09:48Z</time>
      </trkpt>
      <trkpt lat="43.62258" lon="1.34955">
        <ele>156.4</ele>
        <time>2024-07-09T05:09:49Z</time>
      </trkpt>
      <trkpt lat="43.62258" lon="1.34962">
        <ele>156.2</ele>
        <time>2024-07-09T05:09:50Z</time>
      </trkpt>
      <trkpt lat="43.62258" lon="1.34968">
        <ele>156.2</ele>
        <time>2024-07-09T05:09:51Z</time>
      </trkpt>
      <trkpt lat="43.62259" lon="1.34975">
        <ele>156.2</ele>
        <time>2024-07-09T05:09:52Z</time>
      </trkpt>
      <trkpt lat="43.62259" lon="1.34981">
        <ele>156.2</ele>
        <time>2024-07-09T05:09:53Z</time>
      </trkpt>
      <trkpt lat="43.62259" lon="1.34987">
        <ele>156.2</ele>
        <time>2024-07-09T05:09:54Z</time>
      </trkpt>
      <trkpt lat="43.62259" lon="1.34993">
        <ele>156.2</ele>
        <time>2024-07-09T05:09:55Z</time>
      </trkpt>
      <trkpt lat="43.6226" lon="1.35">
        <ele>156.2</ele>
        <time>2024-07-09T05:09:56Z</time>
      </trkpt>
      <trkpt lat="43.6226" lon="1.35006">
        <ele>156.2</ele>
        <time>2024-07-09T05:09:57Z</time>
      </trkpt>
      <trkpt lat="43.6226" lon="1.35012">
        <ele>156.2</ele>
        <time>2024-07-09T05:09:58Z</time>
      </trkpt>
      <trkpt lat="43.6226" lon="1.35018">
        <ele>156.2</ele>
        <time>2024-07-09T05:09:59Z</time>
      </trkpt>
      <trkpt lat="43.62261" lon="1.35024">
        <ele>156.2</ele>
        <time>2024-07-09T05:10:00Z</time>
      </trkpt>
      <trkpt lat="43.62261" lon="1.35031">
        <ele>156.2</ele>
        <time>2024-07-09T05:10:01Z</time>
      </trkpt>
      <trkpt lat="43.62261" lon="1.35037">
        <ele>156.2</ele>
        <time>2024-07-09T05:10:02Z</time>
      </trkpt>
      <trkpt lat="43.62261" lon="1.35044">
        <ele>156</ele>
        <time>2024-07-09T05:10:03Z</time>
      </trkpt>
      <trkpt lat="43.62261" lon="1.35051">
        <ele>156</ele>
        <time>2024-07-09T05:10:04Z</time>
      </trkpt>
      <trkpt lat="43.62261" lon="1.35057">
        <ele>156</ele>
        <time>2024-07-09T05:10:05Z</time>
      </trkpt>
      <trkpt lat="43.62261" lon="1.35064">
        <ele>156</ele>
        <time>2024-07-09T05:10:06Z</time>
      </trkpt>
      <trkpt lat="43.62262" lon="1.35071">
        <ele>156</ele>
        <time>2024-07-09T05:10:07Z</time>
      </trkpt>
      <trkpt lat="43.62262" lon="1.35078">
        <ele>156</ele>
        <time>2024-07-09T05:10:08Z</time>
      </trkpt>
      <trkpt lat="43.62262" lon="1.35085">
        <ele>156</ele>
        <time>2024-07-09T05:10:09Z</time>
      </trkpt>
      <trkpt lat="43.62262" lon="1.35091">
        <ele>156</ele>
        <time>2024-07-09T05:10:10Z</time>
      </trkpt>
      <trkpt lat="43.62262" lon="1.35097">
        <ele>156</ele>
        <time>2024-07-09T05:10:11Z</time>
      </trkpt>
      <trkpt lat="43.62262" lon="1.35103">
        <ele>156</ele>
        <time>2024-07-09T05:10:12Z</time>
      </trkpt>
      <trkpt lat="43.62263" lon="1.35109">
        <ele>156</ele>
        <time>2024-07-09T05:10:13Z</time>
      </trkpt>
      <trkpt lat="43.62263" lon="1.35115">
        <ele>156</ele>
        <time>2024-07-09T05:10:14Z</time>
      </trkpt>
      <trkpt lat="43.62263" lon="1.3512">
        <ele>156</ele>
        <time>2024-07-09T05:10:15Z</time>
      </trkpt>
      <trkpt lat="43.62264" lon="1.35125">
        <ele>156</ele>
        <time>2024-07-09T05:10:16Z</time>
      </trkpt>
      <trkpt lat="43.62264" lon="1.3513">
        <ele>156</ele>
        <time>2024-07-09T05:10:17Z</time>
      </trkpt>
      <trkpt lat="43.62264" lon="1.35135">
        <ele>156</ele>
        <time>2024-07-09T05:10:18Z</time>
      </trkpt>
      <trkpt lat="43.62265" lon="1.3514">
        <ele>156.2</ele>
        <time>2024-07-09T05:10:19Z</time>
      </trkpt>
      <trkpt lat="43.62266" lon="1.35144">
        <ele>156.2</ele>
        <time>2024-07-09T05:10:20Z</time>
      </trkpt>
      <trkpt lat="43.62267" lon="1.35149">
        <ele>156.2</ele>
        <time>2024-07-09T05:10:21Z</time>
      </trkpt>
      <trkpt lat="43.62268" lon="1.35152">
        <ele>156.2</ele>
        <time>2024-07-09T05:10:22Z</time>
      </trkpt>
      <trkpt lat="43.62269" lon="1.35153">
        <ele>156.2</ele>
        <time>2024-07-09T05:10:23Z</time>
      </trkpt>
      <trkpt lat="43.6227" lon="1.35153">
        <ele>156.2</ele>
        <time>2024-07-09T05:10:24Z</time>
      </trkpt>
      <trkpt lat="43.6227" lon="1.35153">
        <ele>156.2</ele>
        <time>2024-07-09T05:10:25Z</time>
      </trkpt>
      <trkpt lat="43.6227" lon="1.35153">
        <ele>156.2</ele>
        <time>2024-07-09T05:10:26Z</time>
      </trkpt>
      <trkpt lat="43.6227" lon="1.35153">
        <ele>156.2</ele>
        <time>2024-07-09T05:10:27Z</time>
      </trkpt>
      <trkpt lat="43.62185" lon="1.35108">
        <ele>145.6</ele>
        <time>2024-07-09T14:29:30Z</time>
      </trkpt>
      <trkpt lat="43.62188" lon="1.35109">
        <ele>145.4</ele>
        <time>2024-07-09T14:29:31Z</time>
      </trkpt>
      <trkpt lat="43.62257" lon="1.35159">
        <ele>144.8</ele>
        <time>2024-07-09T14:29:59Z</time>
      </trkpt>
      <trkpt lat="43.62257" lon="1.35162">
        <ele>144.8</ele>
        <time>2024-07-09T14:30:00Z</time>
      </trkpt>
      <trkpt lat="43.62257" lon="1.35165">
        <ele>144.8</ele>
        <time>2024-07-09T14:30:01Z</time>
      </trkpt>
      <trkpt lat="43.62255" lon="1.35169">
        <ele>144.8</ele>
        <time>2024-07-09T14:30:02Z</time>
      </trkpt>
      <trkpt lat="43.62253" lon="1.35172">
        <ele>144.8</ele>
        <time>2024-07-09T14:30:03Z</time>
      </trkpt>
      <trkpt lat="43.62249" lon="1.35175">
        <ele>144.8</ele>
        <time>2024-07-09T14:30:04Z</time>
      </trkpt>
      <trkpt lat="43.62244" lon="1.35177">
        <ele>144.8</ele>
        <time>2024-07-09T14:30:05Z</time>
      </trkpt>
      <trkpt lat="43.62239" lon="1.35177">
        <ele>144.8</ele>
        <time>2024-07-09T14:30:06Z</time>
      </trkpt>
      <trkpt lat="43.62234" lon="1.35176">
        <ele>144.8</ele>
        <time>2024-07-09T14:30:07Z</time>
      </trkpt>
      <trkpt lat="43.62229" lon="1.35174">
        <ele>144.6</ele>
        <time>2024-07-09T14:30:08Z</time>
      </trkpt>
      <trkpt lat="43.62224" lon="1.35171">
        <ele>144.6</ele>
        <time>2024-07-09T14:30:09Z</time>
      </trkpt>
      <trkpt lat="43.62219" lon="1.35168">
        <ele>144.6</ele>
        <time>2024-07-09T14:30:10Z</time>
      </trkpt>
      <trkpt lat="43.62215" lon="1.35164">
        <ele>144.8</ele>
        <time>2024-07-09T14:30:11Z</time>
      </trkpt>
      <trkpt lat="43.62211" lon="1.3516">
        <ele>144.8</ele>
        <time>2024-07-09T14:30:12Z</time>
      </trkpt>
      <trkpt lat="43.62206" lon="1.35155">
        <ele>144.8</ele>
        <time>2024-07-09T14:30:13Z</time>
      </trkpt>
      <trkpt lat="43.62202" lon="1.35154">
        <ele>144.8</ele>
        <time>2024-07-09T14:30:14Z</time>
      </trkpt>
      <trkpt lat="43.62196" lon="1.35153">
        <ele>144.8</ele>
        <time>2024-07-09T14:30:15Z</time>
      </trkpt>
      <trkpt lat="43.6219" lon="1.35153">
        <ele>145</ele>
        <time>2024-07-09T14:30:16Z</time>
      </trkpt>
      <trkpt lat="43.62185" lon="1.35155">
        <ele>145</ele>
        <time>2024-07-09T14:30:17Z</time>
      </trkpt>
      <trkpt lat="43.6218" lon="1.35157">
        <ele>145</ele>
        <time>2024-07-09T14:30:18Z</time>
      </trkpt>
      <trkpt lat="43.62175" lon="1.35159">
        <ele>145</ele>
        <time>2024-07-09T14:30:19Z</time>
      </trkpt>
      <trkpt lat="43.62169" lon="1.35162">
        <ele>145</ele>
        <time>2024-07-09T14:30:20Z</time>
      </trkpt>
      <trkpt lat="43.62164" lon="1.35165">
        <ele>145.2</ele>
        <time>2024-07-09T14:30:21Z</time>
      </trkpt>
      <trkpt lat="43.62158" lon="1.35167">
        <ele>145.2</ele>
        <time>2024-07-09T14:30:22Z</time>
      </trkpt>
      <trkpt lat="43.62154" lon="1.35168">
        <ele>145.2</ele>
        <time>2024-07-09T14:30:23Z</time>
      </trkpt>
      <trkpt lat="43.62152" lon="1.35168">
        <ele>145.2</ele>
        <time>2024-07-09T14:30:24Z</time>
      </trkpt>
      <trkpt lat="43.62151" lon="1.35168">
        <ele>145.2</ele>
        <time>2024-07-09T14:30:25Z</time>
      </trkpt>
      <trkpt lat="43.6215" lon="1.35167">
        <ele>145.2</ele>
        <time>2024-07-09T14:30:26Z</time>
      </trkpt>
      <trkpt lat="43.62149" lon="1.35166">
        <ele>145.2</ele>
        <time>2024-07-09T14:30:27Z</time>
      </trkpt>
      <trkpt lat="43.62149" lon="1.35165">
        <ele>145.4</ele>
        <time>2024-07-09T14:30:28Z</time>
      </trkpt>
      <trkpt lat="43.62148" lon="1.35162">
        <ele>145.4</ele>
        <time>2024-07-09T14:30:29Z</time>
      </trkpt>
      <trkpt lat="43.62147" lon="1.35158">
        <ele>145.4</ele>
        <time>2024-07-09T14:30:30Z</time>
      </trkpt>
      <trkpt lat="43.62146" lon="1.35154">
        <ele>145.4</ele>
        <time>2024-07-09T14:30:31Z</time>
      </trkpt>
      <trkpt lat="43.62145" lon="1.35149">
        <ele>145.6</ele>
        <time>2024-07-09T14:30:32Z</time>
      </trkpt>
      <trkpt lat="43.62144" lon="1.35143">
        <ele>145.6</ele>
        <time>2024-07-09T14:30:33Z</time>
      </trkpt>
      <trkpt lat="43.62142" lon="1.35138">
        <ele>145.6</ele>
        <time>2024-07-09T14:30:34Z</time>
      </trkpt>
      <trkpt lat="43.62141" lon="1.35132">
        <ele>145.6</ele>
        <time>2024-07-09T14:30:35Z</time>
      </trkpt>
      <trkpt lat="43.62139" lon="1.35125">
        <ele>145.8</ele>
        <time>2024-07-09T14:30:36Z</time>
      </trkpt>
      <trkpt lat="43.62139" lon="1.35118">
        <ele>145.8</ele>
        <time>2024-07-09T14:30:37Z</time>
      </trkpt>
      <trkpt lat="43.62137" lon="1.35112">
        <ele>145.8</ele>
        <time>2024-07-09T14:30:38Z</time>
      </trkpt>
      <trkpt lat="43.62136" lon="1.35106">
        <ele>145.8</ele>
        <time>2024-07-09T14:30:39Z</time>
      </trkpt>
      <trkpt lat="43.62135" lon="1.351">
        <ele>145.8</ele>
        <time>2024-07-09T14:30:40Z</time>
      </trkpt>
      <trkpt lat="43.62134" lon="1.35094">
        <ele>145.8</ele>
        <time>2024-07-09T14:30:41Z</time>
      </trkpt>
      <trkpt lat="43.62133" lon="1.35089">
        <ele>145.8</ele>
        <time>2024-07-09T14:30:42Z</time>
      </trkpt>
      <trkpt lat="43.62133" lon="1.35084">
        <ele>145.8</ele>
        <time>2024-07-09T14:30:43Z</time>
      </trkpt>
      <trkpt lat="43.62132" lon="1.35081">
        <ele>145.8</ele>
        <time>2024-07-09T14:30:44Z</time>
      </trkpt>
      <trkpt lat="43.62131" lon="1.35079">
        <ele>145.8</ele>
        <time>2024-07-09T14:30:45Z</time>
      </trkpt>
      <trkpt lat="43.62131" lon="1.35076">
        <ele>145.8</ele>
        <time>2024-07-09T14:30:46Z</time>
      </trkpt>
      <trkpt lat="43.62131" lon="1.35073">
        <ele>145.8</ele>
        <time>2024-07-09T14:30:47Z</time>
      </trkpt>
      <trkpt lat="43.62131" lon="1.3507">
        <ele>145.8</ele>
        <time>2024-07-09T14:30:48Z</time>
      </trkpt>
      <trkpt lat="43.62129" lon="1.35068">
        <ele>145.8</ele>
        <time>2024-07-09T14:30:49Z</time>
      </trkpt>
      <trkpt lat="43.62128" lon="1.35065">
        <ele>145.8</ele>
        <time>2024-07-09T14:30:50Z</time>
      </trkpt>
      <trkpt lat="43.62125" lon="1.35062">
        <ele>145.8</ele>
        <time>2024-07-09T14:30:51Z</time>
      </trkpt>
      <trkpt lat="43.62122" lon="1.3506">
        <ele>145.8</ele>
        <time>2024-07-09T14:30:52Z</time>
      </trkpt>
      <trkpt lat="43.62117" lon="1.35061">
        <ele>145.8</ele>
        <time>2024-07-09T14:30:53Z</time>
      </trkpt>
      <trkpt lat="43.62113" lon="1.35063">
        <ele>145.8</ele>
        <time>2024-07-09T14:30:54Z</time>
      </trkpt>
      <trkpt lat="43.62109" lon="1.35065">
        <ele>145.8</ele>
        <time>2024-07-09T14:30:55Z</time>
      </trkpt>
      <trkpt lat="43.62104" lon="1.35067">
        <ele>145.8</ele>
        <time>2024-07-09T14:30:56Z</time>
      </trkpt>
      <trkpt lat="43.62098" lon="1.35068">
        <ele>145.8</ele>
        <time>2024-07-09T14:30:57Z</time>
      </trkpt>
      <trkpt lat="43.62092" lon="1.35068">
        <ele>145.8</ele>
        <time>2024-07-09T14:30:58Z</time>
      </trkpt>
      <trkpt lat="43.62088" lon="1.35068">
        <ele>145.8</ele>
        <time>2024-07-09T14:30:59Z</time>
      </trkpt>
      <trkpt lat="43.62083" lon="1.35067">
        <ele>145.8</ele>
        <time>2024-07-09T14:31:00Z</time>
      </trkpt>
      <trkpt lat="43.62077" lon="1.35065">
        <ele>145.8</ele>
        <time>2024-07-09T14:31:01Z</time>
      </trkpt>
      <trkpt lat="43.62072" lon="1.35062">
        <ele>145.8</ele>
        <time>2024-07-09T14:31:02Z</time>
      </trkpt>
      <trkpt lat="43.62066" lon="1.3506">
        <ele>145.6</ele>
        <time>2024-07-09T14:31:03Z</time>
      </trkpt>
      <trkpt lat="43.62061" lon="1.35057">
        <ele>145.6</ele>
        <time>2024-07-09T14:31:04Z</time>
      </trkpt>
      <trkpt lat="43.62056" lon="1.35055">
        <ele>145.6</ele>
        <time>2024-07-09T14:31:05Z</time>
      </trkpt>
      <trkpt lat="43.6205" lon="1.35052">
        <ele>145.6</ele>
        <time>2024-07-09T14:31:06Z</time>
      </trkpt>
      <trkpt lat="43.62045" lon="1.3505">
        <ele>145.6</ele>
        <time>2024-07-09T14:31:07Z</time>
      </trkpt>
      <trkpt lat="43.6204" lon="1.35048">
        <ele>145.6</ele>
        <time>2024-07-09T14:31:08Z</time>
      </trkpt>
      <trkpt lat="43.62035" lon="1.35048">
        <ele>145.6</ele>
        <time>2024-07-09T14:31:09Z</time>
      </trkpt>
      <trkpt lat="43.62031" lon="1.35049">
        <ele>145.6</ele>
        <time>2024-07-09T14:31:10Z</time>
      </trkpt>
      <trkpt lat="43.62025" lon="1.35051">
        <ele>145.6</ele>
        <time>2024-07-09T14:31:11Z</time>
      </trkpt>
      <trkpt lat="43.62021" lon="1.35053">
        <ele>145.6</ele>
        <time>2024-07-09T14:31:12Z</time>
      </trkpt>
      <trkpt lat="43.62016" lon="1.35054">
        <ele>145.4</ele>
        <time>2024-07-09T14:31:13Z</time>
      </trkpt>
      <trkpt lat="43.62011" lon="1.35056">
        <ele>145.4</ele>
        <time>2024-07-09T14:31:14Z</time>
      </trkpt>
      <trkpt lat="43.62007" lon="1.35058">
        <ele>145.4</ele>
        <time>2024-07-09T14:31:15Z</time>
      </trkpt>
      <trkpt lat="43.62002" lon="1.35061">
        <ele>145.4</ele>
        <time>2024-07-09T14:31:16Z</time>
      </trkpt>
      <trkpt lat="43.61997" lon="1.35063">
        <ele>145.4</ele>
        <time>2024-07-09T14:31:17Z</time>
      </trkpt>
      <trkpt lat="43.61992" lon="1.35066">
        <ele>145.4</ele>
        <time>2024-07-09T14:31:18Z</time>
      </trkpt>
      <trkpt lat="43.61987" lon="1.35065">
        <ele>145.4</ele>
        <time>2024-07-09T14:31:19Z</time>
      </trkpt>
      <trkpt lat="43.61982" lon="1.35064">
        <ele>145.4</ele>
        <time>2024-07-09T14:31:20Z</time>
      </trkpt>
      <trkpt lat="43.61976" lon="1.35063">
        <ele>145.4</ele>
        <time>2024-07-09T14:31:21Z</time>
      </trkpt>
      <trkpt lat="43.6197" lon="1.35063">
        <ele>145.4</ele>
        <time>2024-07-09T14:31:22Z</time>
      </trkpt>
      <trkpt lat="43.61965" lon="1.35062">
        <ele>145.4</ele>
        <time>2024-07-09T14:31:23Z</time>
      </trkpt>
      <trkpt lat="43.6196" lon="1.35061">
        <ele>145.6</ele>
        <time>2024-07-09T14:31:24Z</time>
      </trkpt>
      <trkpt lat="43.61955" lon="1.3506">
        <ele>145.6</ele>
        <time>2024-07-09T14:31:25Z</time>
      </trkpt>
      <trkpt lat="43.61951" lon="1.35059">
        <ele>145.6</ele>
        <time>2024-07-09T14:31:26Z</time>
      </trkpt>
      <trkpt lat="43.61944" lon="1.35056">
        <ele>145.6</ele>
        <time>2024-07-09T14:31:27Z</time>
      </trkpt>
      <trkpt lat="43.6194" lon="1.35054">
        <ele>145.8</ele>
        <time>2024-07-09T14:31:28Z</time>
      </trkpt>
      <trkpt lat="43.61935" lon="1.3505">
        <ele>145.8</ele>
        <time>2024-07-09T14:31:29Z</time>
      </trkpt>
      <trkpt lat="43.6193" lon="1.35047">
        <ele>146</ele>
        <time>2024-07-09T14:31:30Z</time>
      </trkpt>
      <trkpt lat="43.61925" lon="1.35044">
        <ele>146</ele>
        <time>2024-07-09T14:31:31Z</time>
      </trkpt>
      <trkpt lat="43.6192" lon="1.35041">
        <ele>146</ele>
        <time>2024-07-09T14:31:32Z</time>
      </trkpt>
      <trkpt lat="43.61915" lon="1.35039">
        <ele>146.2</ele>
        <time>2024-07-09T14:31:33Z</time>
      </trkpt>
      <trkpt lat="43.61909" lon="1.35036">
        <ele>146.2</ele>
        <time>2024-07-09T14:31:34Z</time>
      </trkpt>
      <trkpt lat="43.61903" lon="1.35034">
        <ele>146.2</ele>
        <time>2024-07-09T14:31:35Z</time>
      </trkpt>
      <trkpt lat="43.61896" lon="1.35031">
        <ele>146.2</ele>
        <time>2024-07-09T14:31:36Z</time>
      </trkpt>
      <trkpt lat="43.6189" lon="1.35029">
        <ele>146.2</ele>
        <time>2024-07-09T14:31:37Z</time>
      </trkpt>
      <trkpt lat="43.61884" lon="1.35027">
        <ele>146.2</ele>
        <time>2024-07-09T14:31:38Z</time>
      </trkpt>
      <trkpt lat="43.61879" lon="1.35024">
        <ele>146.2</ele>
        <time>2024-07-09T14:31:39Z</time>
      </trkpt>
      <trkpt lat="43.61873" lon="1.35022">
        <ele>146.4</ele>
        <time>2024-07-09T14:31:40Z</time>
      </trkpt>
      <trkpt lat="43.61867" lon="1.35021">
        <ele>146.4</ele>
        <time>2024-07-09T14:31:41Z</time>
      </trkpt>
      <trkpt lat="43.61861" lon="1.35019">
        <ele>146.4</ele>
        <time>2024-07-09T14:31:42Z</time>
      </trkpt>
      <trkpt lat="43.61855" lon="1.35017">
        <ele>146.4</ele>
        <time>2024-07-09T14:31:43Z</time>
      </trkpt>
      <trkpt lat="43.61849" lon="1.35016">
        <ele>146.4</ele>
        <time>2024-07-09T14:31:44Z</time>
      </trkpt>
      <trkpt lat="43.61841" lon="1.35014">
        <ele>146.4</ele>
        <time>2024-07-09T14:31:45Z</time>
      </trkpt>
      <trkpt lat="43.61836" lon="1.35012">
        <ele>146.4</ele>
        <time>2024-07-09T14:31:46Z</time>
      </trkpt>
      <trkpt lat="43.6183" lon="1.35011">
        <ele>146.4</ele>
        <time>2024-07-09T14:31:47Z</time>
      </trkpt>
      <trkpt lat="43.61824" lon="1.35009">
        <ele>146.2</ele>
        <time>2024-07-09T14:31:48Z</time>
      </trkpt>
      <trkpt lat="43.61818" lon="1.35007">
        <ele>146.2</ele>
        <time>2024-07-09T14:31:49Z</time>
      </trkpt>
      <trkpt lat="43.61812" lon="1.35005">
        <ele>146</ele>
        <time>2024-07-09T14:31:50Z</time>
      </trkpt>
      <trkpt lat="43.61807" lon="1.35003">
        <ele>146.2</ele>
        <time>2024-07-09T14:31:51Z</time>
      </trkpt>
      <trkpt lat="43.61801" lon="1.35002">
        <ele>146.2</ele>
        <time>2024-07-09T14:31:52Z</time>
      </trkpt>
      <trkpt lat="43.61795" lon="1.35001">
        <ele>146.2</ele>
        <time>2024-07-09T14:31:53Z</time>
      </trkpt>
      <trkpt lat="43.6179" lon="1.35002">
        <ele>146.2</ele>
        <time>2024-07-09T14:31:54Z</time>
      </trkpt>
      <trkpt lat="43.61785" lon="1.35005">
        <ele>146.2</ele>
        <time>2024-07-09T14:31:55Z</time>
      </trkpt>
      <trkpt lat="43.61781" lon="1.3501">
        <ele>146.2</ele>
        <time>2024-07-09T14:31:56Z</time>
      </trkpt>
      <trkpt lat="43.61777" lon="1.35017">
        <ele>146.2</ele>
        <time>2024-07-09T14:31:57Z</time>
      </trkpt>
      <trkpt lat="43.61774" lon="1.35024">
        <ele>146.2</ele>
        <time>2024-07-09T14:31:58Z</time>
      </trkpt>
      <trkpt lat="43.61772" lon="1.35033">
        <ele>146.2</ele>
        <time>2024-07-09T14:31:59Z</time>
      </trkpt>
      <trkpt lat="43.61771" lon="1.35041">
        <ele>146.4</ele>
        <time>2024-07-09T14:32:00Z</time>
      </trkpt>
      <trkpt lat="43.61769" lon="1.35049">
        <ele>146.4</ele>
        <time>2024-07-09T14:32:01Z</time>
      </trkpt>
      <trkpt lat="43.61768" lon="1.35056">
        <ele>146.4</ele>
        <time>2024-07-09T14:32:02Z</time>
      </trkpt>
      <trkpt lat="43.61767" lon="1.35064">
        <ele>146.4</ele>
        <time>2024-07-09T14:32:03Z</time>
      </trkpt>
      <trkpt lat="43.61766" lon="1.35075">
        <ele>146.6</ele>
        <time>2024-07-09T14:32:04Z</time>
      </trkpt>
      <trkpt lat="43.61764" lon="1.35083">
        <ele>146.6</ele>
        <time>2024-07-09T14:32:05Z</time>
      </trkpt>
      <trkpt lat="43.61763" lon="1.35091">
        <ele>146.6</ele>
        <time>2024-07-09T14:32:06Z</time>
      </trkpt>
      <trkpt lat="43.61762" lon="1.35098">
        <ele>146.6</ele>
        <time>2024-07-09T14:32:07Z</time>
      </trkpt>
      <trkpt lat="43.61761" lon="1.35106">
        <ele>146.8</ele>
        <time>2024-07-09T14:32:08Z</time>
      </trkpt>
      <trkpt lat="43.6176" lon="1.35115">
        <ele>146.8</ele>
        <time>2024-07-09T14:32:09Z</time>
      </trkpt>
      <trkpt lat="43.61758" lon="1.35125">
        <ele>147</ele>
        <time>2024-07-09T14:32:10Z</time>
      </trkpt>
      <trkpt lat="43.61757" lon="1.35133">
        <ele>147</ele>
        <time>2024-07-09T14:32:11Z</time>
      </trkpt>
      <trkpt lat="43.61755" lon="1.35139">
        <ele>147</ele>
        <time>2024-07-09T14:32:12Z</time>
      </trkpt>
      <trkpt lat="43.61752" lon="1.35147">
        <ele>147.2</ele>
        <time>2024-07-09T14:32:13Z</time>
      </trkpt>
      <trkpt lat="43.61748" lon="1.35154">
        <ele>147.2</ele>
        <time>2024-07-09T14:32:14Z</time>
      </trkpt>
      <trkpt lat="43.61741" lon="1.3516">
        <ele>147.4</ele>
        <time>2024-07-09T14:32:15Z</time>
      </trkpt>
      <trkpt lat="43.61736" lon="1.35163">
        <ele>147.4</ele>
        <time>2024-07-09T14:32:16Z</time>
      </trkpt>
      <trkpt lat="43.6173" lon="1.35165">
        <ele>147.4</ele>
        <time>2024-07-09T14:32:17Z</time>
      </trkpt>
      <trkpt lat="43.61723" lon="1.35166">
        <ele>147.4</ele>
        <time>2024-07-09T14:32:18Z</time>
      </trkpt>
      <trkpt lat="43.61716" lon="1.35165">
        <ele>147.4</ele>
        <time>2024-07-09T14:32:19Z</time>
      </trkpt>
      <trkpt lat="43.61708" lon="1.35165">
        <ele>147.2</ele>
        <time>2024-07-09T14:32:20Z</time>
      </trkpt>
      <trkpt lat="43.61702" lon="1.35165">
        <ele>146.8</ele>
        <time>2024-07-09T14:32:21Z</time>
      </trkpt>
      <trkpt lat="43.61696" lon="1.35164">
        <ele>146.8</ele>
        <time>2024-07-09T14:32:22Z</time>
      </trkpt>
      <trkpt lat="43.61689" lon="1.35164">
        <ele>146.8</ele>
        <time>2024-07-09T14:32:23Z</time>
      </trkpt>
      <trkpt lat="43.61684" lon="1.35163">
        <ele>146.6</ele>
        <time>2024-07-09T14:32:24Z</time>
      </trkpt>
      <trkpt lat="43.61678" lon="1.35165">
        <ele>146.6</ele>
        <time>2024-07-09T14:32:25Z</time>
      </trkpt>
      <trkpt lat="43.61672" lon="1.35168">
        <ele>146.6</ele>
        <time>2024-07-09T14:32:26Z</time>
      </trkpt>
      <trkpt lat="43.61668" lon="1.35173">
        <ele>146.6</ele>
        <time>2024-07-09T14:32:27Z</time>
      </trkpt>
      <trkpt lat="43.61666" lon="1.3518">
        <ele>146.4</ele>
        <time>2024-07-09T14:32:28Z</time>
      </trkpt>
      <trkpt lat="43.61664" lon="1.35187">
        <ele>146.4</ele>
        <time>2024-07-09T14:32:29Z</time>
      </trkpt>
      <trkpt lat="43.61663" lon="1.35195">
        <ele>146.4</ele>
        <time>2024-07-09T14:32:30Z</time>
      </trkpt>
      <trkpt lat="43.61662" lon="1.35203">
        <ele>146.4</ele>
        <time>2024-07-09T14:32:31Z</time>
      </trkpt>
      <trkpt lat="43.61661" lon="1.35211">
        <ele>146.4</ele>
        <time>2024-07-09T14:32:32Z</time>
      </trkpt>
      <trkpt lat="43.61659" lon="1.35219">
        <ele>146.4</ele>
        <time>2024-07-09T14:32:33Z</time>
      </trkpt>
      <trkpt lat="43.61658" lon="1.35227">
        <ele>146.4</ele>
        <time>2024-07-09T14:32:34Z</time>
      </trkpt>
      <trkpt lat="43.61657" lon="1.35235">
        <ele>146.4</ele>
        <time>2024-07-09T14:32:35Z</time>
      </trkpt>
      <trkpt lat="43.61656" lon="1.35243">
        <ele>146.4</ele>
        <time>2024-07-09T14:32:36Z</time>
      </trkpt>
      <trkpt lat="43.61654" lon="1.35252">
        <ele>146.4</ele>
        <time>2024-07-09T14:32:37Z</time>
      </trkpt>
      <trkpt lat="43.61653" lon="1.3526">
        <ele>146.4</ele>
        <time>2024-07-09T14:32:38Z</time>
      </trkpt>
      <trkpt lat="43.61652" lon="1.35268">
        <ele>146.4</ele>
        <time>2024-07-09T14:32:39Z</time>
      </trkpt>
      <trkpt lat="43.61651" lon="1.35277">
        <ele>146.4</ele>
        <time>2024-07-09T14:32:40Z</time>
      </trkpt>
      <trkpt lat="43.6165" lon="1.35285">
        <ele>146.4</ele>
        <time>2024-07-09T14:32:41Z</time>
      </trkpt>
      <trkpt lat="43.61649" lon="1.35294">
        <ele>146.4</ele>
        <time>2024-07-09T14:32:42Z</time>
      </trkpt>
      <trkpt lat="43.61648" lon="1.35302">
        <ele>146.4</ele>
        <time>2024-07-09T14:32:43Z</time>
      </trkpt>
      <trkpt lat="43.61646" lon="1.35311">
        <ele>146.4</ele>
        <time>2024-07-09T14:32:44Z</time>
      </trkpt>
      <trkpt lat="43.61645" lon="1.3532">
        <ele>146.4</ele>
        <time>2024-07-09T14:32:45Z</time>
      </trkpt>
      <trkpt lat="43.61643" lon="1.35328">
        <ele>146.6</ele>
        <time>2024-07-09T14:32:46Z</time>
      </trkpt>
      <trkpt lat="43.6164" lon="1.35335">
        <ele>146.6</ele>
        <time>2024-07-09T14:32:47Z</time>
      </trkpt>
      <trkpt lat="43.61636" lon="1.35341">
        <ele>146.6</ele>
        <time>2024-07-09T14:32:48Z</time>
      </trkpt>
      <trkpt lat="43.61632" lon="1.35348">
        <ele>146.6</ele>
        <time>2024-07-09T14:32:49Z</time>
      </trkpt>
      <trkpt lat="43.6163" lon="1.35356">
        <ele>146.6</ele>
        <time>2024-07-09T14:32:50Z</time>
      </trkpt>
      <trkpt lat="43.6163" lon="1.35365">
        <ele>146.6</ele>
        <time>2024-07-09T14:32:51Z</time>
      </trkpt>
      <trkpt lat="43.6163" lon="1.35373">
        <ele>146.6</ele>
        <time>2024-07-09T14:32:52Z</time>
      </trkpt>
      <trkpt lat="43.61629" lon="1.35382">
        <ele>146.4</ele>
        <time>2024-07-09T14:32:53Z</time>
      </trkpt>
      <trkpt lat="43.61628" lon="1.35391">
        <ele>146.4</ele>
        <time>2024-07-09T14:32:54Z</time>
      </trkpt>
      <trkpt lat="43.61626" lon="1.354">
        <ele>146.4</ele>
        <time>2024-07-09T14:32:55Z</time>
      </trkpt>
      <trkpt lat="43.61624" lon="1.35408">
        <ele>146.4</ele>
        <time>2024-07-09T14:32:56Z</time>
      </trkpt>
      <trkpt lat="43.61621" lon="1.35417">
        <ele>146.2</ele>
        <time>2024-07-09T14:32:57Z</time>
      </trkpt>
      <trkpt lat="43.61619" lon="1.35425">
        <ele>146.2</ele>
        <time>2024-07-09T14:32:58Z</time>
      </trkpt>
      <trkpt lat="43.61617" lon="1.35433">
        <ele>146.2</ele>
        <time>2024-07-09T14:32:59Z</time>
      </trkpt>
      <trkpt lat="43.61614" lon="1.35442">
        <ele>146</ele>
        <time>2024-07-09T14:33:00Z</time>
      </trkpt>
      <trkpt lat="43.61612" lon="1.3545">
        <ele>146</ele>
        <time>2024-07-09T14:33:01Z</time>
      </trkpt>
      <trkpt lat="43.6161" lon="1.35459">
        <ele>146</ele>
        <time>2024-07-09T14:33:02Z</time>
      </trkpt>
      <trkpt lat="43.61607" lon="1.35468">
        <ele>146</ele>
        <time>2024-07-09T14:33:03Z</time>
      </trkpt>
      <trkpt lat="43.61605" lon="1.35477">
        <ele>146</ele>
        <time>2024-07-09T14:33:04Z</time>
      </trkpt>
      <trkpt lat="43.61602" lon="1.35485">
        <ele>146.2</ele>
        <time>2024-07-09T14:33:05Z</time>
      </trkpt>
      <trkpt lat="43.61599" lon="1.35493">
        <ele>146.2</ele>
        <time>2024-07-09T14:33:06Z</time>
      </trkpt>
      <trkpt lat="43.61597" lon="1.35501">
        <ele>146.2</ele>
        <time>2024-07-09T14:33:07Z</time>
      </trkpt>
      <trkpt lat="43.61595" lon="1.35509">
        <ele>146.2</ele>
        <time>2024-07-09T14:33:08Z</time>
      </trkpt>
      <trkpt lat="43.61592" lon="1.35517">
        <ele>146.2</ele>
        <time>2024-07-09T14:33:09Z</time>
      </trkpt>
      <trkpt lat="43.6159" lon="1.35526">
        <ele>146</ele>
        <time>2024-07-09T14:33:10Z</time>
      </trkpt>
      <trkpt lat="43.61588" lon="1.35534">
        <ele>145.8</ele>
        <time>2024-07-09T14:33:11Z</time>
      </trkpt>
      <trkpt lat="43.61586" lon="1.35542">
        <ele>146</ele>
        <time>2024-07-09T14:33:12Z</time>
      </trkpt>
      <trkpt lat="43.61584" lon="1.35551">
        <ele>146</ele>
        <time>2024-07-09T14:33:13Z</time>
      </trkpt>
      <trkpt lat="43.61582" lon="1.35559">
        <ele>146</ele>
        <time>2024-07-09T14:33:14Z</time>
      </trkpt>
      <trkpt lat="43.6158" lon="1.35567">
        <ele>146</ele>
        <time>2024-07-09T14:33:15Z</time>
      </trkpt>
      <trkpt lat="43.6158" lon="1.35567">
        <ele>146</ele>
        <time>2024-07-09T14:33:16Z</time>
      </trkpt>
      <trkpt lat="43.61574" lon="1.35582">
        <ele>145.8</ele>
        <time>2024-07-09T14:33:17Z</time>
      </trkpt>
      <trkpt lat="43.61571" lon="1.3559">
        <ele>145.6</ele>
        <time>2024-07-09T14:33:18Z</time>
      </trkpt>
      <trkpt lat="43.61568" lon="1.35597">
        <ele>145.8</ele>
        <time>2024-07-09T14:33:19Z</time>
      </trkpt>
      <trkpt lat="43.61565" lon="1.35604">
        <ele>145.8</ele>
        <time>2024-07-09T14:33:20Z</time>
      </trkpt>
      <trkpt lat="43.61561" lon="1.35611">
        <ele>145.6</ele>
        <time>2024-07-09T14:33:21Z</time>
      </trkpt>
      <trkpt lat="43.61558" lon="1.35618">
        <ele>145.6</ele>
        <time>2024-07-09T14:33:22Z</time>
      </trkpt>
      <trkpt lat="43.61554" lon="1.35625">
        <ele>145.6</ele>
        <time>2024-07-09T14:33:23Z</time>
      </trkpt>
      <trkpt lat="43.61549" lon="1.35632">
        <ele>145.6</ele>
        <time>2024-07-09T14:33:24Z</time>
      </trkpt>
      <trkpt lat="43.61545" lon="1.35639">
        <ele>145.6</ele>
        <time>2024-07-09T14:33:25Z</time>
      </trkpt>
      <trkpt lat="43.61541" lon="1.35645">
        <ele>145.6</ele>
        <time>2024-07-09T14:33:26Z</time>
      </trkpt>
      <trkpt lat="43.61537" lon="1.3565">
        <ele>145.6</ele>
        <time>2024-07-09T14:33:27Z</time>
      </trkpt>
      <trkpt lat="43.61532" lon="1.35656">
        <ele>145.6</ele>
        <time>2024-07-09T14:33:28Z</time>
      </trkpt>
      <trkpt lat="43.61527" lon="1.35662">
        <ele>145.6</ele>
        <time>2024-07-09T14:33:29Z</time>
      </trkpt>
      <trkpt lat="43.61523" lon="1.35667">
        <ele>145.6</ele>
        <time>2024-07-09T14:33:30Z</time>
      </trkpt>
      <trkpt lat="43.61518" lon="1.35671">
        <ele>145.8</ele>
        <time>2024-07-09T14:33:31Z</time>
      </trkpt>
      <trkpt lat="43.61512" lon="1.35677">
        <ele>145.8</ele>
        <time>2024-07-09T14:33:32Z</time>
      </trkpt>
      <trkpt lat="43.61508" lon="1.35681">
        <ele>145.8</ele>
        <time>2024-07-09T14:33:33Z</time>
      </trkpt>
      <trkpt lat="43.61503" lon="1.35686">
        <ele>145.8</ele>
        <time>2024-07-09T14:33:34Z</time>
      </trkpt>
      <trkpt lat="43.61498" lon="1.3569">
        <ele>146</ele>
        <time>2024-07-09T14:33:35Z</time>
      </trkpt>
      <trkpt lat="43.61493" lon="1.35692">
        <ele>146</ele>
        <time>2024-07-09T14:33:36Z</time>
      </trkpt>
      <trkpt lat="43.61487" lon="1.35691">
        <ele>146</ele>
        <time>2024-07-09T14:33:37Z</time>
      </trkpt>
      <trkpt lat="43.61481" lon="1.3569">
        <ele>146</ele>
        <time>2024-07-09T14:33:38Z</time>
      </trkpt>
      <trkpt lat="43.61475" lon="1.35691">
        <ele>146</ele>
        <time>2024-07-09T14:33:39Z</time>
      </trkpt>
      <trkpt lat="43.61469" lon="1.35695">
        <ele>146</ele>
        <time>2024-07-09T14:33:40Z</time>
      </trkpt>
      <trkpt lat="43.61465" lon="1.35701">
        <ele>146</ele>
        <time>2024-07-09T14:33:41Z</time>
      </trkpt>
      <trkpt lat="43.61463" lon="1.35708">
        <ele>146</ele>
        <time>2024-07-09T14:33:42Z</time>
      </trkpt>
      <trkpt lat="43.61461" lon="1.35716">
        <ele>146</ele>
        <time>2024-07-09T14:33:43Z</time>
      </trkpt>
      <trkpt lat="43.61458" lon="1.35722">
        <ele>146</ele>
        <time>2024-07-09T14:33:44Z</time>
      </trkpt>
      <trkpt lat="43.61454" lon="1.35727">
        <ele>146</ele>
        <time>2024-07-09T14:33:45Z</time>
      </trkpt>
      <trkpt lat="43.61449" lon="1.35732">
        <ele>146.2</ele>
        <time>2024-07-09T14:33:46Z</time>
      </trkpt>
      <trkpt lat="43.61444" lon="1.35736">
        <ele>146.2</ele>
        <time>2024-07-09T14:33:47Z</time>
      </trkpt>
      <trkpt lat="43.61438" lon="1.35738">
        <ele>146.4</ele>
        <time>2024-07-09T14:33:48Z</time>
      </trkpt>
      <trkpt lat="43.61432" lon="1.3574">
        <ele>146.4</ele>
        <time>2024-07-09T14:33:49Z</time>
      </trkpt>
      <trkpt lat="43.61426" lon="1.3574">
        <ele>146.4</ele>
        <time>2024-07-09T14:33:50Z</time>
      </trkpt>
      <trkpt lat="43.6142" lon="1.35739">
        <ele>146.4</ele>
        <time>2024-07-09T14:33:51Z</time>
      </trkpt>
      <trkpt lat="43.61414" lon="1.35738">
        <ele>146.4</ele>
        <time>2024-07-09T14:33:52Z</time>
      </trkpt>
      <trkpt lat="43.61408" lon="1.35738">
        <ele>146.4</ele>
        <time>2024-07-09T14:33:53Z</time>
      </trkpt>
      <trkpt lat="43.61402" lon="1.35738">
        <ele>146.4</ele>
        <time>2024-07-09T14:33:54Z</time>
      </trkpt>
      <trkpt lat="43.61395" lon="1.35737">
        <ele>146.4</ele>
        <time>2024-07-09T14:33:55Z</time>
      </trkpt>
      <trkpt lat="43.61389" lon="1.35735">
        <ele>146.4</ele>
        <time>2024-07-09T14:33:56Z</time>
      </trkpt>
      <trkpt lat="43.61384" lon="1.35731">
        <ele>146.4</ele>
        <time>2024-07-09T14:33:57Z</time>
      </trkpt>
      <trkpt lat="43.61379" lon="1.35725">
        <ele>146.4</ele>
        <time>2024-07-09T14:33:58Z</time>
      </trkpt>
      <trkpt lat="43.61376" lon="1.35715">
        <ele>146.4</ele>
        <time>2024-07-09T14:33:59Z</time>
      </trkpt>
      <trkpt lat="43.61374" lon="1.35709">
        <ele>146.4</ele>
        <time>2024-07-09T14:34:00Z</time>
      </trkpt>
      <trkpt lat="43.61373" lon="1.357">
        <ele>146.4</ele>
        <time>2024-07-09T14:34:01Z</time>
      </trkpt>
      <trkpt lat="43.61371" lon="1.35691">
        <ele>146.4</ele>
        <time>2024-07-09T14:34:02Z</time>
      </trkpt>
      <trkpt lat="43.6137" lon="1.35683">
        <ele>146.4</ele>
        <time>2024-07-09T14:34:03Z</time>
      </trkpt>
      <trkpt lat="43.61368" lon="1.35674">
        <ele>146.4</ele>
        <time>2024-07-09T14:34:04Z</time>
      </trkpt>
      <trkpt lat="43.61366" lon="1.35665">
        <ele>146.4</ele>
        <time>2024-07-09T14:34:05Z</time>
      </trkpt>
      <trkpt lat="43.61364" lon="1.35656">
        <ele>146.4</ele>
        <time>2024-07-09T14:34:06Z</time>
      </trkpt>
      <trkpt lat="43.61362" lon="1.35647">
        <ele>146.4</ele>
        <time>2024-07-09T14:34:07Z</time>
      </trkpt>
      <trkpt lat="43.61361" lon="1.35639">
        <ele>146.4</ele>
        <time>2024-07-09T14:34:08Z</time>
      </trkpt>
      <trkpt lat="43.61358" lon="1.3563">
        <ele>146.4</ele>
        <time>2024-07-09T14:34:09Z</time>
      </trkpt>
      <trkpt lat="43.61354" lon="1.35623">
        <ele>146.4</ele>
        <time>2024-07-09T14:34:10Z</time>
      </trkpt>
      <trkpt lat="43.61349" lon="1.35617">
        <ele>146.2</ele>
        <time>2024-07-09T14:34:11Z</time>
      </trkpt>
      <trkpt lat="43.61344" lon="1.35613">
        <ele>146.2</ele>
        <time>2024-07-09T14:34:12Z</time>
      </trkpt>
      <trkpt lat="43.61337" lon="1.35612">
        <ele>146.2</ele>
        <time>2024-07-09T14:34:13Z</time>
      </trkpt>
      <trkpt lat="43.61331" lon="1.35611">
        <ele>146.2</ele>
        <time>2024-07-09T14:34:14Z</time>
      </trkpt>
      <trkpt lat="43.61324" lon="1.35611">
        <ele>146.2</ele>
        <time>2024-07-09T14:34:15Z</time>
      </trkpt>
      <trkpt lat="43.61318" lon="1.35611">
        <ele>146.2</ele>
        <time>2024-07-09T14:34:16Z</time>
      </trkpt>
      <trkpt lat="43.61311" lon="1.3561">
        <ele>146.2</ele>
        <time>2024-07-09T14:34:17Z</time>
      </trkpt>
      <trkpt lat="43.61304" lon="1.35611">
        <ele>146.2</ele>
        <time>2024-07-09T14:34:18Z</time>
      </trkpt>
      <trkpt lat="43.61298" lon="1.35611">
        <ele>146.2</ele>
        <time>2024-07-09T14:34:19Z</time>
      </trkpt>
      <trkpt lat="43.61291" lon="1.35613">
        <ele>146.2</ele>
        <time>2024-07-09T14:34:20Z</time>
      </trkpt>
      <trkpt lat="43.61285" lon="1.35615">
        <ele>146</ele>
        <time>2024-07-09T14:34:21Z</time>
      </trkpt>
      <trkpt lat="43.61279" lon="1.35617">
        <ele>146</ele>
        <time>2024-07-09T14:34:22Z</time>
      </trkpt>
      <trkpt lat="43.61273" lon="1.35618">
        <ele>146</ele>
        <time>2024-07-09T14:34:23Z</time>
      </trkpt>
      <trkpt lat="43.61267" lon="1.35619">
        <ele>146</ele>
        <time>2024-07-09T14:34:24Z</time>
      </trkpt>
      <trkpt lat="43.61261" lon="1.3562">
        <ele>146</ele>
        <time>2024-07-09T14:34:25Z</time>
      </trkpt>
      <trkpt lat="43.61255" lon="1.3562">
        <ele>146</ele>
        <time>2024-07-09T14:34:26Z</time>
      </trkpt>
      <trkpt lat="43.61249" lon="1.3562">
        <ele>146</ele>
        <time>2024-07-09T14:34:27Z</time>
      </trkpt>
      <trkpt lat="43.61242" lon="1.35619">
        <ele>146.2</ele>
        <time>2024-07-09T14:34:28Z</time>
      </trkpt>
      <trkpt lat="43.61236" lon="1.35619">
        <ele>146.2</ele>
        <time>2024-07-09T14:34:29Z</time>
      </trkpt>
      <trkpt lat="43.61229" lon="1.35618">
        <ele>146.2</ele>
        <time>2024-07-09T14:34:30Z</time>
      </trkpt>
      <trkpt lat="43.61222" lon="1.35618">
        <ele>146.4</ele>
        <time>2024-07-09T14:34:31Z</time>
      </trkpt>
      <trkpt lat="43.61216" lon="1.35618">
        <ele>146.4</ele>
        <time>2024-07-09T14:34:32Z</time>
      </trkpt>
      <trkpt lat="43.61209" lon="1.35618">
        <ele>146.4</ele>
        <time>2024-07-09T14:34:33Z</time>
      </trkpt>
      <trkpt lat="43.61202" lon="1.35618">
        <ele>146.4</ele>
        <time>2024-07-09T14:34:34Z</time>
      </trkpt>
      <trkpt lat="43.61196" lon="1.35617">
        <ele>146.4</ele>
        <time>2024-07-09T14:34:35Z</time>
      </trkpt>
      <trkpt lat="43.61189" lon="1.35617">
        <ele>146.4</ele>
        <time>2024-07-09T14:34:36Z</time>
      </trkpt>
      <trkpt lat="43.61183" lon="1.35617">
        <ele>146.4</ele>
        <time>2024-07-09T14:34:37Z</time>
      </trkpt>
      <trkpt lat="43.61176" lon="1.35616">
        <ele>146.4</ele>
        <time>2024-07-09T14:34:38Z</time>
      </trkpt>
      <trkpt lat="43.6117" lon="1.35615">
        <ele>146.4</ele>
        <time>2024-07-09T14:34:39Z</time>
      </trkpt>
      <trkpt lat="43.61164" lon="1.35615">
        <ele>146.4</ele>
        <time>2024-07-09T14:34:40Z</time>
      </trkpt>
      <trkpt lat="43.61157" lon="1.35614">
        <ele>146.4</ele>
        <time>2024-07-09T14:34:41Z</time>
      </trkpt>
      <trkpt lat="43.61151" lon="1.35614">
        <ele>146.4</ele>
        <time>2024-07-09T14:34:42Z</time>
      </trkpt>
      <trkpt lat="43.61144" lon="1.35613">
        <ele>146.4</ele>
        <time>2024-07-09T14:34:43Z</time>
      </trkpt>
      <trkpt lat="43.61138" lon="1.35613">
        <ele>146.4</ele>
        <time>2024-07-09T14:34:44Z</time>
      </trkpt>
      <trkpt lat="43.61131" lon="1.35612">
        <ele>146.4</ele>
        <time>2024-07-09T14:34:45Z</time>
      </trkpt>
      <trkpt lat="43.61123" lon="1.35612">
        <ele>146.4</ele>
        <time>2024-07-09T14:34:46Z</time>
      </trkpt>
      <trkpt lat="43.61116" lon="1.35611">
        <ele>146.4</ele>
        <time>2024-07-09T14:34:47Z</time>
      </trkpt>
      <trkpt lat="43.61109" lon="1.35611">
        <ele>146.4</ele>
        <time>2024-07-09T14:34:48Z</time>
      </trkpt>
      <trkpt lat="43.61102" lon="1.3561">
        <ele>146.4</ele>
        <time>2024-07-09T14:34:49Z</time>
      </trkpt>
      <trkpt lat="43.61096" lon="1.3561">
        <ele>146.4</ele>
        <time>2024-07-09T14:34:50Z</time>
      </trkpt>
      <trkpt lat="43.61089" lon="1.3561">
        <ele>146.4</ele>
        <time>2024-07-09T14:34:51Z</time>
      </trkpt>
      <trkpt lat="43.61083" lon="1.35609">
        <ele>146.4</ele>
        <time>2024-07-09T14:34:52Z</time>
      </trkpt>
      <trkpt lat="43.61078" lon="1.35609">
        <ele>146.4</ele>
        <time>2024-07-09T14:34:53Z</time>
      </trkpt>
      <trkpt lat="43.6107" lon="1.35608">
        <ele>146.2</ele>
        <time>2024-07-09T14:34:54Z</time>
      </trkpt>
      <trkpt lat="43.61064" lon="1.35608">
        <ele>146.2</ele>
        <time>2024-07-09T14:34:55Z</time>
      </trkpt>
      <trkpt lat="43.61057" lon="1.35607">
        <ele>146.2</ele>
        <time>2024-07-09T14:34:56Z</time>
      </trkpt>
      <trkpt lat="43.61051" lon="1.35607">
        <ele>146.2</ele>
        <time>2024-07-09T14:34:57Z</time>
      </trkpt>
      <trkpt lat="43.61046" lon="1.35607">
        <ele>146.2</ele>
        <time>2024-07-09T14:34:58Z</time>
      </trkpt>
      <trkpt lat="43.61038" lon="1.35606">
        <ele>146.2</ele>
        <time>2024-07-09T14:34:59Z</time>
      </trkpt>
      <trkpt lat="43.61032" lon="1.35606">
        <ele>146.4</ele>
        <time>2024-07-09T14:35:00Z</time>
      </trkpt>
      <trkpt lat="43.61026" lon="1.35606">
        <ele>146.4</ele>
        <time>2024-07-09T14:35:01Z</time>
      </trkpt>
      <trkpt lat="43.6102" lon="1.35606">
        <ele>146.4</ele>
        <time>2024-07-09T14:35:02Z</time>
      </trkpt>
      <trkpt lat="43.61013" lon="1.35605">
        <ele>146.4</ele>
        <time>2024-07-09T14:35:03Z</time>
      </trkpt>
      <trkpt lat="43.61007" lon="1.35605">
        <ele>146.6</ele>
        <time>2024-07-09T14:35:04Z</time>
      </trkpt>
      <trkpt lat="43.61001" lon="1.35606">
        <ele>146.6</ele>
        <time>2024-07-09T14:35:05Z</time>
      </trkpt>
      <trkpt lat="43.60996" lon="1.35609">
        <ele>146.6</ele>
        <time>2024-07-09T14:35:06Z</time>
      </trkpt>
      <trkpt lat="43.60991" lon="1.35614">
        <ele>146.6</ele>
        <time>2024-07-09T14:35:07Z</time>
      </trkpt>
      <trkpt lat="43.60988" lon="1.35621">
        <ele>146.6</ele>
        <time>2024-07-09T14:35:08Z</time>
      </trkpt>
      <trkpt lat="43.60985" lon="1.35628">
        <ele>146.6</ele>
        <time>2024-07-09T14:35:09Z</time>
      </trkpt>
      <trkpt lat="43.60985" lon="1.35637">
        <ele>146.6</ele>
        <time>2024-07-09T14:35:10Z</time>
      </trkpt>
      <trkpt lat="43.60984" lon="1.35646">
        <ele>146.6</ele>
        <time>2024-07-09T14:35:11Z</time>
      </trkpt>
      <trkpt lat="43.60984" lon="1.35654">
        <ele>146.6</ele>
        <time>2024-07-09T14:35:12Z</time>
      </trkpt>
      <trkpt lat="43.60984" lon="1.35663">
        <ele>146.6</ele>
        <time>2024-07-09T14:35:13Z</time>
      </trkpt>
      <trkpt lat="43.60983" lon="1.35672">
        <ele>146.6</ele>
        <time>2024-07-09T14:35:14Z</time>
      </trkpt>
      <trkpt lat="43.60983" lon="1.35679">
        <ele>146.6</ele>
        <time>2024-07-09T14:35:15Z</time>
      </trkpt>
      <trkpt lat="43.60983" lon="1.3569">
        <ele>146.8</ele>
        <time>2024-07-09T14:35:16Z</time>
      </trkpt>
      <trkpt lat="43.60982" lon="1.35699">
        <ele>146.8</ele>
        <time>2024-07-09T14:35:17Z</time>
      </trkpt>
      <trkpt lat="43.60982" lon="1.35708">
        <ele>146.8</ele>
        <time>2024-07-09T14:35:18Z</time>
      </trkpt>
      <trkpt lat="43.60982" lon="1.35717">
        <ele>146.6</ele>
        <time>2024-07-09T14:35:19Z</time>
      </trkpt>
      <trkpt lat="43.60982" lon="1.35726">
        <ele>146.6</ele>
        <time>2024-07-09T14:35:20Z</time>
      </trkpt>
      <trkpt lat="43.60981" lon="1.35735">
        <ele>146.6</ele>
        <time>2024-07-09T14:35:21Z</time>
      </trkpt>
      <trkpt lat="43.60981" lon="1.35744">
        <ele>146.6</ele>
        <time>2024-07-09T14:35:22Z</time>
      </trkpt>
      <trkpt lat="43.60981" lon="1.35753">
        <ele>146.4</ele>
        <time>2024-07-09T14:35:23Z</time>
      </trkpt>
      <trkpt lat="43.60981" lon="1.35762">
        <ele>146.4</ele>
        <time>2024-07-09T14:35:24Z</time>
      </trkpt>
      <trkpt lat="43.60981" lon="1.35771">
        <ele>146.4</ele>
        <time>2024-07-09T14:35:25Z</time>
      </trkpt>
      <trkpt lat="43.6098" lon="1.3578">
        <ele>146.4</ele>
        <time>2024-07-09T14:35:26Z</time>
      </trkpt>
      <trkpt lat="43.6098" lon="1.35789">
        <ele>146.4</ele>
        <time>2024-07-09T14:35:27Z</time>
      </trkpt>
      <trkpt lat="43.60979" lon="1.35798">
        <ele>146.4</ele>
        <time>2024-07-09T14:35:28Z</time>
      </trkpt>
      <trkpt lat="43.60979" lon="1.35807">
        <ele>146.4</ele>
        <time>2024-07-09T14:35:29Z</time>
      </trkpt>
      <trkpt lat="43.60978" lon="1.35817">
        <ele>146.2</ele>
        <time>2024-07-09T14:35:30Z</time>
      </trkpt>
      <trkpt lat="43.60978" lon="1.35826">
        <ele>146.2</ele>
        <time>2024-07-09T14:35:31Z</time>
      </trkpt>
      <trkpt lat="43.60978" lon="1.35835">
        <ele>146.2</ele>
        <time>2024-07-09T14:35:32Z</time>
      </trkpt>
      <trkpt lat="43.60978" lon="1.35844">
        <ele>146.2</ele>
        <time>2024-07-09T14:35:33Z</time>
      </trkpt>
      <trkpt lat="43.60977" lon="1.35851">
        <ele>146.2</ele>
        <time>2024-07-09T14:35:34Z</time>
      </trkpt>
      <trkpt lat="43.60977" lon="1.35861">
        <ele>146.2</ele>
        <time>2024-07-09T14:35:35Z</time>
      </trkpt>
      <trkpt lat="43.60977" lon="1.3587">
        <ele>146.2</ele>
        <time>2024-07-09T14:35:36Z</time>
      </trkpt>
      <trkpt lat="43.60976" lon="1.35879">
        <ele>146.2</ele>
        <time>2024-07-09T14:35:37Z</time>
      </trkpt>
      <trkpt lat="43.60976" lon="1.35888">
        <ele>146.2</ele>
        <time>2024-07-09T14:35:38Z</time>
      </trkpt>
      <trkpt lat="43.60976" lon="1.35897">
        <ele>146.2</ele>
        <time>2024-07-09T14:35:39Z</time>
      </trkpt>
      <trkpt lat="43.60976" lon="1.35905">
        <ele>146.2</ele>
        <time>2024-07-09T14:35:40Z</time>
      </trkpt>
      <trkpt lat="43.60975" lon="1.35914">
        <ele>146.2</ele>
        <time>2024-07-09T14:35:42Z</time>
      </trkpt>
      <trkpt lat="43.60975" lon="1.35923">
        <ele>146.2</ele>
        <time>2024-07-09T14:35:43Z</time>
      </trkpt>
      <trkpt lat="43.60974" lon="1.35932">
        <ele>146.2</ele>
        <time>2024-07-09T14:35:44Z</time>
      </trkpt>
      <trkpt lat="43.60974" lon="1.35941">
        <ele>146.2</ele>
        <time>2024-07-09T14:35:45Z</time>
      </trkpt>
      <trkpt lat="43.60974" lon="1.3595">
        <ele>146.2</ele>
        <time>2024-07-09T14:35:46Z</time>
      </trkpt>
      <trkpt lat="43.60973" lon="1.35959">
        <ele>146.2</ele>
        <time>2024-07-09T14:35:47Z</time>
      </trkpt>
      <trkpt lat="43.60973" lon="1.35968">
        <ele>146.2</ele>
        <time>2024-07-09T14:35:48Z</time>
      </trkpt>
      <trkpt lat="43.60973" lon="1.35977">
        <ele>146.2</ele>
        <time>2024-07-09T14:35:49Z</time>
      </trkpt>
      <trkpt lat="43.60973" lon="1.35986">
        <ele>146.2</ele>
        <time>2024-07-09T14:35:50Z</time>
      </trkpt>
      <trkpt lat="43.60972" lon="1.35995">
        <ele>146.2</ele>
        <time>2024-07-09T14:35:51Z</time>
      </trkpt>
      <trkpt lat="43.60972" lon="1.36004">
        <ele>146.2</ele>
        <time>2024-07-09T14:35:52Z</time>
      </trkpt>
      <trkpt lat="43.60971" lon="1.36013">
        <ele>146.2</ele>
        <time>2024-07-09T14:35:53Z</time>
      </trkpt>
      <trkpt lat="43.6097" lon="1.36021">
        <ele>146.4</ele>
        <time>2024-07-09T14:35:54Z</time>
      </trkpt>
      <trkpt lat="43.60969" lon="1.36032">
        <ele>146.4</ele>
        <time>2024-07-09T14:35:55Z</time>
      </trkpt>
      <trkpt lat="43.60969" lon="1.36039">
        <ele>146.4</ele>
        <time>2024-07-09T14:35:56Z</time>
      </trkpt>
      <trkpt lat="43.60968" lon="1.36048">
        <ele>146.4</ele>
        <time>2024-07-09T14:35:57Z</time>
      </trkpt>
      <trkpt lat="43.60968" lon="1.36056">
        <ele>146.6</ele>
        <time>2024-07-09T14:35:58Z</time>
      </trkpt>
      <trkpt lat="43.60967" lon="1.36065">
        <ele>146.6</ele>
        <time>2024-07-09T14:35:59Z</time>
      </trkpt>
      <trkpt lat="43.60967" lon="1.36074">
        <ele>146.8</ele>
        <time>2024-07-09T14:36:00Z</time>
      </trkpt>
      <trkpt lat="43.60967" lon="1.36083">
        <ele>146.8</ele>
        <time>2024-07-09T14:36:01Z</time>
      </trkpt>
      <trkpt lat="43.60967" lon="1.36091">
        <ele>146.8</ele>
        <time>2024-07-09T14:36:02Z</time>
      </trkpt>
      <trkpt lat="43.60968" lon="1.36099">
        <ele>146.8</ele>
        <time>2024-07-09T14:36:03Z</time>
      </trkpt>
      <trkpt lat="43.60971" lon="1.36107">
        <ele>146.8</ele>
        <time>2024-07-09T14:36:04Z</time>
      </trkpt>
      <trkpt lat="43.60974" lon="1.36114">
        <ele>146.8</ele>
        <time>2024-07-09T14:36:05Z</time>
      </trkpt>
      <trkpt lat="43.6098" lon="1.36118">
        <ele>146.8</ele>
        <time>2024-07-09T14:36:06Z</time>
      </trkpt>
      <trkpt lat="43.60986" lon="1.36118">
        <ele>146.8</ele>
        <time>2024-07-09T14:36:07Z</time>
      </trkpt>
      <trkpt lat="43.60993" lon="1.36116">
        <ele>146.8</ele>
        <time>2024-07-09T14:36:08Z</time>
      </trkpt>
      <trkpt lat="43.60998" lon="1.36112">
        <ele>146.8</ele>
        <time>2024-07-09T14:36:09Z</time>
      </trkpt>
      <trkpt lat="43.61005" lon="1.36108">
        <ele>146.8</ele>
        <time>2024-07-09T14:36:10Z</time>
      </trkpt>
      <trkpt lat="43.61011" lon="1.36105">
        <ele>146.8</ele>
        <time>2024-07-09T14:36:11Z</time>
      </trkpt>
      <trkpt lat="43.61018" lon="1.36104">
        <ele>146.8</ele>
        <time>2024-07-09T14:36:12Z</time>
      </trkpt>
      <trkpt lat="43.61025" lon="1.36104">
        <ele>146.8</ele>
        <time>2024-07-09T14:36:13Z</time>
      </trkpt>
      <trkpt lat="43.61032" lon="1.36104">
        <ele>146.8</ele>
        <time>2024-07-09T14:36:14Z</time>
      </trkpt>
      <trkpt lat="43.61039" lon="1.36104">
        <ele>146.8</ele>
        <time>2024-07-09T14:36:15Z</time>
      </trkpt>
      <trkpt lat="43.61046" lon="1.36104">
        <ele>146.8</ele>
        <time>2024-07-09T14:36:16Z</time>
      </trkpt>
      <trkpt lat="43.61053" lon="1.36105">
        <ele>146.8</ele>
        <time>2024-07-09T14:36:17Z</time>
      </trkpt>
      <trkpt lat="43.6106" lon="1.36105">
        <ele>146.8</ele>
        <time>2024-07-09T14:36:18Z</time>
      </trkpt>
      <trkpt lat="43.61067" lon="1.36105">
        <ele>146.8</ele>
        <time>2024-07-09T14:36:19Z</time>
      </trkpt>
      <trkpt lat="43.61074" lon="1.36106">
        <ele>146.6</ele>
        <time>2024-07-09T14:36:20Z</time>
      </trkpt>
      <trkpt lat="43.61082" lon="1.36106">
        <ele>146.6</ele>
        <time>2024-07-09T14:36:21Z</time>
      </trkpt>
      <trkpt lat="43.61089" lon="1.36106">
        <ele>146.6</ele>
        <time>2024-07-09T14:36:22Z</time>
      </trkpt>
      <trkpt lat="43.61096" lon="1.36106">
        <ele>146.8</ele>
        <time>2024-07-09T14:36:23Z</time>
      </trkpt>
      <trkpt lat="43.61103" lon="1.36106">
        <ele>146.8</ele>
        <time>2024-07-09T14:36:24Z</time>
      </trkpt>
      <trkpt lat="43.6111" lon="1.36107">
        <ele>146.8</ele>
        <time>2024-07-09T14:36:25Z</time>
      </trkpt>
      <trkpt lat="43.61118" lon="1.36107">
        <ele>146.8</ele>
        <time>2024-07-09T14:36:26Z</time>
      </trkpt>
      <trkpt lat="43.61124" lon="1.36108">
        <ele>146.8</ele>
        <time>2024-07-09T14:36:27Z</time>
      </trkpt>
      <trkpt lat="43.61131" lon="1.36108">
        <ele>146.6</ele>
        <time>2024-07-09T14:36:28Z</time>
      </trkpt>
      <trkpt lat="43.61138" lon="1.36109">
        <ele>146.6</ele>
        <time>2024-07-09T14:36:29Z</time>
      </trkpt>
      <trkpt lat="43.61145" lon="1.36109">
        <ele>146.8</ele>
        <time>2024-07-09T14:36:30Z</time>
      </trkpt>
      <trkpt lat="43.61152" lon="1.36109">
        <ele>146.8</ele>
        <time>2024-07-09T14:36:31Z</time>
      </trkpt>
      <trkpt lat="43.61159" lon="1.36111">
        <ele>146.8</ele>
        <time>2024-07-09T14:36:32Z</time>
      </trkpt>
      <trkpt lat="43.61165" lon="1.36117">
        <ele>146.8</ele>
        <time>2024-07-09T14:36:33Z</time>
      </trkpt>
      <trkpt lat="43.61168" lon="1.36125">
        <ele>146.8</ele>
        <time>2024-07-09T14:36:34Z</time>
      </trkpt>
      <trkpt lat="43.61171" lon="1.36134">
        <ele>146.8</ele>
        <time>2024-07-09T14:36:35Z</time>
      </trkpt>
      <trkpt lat="43.61172" lon="1.36142">
        <ele>146.6</ele>
        <time>2024-07-09T14:36:36Z</time>
      </trkpt>
      <trkpt lat="43.61172" lon="1.36151">
        <ele>146.6</ele>
        <time>2024-07-09T14:36:37Z</time>
      </trkpt>
      <trkpt lat="43.61173" lon="1.3616">
        <ele>146.6</ele>
        <time>2024-07-09T14:36:38Z</time>
      </trkpt>
      <trkpt lat="43.61172" lon="1.36168">
        <ele>146.6</ele>
        <time>2024-07-09T14:36:39Z</time>
      </trkpt>
      <trkpt lat="43.61172" lon="1.36177">
        <ele>146.6</ele>
        <time>2024-07-09T14:36:40Z</time>
      </trkpt>
      <trkpt lat="43.61172" lon="1.36187">
        <ele>146.6</ele>
        <time>2024-07-09T14:36:41Z</time>
      </trkpt>
      <trkpt lat="43.61172" lon="1.36196">
        <ele>146.6</ele>
        <time>2024-07-09T14:36:42Z</time>
      </trkpt>
      <trkpt lat="43.61171" lon="1.36205">
        <ele>146.4</ele>
        <time>2024-07-09T14:36:43Z</time>
      </trkpt>
      <trkpt lat="43.61171" lon="1.36215">
        <ele>146.4</ele>
        <time>2024-07-09T14:36:44Z</time>
      </trkpt>
      <trkpt lat="43.6117" lon="1.36224">
        <ele>146.4</ele>
        <time>2024-07-09T14:36:45Z</time>
      </trkpt>
      <trkpt lat="43.61169" lon="1.36233">
        <ele>146.2</ele>
        <time>2024-07-09T14:36:46Z</time>
      </trkpt>
      <trkpt lat="43.61169" lon="1.36242">
        <ele>146.2</ele>
        <time>2024-07-09T14:36:47Z</time>
      </trkpt>
      <trkpt lat="43.61168" lon="1.36251">
        <ele>146.2</ele>
        <time>2024-07-09T14:36:48Z</time>
      </trkpt>
      <trkpt lat="43.61167" lon="1.36261">
        <ele>146.2</ele>
        <time>2024-07-09T14:36:49Z</time>
      </trkpt>
      <trkpt lat="43.61166" lon="1.3627">
        <ele>146.2</ele>
        <time>2024-07-09T14:36:50Z</time>
      </trkpt>
      <trkpt lat="43.61166" lon="1.36279">
        <ele>146.2</ele>
        <time>2024-07-09T14:36:51Z</time>
      </trkpt>
      <trkpt lat="43.61166" lon="1.36288">
        <ele>146</ele>
        <time>2024-07-09T14:36:52Z</time>
      </trkpt>
      <trkpt lat="43.61165" lon="1.36298">
        <ele>146</ele>
        <time>2024-07-09T14:36:53Z</time>
      </trkpt>
      <trkpt lat="43.61165" lon="1.36308">
        <ele>146</ele>
        <time>2024-07-09T14:36:54Z</time>
      </trkpt>
      <trkpt lat="43.61164" lon="1.36316">
        <ele>146</ele>
        <time>2024-07-09T14:36:55Z</time>
      </trkpt>
      <trkpt lat="43.61164" lon="1.36327">
        <ele>146</ele>
        <time>2024-07-09T14:36:56Z</time>
      </trkpt>
      <trkpt lat="43.61163" lon="1.36335">
        <ele>146</ele>
        <time>2024-07-09T14:36:57Z</time>
      </trkpt>
      <trkpt lat="43.61163" lon="1.36345">
        <ele>146.2</ele>
        <time>2024-07-09T14:36:58Z</time>
      </trkpt>
      <trkpt lat="43.61162" lon="1.36355">
        <ele>146.2</ele>
        <time>2024-07-09T14:36:59Z</time>
      </trkpt>
      <trkpt lat="43.61162" lon="1.36365">
        <ele>146.2</ele>
        <time>2024-07-09T14:37:00Z</time>
      </trkpt>
      <trkpt lat="43.61162" lon="1.36375">
        <ele>146.2</ele>
        <time>2024-07-09T14:37:01Z</time>
      </trkpt>
      <trkpt lat="43.61161" lon="1.36386">
        <ele>146.4</ele>
        <time>2024-07-09T14:37:02Z</time>
      </trkpt>
      <trkpt lat="43.61161" lon="1.36398">
        <ele>146.4</ele>
        <time>2024-07-09T14:37:03Z</time>
      </trkpt>
      <trkpt lat="43.61161" lon="1.36406">
        <ele>146.4</ele>
        <time>2024-07-09T14:37:04Z</time>
      </trkpt>
      <trkpt lat="43.6116" lon="1.36417">
        <ele>146.4</ele>
        <time>2024-07-09T14:37:05Z</time>
      </trkpt>
      <trkpt lat="43.6116" lon="1.36427">
        <ele>146.6</ele>
        <time>2024-07-09T14:37:06Z</time>
      </trkpt>
      <trkpt lat="43.61159" lon="1.36438">
        <ele>146.6</ele>
        <time>2024-07-09T14:37:07Z</time>
      </trkpt>
      <trkpt lat="43.61158" lon="1.36446">
        <ele>146.6</ele>
        <time>2024-07-09T14:37:08Z</time>
      </trkpt>
      <trkpt lat="43.61158" lon="1.36456">
        <ele>146.6</ele>
        <time>2024-07-09T14:37:09Z</time>
      </trkpt>
      <trkpt lat="43.61157" lon="1.36465">
        <ele>146.6</ele>
        <time>2024-07-09T14:37:10Z</time>
      </trkpt>
      <trkpt lat="43.61157" lon="1.36475">
        <ele>146.6</ele>
        <time>2024-07-09T14:37:11Z</time>
      </trkpt>
      <trkpt lat="43.61157" lon="1.36484">
        <ele>146.8</ele>
        <time>2024-07-09T14:37:12Z</time>
      </trkpt>
      <trkpt lat="43.61156" lon="1.36494">
        <ele>146.8</ele>
        <time>2024-07-09T14:37:13Z</time>
      </trkpt>
      <trkpt lat="43.61156" lon="1.36503">
        <ele>146.6</ele>
        <time>2024-07-09T14:37:14Z</time>
      </trkpt>
      <trkpt lat="43.61155" lon="1.36512">
        <ele>146.6</ele>
        <time>2024-07-09T14:37:15Z</time>
      </trkpt>
      <trkpt lat="43.61155" lon="1.36521">
        <ele>146.6</ele>
        <time>2024-07-09T14:37:16Z</time>
      </trkpt>
      <trkpt lat="43.61155" lon="1.36529">
        <ele>146.4</ele>
        <time>2024-07-09T14:37:17Z</time>
      </trkpt>
      <trkpt lat="43.61154" lon="1.36537">
        <ele>146.4</ele>
        <time>2024-07-09T14:37:18Z</time>
      </trkpt>
      <trkpt lat="43.61152" lon="1.36545">
        <ele>146.4</ele>
        <time>2024-07-09T14:37:19Z</time>
      </trkpt>
      <trkpt lat="43.6115" lon="1.36551">
        <ele>146.4</ele>
        <time>2024-07-09T14:37:20Z</time>
      </trkpt>
      <trkpt lat="43.61146" lon="1.36557">
        <ele>146.4</ele>
        <time>2024-07-09T14:37:21Z</time>
      </trkpt>
      <trkpt lat="43.61144" lon="1.36564">
        <ele>146.4</ele>
        <time>2024-07-09T14:37:22Z</time>
      </trkpt>
      <trkpt lat="43.61143" lon="1.36572">
        <ele>146.4</ele>
        <time>2024-07-09T14:37:23Z</time>
      </trkpt>
      <trkpt lat="43.61144" lon="1.3658">
        <ele>146.4</ele>
        <time>2024-07-09T14:37:24Z</time>
      </trkpt>
      <trkpt lat="43.61146" lon="1.36588">
        <ele>146.4</ele>
        <time>2024-07-09T14:37:25Z</time>
      </trkpt>
      <trkpt lat="43.61149" lon="1.36595">
        <ele>146.6</ele>
        <time>2024-07-09T14:37:26Z</time>
      </trkpt>
      <trkpt lat="43.6115" lon="1.36604">
        <ele>146.6</ele>
        <time>2024-07-09T14:37:27Z</time>
      </trkpt>
      <trkpt lat="43.6115" lon="1.36613">
        <ele>146.6</ele>
        <time>2024-07-09T14:37:28Z</time>
      </trkpt>
      <trkpt lat="43.61149" lon="1.36622">
        <ele>146.8</ele>
        <time>2024-07-09T14:37:29Z</time>
      </trkpt>
      <trkpt lat="43.61148" lon="1.36631">
        <ele>146.8</ele>
        <time>2024-07-09T14:37:30Z</time>
      </trkpt>
      <trkpt lat="43.61147" lon="1.3664">
        <ele>146.6</ele>
        <time>2024-07-09T14:37:31Z</time>
      </trkpt>
      <trkpt lat="43.61147" lon="1.36649">
        <ele>146.6</ele>
        <time>2024-07-09T14:37:32Z</time>
      </trkpt>
      <trkpt lat="43.61147" lon="1.36659">
        <ele>146.6</ele>
        <time>2024-07-09T14:37:33Z</time>
      </trkpt>
      <trkpt lat="43.61146" lon="1.36668">
        <ele>146.6</ele>
        <time>2024-07-09T14:37:34Z</time>
      </trkpt>
      <trkpt lat="43.61146" lon="1.36677">
        <ele>146.6</ele>
        <time>2024-07-09T14:37:35Z</time>
      </trkpt>
      <trkpt lat="43.61145" lon="1.36687">
        <ele>146.6</ele>
        <time>2024-07-09T14:37:36Z</time>
      </trkpt>
      <trkpt lat="43.61145" lon="1.36696">
        <ele>146.6</ele>
        <time>2024-07-09T14:37:37Z</time>
      </trkpt>
      <trkpt lat="43.61144" lon="1.36706">
        <ele>146.8</ele>
        <time>2024-07-09T14:37:38Z</time>
      </trkpt>
      <trkpt lat="43.61144" lon="1.36716">
        <ele>146.8</ele>
        <time>2024-07-09T14:37:39Z</time>
      </trkpt>
      <trkpt lat="43.61144" lon="1.36726">
        <ele>146.6</ele>
        <time>2024-07-09T14:37:40Z</time>
      </trkpt>
      <trkpt lat="43.61143" lon="1.36735">
        <ele>146.6</ele>
        <time>2024-07-09T14:37:41Z</time>
      </trkpt>
      <trkpt lat="43.61142" lon="1.36745">
        <ele>146.6</ele>
        <time>2024-07-09T14:37:42Z</time>
      </trkpt>
      <trkpt lat="43.61141" lon="1.36755">
        <ele>146.6</ele>
        <time>2024-07-09T14:37:43Z</time>
      </trkpt>
      <trkpt lat="43.61141" lon="1.36765">
        <ele>146.6</ele>
        <time>2024-07-09T14:37:44Z</time>
      </trkpt>
      <trkpt lat="43.61141" lon="1.36775">
        <ele>146.6</ele>
        <time>2024-07-09T14:37:45Z</time>
      </trkpt>
      <trkpt lat="43.6114" lon="1.36784">
        <ele>146.6</ele>
        <time>2024-07-09T14:37:46Z</time>
      </trkpt>
      <trkpt lat="43.6114" lon="1.36793">
        <ele>146.4</ele>
        <time>2024-07-09T14:37:47Z</time>
      </trkpt>
      <trkpt lat="43.61139" lon="1.36803">
        <ele>146.4</ele>
        <time>2024-07-09T14:37:48Z</time>
      </trkpt>
      <trkpt lat="43.61139" lon="1.36812">
        <ele>146.2</ele>
        <time>2024-07-09T14:37:49Z</time>
      </trkpt>
      <trkpt lat="43.61138" lon="1.36821">
        <ele>146.2</ele>
        <time>2024-07-09T14:37:50Z</time>
      </trkpt>
      <trkpt lat="43.61138" lon="1.36821">
        <ele>146.2</ele>
        <time>2024-07-09T14:37:51Z</time>
      </trkpt>
      <trkpt lat="43.61138" lon="1.36839">
        <ele>146.2</ele>
        <time>2024-07-09T14:37:52Z</time>
      </trkpt>
      <trkpt lat="43.61136" lon="1.36847">
        <ele>146.2</ele>
        <time>2024-07-09T14:37:53Z</time>
      </trkpt>
      <trkpt lat="43.61133" lon="1.36853">
        <ele>146.2</ele>
        <time>2024-07-09T14:37:54Z</time>
      </trkpt>
      <trkpt lat="43.6113" lon="1.3686">
        <ele>146.2</ele>
        <time>2024-07-09T14:37:55Z</time>
      </trkpt>
      <trkpt lat="43.61128" lon="1.36868">
        <ele>146.2</ele>
        <time>2024-07-09T14:37:56Z</time>
      </trkpt>
      <trkpt lat="43.61128" lon="1.36877">
        <ele>146.2</ele>
        <time>2024-07-09T14:37:57Z</time>
      </trkpt>
      <trkpt lat="43.61129" lon="1.36885">
        <ele>146.2</ele>
        <time>2024-07-09T14:37:58Z</time>
      </trkpt>
      <trkpt lat="43.61129" lon="1.36894">
        <ele>146.2</ele>
        <time>2024-07-09T14:37:59Z</time>
      </trkpt>
      <trkpt lat="43.61128" lon="1.36903">
        <ele>146.2</ele>
        <time>2024-07-09T14:38:00Z</time>
      </trkpt>
      <trkpt lat="43.61128" lon="1.36912">
        <ele>146.2</ele>
        <time>2024-07-09T14:38:01Z</time>
      </trkpt>
      <trkpt lat="43.61128" lon="1.36921">
        <ele>146.2</ele>
        <time>2024-07-09T14:38:02Z</time>
      </trkpt>
      <trkpt lat="43.61127" lon="1.36929">
        <ele>146.2</ele>
        <time>2024-07-09T14:38:03Z</time>
      </trkpt>
      <trkpt lat="43.61127" lon="1.36938">
        <ele>146</ele>
        <time>2024-07-09T14:38:04Z</time>
      </trkpt>
      <trkpt lat="43.61126" lon="1.36946">
        <ele>146</ele>
        <time>2024-07-09T14:38:05Z</time>
      </trkpt>
      <trkpt lat="43.61126" lon="1.36954">
        <ele>146</ele>
        <time>2024-07-09T14:38:06Z</time>
      </trkpt>
      <trkpt lat="43.61126" lon="1.36961">
        <ele>145.8</ele>
        <time>2024-07-09T14:38:07Z</time>
      </trkpt>
      <trkpt lat="43.61126" lon="1.36968">
        <ele>145.8</ele>
        <time>2024-07-09T14:38:08Z</time>
      </trkpt>
      <trkpt lat="43.61125" lon="1.36974">
        <ele>145.8</ele>
        <time>2024-07-09T14:38:09Z</time>
      </trkpt>
      <trkpt lat="43.61125" lon="1.36979">
        <ele>145.8</ele>
        <time>2024-07-09T14:38:10Z</time>
      </trkpt>
      <trkpt lat="43.61125" lon="1.36982">
        <ele>145.8</ele>
        <time>2024-07-09T14:38:11Z</time>
      </trkpt>
      <trkpt lat="43.61125" lon="1.36983">
        <ele>145.8</ele>
        <time>2024-07-09T14:38:12Z</time>
      </trkpt>
      <trkpt lat="43.61125" lon="1.36983">
        <ele>146</ele>
        <time>2024-07-09T14:38:13Z</time>
      </trkpt>
      <trkpt lat="43.61125" lon="1.36983">
        <ele>146</ele>
        <time>2024-07-09T14:38:14Z</time>
      </trkpt>
      <trkpt lat="43.61126" lon="1.36991">
        <ele>146</ele>
        <time>2024-07-09T14:38:19Z</time>
      </trkpt>
      <trkpt lat="43.61126" lon="1.36997">
        <ele>145.8</ele>
        <time>2024-07-09T14:38:20Z</time>
      </trkpt>
      <trkpt lat="43.61126" lon="1.37003">
        <ele>145.8</ele>
        <time>2024-07-09T14:38:21Z</time>
      </trkpt>
      <trkpt lat="43.61126" lon="1.3701">
        <ele>145.8</ele>
        <time>2024-07-09T14:38:22Z</time>
      </trkpt>
      <trkpt lat="43.61126" lon="1.37017">
        <ele>145.6</ele>
        <time>2024-07-09T14:38:23Z</time>
      </trkpt>
      <trkpt lat="43.61125" lon="1.37025">
        <ele>145.6</ele>
        <time>2024-07-09T14:38:24Z</time>
      </trkpt>
      <trkpt lat="43.61124" lon="1.3703">
        <ele>145.4</ele>
        <time>2024-07-09T14:38:25Z</time>
      </trkpt>
      <trkpt lat="43.61123" lon="1.37035">
        <ele>145.2</ele>
        <time>2024-07-09T14:38:26Z</time>
      </trkpt>
      <trkpt lat="43.61121" lon="1.37039">
        <ele>145</ele>
        <time>2024-07-09T14:38:27Z</time>
      </trkpt>
      <trkpt lat="43.61119" lon="1.37044">
        <ele>145</ele>
        <time>2024-07-09T14:38:28Z</time>
      </trkpt>
      <trkpt lat="43.61119" lon="1.37051">
        <ele>144.8</ele>
        <time>2024-07-09T14:38:29Z</time>
      </trkpt>
      <trkpt lat="43.61119" lon="1.37057">
        <ele>144.8</ele>
        <time>2024-07-09T14:38:30Z</time>
      </trkpt>
      <trkpt lat="43.6112" lon="1.37063">
        <ele>144.8</ele>
        <time>2024-07-09T14:38:31Z</time>
      </trkpt>
      <trkpt lat="43.61122" lon="1.37069">
        <ele>144.8</ele>
        <time>2024-07-09T14:38:32Z</time>
      </trkpt>
      <trkpt lat="43.61123" lon="1.37075">
        <ele>144.8</ele>
        <time>2024-07-09T14:38:33Z</time>
      </trkpt>
      <trkpt lat="43.61123" lon="1.37082">
        <ele>144.8</ele>
        <time>2024-07-09T14:38:34Z</time>
      </trkpt>
      <trkpt lat="43.61123" lon="1.37089">
        <ele>144.8</ele>
        <time>2024-07-09T14:38:35Z</time>
      </trkpt>
      <trkpt lat="43.61123" lon="1.37094">
        <ele>144.8</ele>
        <time>2024-07-09T14:38:36Z</time>
      </trkpt>
      <trkpt lat="43.61123" lon="1.37098">
        <ele>144.8</ele>
        <time>2024-07-09T14:38:37Z</time>
      </trkpt>
      <trkpt lat="43.61123" lon="1.371">
        <ele>144.8</ele>
        <time>2024-07-09T14:38:38Z</time>
      </trkpt>
      <trkpt lat="43.61124" lon="1.37103">
        <ele>144.8</ele>
        <time>2024-07-09T14:38:39Z</time>
      </trkpt>
      <trkpt lat="43.61123" lon="1.37105">
        <ele>144.8</ele>
        <time>2024-07-09T14:38:40Z</time>
      </trkpt>
      <trkpt lat="43.61123" lon="1.37109">
        <ele>144.8</ele>
        <time>2024-07-09T14:38:41Z</time>
      </trkpt>
      <trkpt lat="43.61122" lon="1.37113">
        <ele>144.8</ele>
        <time>2024-07-09T14:38:42Z</time>
      </trkpt>
      <trkpt lat="43.61121" lon="1.37118">
        <ele>144.8</ele>
        <time>2024-07-09T14:38:43Z</time>
      </trkpt>
      <trkpt lat="43.6112" lon="1.37123">
        <ele>144.8</ele>
        <time>2024-07-09T14:38:44Z</time>
      </trkpt>
      <trkpt lat="43.6112" lon="1.37129">
        <ele>144.8</ele>
        <time>2024-07-09T14:38:45Z</time>
      </trkpt>
      <trkpt lat="43.61119" lon="1.37136">
        <ele>144.8</ele>
        <time>2024-07-09T14:38:46Z</time>
      </trkpt>
      <trkpt lat="43.61119" lon="1.37143">
        <ele>144.8</ele>
        <time>2024-07-09T14:38:47Z</time>
      </trkpt>
      <trkpt lat="43.61119" lon="1.3715">
        <ele>144.8</ele>
        <time>2024-07-09T14:38:48Z</time>
      </trkpt>
      <trkpt lat="43.61118" lon="1.37157">
        <ele>144.8</ele>
        <time>2024-07-09T14:38:49Z</time>
      </trkpt>
      <trkpt lat="43.61117" lon="1.37165">
        <ele>144.8</ele>
        <time>2024-07-09T14:38:50Z</time>
      </trkpt>
      <trkpt lat="43.61117" lon="1.37173">
        <ele>144.8</ele>
        <time>2024-07-09T14:38:51Z</time>
      </trkpt>
      <trkpt lat="43.61116" lon="1.37181">
        <ele>144.8</ele>
        <time>2024-07-09T14:38:52Z</time>
      </trkpt>
      <trkpt lat="43.61116" lon="1.37188">
        <ele>144.8</ele>
        <time>2024-07-09T14:38:53Z</time>
      </trkpt>
      <trkpt lat="43.61116" lon="1.37196">
        <ele>145</ele>
        <time>2024-07-09T14:38:54Z</time>
      </trkpt>
      <trkpt lat="43.61115" lon="1.37202">
        <ele>145</ele>
        <time>2024-07-09T14:38:55Z</time>
      </trkpt>
      <trkpt lat="43.61115" lon="1.37202">
        <ele>145</ele>
        <time>2024-07-09T14:38:56Z</time>
      </trkpt>
      <trkpt lat="43.61115" lon="1.37211">
        <ele>145</ele>
        <time>2024-07-09T14:38:57Z</time>
      </trkpt>
      <trkpt lat="43.61116" lon="1.37215">
        <ele>145</ele>
        <time>2024-07-09T14:38:58Z</time>
      </trkpt>
      <trkpt lat="43.61116" lon="1.37219">
        <ele>145.2</ele>
        <time>2024-07-09T14:38:59Z</time>
      </trkpt>
      <trkpt lat="43.61117" lon="1.37223">
        <ele>145.2</ele>
        <time>2024-07-09T14:39:00Z</time>
      </trkpt>
      <trkpt lat="43.61118" lon="1.37228">
        <ele>145.2</ele>
        <time>2024-07-09T14:39:01Z</time>
      </trkpt>
      <trkpt lat="43.61119" lon="1.37233">
        <ele>145.2</ele>
        <time>2024-07-09T14:39:02Z</time>
      </trkpt>
      <trkpt lat="43.61121" lon="1.37238">
        <ele>145.2</ele>
        <time>2024-07-09T14:39:03Z</time>
      </trkpt>
      <trkpt lat="43.61123" lon="1.37243">
        <ele>145.4</ele>
        <time>2024-07-09T14:39:04Z</time>
      </trkpt>
      <trkpt lat="43.61125" lon="1.3725">
        <ele>145.4</ele>
        <time>2024-07-09T14:39:05Z</time>
      </trkpt>
      <trkpt lat="43.61126" lon="1.37257">
        <ele>145.4</ele>
        <time>2024-07-09T14:39:06Z</time>
      </trkpt>
      <trkpt lat="43.61125" lon="1.37265">
        <ele>145.4</ele>
        <time>2024-07-09T14:39:07Z</time>
      </trkpt>
      <trkpt lat="43.61124" lon="1.37273">
        <ele>145.2</ele>
        <time>2024-07-09T14:39:08Z</time>
      </trkpt>
      <trkpt lat="43.61123" lon="1.37281">
        <ele>145.2</ele>
        <time>2024-07-09T14:39:09Z</time>
      </trkpt>
      <trkpt lat="43.61122" lon="1.3729">
        <ele>145.2</ele>
        <time>2024-07-09T14:39:10Z</time>
      </trkpt>
      <trkpt lat="43.61121" lon="1.37299">
        <ele>145.2</ele>
        <time>2024-07-09T14:39:11Z</time>
      </trkpt>
      <trkpt lat="43.61121" lon="1.37308">
        <ele>145</ele>
        <time>2024-07-09T14:39:12Z</time>
      </trkpt>
      <trkpt lat="43.6112" lon="1.37316">
        <ele>145</ele>
        <time>2024-07-09T14:39:13Z</time>
      </trkpt>
      <trkpt lat="43.61119" lon="1.37325">
        <ele>145</ele>
        <time>2024-07-09T14:39:14Z</time>
      </trkpt>
      <trkpt lat="43.61118" lon="1.37335">
        <ele>144.8</ele>
        <time>2024-07-09T14:39:15Z</time>
      </trkpt>
      <trkpt lat="43.61117" lon="1.37344">
        <ele>144.8</ele>
        <time>2024-07-09T14:39:16Z</time>
      </trkpt>
      <trkpt lat="43.61115" lon="1.37354">
        <ele>144.8</ele>
        <time>2024-07-09T14:39:17Z</time>
      </trkpt>
      <trkpt lat="43.61113" lon="1.37363">
        <ele>144.6</ele>
        <time>2024-07-09T14:39:18Z</time>
      </trkpt>
      <trkpt lat="43.61112" lon="1.37373">
        <ele>144.6</ele>
        <time>2024-07-09T14:39:19Z</time>
      </trkpt>
      <trkpt lat="43.6111" lon="1.37382">
        <ele>144.4</ele>
        <time>2024-07-09T14:39:20Z</time>
      </trkpt>
      <trkpt lat="43.61108" lon="1.37391">
        <ele>144.4</ele>
        <time>2024-07-09T14:39:21Z</time>
      </trkpt>
      <trkpt lat="43.61106" lon="1.37401">
        <ele>144.4</ele>
        <time>2024-07-09T14:39:22Z</time>
      </trkpt>
      <trkpt lat="43.61105" lon="1.3741">
        <ele>144.4</ele>
        <time>2024-07-09T14:39:23Z</time>
      </trkpt>
      <trkpt lat="43.61103" lon="1.37419">
        <ele>144.4</ele>
        <time>2024-07-09T14:39:24Z</time>
      </trkpt>
      <trkpt lat="43.61101" lon="1.37427">
        <ele>144.4</ele>
        <time>2024-07-09T14:39:25Z</time>
      </trkpt>
      <trkpt lat="43.61099" lon="1.37436">
        <ele>144.4</ele>
        <time>2024-07-09T14:39:26Z</time>
      </trkpt>
      <trkpt lat="43.61098" lon="1.37444">
        <ele>144.4</ele>
        <time>2024-07-09T14:39:27Z</time>
      </trkpt>
      <trkpt lat="43.61097" lon="1.37451">
        <ele>144.4</ele>
        <time>2024-07-09T14:39:28Z</time>
      </trkpt>
      <trkpt lat="43.61096" lon="1.37457">
        <ele>144.4</ele>
        <time>2024-07-09T14:39:29Z</time>
      </trkpt>
      <trkpt lat="43.61095" lon="1.37461">
        <ele>144.4</ele>
        <time>2024-07-09T14:39:30Z</time>
      </trkpt>
      <trkpt lat="43.61095" lon="1.37464">
        <ele>144.4</ele>
        <time>2024-07-09T14:39:31Z</time>
      </trkpt>
      <trkpt lat="43.61094" lon="1.37465">
        <ele>144.4</ele>
        <time>2024-07-09T14:39:32Z</time>
      </trkpt>
      <trkpt lat="43.61092" lon="1.37466">
        <ele>144.4</ele>
        <time>2024-07-09T14:39:33Z</time>
      </trkpt>
      <trkpt lat="43.6109" lon="1.37467">
        <ele>144.4</ele>
        <time>2024-07-09T14:39:34Z</time>
      </trkpt>
      <trkpt lat="43.61088" lon="1.37468">
        <ele>144.4</ele>
        <time>2024-07-09T14:39:35Z</time>
      </trkpt>
      <trkpt lat="43.61087" lon="1.37471">
        <ele>144.4</ele>
        <time>2024-07-09T14:39:36Z</time>
      </trkpt>
      <trkpt lat="43.61086" lon="1.37475">
        <ele>144.4</ele>
        <time>2024-07-09T14:39:37Z</time>
      </trkpt>
      <trkpt lat="43.61086" lon="1.37478">
        <ele>144.4</ele>
        <time>2024-07-09T14:39:38Z</time>
      </trkpt>
      <trkpt lat="43.61086" lon="1.37483">
        <ele>144.4</ele>
        <time>2024-07-09T14:39:39Z</time>
      </trkpt>
      <trkpt lat="43.61086" lon="1.37489">
        <ele>144.6</ele>
        <time>2024-07-09T14:39:40Z</time>
      </trkpt>
      <trkpt lat="43.61084" lon="1.37496">
        <ele>144.6</ele>
        <time>2024-07-09T14:39:41Z</time>
      </trkpt>
      <trkpt lat="43.61084" lon="1.37502">
        <ele>144.6</ele>
        <time>2024-07-09T14:39:42Z</time>
      </trkpt>
      <trkpt lat="43.61083" lon="1.3751">
        <ele>144.8</ele>
        <time>2024-07-09T14:39:43Z</time>
      </trkpt>
      <trkpt lat="43.61084" lon="1.37517">
        <ele>144.8</ele>
        <time>2024-07-09T14:39:44Z</time>
      </trkpt>
      <trkpt lat="43.61084" lon="1.37525">
        <ele>144.8</ele>
        <time>2024-07-09T14:39:45Z</time>
      </trkpt>
      <trkpt lat="43.61086" lon="1.37532">
        <ele>144.8</ele>
        <time>2024-07-09T14:39:46Z</time>
      </trkpt>
      <trkpt lat="43.61088" lon="1.3754">
        <ele>144.8</ele>
        <time>2024-07-09T14:39:47Z</time>
      </trkpt>
      <trkpt lat="43.6109" lon="1.37547">
        <ele>144.8</ele>
        <time>2024-07-09T14:39:48Z</time>
      </trkpt>
      <trkpt lat="43.61092" lon="1.37554">
        <ele>144.8</ele>
        <time>2024-07-09T14:39:49Z</time>
      </trkpt>
      <trkpt lat="43.61094" lon="1.37561">
        <ele>144.8</ele>
        <time>2024-07-09T14:39:50Z</time>
      </trkpt>
      <trkpt lat="43.61094" lon="1.37568">
        <ele>144.8</ele>
        <time>2024-07-09T14:39:51Z</time>
      </trkpt>
      <trkpt lat="43.61093" lon="1.37575">
        <ele>144.8</ele>
        <time>2024-07-09T14:39:52Z</time>
      </trkpt>
      <trkpt lat="43.6109" lon="1.3758">
        <ele>144.8</ele>
        <time>2024-07-09T14:39:53Z</time>
      </trkpt>
      <trkpt lat="43.61086" lon="1.37584">
        <ele>144.8</ele>
        <time>2024-07-09T14:39:54Z</time>
      </trkpt>
      <trkpt lat="43.61081" lon="1.37588">
        <ele>144.8</ele>
        <time>2024-07-09T14:39:55Z</time>
      </trkpt>
      <trkpt lat="43.61076" lon="1.37592">
        <ele>144.8</ele>
        <time>2024-07-09T14:39:56Z</time>
      </trkpt>
      <trkpt lat="43.61071" lon="1.37597">
        <ele>145</ele>
        <time>2024-07-09T14:39:57Z</time>
      </trkpt>
      <trkpt lat="43.61065" lon="1.37602">
        <ele>145</ele>
        <time>2024-07-09T14:39:58Z</time>
      </trkpt>
      <trkpt lat="43.6106" lon="1.37607">
        <ele>145</ele>
        <time>2024-07-09T14:39:59Z</time>
      </trkpt>
      <trkpt lat="43.61055" lon="1.37612">
        <ele>145</ele>
        <time>2024-07-09T14:40:00Z</time>
      </trkpt>
      <trkpt lat="43.61049" lon="1.37618">
        <ele>145</ele>
        <time>2024-07-09T14:40:01Z</time>
      </trkpt>
      <trkpt lat="43.61044" lon="1.37624">
        <ele>145.2</ele>
        <time>2024-07-09T14:40:02Z</time>
      </trkpt>
      <trkpt lat="43.6104" lon="1.37631">
        <ele>145.2</ele>
        <time>2024-07-09T14:40:03Z</time>
      </trkpt>
      <trkpt lat="43.61037" lon="1.37638">
        <ele>145.2</ele>
        <time>2024-07-09T14:40:04Z</time>
      </trkpt>
      <trkpt lat="43.61035" lon="1.37646">
        <ele>145.2</ele>
        <time>2024-07-09T14:40:05Z</time>
      </trkpt>
      <trkpt lat="43.61034" lon="1.37652">
        <ele>145.2</ele>
        <time>2024-07-09T14:40:06Z</time>
      </trkpt>
      <trkpt lat="43.61033" lon="1.37657">
        <ele>145.2</ele>
        <time>2024-07-09T14:40:07Z</time>
      </trkpt>
      <trkpt lat="43.61032" lon="1.37661">
        <ele>145.2</ele>
        <time>2024-07-09T14:40:08Z</time>
      </trkpt>
      <trkpt lat="43.6103" lon="1.37665">
        <ele>145.2</ele>
        <time>2024-07-09T14:40:09Z</time>
      </trkpt>
      <trkpt lat="43.61027" lon="1.3767">
        <ele>145</ele>
        <time>2024-07-09T14:40:10Z</time>
      </trkpt>
      <trkpt lat="43.61024" lon="1.37675">
        <ele>145</ele>
        <time>2024-07-09T14:40:11Z</time>
      </trkpt>
      <trkpt lat="43.61021" lon="1.37682">
        <ele>145</ele>
        <time>2024-07-09T14:40:12Z</time>
      </trkpt>
      <trkpt lat="43.61018" lon="1.37689">
        <ele>145</ele>
        <time>2024-07-09T14:40:13Z</time>
      </trkpt>
      <trkpt lat="43.61014" lon="1.37696">
        <ele>145</ele>
        <time>2024-07-09T14:40:14Z</time>
      </trkpt>
      <trkpt lat="43.61011" lon="1.37704">
        <ele>145</ele>
        <time>2024-07-09T14:40:15Z</time>
      </trkpt>
      <trkpt lat="43.61008" lon="1.37711">
        <ele>145</ele>
        <time>2024-07-09T14:40:16Z</time>
      </trkpt>
      <trkpt lat="43.61005" lon="1.37719">
        <ele>144.8</ele>
        <time>2024-07-09T14:40:17Z</time>
      </trkpt>
      <trkpt lat="43.61002" lon="1.37728">
        <ele>144.8</ele>
        <time>2024-07-09T14:40:18Z</time>
      </trkpt>
      <trkpt lat="43.61" lon="1.37737">
        <ele>144.6</ele>
        <time>2024-07-09T14:40:19Z</time>
      </trkpt>
      <trkpt lat="43.60996" lon="1.37746">
        <ele>144.6</ele>
        <time>2024-07-09T14:40:20Z</time>
      </trkpt>
      <trkpt lat="43.60994" lon="1.37755">
        <ele>144.2</ele>
        <time>2024-07-09T14:40:21Z</time>
      </trkpt>
      <trkpt lat="43.60992" lon="1.37764">
        <ele>144</ele>
        <time>2024-07-09T14:40:22Z</time>
      </trkpt>
      <trkpt lat="43.6099" lon="1.37772">
        <ele>143.8</ele>
        <time>2024-07-09T14:40:23Z</time>
      </trkpt>
      <trkpt lat="43.60987" lon="1.37781">
        <ele>143.4</ele>
        <time>2024-07-09T14:40:24Z</time>
      </trkpt>
      <trkpt lat="43.60985" lon="1.37791">
        <ele>143.4</ele>
        <time>2024-07-09T14:40:25Z</time>
      </trkpt>
      <trkpt lat="43.60982" lon="1.37801">
        <ele>143.2</ele>
        <time>2024-07-09T14:40:26Z</time>
      </trkpt>
      <trkpt lat="43.60979" lon="1.37811">
        <ele>143.2</ele>
        <time>2024-07-09T14:40:27Z</time>
      </trkpt>
      <trkpt lat="43.60975" lon="1.37821">
        <ele>143</ele>
        <time>2024-07-09T14:40:28Z</time>
      </trkpt>
      <trkpt lat="43.60971" lon="1.37832">
        <ele>143</ele>
        <time>2024-07-09T14:40:29Z</time>
      </trkpt>
      <trkpt lat="43.60969" lon="1.37842">
        <ele>143</ele>
        <time>2024-07-09T14:40:30Z</time>
      </trkpt>
      <trkpt lat="43.60967" lon="1.37852">
        <ele>143</ele>
        <time>2024-07-09T14:40:31Z</time>
      </trkpt>
      <trkpt lat="43.60965" lon="1.37862">
        <ele>143</ele>
        <time>2024-07-09T14:40:32Z</time>
      </trkpt>
      <trkpt lat="43.60961" lon="1.37874">
        <ele>143</ele>
        <time>2024-07-09T14:40:33Z</time>
      </trkpt>
      <trkpt lat="43.60958" lon="1.37885">
        <ele>142.8</ele>
        <time>2024-07-09T14:40:34Z</time>
      </trkpt>
      <trkpt lat="43.60956" lon="1.37895">
        <ele>142.8</ele>
        <time>2024-07-09T14:40:35Z</time>
      </trkpt>
      <trkpt lat="43.60953" lon="1.37906">
        <ele>142.6</ele>
        <time>2024-07-09T14:40:36Z</time>
      </trkpt>
      <trkpt lat="43.60949" lon="1.37917">
        <ele>142.6</ele>
        <time>2024-07-09T14:40:37Z</time>
      </trkpt>
      <trkpt lat="43.60945" lon="1.37929">
        <ele>142.6</ele>
        <time>2024-07-09T14:40:38Z</time>
      </trkpt>
      <trkpt lat="43.60942" lon="1.37941">
        <ele>142.4</ele>
        <time>2024-07-09T14:40:39Z</time>
      </trkpt>
      <trkpt lat="43.60938" lon="1.37953">
        <ele>142.2</ele>
        <time>2024-07-09T14:40:40Z</time>
      </trkpt>
      <trkpt lat="43.60936" lon="1.37965">
        <ele>142</ele>
        <time>2024-07-09T14:40:41Z</time>
      </trkpt>
      <trkpt lat="43.60933" lon="1.37975">
        <ele>142</ele>
        <time>2024-07-09T14:40:42Z</time>
      </trkpt>
      <trkpt lat="43.60929" lon="1.37985">
        <ele>141.6</ele>
        <time>2024-07-09T14:40:43Z</time>
      </trkpt>
      <trkpt lat="43.60925" lon="1.37994">
        <ele>141.2</ele>
        <time>2024-07-09T14:40:44Z</time>
      </trkpt>
      <trkpt lat="43.60922" lon="1.38">
        <ele>141.2</ele>
        <time>2024-07-09T14:40:45Z</time>
      </trkpt>
      <trkpt lat="43.6092" lon="1.38006">
        <ele>140.8</ele>
        <time>2024-07-09T14:40:46Z</time>
      </trkpt>
      <trkpt lat="43.60917" lon="1.38012">
        <ele>140.6</ele>
        <time>2024-07-09T14:40:47Z</time>
      </trkpt>
      <trkpt lat="43.60915" lon="1.38019">
        <ele>140.4</ele>
        <time>2024-07-09T14:40:48Z</time>
      </trkpt>
      <trkpt lat="43.60914" lon="1.38027">
        <ele>140.2</ele>
        <time>2024-07-09T14:40:49Z</time>
      </trkpt>
      <trkpt lat="43.60912" lon="1.38035">
        <ele>140</ele>
        <time>2024-07-09T14:40:50Z</time>
      </trkpt>
      <trkpt lat="43.60911" lon="1.38043">
        <ele>139.8</ele>
        <time>2024-07-09T14:40:51Z</time>
      </trkpt>
      <trkpt lat="43.6091" lon="1.38051">
        <ele>139.6</ele>
        <time>2024-07-09T14:40:52Z</time>
      </trkpt>
      <trkpt lat="43.60909" lon="1.38059">
        <ele>139.4</ele>
        <time>2024-07-09T14:40:53Z</time>
      </trkpt>
      <trkpt lat="43.60908" lon="1.38067">
        <ele>139.2</ele>
        <time>2024-07-09T14:40:54Z</time>
      </trkpt>
      <trkpt lat="43.60907" lon="1.38075">
        <ele>139</ele>
        <time>2024-07-09T14:40:55Z</time>
      </trkpt>
      <trkpt lat="43.60904" lon="1.38083">
        <ele>138.6</ele>
        <time>2024-07-09T14:40:56Z</time>
      </trkpt>
      <trkpt lat="43.60901" lon="1.38091">
        <ele>138.6</ele>
        <time>2024-07-09T14:40:57Z</time>
      </trkpt>
      <trkpt lat="43.60897" lon="1.38099">
        <ele>138.2</ele>
        <time>2024-07-09T14:40:58Z</time>
      </trkpt>
      <trkpt lat="43.60894" lon="1.38106">
        <ele>138</ele>
        <time>2024-07-09T14:40:59Z</time>
      </trkpt>
      <trkpt lat="43.60889" lon="1.38114">
        <ele>137.8</ele>
        <time>2024-07-09T14:41:00Z</time>
      </trkpt>
      <trkpt lat="43.60885" lon="1.38122">
        <ele>137.4</ele>
        <time>2024-07-09T14:41:01Z</time>
      </trkpt>
      <trkpt lat="43.6088" lon="1.3813">
        <ele>137.4</ele>
        <time>2024-07-09T14:41:02Z</time>
      </trkpt>
      <trkpt lat="43.60876" lon="1.38138">
        <ele>137</ele>
        <time>2024-07-09T14:41:03Z</time>
      </trkpt>
      <trkpt lat="43.60871" lon="1.38147">
        <ele>137</ele>
        <time>2024-07-09T14:41:04Z</time>
      </trkpt>
      <trkpt lat="43.60866" lon="1.38155">
        <ele>136.6</ele>
        <time>2024-07-09T14:41:05Z</time>
      </trkpt>
      <trkpt lat="43.60861" lon="1.38164">
        <ele>136.6</ele>
        <time>2024-07-09T14:41:06Z</time>
      </trkpt>
      <trkpt lat="43.60856" lon="1.38173">
        <ele>136.4</ele>
        <time>2024-07-09T14:41:07Z</time>
      </trkpt>
      <trkpt lat="43.60851" lon="1.38182">
        <ele>136</ele>
        <time>2024-07-09T14:41:08Z</time>
      </trkpt>
      <trkpt lat="43.60846" lon="1.38192">
        <ele>136</ele>
        <time>2024-07-09T14:41:09Z</time>
      </trkpt>
      <trkpt lat="43.60842" lon="1.38201">
        <ele>135.6</ele>
        <time>2024-07-09T14:41:10Z</time>
      </trkpt>
      <trkpt lat="43.60839" lon="1.38209">
        <ele>135.4</ele>
        <time>2024-07-09T14:41:11Z</time>
      </trkpt>
      <trkpt lat="43.60837" lon="1.38218">
        <ele>135.2</ele>
        <time>2024-07-09T14:41:12Z</time>
      </trkpt>
      <trkpt lat="43.60834" lon="1.38227">
        <ele>135</ele>
        <time>2024-07-09T14:41:13Z</time>
      </trkpt>
      <trkpt lat="43.60832" lon="1.38236">
        <ele>134.8</ele>
        <time>2024-07-09T14:41:14Z</time>
      </trkpt>
      <trkpt lat="43.60831" lon="1.38245">
        <ele>134.6</ele>
        <time>2024-07-09T14:41:15Z</time>
      </trkpt>
      <trkpt lat="43.60829" lon="1.38255">
        <ele>134.4</ele>
        <time>2024-07-09T14:41:16Z</time>
      </trkpt>
      <trkpt lat="43.60828" lon="1.38264">
        <ele>134.2</ele>
        <time>2024-07-09T14:41:17Z</time>
      </trkpt>
      <trkpt lat="43.60828" lon="1.38271">
        <ele>134</ele>
        <time>2024-07-09T14:41:18Z</time>
      </trkpt>
      <trkpt lat="43.60827" lon="1.38277">
        <ele>133.8</ele>
        <time>2024-07-09T14:41:19Z</time>
      </trkpt>
      <trkpt lat="43.60827" lon="1.38281">
        <ele>133.6</ele>
        <time>2024-07-09T14:41:20Z</time>
      </trkpt>
      <trkpt lat="43.60827" lon="1.38285">
        <ele>133.6</ele>
        <time>2024-07-09T14:41:21Z</time>
      </trkpt>
      <trkpt lat="43.60827" lon="1.38289">
        <ele>133.4</ele>
        <time>2024-07-09T14:41:22Z</time>
      </trkpt>
      <trkpt lat="43.60827" lon="1.38291">
        <ele>133.4</ele>
        <time>2024-07-09T14:41:23Z</time>
      </trkpt>
      <trkpt lat="43.60828" lon="1.38293">
        <ele>133.2</ele>
        <time>2024-07-09T14:41:24Z</time>
      </trkpt>
      <trkpt lat="43.60828" lon="1.38294">
        <ele>133.2</ele>
        <time>2024-07-09T14:41:25Z</time>
      </trkpt>
      <trkpt lat="43.60828" lon="1.38295">
        <ele>133.2</ele>
        <time>2024-07-09T14:41:26Z</time>
      </trkpt>
      <trkpt lat="43.60828" lon="1.38295">
        <ele>133.2</ele>
        <time>2024-07-09T14:41:27Z</time>
      </trkpt>
      <trkpt lat="43.60828" lon="1.38295">
        <ele>133.2</ele>
        <time>2024-07-09T14:41:28Z</time>
      </trkpt>
      <trkpt lat="43.60828" lon="1.38295">
        <ele>133.2</ele>
        <time>2024-07-09T14:41:29Z</time>
      </trkpt>
      <trkpt lat="43.60828" lon="1.38304">
        <ele>133</ele>
        <time>2024-07-09T14:41:46Z</time>
      </trkpt>
      <trkpt lat="43.60828" lon="1.38309">
        <ele>133</ele>
        <time>2024-07-09T14:41:47Z</time>
      </trkpt>
      <trkpt lat="43.60829" lon="1.38316">
        <ele>133</ele>
        <time>2024-07-09T14:41:48Z</time>
      </trkpt>
      <trkpt lat="43.60829" lon="1.38324">
        <ele>132.8</ele>
        <time>2024-07-09T14:41:49Z</time>
      </trkpt>
      <trkpt lat="43.6083" lon="1.38332">
        <ele>132.8</ele>
        <time>2024-07-09T14:41:50Z</time>
      </trkpt>
      <trkpt lat="43.60831" lon="1.38341">
        <ele>132.8</ele>
        <time>2024-07-09T14:41:51Z</time>
      </trkpt>
      <trkpt lat="43.60832" lon="1.3835">
        <ele>132.8</ele>
        <time>2024-07-09T14:41:52Z</time>
      </trkpt>
      <trkpt lat="43.60833" lon="1.38359">
        <ele>132.8</ele>
        <time>2024-07-09T14:41:53Z</time>
      </trkpt>
      <trkpt lat="43.60833" lon="1.38368">
        <ele>132.6</ele>
        <time>2024-07-09T14:41:54Z</time>
      </trkpt>
      <trkpt lat="43.60834" lon="1.38377">
        <ele>132.6</ele>
        <time>2024-07-09T14:41:55Z</time>
      </trkpt>
      <trkpt lat="43.60835" lon="1.38386">
        <ele>132.8</ele>
        <time>2024-07-09T14:41:56Z</time>
      </trkpt>
      <trkpt lat="43.60836" lon="1.38395">
        <ele>132.8</ele>
        <time>2024-07-09T14:41:57Z</time>
      </trkpt>
      <trkpt lat="43.60837" lon="1.38404">
        <ele>132.8</ele>
        <time>2024-07-09T14:41:58Z</time>
      </trkpt>
      <trkpt lat="43.60838" lon="1.38414">
        <ele>133</ele>
        <time>2024-07-09T14:41:59Z</time>
      </trkpt>
      <trkpt lat="43.6084" lon="1.38423">
        <ele>133.2</ele>
        <time>2024-07-09T14:42:00Z</time>
      </trkpt>
      <trkpt lat="43.60841" lon="1.38432">
        <ele>133.4</ele>
        <time>2024-07-09T14:42:01Z</time>
      </trkpt>
      <trkpt lat="43.60842" lon="1.38442">
        <ele>133.6</ele>
        <time>2024-07-09T14:42:02Z</time>
      </trkpt>
      <trkpt lat="43.60844" lon="1.38451">
        <ele>133.8</ele>
        <time>2024-07-09T14:42:03Z</time>
      </trkpt>
      <trkpt lat="43.60845" lon="1.3846">
        <ele>133.8</ele>
        <time>2024-07-09T14:42:04Z</time>
      </trkpt>
      <trkpt lat="43.60847" lon="1.38469">
        <ele>134</ele>
        <time>2024-07-09T14:42:05Z</time>
      </trkpt>
      <trkpt lat="43.60848" lon="1.38478">
        <ele>134</ele>
        <time>2024-07-09T14:42:06Z</time>
      </trkpt>
      <trkpt lat="43.60849" lon="1.38487">
        <ele>134.2</ele>
        <time>2024-07-09T14:42:07Z</time>
      </trkpt>
      <trkpt lat="43.60851" lon="1.38496">
        <ele>134.4</ele>
        <time>2024-07-09T14:42:08Z</time>
      </trkpt>
      <trkpt lat="43.60852" lon="1.38505">
        <ele>134.8</ele>
        <time>2024-07-09T14:42:09Z</time>
      </trkpt>
      <trkpt lat="43.60854" lon="1.38513">
        <ele>135</ele>
        <time>2024-07-09T14:42:10Z</time>
      </trkpt>
      <trkpt lat="43.60855" lon="1.38521">
        <ele>135.2</ele>
        <time>2024-07-09T14:42:11Z</time>
      </trkpt>
      <trkpt lat="43.60855" lon="1.38529">
        <ele>135.4</ele>
        <time>2024-07-09T14:42:12Z</time>
      </trkpt>
      <trkpt lat="43.60854" lon="1.38533">
        <ele>135.4</ele>
        <time>2024-07-09T14:42:13Z</time>
      </trkpt>
      <trkpt lat="43.60853" lon="1.38535">
        <ele>135.4</ele>
        <time>2024-07-09T14:42:14Z</time>
      </trkpt>
      <trkpt lat="43.60851" lon="1.38537">
        <ele>135.4</ele>
        <time>2024-07-09T14:42:15Z</time>
      </trkpt>
      <trkpt lat="43.60848" lon="1.38539">
        <ele>135.4</ele>
        <time>2024-07-09T14:42:16Z</time>
      </trkpt>
      <trkpt lat="43.60844" lon="1.38539">
        <ele>135.4</ele>
        <time>2024-07-09T14:42:17Z</time>
      </trkpt>
      <trkpt lat="43.60838" lon="1.38539">
        <ele>135.4</ele>
        <time>2024-07-09T14:42:18Z</time>
      </trkpt>
      <trkpt lat="43.60832" lon="1.3854">
        <ele>135.4</ele>
        <time>2024-07-09T14:42:19Z</time>
      </trkpt>
      <trkpt lat="43.60826" lon="1.38543">
        <ele>135.4</ele>
        <time>2024-07-09T14:42:20Z</time>
      </trkpt>
      <trkpt lat="43.60822" lon="1.38548">
        <ele>135.2</ele>
        <time>2024-07-09T14:42:21Z</time>
      </trkpt>
      <trkpt lat="43.60819" lon="1.38554">
        <ele>135.2</ele>
        <time>2024-07-09T14:42:22Z</time>
      </trkpt>
      <trkpt lat="43.60816" lon="1.3856">
        <ele>135</ele>
        <time>2024-07-09T14:42:23Z</time>
      </trkpt>
      <trkpt lat="43.60814" lon="1.38564">
        <ele>135.2</ele>
        <time>2024-07-09T14:42:24Z</time>
      </trkpt>
      <trkpt lat="43.60811" lon="1.38568">
        <ele>135.2</ele>
        <time>2024-07-09T14:42:25Z</time>
      </trkpt>
      <trkpt lat="43.60809" lon="1.38571">
        <ele>135.4</ele>
        <time>2024-07-09T14:42:26Z</time>
      </trkpt>
      <trkpt lat="43.60807" lon="1.38573">
        <ele>135.6</ele>
        <time>2024-07-09T14:42:27Z</time>
      </trkpt>
      <trkpt lat="43.60806" lon="1.38575">
        <ele>136.2</ele>
        <time>2024-07-09T14:42:28Z</time>
      </trkpt>
      <trkpt lat="43.60804" lon="1.38577">
        <ele>136.6</ele>
        <time>2024-07-09T14:42:29Z</time>
      </trkpt>
      <trkpt lat="43.60802" lon="1.38578">
        <ele>137</ele>
        <time>2024-07-09T14:42:30Z</time>
      </trkpt>
      <trkpt lat="43.608" lon="1.38581">
        <ele>137.4</ele>
        <time>2024-07-09T14:42:31Z</time>
      </trkpt>
      <trkpt lat="43.60799" lon="1.38583">
        <ele>138</ele>
        <time>2024-07-09T14:42:32Z</time>
      </trkpt>
      <trkpt lat="43.60797" lon="1.38586">
        <ele>138.8</ele>
        <time>2024-07-09T14:42:33Z</time>
      </trkpt>
      <trkpt lat="43.60796" lon="1.38588">
        <ele>139</ele>
        <time>2024-07-09T14:42:34Z</time>
      </trkpt>
      <trkpt lat="43.60795" lon="1.3859">
        <ele>139.2</ele>
        <time>2024-07-09T14:42:35Z</time>
      </trkpt>
      <trkpt lat="43.60794" lon="1.38593">
        <ele>139.6</ele>
        <time>2024-07-09T14:42:36Z</time>
      </trkpt>
      <trkpt lat="43.60793" lon="1.38596">
        <ele>140.2</ele>
        <time>2024-07-09T14:42:37Z</time>
      </trkpt>
      <trkpt lat="43.60791" lon="1.38599">
        <ele>140.8</ele>
        <time>2024-07-09T14:42:38Z</time>
      </trkpt>
      <trkpt lat="43.6079" lon="1.38602">
        <ele>141</ele>
        <time>2024-07-09T14:42:39Z</time>
      </trkpt>
      <trkpt lat="43.60789" lon="1.38606">
        <ele>141.6</ele>
        <time>2024-07-09T14:42:40Z</time>
      </trkpt>
      <trkpt lat="43.60787" lon="1.38609">
        <ele>141.8</ele>
        <time>2024-07-09T14:42:41Z</time>
      </trkpt>
      <trkpt lat="43.60784" lon="1.38609">
        <ele>142.4</ele>
        <time>2024-07-09T14:42:42Z</time>
      </trkpt>
      <trkpt lat="43.60781" lon="1.38609">
        <ele>142.6</ele>
        <time>2024-07-09T14:42:43Z</time>
      </trkpt>
      <trkpt lat="43.60777" lon="1.38608">
        <ele>142.8</ele>
        <time>2024-07-09T14:42:44Z</time>
      </trkpt>
      <trkpt lat="43.60773" lon="1.38607">
        <ele>143.2</ele>
        <time>2024-07-09T14:42:45Z</time>
      </trkpt>
      <trkpt lat="43.6077" lon="1.38606">
        <ele>143.4</ele>
        <time>2024-07-09T14:42:46Z</time>
      </trkpt>
      <trkpt lat="43.60765" lon="1.38606">
        <ele>143.4</ele>
        <time>2024-07-09T14:42:47Z</time>
      </trkpt>
      <trkpt lat="43.60761" lon="1.38606">
        <ele>143.8</ele>
        <time>2024-07-09T14:42:48Z</time>
      </trkpt>
      <trkpt lat="43.60757" lon="1.38605">
        <ele>143.8</ele>
        <time>2024-07-09T14:42:49Z</time>
      </trkpt>
      <trkpt lat="43.60753" lon="1.38604">
        <ele>144</ele>
        <time>2024-07-09T14:42:50Z</time>
      </trkpt>
      <trkpt lat="43.60749" lon="1.38604">
        <ele>144</ele>
        <time>2024-07-09T14:42:51Z</time>
      </trkpt>
      <trkpt lat="43.60744" lon="1.38603">
        <ele>144.2</ele>
        <time>2024-07-09T14:42:52Z</time>
      </trkpt>
      <trkpt lat="43.6074" lon="1.38602">
        <ele>144.2</ele>
        <time>2024-07-09T14:42:53Z</time>
      </trkpt>
      <trkpt lat="43.60736" lon="1.38603">
        <ele>144.2</ele>
        <time>2024-07-09T14:42:54Z</time>
      </trkpt>
      <trkpt lat="43.60731" lon="1.38604">
        <ele>144.4</ele>
        <time>2024-07-09T14:42:55Z</time>
      </trkpt>
      <trkpt lat="43.60727" lon="1.38604">
        <ele>144.4</ele>
        <time>2024-07-09T14:42:56Z</time>
      </trkpt>
      <trkpt lat="43.60722" lon="1.38606">
        <ele>144.4</ele>
        <time>2024-07-09T14:42:57Z</time>
      </trkpt>
      <trkpt lat="43.60718" lon="1.38607">
        <ele>144.4</ele>
        <time>2024-07-09T14:42:58Z</time>
      </trkpt>
      <trkpt lat="43.60714" lon="1.38608">
        <ele>144.4</ele>
        <time>2024-07-09T14:42:59Z</time>
      </trkpt>
      <trkpt lat="43.60709" lon="1.38609">
        <ele>144.6</ele>
        <time>2024-07-09T14:43:00Z</time>
      </trkpt>
      <trkpt lat="43.60703" lon="1.38611">
        <ele>144.6</ele>
        <time>2024-07-09T14:43:01Z</time>
      </trkpt>
      <trkpt lat="43.60699" lon="1.38611">
        <ele>144.6</ele>
        <time>2024-07-09T14:43:02Z</time>
      </trkpt>
      <trkpt lat="43.60695" lon="1.38611">
        <ele>144.6</ele>
        <time>2024-07-09T14:43:03Z</time>
      </trkpt>
      <trkpt lat="43.6069" lon="1.38612">
        <ele>144.6</ele>
        <time>2024-07-09T14:43:04Z</time>
      </trkpt>
      <trkpt lat="43.60685" lon="1.38612">
        <ele>144.6</ele>
        <time>2024-07-09T14:43:05Z</time>
      </trkpt>
      <trkpt lat="43.6068" lon="1.38612">
        <ele>144.6</ele>
        <time>2024-07-09T14:43:06Z</time>
      </trkpt>
      <trkpt lat="43.60676" lon="1.38611">
        <ele>144.8</ele>
        <time>2024-07-09T14:43:07Z</time>
      </trkpt>
      <trkpt lat="43.60672" lon="1.3861">
        <ele>144.8</ele>
        <time>2024-07-09T14:43:08Z</time>
      </trkpt>
      <trkpt lat="43.60668" lon="1.38608">
        <ele>145</ele>
        <time>2024-07-09T14:43:09Z</time>
      </trkpt>
      <trkpt lat="43.60664" lon="1.38607">
        <ele>145</ele>
        <time>2024-07-09T14:43:10Z</time>
      </trkpt>
      <trkpt lat="43.6066" lon="1.38606">
        <ele>145.2</ele>
        <time>2024-07-09T14:43:11Z</time>
      </trkpt>
      <trkpt lat="43.60655" lon="1.38603">
        <ele>145.2</ele>
        <time>2024-07-09T14:43:12Z</time>
      </trkpt>
      <trkpt lat="43.6065" lon="1.38601">
        <ele>145.2</ele>
        <time>2024-07-09T14:43:13Z</time>
      </trkpt>
      <trkpt lat="43.60646" lon="1.38599">
        <ele>145.4</ele>
        <time>2024-07-09T14:43:14Z</time>
      </trkpt>
      <trkpt lat="43.60641" lon="1.38596">
        <ele>145.4</ele>
        <time>2024-07-09T14:43:15Z</time>
      </trkpt>
      <trkpt lat="43.60637" lon="1.38592">
        <ele>145.4</ele>
        <time>2024-07-09T14:43:16Z</time>
      </trkpt>
      <trkpt lat="43.60634" lon="1.38587">
        <ele>145.4</ele>
        <time>2024-07-09T14:43:17Z</time>
      </trkpt>
      <trkpt lat="43.60632" lon="1.38581">
        <ele>145.4</ele>
        <time>2024-07-09T14:43:18Z</time>
      </trkpt>
      <trkpt lat="43.60631" lon="1.38574">
        <ele>145.4</ele>
        <time>2024-07-09T14:43:19Z</time>
      </trkpt>
      <trkpt lat="43.60629" lon="1.38568">
        <ele>145.4</ele>
        <time>2024-07-09T14:43:20Z</time>
      </trkpt>
      <trkpt lat="43.60627" lon="1.38562">
        <ele>145.4</ele>
        <time>2024-07-09T14:43:21Z</time>
      </trkpt>
      <trkpt lat="43.60626" lon="1.38556">
        <ele>145.4</ele>
        <time>2024-07-09T14:43:22Z</time>
      </trkpt>
      <trkpt lat="43.60625" lon="1.3855">
        <ele>145.4</ele>
        <time>2024-07-09T14:43:23Z</time>
      </trkpt>
      <trkpt lat="43.60624" lon="1.38545">
        <ele>145.4</ele>
        <time>2024-07-09T14:43:24Z</time>
      </trkpt>
      <trkpt lat="43.60623" lon="1.3854">
        <ele>145.2</ele>
        <time>2024-07-09T14:43:25Z</time>
      </trkpt>
      <trkpt lat="43.60622" lon="1.38535">
        <ele>145.4</ele>
        <time>2024-07-09T14:43:26Z</time>
      </trkpt>
      <trkpt lat="43.60621" lon="1.38529">
        <ele>145.4</ele>
        <time>2024-07-09T14:43:27Z</time>
      </trkpt>
      <trkpt lat="43.60621" lon="1.38525">
        <ele>145.2</ele>
        <time>2024-07-09T14:43:28Z</time>
      </trkpt>
      <trkpt lat="43.60622" lon="1.38522">
        <ele>145.2</ele>
        <time>2024-07-09T14:43:29Z</time>
      </trkpt>
      <trkpt lat="43.60622" lon="1.38519">
        <ele>145</ele>
        <time>2024-07-09T14:43:30Z</time>
      </trkpt>
      <trkpt lat="43.60623" lon="1.38515">
        <ele>144.8</ele>
        <time>2024-07-09T14:43:31Z</time>
      </trkpt>
      <trkpt lat="43.60625" lon="1.3851">
        <ele>144.8</ele>
        <time>2024-07-09T14:43:32Z</time>
      </trkpt>
      <trkpt lat="43.60627" lon="1.38502">
        <ele>144.4</ele>
        <time>2024-07-09T14:43:33Z</time>
      </trkpt>
      <trkpt lat="43.6063" lon="1.38492">
        <ele>144</ele>
        <time>2024-07-09T14:43:34Z</time>
      </trkpt>
      <trkpt lat="43.60633" lon="1.3848">
        <ele>143.6</ele>
        <time>2024-07-09T14:43:35Z</time>
      </trkpt>
      <trkpt lat="43.60634" lon="1.38467">
        <ele>142.8</ele>
        <time>2024-07-09T14:43:36Z</time>
      </trkpt>
      <trkpt lat="43.60635" lon="1.38455">
        <ele>142.4</ele>
        <time>2024-07-09T14:43:37Z</time>
      </trkpt>
      <trkpt lat="43.60636" lon="1.38444">
        <ele>141.4</ele>
        <time>2024-07-09T14:43:38Z</time>
      </trkpt>
      <trkpt lat="43.60638" lon="1.38432">
        <ele>141</ele>
        <time>2024-07-09T14:43:39Z</time>
      </trkpt>
      <trkpt lat="43.60641" lon="1.38421">
        <ele>139.8</ele>
        <time>2024-07-09T14:43:40Z</time>
      </trkpt>
      <trkpt lat="43.60643" lon="1.38409">
        <ele>139.2</ele>
        <time>2024-07-09T14:43:41Z</time>
      </trkpt>
      <trkpt lat="43.60646" lon="1.38396">
        <ele>138.8</ele>
        <time>2024-07-09T14:43:42Z</time>
      </trkpt>
      <trkpt lat="43.60648" lon="1.38382">
        <ele>138.2</ele>
        <time>2024-07-09T14:43:43Z</time>
      </trkpt>
      <trkpt lat="43.6065" lon="1.3837">
        <ele>138</ele>
        <time>2024-07-09T14:43:44Z</time>
      </trkpt>
      <trkpt lat="43.60655" lon="1.38358">
        <ele>137.8</ele>
        <time>2024-07-09T14:43:45Z</time>
      </trkpt>
      <trkpt lat="43.6066" lon="1.38346">
        <ele>136.8</ele>
        <time>2024-07-09T14:43:46Z</time>
      </trkpt>
      <trkpt lat="43.60665" lon="1.38336">
        <ele>136.4</ele>
        <time>2024-07-09T14:43:47Z</time>
      </trkpt>
      <trkpt lat="43.60669" lon="1.38325">
        <ele>136</ele>
        <time>2024-07-09T14:43:48Z</time>
      </trkpt>
      <trkpt lat="43.60674" lon="1.38315">
        <ele>135.8</ele>
        <time>2024-07-09T14:43:49Z</time>
      </trkpt>
      <trkpt lat="43.60678" lon="1.38305">
        <ele>135.4</ele>
        <time>2024-07-09T14:43:50Z</time>
      </trkpt>
      <trkpt lat="43.60683" lon="1.38296">
        <ele>135</ele>
        <time>2024-07-09T14:43:51Z</time>
      </trkpt>
      <trkpt lat="43.60689" lon="1.38286">
        <ele>134.8</ele>
        <time>2024-07-09T14:43:52Z</time>
      </trkpt>
      <trkpt lat="43.60693" lon="1.38276">
        <ele>134.6</ele>
        <time>2024-07-09T14:43:53Z</time>
      </trkpt>
      <trkpt lat="43.60696" lon="1.38265">
        <ele>134.6</ele>
        <time>2024-07-09T14:43:54Z</time>
      </trkpt>
      <trkpt lat="43.60702" lon="1.38256">
        <ele>134.2</ele>
        <time>2024-07-09T14:43:55Z</time>
      </trkpt>
      <trkpt lat="43.60706" lon="1.38248">
        <ele>134.2</ele>
        <time>2024-07-09T14:43:56Z</time>
      </trkpt>
      <trkpt lat="43.6071" lon="1.3824">
        <ele>134</ele>
        <time>2024-07-09T14:43:57Z</time>
      </trkpt>
      <trkpt lat="43.60715" lon="1.38232">
        <ele>133.4</ele>
        <time>2024-07-09T14:43:58Z</time>
      </trkpt>
      <trkpt lat="43.60719" lon="1.38224">
        <ele>133.2</ele>
        <time>2024-07-09T14:43:59Z</time>
      </trkpt>
      <trkpt lat="43.60723" lon="1.38217">
        <ele>133</ele>
        <time>2024-07-09T14:44:00Z</time>
      </trkpt>
      <trkpt lat="43.60728" lon="1.3821">
        <ele>133</ele>
        <time>2024-07-09T14:44:01Z</time>
      </trkpt>
      <trkpt lat="43.60732" lon="1.38201">
        <ele>133</ele>
        <time>2024-07-09T14:44:02Z</time>
      </trkpt>
      <trkpt lat="43.60736" lon="1.38193">
        <ele>132.8</ele>
        <time>2024-07-09T14:44:03Z</time>
      </trkpt>
      <trkpt lat="43.6074" lon="1.38185">
        <ele>132.6</ele>
        <time>2024-07-09T14:44:04Z</time>
      </trkpt>
      <trkpt lat="43.60745" lon="1.38178">
        <ele>132.4</ele>
        <time>2024-07-09T14:44:05Z</time>
      </trkpt>
      <trkpt lat="43.6075" lon="1.38171">
        <ele>132.6</ele>
        <time>2024-07-09T14:44:06Z</time>
      </trkpt>
      <trkpt lat="43.60755" lon="1.38165">
        <ele>132.4</ele>
        <time>2024-07-09T14:44:07Z</time>
      </trkpt>
      <trkpt lat="43.6076" lon="1.3816">
        <ele>132.2</ele>
        <time>2024-07-09T14:44:08Z</time>
      </trkpt>
      <trkpt lat="43.60765" lon="1.38154">
        <ele>132.2</ele>
        <time>2024-07-09T14:44:09Z</time>
      </trkpt>
      <trkpt lat="43.60769" lon="1.38149">
        <ele>132.4</ele>
        <time>2024-07-09T14:44:10Z</time>
      </trkpt>
      <trkpt lat="43.60773" lon="1.38143">
        <ele>132.4</ele>
        <time>2024-07-09T14:44:11Z</time>
      </trkpt>
      <trkpt lat="43.60776" lon="1.38135">
        <ele>132.4</ele>
        <time>2024-07-09T14:44:12Z</time>
      </trkpt>
      <trkpt lat="43.60778" lon="1.38127">
        <ele>132.4</ele>
        <time>2024-07-09T14:44:13Z</time>
      </trkpt>
      <trkpt lat="43.6078" lon="1.38119">
        <ele>132.4</ele>
        <time>2024-07-09T14:44:14Z</time>
      </trkpt>
      <trkpt lat="43.60782" lon="1.38111">
        <ele>132.4</ele>
        <time>2024-07-09T14:44:15Z</time>
      </trkpt>
      <trkpt lat="43.60784" lon="1.38104">
        <ele>132.4</ele>
        <time>2024-07-09T14:44:16Z</time>
      </trkpt>
      <trkpt lat="43.60787" lon="1.38096">
        <ele>132.6</ele>
        <time>2024-07-09T14:44:17Z</time>
      </trkpt>
      <trkpt lat="43.6079" lon="1.38089">
        <ele>132.6</ele>
        <time>2024-07-09T14:44:18Z</time>
      </trkpt>
      <trkpt lat="43.60793" lon="1.38082">
        <ele>132.6</ele>
        <time>2024-07-09T14:44:19Z</time>
      </trkpt>
      <trkpt lat="43.60795" lon="1.38075">
        <ele>132.8</ele>
        <time>2024-07-09T14:44:20Z</time>
      </trkpt>
      <trkpt lat="43.60796" lon="1.38068">
        <ele>132.8</ele>
        <time>2024-07-09T14:44:21Z</time>
      </trkpt>
      <trkpt lat="43.60799" lon="1.38061">
        <ele>132.8</ele>
        <time>2024-07-09T14:44:22Z</time>
      </trkpt>
      <trkpt lat="43.60799" lon="1.38053">
        <ele>132.8</ele>
        <time>2024-07-09T14:44:23Z</time>
      </trkpt>
      <trkpt lat="43.60798" lon="1.38045">
        <ele>132.8</ele>
        <time>2024-07-09T14:44:24Z</time>
      </trkpt>
      <trkpt lat="43.60796" lon="1.38037">
        <ele>133</ele>
        <time>2024-07-09T14:44:25Z</time>
      </trkpt>
      <trkpt lat="43.60792" lon="1.38032">
        <ele>133</ele>
        <time>2024-07-09T14:44:26Z</time>
      </trkpt>
      <trkpt lat="43.60787" lon="1.38027">
        <ele>133</ele>
        <time>2024-07-09T14:44:27Z</time>
      </trkpt>
      <trkpt lat="43.60781" lon="1.38024">
        <ele>133</ele>
        <time>2024-07-09T14:44:28Z</time>
      </trkpt>
      <trkpt lat="43.60774" lon="1.38023">
        <ele>133.2</ele>
        <time>2024-07-09T14:44:29Z</time>
      </trkpt>
      <trkpt lat="43.60768" lon="1.38021">
        <ele>133.2</ele>
        <time>2024-07-09T14:44:30Z</time>
      </trkpt>
      <trkpt lat="43.60762" lon="1.38019">
        <ele>133.2</ele>
        <time>2024-07-09T14:44:31Z</time>
      </trkpt>
      <trkpt lat="43.60756" lon="1.38017">
        <ele>133.2</ele>
        <time>2024-07-09T14:44:32Z</time>
      </trkpt>
      <trkpt lat="43.6075" lon="1.38016">
        <ele>133.2</ele>
        <time>2024-07-09T14:44:33Z</time>
      </trkpt>
      <trkpt lat="43.60744" lon="1.38016">
        <ele>133</ele>
        <time>2024-07-09T14:44:34Z</time>
      </trkpt>
      <trkpt lat="43.60737" lon="1.38018">
        <ele>133</ele>
        <time>2024-07-09T14:44:35Z</time>
      </trkpt>
      <trkpt lat="43.6073" lon="1.38019">
        <ele>132.8</ele>
        <time>2024-07-09T14:44:36Z</time>
      </trkpt>
      <trkpt lat="43.60723" lon="1.38019">
        <ele>132.8</ele>
        <time>2024-07-09T14:44:37Z</time>
      </trkpt>
      <trkpt lat="43.60716" lon="1.3802">
        <ele>132.6</ele>
        <time>2024-07-09T14:44:38Z</time>
      </trkpt>
      <trkpt lat="43.6071" lon="1.38021">
        <ele>132.4</ele>
        <time>2024-07-09T14:44:39Z</time>
      </trkpt>
      <trkpt lat="43.60704" lon="1.3802">
        <ele>132.4</ele>
        <time>2024-07-09T14:44:40Z</time>
      </trkpt>
      <trkpt lat="43.60697" lon="1.38019">
        <ele>132.4</ele>
        <time>2024-07-09T14:44:41Z</time>
      </trkpt>
      <trkpt lat="43.60693" lon="1.38017">
        <ele>132.4</ele>
        <time>2024-07-09T14:44:42Z</time>
      </trkpt>
      <trkpt lat="43.60687" lon="1.38015">
        <ele>132.6</ele>
        <time>2024-07-09T14:44:43Z</time>
      </trkpt>
      <trkpt lat="43.60682" lon="1.38013">
        <ele>132.6</ele>
        <time>2024-07-09T14:44:44Z</time>
      </trkpt>
      <trkpt lat="43.60678" lon="1.38013">
        <ele>132.6</ele>
        <time>2024-07-09T14:44:45Z</time>
      </trkpt>
      <trkpt lat="43.60674" lon="1.38015">
        <ele>132.6</ele>
        <time>2024-07-09T14:44:46Z</time>
      </trkpt>
      <trkpt lat="43.60669" lon="1.38019">
        <ele>132.8</ele>
        <time>2024-07-09T14:44:47Z</time>
      </trkpt>
      <trkpt lat="43.60664" lon="1.38023">
        <ele>133</ele>
        <time>2024-07-09T14:44:48Z</time>
      </trkpt>
      <trkpt lat="43.6066" lon="1.38029">
        <ele>133</ele>
        <time>2024-07-09T14:44:49Z</time>
      </trkpt>
      <trkpt lat="43.60655" lon="1.38034">
        <ele>133.2</ele>
        <time>2024-07-09T14:44:50Z</time>
      </trkpt>
      <trkpt lat="43.60651" lon="1.38037">
        <ele>133.2</ele>
        <time>2024-07-09T14:44:51Z</time>
      </trkpt>
      <trkpt lat="43.60646" lon="1.38039">
        <ele>133.2</ele>
        <time>2024-07-09T14:44:52Z</time>
      </trkpt>
      <trkpt lat="43.6064" lon="1.3804">
        <ele>133.2</ele>
        <time>2024-07-09T14:44:53Z</time>
      </trkpt>
      <trkpt lat="43.60634" lon="1.3804">
        <ele>133.4</ele>
        <time>2024-07-09T14:44:54Z</time>
      </trkpt>
      <trkpt lat="43.6063" lon="1.3804">
        <ele>133.4</ele>
        <time>2024-07-09T14:44:55Z</time>
      </trkpt>
      <trkpt lat="43.60627" lon="1.3804">
        <ele>133.8</ele>
        <time>2024-07-09T14:44:56Z</time>
      </trkpt>
      <trkpt lat="43.60623" lon="1.38039">
        <ele>134</ele>
        <time>2024-07-09T14:44:57Z</time>
      </trkpt>
      <trkpt lat="43.60619" lon="1.38039">
        <ele>134.4</ele>
        <time>2024-07-09T14:44:58Z</time>
      </trkpt>
      <trkpt lat="43.60615" lon="1.38039">
        <ele>134.6</ele>
        <time>2024-07-09T14:44:59Z</time>
      </trkpt>
      <trkpt lat="43.60609" lon="1.38041">
        <ele>134.6</ele>
        <time>2024-07-09T14:45:00Z</time>
      </trkpt>
      <trkpt lat="43.60604" lon="1.38042">
        <ele>135</ele>
        <time>2024-07-09T14:45:01Z</time>
      </trkpt>
      <trkpt lat="43.60599" lon="1.38041">
        <ele>135.2</ele>
        <time>2024-07-09T14:45:02Z</time>
      </trkpt>
      <trkpt lat="43.60592" lon="1.38042">
        <ele>135.2</ele>
        <time>2024-07-09T14:45:03Z</time>
      </trkpt>
      <trkpt lat="43.60586" lon="1.38042">
        <ele>135.4</ele>
        <time>2024-07-09T14:45:04Z</time>
      </trkpt>
      <trkpt lat="43.60582" lon="1.38041">
        <ele>135.4</ele>
        <time>2024-07-09T14:45:05Z</time>
      </trkpt>
      <trkpt lat="43.60578" lon="1.3804">
        <ele>135.6</ele>
        <time>2024-07-09T14:45:06Z</time>
      </trkpt>
      <trkpt lat="43.60573" lon="1.38039">
        <ele>135.8</ele>
        <time>2024-07-09T14:45:07Z</time>
      </trkpt>
      <trkpt lat="43.60568" lon="1.38037">
        <ele>135.8</ele>
        <time>2024-07-09T14:45:08Z</time>
      </trkpt>
      <trkpt lat="43.60562" lon="1.38036">
        <ele>135.8</ele>
        <time>2024-07-09T14:45:09Z</time>
      </trkpt>
      <trkpt lat="43.60556" lon="1.38036">
        <ele>135.8</ele>
        <time>2024-07-09T14:45:10Z</time>
      </trkpt>
      <trkpt lat="43.60551" lon="1.38034">
        <ele>135.8</ele>
        <time>2024-07-09T14:45:11Z</time>
      </trkpt>
      <trkpt lat="43.60545" lon="1.38031">
        <ele>135.8</ele>
        <time>2024-07-09T14:45:12Z</time>
      </trkpt>
      <trkpt lat="43.6054" lon="1.38027">
        <ele>135.8</ele>
        <time>2024-07-09T14:45:13Z</time>
      </trkpt>
      <trkpt lat="43.60537" lon="1.38022">
        <ele>135.8</ele>
        <time>2024-07-09T14:45:14Z</time>
      </trkpt>
      <trkpt lat="43.60533" lon="1.38016">
        <ele>135.6</ele>
        <time>2024-07-09T14:45:15Z</time>
      </trkpt>
      <trkpt lat="43.60529" lon="1.3801">
        <ele>135.4</ele>
        <time>2024-07-09T14:45:16Z</time>
      </trkpt>
      <trkpt lat="43.60524" lon="1.38005">
        <ele>135</ele>
        <time>2024-07-09T14:45:17Z</time>
      </trkpt>
      <trkpt lat="43.60519" lon="1.38">
        <ele>134.6</ele>
        <time>2024-07-09T14:45:18Z</time>
      </trkpt>
      <trkpt lat="43.60514" lon="1.37995">
        <ele>134.4</ele>
        <time>2024-07-09T14:45:19Z</time>
      </trkpt>
      <trkpt lat="43.60509" lon="1.3799">
        <ele>134.2</ele>
        <time>2024-07-09T14:45:20Z</time>
      </trkpt>
      <trkpt lat="43.60503" lon="1.37986">
        <ele>134</ele>
        <time>2024-07-09T14:45:21Z</time>
      </trkpt>
      <trkpt lat="43.60498" lon="1.37983">
        <ele>133.8</ele>
        <time>2024-07-09T14:45:22Z</time>
      </trkpt>
      <trkpt lat="43.60491" lon="1.3798">
        <ele>133.6</ele>
        <time>2024-07-09T14:45:23Z</time>
      </trkpt>
      <trkpt lat="43.60485" lon="1.37979">
        <ele>133.6</ele>
        <time>2024-07-09T14:45:24Z</time>
      </trkpt>
      <trkpt lat="43.60479" lon="1.37976">
        <ele>133.4</ele>
        <time>2024-07-09T14:45:25Z</time>
      </trkpt>
      <trkpt lat="43.60473" lon="1.37974">
        <ele>133.4</ele>
        <time>2024-07-09T14:45:26Z</time>
      </trkpt>
      <trkpt lat="43.60466" lon="1.37972">
        <ele>133.2</ele>
        <time>2024-07-09T14:45:27Z</time>
      </trkpt>
      <trkpt lat="43.6046" lon="1.37972">
        <ele>133.2</ele>
        <time>2024-07-09T14:45:28Z</time>
      </trkpt>
      <trkpt lat="43.60455" lon="1.37971">
        <ele>133.2</ele>
        <time>2024-07-09T14:45:29Z</time>
      </trkpt>
      <trkpt lat="43.6045" lon="1.37969">
        <ele>133.4</ele>
        <time>2024-07-09T14:45:30Z</time>
      </trkpt>
      <trkpt lat="43.60446" lon="1.37966">
        <ele>133.6</ele>
        <time>2024-07-09T14:45:31Z</time>
      </trkpt>
      <trkpt lat="43.60443" lon="1.37963">
        <ele>133.8</ele>
        <time>2024-07-09T14:45:32Z</time>
      </trkpt>
      <trkpt lat="43.60438" lon="1.37958">
        <ele>134</ele>
        <time>2024-07-09T14:45:33Z</time>
      </trkpt>
      <trkpt lat="43.60432" lon="1.37954">
        <ele>134.4</ele>
        <time>2024-07-09T14:45:34Z</time>
      </trkpt>
      <trkpt lat="43.60427" lon="1.3795">
        <ele>134.6</ele>
        <time>2024-07-09T14:45:35Z</time>
      </trkpt>
      <trkpt lat="43.60423" lon="1.37946">
        <ele>134.8</ele>
        <time>2024-07-09T14:45:36Z</time>
      </trkpt>
      <trkpt lat="43.60418" lon="1.37943">
        <ele>134.8</ele>
        <time>2024-07-09T14:45:37Z</time>
      </trkpt>
      <trkpt lat="43.60414" lon="1.3794">
        <ele>135</ele>
        <time>2024-07-09T14:45:38Z</time>
      </trkpt>
      <trkpt lat="43.60409" lon="1.37936">
        <ele>135.2</ele>
        <time>2024-07-09T14:45:39Z</time>
      </trkpt>
      <trkpt lat="43.60404" lon="1.37933">
        <ele>135.2</ele>
        <time>2024-07-09T14:45:40Z</time>
      </trkpt>
      <trkpt lat="43.60399" lon="1.37929">
        <ele>135.2</ele>
        <time>2024-07-09T14:45:41Z</time>
      </trkpt>
      <trkpt lat="43.60395" lon="1.37925">
        <ele>135.4</ele>
        <time>2024-07-09T14:45:42Z</time>
      </trkpt>
      <trkpt lat="43.60391" lon="1.37921">
        <ele>135.4</ele>
        <time>2024-07-09T14:45:43Z</time>
      </trkpt>
      <trkpt lat="43.60387" lon="1.37917">
        <ele>135.4</ele>
        <time>2024-07-09T14:45:44Z</time>
      </trkpt>
      <trkpt lat="43.60383" lon="1.37912">
        <ele>135.4</ele>
        <time>2024-07-09T14:45:45Z</time>
      </trkpt>
      <trkpt lat="43.60379" lon="1.37907">
        <ele>135.4</ele>
        <time>2024-07-09T14:45:46Z</time>
      </trkpt>
      <trkpt lat="43.60376" lon="1.37901">
        <ele>135.4</ele>
        <time>2024-07-09T14:45:47Z</time>
      </trkpt>
      <trkpt lat="43.60374" lon="1.37894">
        <ele>135.4</ele>
        <time>2024-07-09T14:45:48Z</time>
      </trkpt>
      <trkpt lat="43.60373" lon="1.37888">
        <ele>135.4</ele>
        <time>2024-07-09T14:45:49Z</time>
      </trkpt>
      <trkpt lat="43.60372" lon="1.37883">
        <ele>135.2</ele>
        <time>2024-07-09T14:45:50Z</time>
      </trkpt>
      <trkpt lat="43.60369" lon="1.37877">
        <ele>135</ele>
        <time>2024-07-09T14:45:51Z</time>
      </trkpt>
      <trkpt lat="43.60365" lon="1.37871">
        <ele>134.8</ele>
        <time>2024-07-09T14:45:52Z</time>
      </trkpt>
      <trkpt lat="43.6036" lon="1.37865">
        <ele>134.6</ele>
        <time>2024-07-09T14:45:53Z</time>
      </trkpt>
      <trkpt lat="43.60356" lon="1.37861">
        <ele>134.6</ele>
        <time>2024-07-09T14:45:54Z</time>
      </trkpt>
      <trkpt lat="43.60351" lon="1.37859">
        <ele>134.4</ele>
        <time>2024-07-09T14:45:55Z</time>
      </trkpt>
      <trkpt lat="43.60345" lon="1.37859">
        <ele>134.4</ele>
        <time>2024-07-09T14:45:56Z</time>
      </trkpt>
      <trkpt lat="43.60339" lon="1.37859">
        <ele>134.2</ele>
        <time>2024-07-09T14:45:57Z</time>
      </trkpt>
      <trkpt lat="43.60332" lon="1.3786">
        <ele>134.2</ele>
        <time>2024-07-09T14:45:58Z</time>
      </trkpt>
      <trkpt lat="43.60325" lon="1.37862">
        <ele>134.2</ele>
        <time>2024-07-09T14:45:59Z</time>
      </trkpt>
      <trkpt lat="43.60319" lon="1.37865">
        <ele>134.2</ele>
        <time>2024-07-09T14:46:00Z</time>
      </trkpt>
      <trkpt lat="43.60314" lon="1.37867">
        <ele>134.2</ele>
        <time>2024-07-09T14:46:01Z</time>
      </trkpt>
      <trkpt lat="43.60309" lon="1.37868">
        <ele>134.2</ele>
        <time>2024-07-09T14:46:02Z</time>
      </trkpt>
      <trkpt lat="43.60304" lon="1.37869">
        <ele>134.4</ele>
        <time>2024-07-09T14:46:03Z</time>
      </trkpt>
      <trkpt lat="43.60299" lon="1.37869">
        <ele>134.4</ele>
        <time>2024-07-09T14:46:04Z</time>
      </trkpt>
      <trkpt lat="43.60294" lon="1.37868">
        <ele>134.4</ele>
        <time>2024-07-09T14:46:05Z</time>
      </trkpt>
      <trkpt lat="43.60288" lon="1.37868">
        <ele>134.6</ele>
        <time>2024-07-09T14:46:06Z</time>
      </trkpt>
      <trkpt lat="43.60282" lon="1.37869">
        <ele>134.8</ele>
        <time>2024-07-09T14:46:07Z</time>
      </trkpt>
      <trkpt lat="43.60276" lon="1.37869">
        <ele>135</ele>
        <time>2024-07-09T14:46:08Z</time>
      </trkpt>
      <trkpt lat="43.6027" lon="1.37869">
        <ele>135.2</ele>
        <time>2024-07-09T14:46:09Z</time>
      </trkpt>
      <trkpt lat="43.60265" lon="1.3787">
        <ele>135.4</ele>
        <time>2024-07-09T14:46:10Z</time>
      </trkpt>
      <trkpt lat="43.60259" lon="1.3787">
        <ele>135.4</ele>
        <time>2024-07-09T14:46:11Z</time>
      </trkpt>
      <trkpt lat="43.60253" lon="1.37871">
        <ele>135.4</ele>
        <time>2024-07-09T14:46:12Z</time>
      </trkpt>
      <trkpt lat="43.60248" lon="1.37871">
        <ele>135.4</ele>
        <time>2024-07-09T14:46:13Z</time>
      </trkpt>
      <trkpt lat="43.60242" lon="1.3787">
        <ele>135.4</ele>
        <time>2024-07-09T14:46:14Z</time>
      </trkpt>
      <trkpt lat="43.60236" lon="1.37868">
        <ele>135.4</ele>
        <time>2024-07-09T14:46:15Z</time>
      </trkpt>
      <trkpt lat="43.6023" lon="1.37867">
        <ele>135.4</ele>
        <time>2024-07-09T14:46:16Z</time>
      </trkpt>
      <trkpt lat="43.60225" lon="1.37865">
        <ele>135.6</ele>
        <time>2024-07-09T14:46:17Z</time>
      </trkpt>
      <trkpt lat="43.6022" lon="1.37864">
        <ele>135.6</ele>
        <time>2024-07-09T14:46:18Z</time>
      </trkpt>
      <trkpt lat="43.60215" lon="1.37863">
        <ele>135.6</ele>
        <time>2024-07-09T14:46:19Z</time>
      </trkpt>
      <trkpt lat="43.60211" lon="1.37861">
        <ele>135.6</ele>
        <time>2024-07-09T14:46:20Z</time>
      </trkpt>
      <trkpt lat="43.60206" lon="1.37857">
        <ele>135.6</ele>
        <time>2024-07-09T14:46:21Z</time>
      </trkpt>
      <trkpt lat="43.60202" lon="1.37853">
        <ele>135.8</ele>
        <time>2024-07-09T14:46:22Z</time>
      </trkpt>
      <trkpt lat="43.60198" lon="1.37848">
        <ele>135.8</ele>
        <time>2024-07-09T14:46:23Z</time>
      </trkpt>
      <trkpt lat="43.60194" lon="1.37843">
        <ele>136</ele>
        <time>2024-07-09T14:46:24Z</time>
      </trkpt>
      <trkpt lat="43.60191" lon="1.37836">
        <ele>136</ele>
        <time>2024-07-09T14:46:25Z</time>
      </trkpt>
      <trkpt lat="43.60188" lon="1.37829">
        <ele>136</ele>
        <time>2024-07-09T14:46:26Z</time>
      </trkpt>
      <trkpt lat="43.60187" lon="1.37822">
        <ele>136.2</ele>
        <time>2024-07-09T14:46:27Z</time>
      </trkpt>
      <trkpt lat="43.60186" lon="1.37815">
        <ele>136.2</ele>
        <time>2024-07-09T14:46:28Z</time>
      </trkpt>
      <trkpt lat="43.60185" lon="1.37808">
        <ele>136.2</ele>
        <time>2024-07-09T14:46:29Z</time>
      </trkpt>
      <trkpt lat="43.60185" lon="1.378">
        <ele>136.2</ele>
        <time>2024-07-09T14:46:30Z</time>
      </trkpt>
      <trkpt lat="43.60185" lon="1.37791">
        <ele>136.2</ele>
        <time>2024-07-09T14:46:31Z</time>
      </trkpt>
      <trkpt lat="43.60184" lon="1.37783">
        <ele>136.2</ele>
        <time>2024-07-09T14:46:32Z</time>
      </trkpt>
      <trkpt lat="43.60183" lon="1.37775">
        <ele>136.2</ele>
        <time>2024-07-09T14:46:33Z</time>
      </trkpt>
      <trkpt lat="43.60183" lon="1.37766">
        <ele>136.2</ele>
        <time>2024-07-09T14:46:34Z</time>
      </trkpt>
      <trkpt lat="43.60182" lon="1.37758">
        <ele>136.2</ele>
        <time>2024-07-09T14:46:35Z</time>
      </trkpt>
      <trkpt lat="43.60181" lon="1.3775">
        <ele>136</ele>
        <time>2024-07-09T14:46:36Z</time>
      </trkpt>
      <trkpt lat="43.60181" lon="1.37741">
        <ele>136</ele>
        <time>2024-07-09T14:46:37Z</time>
      </trkpt>
      <trkpt lat="43.6018" lon="1.37732">
        <ele>135.8</ele>
        <time>2024-07-09T14:46:38Z</time>
      </trkpt>
      <trkpt lat="43.6018" lon="1.37723">
        <ele>135.8</ele>
        <time>2024-07-09T14:46:39Z</time>
      </trkpt>
      <trkpt lat="43.60179" lon="1.37713">
        <ele>135.6</ele>
        <time>2024-07-09T14:46:40Z</time>
      </trkpt>
      <trkpt lat="43.60179" lon="1.37704">
        <ele>135.6</ele>
        <time>2024-07-09T14:46:41Z</time>
      </trkpt>
      <trkpt lat="43.60178" lon="1.37694">
        <ele>135.4</ele>
        <time>2024-07-09T14:46:42Z</time>
      </trkpt>
      <trkpt lat="43.60177" lon="1.37685">
        <ele>135.4</ele>
        <time>2024-07-09T14:46:43Z</time>
      </trkpt>
      <trkpt lat="43.60176" lon="1.37677">
        <ele>135.2</ele>
        <time>2024-07-09T14:46:44Z</time>
      </trkpt>
      <trkpt lat="43.60173" lon="1.3767">
        <ele>135.2</ele>
        <time>2024-07-09T14:46:45Z</time>
      </trkpt>
      <trkpt lat="43.6017" lon="1.37664">
        <ele>135.2</ele>
        <time>2024-07-09T14:46:46Z</time>
      </trkpt>
      <trkpt lat="43.60165" lon="1.37658">
        <ele>135</ele>
        <time>2024-07-09T14:46:47Z</time>
      </trkpt>
      <trkpt lat="43.60159" lon="1.37653">
        <ele>135</ele>
        <time>2024-07-09T14:46:48Z</time>
      </trkpt>
      <trkpt lat="43.60154" lon="1.37648">
        <ele>135</ele>
        <time>2024-07-09T14:46:49Z</time>
      </trkpt>
      <trkpt lat="43.60149" lon="1.37643">
        <ele>135</ele>
        <time>2024-07-09T14:46:50Z</time>
      </trkpt>
      <trkpt lat="43.60143" lon="1.37639">
        <ele>135</ele>
        <time>2024-07-09T14:46:51Z</time>
      </trkpt>
      <trkpt lat="43.60138" lon="1.37635">
        <ele>134.8</ele>
        <time>2024-07-09T14:46:52Z</time>
      </trkpt>
      <trkpt lat="43.60132" lon="1.3763">
        <ele>134.8</ele>
        <time>2024-07-09T14:46:53Z</time>
      </trkpt>
      <trkpt lat="43.60127" lon="1.37626">
        <ele>134.6</ele>
        <time>2024-07-09T14:46:54Z</time>
      </trkpt>
      <trkpt lat="43.60121" lon="1.37625">
        <ele>134.4</ele>
        <time>2024-07-09T14:46:55Z</time>
      </trkpt>
      <trkpt lat="43.60118" lon="1.37627">
        <ele>134.4</ele>
        <time>2024-07-09T14:46:56Z</time>
      </trkpt>
      <trkpt lat="43.60115" lon="1.37629">
        <ele>134.4</ele>
        <time>2024-07-09T14:46:57Z</time>
      </trkpt>
      <trkpt lat="43.60113" lon="1.37633">
        <ele>134.4</ele>
        <time>2024-07-09T14:46:58Z</time>
      </trkpt>
      <trkpt lat="43.60112" lon="1.37639">
        <ele>134.6</ele>
        <time>2024-07-09T14:46:59Z</time>
      </trkpt>
      <trkpt lat="43.60111" lon="1.37644">
        <ele>134.6</ele>
        <time>2024-07-09T14:47:00Z</time>
      </trkpt>
      <trkpt lat="43.60109" lon="1.3765">
        <ele>135</ele>
        <time>2024-07-09T14:47:01Z</time>
      </trkpt>
      <trkpt lat="43.60108" lon="1.37656">
        <ele>135.2</ele>
        <time>2024-07-09T14:47:02Z</time>
      </trkpt>
      <trkpt lat="43.60107" lon="1.37663">
        <ele>135.2</ele>
        <time>2024-07-09T14:47:03Z</time>
      </trkpt>
      <trkpt lat="43.60106" lon="1.3767">
        <ele>135.2</ele>
        <time>2024-07-09T14:47:04Z</time>
      </trkpt>
      <trkpt lat="43.60104" lon="1.37677">
        <ele>135.4</ele>
        <time>2024-07-09T14:47:05Z</time>
      </trkpt>
      <trkpt lat="43.60102" lon="1.37683">
        <ele>135.4</ele>
        <time>2024-07-09T14:47:06Z</time>
      </trkpt>
      <trkpt lat="43.601" lon="1.37689">
        <ele>135.6</ele>
        <time>2024-07-09T14:47:07Z</time>
      </trkpt>
      <trkpt lat="43.60098" lon="1.37695">
        <ele>135.6</ele>
        <time>2024-07-09T14:47:08Z</time>
      </trkpt>
      <trkpt lat="43.60095" lon="1.37699">
        <ele>135.8</ele>
        <time>2024-07-09T14:47:09Z</time>
      </trkpt>
      <trkpt lat="43.60091" lon="1.37703">
        <ele>135.8</ele>
        <time>2024-07-09T14:47:10Z</time>
      </trkpt>
      <trkpt lat="43.60087" lon="1.37703">
        <ele>135.8</ele>
        <time>2024-07-09T14:47:11Z</time>
      </trkpt>
      <trkpt lat="43.60082" lon="1.37703">
        <ele>135.6</ele>
        <time>2024-07-09T14:47:12Z</time>
      </trkpt>
      <trkpt lat="43.60077" lon="1.37705">
        <ele>135.6</ele>
        <time>2024-07-09T14:47:13Z</time>
      </trkpt>
      <trkpt lat="43.60071" lon="1.37707">
        <ele>135.4</ele>
        <time>2024-07-09T14:47:14Z</time>
      </trkpt>
      <trkpt lat="43.60066" lon="1.37711">
        <ele>135.4</ele>
        <time>2024-07-09T14:47:15Z</time>
      </trkpt>
      <trkpt lat="43.60061" lon="1.37716">
        <ele>135.4</ele>
        <time>2024-07-09T14:47:16Z</time>
      </trkpt>
      <trkpt lat="43.60055" lon="1.3772">
        <ele>135.2</ele>
        <time>2024-07-09T14:47:17Z</time>
      </trkpt>
      <trkpt lat="43.60049" lon="1.37725">
        <ele>135.2</ele>
        <time>2024-07-09T14:47:18Z</time>
      </trkpt>
      <trkpt lat="43.60043" lon="1.3773">
        <ele>135.2</ele>
        <time>2024-07-09T14:47:19Z</time>
      </trkpt>
      <trkpt lat="43.60037" lon="1.37735">
        <ele>135.2</ele>
        <time>2024-07-09T14:47:20Z</time>
      </trkpt>
      <trkpt lat="43.60032" lon="1.3774">
        <ele>135.2</ele>
        <time>2024-07-09T14:47:21Z</time>
      </trkpt>
      <trkpt lat="43.60026" lon="1.37745">
        <ele>135.2</ele>
        <time>2024-07-09T14:47:22Z</time>
      </trkpt>
      <trkpt lat="43.60022" lon="1.37749">
        <ele>135</ele>
        <time>2024-07-09T14:47:23Z</time>
      </trkpt>
      <trkpt lat="43.60017" lon="1.37753">
        <ele>135.2</ele>
        <time>2024-07-09T14:47:24Z</time>
      </trkpt>
      <trkpt lat="43.60013" lon="1.37756">
        <ele>135.2</ele>
        <time>2024-07-09T14:47:25Z</time>
      </trkpt>
      <trkpt lat="43.60008" lon="1.37759">
        <ele>135.2</ele>
        <time>2024-07-09T14:47:26Z</time>
      </trkpt>
      <trkpt lat="43.60002" lon="1.37762">
        <ele>135.2</ele>
        <time>2024-07-09T14:47:27Z</time>
      </trkpt>
      <trkpt lat="43.59995" lon="1.37766">
        <ele>135.4</ele>
        <time>2024-07-09T14:47:28Z</time>
      </trkpt>
      <trkpt lat="43.59989" lon="1.3777">
        <ele>135.4</ele>
        <time>2024-07-09T14:47:29Z</time>
      </trkpt>
      <trkpt lat="43.59984" lon="1.37773">
        <ele>135.6</ele>
        <time>2024-07-09T14:47:30Z</time>
      </trkpt>
      <trkpt lat="43.59979" lon="1.37775">
        <ele>135.8</ele>
        <time>2024-07-09T14:47:31Z</time>
      </trkpt>
      <trkpt lat="43.59973" lon="1.37776">
        <ele>136</ele>
        <time>2024-07-09T14:47:32Z</time>
      </trkpt>
      <trkpt lat="43.59967" lon="1.37778">
        <ele>136.2</ele>
        <time>2024-07-09T14:47:33Z</time>
      </trkpt>
      <trkpt lat="43.59963" lon="1.3778">
        <ele>136.4</ele>
        <time>2024-07-09T14:47:34Z</time>
      </trkpt>
      <trkpt lat="43.59957" lon="1.37783">
        <ele>136.6</ele>
        <time>2024-07-09T14:47:35Z</time>
      </trkpt>
      <trkpt lat="43.59951" lon="1.37784">
        <ele>137</ele>
        <time>2024-07-09T14:47:36Z</time>
      </trkpt>
      <trkpt lat="43.59945" lon="1.37785">
        <ele>137.2</ele>
        <time>2024-07-09T14:47:37Z</time>
      </trkpt>
      <trkpt lat="43.59939" lon="1.37785">
        <ele>137.4</ele>
        <time>2024-07-09T14:47:38Z</time>
      </trkpt>
      <trkpt lat="43.59934" lon="1.37785">
        <ele>137.4</ele>
        <time>2024-07-09T14:47:39Z</time>
      </trkpt>
      <trkpt lat="43.59928" lon="1.37782">
        <ele>137.6</ele>
        <time>2024-07-09T14:47:40Z</time>
      </trkpt>
      <trkpt lat="43.59923" lon="1.37779">
        <ele>137.6</ele>
        <time>2024-07-09T14:47:41Z</time>
      </trkpt>
      <trkpt lat="43.59916" lon="1.37777">
        <ele>137.8</ele>
        <time>2024-07-09T14:47:42Z</time>
      </trkpt>
      <trkpt lat="43.59909" lon="1.37773">
        <ele>137.8</ele>
        <time>2024-07-09T14:47:43Z</time>
      </trkpt>
      <trkpt lat="43.59904" lon="1.37771">
        <ele>138</ele>
        <time>2024-07-09T14:47:44Z</time>
      </trkpt>
      <trkpt lat="43.59899" lon="1.37769">
        <ele>138</ele>
        <time>2024-07-09T14:47:45Z</time>
      </trkpt>
      <trkpt lat="43.59895" lon="1.37764">
        <ele>138</ele>
        <time>2024-07-09T14:47:46Z</time>
      </trkpt>
      <trkpt lat="43.5989" lon="1.37762">
        <ele>138</ele>
        <time>2024-07-09T14:47:47Z</time>
      </trkpt>
      <trkpt lat="43.59885" lon="1.37762">
        <ele>138</ele>
        <time>2024-07-09T14:47:48Z</time>
      </trkpt>
      <trkpt lat="43.59879" lon="1.37761">
        <ele>138</ele>
        <time>2024-07-09T14:47:49Z</time>
      </trkpt>
      <trkpt lat="43.59876" lon="1.37759">
        <ele>138.2</ele>
        <time>2024-07-09T14:47:50Z</time>
      </trkpt>
      <trkpt lat="43.59876" lon="1.37752">
        <ele>138.2</ele>
        <time>2024-07-09T14:47:51Z</time>
      </trkpt>
      <trkpt lat="43.59876" lon="1.37747">
        <ele>138</ele>
        <time>2024-07-09T14:47:52Z</time>
      </trkpt>
      <trkpt lat="43.59877" lon="1.37738">
        <ele>138</ele>
        <time>2024-07-09T14:47:53Z</time>
      </trkpt>
      <trkpt lat="43.59878" lon="1.37731">
        <ele>137.8</ele>
        <time>2024-07-09T14:47:54Z</time>
      </trkpt>
      <trkpt lat="43.59881" lon="1.37721">
        <ele>137.4</ele>
        <time>2024-07-09T14:47:55Z</time>
      </trkpt>
      <trkpt lat="43.59884" lon="1.37711">
        <ele>137.2</ele>
        <time>2024-07-09T14:47:56Z</time>
      </trkpt>
      <trkpt lat="43.59886" lon="1.37703">
        <ele>136.8</ele>
        <time>2024-07-09T14:47:57Z</time>
      </trkpt>
      <trkpt lat="43.59887" lon="1.37698">
        <ele>136.6</ele>
        <time>2024-07-09T14:47:58Z</time>
      </trkpt>
      <trkpt lat="43.59888" lon="1.37694">
        <ele>136.4</ele>
        <time>2024-07-09T14:47:59Z</time>
      </trkpt>
      <trkpt lat="43.59889" lon="1.37688">
        <ele>136</ele>
        <time>2024-07-09T14:48:00Z</time>
      </trkpt>
      <trkpt lat="43.5989" lon="1.37681">
        <ele>135.8</ele>
        <time>2024-07-09T14:48:01Z</time>
      </trkpt>
      <trkpt lat="43.59889" lon="1.37674">
        <ele>135.6</ele>
        <time>2024-07-09T14:48:02Z</time>
      </trkpt>
      <trkpt lat="43.59888" lon="1.37666">
        <ele>135.4</ele>
        <time>2024-07-09T14:48:03Z</time>
      </trkpt>
      <trkpt lat="43.59889" lon="1.37658">
        <ele>135.4</ele>
        <time>2024-07-09T14:48:04Z</time>
      </trkpt>
      <trkpt lat="43.59887" lon="1.37651">
        <ele>135.4</ele>
        <time>2024-07-09T14:48:05Z</time>
      </trkpt>
      <trkpt lat="43.59885" lon="1.37646">
        <ele>135.4</ele>
        <time>2024-07-09T14:48:06Z</time>
      </trkpt>
      <trkpt lat="43.59883" lon="1.37641">
        <ele>135.4</ele>
        <time>2024-07-09T14:48:07Z</time>
      </trkpt>
      <trkpt lat="43.59882" lon="1.37637">
        <ele>135.4</ele>
        <time>2024-07-09T14:48:08Z</time>
      </trkpt>
      <trkpt lat="43.5988" lon="1.37633">
        <ele>135.2</ele>
        <time>2024-07-09T14:48:09Z</time>
      </trkpt>
      <trkpt lat="43.59879" lon="1.37628">
        <ele>135.2</ele>
        <time>2024-07-09T14:48:10Z</time>
      </trkpt>
      <trkpt lat="43.59877" lon="1.37621">
        <ele>135.2</ele>
        <time>2024-07-09T14:48:11Z</time>
      </trkpt>
      <trkpt lat="43.59872" lon="1.37617">
        <ele>135.2</ele>
        <time>2024-07-09T14:48:12Z</time>
      </trkpt>
      <trkpt lat="43.59867" lon="1.37615">
        <ele>135.2</ele>
        <time>2024-07-09T14:48:13Z</time>
      </trkpt>
      <trkpt lat="43.59864" lon="1.37612">
        <ele>135.2</ele>
        <time>2024-07-09T14:48:14Z</time>
      </trkpt>
      <trkpt lat="43.59861" lon="1.3761">
        <ele>135.2</ele>
        <time>2024-07-09T14:48:15Z</time>
      </trkpt>
      <trkpt lat="43.59859" lon="1.37607">
        <ele>135.2</ele>
        <time>2024-07-09T14:48:16Z</time>
      </trkpt>
      <trkpt lat="43.59857" lon="1.37604">
        <ele>135.2</ele>
        <time>2024-07-09T14:48:17Z</time>
      </trkpt>
      <trkpt lat="43.59857" lon="1.37604">
        <ele>135.2</ele>
        <time>2024-07-09T14:48:18Z</time>
      </trkpt>
      <trkpt lat="43.5985" lon="1.37598">
        <ele>135.2</ele>
        <time>2024-07-09T14:48:19Z</time>
      </trkpt>
      <trkpt lat="43.59846" lon="1.37595">
        <ele>135.2</ele>
        <time>2024-07-09T14:48:20Z</time>
      </trkpt>
      <trkpt lat="43.59841" lon="1.37592">
        <ele>135</ele>
        <time>2024-07-09T14:48:21Z</time>
      </trkpt>
      <trkpt lat="43.59837" lon="1.3759">
        <ele>135</ele>
        <time>2024-07-09T14:48:22Z</time>
      </trkpt>
      <trkpt lat="43.59831" lon="1.37588">
        <ele>135</ele>
        <time>2024-07-09T14:48:23Z</time>
      </trkpt>
      <trkpt lat="43.59825" lon="1.37588">
        <ele>135</ele>
        <time>2024-07-09T14:48:24Z</time>
      </trkpt>
      <trkpt lat="43.59819" lon="1.37588">
        <ele>135</ele>
        <time>2024-07-09T14:48:25Z</time>
      </trkpt>
      <trkpt lat="43.59814" lon="1.37589">
        <ele>135</ele>
        <time>2024-07-09T14:48:26Z</time>
      </trkpt>
      <trkpt lat="43.59809" lon="1.37591">
        <ele>135</ele>
        <time>2024-07-09T14:48:27Z</time>
      </trkpt>
      <trkpt lat="43.59804" lon="1.37593">
        <ele>135</ele>
        <time>2024-07-09T14:48:28Z</time>
      </trkpt>
      <trkpt lat="43.59799" lon="1.37595">
        <ele>135</ele>
        <time>2024-07-09T14:48:29Z</time>
      </trkpt>
      <trkpt lat="43.59793" lon="1.37598">
        <ele>135</ele>
        <time>2024-07-09T14:48:30Z</time>
      </trkpt>
      <trkpt lat="43.59787" lon="1.37603">
        <ele>135</ele>
        <time>2024-07-09T14:48:31Z</time>
      </trkpt>
      <trkpt lat="43.59782" lon="1.37607">
        <ele>135</ele>
        <time>2024-07-09T14:48:32Z</time>
      </trkpt>
      <trkpt lat="43.59777" lon="1.37612">
        <ele>135</ele>
        <time>2024-07-09T14:48:33Z</time>
      </trkpt>
      <trkpt lat="43.59773" lon="1.37616">
        <ele>135.2</ele>
        <time>2024-07-09T14:48:34Z</time>
      </trkpt>
      <trkpt lat="43.5977" lon="1.3762">
        <ele>135.2</ele>
        <time>2024-07-09T14:48:35Z</time>
      </trkpt>
      <trkpt lat="43.59766" lon="1.37626">
        <ele>135.2</ele>
        <time>2024-07-09T14:48:36Z</time>
      </trkpt>
      <trkpt lat="43.59763" lon="1.37632">
        <ele>135.2</ele>
        <time>2024-07-09T14:48:37Z</time>
      </trkpt>
      <trkpt lat="43.59759" lon="1.37638">
        <ele>135.2</ele>
        <time>2024-07-09T14:48:38Z</time>
      </trkpt>
      <trkpt lat="43.59755" lon="1.37642">
        <ele>135.4</ele>
        <time>2024-07-09T14:48:39Z</time>
      </trkpt>
      <trkpt lat="43.59752" lon="1.37646">
        <ele>135.4</ele>
        <time>2024-07-09T14:48:40Z</time>
      </trkpt>
      <trkpt lat="43.59749" lon="1.3765">
        <ele>135.6</ele>
        <time>2024-07-09T14:48:41Z</time>
      </trkpt>
      <trkpt lat="43.59747" lon="1.37653">
        <ele>135.6</ele>
        <time>2024-07-09T14:48:42Z</time>
      </trkpt>
      <trkpt lat="43.59744" lon="1.37657">
        <ele>135.8</ele>
        <time>2024-07-09T14:48:43Z</time>
      </trkpt>
      <trkpt lat="43.59742" lon="1.3766">
        <ele>136.2</ele>
        <time>2024-07-09T14:48:44Z</time>
      </trkpt>
      <trkpt lat="43.59739" lon="1.37663">
        <ele>136.6</ele>
        <time>2024-07-09T14:48:45Z</time>
      </trkpt>
      <trkpt lat="43.59736" lon="1.37665">
        <ele>137.2</ele>
        <time>2024-07-09T14:48:46Z</time>
      </trkpt>
      <trkpt lat="43.59734" lon="1.37667">
        <ele>137.4</ele>
        <time>2024-07-09T14:48:47Z</time>
      </trkpt>
      <trkpt lat="43.59731" lon="1.3767">
        <ele>137.8</ele>
        <time>2024-07-09T14:48:48Z</time>
      </trkpt>
      <trkpt lat="43.59727" lon="1.37674">
        <ele>137.8</ele>
        <time>2024-07-09T14:48:49Z</time>
      </trkpt>
      <trkpt lat="43.59724" lon="1.37676">
        <ele>138</ele>
        <time>2024-07-09T14:48:50Z</time>
      </trkpt>
      <trkpt lat="43.59723" lon="1.37677">
        <ele>138.2</ele>
        <time>2024-07-09T14:48:51Z</time>
      </trkpt>
      <trkpt lat="43.59721" lon="1.37678">
        <ele>138.2</ele>
        <time>2024-07-09T14:48:52Z</time>
      </trkpt>
      <trkpt lat="43.5972" lon="1.37676">
        <ele>138.2</ele>
        <time>2024-07-09T14:48:53Z</time>
      </trkpt>
      <trkpt lat="43.59718" lon="1.37676">
        <ele>138.2</ele>
        <time>2024-07-09T14:48:54Z</time>
      </trkpt>
      <trkpt lat="43.59715" lon="1.37675">
        <ele>138.2</ele>
        <time>2024-07-09T14:48:55Z</time>
      </trkpt>
      <trkpt lat="43.59711" lon="1.37675">
        <ele>138.2</ele>
        <time>2024-07-09T14:48:56Z</time>
      </trkpt>
      <trkpt lat="43.59707" lon="1.37674">
        <ele>138.2</ele>
        <time>2024-07-09T14:48:57Z</time>
      </trkpt>
      <trkpt lat="43.59705" lon="1.37675">
        <ele>137.8</ele>
        <time>2024-07-09T14:48:58Z</time>
      </trkpt>
      <trkpt lat="43.59702" lon="1.37675">
        <ele>137.4</ele>
        <time>2024-07-09T14:48:59Z</time>
      </trkpt>
      <trkpt lat="43.59701" lon="1.37675">
        <ele>137</ele>
        <time>2024-07-09T14:49:00Z</time>
      </trkpt>
      <trkpt lat="43.59698" lon="1.37674">
        <ele>136.8</ele>
        <time>2024-07-09T14:49:01Z</time>
      </trkpt>
      <trkpt lat="43.59695" lon="1.37672">
        <ele>136.6</ele>
        <time>2024-07-09T14:49:02Z</time>
      </trkpt>
      <trkpt lat="43.59693" lon="1.37671">
        <ele>136.4</ele>
        <time>2024-07-09T14:49:03Z</time>
      </trkpt>
      <trkpt lat="43.5969" lon="1.37669">
        <ele>136.4</ele>
        <time>2024-07-09T14:49:04Z</time>
      </trkpt>
      <trkpt lat="43.59687" lon="1.37667">
        <ele>136.4</ele>
        <time>2024-07-09T14:49:05Z</time>
      </trkpt>
      <trkpt lat="43.59685" lon="1.37664">
        <ele>136.2</ele>
        <time>2024-07-09T14:49:06Z</time>
      </trkpt>
      <trkpt lat="43.59683" lon="1.3766">
        <ele>136.2</ele>
        <time>2024-07-09T14:49:07Z</time>
      </trkpt>
      <trkpt lat="43.5968" lon="1.37656">
        <ele>136.2</ele>
        <time>2024-07-09T14:49:08Z</time>
      </trkpt>
      <trkpt lat="43.59677" lon="1.37651">
        <ele>136.2</ele>
        <time>2024-07-09T14:49:09Z</time>
      </trkpt>
      <trkpt lat="43.59674" lon="1.37647">
        <ele>136.2</ele>
        <time>2024-07-09T14:49:10Z</time>
      </trkpt>
      <trkpt lat="43.5967" lon="1.37642">
        <ele>136.2</ele>
        <time>2024-07-09T14:49:11Z</time>
      </trkpt>
      <trkpt lat="43.59664" lon="1.37636">
        <ele>136.2</ele>
        <time>2024-07-09T14:49:12Z</time>
      </trkpt>
      <trkpt lat="43.59659" lon="1.3763">
        <ele>136.4</ele>
        <time>2024-07-09T14:49:13Z</time>
      </trkpt>
      <trkpt lat="43.59655" lon="1.37624">
        <ele>136.4</ele>
        <time>2024-07-09T14:49:14Z</time>
      </trkpt>
      <trkpt lat="43.59652" lon="1.37615">
        <ele>136.4</ele>
        <time>2024-07-09T14:49:15Z</time>
      </trkpt>
      <trkpt lat="43.59648" lon="1.37608">
        <ele>136.4</ele>
        <time>2024-07-09T14:49:16Z</time>
      </trkpt>
      <trkpt lat="43.59643" lon="1.37602">
        <ele>136.4</ele>
        <time>2024-07-09T14:49:17Z</time>
      </trkpt>
      <trkpt lat="43.59638" lon="1.37597">
        <ele>136.4</ele>
        <time>2024-07-09T14:49:18Z</time>
      </trkpt>
      <trkpt lat="43.59633" lon="1.37592">
        <ele>136.4</ele>
        <time>2024-07-09T14:49:19Z</time>
      </trkpt>
      <trkpt lat="43.5963" lon="1.37586">
        <ele>136.4</ele>
        <time>2024-07-09T14:49:20Z</time>
      </trkpt>
      <trkpt lat="43.59627" lon="1.37582">
        <ele>136.4</ele>
        <time>2024-07-09T14:49:21Z</time>
      </trkpt>
      <trkpt lat="43.59623" lon="1.37578">
        <ele>136.6</ele>
        <time>2024-07-09T14:49:22Z</time>
      </trkpt>
      <trkpt lat="43.59619" lon="1.37576">
        <ele>136.6</ele>
        <time>2024-07-09T14:49:23Z</time>
      </trkpt>
      <trkpt lat="43.59615" lon="1.37572">
        <ele>136.8</ele>
        <time>2024-07-09T14:49:24Z</time>
      </trkpt>
      <trkpt lat="43.59612" lon="1.37564">
        <ele>137</ele>
        <time>2024-07-09T14:49:25Z</time>
      </trkpt>
      <trkpt lat="43.59607" lon="1.3756">
        <ele>137.2</ele>
        <time>2024-07-09T14:49:26Z</time>
      </trkpt>
      <trkpt lat="43.59604" lon="1.37556">
        <ele>137.4</ele>
        <time>2024-07-09T14:49:27Z</time>
      </trkpt>
      <trkpt lat="43.59602" lon="1.37552">
        <ele>137.4</ele>
        <time>2024-07-09T14:49:28Z</time>
      </trkpt>
      <trkpt lat="43.596" lon="1.37547">
        <ele>137.6</ele>
        <time>2024-07-09T14:49:29Z</time>
      </trkpt>
      <trkpt lat="43.596" lon="1.3754">
        <ele>137.8</ele>
        <time>2024-07-09T14:49:30Z</time>
      </trkpt>
      <trkpt lat="43.596" lon="1.37531">
        <ele>138</ele>
        <time>2024-07-09T14:49:31Z</time>
      </trkpt>
      <trkpt lat="43.596" lon="1.37524">
        <ele>138</ele>
        <time>2024-07-09T14:49:32Z</time>
      </trkpt>
      <trkpt lat="43.596" lon="1.37524">
        <ele>138</ele>
        <time>2024-07-09T14:49:33Z</time>
      </trkpt>
      <trkpt lat="43.59602" lon="1.37512">
        <ele>138</ele>
        <time>2024-07-09T14:49:34Z</time>
      </trkpt>
      <trkpt lat="43.59605" lon="1.37502">
        <ele>138</ele>
        <time>2024-07-09T14:49:35Z</time>
      </trkpt>
      <trkpt lat="43.59608" lon="1.3749">
        <ele>137.8</ele>
        <time>2024-07-09T14:49:36Z</time>
      </trkpt>
      <trkpt lat="43.59612" lon="1.37485">
        <ele>137.8</ele>
        <time>2024-07-09T14:49:37Z</time>
      </trkpt>
      <trkpt lat="43.59616" lon="1.37478">
        <ele>137.8</ele>
        <time>2024-07-09T14:49:38Z</time>
      </trkpt>
      <trkpt lat="43.5962" lon="1.37471">
        <ele>137.8</ele>
        <time>2024-07-09T14:49:39Z</time>
      </trkpt>
      <trkpt lat="43.59623" lon="1.37463">
        <ele>137.6</ele>
        <time>2024-07-09T14:49:40Z</time>
      </trkpt>
      <trkpt lat="43.59626" lon="1.37456">
        <ele>137.4</ele>
        <time>2024-07-09T14:49:41Z</time>
      </trkpt>
      <trkpt lat="43.59628" lon="1.37449">
        <ele>137.2</ele>
        <time>2024-07-09T14:49:42Z</time>
      </trkpt>
      <trkpt lat="43.5963" lon="1.37442">
        <ele>136.8</ele>
        <time>2024-07-09T14:49:43Z</time>
      </trkpt>
      <trkpt lat="43.59633" lon="1.37434">
        <ele>136.6</ele>
        <time>2024-07-09T14:49:44Z</time>
      </trkpt>
      <trkpt lat="43.59636" lon="1.37427">
        <ele>136.6</ele>
        <time>2024-07-09T14:49:45Z</time>
      </trkpt>
      <trkpt lat="43.59638" lon="1.3742">
        <ele>136.4</ele>
        <time>2024-07-09T14:49:46Z</time>
      </trkpt>
      <trkpt lat="43.5964" lon="1.37413">
        <ele>136.2</ele>
        <time>2024-07-09T14:49:47Z</time>
      </trkpt>
      <trkpt lat="43.59641" lon="1.37405">
        <ele>136.2</ele>
        <time>2024-07-09T14:49:48Z</time>
      </trkpt>
      <trkpt lat="43.59642" lon="1.37398">
        <ele>136</ele>
        <time>2024-07-09T14:49:49Z</time>
      </trkpt>
      <trkpt lat="43.59643" lon="1.37392">
        <ele>136</ele>
        <time>2024-07-09T14:49:50Z</time>
      </trkpt>
      <trkpt lat="43.59643" lon="1.37385">
        <ele>136</ele>
        <time>2024-07-09T14:49:51Z</time>
      </trkpt>
      <trkpt lat="43.59644" lon="1.37378">
        <ele>136</ele>
        <time>2024-07-09T14:49:52Z</time>
      </trkpt>
      <trkpt lat="43.59643" lon="1.3737">
        <ele>136</ele>
        <time>2024-07-09T14:49:53Z</time>
      </trkpt>
      <trkpt lat="43.5964" lon="1.37361">
        <ele>136</ele>
        <time>2024-07-09T14:49:54Z</time>
      </trkpt>
      <trkpt lat="43.59636" lon="1.37354">
        <ele>136</ele>
        <time>2024-07-09T14:49:55Z</time>
      </trkpt>
      <trkpt lat="43.59632" lon="1.37347">
        <ele>136</ele>
        <time>2024-07-09T14:49:56Z</time>
      </trkpt>
      <trkpt lat="43.59628" lon="1.3734">
        <ele>136.2</ele>
        <time>2024-07-09T14:49:57Z</time>
      </trkpt>
      <trkpt lat="43.59625" lon="1.37332">
        <ele>136.2</ele>
        <time>2024-07-09T14:49:58Z</time>
      </trkpt>
      <trkpt lat="43.59621" lon="1.37325">
        <ele>136.4</ele>
        <time>2024-07-09T14:49:59Z</time>
      </trkpt>
      <trkpt lat="43.59618" lon="1.37317">
        <ele>136.4</ele>
        <time>2024-07-09T14:50:00Z</time>
      </trkpt>
      <trkpt lat="43.59616" lon="1.37309">
        <ele>136.6</ele>
        <time>2024-07-09T14:50:01Z</time>
      </trkpt>
      <trkpt lat="43.59614" lon="1.37302">
        <ele>136.6</ele>
        <time>2024-07-09T14:50:02Z</time>
      </trkpt>
      <trkpt lat="43.59612" lon="1.37295">
        <ele>136.6</ele>
        <time>2024-07-09T14:50:03Z</time>
      </trkpt>
      <trkpt lat="43.59609" lon="1.37289">
        <ele>136.8</ele>
        <time>2024-07-09T14:50:04Z</time>
      </trkpt>
      <trkpt lat="43.59606" lon="1.37281">
        <ele>136.8</ele>
        <time>2024-07-09T14:50:05Z</time>
      </trkpt>
      <trkpt lat="43.59599" lon="1.37274">
        <ele>137</ele>
        <time>2024-07-09T14:50:06Z</time>
      </trkpt>
      <trkpt lat="43.59593" lon="1.37268">
        <ele>137</ele>
        <time>2024-07-09T14:50:07Z</time>
      </trkpt>
      <trkpt lat="43.59588" lon="1.37261">
        <ele>137</ele>
        <time>2024-07-09T14:50:08Z</time>
      </trkpt>
      <trkpt lat="43.59585" lon="1.37252">
        <ele>137</ele>
        <time>2024-07-09T14:50:09Z</time>
      </trkpt>
      <trkpt lat="43.59579" lon="1.37242">
        <ele>137</ele>
        <time>2024-07-09T14:50:10Z</time>
      </trkpt>
      <trkpt lat="43.59575" lon="1.37235">
        <ele>137.2</ele>
        <time>2024-07-09T14:50:11Z</time>
      </trkpt>
      <trkpt lat="43.59573" lon="1.37229">
        <ele>137.2</ele>
        <time>2024-07-09T14:50:12Z</time>
      </trkpt>
      <trkpt lat="43.59572" lon="1.3722">
        <ele>137.2</ele>
        <time>2024-07-09T14:50:13Z</time>
      </trkpt>
      <trkpt lat="43.59571" lon="1.37211">
        <ele>137.2</ele>
        <time>2024-07-09T14:50:14Z</time>
      </trkpt>
      <trkpt lat="43.5957" lon="1.37203">
        <ele>137.2</ele>
        <time>2024-07-09T14:50:15Z</time>
      </trkpt>
      <trkpt lat="43.59568" lon="1.37197">
        <ele>137.2</ele>
        <time>2024-07-09T14:50:16Z</time>
      </trkpt>
      <trkpt lat="43.59567" lon="1.37189">
        <ele>137.2</ele>
        <time>2024-07-09T14:50:17Z</time>
      </trkpt>
      <trkpt lat="43.59564" lon="1.37182">
        <ele>137.2</ele>
        <time>2024-07-09T14:50:18Z</time>
      </trkpt>
      <trkpt lat="43.59564" lon="1.37176">
        <ele>137.2</ele>
        <time>2024-07-09T14:50:19Z</time>
      </trkpt>
      <trkpt lat="43.59563" lon="1.37169">
        <ele>137.2</ele>
        <time>2024-07-09T14:50:20Z</time>
      </trkpt>
      <trkpt lat="43.59561" lon="1.37163">
        <ele>137.2</ele>
        <time>2024-07-09T14:50:21Z</time>
      </trkpt>
      <trkpt lat="43.59561" lon="1.37157">
        <ele>137.2</ele>
        <time>2024-07-09T14:50:22Z</time>
      </trkpt>
      <trkpt lat="43.5956" lon="1.37152">
        <ele>137.2</ele>
        <time>2024-07-09T14:50:23Z</time>
      </trkpt>
      <trkpt lat="43.5956" lon="1.37145">
        <ele>137.2</ele>
        <time>2024-07-09T14:50:24Z</time>
      </trkpt>
      <trkpt lat="43.5956" lon="1.37137">
        <ele>136.8</ele>
        <time>2024-07-09T14:50:25Z</time>
      </trkpt>
      <trkpt lat="43.59561" lon="1.3713">
        <ele>136.8</ele>
        <time>2024-07-09T14:50:26Z</time>
      </trkpt>
      <trkpt lat="43.59561" lon="1.37123">
        <ele>136.8</ele>
        <time>2024-07-09T14:50:27Z</time>
      </trkpt>
      <trkpt lat="43.59563" lon="1.37115">
        <ele>136.8</ele>
        <time>2024-07-09T14:50:28Z</time>
      </trkpt>
      <trkpt lat="43.59565" lon="1.37108">
        <ele>136.8</ele>
        <time>2024-07-09T14:50:29Z</time>
      </trkpt>
      <trkpt lat="43.59567" lon="1.37101">
        <ele>136.8</ele>
        <time>2024-07-09T14:50:30Z</time>
      </trkpt>
      <trkpt lat="43.59569" lon="1.37095">
        <ele>136.8</ele>
        <time>2024-07-09T14:50:31Z</time>
      </trkpt>
      <trkpt lat="43.59572" lon="1.37089">
        <ele>136.8</ele>
        <time>2024-07-09T14:50:32Z</time>
      </trkpt>
      <trkpt lat="43.59575" lon="1.37081">
        <ele>136.8</ele>
        <time>2024-07-09T14:50:33Z</time>
      </trkpt>
      <trkpt lat="43.59579" lon="1.37074">
        <ele>136.8</ele>
        <time>2024-07-09T14:50:34Z</time>
      </trkpt>
      <trkpt lat="43.59582" lon="1.37068">
        <ele>136.8</ele>
        <time>2024-07-09T14:50:35Z</time>
      </trkpt>
      <trkpt lat="43.59585" lon="1.37061">
        <ele>136.8</ele>
        <time>2024-07-09T14:50:36Z</time>
      </trkpt>
      <trkpt lat="43.59589" lon="1.37055">
        <ele>137</ele>
        <time>2024-07-09T14:50:37Z</time>
      </trkpt>
      <trkpt lat="43.59593" lon="1.37049">
        <ele>137</ele>
        <time>2024-07-09T14:50:38Z</time>
      </trkpt>
      <trkpt lat="43.59596" lon="1.37042">
        <ele>137</ele>
        <time>2024-07-09T14:50:39Z</time>
      </trkpt>
      <trkpt lat="43.59597" lon="1.37034">
        <ele>137</ele>
        <time>2024-07-09T14:50:40Z</time>
      </trkpt>
      <trkpt lat="43.59597" lon="1.37034">
        <ele>137</ele>
        <time>2024-07-09T14:50:41Z</time>
      </trkpt>
      <trkpt lat="43.59594" lon="1.37018">
        <ele>137</ele>
        <time>2024-07-09T14:50:42Z</time>
      </trkpt>
      <trkpt lat="43.59591" lon="1.37011">
        <ele>137</ele>
        <time>2024-07-09T14:50:43Z</time>
      </trkpt>
      <trkpt lat="43.59587" lon="1.37004">
        <ele>137</ele>
        <time>2024-07-09T14:50:44Z</time>
      </trkpt>
      <trkpt lat="43.59583" lon="1.36997">
        <ele>137</ele>
        <time>2024-07-09T14:50:45Z</time>
      </trkpt>
      <trkpt lat="43.59578" lon="1.36991">
        <ele>137</ele>
        <time>2024-07-09T14:50:46Z</time>
      </trkpt>
      <trkpt lat="43.59573" lon="1.36985">
        <ele>137</ele>
        <time>2024-07-09T14:50:47Z</time>
      </trkpt>
      <trkpt lat="43.59568" lon="1.36979">
        <ele>137</ele>
        <time>2024-07-09T14:50:48Z</time>
      </trkpt>
      <trkpt lat="43.59563" lon="1.36973">
        <ele>137</ele>
        <time>2024-07-09T14:50:49Z</time>
      </trkpt>
      <trkpt lat="43.59557" lon="1.36965">
        <ele>137</ele>
        <time>2024-07-09T14:50:50Z</time>
      </trkpt>
      <trkpt lat="43.59552" lon="1.36959">
        <ele>137</ele>
        <time>2024-07-09T14:50:51Z</time>
      </trkpt>
      <trkpt lat="43.59547" lon="1.36953">
        <ele>137</ele>
        <time>2024-07-09T14:50:52Z</time>
      </trkpt>
      <trkpt lat="43.59541" lon="1.36947">
        <ele>137</ele>
        <time>2024-07-09T14:50:53Z</time>
      </trkpt>
      <trkpt lat="43.59536" lon="1.36942">
        <ele>137</ele>
        <time>2024-07-09T14:50:54Z</time>
      </trkpt>
      <trkpt lat="43.59531" lon="1.36937">
        <ele>137</ele>
        <time>2024-07-09T14:50:55Z</time>
      </trkpt>
      <trkpt lat="43.59527" lon="1.3693">
        <ele>137</ele>
        <time>2024-07-09T14:50:56Z</time>
      </trkpt>
      <trkpt lat="43.59522" lon="1.36925">
        <ele>137</ele>
        <time>2024-07-09T14:50:57Z</time>
      </trkpt>
      <trkpt lat="43.59517" lon="1.3692">
        <ele>137</ele>
        <time>2024-07-09T14:50:58Z</time>
      </trkpt>
      <trkpt lat="43.59512" lon="1.36916">
        <ele>137.2</ele>
        <time>2024-07-09T14:50:59Z</time>
      </trkpt>
      <trkpt lat="43.59506" lon="1.36912">
        <ele>137.2</ele>
        <time>2024-07-09T14:51:00Z</time>
      </trkpt>
      <trkpt lat="43.595" lon="1.36909">
        <ele>137.2</ele>
        <time>2024-07-09T14:51:01Z</time>
      </trkpt>
      <trkpt lat="43.59495" lon="1.36905">
        <ele>137.2</ele>
        <time>2024-07-09T14:51:02Z</time>
      </trkpt>
      <trkpt lat="43.5949" lon="1.369">
        <ele>137.2</ele>
        <time>2024-07-09T14:51:03Z</time>
      </trkpt>
      <trkpt lat="43.59485" lon="1.36895">
        <ele>137.2</ele>
        <time>2024-07-09T14:51:04Z</time>
      </trkpt>
      <trkpt lat="43.5948" lon="1.3689">
        <ele>137.2</ele>
        <time>2024-07-09T14:51:05Z</time>
      </trkpt>
      <trkpt lat="43.59475" lon="1.36884">
        <ele>137.4</ele>
        <time>2024-07-09T14:51:06Z</time>
      </trkpt>
      <trkpt lat="43.59471" lon="1.36879">
        <ele>137.4</ele>
        <time>2024-07-09T14:51:07Z</time>
      </trkpt>
      <trkpt lat="43.59467" lon="1.36872">
        <ele>137.6</ele>
        <time>2024-07-09T14:51:08Z</time>
      </trkpt>
      <trkpt lat="43.59463" lon="1.36867">
        <ele>137.6</ele>
        <time>2024-07-09T14:51:09Z</time>
      </trkpt>
      <trkpt lat="43.59459" lon="1.36862">
        <ele>137.6</ele>
        <time>2024-07-09T14:51:10Z</time>
      </trkpt>
      <trkpt lat="43.59455" lon="1.36857">
        <ele>137.6</ele>
        <time>2024-07-09T14:51:11Z</time>
      </trkpt>
      <trkpt lat="43.59451" lon="1.36852">
        <ele>137.8</ele>
        <time>2024-07-09T14:51:12Z</time>
      </trkpt>
      <trkpt lat="43.59447" lon="1.36845">
        <ele>137.8</ele>
        <time>2024-07-09T14:51:13Z</time>
      </trkpt>
      <trkpt lat="43.59443" lon="1.36839">
        <ele>137.8</ele>
        <time>2024-07-09T14:51:14Z</time>
      </trkpt>
      <trkpt lat="43.59439" lon="1.36833">
        <ele>137.8</ele>
        <time>2024-07-09T14:51:15Z</time>
      </trkpt>
      <trkpt lat="43.59436" lon="1.36828">
        <ele>137.8</ele>
        <time>2024-07-09T14:51:16Z</time>
      </trkpt>
      <trkpt lat="43.59433" lon="1.36822">
        <ele>137.8</ele>
        <time>2024-07-09T14:51:17Z</time>
      </trkpt>
      <trkpt lat="43.59431" lon="1.36815">
        <ele>137.8</ele>
        <time>2024-07-09T14:51:18Z</time>
      </trkpt>
      <trkpt lat="43.59429" lon="1.36807">
        <ele>137.8</ele>
        <time>2024-07-09T14:51:19Z</time>
      </trkpt>
      <trkpt lat="43.59426" lon="1.36799">
        <ele>137.8</ele>
        <time>2024-07-09T14:51:20Z</time>
      </trkpt>
      <trkpt lat="43.59424" lon="1.36791">
        <ele>137.8</ele>
        <time>2024-07-09T14:51:21Z</time>
      </trkpt>
      <trkpt lat="43.59422" lon="1.36782">
        <ele>137.8</ele>
        <time>2024-07-09T14:51:22Z</time>
      </trkpt>
      <trkpt lat="43.5942" lon="1.36774">
        <ele>137.8</ele>
        <time>2024-07-09T14:51:23Z</time>
      </trkpt>
      <trkpt lat="43.59417" lon="1.36766">
        <ele>137.6</ele>
        <time>2024-07-09T14:51:24Z</time>
      </trkpt>
      <trkpt lat="43.59415" lon="1.36758">
        <ele>137.4</ele>
        <time>2024-07-09T14:51:25Z</time>
      </trkpt>
      <trkpt lat="43.59413" lon="1.36751">
        <ele>137.2</ele>
        <time>2024-07-09T14:51:26Z</time>
      </trkpt>
      <trkpt lat="43.59411" lon="1.36742">
        <ele>137</ele>
        <time>2024-07-09T14:51:27Z</time>
      </trkpt>
      <trkpt lat="43.59408" lon="1.36734">
        <ele>137</ele>
        <time>2024-07-09T14:51:28Z</time>
      </trkpt>
      <trkpt lat="43.59405" lon="1.36726">
        <ele>137</ele>
        <time>2024-07-09T14:51:29Z</time>
      </trkpt>
      <trkpt lat="43.59401" lon="1.36716">
        <ele>137</ele>
        <time>2024-07-09T14:51:30Z</time>
      </trkpt>
      <trkpt lat="43.59395" lon="1.36708">
        <ele>137</ele>
        <time>2024-07-09T14:51:31Z</time>
      </trkpt>
      <trkpt lat="43.5939" lon="1.36702">
        <ele>137</ele>
        <time>2024-07-09T14:51:32Z</time>
      </trkpt>
      <trkpt lat="43.59384" lon="1.36696">
        <ele>137</ele>
        <time>2024-07-09T14:51:33Z</time>
      </trkpt>
      <trkpt lat="43.59384" lon="1.36696">
        <ele>137</ele>
        <time>2024-07-09T14:51:34Z</time>
      </trkpt>
      <trkpt lat="43.59374" lon="1.36687">
        <ele>137</ele>
        <time>2024-07-09T14:51:35Z</time>
      </trkpt>
      <trkpt lat="43.59368" lon="1.36685">
        <ele>137</ele>
        <time>2024-07-09T14:51:36Z</time>
      </trkpt>
      <trkpt lat="43.59363" lon="1.36683">
        <ele>137</ele>
        <time>2024-07-09T14:51:37Z</time>
      </trkpt>
      <trkpt lat="43.59357" lon="1.36681">
        <ele>137</ele>
        <time>2024-07-09T14:51:38Z</time>
      </trkpt>
      <trkpt lat="43.59357" lon="1.36681">
        <ele>137.2</ele>
        <time>2024-07-09T14:51:39Z</time>
      </trkpt>
      <trkpt lat="43.59345" lon="1.36677">
        <ele>137.2</ele>
        <time>2024-07-09T14:51:40Z</time>
      </trkpt>
      <trkpt lat="43.59338" lon="1.36676">
        <ele>137.2</ele>
        <time>2024-07-09T14:51:41Z</time>
      </trkpt>
      <trkpt lat="43.59332" lon="1.36676">
        <ele>137.2</ele>
        <time>2024-07-09T14:51:42Z</time>
      </trkpt>
      <trkpt lat="43.59326" lon="1.36676">
        <ele>137.2</ele>
        <time>2024-07-09T14:51:43Z</time>
      </trkpt>
      <trkpt lat="43.5932" lon="1.36675">
        <ele>137.2</ele>
        <time>2024-07-09T14:51:44Z</time>
      </trkpt>
      <trkpt lat="43.59314" lon="1.36674">
        <ele>137.2</ele>
        <time>2024-07-09T14:51:45Z</time>
      </trkpt>
      <trkpt lat="43.59308" lon="1.36673">
        <ele>137.2</ele>
        <time>2024-07-09T14:51:46Z</time>
      </trkpt>
      <trkpt lat="43.59302" lon="1.36672">
        <ele>137.2</ele>
        <time>2024-07-09T14:51:47Z</time>
      </trkpt>
      <trkpt lat="43.59296" lon="1.36671">
        <ele>137.2</ele>
        <time>2024-07-09T14:51:48Z</time>
      </trkpt>
      <trkpt lat="43.5929" lon="1.36669">
        <ele>137.2</ele>
        <time>2024-07-09T14:51:49Z</time>
      </trkpt>
      <trkpt lat="43.59284" lon="1.36667">
        <ele>137.2</ele>
        <time>2024-07-09T14:51:50Z</time>
      </trkpt>
      <trkpt lat="43.59279" lon="1.36666">
        <ele>137.2</ele>
        <time>2024-07-09T14:51:51Z</time>
      </trkpt>
      <trkpt lat="43.59273" lon="1.36665">
        <ele>137.4</ele>
        <time>2024-07-09T14:51:52Z</time>
      </trkpt>
      <trkpt lat="43.59267" lon="1.36665">
        <ele>137.4</ele>
        <time>2024-07-09T14:51:53Z</time>
      </trkpt>
      <trkpt lat="43.5926" lon="1.36665">
        <ele>137.4</ele>
        <time>2024-07-09T14:51:54Z</time>
      </trkpt>
      <trkpt lat="43.59254" lon="1.36664">
        <ele>137.4</ele>
        <time>2024-07-09T14:51:55Z</time>
      </trkpt>
      <trkpt lat="43.59248" lon="1.36662">
        <ele>137.4</ele>
        <time>2024-07-09T14:51:56Z</time>
      </trkpt>
      <trkpt lat="43.59242" lon="1.36659">
        <ele>137.4</ele>
        <time>2024-07-09T14:51:57Z</time>
      </trkpt>
      <trkpt lat="43.59236" lon="1.36656">
        <ele>137.2</ele>
        <time>2024-07-09T14:51:58Z</time>
      </trkpt>
      <trkpt lat="43.59231" lon="1.36652">
        <ele>137.2</ele>
        <time>2024-07-09T14:51:59Z</time>
      </trkpt>
      <trkpt lat="43.59225" lon="1.36648">
        <ele>137.2</ele>
        <time>2024-07-09T14:52:00Z</time>
      </trkpt>
      <trkpt lat="43.59219" lon="1.36644">
        <ele>137.2</ele>
        <time>2024-07-09T14:52:01Z</time>
      </trkpt>
      <trkpt lat="43.59213" lon="1.3664">
        <ele>137.2</ele>
        <time>2024-07-09T14:52:02Z</time>
      </trkpt>
      <trkpt lat="43.59208" lon="1.36637">
        <ele>137.2</ele>
        <time>2024-07-09T14:52:03Z</time>
      </trkpt>
      <trkpt lat="43.59202" lon="1.36634">
        <ele>137.2</ele>
        <time>2024-07-09T14:52:04Z</time>
      </trkpt>
      <trkpt lat="43.59196" lon="1.36634">
        <ele>137.2</ele>
        <time>2024-07-09T14:52:05Z</time>
      </trkpt>
      <trkpt lat="43.5919" lon="1.36634">
        <ele>137.2</ele>
        <time>2024-07-09T14:52:06Z</time>
      </trkpt>
      <trkpt lat="43.59183" lon="1.36634">
        <ele>137.2</ele>
        <time>2024-07-09T14:52:07Z</time>
      </trkpt>
      <trkpt lat="43.59177" lon="1.36634">
        <ele>137.4</ele>
        <time>2024-07-09T14:52:08Z</time>
      </trkpt>
      <trkpt lat="43.59171" lon="1.36635">
        <ele>137.2</ele>
        <time>2024-07-09T14:52:09Z</time>
      </trkpt>
      <trkpt lat="43.59165" lon="1.36636">
        <ele>137.4</ele>
        <time>2024-07-09T14:52:10Z</time>
      </trkpt>
      <trkpt lat="43.59159" lon="1.36637">
        <ele>137.4</ele>
        <time>2024-07-09T14:52:11Z</time>
      </trkpt>
      <trkpt lat="43.59153" lon="1.3664">
        <ele>137.4</ele>
        <time>2024-07-09T14:52:12Z</time>
      </trkpt>
      <trkpt lat="43.59148" lon="1.36643">
        <ele>137.6</ele>
        <time>2024-07-09T14:52:13Z</time>
      </trkpt>
      <trkpt lat="43.59142" lon="1.36648">
        <ele>137.6</ele>
        <time>2024-07-09T14:52:14Z</time>
      </trkpt>
      <trkpt lat="43.59137" lon="1.36653">
        <ele>137.6</ele>
        <time>2024-07-09T14:52:15Z</time>
      </trkpt>
      <trkpt lat="43.59133" lon="1.36657">
        <ele>137.6</ele>
        <time>2024-07-09T14:52:16Z</time>
      </trkpt>
      <trkpt lat="43.59128" lon="1.36661">
        <ele>137.8</ele>
        <time>2024-07-09T14:52:17Z</time>
      </trkpt>
      <trkpt lat="43.59123" lon="1.36664">
        <ele>137.8</ele>
        <time>2024-07-09T14:52:18Z</time>
      </trkpt>
      <trkpt lat="43.59118" lon="1.36667">
        <ele>137.8</ele>
        <time>2024-07-09T14:52:19Z</time>
      </trkpt>
      <trkpt lat="43.59112" lon="1.36669">
        <ele>137.8</ele>
        <time>2024-07-09T14:52:20Z</time>
      </trkpt>
      <trkpt lat="43.59112" lon="1.36669">
        <ele>137.8</ele>
        <time>2024-07-09T14:52:21Z</time>
      </trkpt>
      <trkpt lat="43.59101" lon="1.36674">
        <ele>137.8</ele>
        <time>2024-07-09T14:52:22Z</time>
      </trkpt>
      <trkpt lat="43.59095" lon="1.36676">
        <ele>137.8</ele>
        <time>2024-07-09T14:52:23Z</time>
      </trkpt>
      <trkpt lat="43.59089" lon="1.36678">
        <ele>137.8</ele>
        <time>2024-07-09T14:52:24Z</time>
      </trkpt>
      <trkpt lat="43.59083" lon="1.3668">
        <ele>137.8</ele>
        <time>2024-07-09T14:52:25Z</time>
      </trkpt>
      <trkpt lat="43.59075" lon="1.36683">
        <ele>137.8</ele>
        <time>2024-07-09T14:52:26Z</time>
      </trkpt>
      <trkpt lat="43.59069" lon="1.36686">
        <ele>137.8</ele>
        <time>2024-07-09T14:52:27Z</time>
      </trkpt>
      <trkpt lat="43.59062" lon="1.36688">
        <ele>137.8</ele>
        <time>2024-07-09T14:52:28Z</time>
      </trkpt>
      <trkpt lat="43.59056" lon="1.36691">
        <ele>137.8</ele>
        <time>2024-07-09T14:52:29Z</time>
      </trkpt>
      <trkpt lat="43.59049" lon="1.36693">
        <ele>137.8</ele>
        <time>2024-07-09T14:52:30Z</time>
      </trkpt>
      <trkpt lat="43.59044" lon="1.36697">
        <ele>138</ele>
        <time>2024-07-09T14:52:31Z</time>
      </trkpt>
      <trkpt lat="43.59039" lon="1.367">
        <ele>138</ele>
        <time>2024-07-09T14:52:32Z</time>
      </trkpt>
      <trkpt lat="43.59039" lon="1.367">
        <ele>138</ele>
        <time>2024-07-09T14:52:33Z</time>
      </trkpt>
      <trkpt lat="43.59033" lon="1.36707">
        <ele>138</ele>
        <time>2024-07-09T14:52:34Z</time>
      </trkpt>
      <trkpt lat="43.59032" lon="1.3671">
        <ele>138</ele>
        <time>2024-07-09T14:52:35Z</time>
      </trkpt>
      <trkpt lat="43.5903" lon="1.36713">
        <ele>138.2</ele>
        <time>2024-07-09T14:52:36Z</time>
      </trkpt>
      <trkpt lat="43.59028" lon="1.36716">
        <ele>138.4</ele>
        <time>2024-07-09T14:52:37Z</time>
      </trkpt>
      <trkpt lat="43.59027" lon="1.36719">
        <ele>139.2</ele>
        <time>2024-07-09T14:52:38Z</time>
      </trkpt>
      <trkpt lat="43.59026" lon="1.36721">
        <ele>139.6</ele>
        <time>2024-07-09T14:52:39Z</time>
      </trkpt>
      <trkpt lat="43.59026" lon="1.36722">
        <ele>140</ele>
        <time>2024-07-09T14:52:40Z</time>
      </trkpt>
      <trkpt lat="43.59026" lon="1.36722">
        <ele>140.4</ele>
        <time>2024-07-09T14:52:41Z</time>
      </trkpt>
      <trkpt lat="43.59022" lon="1.36724">
        <ele>140.8</ele>
        <time>2024-07-09T14:52:42Z</time>
      </trkpt>
      <trkpt lat="43.59022" lon="1.36724">
        <ele>141</ele>
        <time>2024-07-09T14:52:43Z</time>
      </trkpt>
      <trkpt lat="43.59022" lon="1.36724">
        <ele>141.2</ele>
        <time>2024-07-09T14:52:44Z</time>
      </trkpt>
      <trkpt lat="43.59022" lon="1.36724">
        <ele>141.4</ele>
        <time>2024-07-09T14:52:45Z</time>
      </trkpt>
      <trkpt lat="43.59022" lon="1.36724">
        <ele>141.4</ele>
        <time>2024-07-09T14:52:46Z</time>
      </trkpt>
      <trkpt lat="43.59014" lon="1.36727">
        <ele>141.6</ele>
        <time>2024-07-09T14:52:53Z</time>
      </trkpt>
      <trkpt lat="43.59011" lon="1.36726">
        <ele>141.6</ele>
        <time>2024-07-09T14:52:54Z</time>
      </trkpt>
      <trkpt lat="43.59008" lon="1.36723">
        <ele>141.6</ele>
        <time>2024-07-09T14:52:55Z</time>
      </trkpt>
      <trkpt lat="43.59004" lon="1.36719">
        <ele>141.4</ele>
        <time>2024-07-09T14:52:56Z</time>
      </trkpt>
      <trkpt lat="43.59002" lon="1.36715">
        <ele>141.4</ele>
        <time>2024-07-09T14:52:57Z</time>
      </trkpt>
      <trkpt lat="43.59001" lon="1.36712">
        <ele>141.4</ele>
        <time>2024-07-09T14:52:58Z</time>
      </trkpt>
      <trkpt lat="43.58998" lon="1.36709">
        <ele>141.4</ele>
        <time>2024-07-09T14:52:59Z</time>
      </trkpt>
      <trkpt lat="43.58995" lon="1.36708">
        <ele>141.4</ele>
        <time>2024-07-09T14:53:00Z</time>
      </trkpt>
      <trkpt lat="43.58991" lon="1.36707">
        <ele>141.4</ele>
        <time>2024-07-09T14:53:01Z</time>
      </trkpt>
      <trkpt lat="43.58986" lon="1.36707">
        <ele>141.2</ele>
        <time>2024-07-09T14:53:02Z</time>
      </trkpt>
      <trkpt lat="43.58981" lon="1.36707">
        <ele>141.2</ele>
        <time>2024-07-09T14:53:03Z</time>
      </trkpt>
      <trkpt lat="43.58976" lon="1.36706">
        <ele>141</ele>
        <time>2024-07-09T14:53:04Z</time>
      </trkpt>
      <trkpt lat="43.58971" lon="1.36704">
        <ele>140.8</ele>
        <time>2024-07-09T14:53:05Z</time>
      </trkpt>
      <trkpt lat="43.58966" lon="1.36701">
        <ele>140.4</ele>
        <time>2024-07-09T14:53:06Z</time>
      </trkpt>
      <trkpt lat="43.5896" lon="1.36697">
        <ele>140.2</ele>
        <time>2024-07-09T14:53:07Z</time>
      </trkpt>
      <trkpt lat="43.58955" lon="1.36693">
        <ele>139.8</ele>
        <time>2024-07-09T14:53:08Z</time>
      </trkpt>
      <trkpt lat="43.58951" lon="1.36689">
        <ele>139.2</ele>
        <time>2024-07-09T14:53:09Z</time>
      </trkpt>
      <trkpt lat="43.58946" lon="1.36686">
        <ele>139</ele>
        <time>2024-07-09T14:53:10Z</time>
      </trkpt>
      <trkpt lat="43.58941" lon="1.36683">
        <ele>138.4</ele>
        <time>2024-07-09T14:53:11Z</time>
      </trkpt>
      <trkpt lat="43.58936" lon="1.36679">
        <ele>138.4</ele>
        <time>2024-07-09T14:53:12Z</time>
      </trkpt>
      <trkpt lat="43.58931" lon="1.36674">
        <ele>138.2</ele>
        <time>2024-07-09T14:53:13Z</time>
      </trkpt>
      <trkpt lat="43.58926" lon="1.36668">
        <ele>138</ele>
        <time>2024-07-09T14:53:14Z</time>
      </trkpt>
      <trkpt lat="43.5892" lon="1.36663">
        <ele>138</ele>
        <time>2024-07-09T14:53:15Z</time>
      </trkpt>
      <trkpt lat="43.58916" lon="1.36657">
        <ele>137.8</ele>
        <time>2024-07-09T14:53:16Z</time>
      </trkpt>
      <trkpt lat="43.58911" lon="1.36651">
        <ele>137.8</ele>
        <time>2024-07-09T14:53:17Z</time>
      </trkpt>
      <trkpt lat="43.58908" lon="1.36646">
        <ele>137.6</ele>
        <time>2024-07-09T14:53:18Z</time>
      </trkpt>
      <trkpt lat="43.58905" lon="1.36641">
        <ele>137.6</ele>
        <time>2024-07-09T14:53:19Z</time>
      </trkpt>
      <trkpt lat="43.58901" lon="1.36635">
        <ele>137.6</ele>
        <time>2024-07-09T14:53:20Z</time>
      </trkpt>
      <trkpt lat="43.58897" lon="1.36629">
        <ele>137.6</ele>
        <time>2024-07-09T14:53:21Z</time>
      </trkpt>
      <trkpt lat="43.58892" lon="1.36622">
        <ele>137.6</ele>
        <time>2024-07-09T14:53:22Z</time>
      </trkpt>
      <trkpt lat="43.58887" lon="1.36615">
        <ele>137.6</ele>
        <time>2024-07-09T14:53:23Z</time>
      </trkpt>
      <trkpt lat="43.58883" lon="1.36607">
        <ele>137.6</ele>
        <time>2024-07-09T14:53:24Z</time>
      </trkpt>
      <trkpt lat="43.58879" lon="1.36599">
        <ele>137.6</ele>
        <time>2024-07-09T14:53:25Z</time>
      </trkpt>
      <trkpt lat="43.58875" lon="1.36592">
        <ele>137.6</ele>
        <time>2024-07-09T14:53:26Z</time>
      </trkpt>
      <trkpt lat="43.58872" lon="1.36586">
        <ele>137.6</ele>
        <time>2024-07-09T14:53:27Z</time>
      </trkpt>
      <trkpt lat="43.58868" lon="1.36577">
        <ele>137.6</ele>
        <time>2024-07-09T14:53:28Z</time>
      </trkpt>
      <trkpt lat="43.58865" lon="1.36569">
        <ele>137.6</ele>
        <time>2024-07-09T14:53:29Z</time>
      </trkpt>
      <trkpt lat="43.58862" lon="1.36561">
        <ele>137.8</ele>
        <time>2024-07-09T14:53:30Z</time>
      </trkpt>
      <trkpt lat="43.5886" lon="1.36552">
        <ele>137.8</ele>
        <time>2024-07-09T14:53:31Z</time>
      </trkpt>
      <trkpt lat="43.58857" lon="1.36544">
        <ele>137.8</ele>
        <time>2024-07-09T14:53:32Z</time>
      </trkpt>
      <trkpt lat="43.58854" lon="1.36534">
        <ele>137.8</ele>
        <time>2024-07-09T14:53:33Z</time>
      </trkpt>
      <trkpt lat="43.58851" lon="1.36526">
        <ele>137.8</ele>
        <time>2024-07-09T14:53:34Z</time>
      </trkpt>
      <trkpt lat="43.58848" lon="1.36516">
        <ele>137.8</ele>
        <time>2024-07-09T14:53:35Z</time>
      </trkpt>
      <trkpt lat="43.58845" lon="1.36507">
        <ele>137.8</ele>
        <time>2024-07-09T14:53:36Z</time>
      </trkpt>
      <trkpt lat="43.58842" lon="1.365">
        <ele>138</ele>
        <time>2024-07-09T14:53:37Z</time>
      </trkpt>
      <trkpt lat="43.58839" lon="1.36493">
        <ele>138</ele>
        <time>2024-07-09T14:53:38Z</time>
      </trkpt>
      <trkpt lat="43.58836" lon="1.36486">
        <ele>138</ele>
        <time>2024-07-09T14:53:39Z</time>
      </trkpt>
      <trkpt lat="43.58832" lon="1.3648">
        <ele>138</ele>
        <time>2024-07-09T14:53:40Z</time>
      </trkpt>
      <trkpt lat="43.58829" lon="1.36474">
        <ele>138.2</ele>
        <time>2024-07-09T14:53:41Z</time>
      </trkpt>
      <trkpt lat="43.58826" lon="1.36468">
        <ele>138.4</ele>
        <time>2024-07-09T14:53:42Z</time>
      </trkpt>
      <trkpt lat="43.58823" lon="1.36461">
        <ele>138.8</ele>
        <time>2024-07-09T14:53:43Z</time>
      </trkpt>
      <trkpt lat="43.5882" lon="1.36454">
        <ele>138.8</ele>
        <time>2024-07-09T14:53:44Z</time>
      </trkpt>
      <trkpt lat="43.58816" lon="1.36448">
        <ele>138.8</ele>
        <time>2024-07-09T14:53:45Z</time>
      </trkpt>
      <trkpt lat="43.58812" lon="1.36442">
        <ele>138.8</ele>
        <time>2024-07-09T14:53:46Z</time>
      </trkpt>
      <trkpt lat="43.58808" lon="1.36434">
        <ele>139</ele>
        <time>2024-07-09T14:53:47Z</time>
      </trkpt>
      <trkpt lat="43.58804" lon="1.36427">
        <ele>139.2</ele>
        <time>2024-07-09T14:53:48Z</time>
      </trkpt>
      <trkpt lat="43.588" lon="1.36421">
        <ele>139.2</ele>
        <time>2024-07-09T14:53:49Z</time>
      </trkpt>
      <trkpt lat="43.58795" lon="1.36415">
        <ele>139.2</ele>
        <time>2024-07-09T14:53:50Z</time>
      </trkpt>
      <trkpt lat="43.5879" lon="1.3641">
        <ele>139.4</ele>
        <time>2024-07-09T14:53:51Z</time>
      </trkpt>
      <trkpt lat="43.58785" lon="1.36405">
        <ele>139.4</ele>
        <time>2024-07-09T14:53:52Z</time>
      </trkpt>
      <trkpt lat="43.58779" lon="1.364">
        <ele>139.4</ele>
        <time>2024-07-09T14:53:53Z</time>
      </trkpt>
      <trkpt lat="43.58774" lon="1.36396">
        <ele>139.4</ele>
        <time>2024-07-09T14:53:54Z</time>
      </trkpt>
      <trkpt lat="43.58768" lon="1.36392">
        <ele>139.4</ele>
        <time>2024-07-09T14:53:55Z</time>
      </trkpt>
      <trkpt lat="43.58762" lon="1.36387">
        <ele>139.4</ele>
        <time>2024-07-09T14:53:56Z</time>
      </trkpt>
      <trkpt lat="43.58757" lon="1.36383">
        <ele>139.4</ele>
        <time>2024-07-09T14:53:57Z</time>
      </trkpt>
      <trkpt lat="43.58752" lon="1.36378">
        <ele>139.4</ele>
        <time>2024-07-09T14:53:58Z</time>
      </trkpt>
      <trkpt lat="43.58747" lon="1.36372">
        <ele>139.4</ele>
        <time>2024-07-09T14:53:59Z</time>
      </trkpt>
      <trkpt lat="43.58742" lon="1.36367">
        <ele>139.6</ele>
        <time>2024-07-09T14:54:00Z</time>
      </trkpt>
      <trkpt lat="43.58737" lon="1.36361">
        <ele>139.6</ele>
        <time>2024-07-09T14:54:01Z</time>
      </trkpt>
      <trkpt lat="43.58733" lon="1.36355">
        <ele>139.6</ele>
        <time>2024-07-09T14:54:02Z</time>
      </trkpt>
      <trkpt lat="43.58728" lon="1.36349">
        <ele>139.6</ele>
        <time>2024-07-09T14:54:03Z</time>
      </trkpt>
      <trkpt lat="43.58723" lon="1.36344">
        <ele>139.6</ele>
        <time>2024-07-09T14:54:04Z</time>
      </trkpt>
      <trkpt lat="43.58717" lon="1.36338">
        <ele>139.6</ele>
        <time>2024-07-09T14:54:05Z</time>
      </trkpt>
      <trkpt lat="43.58712" lon="1.36333">
        <ele>139.4</ele>
        <time>2024-07-09T14:54:06Z</time>
      </trkpt>
      <trkpt lat="43.58706" lon="1.36328">
        <ele>139.4</ele>
        <time>2024-07-09T14:54:07Z</time>
      </trkpt>
      <trkpt lat="43.58701" lon="1.36324">
        <ele>139.4</ele>
        <time>2024-07-09T14:54:08Z</time>
      </trkpt>
      <trkpt lat="43.58695" lon="1.36319">
        <ele>139.4</ele>
        <time>2024-07-09T14:54:09Z</time>
      </trkpt>
      <trkpt lat="43.5869" lon="1.36314">
        <ele>139.4</ele>
        <time>2024-07-09T14:54:10Z</time>
      </trkpt>
      <trkpt lat="43.58685" lon="1.36308">
        <ele>139.4</ele>
        <time>2024-07-09T14:54:11Z</time>
      </trkpt>
      <trkpt lat="43.58681" lon="1.36302">
        <ele>139.4</ele>
        <time>2024-07-09T14:54:12Z</time>
      </trkpt>
      <trkpt lat="43.58676" lon="1.36296">
        <ele>139.4</ele>
        <time>2024-07-09T14:54:13Z</time>
      </trkpt>
      <trkpt lat="43.58672" lon="1.36289">
        <ele>139.4</ele>
        <time>2024-07-09T14:54:14Z</time>
      </trkpt>
      <trkpt lat="43.58667" lon="1.36283">
        <ele>139.4</ele>
        <time>2024-07-09T14:54:15Z</time>
      </trkpt>
      <trkpt lat="43.58663" lon="1.36277">
        <ele>139.4</ele>
        <time>2024-07-09T14:54:16Z</time>
      </trkpt>
      <trkpt lat="43.58658" lon="1.36271">
        <ele>139.4</ele>
        <time>2024-07-09T14:54:17Z</time>
      </trkpt>
      <trkpt lat="43.58654" lon="1.36265">
        <ele>139.4</ele>
        <time>2024-07-09T14:54:18Z</time>
      </trkpt>
      <trkpt lat="43.58649" lon="1.36259">
        <ele>139.4</ele>
        <time>2024-07-09T14:54:19Z</time>
      </trkpt>
      <trkpt lat="43.58645" lon="1.36254">
        <ele>139.6</ele>
        <time>2024-07-09T14:54:20Z</time>
      </trkpt>
      <trkpt lat="43.5864" lon="1.36249">
        <ele>139.6</ele>
        <time>2024-07-09T14:54:21Z</time>
      </trkpt>
      <trkpt lat="43.58634" lon="1.36243">
        <ele>139.6</ele>
        <time>2024-07-09T14:54:22Z</time>
      </trkpt>
      <trkpt lat="43.5863" lon="1.3624">
        <ele>139.6</ele>
        <time>2024-07-09T14:54:23Z</time>
      </trkpt>
      <trkpt lat="43.58623" lon="1.36238">
        <ele>139.6</ele>
        <time>2024-07-09T14:54:24Z</time>
      </trkpt>
      <trkpt lat="43.58617" lon="1.36239">
        <ele>139.6</ele>
        <time>2024-07-09T14:54:25Z</time>
      </trkpt>
      <trkpt lat="43.5861" lon="1.36241">
        <ele>139.6</ele>
        <time>2024-07-09T14:54:26Z</time>
      </trkpt>
      <trkpt lat="43.58604" lon="1.36244">
        <ele>139.6</ele>
        <time>2024-07-09T14:54:27Z</time>
      </trkpt>
      <trkpt lat="43.58598" lon="1.36247">
        <ele>139.6</ele>
        <time>2024-07-09T14:54:28Z</time>
      </trkpt>
      <trkpt lat="43.58593" lon="1.36249">
        <ele>139.6</ele>
        <time>2024-07-09T14:54:29Z</time>
      </trkpt>
      <trkpt lat="43.58587" lon="1.36252">
        <ele>139.6</ele>
        <time>2024-07-09T14:54:30Z</time>
      </trkpt>
      <trkpt lat="43.58582" lon="1.36254">
        <ele>139.6</ele>
        <time>2024-07-09T14:54:31Z</time>
      </trkpt>
      <trkpt lat="43.58577" lon="1.36257">
        <ele>139.6</ele>
        <time>2024-07-09T14:54:32Z</time>
      </trkpt>
      <trkpt lat="43.58572" lon="1.36259">
        <ele>139.6</ele>
        <time>2024-07-09T14:54:33Z</time>
      </trkpt>
      <trkpt lat="43.58567" lon="1.36262">
        <ele>139.6</ele>
        <time>2024-07-09T14:54:34Z</time>
      </trkpt>
      <trkpt lat="43.58562" lon="1.36264">
        <ele>139.6</ele>
        <time>2024-07-09T14:54:35Z</time>
      </trkpt>
      <trkpt lat="43.58557" lon="1.36267">
        <ele>139.8</ele>
        <time>2024-07-09T14:54:36Z</time>
      </trkpt>
      <trkpt lat="43.58552" lon="1.36269">
        <ele>140</ele>
        <time>2024-07-09T14:54:37Z</time>
      </trkpt>
      <trkpt lat="43.58547" lon="1.36271">
        <ele>140.2</ele>
        <time>2024-07-09T14:54:38Z</time>
      </trkpt>
      <trkpt lat="43.58542" lon="1.36274">
        <ele>140.4</ele>
        <time>2024-07-09T14:54:39Z</time>
      </trkpt>
      <trkpt lat="43.58538" lon="1.36277">
        <ele>140.4</ele>
        <time>2024-07-09T14:54:40Z</time>
      </trkpt>
      <trkpt lat="43.58533" lon="1.3628">
        <ele>140.6</ele>
        <time>2024-07-09T14:54:41Z</time>
      </trkpt>
      <trkpt lat="43.58528" lon="1.36283">
        <ele>140.6</ele>
        <time>2024-07-09T14:54:42Z</time>
      </trkpt>
      <trkpt lat="43.58525" lon="1.36284">
        <ele>140.8</ele>
        <time>2024-07-09T14:54:43Z</time>
      </trkpt>
      <trkpt lat="43.58521" lon="1.36284">
        <ele>140.8</ele>
        <time>2024-07-09T14:54:44Z</time>
      </trkpt>
      <trkpt lat="43.5852" lon="1.36281">
        <ele>141</ele>
        <time>2024-07-09T14:54:45Z</time>
      </trkpt>
      <trkpt lat="43.5852" lon="1.36277">
        <ele>141.2</ele>
        <time>2024-07-09T14:54:46Z</time>
      </trkpt>
      <trkpt lat="43.58522" lon="1.36275">
        <ele>141.2</ele>
        <time>2024-07-09T14:54:47Z</time>
      </trkpt>
      <trkpt lat="43.58525" lon="1.36273">
        <ele>141.4</ele>
        <time>2024-07-09T14:54:48Z</time>
      </trkpt>
      <trkpt lat="43.58528" lon="1.36271">
        <ele>141.6</ele>
        <time>2024-07-09T14:54:49Z</time>
      </trkpt>
      <trkpt lat="43.58532" lon="1.36269">
        <ele>141.8</ele>
        <time>2024-07-09T14:54:50Z</time>
      </trkpt>
      <trkpt lat="43.58536" lon="1.36267">
        <ele>141.8</ele>
        <time>2024-07-09T14:54:51Z</time>
      </trkpt>
      <trkpt lat="43.58541" lon="1.36264">
        <ele>141.8</ele>
        <time>2024-07-09T14:54:52Z</time>
      </trkpt>
      <trkpt lat="43.58545" lon="1.36262">
        <ele>141.8</ele>
        <time>2024-07-09T14:54:53Z</time>
      </trkpt>
      <trkpt lat="43.5855" lon="1.3626">
        <ele>142</ele>
        <time>2024-07-09T14:54:54Z</time>
      </trkpt>
      <trkpt lat="43.58555" lon="1.36257">
        <ele>142</ele>
        <time>2024-07-09T14:54:55Z</time>
      </trkpt>
      <trkpt lat="43.5856" lon="1.36255">
        <ele>142</ele>
        <time>2024-07-09T14:54:56Z</time>
      </trkpt>
      <trkpt lat="43.58566" lon="1.36252">
        <ele>142</ele>
        <time>2024-07-09T14:54:57Z</time>
      </trkpt>
      <trkpt lat="43.58571" lon="1.36249">
        <ele>142</ele>
        <time>2024-07-09T14:54:58Z</time>
      </trkpt>
      <trkpt lat="43.58576" lon="1.36247">
        <ele>142.2</ele>
        <time>2024-07-09T14:54:59Z</time>
      </trkpt>
      <trkpt lat="43.58581" lon="1.36245">
        <ele>142.2</ele>
        <time>2024-07-09T14:55:00Z</time>
      </trkpt>
      <trkpt lat="43.58587" lon="1.36242">
        <ele>142.2</ele>
        <time>2024-07-09T14:55:01Z</time>
      </trkpt>
      <trkpt lat="43.58593" lon="1.36239">
        <ele>142.2</ele>
        <time>2024-07-09T14:55:02Z</time>
      </trkpt>
      <trkpt lat="43.58599" lon="1.36236">
        <ele>142.2</ele>
        <time>2024-07-09T14:55:03Z</time>
      </trkpt>
      <trkpt lat="43.58604" lon="1.36234">
        <ele>142.2</ele>
        <time>2024-07-09T14:55:04Z</time>
      </trkpt>
      <trkpt lat="43.5861" lon="1.36231">
        <ele>142.2</ele>
        <time>2024-07-09T14:55:05Z</time>
      </trkpt>
      <trkpt lat="43.58615" lon="1.36228">
        <ele>142.2</ele>
        <time>2024-07-09T14:55:06Z</time>
      </trkpt>
      <trkpt lat="43.58621" lon="1.36226">
        <ele>142.2</ele>
        <time>2024-07-09T14:55:07Z</time>
      </trkpt>
      <trkpt lat="43.58626" lon="1.36223">
        <ele>142.2</ele>
        <time>2024-07-09T14:55:08Z</time>
      </trkpt>
      <trkpt lat="43.58632" lon="1.36221">
        <ele>142.2</ele>
        <time>2024-07-09T14:55:09Z</time>
      </trkpt>
      <trkpt lat="43.58637" lon="1.36219">
        <ele>142.2</ele>
        <time>2024-07-09T14:55:10Z</time>
      </trkpt>
      <trkpt lat="43.58644" lon="1.36216">
        <ele>142.2</ele>
        <time>2024-07-09T14:55:11Z</time>
      </trkpt>
      <trkpt lat="43.58648" lon="1.36214">
        <ele>142.2</ele>
        <time>2024-07-09T14:55:12Z</time>
      </trkpt>
      <trkpt lat="43.58654" lon="1.36211">
        <ele>142.2</ele>
        <time>2024-07-09T14:55:13Z</time>
      </trkpt>
      <trkpt lat="43.58659" lon="1.36209">
        <ele>142.2</ele>
        <time>2024-07-09T14:55:14Z</time>
      </trkpt>
      <trkpt lat="43.58665" lon="1.36206">
        <ele>142.2</ele>
        <time>2024-07-09T14:55:15Z</time>
      </trkpt>
      <trkpt lat="43.58671" lon="1.36203">
        <ele>142.2</ele>
        <time>2024-07-09T14:55:16Z</time>
      </trkpt>
      <trkpt lat="43.58677" lon="1.362">
        <ele>142.2</ele>
        <time>2024-07-09T14:55:17Z</time>
      </trkpt>
      <trkpt lat="43.58683" lon="1.36198">
        <ele>142.2</ele>
        <time>2024-07-09T14:55:18Z</time>
      </trkpt>
      <trkpt lat="43.58689" lon="1.36195">
        <ele>142</ele>
        <time>2024-07-09T14:55:19Z</time>
      </trkpt>
      <trkpt lat="43.58696" lon="1.36192">
        <ele>142</ele>
        <time>2024-07-09T14:55:20Z</time>
      </trkpt>
      <trkpt lat="43.58702" lon="1.36189">
        <ele>142</ele>
        <time>2024-07-09T14:55:21Z</time>
      </trkpt>
      <trkpt lat="43.58708" lon="1.36186">
        <ele>142</ele>
        <time>2024-07-09T14:55:22Z</time>
      </trkpt>
      <trkpt lat="43.58715" lon="1.36183">
        <ele>141.8</ele>
        <time>2024-07-09T14:55:23Z</time>
      </trkpt>
      <trkpt lat="43.58721" lon="1.3618">
        <ele>141.8</ele>
        <time>2024-07-09T14:55:24Z</time>
      </trkpt>
      <trkpt lat="43.58727" lon="1.36177">
        <ele>141.8</ele>
        <time>2024-07-09T14:55:25Z</time>
      </trkpt>
      <trkpt lat="43.58733" lon="1.36174">
        <ele>141.8</ele>
        <time>2024-07-09T14:55:26Z</time>
      </trkpt>
      <trkpt lat="43.58739" lon="1.36172">
        <ele>141.6</ele>
        <time>2024-07-09T14:55:27Z</time>
      </trkpt>
      <trkpt lat="43.58739" lon="1.36172">
        <ele>141.6</ele>
        <time>2024-07-09T14:55:28Z</time>
      </trkpt>
      <trkpt lat="43.58751" lon="1.36167">
        <ele>141.6</ele>
        <time>2024-07-09T14:55:29Z</time>
      </trkpt>
      <trkpt lat="43.58757" lon="1.36165">
        <ele>141.6</ele>
        <time>2024-07-09T14:55:30Z</time>
      </trkpt>
      <trkpt lat="43.58763" lon="1.36163">
        <ele>141.6</ele>
        <time>2024-07-09T14:55:31Z</time>
      </trkpt>
      <trkpt lat="43.58768" lon="1.3616">
        <ele>141.6</ele>
        <time>2024-07-09T14:55:32Z</time>
      </trkpt>
      <trkpt lat="43.58772" lon="1.36158">
        <ele>141.6</ele>
        <time>2024-07-09T14:55:33Z</time>
      </trkpt>
      <trkpt lat="43.58775" lon="1.36159">
        <ele>141.6</ele>
        <time>2024-07-09T14:55:34Z</time>
      </trkpt>
      <trkpt lat="43.58777" lon="1.3616">
        <ele>141.6</ele>
        <time>2024-07-09T14:55:35Z</time>
      </trkpt>
      <trkpt lat="43.58777" lon="1.36162">
        <ele>141.6</ele>
        <time>2024-07-09T14:55:36Z</time>
      </trkpt>
      <trkpt lat="43.58774" lon="1.36164">
        <ele>141.6</ele>
        <time>2024-07-09T14:55:37Z</time>
      </trkpt>
      <trkpt lat="43.5877" lon="1.36166">
        <ele>141.6</ele>
        <time>2024-07-09T14:55:38Z</time>
      </trkpt>
      <trkpt lat="43.58765" lon="1.36168">
        <ele>141.6</ele>
        <time>2024-07-09T14:55:39Z</time>
      </trkpt>
      <trkpt lat="43.5876" lon="1.36171">
        <ele>141.6</ele>
        <time>2024-07-09T14:55:40Z</time>
      </trkpt>
      <trkpt lat="43.58754" lon="1.36174">
        <ele>141.6</ele>
        <time>2024-07-09T14:55:41Z</time>
      </trkpt>
      <trkpt lat="43.58749" lon="1.36176">
        <ele>141.6</ele>
        <time>2024-07-09T14:55:42Z</time>
      </trkpt>
      <trkpt lat="43.58749" lon="1.36176">
        <ele>141.6</ele>
        <time>2024-07-09T14:55:43Z</time>
      </trkpt>
      <trkpt lat="43.58737" lon="1.36182">
        <ele>141.4</ele>
        <time>2024-07-09T14:55:44Z</time>
      </trkpt>
      <trkpt lat="43.58731" lon="1.36185">
        <ele>141.2</ele>
        <time>2024-07-09T14:55:45Z</time>
      </trkpt>
      <trkpt lat="43.58725" lon="1.36188">
        <ele>141</ele>
        <time>2024-07-09T14:55:46Z</time>
      </trkpt>
      <trkpt lat="43.58718" lon="1.36192">
        <ele>141</ele>
        <time>2024-07-09T14:55:47Z</time>
      </trkpt>
      <trkpt lat="43.58712" lon="1.36196">
        <ele>140.8</ele>
        <time>2024-07-09T14:55:48Z</time>
      </trkpt>
      <trkpt lat="43.58706" lon="1.36201">
        <ele>140.8</ele>
        <time>2024-07-09T14:55:49Z</time>
      </trkpt>
      <trkpt lat="43.58699" lon="1.36205">
        <ele>140.6</ele>
        <time>2024-07-09T14:55:50Z</time>
      </trkpt>
      <trkpt lat="43.58693" lon="1.36208">
        <ele>140.6</ele>
        <time>2024-07-09T14:55:51Z</time>
      </trkpt>
      <trkpt lat="43.58687" lon="1.36212">
        <ele>140.4</ele>
        <time>2024-07-09T14:55:52Z</time>
      </trkpt>
      <trkpt lat="43.5868" lon="1.36213">
        <ele>140.4</ele>
        <time>2024-07-09T14:55:53Z</time>
      </trkpt>
      <trkpt lat="43.58673" lon="1.36211">
        <ele>140.2</ele>
        <time>2024-07-09T14:55:54Z</time>
      </trkpt>
      <trkpt lat="43.58667" lon="1.36208">
        <ele>140.2</ele>
        <time>2024-07-09T14:55:55Z</time>
      </trkpt>
      <trkpt lat="43.58662" lon="1.36204">
        <ele>140</ele>
        <time>2024-07-09T14:55:56Z</time>
      </trkpt>
      <trkpt lat="43.58658" lon="1.36201">
        <ele>139.8</ele>
        <time>2024-07-09T14:55:57Z</time>
      </trkpt>
      <trkpt lat="43.58653" lon="1.36197">
        <ele>139.8</ele>
        <time>2024-07-09T14:55:58Z</time>
      </trkpt>
      <trkpt lat="43.58646" lon="1.36194">
        <ele>139.8</ele>
        <time>2024-07-09T14:55:59Z</time>
      </trkpt>
      <trkpt lat="43.58641" lon="1.36189">
        <ele>139.8</ele>
        <time>2024-07-09T14:56:00Z</time>
      </trkpt>
      <trkpt lat="43.58637" lon="1.36184">
        <ele>139.6</ele>
        <time>2024-07-09T14:56:01Z</time>
      </trkpt>
      <trkpt lat="43.58635" lon="1.36181">
        <ele>139.8</ele>
        <time>2024-07-09T14:56:02Z</time>
      </trkpt>
      <trkpt lat="43.5862" lon="1.3617">
        <ele>139.6</ele>
        <time>2024-07-09T14:56:03Z</time>
      </trkpt>
      <trkpt lat="43.58618" lon="1.36164">
        <ele>139.6</ele>
        <time>2024-07-09T14:56:04Z</time>
      </trkpt>
      <trkpt lat="43.58613" lon="1.3616">
        <ele>139.6</ele>
        <time>2024-07-09T14:56:05Z</time>
      </trkpt>
      <trkpt lat="43.58607" lon="1.36156">
        <ele>139.8</ele>
        <time>2024-07-09T14:56:06Z</time>
      </trkpt>
      <trkpt lat="43.58602" lon="1.36151">
        <ele>139.8</ele>
        <time>2024-07-09T14:56:07Z</time>
      </trkpt>
      <trkpt lat="43.58598" lon="1.36146">
        <ele>139.8</ele>
        <time>2024-07-09T14:56:08Z</time>
      </trkpt>
      <trkpt lat="43.58594" lon="1.36141">
        <ele>139.8</ele>
        <time>2024-07-09T14:56:09Z</time>
      </trkpt>
      <trkpt lat="43.58591" lon="1.36136">
        <ele>140</ele>
        <time>2024-07-09T14:56:10Z</time>
      </trkpt>
      <trkpt lat="43.58587" lon="1.36132">
        <ele>140</ele>
        <time>2024-07-09T14:56:11Z</time>
      </trkpt>
      <trkpt lat="43.58583" lon="1.36128">
        <ele>140.2</ele>
        <time>2024-07-09T14:56:12Z</time>
      </trkpt>
      <trkpt lat="43.58579" lon="1.36125">
        <ele>140.6</ele>
        <time>2024-07-09T14:56:13Z</time>
      </trkpt>
      <trkpt lat="43.58574" lon="1.36122">
        <ele>140.6</ele>
        <time>2024-07-09T14:56:14Z</time>
      </trkpt>
      <trkpt lat="43.58569" lon="1.36118">
        <ele>140.8</ele>
        <time>2024-07-09T14:56:15Z</time>
      </trkpt>
      <trkpt lat="43.58565" lon="1.36114">
        <ele>141</ele>
        <time>2024-07-09T14:56:16Z</time>
      </trkpt>
      <trkpt lat="43.58561" lon="1.3611">
        <ele>141.2</ele>
        <time>2024-07-09T14:56:17Z</time>
      </trkpt>
      <trkpt lat="43.58556" lon="1.36105">
        <ele>141.2</ele>
        <time>2024-07-09T14:56:18Z</time>
      </trkpt>
      <trkpt lat="43.58552" lon="1.36101">
        <ele>141.4</ele>
        <time>2024-07-09T14:56:19Z</time>
      </trkpt>
      <trkpt lat="43.58552" lon="1.36101">
        <ele>141.4</ele>
        <time>2024-07-09T14:56:20Z</time>
      </trkpt>
      <trkpt lat="43.58543" lon="1.36091">
        <ele>141.4</ele>
        <time>2024-07-09T14:56:21Z</time>
      </trkpt>
      <trkpt lat="43.58538" lon="1.36085">
        <ele>141.4</ele>
        <time>2024-07-09T14:56:22Z</time>
      </trkpt>
      <trkpt lat="43.58534" lon="1.3608">
        <ele>141.4</ele>
        <time>2024-07-09T14:56:23Z</time>
      </trkpt>
      <trkpt lat="43.58529" lon="1.36075">
        <ele>141.4</ele>
        <time>2024-07-09T14:56:24Z</time>
      </trkpt>
      <trkpt lat="43.58524" lon="1.36071">
        <ele>141.4</ele>
        <time>2024-07-09T14:56:25Z</time>
      </trkpt>
      <trkpt lat="43.58519" lon="1.36067">
        <ele>141.4</ele>
        <time>2024-07-09T14:56:26Z</time>
      </trkpt>
      <trkpt lat="43.58513" lon="1.36063">
        <ele>141.6</ele>
        <time>2024-07-09T14:56:27Z</time>
      </trkpt>
      <trkpt lat="43.58508" lon="1.36058">
        <ele>141.6</ele>
        <time>2024-07-09T14:56:28Z</time>
      </trkpt>
      <trkpt lat="43.58504" lon="1.36052">
        <ele>141.6</ele>
        <time>2024-07-09T14:56:29Z</time>
      </trkpt>
      <trkpt lat="43.585" lon="1.36045">
        <ele>141.6</ele>
        <time>2024-07-09T14:56:30Z</time>
      </trkpt>
      <trkpt lat="43.58497" lon="1.36039">
        <ele>141.8</ele>
        <time>2024-07-09T14:56:31Z</time>
      </trkpt>
      <trkpt lat="43.58493" lon="1.36032">
        <ele>141.8</ele>
        <time>2024-07-09T14:56:32Z</time>
      </trkpt>
      <trkpt lat="43.58489" lon="1.36025">
        <ele>141.8</ele>
        <time>2024-07-09T14:56:33Z</time>
      </trkpt>
      <trkpt lat="43.58485" lon="1.36019">
        <ele>141.8</ele>
        <time>2024-07-09T14:56:34Z</time>
      </trkpt>
      <trkpt lat="43.58481" lon="1.36012">
        <ele>141.8</ele>
        <time>2024-07-09T14:56:35Z</time>
      </trkpt>
      <trkpt lat="43.58477" lon="1.36006">
        <ele>141.8</ele>
        <time>2024-07-09T14:56:36Z</time>
      </trkpt>
      <trkpt lat="43.58473" lon="1.35999">
        <ele>141.8</ele>
        <time>2024-07-09T14:56:37Z</time>
      </trkpt>
      <trkpt lat="43.58469" lon="1.35992">
        <ele>141.8</ele>
        <time>2024-07-09T14:56:38Z</time>
      </trkpt>
      <trkpt lat="43.58464" lon="1.35985">
        <ele>141.8</ele>
        <time>2024-07-09T14:56:39Z</time>
      </trkpt>
      <trkpt lat="43.58459" lon="1.35977">
        <ele>141.8</ele>
        <time>2024-07-09T14:56:40Z</time>
      </trkpt>
      <trkpt lat="43.58453" lon="1.35969">
        <ele>141.6</ele>
        <time>2024-07-09T14:56:41Z</time>
      </trkpt>
      <trkpt lat="43.58453" lon="1.35969">
        <ele>141.4</ele>
        <time>2024-07-09T14:56:42Z</time>
      </trkpt>
      <trkpt lat="43.58444" lon="1.35955">
        <ele>141.2</ele>
        <time>2024-07-09T14:56:43Z</time>
      </trkpt>
      <trkpt lat="43.58439" lon="1.35947">
        <ele>141</ele>
        <time>2024-07-09T14:56:44Z</time>
      </trkpt>
      <trkpt lat="43.58436" lon="1.35941">
        <ele>141</ele>
        <time>2024-07-09T14:56:45Z</time>
      </trkpt>
      <trkpt lat="43.58432" lon="1.35934">
        <ele>140.6</ele>
        <time>2024-07-09T14:56:46Z</time>
      </trkpt>
      <trkpt lat="43.58429" lon="1.35928">
        <ele>140.6</ele>
        <time>2024-07-09T14:56:47Z</time>
      </trkpt>
      <trkpt lat="43.58426" lon="1.35922">
        <ele>140.4</ele>
        <time>2024-07-09T14:56:48Z</time>
      </trkpt>
      <trkpt lat="43.58423" lon="1.35916">
        <ele>140.2</ele>
        <time>2024-07-09T14:56:49Z</time>
      </trkpt>
      <trkpt lat="43.5842" lon="1.35909">
        <ele>140.4</ele>
        <time>2024-07-09T14:56:50Z</time>
      </trkpt>
      <trkpt lat="43.58417" lon="1.35902">
        <ele>140.4</ele>
        <time>2024-07-09T14:56:51Z</time>
      </trkpt>
      <trkpt lat="43.58414" lon="1.35894">
        <ele>140.6</ele>
        <time>2024-07-09T14:56:52Z</time>
      </trkpt>
      <trkpt lat="43.58411" lon="1.35886">
        <ele>140.8</ele>
        <time>2024-07-09T14:56:53Z</time>
      </trkpt>
      <trkpt lat="43.58408" lon="1.35879">
        <ele>140.8</ele>
        <time>2024-07-09T14:56:54Z</time>
      </trkpt>
      <trkpt lat="43.58406" lon="1.35871">
        <ele>140.8</ele>
        <time>2024-07-09T14:56:55Z</time>
      </trkpt>
      <trkpt lat="43.58404" lon="1.35863">
        <ele>141</ele>
        <time>2024-07-09T14:56:56Z</time>
      </trkpt>
      <trkpt lat="43.58402" lon="1.35855">
        <ele>141</ele>
        <time>2024-07-09T14:56:57Z</time>
      </trkpt>
      <trkpt lat="43.58399" lon="1.35847">
        <ele>141</ele>
        <time>2024-07-09T14:56:58Z</time>
      </trkpt>
      <trkpt lat="43.58395" lon="1.3584">
        <ele>141</ele>
        <time>2024-07-09T14:56:59Z</time>
      </trkpt>
      <trkpt lat="43.58392" lon="1.35834">
        <ele>141</ele>
        <time>2024-07-09T14:57:00Z</time>
      </trkpt>
      <trkpt lat="43.58387" lon="1.35828">
        <ele>140.6</ele>
        <time>2024-07-09T14:57:01Z</time>
      </trkpt>
      <trkpt lat="43.58381" lon="1.35825">
        <ele>140.6</ele>
        <time>2024-07-09T14:57:02Z</time>
      </trkpt>
      <trkpt lat="43.58375" lon="1.35823">
        <ele>140.6</ele>
        <time>2024-07-09T14:57:03Z</time>
      </trkpt>
      <trkpt lat="43.58369" lon="1.35823">
        <ele>140.6</ele>
        <time>2024-07-09T14:57:04Z</time>
      </trkpt>
      <trkpt lat="43.58364" lon="1.3582">
        <ele>140.6</ele>
        <time>2024-07-09T14:57:05Z</time>
      </trkpt>
      <trkpt lat="43.58359" lon="1.35817">
        <ele>140.6</ele>
        <time>2024-07-09T14:57:06Z</time>
      </trkpt>
      <trkpt lat="43.58354" lon="1.35812">
        <ele>140.6</ele>
        <time>2024-07-09T14:57:07Z</time>
      </trkpt>
      <trkpt lat="43.58351" lon="1.35805">
        <ele>140.6</ele>
        <time>2024-07-09T14:57:08Z</time>
      </trkpt>
      <trkpt lat="43.58349" lon="1.35799">
        <ele>140.6</ele>
        <time>2024-07-09T14:57:09Z</time>
      </trkpt>
      <trkpt lat="43.58347" lon="1.35792">
        <ele>140.6</ele>
        <time>2024-07-09T14:57:10Z</time>
      </trkpt>
      <trkpt lat="43.58345" lon="1.35783">
        <ele>140.6</ele>
        <time>2024-07-09T14:57:11Z</time>
      </trkpt>
      <trkpt lat="43.58344" lon="1.35775">
        <ele>140.6</ele>
        <time>2024-07-09T14:57:12Z</time>
      </trkpt>
      <trkpt lat="43.58343" lon="1.35766">
        <ele>140.6</ele>
        <time>2024-07-09T14:57:13Z</time>
      </trkpt>
      <trkpt lat="43.58344" lon="1.35758">
        <ele>140.6</ele>
        <time>2024-07-09T14:57:14Z</time>
      </trkpt>
      <trkpt lat="43.58345" lon="1.3575">
        <ele>140.6</ele>
        <time>2024-07-09T14:57:15Z</time>
      </trkpt>
      <trkpt lat="43.58347" lon="1.35742">
        <ele>140.6</ele>
        <time>2024-07-09T14:57:16Z</time>
      </trkpt>
      <trkpt lat="43.58349" lon="1.35733">
        <ele>140.6</ele>
        <time>2024-07-09T14:57:17Z</time>
      </trkpt>
      <trkpt lat="43.58352" lon="1.35723">
        <ele>140.6</ele>
        <time>2024-07-09T14:57:18Z</time>
      </trkpt>
      <trkpt lat="43.58354" lon="1.35714">
        <ele>140.6</ele>
        <time>2024-07-09T14:57:19Z</time>
      </trkpt>
      <trkpt lat="43.58357" lon="1.35708">
        <ele>140.8</ele>
        <time>2024-07-09T14:57:20Z</time>
      </trkpt>
      <trkpt lat="43.58361" lon="1.35702">
        <ele>140.8</ele>
        <time>2024-07-09T14:57:21Z</time>
      </trkpt>
      <trkpt lat="43.58366" lon="1.35697">
        <ele>140.8</ele>
        <time>2024-07-09T14:57:22Z</time>
      </trkpt>
      <trkpt lat="43.58372" lon="1.35692">
        <ele>141</ele>
        <time>2024-07-09T14:57:23Z</time>
      </trkpt>
      <trkpt lat="43.58377" lon="1.3569">
        <ele>141</ele>
        <time>2024-07-09T14:57:24Z</time>
      </trkpt>
      <trkpt lat="43.58384" lon="1.35685">
        <ele>141</ele>
        <time>2024-07-09T14:57:25Z</time>
      </trkpt>
      <trkpt lat="43.5839" lon="1.3568">
        <ele>141</ele>
        <time>2024-07-09T14:57:26Z</time>
      </trkpt>
      <trkpt lat="43.58395" lon="1.35675">
        <ele>141</ele>
        <time>2024-07-09T14:57:27Z</time>
      </trkpt>
      <trkpt lat="43.584" lon="1.3567">
        <ele>141</ele>
        <time>2024-07-09T14:57:28Z</time>
      </trkpt>
      <trkpt lat="43.58405" lon="1.35664">
        <ele>141.2</ele>
        <time>2024-07-09T14:57:29Z</time>
      </trkpt>
      <trkpt lat="43.5841" lon="1.35657">
        <ele>141.2</ele>
        <time>2024-07-09T14:57:30Z</time>
      </trkpt>
      <trkpt lat="43.58414" lon="1.35653">
        <ele>141.2</ele>
        <time>2024-07-09T14:57:31Z</time>
      </trkpt>
      <trkpt lat="43.58417" lon="1.35647">
        <ele>141.4</ele>
        <time>2024-07-09T14:57:32Z</time>
      </trkpt>
      <trkpt lat="43.5842" lon="1.3564">
        <ele>141.4</ele>
        <time>2024-07-09T14:57:33Z</time>
      </trkpt>
      <trkpt lat="43.58423" lon="1.35633">
        <ele>141.4</ele>
        <time>2024-07-09T14:57:34Z</time>
      </trkpt>
      <trkpt lat="43.58426" lon="1.35626">
        <ele>141.4</ele>
        <time>2024-07-09T14:57:35Z</time>
      </trkpt>
      <trkpt lat="43.58429" lon="1.35617">
        <ele>141.4</ele>
        <time>2024-07-09T14:57:36Z</time>
      </trkpt>
      <trkpt lat="43.5843" lon="1.3561">
        <ele>141.6</ele>
        <time>2024-07-09T14:57:37Z</time>
      </trkpt>
      <trkpt lat="43.5843" lon="1.35603">
        <ele>141.6</ele>
        <time>2024-07-09T14:57:38Z</time>
      </trkpt>
      <trkpt lat="43.58432" lon="1.35597">
        <ele>141.6</ele>
        <time>2024-07-09T14:57:39Z</time>
      </trkpt>
      <trkpt lat="43.58435" lon="1.35592">
        <ele>141.8</ele>
        <time>2024-07-09T14:57:40Z</time>
      </trkpt>
      <trkpt lat="43.58437" lon="1.35587">
        <ele>141.8</ele>
        <time>2024-07-09T14:57:41Z</time>
      </trkpt>
      <trkpt lat="43.58441" lon="1.3558">
        <ele>142</ele>
        <time>2024-07-09T14:57:42Z</time>
      </trkpt>
      <trkpt lat="43.58443" lon="1.35575">
        <ele>142.2</ele>
        <time>2024-07-09T14:57:43Z</time>
      </trkpt>
      <trkpt lat="43.58445" lon="1.3557">
        <ele>142.2</ele>
        <time>2024-07-09T14:57:44Z</time>
      </trkpt>
      <trkpt lat="43.58447" lon="1.35563">
        <ele>142.4</ele>
        <time>2024-07-09T14:57:45Z</time>
      </trkpt>
      <trkpt lat="43.58449" lon="1.35556">
        <ele>142.6</ele>
        <time>2024-07-09T14:57:46Z</time>
      </trkpt>
      <trkpt lat="43.58451" lon="1.35549">
        <ele>142.8</ele>
        <time>2024-07-09T14:57:47Z</time>
      </trkpt>
      <trkpt lat="43.58452" lon="1.35543">
        <ele>142.8</ele>
        <time>2024-07-09T14:57:48Z</time>
      </trkpt>
      <trkpt lat="43.58454" lon="1.35536">
        <ele>142.8</ele>
        <time>2024-07-09T14:57:49Z</time>
      </trkpt>
      <trkpt lat="43.58456" lon="1.3553">
        <ele>142.8</ele>
        <time>2024-07-09T14:57:50Z</time>
      </trkpt>
      <trkpt lat="43.58458" lon="1.35522">
        <ele>143</ele>
        <time>2024-07-09T14:57:51Z</time>
      </trkpt>
      <trkpt lat="43.58459" lon="1.35515">
        <ele>143</ele>
        <time>2024-07-09T14:57:52Z</time>
      </trkpt>
      <trkpt lat="43.58461" lon="1.35507">
        <ele>143</ele>
        <time>2024-07-09T14:57:53Z</time>
      </trkpt>
      <trkpt lat="43.58462" lon="1.35501">
        <ele>143</ele>
        <time>2024-07-09T14:57:54Z</time>
      </trkpt>
      <trkpt lat="43.58464" lon="1.35493">
        <ele>143.2</ele>
        <time>2024-07-09T14:57:55Z</time>
      </trkpt>
      <trkpt lat="43.58465" lon="1.35485">
        <ele>143.2</ele>
        <time>2024-07-09T14:57:56Z</time>
      </trkpt>
      <trkpt lat="43.58467" lon="1.35476">
        <ele>143.2</ele>
        <time>2024-07-09T14:57:57Z</time>
      </trkpt>
      <trkpt lat="43.58468" lon="1.35469">
        <ele>143</ele>
        <time>2024-07-09T14:57:58Z</time>
      </trkpt>
      <trkpt lat="43.58469" lon="1.35461">
        <ele>143</ele>
        <time>2024-07-09T14:57:59Z</time>
      </trkpt>
      <trkpt lat="43.58469" lon="1.35453">
        <ele>143</ele>
        <time>2024-07-09T14:58:00Z</time>
      </trkpt>
      <trkpt lat="43.58468" lon="1.35445">
        <ele>143.2</ele>
        <time>2024-07-09T14:58:01Z</time>
      </trkpt>
      <trkpt lat="43.58467" lon="1.35437">
        <ele>143.2</ele>
        <time>2024-07-09T14:58:02Z</time>
      </trkpt>
      <trkpt lat="43.58466" lon="1.35429">
        <ele>143.2</ele>
        <time>2024-07-09T14:58:03Z</time>
      </trkpt>
      <trkpt lat="43.58465" lon="1.35421">
        <ele>143.2</ele>
        <time>2024-07-09T14:58:04Z</time>
      </trkpt>
      <trkpt lat="43.58464" lon="1.35413">
        <ele>143.2</ele>
        <time>2024-07-09T14:58:05Z</time>
      </trkpt>
      <trkpt lat="43.58463" lon="1.35406">
        <ele>143.4</ele>
        <time>2024-07-09T14:58:06Z</time>
      </trkpt>
      <trkpt lat="43.58462" lon="1.35399">
        <ele>143.4</ele>
        <time>2024-07-09T14:58:07Z</time>
      </trkpt>
      <trkpt lat="43.58462" lon="1.35392">
        <ele>143.4</ele>
        <time>2024-07-09T14:58:08Z</time>
      </trkpt>
      <trkpt lat="43.58461" lon="1.35386">
        <ele>143.4</ele>
        <time>2024-07-09T14:58:09Z</time>
      </trkpt>
      <trkpt lat="43.58459" lon="1.3538">
        <ele>143.6</ele>
        <time>2024-07-09T14:58:10Z</time>
      </trkpt>
      <trkpt lat="43.58456" lon="1.35376">
        <ele>143.6</ele>
        <time>2024-07-09T14:58:11Z</time>
      </trkpt>
      <trkpt lat="43.5845" lon="1.35372">
        <ele>143.6</ele>
        <time>2024-07-09T14:58:12Z</time>
      </trkpt>
      <trkpt lat="43.58447" lon="1.3537">
        <ele>143.6</ele>
        <time>2024-07-09T14:58:13Z</time>
      </trkpt>
      <trkpt lat="43.58442" lon="1.35368">
        <ele>143.6</ele>
        <time>2024-07-09T14:58:14Z</time>
      </trkpt>
      <trkpt lat="43.58438" lon="1.35366">
        <ele>143.8</ele>
        <time>2024-07-09T14:58:15Z</time>
      </trkpt>
      <trkpt lat="43.58433" lon="1.35363">
        <ele>144</ele>
        <time>2024-07-09T14:58:16Z</time>
      </trkpt>
      <trkpt lat="43.58428" lon="1.3536">
        <ele>144</ele>
        <time>2024-07-09T14:58:17Z</time>
      </trkpt>
      <trkpt lat="43.58423" lon="1.35357">
        <ele>144</ele>
        <time>2024-07-09T14:58:18Z</time>
      </trkpt>
      <trkpt lat="43.58418" lon="1.35354">
        <ele>144</ele>
        <time>2024-07-09T14:58:19Z</time>
      </trkpt>
      <trkpt lat="43.58413" lon="1.35351">
        <ele>144</ele>
        <time>2024-07-09T14:58:20Z</time>
      </trkpt>
      <trkpt lat="43.58408" lon="1.35347">
        <ele>144</ele>
        <time>2024-07-09T14:58:21Z</time>
      </trkpt>
      <trkpt lat="43.58403" lon="1.35341">
        <ele>144</ele>
        <time>2024-07-09T14:58:22Z</time>
      </trkpt>
      <trkpt lat="43.584" lon="1.35332">
        <ele>144</ele>
        <time>2024-07-09T14:58:23Z</time>
      </trkpt>
      <trkpt lat="43.58399" lon="1.35322">
        <ele>143.8</ele>
        <time>2024-07-09T14:58:24Z</time>
      </trkpt>
      <trkpt lat="43.58399" lon="1.35312">
        <ele>143.4</ele>
        <time>2024-07-09T14:58:25Z</time>
      </trkpt>
      <trkpt lat="43.58398" lon="1.35303">
        <ele>143</ele>
        <time>2024-07-09T14:58:26Z</time>
      </trkpt>
      <trkpt lat="43.58397" lon="1.35293">
        <ele>142.6</ele>
        <time>2024-07-09T14:58:27Z</time>
      </trkpt>
      <trkpt lat="43.58396" lon="1.35284">
        <ele>142.4</ele>
        <time>2024-07-09T14:58:28Z</time>
      </trkpt>
      <trkpt lat="43.58394" lon="1.35274">
        <ele>142.4</ele>
        <time>2024-07-09T14:58:29Z</time>
      </trkpt>
      <trkpt lat="43.58392" lon="1.35264">
        <ele>142.2</ele>
        <time>2024-07-09T14:58:30Z</time>
      </trkpt>
      <trkpt lat="43.58391" lon="1.35256">
        <ele>142.2</ele>
        <time>2024-07-09T14:58:31Z</time>
      </trkpt>
      <trkpt lat="43.5839" lon="1.35246">
        <ele>142</ele>
        <time>2024-07-09T14:58:32Z</time>
      </trkpt>
      <trkpt lat="43.58389" lon="1.35239">
        <ele>142</ele>
        <time>2024-07-09T14:58:33Z</time>
      </trkpt>
      <trkpt lat="43.58389" lon="1.35231">
        <ele>142</ele>
        <time>2024-07-09T14:58:34Z</time>
      </trkpt>
      <trkpt lat="43.58388" lon="1.35222">
        <ele>142</ele>
        <time>2024-07-09T14:58:35Z</time>
      </trkpt>
      <trkpt lat="43.58386" lon="1.35213">
        <ele>142</ele>
        <time>2024-07-09T14:58:36Z</time>
      </trkpt>
      <trkpt lat="43.58383" lon="1.35203">
        <ele>142</ele>
        <time>2024-07-09T14:58:37Z</time>
      </trkpt>
      <trkpt lat="43.5838" lon="1.35197">
        <ele>142</ele>
        <time>2024-07-09T14:58:38Z</time>
      </trkpt>
      <trkpt lat="43.58375" lon="1.35188">
        <ele>142</ele>
        <time>2024-07-09T14:58:39Z</time>
      </trkpt>
      <trkpt lat="43.58371" lon="1.35181">
        <ele>142</ele>
        <time>2024-07-09T14:58:40Z</time>
      </trkpt>
      <trkpt lat="43.58366" lon="1.35175">
        <ele>142</ele>
        <time>2024-07-09T14:58:41Z</time>
      </trkpt>
      <trkpt lat="43.58361" lon="1.35169">
        <ele>142</ele>
        <time>2024-07-09T14:58:42Z</time>
      </trkpt>
      <trkpt lat="43.58357" lon="1.35162">
        <ele>142</ele>
        <time>2024-07-09T14:58:43Z</time>
      </trkpt>
      <trkpt lat="43.58354" lon="1.35157">
        <ele>142</ele>
        <time>2024-07-09T14:58:44Z</time>
      </trkpt>
      <trkpt lat="43.58351" lon="1.35149">
        <ele>142</ele>
        <time>2024-07-09T14:58:45Z</time>
      </trkpt>
      <trkpt lat="43.58348" lon="1.35142">
        <ele>142</ele>
        <time>2024-07-09T14:58:46Z</time>
      </trkpt>
      <trkpt lat="43.58344" lon="1.35136">
        <ele>142</ele>
        <time>2024-07-09T14:58:47Z</time>
      </trkpt>
      <trkpt lat="43.5834" lon="1.35129">
        <ele>142</ele>
        <time>2024-07-09T14:58:48Z</time>
      </trkpt>
      <trkpt lat="43.58336" lon="1.35123">
        <ele>142</ele>
        <time>2024-07-09T14:58:49Z</time>
      </trkpt>
      <trkpt lat="43.58333" lon="1.35116">
        <ele>142</ele>
        <time>2024-07-09T14:58:50Z</time>
      </trkpt>
      <trkpt lat="43.5833" lon="1.35109">
        <ele>142.2</ele>
        <time>2024-07-09T14:58:51Z</time>
      </trkpt>
      <trkpt lat="43.58326" lon="1.35101">
        <ele>142.2</ele>
        <time>2024-07-09T14:58:52Z</time>
      </trkpt>
      <trkpt lat="43.58324" lon="1.35097">
        <ele>142.2</ele>
        <time>2024-07-09T14:58:53Z</time>
      </trkpt>
      <trkpt lat="43.5832" lon="1.35093">
        <ele>142.2</ele>
        <time>2024-07-09T14:58:54Z</time>
      </trkpt>
      <trkpt lat="43.58316" lon="1.35089">
        <ele>142.2</ele>
        <time>2024-07-09T14:58:55Z</time>
      </trkpt>
      <trkpt lat="43.58311" lon="1.35086">
        <ele>142.4</ele>
        <time>2024-07-09T14:58:56Z</time>
      </trkpt>
      <trkpt lat="43.58305" lon="1.35084">
        <ele>142.6</ele>
        <time>2024-07-09T14:58:57Z</time>
      </trkpt>
      <trkpt lat="43.58299" lon="1.35083">
        <ele>142.6</ele>
        <time>2024-07-09T14:58:58Z</time>
      </trkpt>
      <trkpt lat="43.58293" lon="1.35083">
        <ele>142.8</ele>
        <time>2024-07-09T14:58:59Z</time>
      </trkpt>
      <trkpt lat="43.58286" lon="1.35084">
        <ele>142.8</ele>
        <time>2024-07-09T14:59:00Z</time>
      </trkpt>
      <trkpt lat="43.58278" lon="1.35085">
        <ele>142.8</ele>
        <time>2024-07-09T14:59:01Z</time>
      </trkpt>
      <trkpt lat="43.58273" lon="1.35086">
        <ele>142.8</ele>
        <time>2024-07-09T14:59:02Z</time>
      </trkpt>
      <trkpt lat="43.58266" lon="1.35087">
        <ele>142.8</ele>
        <time>2024-07-09T14:59:03Z</time>
      </trkpt>
      <trkpt lat="43.5826" lon="1.35088">
        <ele>142.8</ele>
        <time>2024-07-09T14:59:04Z</time>
      </trkpt>
      <trkpt lat="43.58254" lon="1.35088">
        <ele>143</ele>
        <time>2024-07-09T14:59:05Z</time>
      </trkpt>
      <trkpt lat="43.58248" lon="1.3509">
        <ele>143</ele>
        <time>2024-07-09T14:59:06Z</time>
      </trkpt>
      <trkpt lat="43.58242" lon="1.35092">
        <ele>143</ele>
        <time>2024-07-09T14:59:07Z</time>
      </trkpt>
      <trkpt lat="43.58236" lon="1.35093">
        <ele>143</ele>
        <time>2024-07-09T14:59:08Z</time>
      </trkpt>
      <trkpt lat="43.58231" lon="1.35096">
        <ele>143.2</ele>
        <time>2024-07-09T14:59:09Z</time>
      </trkpt>
      <trkpt lat="43.58227" lon="1.35098">
        <ele>143.2</ele>
        <time>2024-07-09T14:59:10Z</time>
      </trkpt>
      <trkpt lat="43.58222" lon="1.35098">
        <ele>143.4</ele>
        <time>2024-07-09T14:59:11Z</time>
      </trkpt>
      <trkpt lat="43.5822" lon="1.35097">
        <ele>143.4</ele>
        <time>2024-07-09T14:59:12Z</time>
      </trkpt>
      <trkpt lat="43.58218" lon="1.35094">
        <ele>143.6</ele>
        <time>2024-07-09T14:59:13Z</time>
      </trkpt>
      <trkpt lat="43.58217" lon="1.3509">
        <ele>143.8</ele>
        <time>2024-07-09T14:59:14Z</time>
      </trkpt>
      <trkpt lat="43.58216" lon="1.35086">
        <ele>143.8</ele>
        <time>2024-07-09T14:59:15Z</time>
      </trkpt>
      <trkpt lat="43.58212" lon="1.3508">
        <ele>143.8</ele>
        <time>2024-07-09T14:59:16Z</time>
      </trkpt>
      <trkpt lat="43.58209" lon="1.35077">
        <ele>143.8</ele>
        <time>2024-07-09T14:59:17Z</time>
      </trkpt>
      <trkpt lat="43.58205" lon="1.35074">
        <ele>143.8</ele>
        <time>2024-07-09T14:59:18Z</time>
      </trkpt>
      <trkpt lat="43.58201" lon="1.35071">
        <ele>143.8</ele>
        <time>2024-07-09T14:59:19Z</time>
      </trkpt>
      <trkpt lat="43.58196" lon="1.35066">
        <ele>143.8</ele>
        <time>2024-07-09T14:59:20Z</time>
      </trkpt>
      <trkpt lat="43.58192" lon="1.35062">
        <ele>143.8</ele>
        <time>2024-07-09T14:59:21Z</time>
      </trkpt>
      <trkpt lat="43.58188" lon="1.35057">
        <ele>143.8</ele>
        <time>2024-07-09T14:59:22Z</time>
      </trkpt>
      <trkpt lat="43.58185" lon="1.35052">
        <ele>143.8</ele>
        <time>2024-07-09T14:59:23Z</time>
      </trkpt>
      <trkpt lat="43.58184" lon="1.35048">
        <ele>143.8</ele>
        <time>2024-07-09T14:59:24Z</time>
      </trkpt>
      <trkpt lat="43.58183" lon="1.35044">
        <ele>143.8</ele>
        <time>2024-07-09T14:59:25Z</time>
      </trkpt>
      <trkpt lat="43.58182" lon="1.35043">
        <ele>143.8</ele>
        <time>2024-07-09T14:59:26Z</time>
      </trkpt>
      <trkpt lat="43.58181" lon="1.35044">
        <ele>143.8</ele>
        <time>2024-07-09T14:59:27Z</time>
      </trkpt>
      <trkpt lat="43.58181" lon="1.35046">
        <ele>143.8</ele>
        <time>2024-07-09T14:59:28Z</time>
      </trkpt>
      <trkpt lat="43.58182" lon="1.35048">
        <ele>143.8</ele>
        <time>2024-07-09T14:59:29Z</time>
      </trkpt>
      <trkpt lat="43.58184" lon="1.3505">
        <ele>143.8</ele>
        <time>2024-07-09T14:59:30Z</time>
      </trkpt>
      <trkpt lat="43.58187" lon="1.35053">
        <ele>143.8</ele>
        <time>2024-07-09T14:59:31Z</time>
      </trkpt>
      <trkpt lat="43.58189" lon="1.35057">
        <ele>143.8</ele>
        <time>2024-07-09T14:59:32Z</time>
      </trkpt>
      <trkpt lat="43.5819" lon="1.35062">
        <ele>143.8</ele>
        <time>2024-07-09T14:59:33Z</time>
      </trkpt>
      <trkpt lat="43.58189" lon="1.35067">
        <ele>143.8</ele>
        <time>2024-07-09T14:59:34Z</time>
      </trkpt>
      <trkpt lat="43.58188" lon="1.35072">
        <ele>143.8</ele>
        <time>2024-07-09T14:59:35Z</time>
      </trkpt>
      <trkpt lat="43.58185" lon="1.35076">
        <ele>143.8</ele>
        <time>2024-07-09T14:59:36Z</time>
      </trkpt>
      <trkpt lat="43.58181" lon="1.35078">
        <ele>143.6</ele>
        <time>2024-07-09T14:59:37Z</time>
      </trkpt>
      <trkpt lat="43.58176" lon="1.35081">
        <ele>143.8</ele>
        <time>2024-07-09T14:59:38Z</time>
      </trkpt>
      <trkpt lat="43.58172" lon="1.35084">
        <ele>143.8</ele>
        <time>2024-07-09T14:59:39Z</time>
      </trkpt>
      <trkpt lat="43.58167" lon="1.35087">
        <ele>143.8</ele>
        <time>2024-07-09T14:59:40Z</time>
      </trkpt>
      <trkpt lat="43.58162" lon="1.3509">
        <ele>143.6</ele>
        <time>2024-07-09T14:59:41Z</time>
      </trkpt>
      <trkpt lat="43.58157" lon="1.35093">
        <ele>143.6</ele>
        <time>2024-07-09T14:59:42Z</time>
      </trkpt>
      <trkpt lat="43.58152" lon="1.35097">
        <ele>143.6</ele>
        <time>2024-07-09T14:59:43Z</time>
      </trkpt>
      <trkpt lat="43.58147" lon="1.35101">
        <ele>143.6</ele>
        <time>2024-07-09T14:59:44Z</time>
      </trkpt>
      <trkpt lat="43.58142" lon="1.35105">
        <ele>143.6</ele>
        <time>2024-07-09T14:59:45Z</time>
      </trkpt>
      <trkpt lat="43.58142" lon="1.35105">
        <ele>143.6</ele>
        <time>2024-07-09T14:59:46Z</time>
      </trkpt>
      <trkpt lat="43.58133" lon="1.35114">
        <ele>143.6</ele>
        <time>2024-07-09T14:59:47Z</time>
      </trkpt>
      <trkpt lat="43.58128" lon="1.35119">
        <ele>143.6</ele>
        <time>2024-07-09T14:59:48Z</time>
      </trkpt>
      <trkpt lat="43.58123" lon="1.35124">
        <ele>143.8</ele>
        <time>2024-07-09T14:59:49Z</time>
      </trkpt>
      <trkpt lat="43.58119" lon="1.35128">
        <ele>143.6</ele>
        <time>2024-07-09T14:59:50Z</time>
      </trkpt>
      <trkpt lat="43.58114" lon="1.35133">
        <ele>143.6</ele>
        <time>2024-07-09T14:59:51Z</time>
      </trkpt>
      <trkpt lat="43.58109" lon="1.35138">
        <ele>143.6</ele>
        <time>2024-07-09T14:59:52Z</time>
      </trkpt>
      <trkpt lat="43.58104" lon="1.35143">
        <ele>143.6</ele>
        <time>2024-07-09T14:59:53Z</time>
      </trkpt>
      <trkpt lat="43.581" lon="1.35148">
        <ele>143.4</ele>
        <time>2024-07-09T14:59:54Z</time>
      </trkpt>
      <trkpt lat="43.58095" lon="1.35153">
        <ele>143.4</ele>
        <time>2024-07-09T14:59:55Z</time>
      </trkpt>
      <trkpt lat="43.5809" lon="1.35158">
        <ele>143.4</ele>
        <time>2024-07-09T14:59:56Z</time>
      </trkpt>
      <trkpt lat="43.58085" lon="1.35163">
        <ele>143.4</ele>
        <time>2024-07-09T14:59:57Z</time>
      </trkpt>
      <trkpt lat="43.5808" lon="1.35168">
        <ele>143.4</ele>
        <time>2024-07-09T14:59:58Z</time>
      </trkpt>
      <trkpt lat="43.58075" lon="1.35173">
        <ele>143.4</ele>
        <time>2024-07-09T14:59:59Z</time>
      </trkpt>
      <trkpt lat="43.5807" lon="1.35177">
        <ele>143.4</ele>
        <time>2024-07-09T15:00:00Z</time>
      </trkpt>
      <trkpt lat="43.58065" lon="1.35181">
        <ele>143.4</ele>
        <time>2024-07-09T15:00:01Z</time>
      </trkpt>
      <trkpt lat="43.58059" lon="1.35185">
        <ele>143.4</ele>
        <time>2024-07-09T15:00:02Z</time>
      </trkpt>
      <trkpt lat="43.58053" lon="1.35188">
        <ele>143.6</ele>
        <time>2024-07-09T15:00:03Z</time>
      </trkpt>
      <trkpt lat="43.58047" lon="1.35191">
        <ele>143.4</ele>
        <time>2024-07-09T15:00:04Z</time>
      </trkpt>
      <trkpt lat="43.58042" lon="1.35193">
        <ele>143.4</ele>
        <time>2024-07-09T15:00:05Z</time>
      </trkpt>
      <trkpt lat="43.58036" lon="1.35197">
        <ele>143.4</ele>
        <time>2024-07-09T15:00:06Z</time>
      </trkpt>
      <trkpt lat="43.5803" lon="1.352">
        <ele>143.2</ele>
        <time>2024-07-09T15:00:07Z</time>
      </trkpt>
      <trkpt lat="43.58025" lon="1.35205">
        <ele>143.2</ele>
        <time>2024-07-09T15:00:08Z</time>
      </trkpt>
      <trkpt lat="43.5802" lon="1.35209">
        <ele>143.2</ele>
        <time>2024-07-09T15:00:09Z</time>
      </trkpt>
      <trkpt lat="43.58014" lon="1.35214">
        <ele>143.2</ele>
        <time>2024-07-09T15:00:10Z</time>
      </trkpt>
      <trkpt lat="43.58008" lon="1.35218">
        <ele>143.2</ele>
        <time>2024-07-09T15:00:11Z</time>
      </trkpt>
      <trkpt lat="43.58002" lon="1.35222">
        <ele>143.2</ele>
        <time>2024-07-09T15:00:12Z</time>
      </trkpt>
      <trkpt lat="43.57997" lon="1.35225">
        <ele>143</ele>
        <time>2024-07-09T15:00:13Z</time>
      </trkpt>
      <trkpt lat="43.57991" lon="1.35228">
        <ele>143</ele>
        <time>2024-07-09T15:00:14Z</time>
      </trkpt>
      <trkpt lat="43.57985" lon="1.3523">
        <ele>143</ele>
        <time>2024-07-09T15:00:15Z</time>
      </trkpt>
      <trkpt lat="43.57979" lon="1.35233">
        <ele>143</ele>
        <time>2024-07-09T15:00:16Z</time>
      </trkpt>
      <trkpt lat="43.57973" lon="1.35235">
        <ele>143</ele>
        <time>2024-07-09T15:00:17Z</time>
      </trkpt>
      <trkpt lat="43.57967" lon="1.35238">
        <ele>143</ele>
        <time>2024-07-09T15:00:18Z</time>
      </trkpt>
      <trkpt lat="43.5796" lon="1.3524">
        <ele>143</ele>
        <time>2024-07-09T15:00:19Z</time>
      </trkpt>
      <trkpt lat="43.57954" lon="1.35241">
        <ele>143</ele>
        <time>2024-07-09T15:00:20Z</time>
      </trkpt>
      <trkpt lat="43.57948" lon="1.35242">
        <ele>143.2</ele>
        <time>2024-07-09T15:00:21Z</time>
      </trkpt>
      <trkpt lat="43.57941" lon="1.35243">
        <ele>143.2</ele>
        <time>2024-07-09T15:00:22Z</time>
      </trkpt>
      <trkpt lat="43.57935" lon="1.35245">
        <ele>143.4</ele>
        <time>2024-07-09T15:00:23Z</time>
      </trkpt>
      <trkpt lat="43.57929" lon="1.35247">
        <ele>143.4</ele>
        <time>2024-07-09T15:00:24Z</time>
      </trkpt>
      <trkpt lat="43.57923" lon="1.35249">
        <ele>143.4</ele>
        <time>2024-07-09T15:00:25Z</time>
      </trkpt>
      <trkpt lat="43.57917" lon="1.35251">
        <ele>143.4</ele>
        <time>2024-07-09T15:00:26Z</time>
      </trkpt>
      <trkpt lat="43.57911" lon="1.35253">
        <ele>143.4</ele>
        <time>2024-07-09T15:00:27Z</time>
      </trkpt>
      <trkpt lat="43.57905" lon="1.35255">
        <ele>143.4</ele>
        <time>2024-07-09T15:00:28Z</time>
      </trkpt>
      <trkpt lat="43.57899" lon="1.35257">
        <ele>143.4</ele>
        <time>2024-07-09T15:00:29Z</time>
      </trkpt>
      <trkpt lat="43.57893" lon="1.35259">
        <ele>143.6</ele>
        <time>2024-07-09T15:00:30Z</time>
      </trkpt>
      <trkpt lat="43.57887" lon="1.35259">
        <ele>143.6</ele>
        <time>2024-07-09T15:00:31Z</time>
      </trkpt>
      <trkpt lat="43.57881" lon="1.35259">
        <ele>143.6</ele>
        <time>2024-07-09T15:00:32Z</time>
      </trkpt>
      <trkpt lat="43.57875" lon="1.35258">
        <ele>143.8</ele>
        <time>2024-07-09T15:00:33Z</time>
      </trkpt>
      <trkpt lat="43.57869" lon="1.35258">
        <ele>143.8</ele>
        <time>2024-07-09T15:00:34Z</time>
      </trkpt>
      <trkpt lat="43.57864" lon="1.35256">
        <ele>144</ele>
        <time>2024-07-09T15:00:35Z</time>
      </trkpt>
      <trkpt lat="43.57859" lon="1.35255">
        <ele>144</ele>
        <time>2024-07-09T15:00:36Z</time>
      </trkpt>
      <trkpt lat="43.57854" lon="1.35253">
        <ele>144.2</ele>
        <time>2024-07-09T15:00:37Z</time>
      </trkpt>
      <trkpt lat="43.5785" lon="1.35252">
        <ele>144.2</ele>
        <time>2024-07-09T15:00:38Z</time>
      </trkpt>
      <trkpt lat="43.57846" lon="1.35251">
        <ele>144.2</ele>
        <time>2024-07-09T15:00:39Z</time>
      </trkpt>
      <trkpt lat="43.57843" lon="1.35251">
        <ele>144.4</ele>
        <time>2024-07-09T15:00:40Z</time>
      </trkpt>
      <trkpt lat="43.57839" lon="1.35252">
        <ele>144.6</ele>
        <time>2024-07-09T15:00:41Z</time>
      </trkpt>
      <trkpt lat="43.57836" lon="1.35252">
        <ele>144.8</ele>
        <time>2024-07-09T15:00:42Z</time>
      </trkpt>
      <trkpt lat="43.57832" lon="1.35252">
        <ele>145</ele>
        <time>2024-07-09T15:00:43Z</time>
      </trkpt>
      <trkpt lat="43.57828" lon="1.35252">
        <ele>145</ele>
        <time>2024-07-09T15:00:44Z</time>
      </trkpt>
      <trkpt lat="43.57825" lon="1.35253">
        <ele>145.2</ele>
        <time>2024-07-09T15:00:45Z</time>
      </trkpt>
      <trkpt lat="43.57822" lon="1.35256">
        <ele>145.2</ele>
        <time>2024-07-09T15:00:46Z</time>
      </trkpt>
      <trkpt lat="43.57821" lon="1.3526">
        <ele>145.4</ele>
        <time>2024-07-09T15:00:47Z</time>
      </trkpt>
      <trkpt lat="43.5782" lon="1.35265">
        <ele>145.4</ele>
        <time>2024-07-09T15:00:48Z</time>
      </trkpt>
      <trkpt lat="43.57819" lon="1.3527">
        <ele>145.6</ele>
        <time>2024-07-09T15:00:49Z</time>
      </trkpt>
      <trkpt lat="43.57819" lon="1.35276">
        <ele>145.8</ele>
        <time>2024-07-09T15:00:50Z</time>
      </trkpt>
      <trkpt lat="43.57819" lon="1.35282">
        <ele>145.8</ele>
        <time>2024-07-09T15:00:51Z</time>
      </trkpt>
      <trkpt lat="43.5782" lon="1.35287">
        <ele>146</ele>
        <time>2024-07-09T15:00:52Z</time>
      </trkpt>
      <trkpt lat="43.57821" lon="1.35292">
        <ele>146</ele>
        <time>2024-07-09T15:00:53Z</time>
      </trkpt>
      <trkpt lat="43.57823" lon="1.35297">
        <ele>146</ele>
        <time>2024-07-09T15:00:54Z</time>
      </trkpt>
      <trkpt lat="43.57825" lon="1.35302">
        <ele>146.2</ele>
        <time>2024-07-09T15:00:55Z</time>
      </trkpt>
      <trkpt lat="43.57827" lon="1.35308">
        <ele>146.2</ele>
        <time>2024-07-09T15:00:56Z</time>
      </trkpt>
      <trkpt lat="43.5783" lon="1.35314">
        <ele>146.4</ele>
        <time>2024-07-09T15:00:57Z</time>
      </trkpt>
      <trkpt lat="43.57832" lon="1.35319">
        <ele>146.4</ele>
        <time>2024-07-09T15:00:58Z</time>
      </trkpt>
      <trkpt lat="43.57834" lon="1.35325">
        <ele>146.4</ele>
        <time>2024-07-09T15:00:59Z</time>
      </trkpt>
      <trkpt lat="43.57837" lon="1.35331">
        <ele>146.6</ele>
        <time>2024-07-09T15:01:00Z</time>
      </trkpt>
      <trkpt lat="43.57839" lon="1.35338">
        <ele>146.6</ele>
        <time>2024-07-09T15:01:01Z</time>
      </trkpt>
      <trkpt lat="43.57842" lon="1.35344">
        <ele>147</ele>
        <time>2024-07-09T15:01:02Z</time>
      </trkpt>
      <trkpt lat="43.57845" lon="1.35351">
        <ele>147</ele>
        <time>2024-07-09T15:01:03Z</time>
      </trkpt>
      <trkpt lat="43.57849" lon="1.35358">
        <ele>147.2</ele>
        <time>2024-07-09T15:01:04Z</time>
      </trkpt>
      <trkpt lat="43.57852" lon="1.35365">
        <ele>147.2</ele>
        <time>2024-07-09T15:01:05Z</time>
      </trkpt>
      <trkpt lat="43.57855" lon="1.35371">
        <ele>147.4</ele>
        <time>2024-07-09T15:01:06Z</time>
      </trkpt>
      <trkpt lat="43.57858" lon="1.35377">
        <ele>147.4</ele>
        <time>2024-07-09T15:01:07Z</time>
      </trkpt>
      <trkpt lat="43.57861" lon="1.35385">
        <ele>147.6</ele>
        <time>2024-07-09T15:01:08Z</time>
      </trkpt>
      <trkpt lat="43.57863" lon="1.35392">
        <ele>147.6</ele>
        <time>2024-07-09T15:01:09Z</time>
      </trkpt>
      <trkpt lat="43.57866" lon="1.35399">
        <ele>147.6</ele>
        <time>2024-07-09T15:01:10Z</time>
      </trkpt>
      <trkpt lat="43.57868" lon="1.35405">
        <ele>147.8</ele>
        <time>2024-07-09T15:01:11Z</time>
      </trkpt>
      <trkpt lat="43.5787" lon="1.35413">
        <ele>147.8</ele>
        <time>2024-07-09T15:01:12Z</time>
      </trkpt>
      <trkpt lat="43.57872" lon="1.3542">
        <ele>147.8</ele>
        <time>2024-07-09T15:01:13Z</time>
      </trkpt>
      <trkpt lat="43.57872" lon="1.35428">
        <ele>147.8</ele>
        <time>2024-07-09T15:01:14Z</time>
      </trkpt>
      <trkpt lat="43.57874" lon="1.35437">
        <ele>148</ele>
        <time>2024-07-09T15:01:15Z</time>
      </trkpt>
      <trkpt lat="43.57875" lon="1.35444">
        <ele>148</ele>
        <time>2024-07-09T15:01:16Z</time>
      </trkpt>
      <trkpt lat="43.57875" lon="1.35452">
        <ele>148</ele>
        <time>2024-07-09T15:01:17Z</time>
      </trkpt>
      <trkpt lat="43.57876" lon="1.35462">
        <ele>148</ele>
        <time>2024-07-09T15:01:18Z</time>
      </trkpt>
      <trkpt lat="43.57876" lon="1.35468">
        <ele>148.2</ele>
        <time>2024-07-09T15:01:19Z</time>
      </trkpt>
      <trkpt lat="43.57876" lon="1.35475">
        <ele>148.2</ele>
        <time>2024-07-09T15:01:20Z</time>
      </trkpt>
      <trkpt lat="43.57876" lon="1.35483">
        <ele>148.2</ele>
        <time>2024-07-09T15:01:21Z</time>
      </trkpt>
      <trkpt lat="43.57875" lon="1.35491">
        <ele>148.4</ele>
        <time>2024-07-09T15:01:22Z</time>
      </trkpt>
      <trkpt lat="43.57875" lon="1.35499">
        <ele>148.4</ele>
        <time>2024-07-09T15:01:23Z</time>
      </trkpt>
      <trkpt lat="43.57874" lon="1.35506">
        <ele>148.4</ele>
        <time>2024-07-09T15:01:24Z</time>
      </trkpt>
      <trkpt lat="43.57874" lon="1.35514">
        <ele>148.4</ele>
        <time>2024-07-09T15:01:25Z</time>
      </trkpt>
      <trkpt lat="43.57874" lon="1.35522">
        <ele>148.4</ele>
        <time>2024-07-09T15:01:26Z</time>
      </trkpt>
      <trkpt lat="43.57873" lon="1.3553">
        <ele>148.4</ele>
        <time>2024-07-09T15:01:27Z</time>
      </trkpt>
      <trkpt lat="43.57873" lon="1.35537">
        <ele>148.4</ele>
        <time>2024-07-09T15:01:28Z</time>
      </trkpt>
      <trkpt lat="43.57872" lon="1.35544">
        <ele>148.4</ele>
        <time>2024-07-09T15:01:29Z</time>
      </trkpt>
      <trkpt lat="43.57871" lon="1.35552">
        <ele>148.4</ele>
        <time>2024-07-09T15:01:30Z</time>
      </trkpt>
      <trkpt lat="43.5787" lon="1.35559">
        <ele>148.4</ele>
        <time>2024-07-09T15:01:31Z</time>
      </trkpt>
      <trkpt lat="43.57869" lon="1.35566">
        <ele>148.4</ele>
        <time>2024-07-09T15:01:32Z</time>
      </trkpt>
      <trkpt lat="43.57867" lon="1.35574">
        <ele>148.6</ele>
        <time>2024-07-09T15:01:33Z</time>
      </trkpt>
      <trkpt lat="43.57866" lon="1.35581">
        <ele>148.6</ele>
        <time>2024-07-09T15:01:34Z</time>
      </trkpt>
      <trkpt lat="43.57866" lon="1.35588">
        <ele>149</ele>
        <time>2024-07-09T15:01:35Z</time>
      </trkpt>
      <trkpt lat="43.57867" lon="1.35595">
        <ele>149.2</ele>
        <time>2024-07-09T15:01:36Z</time>
      </trkpt>
      <trkpt lat="43.57868" lon="1.35603">
        <ele>149.2</ele>
        <time>2024-07-09T15:01:37Z</time>
      </trkpt>
      <trkpt lat="43.57869" lon="1.35611">
        <ele>149.4</ele>
        <time>2024-07-09T15:01:38Z</time>
      </trkpt>
      <trkpt lat="43.5787" lon="1.35619">
        <ele>149.4</ele>
        <time>2024-07-09T15:01:39Z</time>
      </trkpt>
      <trkpt lat="43.5787" lon="1.35628">
        <ele>149.6</ele>
        <time>2024-07-09T15:01:40Z</time>
      </trkpt>
      <trkpt lat="43.57871" lon="1.35636">
        <ele>149.6</ele>
        <time>2024-07-09T15:01:41Z</time>
      </trkpt>
      <trkpt lat="43.57872" lon="1.35645">
        <ele>149.6</ele>
        <time>2024-07-09T15:01:42Z</time>
      </trkpt>
      <trkpt lat="43.57872" lon="1.35654">
        <ele>149.6</ele>
        <time>2024-07-09T15:01:43Z</time>
      </trkpt>
      <trkpt lat="43.57873" lon="1.35662">
        <ele>149.6</ele>
        <time>2024-07-09T15:01:44Z</time>
      </trkpt>
      <trkpt lat="43.57874" lon="1.35671">
        <ele>149.8</ele>
        <time>2024-07-09T15:01:45Z</time>
      </trkpt>
      <trkpt lat="43.57875" lon="1.3568">
        <ele>149.8</ele>
        <time>2024-07-09T15:01:46Z</time>
      </trkpt>
      <trkpt lat="43.57876" lon="1.35688">
        <ele>149.8</ele>
        <time>2024-07-09T15:01:47Z</time>
      </trkpt>
      <trkpt lat="43.57878" lon="1.35697">
        <ele>149.8</ele>
        <time>2024-07-09T15:01:48Z</time>
      </trkpt>
      <trkpt lat="43.57879" lon="1.35706">
        <ele>150</ele>
        <time>2024-07-09T15:01:49Z</time>
      </trkpt>
      <trkpt lat="43.5788" lon="1.35715">
        <ele>150</ele>
        <time>2024-07-09T15:01:50Z</time>
      </trkpt>
      <trkpt lat="43.57882" lon="1.35723">
        <ele>150</ele>
        <time>2024-07-09T15:01:51Z</time>
      </trkpt>
      <trkpt lat="43.57883" lon="1.35732">
        <ele>150</ele>
        <time>2024-07-09T15:01:52Z</time>
      </trkpt>
      <trkpt lat="43.57884" lon="1.3574">
        <ele>150</ele>
        <time>2024-07-09T15:01:53Z</time>
      </trkpt>
      <trkpt lat="43.57885" lon="1.35749">
        <ele>150</ele>
        <time>2024-07-09T15:01:54Z</time>
      </trkpt>
      <trkpt lat="43.57886" lon="1.35757">
        <ele>149.8</ele>
        <time>2024-07-09T15:01:55Z</time>
      </trkpt>
      <trkpt lat="43.57887" lon="1.35765">
        <ele>149.8</ele>
        <time>2024-07-09T15:01:56Z</time>
      </trkpt>
      <trkpt lat="43.57889" lon="1.35774">
        <ele>149.8</ele>
        <time>2024-07-09T15:01:57Z</time>
      </trkpt>
      <trkpt lat="43.5789" lon="1.35783">
        <ele>149.8</ele>
        <time>2024-07-09T15:01:58Z</time>
      </trkpt>
      <trkpt lat="43.57891" lon="1.35791">
        <ele>149.8</ele>
        <time>2024-07-09T15:01:59Z</time>
      </trkpt>
      <trkpt lat="43.57893" lon="1.358">
        <ele>150</ele>
        <time>2024-07-09T15:02:00Z</time>
      </trkpt>
      <trkpt lat="43.57894" lon="1.35808">
        <ele>150</ele>
        <time>2024-07-09T15:02:01Z</time>
      </trkpt>
      <trkpt lat="43.57895" lon="1.35817">
        <ele>150</ele>
        <time>2024-07-09T15:02:02Z</time>
      </trkpt>
      <trkpt lat="43.57897" lon="1.35826">
        <ele>150.2</ele>
        <time>2024-07-09T15:02:03Z</time>
      </trkpt>
      <trkpt lat="43.57898" lon="1.35834">
        <ele>150.2</ele>
        <time>2024-07-09T15:02:04Z</time>
      </trkpt>
      <trkpt lat="43.57899" lon="1.35842">
        <ele>150.2</ele>
        <time>2024-07-09T15:02:05Z</time>
      </trkpt>
      <trkpt lat="43.579" lon="1.35851">
        <ele>150.2</ele>
        <time>2024-07-09T15:02:06Z</time>
      </trkpt>
      <trkpt lat="43.579" lon="1.35859">
        <ele>150.4</ele>
        <time>2024-07-09T15:02:07Z</time>
      </trkpt>
      <trkpt lat="43.57901" lon="1.35867">
        <ele>150.4</ele>
        <time>2024-07-09T15:02:08Z</time>
      </trkpt>
      <trkpt lat="43.57902" lon="1.35875">
        <ele>150.4</ele>
        <time>2024-07-09T15:02:09Z</time>
      </trkpt>
      <trkpt lat="43.57902" lon="1.35883">
        <ele>150.4</ele>
        <time>2024-07-09T15:02:10Z</time>
      </trkpt>
      <trkpt lat="43.57901" lon="1.35891">
        <ele>150.4</ele>
        <time>2024-07-09T15:02:11Z</time>
      </trkpt>
      <trkpt lat="43.57899" lon="1.35896">
        <ele>150.6</ele>
        <time>2024-07-09T15:02:12Z</time>
      </trkpt>
      <trkpt lat="43.57896" lon="1.35899">
        <ele>150.6</ele>
        <time>2024-07-09T15:02:13Z</time>
      </trkpt>
      <trkpt lat="43.57893" lon="1.35903">
        <ele>150.8</ele>
        <time>2024-07-09T15:02:14Z</time>
      </trkpt>
      <trkpt lat="43.5789" lon="1.35906">
        <ele>150.8</ele>
        <time>2024-07-09T15:02:15Z</time>
      </trkpt>
      <trkpt lat="43.57886" lon="1.35908">
        <ele>150.8</ele>
        <time>2024-07-09T15:02:16Z</time>
      </trkpt>
      <trkpt lat="43.57885" lon="1.35911">
        <ele>150.8</ele>
        <time>2024-07-09T15:02:17Z</time>
      </trkpt>
      <trkpt lat="43.57885" lon="1.35915">
        <ele>150.8</ele>
        <time>2024-07-09T15:02:18Z</time>
      </trkpt>
      <trkpt lat="43.57886" lon="1.3592">
        <ele>150.8</ele>
        <time>2024-07-09T15:02:19Z</time>
      </trkpt>
      <trkpt lat="43.57886" lon="1.35924">
        <ele>150.8</ele>
        <time>2024-07-09T15:02:20Z</time>
      </trkpt>
      <trkpt lat="43.57884" lon="1.35928">
        <ele>150.8</ele>
        <time>2024-07-09T15:02:21Z</time>
      </trkpt>
      <trkpt lat="43.57881" lon="1.35932">
        <ele>150.8</ele>
        <time>2024-07-09T15:02:22Z</time>
      </trkpt>
      <trkpt lat="43.57878" lon="1.35936">
        <ele>150.8</ele>
        <time>2024-07-09T15:02:23Z</time>
      </trkpt>
      <trkpt lat="43.57875" lon="1.3594">
        <ele>150.8</ele>
        <time>2024-07-09T15:02:24Z</time>
      </trkpt>
      <trkpt lat="43.57872" lon="1.35945">
        <ele>150.8</ele>
        <time>2024-07-09T15:02:25Z</time>
      </trkpt>
      <trkpt lat="43.57869" lon="1.3595">
        <ele>150.8</ele>
        <time>2024-07-09T15:02:26Z</time>
      </trkpt>
      <trkpt lat="43.57866" lon="1.35956">
        <ele>151</ele>
        <time>2024-07-09T15:02:27Z</time>
      </trkpt>
      <trkpt lat="43.57862" lon="1.35961">
        <ele>151</ele>
        <time>2024-07-09T15:02:28Z</time>
      </trkpt>
      <trkpt lat="43.57859" lon="1.35966">
        <ele>151</ele>
        <time>2024-07-09T15:02:29Z</time>
      </trkpt>
      <trkpt lat="43.57856" lon="1.35971">
        <ele>151</ele>
        <time>2024-07-09T15:02:30Z</time>
      </trkpt>
      <trkpt lat="43.57853" lon="1.35976">
        <ele>151</ele>
        <time>2024-07-09T15:02:31Z</time>
      </trkpt>
      <trkpt lat="43.5785" lon="1.35981">
        <ele>151</ele>
        <time>2024-07-09T15:02:32Z</time>
      </trkpt>
      <trkpt lat="43.57847" lon="1.35985">
        <ele>151</ele>
        <time>2024-07-09T15:02:33Z</time>
      </trkpt>
      <trkpt lat="43.57844" lon="1.35988">
        <ele>151</ele>
        <time>2024-07-09T15:02:34Z</time>
      </trkpt>
      <trkpt lat="43.57842" lon="1.35989">
        <ele>151</ele>
        <time>2024-07-09T15:02:35Z</time>
      </trkpt>
      <trkpt lat="43.57839" lon="1.35988">
        <ele>151</ele>
        <time>2024-07-09T15:02:36Z</time>
      </trkpt>
      <trkpt lat="43.57837" lon="1.35984">
        <ele>151</ele>
        <time>2024-07-09T15:02:37Z</time>
      </trkpt>
      <trkpt lat="43.57836" lon="1.3598">
        <ele>151</ele>
        <time>2024-07-09T15:02:38Z</time>
      </trkpt>
      <trkpt lat="43.57834" lon="1.35975">
        <ele>151</ele>
        <time>2024-07-09T15:02:39Z</time>
      </trkpt>
      <trkpt lat="43.57831" lon="1.35971">
        <ele>151</ele>
        <time>2024-07-09T15:02:40Z</time>
      </trkpt>
      <trkpt lat="43.57827" lon="1.35967">
        <ele>151</ele>
        <time>2024-07-09T15:02:41Z</time>
      </trkpt>
      <trkpt lat="43.57823" lon="1.35962">
        <ele>150.8</ele>
        <time>2024-07-09T15:02:42Z</time>
      </trkpt>
      <trkpt lat="43.57819" lon="1.35958">
        <ele>150.8</ele>
        <time>2024-07-09T15:02:43Z</time>
      </trkpt>
      <trkpt lat="43.57814" lon="1.35955">
        <ele>150.8</ele>
        <time>2024-07-09T15:02:44Z</time>
      </trkpt>
      <trkpt lat="43.57809" lon="1.35951">
        <ele>150.8</ele>
        <time>2024-07-09T15:02:45Z</time>
      </trkpt>
      <trkpt lat="43.57804" lon="1.35947">
        <ele>150.8</ele>
        <time>2024-07-09T15:02:46Z</time>
      </trkpt>
      <trkpt lat="43.57799" lon="1.35943">
        <ele>150.8</ele>
        <time>2024-07-09T15:02:47Z</time>
      </trkpt>
      <trkpt lat="43.57793" lon="1.35939">
        <ele>150.8</ele>
        <time>2024-07-09T15:02:48Z</time>
      </trkpt>
      <trkpt lat="43.57788" lon="1.35935">
        <ele>150.8</ele>
        <time>2024-07-09T15:02:49Z</time>
      </trkpt>
      <trkpt lat="43.57782" lon="1.3593">
        <ele>150.8</ele>
        <time>2024-07-09T15:02:50Z</time>
      </trkpt>
      <trkpt lat="43.57777" lon="1.35926">
        <ele>150.8</ele>
        <time>2024-07-09T15:02:51Z</time>
      </trkpt>
      <trkpt lat="43.57771" lon="1.35922">
        <ele>150.8</ele>
        <time>2024-07-09T15:02:52Z</time>
      </trkpt>
      <trkpt lat="43.57766" lon="1.35917">
        <ele>150.8</ele>
        <time>2024-07-09T15:02:53Z</time>
      </trkpt>
      <trkpt lat="43.5776" lon="1.35913">
        <ele>151</ele>
        <time>2024-07-09T15:02:54Z</time>
      </trkpt>
      <trkpt lat="43.57755" lon="1.35908">
        <ele>151</ele>
        <time>2024-07-09T15:02:55Z</time>
      </trkpt>
      <trkpt lat="43.57749" lon="1.35904">
        <ele>151</ele>
        <time>2024-07-09T15:02:56Z</time>
      </trkpt>
      <trkpt lat="43.57744" lon="1.359">
        <ele>151</ele>
        <time>2024-07-09T15:02:57Z</time>
      </trkpt>
      <trkpt lat="43.57738" lon="1.35895">
        <ele>151</ele>
        <time>2024-07-09T15:02:58Z</time>
      </trkpt>
      <trkpt lat="43.57732" lon="1.35891">
        <ele>151</ele>
        <time>2024-07-09T15:02:59Z</time>
      </trkpt>
      <trkpt lat="43.57726" lon="1.35887">
        <ele>151</ele>
        <time>2024-07-09T15:03:00Z</time>
      </trkpt>
      <trkpt lat="43.5772" lon="1.35883">
        <ele>150.8</ele>
        <time>2024-07-09T15:03:01Z</time>
      </trkpt>
      <trkpt lat="43.57715" lon="1.35879">
        <ele>150.8</ele>
        <time>2024-07-09T15:03:02Z</time>
      </trkpt>
      <trkpt lat="43.57709" lon="1.35875">
        <ele>150.8</ele>
        <time>2024-07-09T15:03:03Z</time>
      </trkpt>
      <trkpt lat="43.57704" lon="1.3587">
        <ele>150.8</ele>
        <time>2024-07-09T15:03:04Z</time>
      </trkpt>
      <trkpt lat="43.57698" lon="1.35866">
        <ele>150.8</ele>
        <time>2024-07-09T15:03:05Z</time>
      </trkpt>
      <trkpt lat="43.57693" lon="1.35861">
        <ele>150.8</ele>
        <time>2024-07-09T15:03:06Z</time>
      </trkpt>
      <trkpt lat="43.57687" lon="1.35856">
        <ele>150.8</ele>
        <time>2024-07-09T15:03:07Z</time>
      </trkpt>
      <trkpt lat="43.57682" lon="1.35852">
        <ele>150.8</ele>
        <time>2024-07-09T15:03:08Z</time>
      </trkpt>
      <trkpt lat="43.57676" lon="1.35848">
        <ele>150.8</ele>
        <time>2024-07-09T15:03:09Z</time>
      </trkpt>
      <trkpt lat="43.57671" lon="1.35843">
        <ele>151</ele>
        <time>2024-07-09T15:03:10Z</time>
      </trkpt>
      <trkpt lat="43.57665" lon="1.35839">
        <ele>151</ele>
        <time>2024-07-09T15:03:11Z</time>
      </trkpt>
      <trkpt lat="43.5766" lon="1.35835">
        <ele>151</ele>
        <time>2024-07-09T15:03:12Z</time>
      </trkpt>
      <trkpt lat="43.57654" lon="1.35831">
        <ele>151</ele>
        <time>2024-07-09T15:03:13Z</time>
      </trkpt>
      <trkpt lat="43.57648" lon="1.35825">
        <ele>151</ele>
        <time>2024-07-09T15:03:14Z</time>
      </trkpt>
      <trkpt lat="43.57644" lon="1.35822">
        <ele>151</ele>
        <time>2024-07-09T15:03:15Z</time>
      </trkpt>
      <trkpt lat="43.57638" lon="1.35818">
        <ele>151</ele>
        <time>2024-07-09T15:03:16Z</time>
      </trkpt>
      <trkpt lat="43.57632" lon="1.35814">
        <ele>151</ele>
        <time>2024-07-09T15:03:17Z</time>
      </trkpt>
      <trkpt lat="43.57626" lon="1.35809">
        <ele>151</ele>
        <time>2024-07-09T15:03:18Z</time>
      </trkpt>
      <trkpt lat="43.57621" lon="1.35805">
        <ele>151</ele>
        <time>2024-07-09T15:03:19Z</time>
      </trkpt>
      <trkpt lat="43.57614" lon="1.358">
        <ele>151</ele>
        <time>2024-07-09T15:03:20Z</time>
      </trkpt>
      <trkpt lat="43.57609" lon="1.35796">
        <ele>151</ele>
        <time>2024-07-09T15:03:21Z</time>
      </trkpt>
      <trkpt lat="43.57604" lon="1.35793">
        <ele>151</ele>
        <time>2024-07-09T15:03:22Z</time>
      </trkpt>
      <trkpt lat="43.57599" lon="1.35789">
        <ele>151</ele>
        <time>2024-07-09T15:03:23Z</time>
      </trkpt>
      <trkpt lat="43.57593" lon="1.35785">
        <ele>151</ele>
        <time>2024-07-09T15:03:24Z</time>
      </trkpt>
      <trkpt lat="43.57588" lon="1.3578">
        <ele>151.2</ele>
        <time>2024-07-09T15:03:25Z</time>
      </trkpt>
      <trkpt lat="43.57583" lon="1.35776">
        <ele>151.2</ele>
        <time>2024-07-09T15:03:26Z</time>
      </trkpt>
      <trkpt lat="43.57577" lon="1.35772">
        <ele>151.2</ele>
        <time>2024-07-09T15:03:27Z</time>
      </trkpt>
      <trkpt lat="43.57573" lon="1.35768">
        <ele>151.2</ele>
        <time>2024-07-09T15:03:28Z</time>
      </trkpt>
      <trkpt lat="43.57568" lon="1.35764">
        <ele>151.2</ele>
        <time>2024-07-09T15:03:29Z</time>
      </trkpt>
      <trkpt lat="43.57561" lon="1.35758">
        <ele>151.4</ele>
        <time>2024-07-09T15:03:30Z</time>
      </trkpt>
      <trkpt lat="43.57558" lon="1.35754">
        <ele>151.4</ele>
        <time>2024-07-09T15:03:31Z</time>
      </trkpt>
      <trkpt lat="43.57554" lon="1.35749">
        <ele>151.4</ele>
        <time>2024-07-09T15:03:32Z</time>
      </trkpt>
      <trkpt lat="43.57552" lon="1.35743">
        <ele>151.4</ele>
        <time>2024-07-09T15:03:33Z</time>
      </trkpt>
      <trkpt lat="43.57552" lon="1.35737">
        <ele>151.4</ele>
        <time>2024-07-09T15:03:34Z</time>
      </trkpt>
      <trkpt lat="43.57552" lon="1.35732">
        <ele>151.6</ele>
        <time>2024-07-09T15:03:35Z</time>
      </trkpt>
      <trkpt lat="43.57553" lon="1.35727">
        <ele>151.6</ele>
        <time>2024-07-09T15:03:36Z</time>
      </trkpt>
      <trkpt lat="43.57553" lon="1.35724">
        <ele>151.8</ele>
        <time>2024-07-09T15:03:37Z</time>
      </trkpt>
      <trkpt lat="43.57551" lon="1.3572">
        <ele>151.8</ele>
        <time>2024-07-09T15:03:38Z</time>
      </trkpt>
      <trkpt lat="43.57549" lon="1.35716">
        <ele>152</ele>
        <time>2024-07-09T15:03:39Z</time>
      </trkpt>
      <trkpt lat="43.57546" lon="1.35712">
        <ele>152</ele>
        <time>2024-07-09T15:03:40Z</time>
      </trkpt>
      <trkpt lat="43.57542" lon="1.35711">
        <ele>152</ele>
        <time>2024-07-09T15:03:41Z</time>
      </trkpt>
      <trkpt lat="43.57538" lon="1.35711">
        <ele>152.2</ele>
        <time>2024-07-09T15:03:42Z</time>
      </trkpt>
      <trkpt lat="43.57533" lon="1.35711">
        <ele>152.2</ele>
        <time>2024-07-09T15:03:43Z</time>
      </trkpt>
      <trkpt lat="43.57528" lon="1.3571">
        <ele>152.2</ele>
        <time>2024-07-09T15:03:44Z</time>
      </trkpt>
      <trkpt lat="43.57523" lon="1.35708">
        <ele>152.2</ele>
        <time>2024-07-09T15:03:45Z</time>
      </trkpt>
      <trkpt lat="43.57518" lon="1.35705">
        <ele>152.4</ele>
        <time>2024-07-09T15:03:46Z</time>
      </trkpt>
      <trkpt lat="43.57513" lon="1.35699">
        <ele>152.4</ele>
        <time>2024-07-09T15:03:47Z</time>
      </trkpt>
      <trkpt lat="43.57511" lon="1.35695">
        <ele>152.4</ele>
        <time>2024-07-09T15:03:48Z</time>
      </trkpt>
      <trkpt lat="43.57507" lon="1.3569">
        <ele>152.4</ele>
        <time>2024-07-09T15:03:49Z</time>
      </trkpt>
      <trkpt lat="43.57503" lon="1.35685">
        <ele>152.4</ele>
        <time>2024-07-09T15:03:50Z</time>
      </trkpt>
      <trkpt lat="43.57498" lon="1.35681">
        <ele>152.4</ele>
        <time>2024-07-09T15:03:51Z</time>
      </trkpt>
      <trkpt lat="43.57494" lon="1.35678">
        <ele>152.2</ele>
        <time>2024-07-09T15:03:52Z</time>
      </trkpt>
      <trkpt lat="43.57489" lon="1.35674">
        <ele>152.2</ele>
        <time>2024-07-09T15:03:53Z</time>
      </trkpt>
      <trkpt lat="43.57484" lon="1.3567">
        <ele>152.4</ele>
        <time>2024-07-09T15:03:54Z</time>
      </trkpt>
      <trkpt lat="43.57479" lon="1.35667">
        <ele>152.4</ele>
        <time>2024-07-09T15:03:55Z</time>
      </trkpt>
      <trkpt lat="43.57473" lon="1.35663">
        <ele>152.2</ele>
        <time>2024-07-09T15:03:56Z</time>
      </trkpt>
      <trkpt lat="43.57468" lon="1.35659">
        <ele>152.2</ele>
        <time>2024-07-09T15:03:57Z</time>
      </trkpt>
      <trkpt lat="43.57463" lon="1.35655">
        <ele>152.2</ele>
        <time>2024-07-09T15:03:58Z</time>
      </trkpt>
      <trkpt lat="43.57458" lon="1.35651">
        <ele>152</ele>
        <time>2024-07-09T15:03:59Z</time>
      </trkpt>
      <trkpt lat="43.57453" lon="1.35648">
        <ele>152.2</ele>
        <time>2024-07-09T15:04:00Z</time>
      </trkpt>
      <trkpt lat="43.57448" lon="1.35645">
        <ele>151.8</ele>
        <time>2024-07-09T15:04:01Z</time>
      </trkpt>
      <trkpt lat="43.57442" lon="1.35642">
        <ele>151.8</ele>
        <time>2024-07-09T15:04:02Z</time>
      </trkpt>
      <trkpt lat="43.57437" lon="1.35639">
        <ele>152</ele>
        <time>2024-07-09T15:04:03Z</time>
      </trkpt>
      <trkpt lat="43.57432" lon="1.35636">
        <ele>152</ele>
        <time>2024-07-09T15:04:04Z</time>
      </trkpt>
      <trkpt lat="43.57427" lon="1.35632">
        <ele>152</ele>
        <time>2024-07-09T15:04:05Z</time>
      </trkpt>
      <trkpt lat="43.57421" lon="1.35629">
        <ele>151.8</ele>
        <time>2024-07-09T15:04:06Z</time>
      </trkpt>
      <trkpt lat="43.57416" lon="1.35624">
        <ele>151.8</ele>
        <time>2024-07-09T15:04:07Z</time>
      </trkpt>
      <trkpt lat="43.57411" lon="1.3562">
        <ele>151.6</ele>
        <time>2024-07-09T15:04:08Z</time>
      </trkpt>
      <trkpt lat="43.57407" lon="1.35615">
        <ele>151.6</ele>
        <time>2024-07-09T15:04:09Z</time>
      </trkpt>
      <trkpt lat="43.57402" lon="1.3561">
        <ele>151.4</ele>
        <time>2024-07-09T15:04:10Z</time>
      </trkpt>
      <trkpt lat="43.57397" lon="1.35606">
        <ele>151.6</ele>
        <time>2024-07-09T15:04:11Z</time>
      </trkpt>
      <trkpt lat="43.57391" lon="1.35602">
        <ele>151.6</ele>
        <time>2024-07-09T15:04:12Z</time>
      </trkpt>
      <trkpt lat="43.57386" lon="1.35599">
        <ele>151.6</ele>
        <time>2024-07-09T15:04:13Z</time>
      </trkpt>
      <trkpt lat="43.57381" lon="1.35595">
        <ele>151.8</ele>
        <time>2024-07-09T15:04:14Z</time>
      </trkpt>
      <trkpt lat="43.57375" lon="1.35591">
        <ele>151.8</ele>
        <time>2024-07-09T15:04:15Z</time>
      </trkpt>
      <trkpt lat="43.5737" lon="1.35587">
        <ele>151.8</ele>
        <time>2024-07-09T15:04:16Z</time>
      </trkpt>
      <trkpt lat="43.57365" lon="1.35583">
        <ele>151.8</ele>
        <time>2024-07-09T15:04:17Z</time>
      </trkpt>
      <trkpt lat="43.57359" lon="1.35579">
        <ele>151.8</ele>
        <time>2024-07-09T15:04:18Z</time>
      </trkpt>
      <trkpt lat="43.57354" lon="1.35575">
        <ele>151.8</ele>
        <time>2024-07-09T15:04:19Z</time>
      </trkpt>
      <trkpt lat="43.57348" lon="1.35571">
        <ele>151.8</ele>
        <time>2024-07-09T15:04:20Z</time>
      </trkpt>
      <trkpt lat="43.57343" lon="1.35567">
        <ele>152</ele>
        <time>2024-07-09T15:04:21Z</time>
      </trkpt>
      <trkpt lat="43.57338" lon="1.35563">
        <ele>152</ele>
        <time>2024-07-09T15:04:22Z</time>
      </trkpt>
      <trkpt lat="43.57333" lon="1.35559">
        <ele>152</ele>
        <time>2024-07-09T15:04:23Z</time>
      </trkpt>
      <trkpt lat="43.57328" lon="1.35555">
        <ele>152</ele>
        <time>2024-07-09T15:04:24Z</time>
      </trkpt>
      <trkpt lat="43.57322" lon="1.35551">
        <ele>152</ele>
        <time>2024-07-09T15:04:25Z</time>
      </trkpt>
      <trkpt lat="43.57317" lon="1.35547">
        <ele>152</ele>
        <time>2024-07-09T15:04:26Z</time>
      </trkpt>
      <trkpt lat="43.57312" lon="1.35543">
        <ele>152</ele>
        <time>2024-07-09T15:04:27Z</time>
      </trkpt>
      <trkpt lat="43.57306" lon="1.3554">
        <ele>152</ele>
        <time>2024-07-09T15:04:28Z</time>
      </trkpt>
      <trkpt lat="43.57301" lon="1.35536">
        <ele>152.2</ele>
        <time>2024-07-09T15:04:29Z</time>
      </trkpt>
      <trkpt lat="43.57296" lon="1.35531">
        <ele>152.4</ele>
        <time>2024-07-09T15:04:30Z</time>
      </trkpt>
      <trkpt lat="43.57292" lon="1.35527">
        <ele>152.4</ele>
        <time>2024-07-09T15:04:31Z</time>
      </trkpt>
      <trkpt lat="43.57287" lon="1.35524">
        <ele>152.2</ele>
        <time>2024-07-09T15:04:32Z</time>
      </trkpt>
      <trkpt lat="43.57282" lon="1.35521">
        <ele>152.4</ele>
        <time>2024-07-09T15:04:33Z</time>
      </trkpt>
      <trkpt lat="43.57276" lon="1.35518">
        <ele>152.4</ele>
        <time>2024-07-09T15:04:34Z</time>
      </trkpt>
      <trkpt lat="43.57271" lon="1.35515">
        <ele>152.6</ele>
        <time>2024-07-09T15:04:35Z</time>
      </trkpt>
      <trkpt lat="43.57267" lon="1.35511">
        <ele>152.6</ele>
        <time>2024-07-09T15:04:36Z</time>
      </trkpt>
      <trkpt lat="43.57262" lon="1.35508">
        <ele>152.6</ele>
        <time>2024-07-09T15:04:37Z</time>
      </trkpt>
      <trkpt lat="43.57257" lon="1.35504">
        <ele>152.6</ele>
        <time>2024-07-09T15:04:38Z</time>
      </trkpt>
      <trkpt lat="43.57253" lon="1.355">
        <ele>152.6</ele>
        <time>2024-07-09T15:04:39Z</time>
      </trkpt>
      <trkpt lat="43.57248" lon="1.35497">
        <ele>152.6</ele>
        <time>2024-07-09T15:04:40Z</time>
      </trkpt>
      <trkpt lat="43.57243" lon="1.35494">
        <ele>152.6</ele>
        <time>2024-07-09T15:04:41Z</time>
      </trkpt>
      <trkpt lat="43.57239" lon="1.3549">
        <ele>152.6</ele>
        <time>2024-07-09T15:04:42Z</time>
      </trkpt>
      <trkpt lat="43.57234" lon="1.35485">
        <ele>152.6</ele>
        <time>2024-07-09T15:04:43Z</time>
      </trkpt>
      <trkpt lat="43.5723" lon="1.35481">
        <ele>152.6</ele>
        <time>2024-07-09T15:04:44Z</time>
      </trkpt>
      <trkpt lat="43.5723" lon="1.35481">
        <ele>152.6</ele>
        <time>2024-07-09T15:04:45Z</time>
      </trkpt>
      <trkpt lat="43.5722" lon="1.35472">
        <ele>152.6</ele>
        <time>2024-07-09T15:04:46Z</time>
      </trkpt>
      <trkpt lat="43.57215" lon="1.35468">
        <ele>152.6</ele>
        <time>2024-07-09T15:04:47Z</time>
      </trkpt>
      <trkpt lat="43.5721" lon="1.35463">
        <ele>152.6</ele>
        <time>2024-07-09T15:04:48Z</time>
      </trkpt>
      <trkpt lat="43.57206" lon="1.35459">
        <ele>152.6</ele>
        <time>2024-07-09T15:04:49Z</time>
      </trkpt>
      <trkpt lat="43.57201" lon="1.35455">
        <ele>152.6</ele>
        <time>2024-07-09T15:04:50Z</time>
      </trkpt>
      <trkpt lat="43.57197" lon="1.3545">
        <ele>152.6</ele>
        <time>2024-07-09T15:04:51Z</time>
      </trkpt>
      <trkpt lat="43.57193" lon="1.35446">
        <ele>152.6</ele>
        <time>2024-07-09T15:04:52Z</time>
      </trkpt>
      <trkpt lat="43.57188" lon="1.35443">
        <ele>152.6</ele>
        <time>2024-07-09T15:04:53Z</time>
      </trkpt>
      <trkpt lat="43.57183" lon="1.35441">
        <ele>152.6</ele>
        <time>2024-07-09T15:04:54Z</time>
      </trkpt>
      <trkpt lat="43.57178" lon="1.35439">
        <ele>152.6</ele>
        <time>2024-07-09T15:04:55Z</time>
      </trkpt>
      <trkpt lat="43.57174" lon="1.35438">
        <ele>152.8</ele>
        <time>2024-07-09T15:04:56Z</time>
      </trkpt>
      <trkpt lat="43.57169" lon="1.35436">
        <ele>152.8</ele>
        <time>2024-07-09T15:04:57Z</time>
      </trkpt>
      <trkpt lat="43.57165" lon="1.35435">
        <ele>152.8</ele>
        <time>2024-07-09T15:04:58Z</time>
      </trkpt>
      <trkpt lat="43.57161" lon="1.35435">
        <ele>152.8</ele>
        <time>2024-07-09T15:04:59Z</time>
      </trkpt>
      <trkpt lat="43.57158" lon="1.35437">
        <ele>152.8</ele>
        <time>2024-07-09T15:05:00Z</time>
      </trkpt>
      <trkpt lat="43.57156" lon="1.35441">
        <ele>152.8</ele>
        <time>2024-07-09T15:05:01Z</time>
      </trkpt>
      <trkpt lat="43.57156" lon="1.35445">
        <ele>152.8</ele>
        <time>2024-07-09T15:05:02Z</time>
      </trkpt>
      <trkpt lat="43.57155" lon="1.35449">
        <ele>152.8</ele>
        <time>2024-07-09T15:05:03Z</time>
      </trkpt>
      <trkpt lat="43.57153" lon="1.35454">
        <ele>152.8</ele>
        <time>2024-07-09T15:05:04Z</time>
      </trkpt>
      <trkpt lat="43.57152" lon="1.35459">
        <ele>152.8</ele>
        <time>2024-07-09T15:05:05Z</time>
      </trkpt>
      <trkpt lat="43.5715" lon="1.35464">
        <ele>152.6</ele>
        <time>2024-07-09T15:05:06Z</time>
      </trkpt>
      <trkpt lat="43.57149" lon="1.35469">
        <ele>152.6</ele>
        <time>2024-07-09T15:05:07Z</time>
      </trkpt>
      <trkpt lat="43.57146" lon="1.35475">
        <ele>152.8</ele>
        <time>2024-07-09T15:05:08Z</time>
      </trkpt>
      <trkpt lat="43.57144" lon="1.35481">
        <ele>152.8</ele>
        <time>2024-07-09T15:05:09Z</time>
      </trkpt>
      <trkpt lat="43.57142" lon="1.35488">
        <ele>152.8</ele>
        <time>2024-07-09T15:05:10Z</time>
      </trkpt>
      <trkpt lat="43.5714" lon="1.35494">
        <ele>152.6</ele>
        <time>2024-07-09T15:05:11Z</time>
      </trkpt>
      <trkpt lat="43.57138" lon="1.35501">
        <ele>152.6</ele>
        <time>2024-07-09T15:05:12Z</time>
      </trkpt>
      <trkpt lat="43.57135" lon="1.35508">
        <ele>152.6</ele>
        <time>2024-07-09T15:05:13Z</time>
      </trkpt>
      <trkpt lat="43.57132" lon="1.35514">
        <ele>152.4</ele>
        <time>2024-07-09T15:05:14Z</time>
      </trkpt>
      <trkpt lat="43.57129" lon="1.35521">
        <ele>152.4</ele>
        <time>2024-07-09T15:05:15Z</time>
      </trkpt>
      <trkpt lat="43.57125" lon="1.35527">
        <ele>152.4</ele>
        <time>2024-07-09T15:05:16Z</time>
      </trkpt>
      <trkpt lat="43.57122" lon="1.35534">
        <ele>152.4</ele>
        <time>2024-07-09T15:05:17Z</time>
      </trkpt>
      <trkpt lat="43.57118" lon="1.3554">
        <ele>152.4</ele>
        <time>2024-07-09T15:05:18Z</time>
      </trkpt>
      <trkpt lat="43.57115" lon="1.35547">
        <ele>152.4</ele>
        <time>2024-07-09T15:05:19Z</time>
      </trkpt>
      <trkpt lat="43.57111" lon="1.35554">
        <ele>152.4</ele>
        <time>2024-07-09T15:05:20Z</time>
      </trkpt>
      <trkpt lat="43.57108" lon="1.35561">
        <ele>152.4</ele>
        <time>2024-07-09T15:05:21Z</time>
      </trkpt>
      <trkpt lat="43.57104" lon="1.35568">
        <ele>152.4</ele>
        <time>2024-07-09T15:05:22Z</time>
      </trkpt>
      <trkpt lat="43.57101" lon="1.35575">
        <ele>152.4</ele>
        <time>2024-07-09T15:05:23Z</time>
      </trkpt>
      <trkpt lat="43.57097" lon="1.35582">
        <ele>152.4</ele>
        <time>2024-07-09T15:05:24Z</time>
      </trkpt>
      <trkpt lat="43.57094" lon="1.35589">
        <ele>152.4</ele>
        <time>2024-07-09T15:05:25Z</time>
      </trkpt>
      <trkpt lat="43.57092" lon="1.35597">
        <ele>152.4</ele>
        <time>2024-07-09T15:05:26Z</time>
      </trkpt>
      <trkpt lat="43.57089" lon="1.35605">
        <ele>152.4</ele>
        <time>2024-07-09T15:05:27Z</time>
      </trkpt>
      <trkpt lat="43.57087" lon="1.35612">
        <ele>152.4</ele>
        <time>2024-07-09T15:05:28Z</time>
      </trkpt>
      <trkpt lat="43.57085" lon="1.3562">
        <ele>152.4</ele>
        <time>2024-07-09T15:05:29Z</time>
      </trkpt>
      <trkpt lat="43.57082" lon="1.35628">
        <ele>152.4</ele>
        <time>2024-07-09T15:05:30Z</time>
      </trkpt>
      <trkpt lat="43.5708" lon="1.35636">
        <ele>152.4</ele>
        <time>2024-07-09T15:05:31Z</time>
      </trkpt>
      <trkpt lat="43.57078" lon="1.35645">
        <ele>152.4</ele>
        <time>2024-07-09T15:05:32Z</time>
      </trkpt>
      <trkpt lat="43.57076" lon="1.35653">
        <ele>152.2</ele>
        <time>2024-07-09T15:05:33Z</time>
      </trkpt>
      <trkpt lat="43.57073" lon="1.35662">
        <ele>152.2</ele>
        <time>2024-07-09T15:05:34Z</time>
      </trkpt>
      <trkpt lat="43.57071" lon="1.3567">
        <ele>152.2</ele>
        <time>2024-07-09T15:05:35Z</time>
      </trkpt>
      <trkpt lat="43.57067" lon="1.35679">
        <ele>152.2</ele>
        <time>2024-07-09T15:05:36Z</time>
      </trkpt>
      <trkpt lat="43.57064" lon="1.35686">
        <ele>152.2</ele>
        <time>2024-07-09T15:05:37Z</time>
      </trkpt>
      <trkpt lat="43.57061" lon="1.35694">
        <ele>152.2</ele>
        <time>2024-07-09T15:05:38Z</time>
      </trkpt>
      <trkpt lat="43.57058" lon="1.35699">
        <ele>152.2</ele>
        <time>2024-07-09T15:05:39Z</time>
      </trkpt>
      <trkpt lat="43.57055" lon="1.35704">
        <ele>152</ele>
        <time>2024-07-09T15:05:40Z</time>
      </trkpt>
      <trkpt lat="43.57052" lon="1.35707">
        <ele>152</ele>
        <time>2024-07-09T15:05:41Z</time>
      </trkpt>
      <trkpt lat="43.57048" lon="1.35709">
        <ele>152</ele>
        <time>2024-07-09T15:05:42Z</time>
      </trkpt>
      <trkpt lat="43.57045" lon="1.35707">
        <ele>152</ele>
        <time>2024-07-09T15:05:43Z</time>
      </trkpt>
      <trkpt lat="43.57042" lon="1.35704">
        <ele>152</ele>
        <time>2024-07-09T15:05:44Z</time>
      </trkpt>
      <trkpt lat="43.5704" lon="1.357">
        <ele>152</ele>
        <time>2024-07-09T15:05:45Z</time>
      </trkpt>
      <trkpt lat="43.57038" lon="1.35696">
        <ele>152</ele>
        <time>2024-07-09T15:05:46Z</time>
      </trkpt>
      <trkpt lat="43.57035" lon="1.35692">
        <ele>152.2</ele>
        <time>2024-07-09T15:05:47Z</time>
      </trkpt>
      <trkpt lat="43.5703" lon="1.35686">
        <ele>152.2</ele>
        <time>2024-07-09T15:05:48Z</time>
      </trkpt>
      <trkpt lat="43.57027" lon="1.35681">
        <ele>152.2</ele>
        <time>2024-07-09T15:05:49Z</time>
      </trkpt>
      <trkpt lat="43.57024" lon="1.35677">
        <ele>152.4</ele>
        <time>2024-07-09T15:05:50Z</time>
      </trkpt>
      <trkpt lat="43.57021" lon="1.35671">
        <ele>152.4</ele>
        <time>2024-07-09T15:05:51Z</time>
      </trkpt>
      <trkpt lat="43.57017" lon="1.35664">
        <ele>152.4</ele>
        <time>2024-07-09T15:05:52Z</time>
      </trkpt>
      <trkpt lat="43.57013" lon="1.35657">
        <ele>152.4</ele>
        <time>2024-07-09T15:05:53Z</time>
      </trkpt>
      <trkpt lat="43.5701" lon="1.35651">
        <ele>152.4</ele>
        <time>2024-07-09T15:05:54Z</time>
      </trkpt>
      <trkpt lat="43.57007" lon="1.35646">
        <ele>152.4</ele>
        <time>2024-07-09T15:05:55Z</time>
      </trkpt>
      <trkpt lat="43.57003" lon="1.35641">
        <ele>152.4</ele>
        <time>2024-07-09T15:05:56Z</time>
      </trkpt>
      <trkpt lat="43.56999" lon="1.35635">
        <ele>152.4</ele>
        <time>2024-07-09T15:05:57Z</time>
      </trkpt>
      <trkpt lat="43.56994" lon="1.35627">
        <ele>152.4</ele>
        <time>2024-07-09T15:05:58Z</time>
      </trkpt>
      <trkpt lat="43.5699" lon="1.35621">
        <ele>152.4</ele>
        <time>2024-07-09T15:05:59Z</time>
      </trkpt>
      <trkpt lat="43.56985" lon="1.35614">
        <ele>152.4</ele>
        <time>2024-07-09T15:06:00Z</time>
      </trkpt>
      <trkpt lat="43.56982" lon="1.3561">
        <ele>152.4</ele>
        <time>2024-07-09T15:06:01Z</time>
      </trkpt>
      <trkpt lat="43.56978" lon="1.35604">
        <ele>152.4</ele>
        <time>2024-07-09T15:06:02Z</time>
      </trkpt>
      <trkpt lat="43.56974" lon="1.35597">
        <ele>152.4</ele>
        <time>2024-07-09T15:06:03Z</time>
      </trkpt>
      <trkpt lat="43.5697" lon="1.3559">
        <ele>152.4</ele>
        <time>2024-07-09T15:06:04Z</time>
      </trkpt>
      <trkpt lat="43.56966" lon="1.35584">
        <ele>152.2</ele>
        <time>2024-07-09T15:06:05Z</time>
      </trkpt>
      <trkpt lat="43.56963" lon="1.35579">
        <ele>152.4</ele>
        <time>2024-07-09T15:06:06Z</time>
      </trkpt>
      <trkpt lat="43.56959" lon="1.35573">
        <ele>152.4</ele>
        <time>2024-07-09T15:06:07Z</time>
      </trkpt>
      <trkpt lat="43.56953" lon="1.35565">
        <ele>152.2</ele>
        <time>2024-07-09T15:06:08Z</time>
      </trkpt>
      <trkpt lat="43.56948" lon="1.35558">
        <ele>152.2</ele>
        <time>2024-07-09T15:06:09Z</time>
      </trkpt>
      <trkpt lat="43.56944" lon="1.35553">
        <ele>152.2</ele>
        <time>2024-07-09T15:06:10Z</time>
      </trkpt>
      <trkpt lat="43.56939" lon="1.35546">
        <ele>152.2</ele>
        <time>2024-07-09T15:06:11Z</time>
      </trkpt>
      <trkpt lat="43.56933" lon="1.35538">
        <ele>152.2</ele>
        <time>2024-07-09T15:06:12Z</time>
      </trkpt>
      <trkpt lat="43.56929" lon="1.35532">
        <ele>152.2</ele>
        <time>2024-07-09T15:06:13Z</time>
      </trkpt>
      <trkpt lat="43.56927" lon="1.35526">
        <ele>152.2</ele>
        <time>2024-07-09T15:06:14Z</time>
      </trkpt>
      <trkpt lat="43.56923" lon="1.35519">
        <ele>152.2</ele>
        <time>2024-07-09T15:06:15Z</time>
      </trkpt>
      <trkpt lat="43.5692" lon="1.35512">
        <ele>152.2</ele>
        <time>2024-07-09T15:06:16Z</time>
      </trkpt>
      <trkpt lat="43.56916" lon="1.35506">
        <ele>152.2</ele>
        <time>2024-07-09T15:06:17Z</time>
      </trkpt>
      <trkpt lat="43.5691" lon="1.35498">
        <ele>152.2</ele>
        <time>2024-07-09T15:06:18Z</time>
      </trkpt>
      <trkpt lat="43.56905" lon="1.35492">
        <ele>152.2</ele>
        <time>2024-07-09T15:06:19Z</time>
      </trkpt>
      <trkpt lat="43.56901" lon="1.35486">
        <ele>152.4</ele>
        <time>2024-07-09T15:06:20Z</time>
      </trkpt>
      <trkpt lat="43.56897" lon="1.35479">
        <ele>152.6</ele>
        <time>2024-07-09T15:06:21Z</time>
      </trkpt>
      <trkpt lat="43.56892" lon="1.35473">
        <ele>152.6</ele>
        <time>2024-07-09T15:06:22Z</time>
      </trkpt>
      <trkpt lat="43.56885" lon="1.35467">
        <ele>152.6</ele>
        <time>2024-07-09T15:06:23Z</time>
      </trkpt>
      <trkpt lat="43.56881" lon="1.35461">
        <ele>152.8</ele>
        <time>2024-07-09T15:06:24Z</time>
      </trkpt>
      <trkpt lat="43.56877" lon="1.35455">
        <ele>152.8</ele>
        <time>2024-07-09T15:06:25Z</time>
      </trkpt>
      <trkpt lat="43.56874" lon="1.35451">
        <ele>152.8</ele>
        <time>2024-07-09T15:06:26Z</time>
      </trkpt>
      <trkpt lat="43.5687" lon="1.35445">
        <ele>152.8</ele>
        <time>2024-07-09T15:06:27Z</time>
      </trkpt>
      <trkpt lat="43.56864" lon="1.35438">
        <ele>152.8</ele>
        <time>2024-07-09T15:06:28Z</time>
      </trkpt>
      <trkpt lat="43.5686" lon="1.35432">
        <ele>152.8</ele>
        <time>2024-07-09T15:06:29Z</time>
      </trkpt>
      <trkpt lat="43.56856" lon="1.35427">
        <ele>152.8</ele>
        <time>2024-07-09T15:06:30Z</time>
      </trkpt>
      <trkpt lat="43.56853" lon="1.35422">
        <ele>152.8</ele>
        <time>2024-07-09T15:06:31Z</time>
      </trkpt>
      <trkpt lat="43.56848" lon="1.35416">
        <ele>153</ele>
        <time>2024-07-09T15:06:32Z</time>
      </trkpt>
      <trkpt lat="43.56844" lon="1.3541">
        <ele>153</ele>
        <time>2024-07-09T15:06:33Z</time>
      </trkpt>
      <trkpt lat="43.56839" lon="1.35402">
        <ele>153</ele>
        <time>2024-07-09T15:06:34Z</time>
      </trkpt>
      <trkpt lat="43.56835" lon="1.35398">
        <ele>153</ele>
        <time>2024-07-09T15:06:35Z</time>
      </trkpt>
      <trkpt lat="43.5683" lon="1.35391">
        <ele>153</ele>
        <time>2024-07-09T15:06:36Z</time>
      </trkpt>
      <trkpt lat="43.56826" lon="1.35387">
        <ele>153</ele>
        <time>2024-07-09T15:06:37Z</time>
      </trkpt>
      <trkpt lat="43.56822" lon="1.35381">
        <ele>153</ele>
        <time>2024-07-09T15:06:38Z</time>
      </trkpt>
      <trkpt lat="43.56817" lon="1.35374">
        <ele>153.2</ele>
        <time>2024-07-09T15:06:39Z</time>
      </trkpt>
      <trkpt lat="43.56814" lon="1.35367">
        <ele>153.2</ele>
        <time>2024-07-09T15:06:40Z</time>
      </trkpt>
      <trkpt lat="43.5681" lon="1.3536">
        <ele>153.2</ele>
        <time>2024-07-09T15:06:41Z</time>
      </trkpt>
      <trkpt lat="43.56807" lon="1.35356">
        <ele>153.2</ele>
        <time>2024-07-09T15:06:42Z</time>
      </trkpt>
      <trkpt lat="43.56803" lon="1.3535">
        <ele>153.2</ele>
        <time>2024-07-09T15:06:43Z</time>
      </trkpt>
      <trkpt lat="43.568" lon="1.35345">
        <ele>153.4</ele>
        <time>2024-07-09T15:06:44Z</time>
      </trkpt>
      <trkpt lat="43.56797" lon="1.35339">
        <ele>153.4</ele>
        <time>2024-07-09T15:06:45Z</time>
      </trkpt>
      <trkpt lat="43.56794" lon="1.35335">
        <ele>153</ele>
        <time>2024-07-09T15:06:46Z</time>
      </trkpt>
      <trkpt lat="43.56791" lon="1.35332">
        <ele>153</ele>
        <time>2024-07-09T15:06:47Z</time>
      </trkpt>
      <trkpt lat="43.56786" lon="1.35328">
        <ele>153</ele>
        <time>2024-07-09T15:06:48Z</time>
      </trkpt>
      <trkpt lat="43.56781" lon="1.35323">
        <ele>153</ele>
        <time>2024-07-09T15:06:49Z</time>
      </trkpt>
      <trkpt lat="43.56777" lon="1.35319">
        <ele>153</ele>
        <time>2024-07-09T15:06:50Z</time>
      </trkpt>
      <trkpt lat="43.56772" lon="1.35315">
        <ele>153</ele>
        <time>2024-07-09T15:06:51Z</time>
      </trkpt>
      <trkpt lat="43.56769" lon="1.35312">
        <ele>153</ele>
        <time>2024-07-09T15:06:52Z</time>
      </trkpt>
      <trkpt lat="43.56765" lon="1.35308">
        <ele>153</ele>
        <time>2024-07-09T15:06:53Z</time>
      </trkpt>
      <trkpt lat="43.56761" lon="1.35302">
        <ele>153.2</ele>
        <time>2024-07-09T15:06:54Z</time>
      </trkpt>
      <trkpt lat="43.56756" lon="1.35296">
        <ele>153.2</ele>
        <time>2024-07-09T15:06:55Z</time>
      </trkpt>
      <trkpt lat="43.56752" lon="1.35291">
        <ele>153.2</ele>
        <time>2024-07-09T15:06:56Z</time>
      </trkpt>
      <trkpt lat="43.56748" lon="1.35286">
        <ele>153.2</ele>
        <time>2024-07-09T15:06:57Z</time>
      </trkpt>
      <trkpt lat="43.56744" lon="1.35282">
        <ele>153.2</ele>
        <time>2024-07-09T15:06:58Z</time>
      </trkpt>
      <trkpt lat="43.56741" lon="1.35276">
        <ele>153.2</ele>
        <time>2024-07-09T15:06:59Z</time>
      </trkpt>
      <trkpt lat="43.56734" lon="1.35268">
        <ele>153.2</ele>
        <time>2024-07-09T15:07:00Z</time>
      </trkpt>
      <trkpt lat="43.5673" lon="1.35262">
        <ele>153.2</ele>
        <time>2024-07-09T15:07:01Z</time>
      </trkpt>
      <trkpt lat="43.56725" lon="1.35255">
        <ele>153.2</ele>
        <time>2024-07-09T15:07:02Z</time>
      </trkpt>
      <trkpt lat="43.56721" lon="1.35249">
        <ele>153.2</ele>
        <time>2024-07-09T15:07:03Z</time>
      </trkpt>
      <trkpt lat="43.56716" lon="1.35244">
        <ele>153.2</ele>
        <time>2024-07-09T15:07:04Z</time>
      </trkpt>
      <trkpt lat="43.56712" lon="1.35237">
        <ele>153.2</ele>
        <time>2024-07-09T15:07:05Z</time>
      </trkpt>
      <trkpt lat="43.56708" lon="1.3523">
        <ele>153.2</ele>
        <time>2024-07-09T15:07:06Z</time>
      </trkpt>
      <trkpt lat="43.56704" lon="1.35226">
        <ele>153.2</ele>
        <time>2024-07-09T15:07:07Z</time>
      </trkpt>
      <trkpt lat="43.56699" lon="1.3522">
        <ele>153.2</ele>
        <time>2024-07-09T15:07:08Z</time>
      </trkpt>
      <trkpt lat="43.56694" lon="1.35213">
        <ele>153.2</ele>
        <time>2024-07-09T15:07:09Z</time>
      </trkpt>
      <trkpt lat="43.56689" lon="1.35208">
        <ele>153.2</ele>
        <time>2024-07-09T15:07:10Z</time>
      </trkpt>
      <trkpt lat="43.56686" lon="1.35202">
        <ele>153.2</ele>
        <time>2024-07-09T15:07:11Z</time>
      </trkpt>
      <trkpt lat="43.56683" lon="1.35196">
        <ele>153.2</ele>
        <time>2024-07-09T15:07:12Z</time>
      </trkpt>
      <trkpt lat="43.56678" lon="1.35191">
        <ele>153.2</ele>
        <time>2024-07-09T15:07:13Z</time>
      </trkpt>
      <trkpt lat="43.56673" lon="1.35183">
        <ele>153.2</ele>
        <time>2024-07-09T15:07:14Z</time>
      </trkpt>
      <trkpt lat="43.56668" lon="1.35175">
        <ele>153.2</ele>
        <time>2024-07-09T15:07:15Z</time>
      </trkpt>
      <trkpt lat="43.56664" lon="1.3517">
        <ele>153.2</ele>
        <time>2024-07-09T15:07:16Z</time>
      </trkpt>
      <trkpt lat="43.56657" lon="1.35165">
        <ele>153.4</ele>
        <time>2024-07-09T15:07:17Z</time>
      </trkpt>
      <trkpt lat="43.56653" lon="1.35161">
        <ele>153.4</ele>
        <time>2024-07-09T15:07:18Z</time>
      </trkpt>
      <trkpt lat="43.56647" lon="1.35159">
        <ele>153.2</ele>
        <time>2024-07-09T15:07:19Z</time>
      </trkpt>
      <trkpt lat="43.56642" lon="1.35156">
        <ele>153.2</ele>
        <time>2024-07-09T15:07:20Z</time>
      </trkpt>
      <trkpt lat="43.56638" lon="1.35154">
        <ele>153.2</ele>
        <time>2024-07-09T15:07:21Z</time>
      </trkpt>
      <trkpt lat="43.56634" lon="1.35153">
        <ele>153.2</ele>
        <time>2024-07-09T15:07:22Z</time>
      </trkpt>
      <trkpt lat="43.56631" lon="1.35153">
        <ele>153.4</ele>
        <time>2024-07-09T15:07:23Z</time>
      </trkpt>
      <trkpt lat="43.56628" lon="1.35153">
        <ele>153.4</ele>
        <time>2024-07-09T15:07:24Z</time>
      </trkpt>
      <trkpt lat="43.56625" lon="1.35153">
        <ele>153.6</ele>
        <time>2024-07-09T15:07:25Z</time>
      </trkpt>
      <trkpt lat="43.56622" lon="1.35153">
        <ele>153.6</ele>
        <time>2024-07-09T15:07:26Z</time>
      </trkpt>
      <trkpt lat="43.56617" lon="1.35155">
        <ele>153.8</ele>
        <time>2024-07-09T15:07:27Z</time>
      </trkpt>
      <trkpt lat="43.5661" lon="1.35157">
        <ele>153.8</ele>
        <time>2024-07-09T15:07:28Z</time>
      </trkpt>
      <trkpt lat="43.56604" lon="1.35158">
        <ele>153.8</ele>
        <time>2024-07-09T15:07:29Z</time>
      </trkpt>
      <trkpt lat="43.56597" lon="1.35158">
        <ele>154</ele>
        <time>2024-07-09T15:07:30Z</time>
      </trkpt>
      <trkpt lat="43.56592" lon="1.35157">
        <ele>154.2</ele>
        <time>2024-07-09T15:07:31Z</time>
      </trkpt>
      <trkpt lat="43.56586" lon="1.35156">
        <ele>154.4</ele>
        <time>2024-07-09T15:07:32Z</time>
      </trkpt>
      <trkpt lat="43.56579" lon="1.35155">
        <ele>154.4</ele>
        <time>2024-07-09T15:07:33Z</time>
      </trkpt>
      <trkpt lat="43.56573" lon="1.35153">
        <ele>154.4</ele>
        <time>2024-07-09T15:07:34Z</time>
      </trkpt>
      <trkpt lat="43.56568" lon="1.35149">
        <ele>154.2</ele>
        <time>2024-07-09T15:07:35Z</time>
      </trkpt>
      <trkpt lat="43.56564" lon="1.35144">
        <ele>154</ele>
        <time>2024-07-09T15:07:36Z</time>
      </trkpt>
      <trkpt lat="43.5656" lon="1.35139">
        <ele>154</ele>
        <time>2024-07-09T15:07:37Z</time>
      </trkpt>
      <trkpt lat="43.56556" lon="1.35133">
        <ele>154</ele>
        <time>2024-07-09T15:07:38Z</time>
      </trkpt>
      <trkpt lat="43.56551" lon="1.35128">
        <ele>154</ele>
        <time>2024-07-09T15:07:39Z</time>
      </trkpt>
      <trkpt lat="43.56546" lon="1.35124">
        <ele>154</ele>
        <time>2024-07-09T15:07:40Z</time>
      </trkpt>
      <trkpt lat="43.56541" lon="1.35119">
        <ele>154</ele>
        <time>2024-07-09T15:07:41Z</time>
      </trkpt>
      <trkpt lat="43.56535" lon="1.35114">
        <ele>154</ele>
        <time>2024-07-09T15:07:42Z</time>
      </trkpt>
      <trkpt lat="43.56531" lon="1.35108">
        <ele>154</ele>
        <time>2024-07-09T15:07:43Z</time>
      </trkpt>
      <trkpt lat="43.56526" lon="1.35103">
        <ele>154</ele>
        <time>2024-07-09T15:07:44Z</time>
      </trkpt>
      <trkpt lat="43.56521" lon="1.35099">
        <ele>154</ele>
        <time>2024-07-09T15:07:45Z</time>
      </trkpt>
      <trkpt lat="43.56516" lon="1.35094">
        <ele>154</ele>
        <time>2024-07-09T15:07:46Z</time>
      </trkpt>
      <trkpt lat="43.56511" lon="1.35089">
        <ele>154</ele>
        <time>2024-07-09T15:07:47Z</time>
      </trkpt>
      <trkpt lat="43.56505" lon="1.35084">
        <ele>154.2</ele>
        <time>2024-07-09T15:07:48Z</time>
      </trkpt>
      <trkpt lat="43.56501" lon="1.35079">
        <ele>154</ele>
        <time>2024-07-09T15:07:49Z</time>
      </trkpt>
      <trkpt lat="43.56495" lon="1.35073">
        <ele>154</ele>
        <time>2024-07-09T15:07:50Z</time>
      </trkpt>
      <trkpt lat="43.5649" lon="1.35068">
        <ele>154</ele>
        <time>2024-07-09T15:07:51Z</time>
      </trkpt>
      <trkpt lat="43.56485" lon="1.35064">
        <ele>154</ele>
        <time>2024-07-09T15:07:52Z</time>
      </trkpt>
      <trkpt lat="43.56482" lon="1.35059">
        <ele>154.2</ele>
        <time>2024-07-09T15:07:53Z</time>
      </trkpt>
      <trkpt lat="43.56477" lon="1.35055">
        <ele>154.2</ele>
        <time>2024-07-09T15:07:54Z</time>
      </trkpt>
      <trkpt lat="43.56472" lon="1.3505">
        <ele>154.4</ele>
        <time>2024-07-09T15:07:55Z</time>
      </trkpt>
      <trkpt lat="43.56467" lon="1.35046">
        <ele>154.4</ele>
        <time>2024-07-09T15:07:56Z</time>
      </trkpt>
      <trkpt lat="43.56462" lon="1.35042">
        <ele>154.4</ele>
        <time>2024-07-09T15:07:57Z</time>
      </trkpt>
      <trkpt lat="43.56458" lon="1.35039">
        <ele>154.4</ele>
        <time>2024-07-09T15:07:58Z</time>
      </trkpt>
      <trkpt lat="43.56452" lon="1.35034">
        <ele>154.4</ele>
        <time>2024-07-09T15:07:59Z</time>
      </trkpt>
      <trkpt lat="43.56447" lon="1.35031">
        <ele>154.2</ele>
        <time>2024-07-09T15:08:00Z</time>
      </trkpt>
      <trkpt lat="43.56441" lon="1.35028">
        <ele>154.2</ele>
        <time>2024-07-09T15:08:01Z</time>
      </trkpt>
      <trkpt lat="43.56437" lon="1.35026">
        <ele>154.2</ele>
        <time>2024-07-09T15:08:02Z</time>
      </trkpt>
      <trkpt lat="43.56431" lon="1.35024">
        <ele>154.2</ele>
        <time>2024-07-09T15:08:03Z</time>
      </trkpt>
      <trkpt lat="43.56425" lon="1.35021">
        <ele>154.2</ele>
        <time>2024-07-09T15:08:04Z</time>
      </trkpt>
      <trkpt lat="43.5642" lon="1.35018">
        <ele>154.2</ele>
        <time>2024-07-09T15:08:05Z</time>
      </trkpt>
      <trkpt lat="43.56415" lon="1.35015">
        <ele>154.2</ele>
        <time>2024-07-09T15:08:06Z</time>
      </trkpt>
      <trkpt lat="43.56411" lon="1.35013">
        <ele>154.2</ele>
        <time>2024-07-09T15:08:07Z</time>
      </trkpt>
      <trkpt lat="43.56405" lon="1.3501">
        <ele>154.2</ele>
        <time>2024-07-09T15:08:08Z</time>
      </trkpt>
      <trkpt lat="43.56399" lon="1.35006">
        <ele>154.2</ele>
        <time>2024-07-09T15:08:09Z</time>
      </trkpt>
      <trkpt lat="43.56393" lon="1.35002">
        <ele>154.2</ele>
        <time>2024-07-09T15:08:10Z</time>
      </trkpt>
      <trkpt lat="43.56388" lon="1.34998">
        <ele>154.2</ele>
        <time>2024-07-09T15:08:11Z</time>
      </trkpt>
      <trkpt lat="43.56383" lon="1.34994">
        <ele>154.2</ele>
        <time>2024-07-09T15:08:12Z</time>
      </trkpt>
      <trkpt lat="43.56378" lon="1.3499">
        <ele>154</ele>
        <time>2024-07-09T15:08:13Z</time>
      </trkpt>
      <trkpt lat="43.56373" lon="1.34985">
        <ele>154</ele>
        <time>2024-07-09T15:08:14Z</time>
      </trkpt>
      <trkpt lat="43.56368" lon="1.3498">
        <ele>154.2</ele>
        <time>2024-07-09T15:08:15Z</time>
      </trkpt>
      <trkpt lat="43.56363" lon="1.34975">
        <ele>154.2</ele>
        <time>2024-07-09T15:08:16Z</time>
      </trkpt>
      <trkpt lat="43.56359" lon="1.34971">
        <ele>154.2</ele>
        <time>2024-07-09T15:08:17Z</time>
      </trkpt>
      <trkpt lat="43.56353" lon="1.34966">
        <ele>154.2</ele>
        <time>2024-07-09T15:08:18Z</time>
      </trkpt>
      <trkpt lat="43.56347" lon="1.34961">
        <ele>154.2</ele>
        <time>2024-07-09T15:08:19Z</time>
      </trkpt>
      <trkpt lat="43.56341" lon="1.34957">
        <ele>154.2</ele>
        <time>2024-07-09T15:08:20Z</time>
      </trkpt>
      <trkpt lat="43.56336" lon="1.34954">
        <ele>154.2</ele>
        <time>2024-07-09T15:08:21Z</time>
      </trkpt>
      <trkpt lat="43.56331" lon="1.3495">
        <ele>154.2</ele>
        <time>2024-07-09T15:08:22Z</time>
      </trkpt>
      <trkpt lat="43.56326" lon="1.34946">
        <ele>154.2</ele>
        <time>2024-07-09T15:08:23Z</time>
      </trkpt>
      <trkpt lat="43.56321" lon="1.34941">
        <ele>154.2</ele>
        <time>2024-07-09T15:08:24Z</time>
      </trkpt>
      <trkpt lat="43.56316" lon="1.34938">
        <ele>154.2</ele>
        <time>2024-07-09T15:08:25Z</time>
      </trkpt>
      <trkpt lat="43.56311" lon="1.34935">
        <ele>154</ele>
        <time>2024-07-09T15:08:26Z</time>
      </trkpt>
      <trkpt lat="43.56307" lon="1.34932">
        <ele>154</ele>
        <time>2024-07-09T15:08:27Z</time>
      </trkpt>
      <trkpt lat="43.56304" lon="1.34929">
        <ele>154</ele>
        <time>2024-07-09T15:08:28Z</time>
      </trkpt>
      <trkpt lat="43.563" lon="1.34926">
        <ele>154</ele>
        <time>2024-07-09T15:08:29Z</time>
      </trkpt>
      <trkpt lat="43.56295" lon="1.34924">
        <ele>154</ele>
        <time>2024-07-09T15:08:30Z</time>
      </trkpt>
      <trkpt lat="43.56291" lon="1.34922">
        <ele>154</ele>
        <time>2024-07-09T15:08:31Z</time>
      </trkpt>
      <trkpt lat="43.56289" lon="1.34919">
        <ele>154.2</ele>
        <time>2024-07-09T15:08:32Z</time>
      </trkpt>
      <trkpt lat="43.56288" lon="1.34917">
        <ele>154.2</ele>
        <time>2024-07-09T15:08:33Z</time>
      </trkpt>
      <trkpt lat="43.56289" lon="1.34914">
        <ele>154.4</ele>
        <time>2024-07-09T15:08:34Z</time>
      </trkpt>
      <trkpt lat="43.56289" lon="1.34912">
        <ele>154.4</ele>
        <time>2024-07-09T15:08:35Z</time>
      </trkpt>
      <trkpt lat="43.5629" lon="1.34908">
        <ele>154.4</ele>
        <time>2024-07-09T15:08:36Z</time>
      </trkpt>
      <trkpt lat="43.56293" lon="1.34903">
        <ele>154.4</ele>
        <time>2024-07-09T15:08:37Z</time>
      </trkpt>
      <trkpt lat="43.56294" lon="1.34897">
        <ele>154.4</ele>
        <time>2024-07-09T15:08:38Z</time>
      </trkpt>
      <trkpt lat="43.56295" lon="1.3489">
        <ele>154.4</ele>
        <time>2024-07-09T15:08:39Z</time>
      </trkpt>
      <trkpt lat="43.56297" lon="1.34885">
        <ele>154.6</ele>
        <time>2024-07-09T15:08:40Z</time>
      </trkpt>
      <trkpt lat="43.56299" lon="1.34879">
        <ele>154.6</ele>
        <time>2024-07-09T15:08:41Z</time>
      </trkpt>
      <trkpt lat="43.563" lon="1.34872">
        <ele>154.6</ele>
        <time>2024-07-09T15:08:42Z</time>
      </trkpt>
      <trkpt lat="43.56301" lon="1.34866">
        <ele>154.6</ele>
        <time>2024-07-09T15:08:43Z</time>
      </trkpt>
      <trkpt lat="43.56303" lon="1.34861">
        <ele>154.6</ele>
        <time>2024-07-09T15:08:44Z</time>
      </trkpt>
      <trkpt lat="43.56305" lon="1.34852">
        <ele>154.4</ele>
        <time>2024-07-09T15:08:45Z</time>
      </trkpt>
      <trkpt lat="43.56307" lon="1.34845">
        <ele>154.4</ele>
        <time>2024-07-09T15:08:46Z</time>
      </trkpt>
      <trkpt lat="43.56308" lon="1.34839">
        <ele>154.4</ele>
        <time>2024-07-09T15:08:47Z</time>
      </trkpt>
      <trkpt lat="43.56307" lon="1.34831">
        <ele>154.6</ele>
        <time>2024-07-09T15:08:48Z</time>
      </trkpt>
      <trkpt lat="43.56309" lon="1.34824">
        <ele>154.6</ele>
        <time>2024-07-09T15:08:49Z</time>
      </trkpt>
      <trkpt lat="43.56311" lon="1.34819">
        <ele>154.6</ele>
        <time>2024-07-09T15:08:50Z</time>
      </trkpt>
      <trkpt lat="43.56312" lon="1.34814">
        <ele>154.6</ele>
        <time>2024-07-09T15:08:51Z</time>
      </trkpt>
      <trkpt lat="43.56312" lon="1.34811">
        <ele>154.6</ele>
        <time>2024-07-09T15:08:52Z</time>
      </trkpt>
      <trkpt lat="43.56312" lon="1.34809">
        <ele>154.6</ele>
        <time>2024-07-09T15:08:53Z</time>
      </trkpt>
      <trkpt lat="43.56312" lon="1.34808">
        <ele>155</ele>
        <time>2024-07-09T15:08:54Z</time>
      </trkpt>
      <trkpt lat="43.56312" lon="1.34808">
        <ele>155.2</ele>
        <time>2024-07-09T15:08:55Z</time>
      </trkpt>
      <trkpt lat="43.56312" lon="1.34808">
        <ele>155.2</ele>
        <time>2024-07-09T15:08:56Z</time>
      </trkpt>
      <trkpt lat="43.56312" lon="1.34808">
        <ele>155.4</ele>
        <time>2024-07-09T15:08:57Z</time>
      </trkpt>
      <trkpt lat="43.5632" lon="1.34802">
        <ele>155.6</ele>
        <time>2024-07-09T15:09:08Z</time>
      </trkpt>
      <trkpt lat="43.56323" lon="1.34804">
        <ele>155.6</ele>
        <time>2024-07-09T15:09:09Z</time>
      </trkpt>
      <trkpt lat="43.56326" lon="1.34806">
        <ele>155.6</ele>
        <time>2024-07-09T15:09:10Z</time>
      </trkpt>
      <trkpt lat="43.56329" lon="1.34807">
        <ele>155.4</ele>
        <time>2024-07-09T15:09:11Z</time>
      </trkpt>
      <trkpt lat="43.56333" lon="1.34807">
        <ele>155.4</ele>
        <time>2024-07-09T15:09:12Z</time>
      </trkpt>
      <trkpt lat="43.56336" lon="1.34807">
        <ele>155.4</ele>
        <time>2024-07-09T15:09:13Z</time>
      </trkpt>
      <trkpt lat="43.5634" lon="1.34806">
        <ele>155.4</ele>
        <time>2024-07-09T15:09:14Z</time>
      </trkpt>
      <trkpt lat="43.56343" lon="1.34806">
        <ele>155.4</ele>
        <time>2024-07-09T15:09:15Z</time>
      </trkpt>
      <trkpt lat="43.56345" lon="1.34805">
        <ele>155.4</ele>
        <time>2024-07-09T15:09:16Z</time>
      </trkpt>
      <trkpt lat="43.56348" lon="1.34804">
        <ele>155.4</ele>
        <time>2024-07-09T15:09:17Z</time>
      </trkpt>
      <trkpt lat="43.56351" lon="1.34803">
        <ele>155.4</ele>
        <time>2024-07-09T15:09:18Z</time>
      </trkpt>
      <trkpt lat="43.56355" lon="1.34801">
        <ele>155.4</ele>
        <time>2024-07-09T15:09:19Z</time>
      </trkpt>
      <trkpt lat="43.56358" lon="1.34799">
        <ele>155.4</ele>
        <time>2024-07-09T15:09:20Z</time>
      </trkpt>
      <trkpt lat="43.56361" lon="1.34796">
        <ele>155.2</ele>
        <time>2024-07-09T15:09:21Z</time>
      </trkpt>
      <trkpt lat="43.56365" lon="1.34793">
        <ele>155.2</ele>
        <time>2024-07-09T15:09:22Z</time>
      </trkpt>
      <trkpt lat="43.56369" lon="1.3479">
        <ele>155</ele>
        <time>2024-07-09T15:09:23Z</time>
      </trkpt>
      <trkpt lat="43.56373" lon="1.34788">
        <ele>154.8</ele>
        <time>2024-07-09T15:09:24Z</time>
      </trkpt>
      <trkpt lat="43.56377" lon="1.34785">
        <ele>154.8</ele>
        <time>2024-07-09T15:09:25Z</time>
      </trkpt>
      <trkpt lat="43.56381" lon="1.34782">
        <ele>154.8</ele>
        <time>2024-07-09T15:09:26Z</time>
      </trkpt>
      <trkpt lat="43.56385" lon="1.34779">
        <ele>154.6</ele>
        <time>2024-07-09T15:09:27Z</time>
      </trkpt>
      <trkpt lat="43.56389" lon="1.34776">
        <ele>154.6</ele>
        <time>2024-07-09T15:09:28Z</time>
      </trkpt>
      <trkpt lat="43.56393" lon="1.34774">
        <ele>154.6</ele>
        <time>2024-07-09T15:09:29Z</time>
      </trkpt>
      <trkpt lat="43.56396" lon="1.34771">
        <ele>154.6</ele>
        <time>2024-07-09T15:09:30Z</time>
      </trkpt>
      <trkpt lat="43.56401" lon="1.34765">
        <ele>154.6</ele>
        <time>2024-07-09T15:09:31Z</time>
      </trkpt>
      <trkpt lat="43.56405" lon="1.34761">
        <ele>154.6</ele>
        <time>2024-07-09T15:09:32Z</time>
      </trkpt>
      <trkpt lat="43.56409" lon="1.34756">
        <ele>154.6</ele>
        <time>2024-07-09T15:09:33Z</time>
      </trkpt>
      <trkpt lat="43.56412" lon="1.34752">
        <ele>154.6</ele>
        <time>2024-07-09T15:09:34Z</time>
      </trkpt>
      <trkpt lat="43.56415" lon="1.34746">
        <ele>154.6</ele>
        <time>2024-07-09T15:09:35Z</time>
      </trkpt>
      <trkpt lat="43.56418" lon="1.34739">
        <ele>154.8</ele>
        <time>2024-07-09T15:09:36Z</time>
      </trkpt>
      <trkpt lat="43.5642" lon="1.34733">
        <ele>154.8</ele>
        <time>2024-07-09T15:09:37Z</time>
      </trkpt>
      <trkpt lat="43.56423" lon="1.34727">
        <ele>154.8</ele>
        <time>2024-07-09T15:09:38Z</time>
      </trkpt>
      <trkpt lat="43.56426" lon="1.34723">
        <ele>154.8</ele>
        <time>2024-07-09T15:09:39Z</time>
      </trkpt>
      <trkpt lat="43.5643" lon="1.34716">
        <ele>154.8</ele>
        <time>2024-07-09T15:09:40Z</time>
      </trkpt>
      <trkpt lat="43.56433" lon="1.3471">
        <ele>154.8</ele>
        <time>2024-07-09T15:09:41Z</time>
      </trkpt>
      <trkpt lat="43.56436" lon="1.34705">
        <ele>154.8</ele>
        <time>2024-07-09T15:09:42Z</time>
      </trkpt>
      <trkpt lat="43.5644" lon="1.34697">
        <ele>154.8</ele>
        <time>2024-07-09T15:09:43Z</time>
      </trkpt>
      <trkpt lat="43.56443" lon="1.34691">
        <ele>154.8</ele>
        <time>2024-07-09T15:09:44Z</time>
      </trkpt>
      <trkpt lat="43.56446" lon="1.34684">
        <ele>154.8</ele>
        <time>2024-07-09T15:09:45Z</time>
      </trkpt>
      <trkpt lat="43.56449" lon="1.34678">
        <ele>154.6</ele>
        <time>2024-07-09T15:09:46Z</time>
      </trkpt>
      <trkpt lat="43.56452" lon="1.34672">
        <ele>154.6</ele>
        <time>2024-07-09T15:09:47Z</time>
      </trkpt>
      <trkpt lat="43.56454" lon="1.34667">
        <ele>154.6</ele>
        <time>2024-07-09T15:09:48Z</time>
      </trkpt>
      <trkpt lat="43.56456" lon="1.3466">
        <ele>154.6</ele>
        <time>2024-07-09T15:09:49Z</time>
      </trkpt>
      <trkpt lat="43.56459" lon="1.34655">
        <ele>154.6</ele>
        <time>2024-07-09T15:09:50Z</time>
      </trkpt>
      <trkpt lat="43.56461" lon="1.3465">
        <ele>154.6</ele>
        <time>2024-07-09T15:09:51Z</time>
      </trkpt>
      <trkpt lat="43.56464" lon="1.34646">
        <ele>154.6</ele>
        <time>2024-07-09T15:09:52Z</time>
      </trkpt>
      <trkpt lat="43.56467" lon="1.3464">
        <ele>154.6</ele>
        <time>2024-07-09T15:09:53Z</time>
      </trkpt>
      <trkpt lat="43.56469" lon="1.34634">
        <ele>154.6</ele>
        <time>2024-07-09T15:09:54Z</time>
      </trkpt>
      <trkpt lat="43.56471" lon="1.34628">
        <ele>154.6</ele>
        <time>2024-07-09T15:09:55Z</time>
      </trkpt>
      <trkpt lat="43.56473" lon="1.34622">
        <ele>154.6</ele>
        <time>2024-07-09T15:09:56Z</time>
      </trkpt>
      <trkpt lat="43.56476" lon="1.34617">
        <ele>154.6</ele>
        <time>2024-07-09T15:09:57Z</time>
      </trkpt>
      <trkpt lat="43.56478" lon="1.34612">
        <ele>154.6</ele>
        <time>2024-07-09T15:09:58Z</time>
      </trkpt>
      <trkpt lat="43.56481" lon="1.34607">
        <ele>154.6</ele>
        <time>2024-07-09T15:09:59Z</time>
      </trkpt>
      <trkpt lat="43.56484" lon="1.34604">
        <ele>154.6</ele>
        <time>2024-07-09T15:10:00Z</time>
      </trkpt>
      <trkpt lat="43.56486" lon="1.34601">
        <ele>154.6</ele>
        <time>2024-07-09T15:10:01Z</time>
      </trkpt>
      <trkpt lat="43.56489" lon="1.34597">
        <ele>154.6</ele>
        <time>2024-07-09T15:10:02Z</time>
      </trkpt>
      <trkpt lat="43.56492" lon="1.34593">
        <ele>154.6</ele>
        <time>2024-07-09T15:10:03Z</time>
      </trkpt>
      <trkpt lat="43.56495" lon="1.34589">
        <ele>154.6</ele>
        <time>2024-07-09T15:10:04Z</time>
      </trkpt>
      <trkpt lat="43.56497" lon="1.34586">
        <ele>154.6</ele>
        <time>2024-07-09T15:10:05Z</time>
      </trkpt>
      <trkpt lat="43.56501" lon="1.34582">
        <ele>154.4</ele>
        <time>2024-07-09T15:10:06Z</time>
      </trkpt>
      <trkpt lat="43.56506" lon="1.34578">
        <ele>154.4</ele>
        <time>2024-07-09T15:10:07Z</time>
      </trkpt>
      <trkpt lat="43.5651" lon="1.34574">
        <ele>154.4</ele>
        <time>2024-07-09T15:10:08Z</time>
      </trkpt>
      <trkpt lat="43.56513" lon="1.34569">
        <ele>154.4</ele>
        <time>2024-07-09T15:10:09Z</time>
      </trkpt>
      <trkpt lat="43.56513" lon="1.34565">
        <ele>154.2</ele>
        <time>2024-07-09T15:10:10Z</time>
      </trkpt>
      <trkpt lat="43.56513" lon="1.34561">
        <ele>154.2</ele>
        <time>2024-07-09T15:10:11Z</time>
      </trkpt>
      <trkpt lat="43.56511" lon="1.34556">
        <ele>154.2</ele>
        <time>2024-07-09T15:10:12Z</time>
      </trkpt>
      <trkpt lat="43.56511" lon="1.34549">
        <ele>154.2</ele>
        <time>2024-07-09T15:10:13Z</time>
      </trkpt>
      <trkpt lat="43.56513" lon="1.34543">
        <ele>154</ele>
        <time>2024-07-09T15:10:14Z</time>
      </trkpt>
      <trkpt lat="43.56515" lon="1.34538">
        <ele>154</ele>
        <time>2024-07-09T15:10:15Z</time>
      </trkpt>
      <trkpt lat="43.56518" lon="1.34532">
        <ele>154</ele>
        <time>2024-07-09T15:10:16Z</time>
      </trkpt>
      <trkpt lat="43.56521" lon="1.34524">
        <ele>153.8</ele>
        <time>2024-07-09T15:10:17Z</time>
      </trkpt>
      <trkpt lat="43.56522" lon="1.34517">
        <ele>153.8</ele>
        <time>2024-07-09T15:10:18Z</time>
      </trkpt>
      <trkpt lat="43.56522" lon="1.34509">
        <ele>153.6</ele>
        <time>2024-07-09T15:10:19Z</time>
      </trkpt>
      <trkpt lat="43.56522" lon="1.34503">
        <ele>153.4</ele>
        <time>2024-07-09T15:10:20Z</time>
      </trkpt>
      <trkpt lat="43.56521" lon="1.34493">
        <ele>153.4</ele>
        <time>2024-07-09T15:10:21Z</time>
      </trkpt>
      <trkpt lat="43.5652" lon="1.34484">
        <ele>153.4</ele>
        <time>2024-07-09T15:10:22Z</time>
      </trkpt>
      <trkpt lat="43.56519" lon="1.34475">
        <ele>153.4</ele>
        <time>2024-07-09T15:10:23Z</time>
      </trkpt>
      <trkpt lat="43.56517" lon="1.34466">
        <ele>153.4</ele>
        <time>2024-07-09T15:10:24Z</time>
      </trkpt>
      <trkpt lat="43.56515" lon="1.34457">
        <ele>153.4</ele>
        <time>2024-07-09T15:10:25Z</time>
      </trkpt>
      <trkpt lat="43.56513" lon="1.34448">
        <ele>153.2</ele>
        <time>2024-07-09T15:10:26Z</time>
      </trkpt>
      <trkpt lat="43.56511" lon="1.34439">
        <ele>153.2</ele>
        <time>2024-07-09T15:10:27Z</time>
      </trkpt>
      <trkpt lat="43.56508" lon="1.34431">
        <ele>153</ele>
        <time>2024-07-09T15:10:28Z</time>
      </trkpt>
      <trkpt lat="43.56506" lon="1.34422">
        <ele>153</ele>
        <time>2024-07-09T15:10:29Z</time>
      </trkpt>
      <trkpt lat="43.56504" lon="1.34416">
        <ele>152.8</ele>
        <time>2024-07-09T15:10:30Z</time>
      </trkpt>
      <trkpt lat="43.56501" lon="1.34405">
        <ele>152.8</ele>
        <time>2024-07-09T15:10:31Z</time>
      </trkpt>
      <trkpt lat="43.56499" lon="1.34397">
        <ele>152.8</ele>
        <time>2024-07-09T15:10:32Z</time>
      </trkpt>
      <trkpt lat="43.56496" lon="1.34389">
        <ele>152.8</ele>
        <time>2024-07-09T15:10:33Z</time>
      </trkpt>
      <trkpt lat="43.56494" lon="1.34381">
        <ele>152.8</ele>
        <time>2024-07-09T15:10:34Z</time>
      </trkpt>
      <trkpt lat="43.56493" lon="1.34374">
        <ele>152.8</ele>
        <time>2024-07-09T15:10:35Z</time>
      </trkpt>
      <trkpt lat="43.56494" lon="1.34366">
        <ele>152.8</ele>
        <time>2024-07-09T15:10:36Z</time>
      </trkpt>
      <trkpt lat="43.56495" lon="1.34359">
        <ele>152.8</ele>
        <time>2024-07-09T15:10:37Z</time>
      </trkpt>
      <trkpt lat="43.56498" lon="1.34353">
        <ele>152.8</ele>
        <time>2024-07-09T15:10:38Z</time>
      </trkpt>
      <trkpt lat="43.565" lon="1.34347">
        <ele>152.8</ele>
        <time>2024-07-09T15:10:39Z</time>
      </trkpt>
      <trkpt lat="43.56503" lon="1.3434">
        <ele>152.8</ele>
        <time>2024-07-09T15:10:40Z</time>
      </trkpt>
      <trkpt lat="43.56504" lon="1.34334">
        <ele>152.8</ele>
        <time>2024-07-09T15:10:41Z</time>
      </trkpt>
      <trkpt lat="43.56503" lon="1.3433">
        <ele>153</ele>
        <time>2024-07-09T15:10:42Z</time>
      </trkpt>
      <trkpt lat="43.56501" lon="1.34327">
        <ele>153</ele>
        <time>2024-07-09T15:10:43Z</time>
      </trkpt>
      <trkpt lat="43.56498" lon="1.34324">
        <ele>153</ele>
        <time>2024-07-09T15:10:44Z</time>
      </trkpt>
      <trkpt lat="43.56495" lon="1.3432">
        <ele>153</ele>
        <time>2024-07-09T15:10:45Z</time>
      </trkpt>
      <trkpt lat="43.56493" lon="1.34314">
        <ele>153</ele>
        <time>2024-07-09T15:10:46Z</time>
      </trkpt>
      <trkpt lat="43.56492" lon="1.34308">
        <ele>153</ele>
        <time>2024-07-09T15:10:47Z</time>
      </trkpt>
      <trkpt lat="43.5649" lon="1.34301">
        <ele>153</ele>
        <time>2024-07-09T15:10:48Z</time>
      </trkpt>
      <trkpt lat="43.56489" lon="1.34295">
        <ele>152.8</ele>
        <time>2024-07-09T15:10:49Z</time>
      </trkpt>
      <trkpt lat="43.56489" lon="1.34287">
        <ele>152.8</ele>
        <time>2024-07-09T15:10:50Z</time>
      </trkpt>
      <trkpt lat="43.56489" lon="1.34281">
        <ele>152.8</ele>
        <time>2024-07-09T15:10:51Z</time>
      </trkpt>
      <trkpt lat="43.56489" lon="1.34272">
        <ele>152.8</ele>
        <time>2024-07-09T15:10:52Z</time>
      </trkpt>
      <trkpt lat="43.5649" lon="1.34262">
        <ele>152.8</ele>
        <time>2024-07-09T15:10:53Z</time>
      </trkpt>
      <trkpt lat="43.56489" lon="1.34254">
        <ele>152.8</ele>
        <time>2024-07-09T15:10:54Z</time>
      </trkpt>
      <trkpt lat="43.56488" lon="1.34246">
        <ele>152.8</ele>
        <time>2024-07-09T15:10:55Z</time>
      </trkpt>
      <trkpt lat="43.56487" lon="1.3424">
        <ele>152.6</ele>
        <time>2024-07-09T15:10:56Z</time>
      </trkpt>
      <trkpt lat="43.56484" lon="1.34231">
        <ele>152.6</ele>
        <time>2024-07-09T15:10:57Z</time>
      </trkpt>
      <trkpt lat="43.56481" lon="1.34223">
        <ele>152.6</ele>
        <time>2024-07-09T15:10:58Z</time>
      </trkpt>
      <trkpt lat="43.56478" lon="1.34216">
        <ele>152.6</ele>
        <time>2024-07-09T15:10:59Z</time>
      </trkpt>
      <trkpt lat="43.56476" lon="1.34208">
        <ele>152.6</ele>
        <time>2024-07-09T15:11:00Z</time>
      </trkpt>
      <trkpt lat="43.56474" lon="1.342">
        <ele>152.6</ele>
        <time>2024-07-09T15:11:01Z</time>
      </trkpt>
      <trkpt lat="43.56472" lon="1.34192">
        <ele>152.6</ele>
        <time>2024-07-09T15:11:02Z</time>
      </trkpt>
      <trkpt lat="43.5647" lon="1.34181">
        <ele>152.6</ele>
        <time>2024-07-09T15:11:03Z</time>
      </trkpt>
      <trkpt lat="43.56469" lon="1.34173">
        <ele>152.6</ele>
        <time>2024-07-09T15:11:04Z</time>
      </trkpt>
      <trkpt lat="43.56468" lon="1.34164">
        <ele>152.6</ele>
        <time>2024-07-09T15:11:05Z</time>
      </trkpt>
      <trkpt lat="43.56466" lon="1.34156">
        <ele>152.6</ele>
        <time>2024-07-09T15:11:06Z</time>
      </trkpt>
      <trkpt lat="43.56464" lon="1.34149">
        <ele>152.6</ele>
        <time>2024-07-09T15:11:07Z</time>
      </trkpt>
      <trkpt lat="43.56463" lon="1.34141">
        <ele>152.4</ele>
        <time>2024-07-09T15:11:08Z</time>
      </trkpt>
      <trkpt lat="43.56461" lon="1.34133">
        <ele>152.4</ele>
        <time>2024-07-09T15:11:09Z</time>
      </trkpt>
      <trkpt lat="43.56459" lon="1.34124">
        <ele>152.4</ele>
        <time>2024-07-09T15:11:10Z</time>
      </trkpt>
      <trkpt lat="43.56458" lon="1.34115">
        <ele>152.4</ele>
        <time>2024-07-09T15:11:11Z</time>
      </trkpt>
      <trkpt lat="43.56457" lon="1.34107">
        <ele>152.4</ele>
        <time>2024-07-09T15:11:12Z</time>
      </trkpt>
      <trkpt lat="43.56456" lon="1.34098">
        <ele>152.4</ele>
        <time>2024-07-09T15:11:13Z</time>
      </trkpt>
      <trkpt lat="43.56455" lon="1.34089">
        <ele>152.6</ele>
        <time>2024-07-09T15:11:14Z</time>
      </trkpt>
      <trkpt lat="43.56455" lon="1.34083">
        <ele>152.6</ele>
        <time>2024-07-09T15:11:15Z</time>
      </trkpt>
      <trkpt lat="43.56453" lon="1.34072">
        <ele>152.6</ele>
        <time>2024-07-09T15:11:16Z</time>
      </trkpt>
      <trkpt lat="43.5645" lon="1.34064">
        <ele>152.6</ele>
        <time>2024-07-09T15:11:17Z</time>
      </trkpt>
      <trkpt lat="43.5645" lon="1.34057">
        <ele>152.8</ele>
        <time>2024-07-09T15:11:18Z</time>
      </trkpt>
      <trkpt lat="43.56449" lon="1.3405">
        <ele>153</ele>
        <time>2024-07-09T15:11:19Z</time>
      </trkpt>
      <trkpt lat="43.56448" lon="1.34043">
        <ele>153</ele>
        <time>2024-07-09T15:11:20Z</time>
      </trkpt>
      <trkpt lat="43.56446" lon="1.34036">
        <ele>153</ele>
        <time>2024-07-09T15:11:21Z</time>
      </trkpt>
      <trkpt lat="43.56444" lon="1.34031">
        <ele>153</ele>
        <time>2024-07-09T15:11:22Z</time>
      </trkpt>
      <trkpt lat="43.56439" lon="1.34028">
        <ele>153</ele>
        <time>2024-07-09T15:11:23Z</time>
      </trkpt>
      <trkpt lat="43.56436" lon="1.34026">
        <ele>153</ele>
        <time>2024-07-09T15:11:24Z</time>
      </trkpt>
      <trkpt lat="43.56429" lon="1.34023">
        <ele>153</ele>
        <time>2024-07-09T15:11:25Z</time>
      </trkpt>
      <trkpt lat="43.56424" lon="1.3402">
        <ele>153</ele>
        <time>2024-07-09T15:11:26Z</time>
      </trkpt>
      <trkpt lat="43.56419" lon="1.34018">
        <ele>153</ele>
        <time>2024-07-09T15:11:27Z</time>
      </trkpt>
      <trkpt lat="43.56413" lon="1.34016">
        <ele>153</ele>
        <time>2024-07-09T15:11:28Z</time>
      </trkpt>
      <trkpt lat="43.56408" lon="1.34013">
        <ele>153</ele>
        <time>2024-07-09T15:11:29Z</time>
      </trkpt>
      <trkpt lat="43.56403" lon="1.3401">
        <ele>153</ele>
        <time>2024-07-09T15:11:30Z</time>
      </trkpt>
      <trkpt lat="43.56397" lon="1.34007">
        <ele>153</ele>
        <time>2024-07-09T15:11:31Z</time>
      </trkpt>
      <trkpt lat="43.56392" lon="1.34004">
        <ele>153</ele>
        <time>2024-07-09T15:11:32Z</time>
      </trkpt>
      <trkpt lat="43.56386" lon="1.34001">
        <ele>153</ele>
        <time>2024-07-09T15:11:33Z</time>
      </trkpt>
      <trkpt lat="43.5638" lon="1.33999">
        <ele>153</ele>
        <time>2024-07-09T15:11:34Z</time>
      </trkpt>
      <trkpt lat="43.56375" lon="1.33996">
        <ele>153</ele>
        <time>2024-07-09T15:11:35Z</time>
      </trkpt>
      <trkpt lat="43.56369" lon="1.33992">
        <ele>153</ele>
        <time>2024-07-09T15:11:36Z</time>
      </trkpt>
      <trkpt lat="43.56365" lon="1.3399">
        <ele>153</ele>
        <time>2024-07-09T15:11:37Z</time>
      </trkpt>
      <trkpt lat="43.5636" lon="1.33987">
        <ele>153</ele>
        <time>2024-07-09T15:11:38Z</time>
      </trkpt>
      <trkpt lat="43.56354" lon="1.33983">
        <ele>153</ele>
        <time>2024-07-09T15:11:39Z</time>
      </trkpt>
      <trkpt lat="43.5635" lon="1.3398">
        <ele>153</ele>
        <time>2024-07-09T15:11:40Z</time>
      </trkpt>
      <trkpt lat="43.56346" lon="1.33977">
        <ele>153.2</ele>
        <time>2024-07-09T15:11:41Z</time>
      </trkpt>
      <trkpt lat="43.56343" lon="1.33972">
        <ele>153.2</ele>
        <time>2024-07-09T15:11:42Z</time>
      </trkpt>
      <trkpt lat="43.56342" lon="1.33965">
        <ele>153.2</ele>
        <time>2024-07-09T15:11:43Z</time>
      </trkpt>
      <trkpt lat="43.56341" lon="1.33958">
        <ele>153.4</ele>
        <time>2024-07-09T15:11:44Z</time>
      </trkpt>
      <trkpt lat="43.5634" lon="1.3395">
        <ele>153.4</ele>
        <time>2024-07-09T15:11:45Z</time>
      </trkpt>
      <trkpt lat="43.5634" lon="1.33942">
        <ele>153.4</ele>
        <time>2024-07-09T15:11:46Z</time>
      </trkpt>
      <trkpt lat="43.56341" lon="1.33936">
        <ele>153.4</ele>
        <time>2024-07-09T15:11:47Z</time>
      </trkpt>
      <trkpt lat="43.56344" lon="1.33927">
        <ele>153.4</ele>
        <time>2024-07-09T15:11:48Z</time>
      </trkpt>
      <trkpt lat="43.56348" lon="1.3392">
        <ele>153.4</ele>
        <time>2024-07-09T15:11:49Z</time>
      </trkpt>
      <trkpt lat="43.56353" lon="1.33913">
        <ele>153.4</ele>
        <time>2024-07-09T15:11:50Z</time>
      </trkpt>
      <trkpt lat="43.56359" lon="1.33908">
        <ele>153.2</ele>
        <time>2024-07-09T15:11:51Z</time>
      </trkpt>
      <trkpt lat="43.56364" lon="1.33902">
        <ele>153.2</ele>
        <time>2024-07-09T15:11:52Z</time>
      </trkpt>
      <trkpt lat="43.56369" lon="1.33897">
        <ele>153.2</ele>
        <time>2024-07-09T15:11:53Z</time>
      </trkpt>
      <trkpt lat="43.56375" lon="1.33892">
        <ele>153.2</ele>
        <time>2024-07-09T15:11:54Z</time>
      </trkpt>
      <trkpt lat="43.5638" lon="1.33886">
        <ele>153</ele>
        <time>2024-07-09T15:11:55Z</time>
      </trkpt>
      <trkpt lat="43.56385" lon="1.33881">
        <ele>152.8</ele>
        <time>2024-07-09T15:11:56Z</time>
      </trkpt>
      <trkpt lat="43.5639" lon="1.33876">
        <ele>152.8</ele>
        <time>2024-07-09T15:11:57Z</time>
      </trkpt>
      <trkpt lat="43.56397" lon="1.33869">
        <ele>152.8</ele>
        <time>2024-07-09T15:11:58Z</time>
      </trkpt>
      <trkpt lat="43.56402" lon="1.33864">
        <ele>152.6</ele>
        <time>2024-07-09T15:11:59Z</time>
      </trkpt>
      <trkpt lat="43.56408" lon="1.33858">
        <ele>152.6</ele>
        <time>2024-07-09T15:12:00Z</time>
      </trkpt>
      <trkpt lat="43.56413" lon="1.33854">
        <ele>152.8</ele>
        <time>2024-07-09T15:12:01Z</time>
      </trkpt>
      <trkpt lat="43.5642" lon="1.33848">
        <ele>152.8</ele>
        <time>2024-07-09T15:12:02Z</time>
      </trkpt>
      <trkpt lat="43.56425" lon="1.33842">
        <ele>152.8</ele>
        <time>2024-07-09T15:12:03Z</time>
      </trkpt>
      <trkpt lat="43.56431" lon="1.33837">
        <ele>152.8</ele>
        <time>2024-07-09T15:12:04Z</time>
      </trkpt>
      <trkpt lat="43.56436" lon="1.33832">
        <ele>152.8</ele>
        <time>2024-07-09T15:12:05Z</time>
      </trkpt>
      <trkpt lat="43.56441" lon="1.33827">
        <ele>152.8</ele>
        <time>2024-07-09T15:12:06Z</time>
      </trkpt>
      <trkpt lat="43.56448" lon="1.3382">
        <ele>152.8</ele>
        <time>2024-07-09T15:12:07Z</time>
      </trkpt>
      <trkpt lat="43.56453" lon="1.33814">
        <ele>152.8</ele>
        <time>2024-07-09T15:12:08Z</time>
      </trkpt>
      <trkpt lat="43.56458" lon="1.33809">
        <ele>152.8</ele>
        <time>2024-07-09T15:12:09Z</time>
      </trkpt>
      <trkpt lat="43.56464" lon="1.33803">
        <ele>152.8</ele>
        <time>2024-07-09T15:12:10Z</time>
      </trkpt>
      <trkpt lat="43.56469" lon="1.33798">
        <ele>153</ele>
        <time>2024-07-09T15:12:11Z</time>
      </trkpt>
      <trkpt lat="43.56474" lon="1.33793">
        <ele>153</ele>
        <time>2024-07-09T15:12:12Z</time>
      </trkpt>
      <trkpt lat="43.5648" lon="1.33787">
        <ele>153</ele>
        <time>2024-07-09T15:12:13Z</time>
      </trkpt>
      <trkpt lat="43.56485" lon="1.33782">
        <ele>153</ele>
        <time>2024-07-09T15:12:14Z</time>
      </trkpt>
      <trkpt lat="43.56491" lon="1.33777">
        <ele>153</ele>
        <time>2024-07-09T15:12:15Z</time>
      </trkpt>
      <trkpt lat="43.56497" lon="1.33772">
        <ele>153.2</ele>
        <time>2024-07-09T15:12:16Z</time>
      </trkpt>
      <trkpt lat="43.56503" lon="1.33767">
        <ele>153.2</ele>
        <time>2024-07-09T15:12:17Z</time>
      </trkpt>
      <trkpt lat="43.56509" lon="1.33761">
        <ele>153.2</ele>
        <time>2024-07-09T15:12:18Z</time>
      </trkpt>
      <trkpt lat="43.56514" lon="1.33757">
        <ele>153.2</ele>
        <time>2024-07-09T15:12:19Z</time>
      </trkpt>
      <trkpt lat="43.56521" lon="1.3375">
        <ele>153.2</ele>
        <time>2024-07-09T15:12:20Z</time>
      </trkpt>
      <trkpt lat="43.56527" lon="1.33745">
        <ele>153.4</ele>
        <time>2024-07-09T15:12:21Z</time>
      </trkpt>
      <trkpt lat="43.56533" lon="1.33739">
        <ele>153.4</ele>
        <time>2024-07-09T15:12:22Z</time>
      </trkpt>
      <trkpt lat="43.56538" lon="1.33734">
        <ele>153.4</ele>
        <time>2024-07-09T15:12:23Z</time>
      </trkpt>
      <trkpt lat="43.56544" lon="1.33729">
        <ele>153.4</ele>
        <time>2024-07-09T15:12:24Z</time>
      </trkpt>
      <trkpt lat="43.5655" lon="1.33724">
        <ele>153.4</ele>
        <time>2024-07-09T15:12:25Z</time>
      </trkpt>
      <trkpt lat="43.56555" lon="1.33718">
        <ele>153.4</ele>
        <time>2024-07-09T15:12:26Z</time>
      </trkpt>
      <trkpt lat="43.56561" lon="1.33713">
        <ele>153.4</ele>
        <time>2024-07-09T15:12:27Z</time>
      </trkpt>
      <trkpt lat="43.56566" lon="1.33708">
        <ele>153.4</ele>
        <time>2024-07-09T15:12:28Z</time>
      </trkpt>
      <trkpt lat="43.56572" lon="1.33703">
        <ele>153.4</ele>
        <time>2024-07-09T15:12:29Z</time>
      </trkpt>
      <trkpt lat="43.56578" lon="1.33697">
        <ele>153.4</ele>
        <time>2024-07-09T15:12:30Z</time>
      </trkpt>
      <trkpt lat="43.56584" lon="1.33692">
        <ele>153.6</ele>
        <time>2024-07-09T15:12:31Z</time>
      </trkpt>
      <trkpt lat="43.5659" lon="1.33686">
        <ele>153.6</ele>
        <time>2024-07-09T15:12:32Z</time>
      </trkpt>
      <trkpt lat="43.56595" lon="1.33682">
        <ele>153.6</ele>
        <time>2024-07-09T15:12:33Z</time>
      </trkpt>
      <trkpt lat="43.56602" lon="1.33676">
        <ele>153.6</ele>
        <time>2024-07-09T15:12:34Z</time>
      </trkpt>
      <trkpt lat="43.56608" lon="1.33671">
        <ele>153.8</ele>
        <time>2024-07-09T15:12:35Z</time>
      </trkpt>
      <trkpt lat="43.56614" lon="1.33667">
        <ele>153.8</ele>
        <time>2024-07-09T15:12:36Z</time>
      </trkpt>
      <trkpt lat="43.5662" lon="1.33662">
        <ele>153.8</ele>
        <time>2024-07-09T15:12:37Z</time>
      </trkpt>
      <trkpt lat="43.56625" lon="1.33658">
        <ele>153.8</ele>
        <time>2024-07-09T15:12:38Z</time>
      </trkpt>
      <trkpt lat="43.56633" lon="1.33653">
        <ele>153.8</ele>
        <time>2024-07-09T15:12:39Z</time>
      </trkpt>
      <trkpt lat="43.56639" lon="1.33648">
        <ele>153.8</ele>
        <time>2024-07-09T15:12:40Z</time>
      </trkpt>
      <trkpt lat="43.56645" lon="1.33643">
        <ele>153.8</ele>
        <time>2024-07-09T15:12:41Z</time>
      </trkpt>
      <trkpt lat="43.5665" lon="1.33639">
        <ele>153.8</ele>
        <time>2024-07-09T15:12:42Z</time>
      </trkpt>
      <trkpt lat="43.56657" lon="1.33634">
        <ele>153.8</ele>
        <time>2024-07-09T15:12:43Z</time>
      </trkpt>
      <trkpt lat="43.56663" lon="1.33629">
        <ele>153.6</ele>
        <time>2024-07-09T15:12:44Z</time>
      </trkpt>
      <trkpt lat="43.56667" lon="1.33626">
        <ele>153.6</ele>
        <time>2024-07-09T15:12:45Z</time>
      </trkpt>
      <trkpt lat="43.56673" lon="1.33621">
        <ele>153.6</ele>
        <time>2024-07-09T15:12:46Z</time>
      </trkpt>
      <trkpt lat="43.56679" lon="1.33617">
        <ele>153.8</ele>
        <time>2024-07-09T15:12:47Z</time>
      </trkpt>
      <trkpt lat="43.56685" lon="1.33612">
        <ele>153.6</ele>
        <time>2024-07-09T15:12:48Z</time>
      </trkpt>
      <trkpt lat="43.5669" lon="1.33608">
        <ele>153.6</ele>
        <time>2024-07-09T15:12:49Z</time>
      </trkpt>
      <trkpt lat="43.56695" lon="1.33604">
        <ele>153.6</ele>
        <time>2024-07-09T15:12:50Z</time>
      </trkpt>
      <trkpt lat="43.56701" lon="1.336">
        <ele>153.8</ele>
        <time>2024-07-09T15:12:51Z</time>
      </trkpt>
      <trkpt lat="43.56706" lon="1.33597">
        <ele>153.8</ele>
        <time>2024-07-09T15:12:52Z</time>
      </trkpt>
      <trkpt lat="43.56711" lon="1.33598">
        <ele>153.8</ele>
        <time>2024-07-09T15:12:53Z</time>
      </trkpt>
      <trkpt lat="43.56715" lon="1.33601">
        <ele>153.8</ele>
        <time>2024-07-09T15:12:54Z</time>
      </trkpt>
      <trkpt lat="43.56719" lon="1.33604">
        <ele>153.8</ele>
        <time>2024-07-09T15:12:55Z</time>
      </trkpt>
      <trkpt lat="43.56722" lon="1.33606">
        <ele>153.8</ele>
        <time>2024-07-09T15:12:56Z</time>
      </trkpt>
      <trkpt lat="43.56725" lon="1.33604">
        <ele>153.8</ele>
        <time>2024-07-09T15:12:57Z</time>
      </trkpt>
      <trkpt lat="43.56726" lon="1.33602">
        <ele>153.8</ele>
        <time>2024-07-09T15:12:58Z</time>
      </trkpt>
      <trkpt lat="43.56729" lon="1.33601">
        <ele>153.8</ele>
        <time>2024-07-09T15:12:59Z</time>
      </trkpt>
      <trkpt lat="43.56732" lon="1.33599">
        <ele>153.8</ele>
        <time>2024-07-09T15:13:00Z</time>
      </trkpt>
      <trkpt lat="43.56734" lon="1.33596">
        <ele>153.8</ele>
        <time>2024-07-09T15:13:01Z</time>
      </trkpt>
      <trkpt lat="43.56736" lon="1.33592">
        <ele>153.8</ele>
        <time>2024-07-09T15:13:02Z</time>
      </trkpt>
      <trkpt lat="43.56735" lon="1.33587">
        <ele>153.8</ele>
        <time>2024-07-09T15:13:03Z</time>
      </trkpt>
      <trkpt lat="43.56735" lon="1.33582">
        <ele>153.8</ele>
        <time>2024-07-09T15:13:04Z</time>
      </trkpt>
      <trkpt lat="43.56737" lon="1.33576">
        <ele>153.8</ele>
        <time>2024-07-09T15:13:05Z</time>
      </trkpt>
      <trkpt lat="43.5674" lon="1.33571">
        <ele>153.8</ele>
        <time>2024-07-09T15:13:06Z</time>
      </trkpt>
      <trkpt lat="43.56745" lon="1.33568">
        <ele>153.8</ele>
        <time>2024-07-09T15:13:07Z</time>
      </trkpt>
      <trkpt lat="43.56749" lon="1.33565">
        <ele>153.8</ele>
        <time>2024-07-09T15:13:08Z</time>
      </trkpt>
      <trkpt lat="43.56753" lon="1.33562">
        <ele>153.8</ele>
        <time>2024-07-09T15:13:09Z</time>
      </trkpt>
      <trkpt lat="43.56758" lon="1.33558">
        <ele>153.8</ele>
        <time>2024-07-09T15:13:10Z</time>
      </trkpt>
      <trkpt lat="43.56763" lon="1.33554">
        <ele>153.8</ele>
        <time>2024-07-09T15:13:11Z</time>
      </trkpt>
      <trkpt lat="43.56768" lon="1.33551">
        <ele>153.8</ele>
        <time>2024-07-09T15:13:12Z</time>
      </trkpt>
      <trkpt lat="43.56773" lon="1.33547">
        <ele>153.8</ele>
        <time>2024-07-09T15:13:13Z</time>
      </trkpt>
      <trkpt lat="43.56778" lon="1.33543">
        <ele>153.8</ele>
        <time>2024-07-09T15:13:14Z</time>
      </trkpt>
      <trkpt lat="43.56784" lon="1.33538">
        <ele>153.8</ele>
        <time>2024-07-09T15:13:15Z</time>
      </trkpt>
      <trkpt lat="43.5679" lon="1.33534">
        <ele>153.8</ele>
        <time>2024-07-09T15:13:16Z</time>
      </trkpt>
      <trkpt lat="43.56795" lon="1.3353">
        <ele>153.8</ele>
        <time>2024-07-09T15:13:17Z</time>
      </trkpt>
      <trkpt lat="43.56801" lon="1.33526">
        <ele>153.8</ele>
        <time>2024-07-09T15:13:18Z</time>
      </trkpt>
      <trkpt lat="43.56807" lon="1.33521">
        <ele>153.8</ele>
        <time>2024-07-09T15:13:19Z</time>
      </trkpt>
      <trkpt lat="43.56812" lon="1.33517">
        <ele>153.8</ele>
        <time>2024-07-09T15:13:20Z</time>
      </trkpt>
      <trkpt lat="43.56818" lon="1.33512">
        <ele>153.8</ele>
        <time>2024-07-09T15:13:21Z</time>
      </trkpt>
      <trkpt lat="43.56824" lon="1.33508">
        <ele>153.6</ele>
        <time>2024-07-09T15:13:22Z</time>
      </trkpt>
      <trkpt lat="43.5683" lon="1.33503">
        <ele>153.6</ele>
        <time>2024-07-09T15:13:23Z</time>
      </trkpt>
      <trkpt lat="43.56836" lon="1.33499">
        <ele>153.6</ele>
        <time>2024-07-09T15:13:24Z</time>
      </trkpt>
      <trkpt lat="43.56842" lon="1.33494">
        <ele>153.6</ele>
        <time>2024-07-09T15:13:25Z</time>
      </trkpt>
      <trkpt lat="43.56848" lon="1.3349">
        <ele>153.6</ele>
        <time>2024-07-09T15:13:26Z</time>
      </trkpt>
      <trkpt lat="43.56854" lon="1.33485">
        <ele>153.6</ele>
        <time>2024-07-09T15:13:27Z</time>
      </trkpt>
      <trkpt lat="43.5686" lon="1.33481">
        <ele>153.4</ele>
        <time>2024-07-09T15:13:28Z</time>
      </trkpt>
      <trkpt lat="43.56866" lon="1.33476">
        <ele>153.4</ele>
        <time>2024-07-09T15:13:29Z</time>
      </trkpt>
      <trkpt lat="43.56872" lon="1.33472">
        <ele>153.4</ele>
        <time>2024-07-09T15:13:30Z</time>
      </trkpt>
      <trkpt lat="43.56879" lon="1.33467">
        <ele>153.4</ele>
        <time>2024-07-09T15:13:31Z</time>
      </trkpt>
      <trkpt lat="43.56884" lon="1.33462">
        <ele>153.4</ele>
        <time>2024-07-09T15:13:32Z</time>
      </trkpt>
      <trkpt lat="43.5689" lon="1.33458">
        <ele>153.2</ele>
        <time>2024-07-09T15:13:33Z</time>
      </trkpt>
      <trkpt lat="43.56895" lon="1.33453">
        <ele>153.2</ele>
        <time>2024-07-09T15:13:34Z</time>
      </trkpt>
      <trkpt lat="43.56901" lon="1.33449">
        <ele>153.2</ele>
        <time>2024-07-09T15:13:35Z</time>
      </trkpt>
      <trkpt lat="43.56907" lon="1.33445">
        <ele>153.2</ele>
        <time>2024-07-09T15:13:36Z</time>
      </trkpt>
      <trkpt lat="43.56912" lon="1.33441">
        <ele>153.2</ele>
        <time>2024-07-09T15:13:37Z</time>
      </trkpt>
      <trkpt lat="43.56917" lon="1.33437">
        <ele>153.2</ele>
        <time>2024-07-09T15:13:38Z</time>
      </trkpt>
      <trkpt lat="43.56923" lon="1.33433">
        <ele>153.2</ele>
        <time>2024-07-09T15:13:39Z</time>
      </trkpt>
      <trkpt lat="43.56928" lon="1.3343">
        <ele>153.2</ele>
        <time>2024-07-09T15:13:40Z</time>
      </trkpt>
      <trkpt lat="43.56934" lon="1.33426">
        <ele>153</ele>
        <time>2024-07-09T15:13:41Z</time>
      </trkpt>
      <trkpt lat="43.56939" lon="1.33423">
        <ele>153</ele>
        <time>2024-07-09T15:13:42Z</time>
      </trkpt>
      <trkpt lat="43.56945" lon="1.33421">
        <ele>153</ele>
        <time>2024-07-09T15:13:43Z</time>
      </trkpt>
      <trkpt lat="43.56951" lon="1.33419">
        <ele>153</ele>
        <time>2024-07-09T15:13:44Z</time>
      </trkpt>
      <trkpt lat="43.56956" lon="1.33421">
        <ele>153</ele>
        <time>2024-07-09T15:13:45Z</time>
      </trkpt>
      <trkpt lat="43.5696" lon="1.33424">
        <ele>153</ele>
        <time>2024-07-09T15:13:46Z</time>
      </trkpt>
      <trkpt lat="43.56963" lon="1.3343">
        <ele>153</ele>
        <time>2024-07-09T15:13:47Z</time>
      </trkpt>
      <trkpt lat="43.56966" lon="1.33436">
        <ele>153</ele>
        <time>2024-07-09T15:13:48Z</time>
      </trkpt>
      <trkpt lat="43.56969" lon="1.33442">
        <ele>153</ele>
        <time>2024-07-09T15:13:49Z</time>
      </trkpt>
      <trkpt lat="43.56972" lon="1.33446">
        <ele>153</ele>
        <time>2024-07-09T15:13:50Z</time>
      </trkpt>
      <trkpt lat="43.56974" lon="1.33448">
        <ele>153</ele>
        <time>2024-07-09T15:13:51Z</time>
      </trkpt>
      <trkpt lat="43.56975" lon="1.33449">
        <ele>153</ele>
        <time>2024-07-09T15:13:52Z</time>
      </trkpt>
      <trkpt lat="43.56976" lon="1.33448">
        <ele>153</ele>
        <time>2024-07-09T15:13:53Z</time>
      </trkpt>
      <trkpt lat="43.56977" lon="1.33447">
        <ele>153</ele>
        <time>2024-07-09T15:13:54Z</time>
      </trkpt>
      <trkpt lat="43.56978" lon="1.33446">
        <ele>153</ele>
        <time>2024-07-09T15:13:55Z</time>
      </trkpt>
      <trkpt lat="43.5698" lon="1.33444">
        <ele>153</ele>
        <time>2024-07-09T15:13:56Z</time>
      </trkpt>
      <trkpt lat="43.56983" lon="1.33442">
        <ele>153</ele>
        <time>2024-07-09T15:13:57Z</time>
      </trkpt>
      <trkpt lat="43.56985" lon="1.3344">
        <ele>153</ele>
        <time>2024-07-09T15:13:58Z</time>
      </trkpt>
      <trkpt lat="43.56986" lon="1.33437">
        <ele>153</ele>
        <time>2024-07-09T15:13:59Z</time>
      </trkpt>
      <trkpt lat="43.56986" lon="1.33435">
        <ele>153</ele>
        <time>2024-07-09T15:14:00Z</time>
      </trkpt>
      <trkpt lat="43.56985" lon="1.33434">
        <ele>153</ele>
        <time>2024-07-09T15:14:01Z</time>
      </trkpt>
      <trkpt lat="43.56984" lon="1.33432">
        <ele>153</ele>
        <time>2024-07-09T15:14:02Z</time>
      </trkpt>
      <trkpt lat="43.56984" lon="1.33431">
        <ele>153</ele>
        <time>2024-07-09T15:14:03Z</time>
      </trkpt>
      <trkpt lat="43.56984" lon="1.33428">
        <ele>153</ele>
        <time>2024-07-09T15:14:04Z</time>
      </trkpt>
      <trkpt lat="43.56984" lon="1.33424">
        <ele>153</ele>
        <time>2024-07-09T15:14:05Z</time>
      </trkpt>
      <trkpt lat="43.56985" lon="1.33421">
        <ele>153</ele>
        <time>2024-07-09T15:14:06Z</time>
      </trkpt>
      <trkpt lat="43.56987" lon="1.33418">
        <ele>153</ele>
        <time>2024-07-09T15:14:07Z</time>
      </trkpt>
      <trkpt lat="43.56989" lon="1.33415">
        <ele>153</ele>
        <time>2024-07-09T15:14:08Z</time>
      </trkpt>
      <trkpt lat="43.56991" lon="1.33413">
        <ele>153</ele>
        <time>2024-07-09T15:14:09Z</time>
      </trkpt>
      <trkpt lat="43.56993" lon="1.3341">
        <ele>153</ele>
        <time>2024-07-09T15:14:10Z</time>
      </trkpt>
      <trkpt lat="43.56996" lon="1.33406">
        <ele>153</ele>
        <time>2024-07-09T15:14:11Z</time>
      </trkpt>
      <trkpt lat="43.56998" lon="1.33401">
        <ele>153</ele>
        <time>2024-07-09T15:14:12Z</time>
      </trkpt>
      <trkpt lat="43.57001" lon="1.33397">
        <ele>153</ele>
        <time>2024-07-09T15:14:13Z</time>
      </trkpt>
      <trkpt lat="43.57004" lon="1.33392">
        <ele>152.8</ele>
        <time>2024-07-09T15:14:14Z</time>
      </trkpt>
      <trkpt lat="43.57007" lon="1.33389">
        <ele>152.8</ele>
        <time>2024-07-09T15:14:15Z</time>
      </trkpt>
      <trkpt lat="43.57012" lon="1.33385">
        <ele>152.8</ele>
        <time>2024-07-09T15:14:16Z</time>
      </trkpt>
      <trkpt lat="43.57017" lon="1.33381">
        <ele>152.6</ele>
        <time>2024-07-09T15:14:17Z</time>
      </trkpt>
      <trkpt lat="43.57022" lon="1.33379">
        <ele>152.6</ele>
        <time>2024-07-09T15:14:18Z</time>
      </trkpt>
      <trkpt lat="43.57028" lon="1.33374">
        <ele>152.6</ele>
        <time>2024-07-09T15:14:19Z</time>
      </trkpt>
      <trkpt lat="43.57033" lon="1.33371">
        <ele>152.6</ele>
        <time>2024-07-09T15:14:20Z</time>
      </trkpt>
      <trkpt lat="43.57039" lon="1.33367">
        <ele>152.4</ele>
        <time>2024-07-09T15:14:21Z</time>
      </trkpt>
      <trkpt lat="43.57045" lon="1.33362">
        <ele>152.4</ele>
        <time>2024-07-09T15:14:22Z</time>
      </trkpt>
      <trkpt lat="43.5705" lon="1.33358">
        <ele>152.2</ele>
        <time>2024-07-09T15:14:23Z</time>
      </trkpt>
      <trkpt lat="43.57056" lon="1.33354">
        <ele>152.2</ele>
        <time>2024-07-09T15:14:24Z</time>
      </trkpt>
      <trkpt lat="43.57062" lon="1.3335">
        <ele>152</ele>
        <time>2024-07-09T15:14:25Z</time>
      </trkpt>
      <trkpt lat="43.57068" lon="1.33345">
        <ele>152</ele>
        <time>2024-07-09T15:14:26Z</time>
      </trkpt>
      <trkpt lat="43.57074" lon="1.33341">
        <ele>152</ele>
        <time>2024-07-09T15:14:27Z</time>
      </trkpt>
      <trkpt lat="43.5708" lon="1.33337">
        <ele>152</ele>
        <time>2024-07-09T15:14:28Z</time>
      </trkpt>
      <trkpt lat="43.57086" lon="1.33332">
        <ele>152</ele>
        <time>2024-07-09T15:14:29Z</time>
      </trkpt>
      <trkpt lat="43.57092" lon="1.33327">
        <ele>152</ele>
        <time>2024-07-09T15:14:30Z</time>
      </trkpt>
      <trkpt lat="43.57098" lon="1.33322">
        <ele>152</ele>
        <time>2024-07-09T15:14:31Z</time>
      </trkpt>
      <trkpt lat="43.57104" lon="1.33317">
        <ele>151.8</ele>
        <time>2024-07-09T15:14:32Z</time>
      </trkpt>
      <trkpt lat="43.5711" lon="1.33312">
        <ele>151.8</ele>
        <time>2024-07-09T15:14:33Z</time>
      </trkpt>
      <trkpt lat="43.57116" lon="1.33308">
        <ele>151.6</ele>
        <time>2024-07-09T15:14:34Z</time>
      </trkpt>
      <trkpt lat="43.57122" lon="1.33303">
        <ele>151.6</ele>
        <time>2024-07-09T15:14:35Z</time>
      </trkpt>
      <trkpt lat="43.57127" lon="1.33298">
        <ele>151.4</ele>
        <time>2024-07-09T15:14:36Z</time>
      </trkpt>
      <trkpt lat="43.57134" lon="1.33293">
        <ele>151.2</ele>
        <time>2024-07-09T15:14:37Z</time>
      </trkpt>
      <trkpt lat="43.5714" lon="1.33289">
        <ele>151.2</ele>
        <time>2024-07-09T15:14:38Z</time>
      </trkpt>
      <trkpt lat="43.57146" lon="1.33286">
        <ele>151</ele>
        <time>2024-07-09T15:14:39Z</time>
      </trkpt>
      <trkpt lat="43.57153" lon="1.33284">
        <ele>150.8</ele>
        <time>2024-07-09T15:14:40Z</time>
      </trkpt>
      <trkpt lat="43.5716" lon="1.33283">
        <ele>150.6</ele>
        <time>2024-07-09T15:14:41Z</time>
      </trkpt>
      <trkpt lat="43.57166" lon="1.3328">
        <ele>150.4</ele>
        <time>2024-07-09T15:14:42Z</time>
      </trkpt>
      <trkpt lat="43.57172" lon="1.33277">
        <ele>150.4</ele>
        <time>2024-07-09T15:14:43Z</time>
      </trkpt>
      <trkpt lat="43.57178" lon="1.33272">
        <ele>150.4</ele>
        <time>2024-07-09T15:14:44Z</time>
      </trkpt>
      <trkpt lat="43.57183" lon="1.33267">
        <ele>150.4</ele>
        <time>2024-07-09T15:14:45Z</time>
      </trkpt>
      <trkpt lat="43.57188" lon="1.33261">
        <ele>150.2</ele>
        <time>2024-07-09T15:14:46Z</time>
      </trkpt>
      <trkpt lat="43.57192" lon="1.33253">
        <ele>150</ele>
        <time>2024-07-09T15:14:47Z</time>
      </trkpt>
      <trkpt lat="43.57196" lon="1.33246">
        <ele>150</ele>
        <time>2024-07-09T15:14:48Z</time>
      </trkpt>
      <trkpt lat="43.572" lon="1.3324">
        <ele>150</ele>
        <time>2024-07-09T15:14:49Z</time>
      </trkpt>
      <trkpt lat="43.57205" lon="1.33236">
        <ele>150</ele>
        <time>2024-07-09T15:14:50Z</time>
      </trkpt>
      <trkpt lat="43.57211" lon="1.33234">
        <ele>150</ele>
        <time>2024-07-09T15:14:51Z</time>
      </trkpt>
      <trkpt lat="43.57217" lon="1.33234">
        <ele>150</ele>
        <time>2024-07-09T15:14:52Z</time>
      </trkpt>
      <trkpt lat="43.57223" lon="1.33232">
        <ele>150</ele>
        <time>2024-07-09T15:14:53Z</time>
      </trkpt>
      <trkpt lat="43.57227" lon="1.33227">
        <ele>149.8</ele>
        <time>2024-07-09T15:14:54Z</time>
      </trkpt>
      <trkpt lat="43.5723" lon="1.3322">
        <ele>149.8</ele>
        <time>2024-07-09T15:14:55Z</time>
      </trkpt>
      <trkpt lat="43.57233" lon="1.33213">
        <ele>149.8</ele>
        <time>2024-07-09T15:14:56Z</time>
      </trkpt>
      <trkpt lat="43.57236" lon="1.33206">
        <ele>150</ele>
        <time>2024-07-09T15:14:57Z</time>
      </trkpt>
      <trkpt lat="43.5724" lon="1.332">
        <ele>150</ele>
        <time>2024-07-09T15:14:58Z</time>
      </trkpt>
      <trkpt lat="43.57245" lon="1.33195">
        <ele>150</ele>
        <time>2024-07-09T15:14:59Z</time>
      </trkpt>
      <trkpt lat="43.5725" lon="1.33189">
        <ele>150</ele>
        <time>2024-07-09T15:15:00Z</time>
      </trkpt>
      <trkpt lat="43.57255" lon="1.33184">
        <ele>150</ele>
        <time>2024-07-09T15:15:01Z</time>
      </trkpt>
      <trkpt lat="43.5726" lon="1.33178">
        <ele>150</ele>
        <time>2024-07-09T15:15:02Z</time>
      </trkpt>
      <trkpt lat="43.57265" lon="1.33173">
        <ele>150</ele>
        <time>2024-07-09T15:15:03Z</time>
      </trkpt>
      <trkpt lat="43.5727" lon="1.33167">
        <ele>150</ele>
        <time>2024-07-09T15:15:04Z</time>
      </trkpt>
      <trkpt lat="43.57276" lon="1.33161">
        <ele>150</ele>
        <time>2024-07-09T15:15:05Z</time>
      </trkpt>
      <trkpt lat="43.57281" lon="1.33156">
        <ele>150</ele>
        <time>2024-07-09T15:15:06Z</time>
      </trkpt>
      <trkpt lat="43.57286" lon="1.3315">
        <ele>150</ele>
        <time>2024-07-09T15:15:07Z</time>
      </trkpt>
      <trkpt lat="43.57291" lon="1.33144">
        <ele>149.8</ele>
        <time>2024-07-09T15:15:08Z</time>
      </trkpt>
      <trkpt lat="43.57296" lon="1.33138">
        <ele>149.8</ele>
        <time>2024-07-09T15:15:09Z</time>
      </trkpt>
      <trkpt lat="43.57301" lon="1.33133">
        <ele>149.8</ele>
        <time>2024-07-09T15:15:10Z</time>
      </trkpt>
      <trkpt lat="43.57306" lon="1.33127">
        <ele>149.8</ele>
        <time>2024-07-09T15:15:11Z</time>
      </trkpt>
      <trkpt lat="43.57311" lon="1.33121">
        <ele>149.8</ele>
        <time>2024-07-09T15:15:12Z</time>
      </trkpt>
      <trkpt lat="43.57317" lon="1.33115">
        <ele>149.8</ele>
        <time>2024-07-09T15:15:13Z</time>
      </trkpt>
      <trkpt lat="43.57322" lon="1.33109">
        <ele>149.8</ele>
        <time>2024-07-09T15:15:14Z</time>
      </trkpt>
      <trkpt lat="43.57327" lon="1.33103">
        <ele>149.8</ele>
        <time>2024-07-09T15:15:15Z</time>
      </trkpt>
      <trkpt lat="43.57332" lon="1.33097">
        <ele>149.8</ele>
        <time>2024-07-09T15:15:16Z</time>
      </trkpt>
      <trkpt lat="43.57337" lon="1.33091">
        <ele>149.8</ele>
        <time>2024-07-09T15:15:17Z</time>
      </trkpt>
      <trkpt lat="43.57342" lon="1.33085">
        <ele>149.8</ele>
        <time>2024-07-09T15:15:18Z</time>
      </trkpt>
      <trkpt lat="43.57347" lon="1.33078">
        <ele>149.8</ele>
        <time>2024-07-09T15:15:19Z</time>
      </trkpt>
      <trkpt lat="43.57352" lon="1.33072">
        <ele>149.8</ele>
        <time>2024-07-09T15:15:20Z</time>
      </trkpt>
      <trkpt lat="43.57356" lon="1.33066">
        <ele>150</ele>
        <time>2024-07-09T15:15:21Z</time>
      </trkpt>
      <trkpt lat="43.57361" lon="1.33059">
        <ele>150</ele>
        <time>2024-07-09T15:15:22Z</time>
      </trkpt>
      <trkpt lat="43.57366" lon="1.33053">
        <ele>150</ele>
        <time>2024-07-09T15:15:23Z</time>
      </trkpt>
      <trkpt lat="43.5737" lon="1.33048">
        <ele>150</ele>
        <time>2024-07-09T15:15:24Z</time>
      </trkpt>
      <trkpt lat="43.57376" lon="1.33041">
        <ele>150</ele>
        <time>2024-07-09T15:15:25Z</time>
      </trkpt>
      <trkpt lat="43.5738" lon="1.33036">
        <ele>150</ele>
        <time>2024-07-09T15:15:26Z</time>
      </trkpt>
      <trkpt lat="43.57384" lon="1.3303">
        <ele>150</ele>
        <time>2024-07-09T15:15:27Z</time>
      </trkpt>
      <trkpt lat="43.57388" lon="1.33025">
        <ele>150</ele>
        <time>2024-07-09T15:15:28Z</time>
      </trkpt>
      <trkpt lat="43.57392" lon="1.33022">
        <ele>150</ele>
        <time>2024-07-09T15:15:29Z</time>
      </trkpt>
      <trkpt lat="43.57395" lon="1.33021">
        <ele>150</ele>
        <time>2024-07-09T15:15:30Z</time>
      </trkpt>
      <trkpt lat="43.57397" lon="1.33024">
        <ele>150</ele>
        <time>2024-07-09T15:15:31Z</time>
      </trkpt>
      <trkpt lat="43.57399" lon="1.33029">
        <ele>150</ele>
        <time>2024-07-09T15:15:32Z</time>
      </trkpt>
      <trkpt lat="43.57399" lon="1.33034">
        <ele>150</ele>
        <time>2024-07-09T15:15:33Z</time>
      </trkpt>
      <trkpt lat="43.574" lon="1.33039">
        <ele>149.8</ele>
        <time>2024-07-09T15:15:34Z</time>
      </trkpt>
      <trkpt lat="43.57398" lon="1.33042">
        <ele>149.8</ele>
        <time>2024-07-09T15:15:35Z</time>
      </trkpt>
      <trkpt lat="43.57396" lon="1.33043">
        <ele>149.6</ele>
        <time>2024-07-09T15:15:36Z</time>
      </trkpt>
      <trkpt lat="43.57392" lon="1.33041">
        <ele>149.6</ele>
        <time>2024-07-09T15:15:37Z</time>
      </trkpt>
      <trkpt lat="43.57388" lon="1.33039">
        <ele>149.4</ele>
        <time>2024-07-09T15:15:38Z</time>
      </trkpt>
      <trkpt lat="43.57384" lon="1.33036">
        <ele>149.2</ele>
        <time>2024-07-09T15:15:39Z</time>
      </trkpt>
      <trkpt lat="43.5738" lon="1.33032">
        <ele>149.2</ele>
        <time>2024-07-09T15:15:40Z</time>
      </trkpt>
      <trkpt lat="43.57376" lon="1.33028">
        <ele>148.8</ele>
        <time>2024-07-09T15:15:41Z</time>
      </trkpt>
      <trkpt lat="43.57373" lon="1.33023">
        <ele>148.6</ele>
        <time>2024-07-09T15:15:42Z</time>
      </trkpt>
      <trkpt lat="43.5737" lon="1.33019">
        <ele>148.4</ele>
        <time>2024-07-09T15:15:43Z</time>
      </trkpt>
      <trkpt lat="43.57367" lon="1.33013">
        <ele>148.4</ele>
        <time>2024-07-09T15:15:44Z</time>
      </trkpt>
      <trkpt lat="43.57363" lon="1.33008">
        <ele>148.2</ele>
        <time>2024-07-09T15:15:45Z</time>
      </trkpt>
      <trkpt lat="43.5736" lon="1.33004">
        <ele>148.2</ele>
        <time>2024-07-09T15:15:46Z</time>
      </trkpt>
      <trkpt lat="43.57357" lon="1.33">
        <ele>148.2</ele>
        <time>2024-07-09T15:15:47Z</time>
      </trkpt>
      <trkpt lat="43.57353" lon="1.32995">
        <ele>148.2</ele>
        <time>2024-07-09T15:15:48Z</time>
      </trkpt>
      <trkpt lat="43.57349" lon="1.32989">
        <ele>148.2</ele>
        <time>2024-07-09T15:15:49Z</time>
      </trkpt>
      <trkpt lat="43.57346" lon="1.32984">
        <ele>148.2</ele>
        <time>2024-07-09T15:15:50Z</time>
      </trkpt>
      <trkpt lat="43.57342" lon="1.32977">
        <ele>148.2</ele>
        <time>2024-07-09T15:15:51Z</time>
      </trkpt>
      <trkpt lat="43.57339" lon="1.32972">
        <ele>148.2</ele>
        <time>2024-07-09T15:15:52Z</time>
      </trkpt>
      <trkpt lat="43.57334" lon="1.32965">
        <ele>148.2</ele>
        <time>2024-07-09T15:15:53Z</time>
      </trkpt>
      <trkpt lat="43.5733" lon="1.32958">
        <ele>148.2</ele>
        <time>2024-07-09T15:15:54Z</time>
      </trkpt>
      <trkpt lat="43.57326" lon="1.32951">
        <ele>148.4</ele>
        <time>2024-07-09T15:15:55Z</time>
      </trkpt>
      <trkpt lat="43.57322" lon="1.32944">
        <ele>148.4</ele>
        <time>2024-07-09T15:15:56Z</time>
      </trkpt>
      <trkpt lat="43.57317" lon="1.32937">
        <ele>148.4</ele>
        <time>2024-07-09T15:15:57Z</time>
      </trkpt>
      <trkpt lat="43.57313" lon="1.32932">
        <ele>148.4</ele>
        <time>2024-07-09T15:15:58Z</time>
      </trkpt>
      <trkpt lat="43.57308" lon="1.32926">
        <ele>148.4</ele>
        <time>2024-07-09T15:15:59Z</time>
      </trkpt>
      <trkpt lat="43.57303" lon="1.3292">
        <ele>148.4</ele>
        <time>2024-07-09T15:16:00Z</time>
      </trkpt>
      <trkpt lat="43.57298" lon="1.32913">
        <ele>148.4</ele>
        <time>2024-07-09T15:16:01Z</time>
      </trkpt>
      <trkpt lat="43.57293" lon="1.32907">
        <ele>148.6</ele>
        <time>2024-07-09T15:16:02Z</time>
      </trkpt>
      <trkpt lat="43.57287" lon="1.32901">
        <ele>148.6</ele>
        <time>2024-07-09T15:16:03Z</time>
      </trkpt>
      <trkpt lat="43.57282" lon="1.32896">
        <ele>148.6</ele>
        <time>2024-07-09T15:16:04Z</time>
      </trkpt>
      <trkpt lat="43.57276" lon="1.32891">
        <ele>148.6</ele>
        <time>2024-07-09T15:16:05Z</time>
      </trkpt>
      <trkpt lat="43.5727" lon="1.32885">
        <ele>148.6</ele>
        <time>2024-07-09T15:16:06Z</time>
      </trkpt>
      <trkpt lat="43.57265" lon="1.3288">
        <ele>148.8</ele>
        <time>2024-07-09T15:16:07Z</time>
      </trkpt>
      <trkpt lat="43.57259" lon="1.32875">
        <ele>148.8</ele>
        <time>2024-07-09T15:16:08Z</time>
      </trkpt>
      <trkpt lat="43.57254" lon="1.3287">
        <ele>148.8</ele>
        <time>2024-07-09T15:16:09Z</time>
      </trkpt>
      <trkpt lat="43.57248" lon="1.32865">
        <ele>148.8</ele>
        <time>2024-07-09T15:16:10Z</time>
      </trkpt>
      <trkpt lat="43.57243" lon="1.3286">
        <ele>148.8</ele>
        <time>2024-07-09T15:16:11Z</time>
      </trkpt>
      <trkpt lat="43.57237" lon="1.32855">
        <ele>148.8</ele>
        <time>2024-07-09T15:16:12Z</time>
      </trkpt>
      <trkpt lat="43.57232" lon="1.32851">
        <ele>148.8</ele>
        <time>2024-07-09T15:16:13Z</time>
      </trkpt>
      <trkpt lat="43.57226" lon="1.32846">
        <ele>148.8</ele>
        <time>2024-07-09T15:16:14Z</time>
      </trkpt>
      <trkpt lat="43.57221" lon="1.32842">
        <ele>148.8</ele>
        <time>2024-07-09T15:16:15Z</time>
      </trkpt>
      <trkpt lat="43.57215" lon="1.32837">
        <ele>148.8</ele>
        <time>2024-07-09T15:16:16Z</time>
      </trkpt>
      <trkpt lat="43.5721" lon="1.32833">
        <ele>148.8</ele>
        <time>2024-07-09T15:16:17Z</time>
      </trkpt>
      <trkpt lat="43.57206" lon="1.32829">
        <ele>148.8</ele>
        <time>2024-07-09T15:16:18Z</time>
      </trkpt>
      <trkpt lat="43.572" lon="1.32824">
        <ele>148.8</ele>
        <time>2024-07-09T15:16:19Z</time>
      </trkpt>
      <trkpt lat="43.57195" lon="1.32818">
        <ele>148.8</ele>
        <time>2024-07-09T15:16:20Z</time>
      </trkpt>
      <trkpt lat="43.57189" lon="1.32813">
        <ele>148.8</ele>
        <time>2024-07-09T15:16:21Z</time>
      </trkpt>
      <trkpt lat="43.57184" lon="1.32807">
        <ele>148.8</ele>
        <time>2024-07-09T15:16:22Z</time>
      </trkpt>
      <trkpt lat="43.57179" lon="1.32802">
        <ele>148.8</ele>
        <time>2024-07-09T15:16:23Z</time>
      </trkpt>
      <trkpt lat="43.57174" lon="1.32796">
        <ele>148.8</ele>
        <time>2024-07-09T15:16:24Z</time>
      </trkpt>
      <trkpt lat="43.57169" lon="1.32791">
        <ele>148.8</ele>
        <time>2024-07-09T15:16:25Z</time>
      </trkpt>
      <trkpt lat="43.57164" lon="1.32785">
        <ele>148.8</ele>
        <time>2024-07-09T15:16:26Z</time>
      </trkpt>
      <trkpt lat="43.57159" lon="1.32779">
        <ele>149</ele>
        <time>2024-07-09T15:16:27Z</time>
      </trkpt>
      <trkpt lat="43.57155" lon="1.32774">
        <ele>149</ele>
        <time>2024-07-09T15:16:28Z</time>
      </trkpt>
      <trkpt lat="43.57149" lon="1.32767">
        <ele>149</ele>
        <time>2024-07-09T15:16:29Z</time>
      </trkpt>
      <trkpt lat="43.57144" lon="1.3276">
        <ele>149</ele>
        <time>2024-07-09T15:16:30Z</time>
      </trkpt>
      <trkpt lat="43.57139" lon="1.32753">
        <ele>149</ele>
        <time>2024-07-09T15:16:31Z</time>
      </trkpt>
      <trkpt lat="43.57135" lon="1.32746">
        <ele>149</ele>
        <time>2024-07-09T15:16:32Z</time>
      </trkpt>
      <trkpt lat="43.57131" lon="1.32739">
        <ele>149</ele>
        <time>2024-07-09T15:16:33Z</time>
      </trkpt>
      <trkpt lat="43.57127" lon="1.32732">
        <ele>149</ele>
        <time>2024-07-09T15:16:34Z</time>
      </trkpt>
      <trkpt lat="43.57123" lon="1.32725">
        <ele>149</ele>
        <time>2024-07-09T15:16:35Z</time>
      </trkpt>
      <trkpt lat="43.57121" lon="1.32717">
        <ele>149</ele>
        <time>2024-07-09T15:16:36Z</time>
      </trkpt>
      <trkpt lat="43.57119" lon="1.3271">
        <ele>149</ele>
        <time>2024-07-09T15:16:37Z</time>
      </trkpt>
      <trkpt lat="43.57117" lon="1.327">
        <ele>149</ele>
        <time>2024-07-09T15:16:38Z</time>
      </trkpt>
      <trkpt lat="43.57116" lon="1.32691">
        <ele>149.2</ele>
        <time>2024-07-09T15:16:39Z</time>
      </trkpt>
      <trkpt lat="43.57116" lon="1.32682">
        <ele>149.2</ele>
        <time>2024-07-09T15:16:40Z</time>
      </trkpt>
      <trkpt lat="43.57117" lon="1.32672">
        <ele>149.2</ele>
        <time>2024-07-09T15:16:41Z</time>
      </trkpt>
      <trkpt lat="43.57118" lon="1.32663">
        <ele>149.4</ele>
        <time>2024-07-09T15:16:42Z</time>
      </trkpt>
      <trkpt lat="43.5712" lon="1.32654">
        <ele>149.4</ele>
        <time>2024-07-09T15:16:43Z</time>
      </trkpt>
      <trkpt lat="43.57121" lon="1.32645">
        <ele>149.6</ele>
        <time>2024-07-09T15:16:44Z</time>
      </trkpt>
      <trkpt lat="43.57123" lon="1.32635">
        <ele>149.6</ele>
        <time>2024-07-09T15:16:45Z</time>
      </trkpt>
      <trkpt lat="43.57125" lon="1.32626">
        <ele>149.6</ele>
        <time>2024-07-09T15:16:46Z</time>
      </trkpt>
      <trkpt lat="43.57126" lon="1.32618">
        <ele>149.6</ele>
        <time>2024-07-09T15:16:47Z</time>
      </trkpt>
      <trkpt lat="43.57129" lon="1.32607">
        <ele>149.6</ele>
        <time>2024-07-09T15:16:48Z</time>
      </trkpt>
      <trkpt lat="43.57131" lon="1.32599">
        <ele>149.6</ele>
        <time>2024-07-09T15:16:49Z</time>
      </trkpt>
      <trkpt lat="43.57134" lon="1.3259">
        <ele>149.6</ele>
        <time>2024-07-09T15:16:50Z</time>
      </trkpt>
      <trkpt lat="43.57136" lon="1.32582">
        <ele>149.6</ele>
        <time>2024-07-09T15:16:51Z</time>
      </trkpt>
      <trkpt lat="43.57139" lon="1.32573">
        <ele>149.6</ele>
        <time>2024-07-09T15:16:52Z</time>
      </trkpt>
      <trkpt lat="43.57142" lon="1.32564">
        <ele>149.6</ele>
        <time>2024-07-09T15:16:53Z</time>
      </trkpt>
      <trkpt lat="43.57145" lon="1.32555">
        <ele>149.6</ele>
        <time>2024-07-09T15:16:54Z</time>
      </trkpt>
      <trkpt lat="43.57147" lon="1.32546">
        <ele>149.6</ele>
        <time>2024-07-09T15:16:55Z</time>
      </trkpt>
      <trkpt lat="43.57149" lon="1.32539">
        <ele>149.8</ele>
        <time>2024-07-09T15:16:56Z</time>
      </trkpt>
      <trkpt lat="43.57152" lon="1.3253">
        <ele>149.8</ele>
        <time>2024-07-09T15:16:57Z</time>
      </trkpt>
      <trkpt lat="43.57154" lon="1.32521">
        <ele>150</ele>
        <time>2024-07-09T15:16:58Z</time>
      </trkpt>
      <trkpt lat="43.57156" lon="1.32512">
        <ele>150</ele>
        <time>2024-07-09T15:16:59Z</time>
      </trkpt>
      <trkpt lat="43.57157" lon="1.32503">
        <ele>150</ele>
        <time>2024-07-09T15:17:00Z</time>
      </trkpt>
      <trkpt lat="43.57158" lon="1.32496">
        <ele>150</ele>
        <time>2024-07-09T15:17:01Z</time>
      </trkpt>
      <trkpt lat="43.5716" lon="1.32486">
        <ele>150.2</ele>
        <time>2024-07-09T15:17:02Z</time>
      </trkpt>
      <trkpt lat="43.57162" lon="1.32477">
        <ele>150.2</ele>
        <time>2024-07-09T15:17:03Z</time>
      </trkpt>
      <trkpt lat="43.57164" lon="1.32469">
        <ele>150.2</ele>
        <time>2024-07-09T15:17:04Z</time>
      </trkpt>
      <trkpt lat="43.57167" lon="1.3246">
        <ele>150.2</ele>
        <time>2024-07-09T15:17:05Z</time>
      </trkpt>
      <trkpt lat="43.57169" lon="1.32451">
        <ele>150.2</ele>
        <time>2024-07-09T15:17:06Z</time>
      </trkpt>
      <trkpt lat="43.57172" lon="1.32442">
        <ele>150.2</ele>
        <time>2024-07-09T15:17:07Z</time>
      </trkpt>
      <trkpt lat="43.57174" lon="1.32433">
        <ele>150.2</ele>
        <time>2024-07-09T15:17:08Z</time>
      </trkpt>
      <trkpt lat="43.57176" lon="1.32426">
        <ele>150.2</ele>
        <time>2024-07-09T15:17:09Z</time>
      </trkpt>
      <trkpt lat="43.57178" lon="1.32419">
        <ele>150.2</ele>
        <time>2024-07-09T15:17:10Z</time>
      </trkpt>
      <trkpt lat="43.5718" lon="1.32408">
        <ele>150.2</ele>
        <time>2024-07-09T15:17:11Z</time>
      </trkpt>
      <trkpt lat="43.57181" lon="1.32399">
        <ele>150.2</ele>
        <time>2024-07-09T15:17:12Z</time>
      </trkpt>
      <trkpt lat="43.57182" lon="1.32389">
        <ele>150.4</ele>
        <time>2024-07-09T15:17:13Z</time>
      </trkpt>
      <trkpt lat="43.57183" lon="1.3238">
        <ele>150.4</ele>
        <time>2024-07-09T15:17:14Z</time>
      </trkpt>
      <trkpt lat="43.57183" lon="1.32373">
        <ele>150.4</ele>
        <time>2024-07-09T15:17:15Z</time>
      </trkpt>
      <trkpt lat="43.57184" lon="1.32362">
        <ele>150.4</ele>
        <time>2024-07-09T15:17:16Z</time>
      </trkpt>
      <trkpt lat="43.57184" lon="1.32353">
        <ele>150.6</ele>
        <time>2024-07-09T15:17:17Z</time>
      </trkpt>
      <trkpt lat="43.57183" lon="1.32345">
        <ele>150.6</ele>
        <time>2024-07-09T15:17:18Z</time>
      </trkpt>
      <trkpt lat="43.57182" lon="1.32335">
        <ele>150.6</ele>
        <time>2024-07-09T15:17:19Z</time>
      </trkpt>
      <trkpt lat="43.57181" lon="1.32326">
        <ele>150.6</ele>
        <time>2024-07-09T15:17:20Z</time>
      </trkpt>
      <trkpt lat="43.5718" lon="1.32317">
        <ele>150.6</ele>
        <time>2024-07-09T15:17:21Z</time>
      </trkpt>
      <trkpt lat="43.57179" lon="1.32307">
        <ele>150.6</ele>
        <time>2024-07-09T15:17:22Z</time>
      </trkpt>
      <trkpt lat="43.57178" lon="1.32298">
        <ele>150.6</ele>
        <time>2024-07-09T15:17:23Z</time>
      </trkpt>
      <trkpt lat="43.57177" lon="1.32291">
        <ele>150.6</ele>
        <time>2024-07-09T15:17:24Z</time>
      </trkpt>
      <trkpt lat="43.57177" lon="1.32279">
        <ele>150.6</ele>
        <time>2024-07-09T15:17:25Z</time>
      </trkpt>
      <trkpt lat="43.57177" lon="1.3227">
        <ele>150.6</ele>
        <time>2024-07-09T15:17:26Z</time>
      </trkpt>
      <trkpt lat="43.57177" lon="1.32262">
        <ele>150.6</ele>
        <time>2024-07-09T15:17:27Z</time>
      </trkpt>
      <trkpt lat="43.57178" lon="1.32255">
        <ele>150.6</ele>
        <time>2024-07-09T15:17:28Z</time>
      </trkpt>
      <trkpt lat="43.57181" lon="1.32245">
        <ele>150.4</ele>
        <time>2024-07-09T15:17:29Z</time>
      </trkpt>
      <trkpt lat="43.57183" lon="1.32237">
        <ele>150.4</ele>
        <time>2024-07-09T15:17:30Z</time>
      </trkpt>
      <trkpt lat="43.57185" lon="1.32228">
        <ele>150.4</ele>
        <time>2024-07-09T15:17:31Z</time>
      </trkpt>
      <trkpt lat="43.57187" lon="1.32221">
        <ele>150.8</ele>
        <time>2024-07-09T15:17:32Z</time>
      </trkpt>
      <trkpt lat="43.57189" lon="1.32212">
        <ele>150.8</ele>
        <time>2024-07-09T15:17:33Z</time>
      </trkpt>
      <trkpt lat="43.57192" lon="1.32203">
        <ele>150.8</ele>
        <time>2024-07-09T15:17:34Z</time>
      </trkpt>
      <trkpt lat="43.57194" lon="1.32195">
        <ele>150.8</ele>
        <time>2024-07-09T15:17:35Z</time>
      </trkpt>
      <trkpt lat="43.57196" lon="1.32187">
        <ele>151</ele>
        <time>2024-07-09T15:17:36Z</time>
      </trkpt>
      <trkpt lat="43.57197" lon="1.32178">
        <ele>151</ele>
        <time>2024-07-09T15:17:37Z</time>
      </trkpt>
      <trkpt lat="43.57197" lon="1.32168">
        <ele>151</ele>
        <time>2024-07-09T15:17:38Z</time>
      </trkpt>
      <trkpt lat="43.57198" lon="1.32159">
        <ele>151.2</ele>
        <time>2024-07-09T15:17:39Z</time>
      </trkpt>
      <trkpt lat="43.57198" lon="1.32149">
        <ele>151.2</ele>
        <time>2024-07-09T15:17:40Z</time>
      </trkpt>
      <trkpt lat="43.57199" lon="1.32142">
        <ele>151.2</ele>
        <time>2024-07-09T15:17:41Z</time>
      </trkpt>
      <trkpt lat="43.57199" lon="1.32131">
        <ele>151.2</ele>
        <time>2024-07-09T15:17:42Z</time>
      </trkpt>
      <trkpt lat="43.57199" lon="1.32121">
        <ele>151.2</ele>
        <time>2024-07-09T15:17:43Z</time>
      </trkpt>
      <trkpt lat="43.57196" lon="1.32112">
        <ele>151.2</ele>
        <time>2024-07-09T15:17:44Z</time>
      </trkpt>
      <trkpt lat="43.57193" lon="1.32103">
        <ele>151.2</ele>
        <time>2024-07-09T15:17:45Z</time>
      </trkpt>
      <trkpt lat="43.5719" lon="1.32093">
        <ele>151.2</ele>
        <time>2024-07-09T15:17:46Z</time>
      </trkpt>
      <trkpt lat="43.57188" lon="1.32086">
        <ele>151.2</ele>
        <time>2024-07-09T15:17:47Z</time>
      </trkpt>
      <trkpt lat="43.57185" lon="1.32076">
        <ele>151.2</ele>
        <time>2024-07-09T15:17:48Z</time>
      </trkpt>
      <trkpt lat="43.57183" lon="1.32068">
        <ele>151</ele>
        <time>2024-07-09T15:17:49Z</time>
      </trkpt>
      <trkpt lat="43.5718" lon="1.32057">
        <ele>151</ele>
        <time>2024-07-09T15:17:50Z</time>
      </trkpt>
      <trkpt lat="43.57176" lon="1.32049">
        <ele>151</ele>
        <time>2024-07-09T15:17:51Z</time>
      </trkpt>
      <trkpt lat="43.57171" lon="1.32039">
        <ele>150.8</ele>
        <time>2024-07-09T15:17:52Z</time>
      </trkpt>
      <trkpt lat="43.57166" lon="1.32032">
        <ele>150.8</ele>
        <time>2024-07-09T15:17:53Z</time>
      </trkpt>
      <trkpt lat="43.57161" lon="1.32027">
        <ele>150.8</ele>
        <time>2024-07-09T15:17:54Z</time>
      </trkpt>
      <trkpt lat="43.57157" lon="1.32023">
        <ele>150.8</ele>
        <time>2024-07-09T15:17:55Z</time>
      </trkpt>
      <trkpt lat="43.57151" lon="1.32018">
        <ele>150.6</ele>
        <time>2024-07-09T15:17:56Z</time>
      </trkpt>
      <trkpt lat="43.57145" lon="1.32014">
        <ele>150.6</ele>
        <time>2024-07-09T15:17:57Z</time>
      </trkpt>
      <trkpt lat="43.57139" lon="1.32009">
        <ele>150.4</ele>
        <time>2024-07-09T15:17:58Z</time>
      </trkpt>
      <trkpt lat="43.57133" lon="1.32002">
        <ele>150.4</ele>
        <time>2024-07-09T15:17:59Z</time>
      </trkpt>
      <trkpt lat="43.57128" lon="1.31999">
        <ele>150</ele>
        <time>2024-07-09T15:18:00Z</time>
      </trkpt>
      <trkpt lat="43.57121" lon="1.31995">
        <ele>149.8</ele>
        <time>2024-07-09T15:18:01Z</time>
      </trkpt>
      <trkpt lat="43.57114" lon="1.31993">
        <ele>149.8</ele>
        <time>2024-07-09T15:18:02Z</time>
      </trkpt>
      <trkpt lat="43.57107" lon="1.3199">
        <ele>149.6</ele>
        <time>2024-07-09T15:18:03Z</time>
      </trkpt>
      <trkpt lat="43.571" lon="1.31987">
        <ele>149.6</ele>
        <time>2024-07-09T15:18:04Z</time>
      </trkpt>
      <trkpt lat="43.57093" lon="1.31984">
        <ele>149.6</ele>
        <time>2024-07-09T15:18:05Z</time>
      </trkpt>
      <trkpt lat="43.57089" lon="1.3198">
        <ele>149.4</ele>
        <time>2024-07-09T15:18:06Z</time>
      </trkpt>
      <trkpt lat="43.57082" lon="1.31976">
        <ele>149.4</ele>
        <time>2024-07-09T15:18:07Z</time>
      </trkpt>
      <trkpt lat="43.57075" lon="1.31971">
        <ele>149.4</ele>
        <time>2024-07-09T15:18:08Z</time>
      </trkpt>
      <trkpt lat="43.57068" lon="1.31968">
        <ele>149.4</ele>
        <time>2024-07-09T15:18:09Z</time>
      </trkpt>
      <trkpt lat="43.57063" lon="1.31965">
        <ele>149.2</ele>
        <time>2024-07-09T15:18:10Z</time>
      </trkpt>
      <trkpt lat="43.57056" lon="1.31961">
        <ele>149.2</ele>
        <time>2024-07-09T15:18:11Z</time>
      </trkpt>
      <trkpt lat="43.5705" lon="1.31956">
        <ele>149.2</ele>
        <time>2024-07-09T15:18:12Z</time>
      </trkpt>
      <trkpt lat="43.57044" lon="1.31951">
        <ele>149.2</ele>
        <time>2024-07-09T15:18:13Z</time>
      </trkpt>
      <trkpt lat="43.57038" lon="1.31946">
        <ele>149.2</ele>
        <time>2024-07-09T15:18:14Z</time>
      </trkpt>
      <trkpt lat="43.57033" lon="1.31942">
        <ele>149.2</ele>
        <time>2024-07-09T15:18:15Z</time>
      </trkpt>
      <trkpt lat="43.57027" lon="1.31938">
        <ele>149.2</ele>
        <time>2024-07-09T15:18:16Z</time>
      </trkpt>
      <trkpt lat="43.57019" lon="1.31934">
        <ele>149.2</ele>
        <time>2024-07-09T15:18:17Z</time>
      </trkpt>
      <trkpt lat="43.57013" lon="1.31931">
        <ele>149.2</ele>
        <time>2024-07-09T15:18:18Z</time>
      </trkpt>
      <trkpt lat="43.57006" lon="1.31928">
        <ele>149.2</ele>
        <time>2024-07-09T15:18:19Z</time>
      </trkpt>
      <trkpt lat="43.57" lon="1.31925">
        <ele>149.2</ele>
        <time>2024-07-09T15:18:20Z</time>
      </trkpt>
      <trkpt lat="43.56992" lon="1.31922">
        <ele>149.2</ele>
        <time>2024-07-09T15:18:21Z</time>
      </trkpt>
      <trkpt lat="43.56985" lon="1.31918">
        <ele>149.2</ele>
        <time>2024-07-09T15:18:22Z</time>
      </trkpt>
      <trkpt lat="43.56979" lon="1.31914">
        <ele>149.4</ele>
        <time>2024-07-09T15:18:23Z</time>
      </trkpt>
      <trkpt lat="43.56972" lon="1.3191">
        <ele>149.4</ele>
        <time>2024-07-09T15:18:24Z</time>
      </trkpt>
      <trkpt lat="43.56967" lon="1.31906">
        <ele>149.4</ele>
        <time>2024-07-09T15:18:25Z</time>
      </trkpt>
      <trkpt lat="43.5696" lon="1.31899">
        <ele>149.4</ele>
        <time>2024-07-09T15:18:26Z</time>
      </trkpt>
      <trkpt lat="43.56955" lon="1.31893">
        <ele>149.4</ele>
        <time>2024-07-09T15:18:27Z</time>
      </trkpt>
      <trkpt lat="43.56951" lon="1.31886">
        <ele>149.4</ele>
        <time>2024-07-09T15:18:28Z</time>
      </trkpt>
      <trkpt lat="43.56948" lon="1.31881">
        <ele>149.4</ele>
        <time>2024-07-09T15:18:29Z</time>
      </trkpt>
      <trkpt lat="43.56944" lon="1.31876">
        <ele>149.4</ele>
        <time>2024-07-09T15:18:30Z</time>
      </trkpt>
      <trkpt lat="43.56941" lon="1.31869">
        <ele>149.4</ele>
        <time>2024-07-09T15:18:31Z</time>
      </trkpt>
      <trkpt lat="43.56939" lon="1.31861">
        <ele>149.4</ele>
        <time>2024-07-09T15:18:32Z</time>
      </trkpt>
      <trkpt lat="43.56937" lon="1.31855">
        <ele>149.6</ele>
        <time>2024-07-09T15:18:33Z</time>
      </trkpt>
      <trkpt lat="43.56936" lon="1.31849">
        <ele>149.6</ele>
        <time>2024-07-09T15:18:34Z</time>
      </trkpt>
      <trkpt lat="43.56934" lon="1.31842">
        <ele>149.6</ele>
        <time>2024-07-09T15:18:35Z</time>
      </trkpt>
      <trkpt lat="43.56932" lon="1.31834">
        <ele>149.6</ele>
        <time>2024-07-09T15:18:36Z</time>
      </trkpt>
      <trkpt lat="43.56929" lon="1.31825">
        <ele>149.6</ele>
        <time>2024-07-09T15:18:37Z</time>
      </trkpt>
      <trkpt lat="43.56927" lon="1.31818">
        <ele>149.6</ele>
        <time>2024-07-09T15:18:38Z</time>
      </trkpt>
      <trkpt lat="43.56926" lon="1.3181">
        <ele>149.6</ele>
        <time>2024-07-09T15:18:39Z</time>
      </trkpt>
      <trkpt lat="43.56924" lon="1.31799">
        <ele>149.8</ele>
        <time>2024-07-09T15:18:40Z</time>
      </trkpt>
      <trkpt lat="43.56922" lon="1.3179">
        <ele>149.8</ele>
        <time>2024-07-09T15:18:41Z</time>
      </trkpt>
      <trkpt lat="43.56921" lon="1.3178">
        <ele>149.8</ele>
        <time>2024-07-09T15:18:42Z</time>
      </trkpt>
      <trkpt lat="43.5692" lon="1.31771">
        <ele>149.8</ele>
        <time>2024-07-09T15:18:43Z</time>
      </trkpt>
      <trkpt lat="43.56917" lon="1.31759">
        <ele>149.8</ele>
        <time>2024-07-09T15:18:44Z</time>
      </trkpt>
      <trkpt lat="43.56914" lon="1.31748">
        <ele>149.8</ele>
        <time>2024-07-09T15:18:45Z</time>
      </trkpt>
      <trkpt lat="43.56912" lon="1.31739">
        <ele>150</ele>
        <time>2024-07-09T15:18:46Z</time>
      </trkpt>
      <trkpt lat="43.5691" lon="1.31727">
        <ele>150</ele>
        <time>2024-07-09T15:18:47Z</time>
      </trkpt>
      <trkpt lat="43.56909" lon="1.3172">
        <ele>150</ele>
        <time>2024-07-09T15:18:48Z</time>
      </trkpt>
      <trkpt lat="43.56908" lon="1.31712">
        <ele>150</ele>
        <time>2024-07-09T15:18:49Z</time>
      </trkpt>
      <trkpt lat="43.56906" lon="1.31702">
        <ele>150</ele>
        <time>2024-07-09T15:18:50Z</time>
      </trkpt>
      <trkpt lat="43.56904" lon="1.31693">
        <ele>150</ele>
        <time>2024-07-09T15:18:51Z</time>
      </trkpt>
      <trkpt lat="43.56901" lon="1.31684">
        <ele>150</ele>
        <time>2024-07-09T15:18:52Z</time>
      </trkpt>
      <trkpt lat="43.56899" lon="1.31675">
        <ele>150</ele>
        <time>2024-07-09T15:18:53Z</time>
      </trkpt>
      <trkpt lat="43.56896" lon="1.31664">
        <ele>150</ele>
        <time>2024-07-09T15:18:54Z</time>
      </trkpt>
      <trkpt lat="43.56894" lon="1.31655">
        <ele>150</ele>
        <time>2024-07-09T15:18:55Z</time>
      </trkpt>
      <trkpt lat="43.56891" lon="1.31643">
        <ele>150</ele>
        <time>2024-07-09T15:18:56Z</time>
      </trkpt>
      <trkpt lat="43.56891" lon="1.31636">
        <ele>150</ele>
        <time>2024-07-09T15:18:57Z</time>
      </trkpt>
      <trkpt lat="43.56892" lon="1.31628">
        <ele>150</ele>
        <time>2024-07-09T15:18:58Z</time>
      </trkpt>
      <trkpt lat="43.56891" lon="1.3162">
        <ele>150</ele>
        <time>2024-07-09T15:18:59Z</time>
      </trkpt>
      <trkpt lat="43.56889" lon="1.31617">
        <ele>150</ele>
        <time>2024-07-09T15:19:00Z</time>
      </trkpt>
      <trkpt lat="43.56888" lon="1.31614">
        <ele>150</ele>
        <time>2024-07-09T15:19:01Z</time>
      </trkpt>
      <trkpt lat="43.56885" lon="1.3161">
        <ele>150</ele>
        <time>2024-07-09T15:19:02Z</time>
      </trkpt>
      <trkpt lat="43.56883" lon="1.31607">
        <ele>150.2</ele>
        <time>2024-07-09T15:19:03Z</time>
      </trkpt>
      <trkpt lat="43.56879" lon="1.31604">
        <ele>150.2</ele>
        <time>2024-07-09T15:19:04Z</time>
      </trkpt>
      <trkpt lat="43.56875" lon="1.31603">
        <ele>150.4</ele>
        <time>2024-07-09T15:19:05Z</time>
      </trkpt>
      <trkpt lat="43.56872" lon="1.31603">
        <ele>150.6</ele>
        <time>2024-07-09T15:19:06Z</time>
      </trkpt>
      <trkpt lat="43.56867" lon="1.31603">
        <ele>150.6</ele>
        <time>2024-07-09T15:19:07Z</time>
      </trkpt>
      <trkpt lat="43.5686" lon="1.31603">
        <ele>150.6</ele>
        <time>2024-07-09T15:19:08Z</time>
      </trkpt>
      <trkpt lat="43.56854" lon="1.31602">
        <ele>150.6</ele>
        <time>2024-07-09T15:19:09Z</time>
      </trkpt>
      <trkpt lat="43.56849" lon="1.316">
        <ele>150.6</ele>
        <time>2024-07-09T15:19:10Z</time>
      </trkpt>
      <trkpt lat="43.56844" lon="1.31597">
        <ele>150.6</ele>
        <time>2024-07-09T15:19:11Z</time>
      </trkpt>
      <trkpt lat="43.56839" lon="1.31594">
        <ele>150</ele>
        <time>2024-07-09T15:19:12Z</time>
      </trkpt>
      <trkpt lat="43.56833" lon="1.3159">
        <ele>149.6</ele>
        <time>2024-07-09T15:19:13Z</time>
      </trkpt>
      <trkpt lat="43.56828" lon="1.31585">
        <ele>149.4</ele>
        <time>2024-07-09T15:19:14Z</time>
      </trkpt>
      <trkpt lat="43.56825" lon="1.31581">
        <ele>149.4</ele>
        <time>2024-07-09T15:19:15Z</time>
      </trkpt>
      <trkpt lat="43.56821" lon="1.31575">
        <ele>149.2</ele>
        <time>2024-07-09T15:19:16Z</time>
      </trkpt>
      <trkpt lat="43.56817" lon="1.31567">
        <ele>149.2</ele>
        <time>2024-07-09T15:19:17Z</time>
      </trkpt>
      <trkpt lat="43.56813" lon="1.3156">
        <ele>149.2</ele>
        <time>2024-07-09T15:19:18Z</time>
      </trkpt>
      <trkpt lat="43.5681" lon="1.31552">
        <ele>149.2</ele>
        <time>2024-07-09T15:19:19Z</time>
      </trkpt>
      <trkpt lat="43.56807" lon="1.31545">
        <ele>149.2</ele>
        <time>2024-07-09T15:19:20Z</time>
      </trkpt>
      <trkpt lat="43.56803" lon="1.31537">
        <ele>149.2</ele>
        <time>2024-07-09T15:19:21Z</time>
      </trkpt>
      <trkpt lat="43.56799" lon="1.31528">
        <ele>149.4</ele>
        <time>2024-07-09T15:19:22Z</time>
      </trkpt>
      <trkpt lat="43.56796" lon="1.31521">
        <ele>149.4</ele>
        <time>2024-07-09T15:19:23Z</time>
      </trkpt>
      <trkpt lat="43.56793" lon="1.31514">
        <ele>149.6</ele>
        <time>2024-07-09T15:19:24Z</time>
      </trkpt>
      <trkpt lat="43.5679" lon="1.31507">
        <ele>149.6</ele>
        <time>2024-07-09T15:19:25Z</time>
      </trkpt>
      <trkpt lat="43.56787" lon="1.31502">
        <ele>149.6</ele>
        <time>2024-07-09T15:19:26Z</time>
      </trkpt>
      <trkpt lat="43.56783" lon="1.31495">
        <ele>149.6</ele>
        <time>2024-07-09T15:19:27Z</time>
      </trkpt>
      <trkpt lat="43.56779" lon="1.3149">
        <ele>149.8</ele>
        <time>2024-07-09T15:19:28Z</time>
      </trkpt>
      <trkpt lat="43.56775" lon="1.31485">
        <ele>149.8</ele>
        <time>2024-07-09T15:19:29Z</time>
      </trkpt>
      <trkpt lat="43.56773" lon="1.31481">
        <ele>149.8</ele>
        <time>2024-07-09T15:19:30Z</time>
      </trkpt>
      <trkpt lat="43.56769" lon="1.31476">
        <ele>149.8</ele>
        <time>2024-07-09T15:19:31Z</time>
      </trkpt>
      <trkpt lat="43.56766" lon="1.3147">
        <ele>149.8</ele>
        <time>2024-07-09T15:19:32Z</time>
      </trkpt>
      <trkpt lat="43.56764" lon="1.31464">
        <ele>150</ele>
        <time>2024-07-09T15:19:33Z</time>
      </trkpt>
      <trkpt lat="43.56761" lon="1.3146">
        <ele>150</ele>
        <time>2024-07-09T15:19:34Z</time>
      </trkpt>
      <trkpt lat="43.56759" lon="1.31454">
        <ele>150</ele>
        <time>2024-07-09T15:19:35Z</time>
      </trkpt>
      <trkpt lat="43.56754" lon="1.31447">
        <ele>150</ele>
        <time>2024-07-09T15:19:36Z</time>
      </trkpt>
      <trkpt lat="43.56751" lon="1.31441">
        <ele>150.2</ele>
        <time>2024-07-09T15:19:37Z</time>
      </trkpt>
      <trkpt lat="43.56747" lon="1.31435">
        <ele>150.2</ele>
        <time>2024-07-09T15:19:38Z</time>
      </trkpt>
      <trkpt lat="43.56744" lon="1.3143">
        <ele>150.2</ele>
        <time>2024-07-09T15:19:39Z</time>
      </trkpt>
      <trkpt lat="43.56741" lon="1.31424">
        <ele>150.2</ele>
        <time>2024-07-09T15:19:40Z</time>
      </trkpt>
      <trkpt lat="43.56736" lon="1.31417">
        <ele>150.2</ele>
        <time>2024-07-09T15:19:41Z</time>
      </trkpt>
      <trkpt lat="43.56732" lon="1.31411">
        <ele>150.4</ele>
        <time>2024-07-09T15:19:42Z</time>
      </trkpt>
      <trkpt lat="43.56728" lon="1.31405">
        <ele>150.4</ele>
        <time>2024-07-09T15:19:43Z</time>
      </trkpt>
      <trkpt lat="43.56724" lon="1.31401">
        <ele>150.2</ele>
        <time>2024-07-09T15:19:44Z</time>
      </trkpt>
      <trkpt lat="43.5672" lon="1.31394">
        <ele>150.2</ele>
        <time>2024-07-09T15:19:45Z</time>
      </trkpt>
      <trkpt lat="43.56714" lon="1.31387">
        <ele>150.2</ele>
        <time>2024-07-09T15:19:46Z</time>
      </trkpt>
      <trkpt lat="43.5671" lon="1.31381">
        <ele>150.4</ele>
        <time>2024-07-09T15:19:47Z</time>
      </trkpt>
      <trkpt lat="43.56706" lon="1.31377">
        <ele>150.4</ele>
        <time>2024-07-09T15:19:48Z</time>
      </trkpt>
      <trkpt lat="43.56701" lon="1.31372">
        <ele>150.4</ele>
        <time>2024-07-09T15:19:49Z</time>
      </trkpt>
      <trkpt lat="43.56695" lon="1.31365">
        <ele>150.4</ele>
        <time>2024-07-09T15:19:50Z</time>
      </trkpt>
      <trkpt lat="43.56691" lon="1.31359">
        <ele>150.4</ele>
        <time>2024-07-09T15:19:51Z</time>
      </trkpt>
      <trkpt lat="43.56687" lon="1.31352">
        <ele>150.4</ele>
        <time>2024-07-09T15:19:52Z</time>
      </trkpt>
      <trkpt lat="43.56683" lon="1.31345">
        <ele>150.4</ele>
        <time>2024-07-09T15:19:53Z</time>
      </trkpt>
      <trkpt lat="43.56681" lon="1.31339">
        <ele>150.4</ele>
        <time>2024-07-09T15:19:54Z</time>
      </trkpt>
      <trkpt lat="43.56679" lon="1.31329">
        <ele>150.4</ele>
        <time>2024-07-09T15:19:55Z</time>
      </trkpt>
      <trkpt lat="43.56677" lon="1.31321">
        <ele>150.4</ele>
        <time>2024-07-09T15:19:56Z</time>
      </trkpt>
      <trkpt lat="43.56676" lon="1.31313">
        <ele>150.4</ele>
        <time>2024-07-09T15:19:57Z</time>
      </trkpt>
      <trkpt lat="43.56675" lon="1.31306">
        <ele>150.6</ele>
        <time>2024-07-09T15:19:58Z</time>
      </trkpt>
      <trkpt lat="43.56674" lon="1.31297">
        <ele>150.6</ele>
        <time>2024-07-09T15:19:59Z</time>
      </trkpt>
      <trkpt lat="43.56673" lon="1.31287">
        <ele>150.6</ele>
        <time>2024-07-09T15:20:00Z</time>
      </trkpt>
      <trkpt lat="43.56671" lon="1.3128">
        <ele>150.6</ele>
        <time>2024-07-09T15:20:01Z</time>
      </trkpt>
      <trkpt lat="43.56669" lon="1.31275">
        <ele>150.6</ele>
        <time>2024-07-09T15:20:02Z</time>
      </trkpt>
      <trkpt lat="43.56666" lon="1.31269">
        <ele>150.6</ele>
        <time>2024-07-09T15:20:03Z</time>
      </trkpt>
      <trkpt lat="43.56662" lon="1.31263">
        <ele>150.8</ele>
        <time>2024-07-09T15:20:04Z</time>
      </trkpt>
      <trkpt lat="43.56657" lon="1.31256">
        <ele>150.8</ele>
        <time>2024-07-09T15:20:05Z</time>
      </trkpt>
      <trkpt lat="43.56653" lon="1.31251">
        <ele>151</ele>
        <time>2024-07-09T15:20:06Z</time>
      </trkpt>
      <trkpt lat="43.5665" lon="1.31247">
        <ele>151</ele>
        <time>2024-07-09T15:20:07Z</time>
      </trkpt>
      <trkpt lat="43.56646" lon="1.31241">
        <ele>151</ele>
        <time>2024-07-09T15:20:08Z</time>
      </trkpt>
      <trkpt lat="43.5664" lon="1.31234">
        <ele>151</ele>
        <time>2024-07-09T15:20:09Z</time>
      </trkpt>
      <trkpt lat="43.56635" lon="1.31229">
        <ele>151</ele>
        <time>2024-07-09T15:20:10Z</time>
      </trkpt>
      <trkpt lat="43.5663" lon="1.31223">
        <ele>151</ele>
        <time>2024-07-09T15:20:11Z</time>
      </trkpt>
      <trkpt lat="43.56625" lon="1.31219">
        <ele>151</ele>
        <time>2024-07-09T15:20:12Z</time>
      </trkpt>
      <trkpt lat="43.5662" lon="1.31214">
        <ele>151</ele>
        <time>2024-07-09T15:20:13Z</time>
      </trkpt>
      <trkpt lat="43.56614" lon="1.31208">
        <ele>151</ele>
        <time>2024-07-09T15:20:14Z</time>
      </trkpt>
      <trkpt lat="43.56609" lon="1.31203">
        <ele>150.8</ele>
        <time>2024-07-09T15:20:15Z</time>
      </trkpt>
      <trkpt lat="43.56605" lon="1.312">
        <ele>150.8</ele>
        <time>2024-07-09T15:20:16Z</time>
      </trkpt>
      <trkpt lat="43.566" lon="1.31196">
        <ele>150.8</ele>
        <time>2024-07-09T15:20:17Z</time>
      </trkpt>
      <trkpt lat="43.56593" lon="1.31193">
        <ele>150.8</ele>
        <time>2024-07-09T15:20:18Z</time>
      </trkpt>
      <trkpt lat="43.56589" lon="1.31193">
        <ele>150.8</ele>
        <time>2024-07-09T15:20:19Z</time>
      </trkpt>
      <trkpt lat="43.56584" lon="1.31195">
        <ele>150.8</ele>
        <time>2024-07-09T15:20:20Z</time>
      </trkpt>
      <trkpt lat="43.5658" lon="1.31196">
        <ele>150.8</ele>
        <time>2024-07-09T15:20:21Z</time>
      </trkpt>
      <trkpt lat="43.56576" lon="1.31198">
        <ele>150.8</ele>
        <time>2024-07-09T15:20:22Z</time>
      </trkpt>
      <trkpt lat="43.5657" lon="1.312">
        <ele>150.8</ele>
        <time>2024-07-09T15:20:23Z</time>
      </trkpt>
      <trkpt lat="43.56565" lon="1.31202">
        <ele>151</ele>
        <time>2024-07-09T15:20:24Z</time>
      </trkpt>
      <trkpt lat="43.5656" lon="1.31204">
        <ele>151.4</ele>
        <time>2024-07-09T15:20:25Z</time>
      </trkpt>
      <trkpt lat="43.56556" lon="1.31204">
        <ele>151.4</ele>
        <time>2024-07-09T15:20:26Z</time>
      </trkpt>
      <trkpt lat="43.56552" lon="1.31204">
        <ele>151.4</ele>
        <time>2024-07-09T15:20:27Z</time>
      </trkpt>
      <trkpt lat="43.56545" lon="1.31204">
        <ele>151.4</ele>
        <time>2024-07-09T15:20:28Z</time>
      </trkpt>
      <trkpt lat="43.5654" lon="1.31204">
        <ele>151.4</ele>
        <time>2024-07-09T15:20:29Z</time>
      </trkpt>
      <trkpt lat="43.56535" lon="1.31205">
        <ele>151.4</ele>
        <time>2024-07-09T15:20:30Z</time>
      </trkpt>
      <trkpt lat="43.56529" lon="1.31204">
        <ele>151.4</ele>
        <time>2024-07-09T15:20:31Z</time>
      </trkpt>
      <trkpt lat="43.56522" lon="1.31204">
        <ele>151.2</ele>
        <time>2024-07-09T15:20:32Z</time>
      </trkpt>
      <trkpt lat="43.56516" lon="1.31203">
        <ele>151.2</ele>
        <time>2024-07-09T15:20:33Z</time>
      </trkpt>
      <trkpt lat="43.56512" lon="1.312">
        <ele>151</ele>
        <time>2024-07-09T15:20:34Z</time>
      </trkpt>
      <trkpt lat="43.56509" lon="1.31197">
        <ele>151</ele>
        <time>2024-07-09T15:20:35Z</time>
      </trkpt>
      <trkpt lat="43.56505" lon="1.31195">
        <ele>150.6</ele>
        <time>2024-07-09T15:20:36Z</time>
      </trkpt>
      <trkpt lat="43.565" lon="1.31192">
        <ele>150.4</ele>
        <time>2024-07-09T15:20:37Z</time>
      </trkpt>
      <trkpt lat="43.56496" lon="1.3119">
        <ele>150.2</ele>
        <time>2024-07-09T15:20:38Z</time>
      </trkpt>
      <trkpt lat="43.56492" lon="1.31188">
        <ele>150.2</ele>
        <time>2024-07-09T15:20:39Z</time>
      </trkpt>
      <trkpt lat="43.56488" lon="1.31186">
        <ele>150.2</ele>
        <time>2024-07-09T15:20:40Z</time>
      </trkpt>
      <trkpt lat="43.56484" lon="1.31182">
        <ele>150.2</ele>
        <time>2024-07-09T15:20:41Z</time>
      </trkpt>
      <trkpt lat="43.56481" lon="1.31178">
        <ele>150.2</ele>
        <time>2024-07-09T15:20:42Z</time>
      </trkpt>
      <trkpt lat="43.56479" lon="1.31173">
        <ele>150.2</ele>
        <time>2024-07-09T15:20:43Z</time>
      </trkpt>
      <trkpt lat="43.56476" lon="1.3117">
        <ele>150.4</ele>
        <time>2024-07-09T15:20:44Z</time>
      </trkpt>
      <trkpt lat="43.56474" lon="1.31166">
        <ele>150.4</ele>
        <time>2024-07-09T15:20:45Z</time>
      </trkpt>
      <trkpt lat="43.56471" lon="1.3116">
        <ele>150.6</ele>
        <time>2024-07-09T15:20:46Z</time>
      </trkpt>
      <trkpt lat="43.56467" lon="1.31156">
        <ele>150.8</ele>
        <time>2024-07-09T15:20:47Z</time>
      </trkpt>
      <trkpt lat="43.56462" lon="1.31151">
        <ele>151</ele>
        <time>2024-07-09T15:20:48Z</time>
      </trkpt>
      <trkpt lat="43.56459" lon="1.31147">
        <ele>151.2</ele>
        <time>2024-07-09T15:20:49Z</time>
      </trkpt>
      <trkpt lat="43.56454" lon="1.31141">
        <ele>151.2</ele>
        <time>2024-07-09T15:20:50Z</time>
      </trkpt>
      <trkpt lat="43.56451" lon="1.31133">
        <ele>151.4</ele>
        <time>2024-07-09T15:20:51Z</time>
      </trkpt>
      <trkpt lat="43.56448" lon="1.31125">
        <ele>151.4</ele>
        <time>2024-07-09T15:20:52Z</time>
      </trkpt>
      <trkpt lat="43.56446" lon="1.31118">
        <ele>151.4</ele>
        <time>2024-07-09T15:20:53Z</time>
      </trkpt>
      <trkpt lat="43.56443" lon="1.31112">
        <ele>151.6</ele>
        <time>2024-07-09T15:20:54Z</time>
      </trkpt>
      <trkpt lat="43.5644" lon="1.31106">
        <ele>151.6</ele>
        <time>2024-07-09T15:20:55Z</time>
      </trkpt>
      <trkpt lat="43.56436" lon="1.31103">
        <ele>151.6</ele>
        <time>2024-07-09T15:20:56Z</time>
      </trkpt>
      <trkpt lat="43.56434" lon="1.31102">
        <ele>151.6</ele>
        <time>2024-07-09T15:20:57Z</time>
      </trkpt>
      <trkpt lat="43.56432" lon="1.31102">
        <ele>151.6</ele>
        <time>2024-07-09T15:20:58Z</time>
      </trkpt>
      <trkpt lat="43.5643" lon="1.31102">
        <ele>151.6</ele>
        <time>2024-07-09T15:20:59Z</time>
      </trkpt>
      <trkpt lat="43.56429" lon="1.31103">
        <ele>151.8</ele>
        <time>2024-07-09T15:21:00Z</time>
      </trkpt>
      <trkpt lat="43.56428" lon="1.31104">
        <ele>152.2</ele>
        <time>2024-07-09T15:21:01Z</time>
      </trkpt>
      <trkpt lat="43.56426" lon="1.31105">
        <ele>152.6</ele>
        <time>2024-07-09T15:21:02Z</time>
      </trkpt>
      <trkpt lat="43.56425" lon="1.31107">
        <ele>153</ele>
        <time>2024-07-09T15:21:03Z</time>
      </trkpt>
      <trkpt lat="43.56422" lon="1.3111">
        <ele>153.2</ele>
        <time>2024-07-09T15:21:04Z</time>
      </trkpt>
      <trkpt lat="43.56419" lon="1.31112">
        <ele>153.4</ele>
        <time>2024-07-09T15:21:05Z</time>
      </trkpt>
      <trkpt lat="43.56416" lon="1.31114">
        <ele>153.4</ele>
        <time>2024-07-09T15:21:06Z</time>
      </trkpt>
      <trkpt lat="43.56415" lon="1.31115">
        <ele>153.6</ele>
        <time>2024-07-09T15:21:07Z</time>
      </trkpt>
      <trkpt lat="43.56413" lon="1.31116">
        <ele>153.6</ele>
        <time>2024-07-09T15:21:08Z</time>
      </trkpt>
      <trkpt lat="43.56412" lon="1.31115">
        <ele>153.6</ele>
        <time>2024-07-09T15:21:09Z</time>
      </trkpt>
      <trkpt lat="43.56409" lon="1.31112">
        <ele>153.6</ele>
        <time>2024-07-09T15:21:10Z</time>
      </trkpt>
      <trkpt lat="43.56407" lon="1.31107">
        <ele>153.4</ele>
        <time>2024-07-09T15:21:11Z</time>
      </trkpt>
      <trkpt lat="43.56405" lon="1.31102">
        <ele>153.4</ele>
        <time>2024-07-09T15:21:12Z</time>
      </trkpt>
      <trkpt lat="43.56403" lon="1.31097">
        <ele>153.4</ele>
        <time>2024-07-09T15:21:13Z</time>
      </trkpt>
      <trkpt lat="43.56401" lon="1.3109">
        <ele>153.2</ele>
        <time>2024-07-09T15:21:14Z</time>
      </trkpt>
      <trkpt lat="43.56399" lon="1.31084">
        <ele>153</ele>
        <time>2024-07-09T15:21:15Z</time>
      </trkpt>
      <trkpt lat="43.56396" lon="1.31077">
        <ele>152.6</ele>
        <time>2024-07-09T15:21:16Z</time>
      </trkpt>
      <trkpt lat="43.56394" lon="1.31072">
        <ele>152.4</ele>
        <time>2024-07-09T15:21:17Z</time>
      </trkpt>
      <trkpt lat="43.56392" lon="1.31066">
        <ele>152.2</ele>
        <time>2024-07-09T15:21:18Z</time>
      </trkpt>
      <trkpt lat="43.56388" lon="1.31056">
        <ele>152</ele>
        <time>2024-07-09T15:21:19Z</time>
      </trkpt>
      <trkpt lat="43.56384" lon="1.31048">
        <ele>152</ele>
        <time>2024-07-09T15:21:20Z</time>
      </trkpt>
      <trkpt lat="43.56382" lon="1.31042">
        <ele>152</ele>
        <time>2024-07-09T15:21:21Z</time>
      </trkpt>
      <trkpt lat="43.56379" lon="1.31035">
        <ele>151.8</ele>
        <time>2024-07-09T15:21:22Z</time>
      </trkpt>
      <trkpt lat="43.56377" lon="1.31025">
        <ele>151.8</ele>
        <time>2024-07-09T15:21:23Z</time>
      </trkpt>
      <trkpt lat="43.56375" lon="1.31016">
        <ele>151.8</ele>
        <time>2024-07-09T15:21:24Z</time>
      </trkpt>
      <trkpt lat="43.56374" lon="1.31006">
        <ele>151.8</ele>
        <time>2024-07-09T15:21:25Z</time>
      </trkpt>
      <trkpt lat="43.56373" lon="1.30997">
        <ele>151.8</ele>
        <time>2024-07-09T15:21:26Z</time>
      </trkpt>
      <trkpt lat="43.56374" lon="1.30987">
        <ele>151.8</ele>
        <time>2024-07-09T15:21:27Z</time>
      </trkpt>
      <trkpt lat="43.56375" lon="1.30975">
        <ele>151.8</ele>
        <time>2024-07-09T15:21:28Z</time>
      </trkpt>
      <trkpt lat="43.56376" lon="1.30966">
        <ele>151.8</ele>
        <time>2024-07-09T15:21:29Z</time>
      </trkpt>
      <trkpt lat="43.56377" lon="1.30957">
        <ele>151.6</ele>
        <time>2024-07-09T15:21:30Z</time>
      </trkpt>
      <trkpt lat="43.56377" lon="1.30949">
        <ele>151.6</ele>
        <time>2024-07-09T15:21:31Z</time>
      </trkpt>
      <trkpt lat="43.56376" lon="1.3094">
        <ele>151.4</ele>
        <time>2024-07-09T15:21:32Z</time>
      </trkpt>
      <trkpt lat="43.56375" lon="1.30929">
        <ele>151.4</ele>
        <time>2024-07-09T15:21:33Z</time>
      </trkpt>
      <trkpt lat="43.56374" lon="1.30919">
        <ele>151.4</ele>
        <time>2024-07-09T15:21:34Z</time>
      </trkpt>
      <trkpt lat="43.56373" lon="1.30912">
        <ele>151.4</ele>
        <time>2024-07-09T15:21:35Z</time>
      </trkpt>
      <trkpt lat="43.56372" lon="1.30904">
        <ele>151.2</ele>
        <time>2024-07-09T15:21:36Z</time>
      </trkpt>
      <trkpt lat="43.56371" lon="1.30895">
        <ele>151.2</ele>
        <time>2024-07-09T15:21:37Z</time>
      </trkpt>
      <trkpt lat="43.56369" lon="1.30886">
        <ele>151.2</ele>
        <time>2024-07-09T15:21:38Z</time>
      </trkpt>
      <trkpt lat="43.56367" lon="1.30879">
        <ele>151.2</ele>
        <time>2024-07-09T15:21:39Z</time>
      </trkpt>
      <trkpt lat="43.56365" lon="1.30872">
        <ele>151.2</ele>
        <time>2024-07-09T15:21:40Z</time>
      </trkpt>
      <trkpt lat="43.56364" lon="1.30863">
        <ele>151.2</ele>
        <time>2024-07-09T15:21:41Z</time>
      </trkpt>
      <trkpt lat="43.56363" lon="1.30853">
        <ele>151.2</ele>
        <time>2024-07-09T15:21:42Z</time>
      </trkpt>
      <trkpt lat="43.56363" lon="1.30845">
        <ele>151.2</ele>
        <time>2024-07-09T15:21:43Z</time>
      </trkpt>
      <trkpt lat="43.56364" lon="1.30838">
        <ele>151.2</ele>
        <time>2024-07-09T15:21:44Z</time>
      </trkpt>
      <trkpt lat="43.56365" lon="1.30832">
        <ele>151.2</ele>
        <time>2024-07-09T15:21:45Z</time>
      </trkpt>
      <trkpt lat="43.56366" lon="1.30824">
        <ele>151.2</ele>
        <time>2024-07-09T15:21:46Z</time>
      </trkpt>
      <trkpt lat="43.56368" lon="1.30816">
        <ele>151.2</ele>
        <time>2024-07-09T15:21:47Z</time>
      </trkpt>
      <trkpt lat="43.56368" lon="1.30809">
        <ele>151.2</ele>
        <time>2024-07-09T15:21:48Z</time>
      </trkpt>
      <trkpt lat="43.56368" lon="1.30802">
        <ele>151.2</ele>
        <time>2024-07-09T15:21:49Z</time>
      </trkpt>
      <trkpt lat="43.56368" lon="1.30795">
        <ele>151.2</ele>
        <time>2024-07-09T15:21:50Z</time>
      </trkpt>
      <trkpt lat="43.56368" lon="1.30788">
        <ele>151.2</ele>
        <time>2024-07-09T15:21:51Z</time>
      </trkpt>
      <trkpt lat="43.56369" lon="1.3078">
        <ele>151.2</ele>
        <time>2024-07-09T15:21:52Z</time>
      </trkpt>
      <trkpt lat="43.56371" lon="1.30773">
        <ele>151.4</ele>
        <time>2024-07-09T15:21:53Z</time>
      </trkpt>
      <trkpt lat="43.56374" lon="1.30767">
        <ele>151.4</ele>
        <time>2024-07-09T15:21:54Z</time>
      </trkpt>
      <trkpt lat="43.56375" lon="1.30759">
        <ele>151.4</ele>
        <time>2024-07-09T15:21:55Z</time>
      </trkpt>
      <trkpt lat="43.56376" lon="1.30749">
        <ele>151.4</ele>
        <time>2024-07-09T15:21:56Z</time>
      </trkpt>
      <trkpt lat="43.56377" lon="1.30741">
        <ele>151.4</ele>
        <time>2024-07-09T15:21:57Z</time>
      </trkpt>
      <trkpt lat="43.56378" lon="1.30734">
        <ele>151.4</ele>
        <time>2024-07-09T15:21:58Z</time>
      </trkpt>
      <trkpt lat="43.56379" lon="1.30728">
        <ele>151.6</ele>
        <time>2024-07-09T15:21:59Z</time>
      </trkpt>
      <trkpt lat="43.5638" lon="1.3072">
        <ele>151.6</ele>
        <time>2024-07-09T15:22:00Z</time>
      </trkpt>
      <trkpt lat="43.56382" lon="1.30711">
        <ele>151.6</ele>
        <time>2024-07-09T15:22:01Z</time>
      </trkpt>
      <trkpt lat="43.56385" lon="1.30701">
        <ele>151.6</ele>
        <time>2024-07-09T15:22:02Z</time>
      </trkpt>
      <trkpt lat="43.56386" lon="1.30695">
        <ele>151.6</ele>
        <time>2024-07-09T15:22:03Z</time>
      </trkpt>
      <trkpt lat="43.56388" lon="1.30688">
        <ele>151.6</ele>
        <time>2024-07-09T15:22:04Z</time>
      </trkpt>
      <trkpt lat="43.56391" lon="1.30679">
        <ele>151.6</ele>
        <time>2024-07-09T15:22:05Z</time>
      </trkpt>
      <trkpt lat="43.56394" lon="1.30672">
        <ele>151.8</ele>
        <time>2024-07-09T15:22:06Z</time>
      </trkpt>
      <trkpt lat="43.56397" lon="1.30664">
        <ele>151.8</ele>
        <time>2024-07-09T15:22:07Z</time>
      </trkpt>
      <trkpt lat="43.56397" lon="1.30657">
        <ele>151.8</ele>
        <time>2024-07-09T15:22:08Z</time>
      </trkpt>
      <trkpt lat="43.564" lon="1.3065">
        <ele>152</ele>
        <time>2024-07-09T15:22:09Z</time>
      </trkpt>
      <trkpt lat="43.56404" lon="1.30639">
        <ele>152</ele>
        <time>2024-07-09T15:22:10Z</time>
      </trkpt>
      <trkpt lat="43.56407" lon="1.3063">
        <ele>152</ele>
        <time>2024-07-09T15:22:11Z</time>
      </trkpt>
      <trkpt lat="43.5641" lon="1.30621">
        <ele>152</ele>
        <time>2024-07-09T15:22:12Z</time>
      </trkpt>
      <trkpt lat="43.56412" lon="1.30615">
        <ele>152</ele>
        <time>2024-07-09T15:22:13Z</time>
      </trkpt>
      <trkpt lat="43.56413" lon="1.30606">
        <ele>152</ele>
        <time>2024-07-09T15:22:14Z</time>
      </trkpt>
      <trkpt lat="43.56415" lon="1.30598">
        <ele>152.2</ele>
        <time>2024-07-09T15:22:15Z</time>
      </trkpt>
      <trkpt lat="43.56418" lon="1.30587">
        <ele>152.2</ele>
        <time>2024-07-09T15:22:16Z</time>
      </trkpt>
      <trkpt lat="43.5642" lon="1.30581">
        <ele>152.2</ele>
        <time>2024-07-09T15:22:17Z</time>
      </trkpt>
      <trkpt lat="43.56422" lon="1.30573">
        <ele>152.2</ele>
        <time>2024-07-09T15:22:18Z</time>
      </trkpt>
      <trkpt lat="43.56425" lon="1.30565">
        <ele>152.2</ele>
        <time>2024-07-09T15:22:19Z</time>
      </trkpt>
      <trkpt lat="43.56427" lon="1.30558">
        <ele>152.2</ele>
        <time>2024-07-09T15:22:20Z</time>
      </trkpt>
      <trkpt lat="43.56431" lon="1.30548">
        <ele>152.2</ele>
        <time>2024-07-09T15:22:21Z</time>
      </trkpt>
      <trkpt lat="43.56434" lon="1.3054">
        <ele>152.2</ele>
        <time>2024-07-09T15:22:22Z</time>
      </trkpt>
      <trkpt lat="43.56437" lon="1.30534">
        <ele>152.2</ele>
        <time>2024-07-09T15:22:23Z</time>
      </trkpt>
      <trkpt lat="43.56442" lon="1.30527">
        <ele>152.2</ele>
        <time>2024-07-09T15:22:24Z</time>
      </trkpt>
      <trkpt lat="43.56447" lon="1.3052">
        <ele>152.2</ele>
        <time>2024-07-09T15:22:25Z</time>
      </trkpt>
      <trkpt lat="43.56451" lon="1.30514">
        <ele>152.2</ele>
        <time>2024-07-09T15:22:26Z</time>
      </trkpt>
      <trkpt lat="43.56456" lon="1.3051">
        <ele>152.2</ele>
        <time>2024-07-09T15:22:27Z</time>
      </trkpt>
      <trkpt lat="43.56461" lon="1.30508">
        <ele>152</ele>
        <time>2024-07-09T15:22:28Z</time>
      </trkpt>
      <trkpt lat="43.56467" lon="1.30506">
        <ele>151.6</ele>
        <time>2024-07-09T15:22:29Z</time>
      </trkpt>
      <trkpt lat="43.56473" lon="1.30503">
        <ele>151.8</ele>
        <time>2024-07-09T15:22:30Z</time>
      </trkpt>
      <trkpt lat="43.56479" lon="1.305">
        <ele>151.2</ele>
        <time>2024-07-09T15:22:31Z</time>
      </trkpt>
      <trkpt lat="43.56485" lon="1.30498">
        <ele>151.2</ele>
        <time>2024-07-09T15:22:32Z</time>
      </trkpt>
      <trkpt lat="43.56489" lon="1.30497">
        <ele>151</ele>
        <time>2024-07-09T15:22:33Z</time>
      </trkpt>
      <trkpt lat="43.56496" lon="1.30494">
        <ele>151</ele>
        <time>2024-07-09T15:22:34Z</time>
      </trkpt>
      <trkpt lat="43.56501" lon="1.30491">
        <ele>151</ele>
        <time>2024-07-09T15:22:35Z</time>
      </trkpt>
      <trkpt lat="43.56506" lon="1.30488">
        <ele>151</ele>
        <time>2024-07-09T15:22:36Z</time>
      </trkpt>
      <trkpt lat="43.5651" lon="1.30484">
        <ele>151.2</ele>
        <time>2024-07-09T15:22:37Z</time>
      </trkpt>
      <trkpt lat="43.56514" lon="1.3048">
        <ele>151.2</ele>
        <time>2024-07-09T15:22:38Z</time>
      </trkpt>
      <trkpt lat="43.56518" lon="1.30473">
        <ele>151.2</ele>
        <time>2024-07-09T15:22:39Z</time>
      </trkpt>
      <trkpt lat="43.56521" lon="1.30467">
        <ele>151.2</ele>
        <time>2024-07-09T15:22:40Z</time>
      </trkpt>
      <trkpt lat="43.56524" lon="1.30461">
        <ele>151.4</ele>
        <time>2024-07-09T15:22:41Z</time>
      </trkpt>
      <trkpt lat="43.56525" lon="1.30455">
        <ele>151.4</ele>
        <time>2024-07-09T15:22:42Z</time>
      </trkpt>
      <trkpt lat="43.56527" lon="1.30447">
        <ele>151.6</ele>
        <time>2024-07-09T15:22:43Z</time>
      </trkpt>
      <trkpt lat="43.5653" lon="1.30438">
        <ele>151.8</ele>
        <time>2024-07-09T15:22:44Z</time>
      </trkpt>
      <trkpt lat="43.56531" lon="1.3043">
        <ele>151.8</ele>
        <time>2024-07-09T15:22:45Z</time>
      </trkpt>
      <trkpt lat="43.56533" lon="1.30423">
        <ele>151.8</ele>
        <time>2024-07-09T15:22:46Z</time>
      </trkpt>
      <trkpt lat="43.56535" lon="1.30414">
        <ele>152</ele>
        <time>2024-07-09T15:22:47Z</time>
      </trkpt>
      <trkpt lat="43.56537" lon="1.30404">
        <ele>152</ele>
        <time>2024-07-09T15:22:48Z</time>
      </trkpt>
      <trkpt lat="43.56539" lon="1.30395">
        <ele>152.2</ele>
        <time>2024-07-09T15:22:49Z</time>
      </trkpt>
      <trkpt lat="43.56541" lon="1.30387">
        <ele>152.2</ele>
        <time>2024-07-09T15:22:50Z</time>
      </trkpt>
      <trkpt lat="43.56542" lon="1.30381">
        <ele>152.2</ele>
        <time>2024-07-09T15:22:51Z</time>
      </trkpt>
      <trkpt lat="43.56544" lon="1.30374">
        <ele>152.2</ele>
        <time>2024-07-09T15:22:52Z</time>
      </trkpt>
      <trkpt lat="43.56545" lon="1.30365">
        <ele>152.2</ele>
        <time>2024-07-09T15:22:53Z</time>
      </trkpt>
      <trkpt lat="43.56547" lon="1.30357">
        <ele>152.2</ele>
        <time>2024-07-09T15:22:54Z</time>
      </trkpt>
      <trkpt lat="43.5655" lon="1.30349">
        <ele>152.4</ele>
        <time>2024-07-09T15:22:55Z</time>
      </trkpt>
      <trkpt lat="43.56551" lon="1.30343">
        <ele>152.4</ele>
        <time>2024-07-09T15:22:56Z</time>
      </trkpt>
      <trkpt lat="43.56553" lon="1.30336">
        <ele>152.4</ele>
        <time>2024-07-09T15:22:57Z</time>
      </trkpt>
      <trkpt lat="43.56554" lon="1.30328">
        <ele>152.6</ele>
        <time>2024-07-09T15:22:58Z</time>
      </trkpt>
      <trkpt lat="43.56556" lon="1.30319">
        <ele>152.6</ele>
        <time>2024-07-09T15:22:59Z</time>
      </trkpt>
      <trkpt lat="43.56557" lon="1.30311">
        <ele>152.6</ele>
        <time>2024-07-09T15:23:00Z</time>
      </trkpt>
      <trkpt lat="43.56557" lon="1.30305">
        <ele>152.6</ele>
        <time>2024-07-09T15:23:01Z</time>
      </trkpt>
      <trkpt lat="43.56557" lon="1.30298">
        <ele>152.8</ele>
        <time>2024-07-09T15:23:02Z</time>
      </trkpt>
      <trkpt lat="43.56557" lon="1.30289">
        <ele>152.8</ele>
        <time>2024-07-09T15:23:03Z</time>
      </trkpt>
      <trkpt lat="43.56556" lon="1.30281">
        <ele>152.8</ele>
        <time>2024-07-09T15:23:04Z</time>
      </trkpt>
      <trkpt lat="43.56556" lon="1.30275">
        <ele>152.8</ele>
        <time>2024-07-09T15:23:05Z</time>
      </trkpt>
      <trkpt lat="43.56555" lon="1.30267">
        <ele>152.8</ele>
        <time>2024-07-09T15:23:06Z</time>
      </trkpt>
      <trkpt lat="43.56554" lon="1.30261">
        <ele>152.8</ele>
        <time>2024-07-09T15:23:07Z</time>
      </trkpt>
      <trkpt lat="43.56554" lon="1.30253">
        <ele>152.6</ele>
        <time>2024-07-09T15:23:08Z</time>
      </trkpt>
      <trkpt lat="43.56553" lon="1.30245">
        <ele>152.6</ele>
        <time>2024-07-09T15:23:09Z</time>
      </trkpt>
      <trkpt lat="43.56552" lon="1.30239">
        <ele>152.6</ele>
        <time>2024-07-09T15:23:10Z</time>
      </trkpt>
      <trkpt lat="43.56551" lon="1.3023">
        <ele>152.6</ele>
        <time>2024-07-09T15:23:11Z</time>
      </trkpt>
      <trkpt lat="43.5655" lon="1.3022">
        <ele>152.6</ele>
        <time>2024-07-09T15:23:12Z</time>
      </trkpt>
      <trkpt lat="43.56549" lon="1.30212">
        <ele>152.6</ele>
        <time>2024-07-09T15:23:13Z</time>
      </trkpt>
      <trkpt lat="43.56548" lon="1.30203">
        <ele>152.6</ele>
        <time>2024-07-09T15:23:14Z</time>
      </trkpt>
      <trkpt lat="43.56547" lon="1.30197">
        <ele>152.6</ele>
        <time>2024-07-09T15:23:15Z</time>
      </trkpt>
      <trkpt lat="43.56545" lon="1.30189">
        <ele>152.6</ele>
        <time>2024-07-09T15:23:16Z</time>
      </trkpt>
      <trkpt lat="43.56543" lon="1.3018">
        <ele>152.6</ele>
        <time>2024-07-09T15:23:17Z</time>
      </trkpt>
      <trkpt lat="43.56539" lon="1.30171">
        <ele>152.6</ele>
        <time>2024-07-09T15:23:18Z</time>
      </trkpt>
      <trkpt lat="43.56535" lon="1.30165">
        <ele>152.6</ele>
        <time>2024-07-09T15:23:19Z</time>
      </trkpt>
      <trkpt lat="43.56531" lon="1.30159">
        <ele>152.6</ele>
        <time>2024-07-09T15:23:20Z</time>
      </trkpt>
      <trkpt lat="43.56525" lon="1.30152">
        <ele>152.6</ele>
        <time>2024-07-09T15:23:21Z</time>
      </trkpt>
      <trkpt lat="43.56521" lon="1.30148">
        <ele>152.6</ele>
        <time>2024-07-09T15:23:22Z</time>
      </trkpt>
      <trkpt lat="43.56517" lon="1.30145">
        <ele>152.8</ele>
        <time>2024-07-09T15:23:23Z</time>
      </trkpt>
      <trkpt lat="43.56514" lon="1.30143">
        <ele>152.8</ele>
        <time>2024-07-09T15:23:24Z</time>
      </trkpt>
      <trkpt lat="43.5651" lon="1.30141">
        <ele>153</ele>
        <time>2024-07-09T15:23:25Z</time>
      </trkpt>
      <trkpt lat="43.56505" lon="1.30139">
        <ele>153</ele>
        <time>2024-07-09T15:23:26Z</time>
      </trkpt>
      <trkpt lat="43.565" lon="1.30137">
        <ele>153.2</ele>
        <time>2024-07-09T15:23:27Z</time>
      </trkpt>
      <trkpt lat="43.56496" lon="1.30134">
        <ele>153.6</ele>
        <time>2024-07-09T15:23:28Z</time>
      </trkpt>
      <trkpt lat="43.56491" lon="1.30132">
        <ele>154</ele>
        <time>2024-07-09T15:23:29Z</time>
      </trkpt>
      <trkpt lat="43.56486" lon="1.3013">
        <ele>154</ele>
        <time>2024-07-09T15:23:30Z</time>
      </trkpt>
      <trkpt lat="43.56479" lon="1.30127">
        <ele>154.2</ele>
        <time>2024-07-09T15:23:31Z</time>
      </trkpt>
      <trkpt lat="43.56473" lon="1.30124">
        <ele>154.4</ele>
        <time>2024-07-09T15:23:32Z</time>
      </trkpt>
      <trkpt lat="43.56468" lon="1.30122">
        <ele>154.4</ele>
        <time>2024-07-09T15:23:33Z</time>
      </trkpt>
      <trkpt lat="43.56462" lon="1.30118">
        <ele>154.4</ele>
        <time>2024-07-09T15:23:34Z</time>
      </trkpt>
      <trkpt lat="43.56456" lon="1.30114">
        <ele>154.4</ele>
        <time>2024-07-09T15:23:35Z</time>
      </trkpt>
      <trkpt lat="43.56449" lon="1.30108">
        <ele>154.4</ele>
        <time>2024-07-09T15:23:36Z</time>
      </trkpt>
      <trkpt lat="43.56443" lon="1.30103">
        <ele>154.2</ele>
        <time>2024-07-09T15:23:37Z</time>
      </trkpt>
      <trkpt lat="43.56438" lon="1.30099">
        <ele>154</ele>
        <time>2024-07-09T15:23:38Z</time>
      </trkpt>
      <trkpt lat="43.56432" lon="1.30094">
        <ele>153.8</ele>
        <time>2024-07-09T15:23:39Z</time>
      </trkpt>
      <trkpt lat="43.56426" lon="1.3009">
        <ele>153.6</ele>
        <time>2024-07-09T15:23:40Z</time>
      </trkpt>
      <trkpt lat="43.56419" lon="1.30086">
        <ele>153.4</ele>
        <time>2024-07-09T15:23:41Z</time>
      </trkpt>
      <trkpt lat="43.56413" lon="1.30082">
        <ele>153.2</ele>
        <time>2024-07-09T15:23:42Z</time>
      </trkpt>
      <trkpt lat="43.56406" lon="1.30079">
        <ele>153</ele>
        <time>2024-07-09T15:23:43Z</time>
      </trkpt>
      <trkpt lat="43.564" lon="1.30075">
        <ele>153</ele>
        <time>2024-07-09T15:23:44Z</time>
      </trkpt>
      <trkpt lat="43.56394" lon="1.30072">
        <ele>153</ele>
        <time>2024-07-09T15:23:45Z</time>
      </trkpt>
      <trkpt lat="43.56387" lon="1.3007">
        <ele>152.8</ele>
        <time>2024-07-09T15:23:46Z</time>
      </trkpt>
      <trkpt lat="43.56381" lon="1.30067">
        <ele>152.8</ele>
        <time>2024-07-09T15:23:47Z</time>
      </trkpt>
      <trkpt lat="43.56376" lon="1.30065">
        <ele>152.8</ele>
        <time>2024-07-09T15:23:48Z</time>
      </trkpt>
      <trkpt lat="43.5637" lon="1.30062">
        <ele>152.8</ele>
        <time>2024-07-09T15:23:49Z</time>
      </trkpt>
      <trkpt lat="43.56364" lon="1.3006">
        <ele>152.8</ele>
        <time>2024-07-09T15:23:50Z</time>
      </trkpt>
      <trkpt lat="43.56358" lon="1.30057">
        <ele>152.8</ele>
        <time>2024-07-09T15:23:51Z</time>
      </trkpt>
      <trkpt lat="43.56353" lon="1.30055">
        <ele>152.8</ele>
        <time>2024-07-09T15:23:52Z</time>
      </trkpt>
      <trkpt lat="43.56347" lon="1.30051">
        <ele>152.8</ele>
        <time>2024-07-09T15:23:53Z</time>
      </trkpt>
      <trkpt lat="43.56342" lon="1.30047">
        <ele>152.8</ele>
        <time>2024-07-09T15:23:54Z</time>
      </trkpt>
      <trkpt lat="43.56337" lon="1.30043">
        <ele>152.8</ele>
        <time>2024-07-09T15:23:55Z</time>
      </trkpt>
      <trkpt lat="43.56333" lon="1.30039">
        <ele>152.8</ele>
        <time>2024-07-09T15:23:56Z</time>
      </trkpt>
      <trkpt lat="43.5633" lon="1.30035">
        <ele>152.8</ele>
        <time>2024-07-09T15:23:57Z</time>
      </trkpt>
      <trkpt lat="43.56328" lon="1.30031">
        <ele>152.8</ele>
        <time>2024-07-09T15:23:58Z</time>
      </trkpt>
      <trkpt lat="43.56326" lon="1.30029">
        <ele>152.6</ele>
        <time>2024-07-09T15:23:59Z</time>
      </trkpt>
      <trkpt lat="43.56324" lon="1.30027">
        <ele>152.6</ele>
        <time>2024-07-09T15:24:00Z</time>
      </trkpt>
      <trkpt lat="43.56322" lon="1.30024">
        <ele>152.6</ele>
        <time>2024-07-09T15:24:01Z</time>
      </trkpt>
      <trkpt lat="43.56321" lon="1.30023">
        <ele>152.6</ele>
        <time>2024-07-09T15:24:02Z</time>
      </trkpt>
      <trkpt lat="43.5632" lon="1.30022">
        <ele>152.6</ele>
        <time>2024-07-09T15:24:03Z</time>
      </trkpt>
      <trkpt lat="43.56317" lon="1.30022">
        <ele>152.6</ele>
        <time>2024-07-09T15:24:04Z</time>
      </trkpt>
      <trkpt lat="43.56314" lon="1.30023">
        <ele>152.6</ele>
        <time>2024-07-09T15:24:05Z</time>
      </trkpt>
      <trkpt lat="43.56311" lon="1.30022">
        <ele>152.6</ele>
        <time>2024-07-09T15:24:06Z</time>
      </trkpt>
      <trkpt lat="43.56307" lon="1.30019">
        <ele>152.6</ele>
        <time>2024-07-09T15:24:07Z</time>
      </trkpt>
      <trkpt lat="43.56304" lon="1.30017">
        <ele>152.6</ele>
        <time>2024-07-09T15:24:08Z</time>
      </trkpt>
      <trkpt lat="43.56301" lon="1.30014">
        <ele>152.6</ele>
        <time>2024-07-09T15:24:09Z</time>
      </trkpt>
      <trkpt lat="43.56298" lon="1.30011">
        <ele>152.8</ele>
        <time>2024-07-09T15:24:10Z</time>
      </trkpt>
      <trkpt lat="43.56296" lon="1.30008">
        <ele>152.8</ele>
        <time>2024-07-09T15:24:11Z</time>
      </trkpt>
      <trkpt lat="43.56292" lon="1.30004">
        <ele>153.2</ele>
        <time>2024-07-09T15:24:12Z</time>
      </trkpt>
      <trkpt lat="43.56289" lon="1.30001">
        <ele>153.2</ele>
        <time>2024-07-09T15:24:13Z</time>
      </trkpt>
      <trkpt lat="43.56286" lon="1.29997">
        <ele>153.2</ele>
        <time>2024-07-09T15:24:14Z</time>
      </trkpt>
      <trkpt lat="43.56282" lon="1.29993">
        <ele>153.4</ele>
        <time>2024-07-09T15:24:15Z</time>
      </trkpt>
      <trkpt lat="43.56278" lon="1.29989">
        <ele>153.4</ele>
        <time>2024-07-09T15:24:16Z</time>
      </trkpt>
      <trkpt lat="43.56274" lon="1.29984">
        <ele>153.6</ele>
        <time>2024-07-09T15:24:17Z</time>
      </trkpt>
      <trkpt lat="43.5627" lon="1.29978">
        <ele>153.6</ele>
        <time>2024-07-09T15:24:18Z</time>
      </trkpt>
      <trkpt lat="43.56265" lon="1.29972">
        <ele>153.6</ele>
        <time>2024-07-09T15:24:19Z</time>
      </trkpt>
      <trkpt lat="43.56261" lon="1.29966">
        <ele>153.6</ele>
        <time>2024-07-09T15:24:20Z</time>
      </trkpt>
      <trkpt lat="43.56258" lon="1.29959">
        <ele>153.6</ele>
        <time>2024-07-09T15:24:21Z</time>
      </trkpt>
      <trkpt lat="43.56254" lon="1.29953">
        <ele>153.4</ele>
        <time>2024-07-09T15:24:22Z</time>
      </trkpt>
      <trkpt lat="43.56251" lon="1.29947">
        <ele>153.6</ele>
        <time>2024-07-09T15:24:23Z</time>
      </trkpt>
      <trkpt lat="43.56248" lon="1.29941">
        <ele>153.6</ele>
        <time>2024-07-09T15:24:24Z</time>
      </trkpt>
      <trkpt lat="43.56244" lon="1.29934">
        <ele>153.6</ele>
        <time>2024-07-09T15:24:25Z</time>
      </trkpt>
      <trkpt lat="43.5624" lon="1.29926">
        <ele>153.6</ele>
        <time>2024-07-09T15:24:26Z</time>
      </trkpt>
      <trkpt lat="43.56236" lon="1.29919">
        <ele>153.4</ele>
        <time>2024-07-09T15:24:27Z</time>
      </trkpt>
      <trkpt lat="43.56233" lon="1.29912">
        <ele>153.4</ele>
        <time>2024-07-09T15:24:28Z</time>
      </trkpt>
      <trkpt lat="43.56229" lon="1.29904">
        <ele>153.4</ele>
        <time>2024-07-09T15:24:29Z</time>
      </trkpt>
      <trkpt lat="43.56226" lon="1.29898">
        <ele>153.4</ele>
        <time>2024-07-09T15:24:30Z</time>
      </trkpt>
      <trkpt lat="43.56222" lon="1.29892">
        <ele>153.4</ele>
        <time>2024-07-09T15:24:31Z</time>
      </trkpt>
      <trkpt lat="43.56218" lon="1.29887">
        <ele>153.6</ele>
        <time>2024-07-09T15:24:32Z</time>
      </trkpt>
      <trkpt lat="43.56215" lon="1.29881">
        <ele>153.6</ele>
        <time>2024-07-09T15:24:33Z</time>
      </trkpt>
      <trkpt lat="43.56211" lon="1.29875">
        <ele>153.6</ele>
        <time>2024-07-09T15:24:34Z</time>
      </trkpt>
      <trkpt lat="43.56207" lon="1.29868">
        <ele>153.6</ele>
        <time>2024-07-09T15:24:35Z</time>
      </trkpt>
      <trkpt lat="43.56203" lon="1.29861">
        <ele>153.6</ele>
        <time>2024-07-09T15:24:36Z</time>
      </trkpt>
      <trkpt lat="43.562" lon="1.29853">
        <ele>153.6</ele>
        <time>2024-07-09T15:24:37Z</time>
      </trkpt>
      <trkpt lat="43.56196" lon="1.29848">
        <ele>153.6</ele>
        <time>2024-07-09T15:24:38Z</time>
      </trkpt>
      <trkpt lat="43.56192" lon="1.29845">
        <ele>153.6</ele>
        <time>2024-07-09T15:24:39Z</time>
      </trkpt>
      <trkpt lat="43.56188" lon="1.29845">
        <ele>153.6</ele>
        <time>2024-07-09T15:24:40Z</time>
      </trkpt>
      <trkpt lat="43.56183" lon="1.29847">
        <ele>153.6</ele>
        <time>2024-07-09T15:24:41Z</time>
      </trkpt>
      <trkpt lat="43.56178" lon="1.29846">
        <ele>153.6</ele>
        <time>2024-07-09T15:24:42Z</time>
      </trkpt>
      <trkpt lat="43.56172" lon="1.29844">
        <ele>153.6</ele>
        <time>2024-07-09T15:24:43Z</time>
      </trkpt>
      <trkpt lat="43.56167" lon="1.29841">
        <ele>153.6</ele>
        <time>2024-07-09T15:24:44Z</time>
      </trkpt>
      <trkpt lat="43.56161" lon="1.29837">
        <ele>153.6</ele>
        <time>2024-07-09T15:24:45Z</time>
      </trkpt>
      <trkpt lat="43.56156" lon="1.29833">
        <ele>153.6</ele>
        <time>2024-07-09T15:24:46Z</time>
      </trkpt>
      <trkpt lat="43.5615" lon="1.29828">
        <ele>153.6</ele>
        <time>2024-07-09T15:24:47Z</time>
      </trkpt>
      <trkpt lat="43.56145" lon="1.29824">
        <ele>153.6</ele>
        <time>2024-07-09T15:24:48Z</time>
      </trkpt>
      <trkpt lat="43.56138" lon="1.29818">
        <ele>153.6</ele>
        <time>2024-07-09T15:24:49Z</time>
      </trkpt>
      <trkpt lat="43.56133" lon="1.29813">
        <ele>153.6</ele>
        <time>2024-07-09T15:24:50Z</time>
      </trkpt>
      <trkpt lat="43.56128" lon="1.29807">
        <ele>153.6</ele>
        <time>2024-07-09T15:24:51Z</time>
      </trkpt>
      <trkpt lat="43.56124" lon="1.29804">
        <ele>153.6</ele>
        <time>2024-07-09T15:24:52Z</time>
      </trkpt>
      <trkpt lat="43.56119" lon="1.29799">
        <ele>153.6</ele>
        <time>2024-07-09T15:24:53Z</time>
      </trkpt>
      <trkpt lat="43.56114" lon="1.29794">
        <ele>153.6</ele>
        <time>2024-07-09T15:24:54Z</time>
      </trkpt>
      <trkpt lat="43.56108" lon="1.29789">
        <ele>153.4</ele>
        <time>2024-07-09T15:24:55Z</time>
      </trkpt>
      <trkpt lat="43.56103" lon="1.29785">
        <ele>153.4</ele>
        <time>2024-07-09T15:24:56Z</time>
      </trkpt>
      <trkpt lat="43.56098" lon="1.29781">
        <ele>153.6</ele>
        <time>2024-07-09T15:24:57Z</time>
      </trkpt>
      <trkpt lat="43.56093" lon="1.29778">
        <ele>153.4</ele>
        <time>2024-07-09T15:24:58Z</time>
      </trkpt>
      <trkpt lat="43.56089" lon="1.29774">
        <ele>153.4</ele>
        <time>2024-07-09T15:24:59Z</time>
      </trkpt>
      <trkpt lat="43.56086" lon="1.2977">
        <ele>153.6</ele>
        <time>2024-07-09T15:25:00Z</time>
      </trkpt>
      <trkpt lat="43.56085" lon="1.29767">
        <ele>153.6</ele>
        <time>2024-07-09T15:25:01Z</time>
      </trkpt>
      <trkpt lat="43.56085" lon="1.29764">
        <ele>153.6</ele>
        <time>2024-07-09T15:25:02Z</time>
      </trkpt>
      <trkpt lat="43.56085" lon="1.29761">
        <ele>153.8</ele>
        <time>2024-07-09T15:25:03Z</time>
      </trkpt>
      <trkpt lat="43.56086" lon="1.29757">
        <ele>153.8</ele>
        <time>2024-07-09T15:25:04Z</time>
      </trkpt>
      <trkpt lat="43.56087" lon="1.29754">
        <ele>154</ele>
        <time>2024-07-09T15:25:05Z</time>
      </trkpt>
      <trkpt lat="43.56087" lon="1.2975">
        <ele>154.2</ele>
        <time>2024-07-09T15:25:06Z</time>
      </trkpt>
      <trkpt lat="43.56088" lon="1.29747">
        <ele>154.2</ele>
        <time>2024-07-09T15:25:07Z</time>
      </trkpt>
      <trkpt lat="43.56089" lon="1.29743">
        <ele>154.4</ele>
        <time>2024-07-09T15:25:08Z</time>
      </trkpt>
      <trkpt lat="43.56088" lon="1.2974">
        <ele>154.6</ele>
        <time>2024-07-09T15:25:09Z</time>
      </trkpt>
      <trkpt lat="43.56087" lon="1.29737">
        <ele>154.6</ele>
        <time>2024-07-09T15:25:10Z</time>
      </trkpt>
      <trkpt lat="43.56085" lon="1.29733">
        <ele>154.6</ele>
        <time>2024-07-09T15:25:11Z</time>
      </trkpt>
      <trkpt lat="43.56085" lon="1.29729">
        <ele>154.8</ele>
        <time>2024-07-09T15:25:12Z</time>
      </trkpt>
      <trkpt lat="43.56087" lon="1.29724">
        <ele>155</ele>
        <time>2024-07-09T15:25:13Z</time>
      </trkpt>
      <trkpt lat="43.5609" lon="1.2972">
        <ele>155</ele>
        <time>2024-07-09T15:25:14Z</time>
      </trkpt>
      <trkpt lat="43.56094" lon="1.29718">
        <ele>155</ele>
        <time>2024-07-09T15:25:15Z</time>
      </trkpt>
      <trkpt lat="43.56097" lon="1.29716">
        <ele>155</ele>
        <time>2024-07-09T15:25:16Z</time>
      </trkpt>
      <trkpt lat="43.56101" lon="1.29713">
        <ele>155.2</ele>
        <time>2024-07-09T15:25:17Z</time>
      </trkpt>
      <trkpt lat="43.56106" lon="1.29711">
        <ele>155.4</ele>
        <time>2024-07-09T15:25:18Z</time>
      </trkpt>
      <trkpt lat="43.5611" lon="1.29707">
        <ele>155.4</ele>
        <time>2024-07-09T15:25:19Z</time>
      </trkpt>
      <trkpt lat="43.56113" lon="1.29704">
        <ele>155.6</ele>
        <time>2024-07-09T15:25:20Z</time>
      </trkpt>
      <trkpt lat="43.56117" lon="1.29701">
        <ele>155.6</ele>
        <time>2024-07-09T15:25:21Z</time>
      </trkpt>
      <trkpt lat="43.5612" lon="1.29698">
        <ele>155.8</ele>
        <time>2024-07-09T15:25:22Z</time>
      </trkpt>
      <trkpt lat="43.56123" lon="1.29694">
        <ele>156</ele>
        <time>2024-07-09T15:25:23Z</time>
      </trkpt>
      <trkpt lat="43.56126" lon="1.29689">
        <ele>156</ele>
        <time>2024-07-09T15:25:24Z</time>
      </trkpt>
      <trkpt lat="43.56128" lon="1.29686">
        <ele>156.2</ele>
        <time>2024-07-09T15:25:25Z</time>
      </trkpt>
      <trkpt lat="43.56132" lon="1.29683">
        <ele>156.2</ele>
        <time>2024-07-09T15:25:26Z</time>
      </trkpt>
      <trkpt lat="43.56136" lon="1.29679">
        <ele>156.2</ele>
        <time>2024-07-09T15:25:27Z</time>
      </trkpt>
      <trkpt lat="43.5614" lon="1.29676">
        <ele>156.4</ele>
        <time>2024-07-09T15:25:28Z</time>
      </trkpt>
      <trkpt lat="43.56143" lon="1.29673">
        <ele>156.4</ele>
        <time>2024-07-09T15:25:29Z</time>
      </trkpt>
      <trkpt lat="43.56146" lon="1.29671">
        <ele>156.4</ele>
        <time>2024-07-09T15:25:30Z</time>
      </trkpt>
      <trkpt lat="43.56149" lon="1.29671">
        <ele>156.4</ele>
        <time>2024-07-09T15:25:31Z</time>
      </trkpt>
      <trkpt lat="43.56151" lon="1.29671">
        <ele>156.6</ele>
        <time>2024-07-09T15:25:32Z</time>
      </trkpt>
      <trkpt lat="43.56151" lon="1.29669">
        <ele>156.8</ele>
        <time>2024-07-09T15:25:33Z</time>
      </trkpt>
      <trkpt lat="43.5615" lon="1.29668">
        <ele>156.8</ele>
        <time>2024-07-09T15:25:34Z</time>
      </trkpt>
      <trkpt lat="43.56148" lon="1.29666">
        <ele>156.8</ele>
        <time>2024-07-09T15:25:35Z</time>
      </trkpt>
      <trkpt lat="43.56144" lon="1.29662">
        <ele>156.8</ele>
        <time>2024-07-09T15:25:36Z</time>
      </trkpt>
      <trkpt lat="43.56141" lon="1.29657">
        <ele>156.8</ele>
        <time>2024-07-09T15:25:37Z</time>
      </trkpt>
      <trkpt lat="43.56139" lon="1.29652">
        <ele>156.8</ele>
        <time>2024-07-09T15:25:38Z</time>
      </trkpt>
      <trkpt lat="43.56135" lon="1.29645">
        <ele>156.6</ele>
        <time>2024-07-09T15:25:39Z</time>
      </trkpt>
      <trkpt lat="43.56131" lon="1.29638">
        <ele>156.6</ele>
        <time>2024-07-09T15:25:40Z</time>
      </trkpt>
      <trkpt lat="43.56127" lon="1.2963">
        <ele>156</ele>
        <time>2024-07-09T15:25:41Z</time>
      </trkpt>
      <trkpt lat="43.56123" lon="1.29623">
        <ele>155.6</ele>
        <time>2024-07-09T15:25:42Z</time>
      </trkpt>
      <trkpt lat="43.56119" lon="1.29616">
        <ele>155.6</ele>
        <time>2024-07-09T15:25:43Z</time>
      </trkpt>
      <trkpt lat="43.56116" lon="1.29609">
        <ele>155.2</ele>
        <time>2024-07-09T15:25:44Z</time>
      </trkpt>
      <trkpt lat="43.56112" lon="1.29601">
        <ele>155.2</ele>
        <time>2024-07-09T15:25:45Z</time>
      </trkpt>
      <trkpt lat="43.56107" lon="1.29592">
        <ele>155</ele>
        <time>2024-07-09T15:25:46Z</time>
      </trkpt>
      <trkpt lat="43.56104" lon="1.29587">
        <ele>155</ele>
        <time>2024-07-09T15:25:47Z</time>
      </trkpt>
      <trkpt lat="43.56099" lon="1.29578">
        <ele>154.8</ele>
        <time>2024-07-09T15:25:48Z</time>
      </trkpt>
      <trkpt lat="43.56095" lon="1.29572">
        <ele>154.8</ele>
        <time>2024-07-09T15:25:49Z</time>
      </trkpt>
      <trkpt lat="43.56091" lon="1.29566">
        <ele>154.8</ele>
        <time>2024-07-09T15:25:50Z</time>
      </trkpt>
      <trkpt lat="43.56087" lon="1.29559">
        <ele>154.8</ele>
        <time>2024-07-09T15:25:51Z</time>
      </trkpt>
      <trkpt lat="43.56082" lon="1.29551">
        <ele>154.6</ele>
        <time>2024-07-09T15:25:52Z</time>
      </trkpt>
      <trkpt lat="43.56078" lon="1.29546">
        <ele>154.6</ele>
        <time>2024-07-09T15:25:53Z</time>
      </trkpt>
      <trkpt lat="43.56073" lon="1.2954">
        <ele>154.6</ele>
        <time>2024-07-09T15:25:54Z</time>
      </trkpt>
      <trkpt lat="43.56069" lon="1.29533">
        <ele>154.6</ele>
        <time>2024-07-09T15:25:55Z</time>
      </trkpt>
      <trkpt lat="43.56064" lon="1.29527">
        <ele>154.6</ele>
        <time>2024-07-09T15:25:56Z</time>
      </trkpt>
      <trkpt lat="43.56059" lon="1.29519">
        <ele>154.6</ele>
        <time>2024-07-09T15:25:57Z</time>
      </trkpt>
      <trkpt lat="43.56055" lon="1.29514">
        <ele>154.6</ele>
        <time>2024-07-09T15:25:58Z</time>
      </trkpt>
      <trkpt lat="43.56051" lon="1.29508">
        <ele>154.6</ele>
        <time>2024-07-09T15:25:59Z</time>
      </trkpt>
      <trkpt lat="43.56047" lon="1.29502">
        <ele>154.6</ele>
        <time>2024-07-09T15:26:00Z</time>
      </trkpt>
      <trkpt lat="43.56041" lon="1.29496">
        <ele>154.6</ele>
        <time>2024-07-09T15:26:01Z</time>
      </trkpt>
      <trkpt lat="43.56037" lon="1.29491">
        <ele>154.6</ele>
        <time>2024-07-09T15:26:02Z</time>
      </trkpt>
      <trkpt lat="43.56032" lon="1.29485">
        <ele>154.6</ele>
        <time>2024-07-09T15:26:03Z</time>
      </trkpt>
      <trkpt lat="43.56028" lon="1.29478">
        <ele>154.6</ele>
        <time>2024-07-09T15:26:04Z</time>
      </trkpt>
      <trkpt lat="43.56023" lon="1.29472">
        <ele>154.4</ele>
        <time>2024-07-09T15:26:05Z</time>
      </trkpt>
      <trkpt lat="43.56019" lon="1.29466">
        <ele>154.6</ele>
        <time>2024-07-09T15:26:06Z</time>
      </trkpt>
      <trkpt lat="43.56015" lon="1.29462">
        <ele>154.6</ele>
        <time>2024-07-09T15:26:07Z</time>
      </trkpt>
      <trkpt lat="43.56011" lon="1.29456">
        <ele>154.6</ele>
        <time>2024-07-09T15:26:08Z</time>
      </trkpt>
      <trkpt lat="43.56007" lon="1.29448">
        <ele>154.4</ele>
        <time>2024-07-09T15:26:09Z</time>
      </trkpt>
      <trkpt lat="43.56005" lon="1.29443">
        <ele>154.4</ele>
        <time>2024-07-09T15:26:10Z</time>
      </trkpt>
      <trkpt lat="43.56001" lon="1.29436">
        <ele>154.4</ele>
        <time>2024-07-09T15:26:11Z</time>
      </trkpt>
      <trkpt lat="43.55997" lon="1.29431">
        <ele>154.6</ele>
        <time>2024-07-09T15:26:12Z</time>
      </trkpt>
      <trkpt lat="43.55992" lon="1.29427">
        <ele>154.6</ele>
        <time>2024-07-09T15:26:13Z</time>
      </trkpt>
      <trkpt lat="43.55985" lon="1.29425">
        <ele>154.6</ele>
        <time>2024-07-09T15:26:14Z</time>
      </trkpt>
      <trkpt lat="43.55979" lon="1.29426">
        <ele>154.6</ele>
        <time>2024-07-09T15:26:15Z</time>
      </trkpt>
      <trkpt lat="43.55973" lon="1.29425">
        <ele>154.8</ele>
        <time>2024-07-09T15:26:16Z</time>
      </trkpt>
      <trkpt lat="43.55968" lon="1.29424">
        <ele>154.8</ele>
        <time>2024-07-09T15:26:17Z</time>
      </trkpt>
      <trkpt lat="43.55962" lon="1.29422">
        <ele>154.8</ele>
        <time>2024-07-09T15:26:18Z</time>
      </trkpt>
      <trkpt lat="43.55956" lon="1.29417">
        <ele>154.8</ele>
        <time>2024-07-09T15:26:19Z</time>
      </trkpt>
      <trkpt lat="43.55951" lon="1.29412">
        <ele>154.8</ele>
        <time>2024-07-09T15:26:20Z</time>
      </trkpt>
      <trkpt lat="43.55948" lon="1.29409">
        <ele>154.8</ele>
        <time>2024-07-09T15:26:21Z</time>
      </trkpt>
      <trkpt lat="43.55943" lon="1.29405">
        <ele>155</ele>
        <time>2024-07-09T15:26:22Z</time>
      </trkpt>
      <trkpt lat="43.55937" lon="1.294">
        <ele>155</ele>
        <time>2024-07-09T15:26:23Z</time>
      </trkpt>
      <trkpt lat="43.55933" lon="1.29398">
        <ele>155</ele>
        <time>2024-07-09T15:26:24Z</time>
      </trkpt>
      <trkpt lat="43.55927" lon="1.29397">
        <ele>155</ele>
        <time>2024-07-09T15:26:25Z</time>
      </trkpt>
      <trkpt lat="43.55923" lon="1.29398">
        <ele>155</ele>
        <time>2024-07-09T15:26:26Z</time>
      </trkpt>
      <trkpt lat="43.55919" lon="1.29399">
        <ele>155</ele>
        <time>2024-07-09T15:26:27Z</time>
      </trkpt>
      <trkpt lat="43.55912" lon="1.29401">
        <ele>155</ele>
        <time>2024-07-09T15:26:28Z</time>
      </trkpt>
      <trkpt lat="43.55907" lon="1.29402">
        <ele>155</ele>
        <time>2024-07-09T15:26:29Z</time>
      </trkpt>
      <trkpt lat="43.55903" lon="1.29403">
        <ele>155</ele>
        <time>2024-07-09T15:26:30Z</time>
      </trkpt>
      <trkpt lat="43.55897" lon="1.29404">
        <ele>155</ele>
        <time>2024-07-09T15:26:31Z</time>
      </trkpt>
      <trkpt lat="43.55892" lon="1.29405">
        <ele>155</ele>
        <time>2024-07-09T15:26:32Z</time>
      </trkpt>
      <trkpt lat="43.55887" lon="1.29402">
        <ele>155</ele>
        <time>2024-07-09T15:26:33Z</time>
      </trkpt>
      <trkpt lat="43.55884" lon="1.29398">
        <ele>155</ele>
        <time>2024-07-09T15:26:34Z</time>
      </trkpt>
      <trkpt lat="43.55882" lon="1.29394">
        <ele>155</ele>
        <time>2024-07-09T15:26:35Z</time>
      </trkpt>
      <trkpt lat="43.55882" lon="1.29387">
        <ele>155</ele>
        <time>2024-07-09T15:26:36Z</time>
      </trkpt>
      <trkpt lat="43.55882" lon="1.29379">
        <ele>155</ele>
        <time>2024-07-09T15:26:37Z</time>
      </trkpt>
      <trkpt lat="43.55881" lon="1.29373">
        <ele>155</ele>
        <time>2024-07-09T15:26:38Z</time>
      </trkpt>
      <trkpt lat="43.55881" lon="1.29367">
        <ele>155</ele>
        <time>2024-07-09T15:26:39Z</time>
      </trkpt>
      <trkpt lat="43.55881" lon="1.29364">
        <ele>155</ele>
        <time>2024-07-09T15:26:40Z</time>
      </trkpt>
      <trkpt lat="43.55881" lon="1.2936">
        <ele>155.2</ele>
        <time>2024-07-09T15:26:41Z</time>
      </trkpt>
      <trkpt lat="43.55881" lon="1.29354">
        <ele>155.4</ele>
        <time>2024-07-09T15:26:42Z</time>
      </trkpt>
      <trkpt lat="43.5588" lon="1.29349">
        <ele>155.4</ele>
        <time>2024-07-09T15:26:43Z</time>
      </trkpt>
      <trkpt lat="43.5588" lon="1.29344">
        <ele>155.4</ele>
        <time>2024-07-09T15:26:44Z</time>
      </trkpt>
      <trkpt lat="43.55879" lon="1.29339">
        <ele>155.4</ele>
        <time>2024-07-09T15:26:45Z</time>
      </trkpt>
      <trkpt lat="43.55876" lon="1.29334">
        <ele>155.4</ele>
        <time>2024-07-09T15:26:46Z</time>
      </trkpt>
      <trkpt lat="43.55873" lon="1.29325">
        <ele>155.4</ele>
        <time>2024-07-09T15:26:47Z</time>
      </trkpt>
      <trkpt lat="43.55871" lon="1.29316">
        <ele>155.4</ele>
        <time>2024-07-09T15:26:48Z</time>
      </trkpt>
      <trkpt lat="43.55871" lon="1.2931">
        <ele>155.4</ele>
        <time>2024-07-09T15:26:49Z</time>
      </trkpt>
      <trkpt lat="43.5587" lon="1.29302">
        <ele>155.4</ele>
        <time>2024-07-09T15:26:50Z</time>
      </trkpt>
      <trkpt lat="43.55869" lon="1.29293">
        <ele>155.6</ele>
        <time>2024-07-09T15:26:51Z</time>
      </trkpt>
      <trkpt lat="43.55868" lon="1.29286">
        <ele>155.4</ele>
        <time>2024-07-09T15:26:52Z</time>
      </trkpt>
      <trkpt lat="43.55867" lon="1.29278">
        <ele>155.4</ele>
        <time>2024-07-09T15:26:53Z</time>
      </trkpt>
      <trkpt lat="43.55865" lon="1.29271">
        <ele>155.4</ele>
        <time>2024-07-09T15:26:54Z</time>
      </trkpt>
      <trkpt lat="43.55863" lon="1.29262">
        <ele>155.4</ele>
        <time>2024-07-09T15:26:55Z</time>
      </trkpt>
      <trkpt lat="43.55861" lon="1.29255">
        <ele>155.4</ele>
        <time>2024-07-09T15:26:56Z</time>
      </trkpt>
      <trkpt lat="43.5586" lon="1.29249">
        <ele>155.4</ele>
        <time>2024-07-09T15:26:57Z</time>
      </trkpt>
      <trkpt lat="43.55859" lon="1.29246">
        <ele>155.4</ele>
        <time>2024-07-09T15:26:58Z</time>
      </trkpt>
      <trkpt lat="43.55858" lon="1.29242">
        <ele>155.4</ele>
        <time>2024-07-09T15:26:59Z</time>
      </trkpt>
      <trkpt lat="43.55856" lon="1.29238">
        <ele>155.4</ele>
        <time>2024-07-09T15:27:00Z</time>
      </trkpt>
      <trkpt lat="43.55855" lon="1.29233">
        <ele>155.6</ele>
        <time>2024-07-09T15:27:01Z</time>
      </trkpt>
      <trkpt lat="43.55854" lon="1.29228">
        <ele>155.6</ele>
        <time>2024-07-09T15:27:02Z</time>
      </trkpt>
      <trkpt lat="43.55853" lon="1.29222">
        <ele>155.6</ele>
        <time>2024-07-09T15:27:03Z</time>
      </trkpt>
      <trkpt lat="43.55852" lon="1.29215">
        <ele>155.6</ele>
        <time>2024-07-09T15:27:04Z</time>
      </trkpt>
      <trkpt lat="43.5585" lon="1.29208">
        <ele>155.8</ele>
        <time>2024-07-09T15:27:05Z</time>
      </trkpt>
      <trkpt lat="43.55849" lon="1.29201">
        <ele>155.8</ele>
        <time>2024-07-09T15:27:06Z</time>
      </trkpt>
      <trkpt lat="43.55847" lon="1.29194">
        <ele>155.8</ele>
        <time>2024-07-09T15:27:07Z</time>
      </trkpt>
      <trkpt lat="43.55846" lon="1.29189">
        <ele>155.8</ele>
        <time>2024-07-09T15:27:08Z</time>
      </trkpt>
      <trkpt lat="43.55844" lon="1.29185">
        <ele>155.8</ele>
        <time>2024-07-09T15:27:09Z</time>
      </trkpt>
      <trkpt lat="43.5584" lon="1.29181">
        <ele>156</ele>
        <time>2024-07-09T15:27:10Z</time>
      </trkpt>
      <trkpt lat="43.55835" lon="1.29177">
        <ele>156</ele>
        <time>2024-07-09T15:27:11Z</time>
      </trkpt>
      <trkpt lat="43.5583" lon="1.29175">
        <ele>156</ele>
        <time>2024-07-09T15:27:12Z</time>
      </trkpt>
      <trkpt lat="43.55825" lon="1.29174">
        <ele>156</ele>
        <time>2024-07-09T15:27:13Z</time>
      </trkpt>
      <trkpt lat="43.55821" lon="1.29173">
        <ele>156</ele>
        <time>2024-07-09T15:27:14Z</time>
      </trkpt>
      <trkpt lat="43.55817" lon="1.2917">
        <ele>155.8</ele>
        <time>2024-07-09T15:27:15Z</time>
      </trkpt>
      <trkpt lat="43.55812" lon="1.29166">
        <ele>155.8</ele>
        <time>2024-07-09T15:27:16Z</time>
      </trkpt>
      <trkpt lat="43.55806" lon="1.2916">
        <ele>155.6</ele>
        <time>2024-07-09T15:27:17Z</time>
      </trkpt>
      <trkpt lat="43.55803" lon="1.29156">
        <ele>155.6</ele>
        <time>2024-07-09T15:27:18Z</time>
      </trkpt>
      <trkpt lat="43.55799" lon="1.2915">
        <ele>155.6</ele>
        <time>2024-07-09T15:27:19Z</time>
      </trkpt>
      <trkpt lat="43.55794" lon="1.29144">
        <ele>155.6</ele>
        <time>2024-07-09T15:27:20Z</time>
      </trkpt>
      <trkpt lat="43.5579" lon="1.29139">
        <ele>155.6</ele>
        <time>2024-07-09T15:27:21Z</time>
      </trkpt>
      <trkpt lat="43.55785" lon="1.29133">
        <ele>155.6</ele>
        <time>2024-07-09T15:27:22Z</time>
      </trkpt>
      <trkpt lat="43.55781" lon="1.29128">
        <ele>155.6</ele>
        <time>2024-07-09T15:27:23Z</time>
      </trkpt>
      <trkpt lat="43.55777" lon="1.29123">
        <ele>155.8</ele>
        <time>2024-07-09T15:27:24Z</time>
      </trkpt>
      <trkpt lat="43.55772" lon="1.29117">
        <ele>155.8</ele>
        <time>2024-07-09T15:27:25Z</time>
      </trkpt>
      <trkpt lat="43.55768" lon="1.29111">
        <ele>155.8</ele>
        <time>2024-07-09T15:27:26Z</time>
      </trkpt>
      <trkpt lat="43.55763" lon="1.29106">
        <ele>155.8</ele>
        <time>2024-07-09T15:27:27Z</time>
      </trkpt>
      <trkpt lat="43.55759" lon="1.29101">
        <ele>155.8</ele>
        <time>2024-07-09T15:27:28Z</time>
      </trkpt>
      <trkpt lat="43.55754" lon="1.29095">
        <ele>155.8</ele>
        <time>2024-07-09T15:27:29Z</time>
      </trkpt>
      <trkpt lat="43.5575" lon="1.2909">
        <ele>155.8</ele>
        <time>2024-07-09T15:27:30Z</time>
      </trkpt>
      <trkpt lat="43.55745" lon="1.29085">
        <ele>155.8</ele>
        <time>2024-07-09T15:27:31Z</time>
      </trkpt>
      <trkpt lat="43.55741" lon="1.2908">
        <ele>156</ele>
        <time>2024-07-09T15:27:32Z</time>
      </trkpt>
      <trkpt lat="43.55737" lon="1.29075">
        <ele>156</ele>
        <time>2024-07-09T15:27:33Z</time>
      </trkpt>
      <trkpt lat="43.55732" lon="1.29069">
        <ele>156</ele>
        <time>2024-07-09T15:27:34Z</time>
      </trkpt>
      <trkpt lat="43.55728" lon="1.29064">
        <ele>156</ele>
        <time>2024-07-09T15:27:35Z</time>
      </trkpt>
      <trkpt lat="43.55723" lon="1.29059">
        <ele>156</ele>
        <time>2024-07-09T15:27:36Z</time>
      </trkpt>
      <trkpt lat="43.55719" lon="1.29053">
        <ele>156</ele>
        <time>2024-07-09T15:27:37Z</time>
      </trkpt>
      <trkpt lat="43.55714" lon="1.29048">
        <ele>156</ele>
        <time>2024-07-09T15:27:38Z</time>
      </trkpt>
      <trkpt lat="43.55709" lon="1.29043">
        <ele>156.2</ele>
        <time>2024-07-09T15:27:39Z</time>
      </trkpt>
      <trkpt lat="43.55705" lon="1.29037">
        <ele>156.2</ele>
        <time>2024-07-09T15:27:40Z</time>
      </trkpt>
      <trkpt lat="43.557" lon="1.29032">
        <ele>156.2</ele>
        <time>2024-07-09T15:27:41Z</time>
      </trkpt>
      <trkpt lat="43.55695" lon="1.29026">
        <ele>156.2</ele>
        <time>2024-07-09T15:27:42Z</time>
      </trkpt>
      <trkpt lat="43.5569" lon="1.2902">
        <ele>156.2</ele>
        <time>2024-07-09T15:27:43Z</time>
      </trkpt>
      <trkpt lat="43.55686" lon="1.29014">
        <ele>156.2</ele>
        <time>2024-07-09T15:27:44Z</time>
      </trkpt>
      <trkpt lat="43.55681" lon="1.29009">
        <ele>156.2</ele>
        <time>2024-07-09T15:27:45Z</time>
      </trkpt>
      <trkpt lat="43.55676" lon="1.29003">
        <ele>156.2</ele>
        <time>2024-07-09T15:27:46Z</time>
      </trkpt>
      <trkpt lat="43.55671" lon="1.28998">
        <ele>156.2</ele>
        <time>2024-07-09T15:27:47Z</time>
      </trkpt>
      <trkpt lat="43.55667" lon="1.28992">
        <ele>156.2</ele>
        <time>2024-07-09T15:27:48Z</time>
      </trkpt>
      <trkpt lat="43.55662" lon="1.28987">
        <ele>156.2</ele>
        <time>2024-07-09T15:27:49Z</time>
      </trkpt>
      <trkpt lat="43.55657" lon="1.28981">
        <ele>156.2</ele>
        <time>2024-07-09T15:27:50Z</time>
      </trkpt>
      <trkpt lat="43.55652" lon="1.28976">
        <ele>156.4</ele>
        <time>2024-07-09T15:27:51Z</time>
      </trkpt>
      <trkpt lat="43.55648" lon="1.2897">
        <ele>156.4</ele>
        <time>2024-07-09T15:27:52Z</time>
      </trkpt>
      <trkpt lat="43.55643" lon="1.28964">
        <ele>156.4</ele>
        <time>2024-07-09T15:27:53Z</time>
      </trkpt>
      <trkpt lat="43.55638" lon="1.28959">
        <ele>156.6</ele>
        <time>2024-07-09T15:27:54Z</time>
      </trkpt>
      <trkpt lat="43.55633" lon="1.28953">
        <ele>156.6</ele>
        <time>2024-07-09T15:27:55Z</time>
      </trkpt>
      <trkpt lat="43.55628" lon="1.28948">
        <ele>156.6</ele>
        <time>2024-07-09T15:27:56Z</time>
      </trkpt>
      <trkpt lat="43.55623" lon="1.28942">
        <ele>156.6</ele>
        <time>2024-07-09T15:27:57Z</time>
      </trkpt>
      <trkpt lat="43.55618" lon="1.28937">
        <ele>156.6</ele>
        <time>2024-07-09T15:27:58Z</time>
      </trkpt>
      <trkpt lat="43.55613" lon="1.28931">
        <ele>156.6</ele>
        <time>2024-07-09T15:27:59Z</time>
      </trkpt>
      <trkpt lat="43.55608" lon="1.28925">
        <ele>156.6</ele>
        <time>2024-07-09T15:28:00Z</time>
      </trkpt>
      <trkpt lat="43.55603" lon="1.2892">
        <ele>156.8</ele>
        <time>2024-07-09T15:28:01Z</time>
      </trkpt>
      <trkpt lat="43.55598" lon="1.28914">
        <ele>156.8</ele>
        <time>2024-07-09T15:28:02Z</time>
      </trkpt>
      <trkpt lat="43.55594" lon="1.28909">
        <ele>156.8</ele>
        <time>2024-07-09T15:28:03Z</time>
      </trkpt>
      <trkpt lat="43.55584" lon="1.28898">
        <ele>156.8</ele>
        <time>2024-07-09T15:28:04Z</time>
      </trkpt>
      <trkpt lat="43.55579" lon="1.28893">
        <ele>156.8</ele>
        <time>2024-07-09T15:28:05Z</time>
      </trkpt>
      <trkpt lat="43.55574" lon="1.28887">
        <ele>156.8</ele>
        <time>2024-07-09T15:28:06Z</time>
      </trkpt>
      <trkpt lat="43.55569" lon="1.28882">
        <ele>156.8</ele>
        <time>2024-07-09T15:28:07Z</time>
      </trkpt>
      <trkpt lat="43.55569" lon="1.28882">
        <ele>156.8</ele>
        <time>2024-07-09T15:28:08Z</time>
      </trkpt>
      <trkpt lat="43.55559" lon="1.28873">
        <ele>157</ele>
        <time>2024-07-09T15:28:09Z</time>
      </trkpt>
      <trkpt lat="43.55553" lon="1.28869">
        <ele>157</ele>
        <time>2024-07-09T15:28:10Z</time>
      </trkpt>
      <trkpt lat="43.55548" lon="1.28866">
        <ele>157.2</ele>
        <time>2024-07-09T15:28:11Z</time>
      </trkpt>
      <trkpt lat="43.55543" lon="1.28863">
        <ele>157.2</ele>
        <time>2024-07-09T15:28:12Z</time>
      </trkpt>
      <trkpt lat="43.55543" lon="1.28863">
        <ele>157.2</ele>
        <time>2024-07-09T15:28:13Z</time>
      </trkpt>
      <trkpt lat="43.55532" lon="1.28859">
        <ele>157.2</ele>
        <time>2024-07-09T15:28:14Z</time>
      </trkpt>
      <trkpt lat="43.55526" lon="1.28858">
        <ele>157.4</ele>
        <time>2024-07-09T15:28:15Z</time>
      </trkpt>
      <trkpt lat="43.5552" lon="1.28856">
        <ele>157.4</ele>
        <time>2024-07-09T15:28:16Z</time>
      </trkpt>
      <trkpt lat="43.55514" lon="1.28855">
        <ele>157.4</ele>
        <time>2024-07-09T15:28:17Z</time>
      </trkpt>
      <trkpt lat="43.55514" lon="1.28855">
        <ele>157.4</ele>
        <time>2024-07-09T15:28:18Z</time>
      </trkpt>
      <trkpt lat="43.55503" lon="1.28852">
        <ele>157.6</ele>
        <time>2024-07-09T15:28:19Z</time>
      </trkpt>
      <trkpt lat="43.55497" lon="1.28851">
        <ele>157.6</ele>
        <time>2024-07-09T15:28:20Z</time>
      </trkpt>
      <trkpt lat="43.55491" lon="1.28849">
        <ele>157.6</ele>
        <time>2024-07-09T15:28:21Z</time>
      </trkpt>
      <trkpt lat="43.55486" lon="1.28848">
        <ele>157.6</ele>
        <time>2024-07-09T15:28:22Z</time>
      </trkpt>
      <trkpt lat="43.5548" lon="1.28847">
        <ele>157.6</ele>
        <time>2024-07-09T15:28:23Z</time>
      </trkpt>
      <trkpt lat="43.55474" lon="1.28845">
        <ele>157.8</ele>
        <time>2024-07-09T15:28:24Z</time>
      </trkpt>
      <trkpt lat="43.55474" lon="1.28845">
        <ele>157.8</ele>
        <time>2024-07-09T15:28:25Z</time>
      </trkpt>
      <trkpt lat="43.55462" lon="1.2884">
        <ele>157.8</ele>
        <time>2024-07-09T15:28:26Z</time>
      </trkpt>
      <trkpt lat="43.55456" lon="1.28835">
        <ele>157.8</ele>
        <time>2024-07-09T15:28:27Z</time>
      </trkpt>
      <trkpt lat="43.55456" lon="1.28835">
        <ele>157.8</ele>
        <time>2024-07-09T15:28:28Z</time>
      </trkpt>
      <trkpt lat="43.55445" lon="1.28825">
        <ele>158</ele>
        <time>2024-07-09T15:28:29Z</time>
      </trkpt>
      <trkpt lat="43.5544" lon="1.2882">
        <ele>158</ele>
        <time>2024-07-09T15:28:30Z</time>
      </trkpt>
      <trkpt lat="43.55435" lon="1.28814">
        <ele>158</ele>
        <time>2024-07-09T15:28:31Z</time>
      </trkpt>
      <trkpt lat="43.5543" lon="1.28808">
        <ele>158</ele>
        <time>2024-07-09T15:28:32Z</time>
      </trkpt>
      <trkpt lat="43.5543" lon="1.28808">
        <ele>158</ele>
        <time>2024-07-09T15:28:33Z</time>
      </trkpt>
      <trkpt lat="43.5542" lon="1.28797">
        <ele>158</ele>
        <time>2024-07-09T15:28:34Z</time>
      </trkpt>
      <trkpt lat="43.5542" lon="1.28797">
        <ele>157.8</ele>
        <time>2024-07-09T15:28:35Z</time>
      </trkpt>
      <trkpt lat="43.5541" lon="1.28785">
        <ele>157.8</ele>
        <time>2024-07-09T15:28:36Z</time>
      </trkpt>
      <trkpt lat="43.55405" lon="1.2878">
        <ele>157.8</ele>
        <time>2024-07-09T15:28:37Z</time>
      </trkpt>
      <trkpt lat="43.55405" lon="1.2878">
        <ele>157.8</ele>
        <time>2024-07-09T15:28:38Z</time>
      </trkpt>
      <trkpt lat="43.55395" lon="1.28768">
        <ele>157.8</ele>
        <time>2024-07-09T15:28:39Z</time>
      </trkpt>
      <trkpt lat="43.5539" lon="1.28762">
        <ele>157.8</ele>
        <time>2024-07-09T15:28:40Z</time>
      </trkpt>
      <trkpt lat="43.55385" lon="1.28755">
        <ele>157.8</ele>
        <time>2024-07-09T15:28:41Z</time>
      </trkpt>
      <trkpt lat="43.5538" lon="1.28749">
        <ele>157.8</ele>
        <time>2024-07-09T15:28:42Z</time>
      </trkpt>
      <trkpt lat="43.55376" lon="1.28742">
        <ele>157.8</ele>
        <time>2024-07-09T15:28:43Z</time>
      </trkpt>
      <trkpt lat="43.55371" lon="1.28736">
        <ele>157.8</ele>
        <time>2024-07-09T15:28:44Z</time>
      </trkpt>
      <trkpt lat="43.55367" lon="1.28729">
        <ele>157.8</ele>
        <time>2024-07-09T15:28:45Z</time>
      </trkpt>
      <trkpt lat="43.55362" lon="1.28722">
        <ele>157.8</ele>
        <time>2024-07-09T15:28:46Z</time>
      </trkpt>
      <trkpt lat="43.55358" lon="1.28715">
        <ele>157.8</ele>
        <time>2024-07-09T15:28:47Z</time>
      </trkpt>
      <trkpt lat="43.55354" lon="1.28709">
        <ele>158</ele>
        <time>2024-07-09T15:28:48Z</time>
      </trkpt>
      <trkpt lat="43.55349" lon="1.28701">
        <ele>158</ele>
        <time>2024-07-09T15:28:49Z</time>
      </trkpt>
      <trkpt lat="43.55345" lon="1.28694">
        <ele>158</ele>
        <time>2024-07-09T15:28:50Z</time>
      </trkpt>
      <trkpt lat="43.55341" lon="1.28687">
        <ele>158</ele>
        <time>2024-07-09T15:28:51Z</time>
      </trkpt>
      <trkpt lat="43.55336" lon="1.2868">
        <ele>158</ele>
        <time>2024-07-09T15:28:52Z</time>
      </trkpt>
      <trkpt lat="43.55332" lon="1.28673">
        <ele>158</ele>
        <time>2024-07-09T15:28:53Z</time>
      </trkpt>
      <trkpt lat="43.55327" lon="1.28667">
        <ele>158</ele>
        <time>2024-07-09T15:28:54Z</time>
      </trkpt>
      <trkpt lat="43.55322" lon="1.2866">
        <ele>158</ele>
        <time>2024-07-09T15:28:55Z</time>
      </trkpt>
      <trkpt lat="43.55322" lon="1.2866">
        <ele>158</ele>
        <time>2024-07-09T15:28:56Z</time>
      </trkpt>
      <trkpt lat="43.55312" lon="1.28646">
        <ele>158</ele>
        <time>2024-07-09T15:28:57Z</time>
      </trkpt>
      <trkpt lat="43.55308" lon="1.2864">
        <ele>158</ele>
        <time>2024-07-09T15:28:58Z</time>
      </trkpt>
      <trkpt lat="43.55303" lon="1.28634">
        <ele>158</ele>
        <time>2024-07-09T15:28:59Z</time>
      </trkpt>
      <trkpt lat="43.55297" lon="1.28628">
        <ele>158</ele>
        <time>2024-07-09T15:29:00Z</time>
      </trkpt>
      <trkpt lat="43.55292" lon="1.28623">
        <ele>157.8</ele>
        <time>2024-07-09T15:29:01Z</time>
      </trkpt>
      <trkpt lat="43.55286" lon="1.28617">
        <ele>157.8</ele>
        <time>2024-07-09T15:29:02Z</time>
      </trkpt>
      <trkpt lat="43.55281" lon="1.28612">
        <ele>157.8</ele>
        <time>2024-07-09T15:29:03Z</time>
      </trkpt>
      <trkpt lat="43.55274" lon="1.28606">
        <ele>157.8</ele>
        <time>2024-07-09T15:29:04Z</time>
      </trkpt>
      <trkpt lat="43.55269" lon="1.28601">
        <ele>157.8</ele>
        <time>2024-07-09T15:29:05Z</time>
      </trkpt>
      <trkpt lat="43.55264" lon="1.28597">
        <ele>157.8</ele>
        <time>2024-07-09T15:29:06Z</time>
      </trkpt>
      <trkpt lat="43.55264" lon="1.28597">
        <ele>157.8</ele>
        <time>2024-07-09T15:29:07Z</time>
      </trkpt>
      <trkpt lat="43.55252" lon="1.28588">
        <ele>157.8</ele>
        <time>2024-07-09T15:29:08Z</time>
      </trkpt>
      <trkpt lat="43.55248" lon="1.28584">
        <ele>157.8</ele>
        <time>2024-07-09T15:29:09Z</time>
      </trkpt>
      <trkpt lat="43.55241" lon="1.28579">
        <ele>157.8</ele>
        <time>2024-07-09T15:29:10Z</time>
      </trkpt>
      <trkpt lat="43.55236" lon="1.28576">
        <ele>157.6</ele>
        <time>2024-07-09T15:29:11Z</time>
      </trkpt>
      <trkpt lat="43.55236" lon="1.28576">
        <ele>157.6</ele>
        <time>2024-07-09T15:29:12Z</time>
      </trkpt>
      <trkpt lat="43.55224" lon="1.28568">
        <ele>157.6</ele>
        <time>2024-07-09T15:29:13Z</time>
      </trkpt>
      <trkpt lat="43.55218" lon="1.28564">
        <ele>157.6</ele>
        <time>2024-07-09T15:29:14Z</time>
      </trkpt>
      <trkpt lat="43.55218" lon="1.28564">
        <ele>157.6</ele>
        <time>2024-07-09T15:29:15Z</time>
      </trkpt>
      <trkpt lat="43.55208" lon="1.28557">
        <ele>157.6</ele>
        <time>2024-07-09T15:29:16Z</time>
      </trkpt>
      <trkpt lat="43.55201" lon="1.28553">
        <ele>157.6</ele>
        <time>2024-07-09T15:29:17Z</time>
      </trkpt>
      <trkpt lat="43.55195" lon="1.2855">
        <ele>157.4</ele>
        <time>2024-07-09T15:29:18Z</time>
      </trkpt>
      <trkpt lat="43.55189" lon="1.28547">
        <ele>157.4</ele>
        <time>2024-07-09T15:29:19Z</time>
      </trkpt>
      <trkpt lat="43.55183" lon="1.28543">
        <ele>157.6</ele>
        <time>2024-07-09T15:29:20Z</time>
      </trkpt>
      <trkpt lat="43.55183" lon="1.28543">
        <ele>157.6</ele>
        <time>2024-07-09T15:29:21Z</time>
      </trkpt>
      <trkpt lat="43.55172" lon="1.28535">
        <ele>157.6</ele>
        <time>2024-07-09T15:29:22Z</time>
      </trkpt>
      <trkpt lat="43.55166" lon="1.28532">
        <ele>157.6</ele>
        <time>2024-07-09T15:29:23Z</time>
      </trkpt>
      <trkpt lat="43.55162" lon="1.28529">
        <ele>157.6</ele>
        <time>2024-07-09T15:29:24Z</time>
      </trkpt>
      <trkpt lat="43.55156" lon="1.28525">
        <ele>157.6</ele>
        <time>2024-07-09T15:29:25Z</time>
      </trkpt>
      <trkpt lat="43.55149" lon="1.2852">
        <ele>157.6</ele>
        <time>2024-07-09T15:29:26Z</time>
      </trkpt>
      <trkpt lat="43.55144" lon="1.28516">
        <ele>157.8</ele>
        <time>2024-07-09T15:29:27Z</time>
      </trkpt>
      <trkpt lat="43.55138" lon="1.28511">
        <ele>157.8</ele>
        <time>2024-07-09T15:29:28Z</time>
      </trkpt>
      <trkpt lat="43.55133" lon="1.28508">
        <ele>157.8</ele>
        <time>2024-07-09T15:29:29Z</time>
      </trkpt>
      <trkpt lat="43.55128" lon="1.28503">
        <ele>157.8</ele>
        <time>2024-07-09T15:29:30Z</time>
      </trkpt>
      <trkpt lat="43.55121" lon="1.28498">
        <ele>157.8</ele>
        <time>2024-07-09T15:29:31Z</time>
      </trkpt>
      <trkpt lat="43.55121" lon="1.28498">
        <ele>157.8</ele>
        <time>2024-07-09T15:29:32Z</time>
      </trkpt>
      <trkpt lat="43.5511" lon="1.28491">
        <ele>157.8</ele>
        <time>2024-07-09T15:29:33Z</time>
      </trkpt>
      <trkpt lat="43.55104" lon="1.28487">
        <ele>157.8</ele>
        <time>2024-07-09T15:29:34Z</time>
      </trkpt>
      <trkpt lat="43.55104" lon="1.28487">
        <ele>157.8</ele>
        <time>2024-07-09T15:29:35Z</time>
      </trkpt>
      <trkpt lat="43.55091" lon="1.28483">
        <ele>157.8</ele>
        <time>2024-07-09T15:29:36Z</time>
      </trkpt>
      <trkpt lat="43.55085" lon="1.28481">
        <ele>157.8</ele>
        <time>2024-07-09T15:29:37Z</time>
      </trkpt>
      <trkpt lat="43.55078" lon="1.2848">
        <ele>157.8</ele>
        <time>2024-07-09T15:29:38Z</time>
      </trkpt>
      <trkpt lat="43.55073" lon="1.2848">
        <ele>157.8</ele>
        <time>2024-07-09T15:29:39Z</time>
      </trkpt>
      <trkpt lat="43.55065" lon="1.28479">
        <ele>158</ele>
        <time>2024-07-09T15:29:40Z</time>
      </trkpt>
      <trkpt lat="43.55059" lon="1.28478">
        <ele>158</ele>
        <time>2024-07-09T15:29:41Z</time>
      </trkpt>
      <trkpt lat="43.55054" lon="1.28478">
        <ele>158</ele>
        <time>2024-07-09T15:29:42Z</time>
      </trkpt>
      <trkpt lat="43.55047" lon="1.28477">
        <ele>158</ele>
        <time>2024-07-09T15:29:43Z</time>
      </trkpt>
      <trkpt lat="43.55041" lon="1.28477">
        <ele>158</ele>
        <time>2024-07-09T15:29:44Z</time>
      </trkpt>
      <trkpt lat="43.55033" lon="1.28476">
        <ele>158</ele>
        <time>2024-07-09T15:29:45Z</time>
      </trkpt>
      <trkpt lat="43.55027" lon="1.28474">
        <ele>158.2</ele>
        <time>2024-07-09T15:29:46Z</time>
      </trkpt>
      <trkpt lat="43.55022" lon="1.28473">
        <ele>158.2</ele>
        <time>2024-07-09T15:29:47Z</time>
      </trkpt>
      <trkpt lat="43.55015" lon="1.28472">
        <ele>158.2</ele>
        <time>2024-07-09T15:29:48Z</time>
      </trkpt>
      <trkpt lat="43.55015" lon="1.28472">
        <ele>158.2</ele>
        <time>2024-07-09T15:29:49Z</time>
      </trkpt>
      <trkpt lat="43.55001" lon="1.28469">
        <ele>158.2</ele>
        <time>2024-07-09T15:29:50Z</time>
      </trkpt>
      <trkpt lat="43.54995" lon="1.28468">
        <ele>158.4</ele>
        <time>2024-07-09T15:29:51Z</time>
      </trkpt>
      <trkpt lat="43.5499" lon="1.28468">
        <ele>158.4</ele>
        <time>2024-07-09T15:29:52Z</time>
      </trkpt>
      <trkpt lat="43.54984" lon="1.28467">
        <ele>158.4</ele>
        <time>2024-07-09T15:29:53Z</time>
      </trkpt>
      <trkpt lat="43.54984" lon="1.28467">
        <ele>158.4</ele>
        <time>2024-07-09T15:29:54Z</time>
      </trkpt>
      <trkpt lat="43.54971" lon="1.28464">
        <ele>158.4</ele>
        <time>2024-07-09T15:29:55Z</time>
      </trkpt>
      <trkpt lat="43.54965" lon="1.28463">
        <ele>158.4</ele>
        <time>2024-07-09T15:29:56Z</time>
      </trkpt>
      <trkpt lat="43.54958" lon="1.28462">
        <ele>158.4</ele>
        <time>2024-07-09T15:29:57Z</time>
      </trkpt>
      <trkpt lat="43.54952" lon="1.28461">
        <ele>158.4</ele>
        <time>2024-07-09T15:29:58Z</time>
      </trkpt>
      <trkpt lat="43.54952" lon="1.28461">
        <ele>158.6</ele>
        <time>2024-07-09T15:29:59Z</time>
      </trkpt>
      <trkpt lat="43.54939" lon="1.28458">
        <ele>158.6</ele>
        <time>2024-07-09T15:30:00Z</time>
      </trkpt>
      <trkpt lat="43.54931" lon="1.28457">
        <ele>158.6</ele>
        <time>2024-07-09T15:30:01Z</time>
      </trkpt>
      <trkpt lat="43.54926" lon="1.28456">
        <ele>158.6</ele>
        <time>2024-07-09T15:30:02Z</time>
      </trkpt>
      <trkpt lat="43.54919" lon="1.28455">
        <ele>158.8</ele>
        <time>2024-07-09T15:30:03Z</time>
      </trkpt>
      <trkpt lat="43.54912" lon="1.28454">
        <ele>158.8</ele>
        <time>2024-07-09T15:30:04Z</time>
      </trkpt>
      <trkpt lat="43.54907" lon="1.28453">
        <ele>158.8</ele>
        <time>2024-07-09T15:30:05Z</time>
      </trkpt>
      <trkpt lat="43.549" lon="1.28451">
        <ele>158.8</ele>
        <time>2024-07-09T15:30:06Z</time>
      </trkpt>
      <trkpt lat="43.54895" lon="1.2845">
        <ele>158.8</ele>
        <time>2024-07-09T15:30:07Z</time>
      </trkpt>
      <trkpt lat="43.54889" lon="1.28449">
        <ele>158.8</ele>
        <time>2024-07-09T15:30:08Z</time>
      </trkpt>
      <trkpt lat="43.54883" lon="1.28448">
        <ele>159</ele>
        <time>2024-07-09T15:30:09Z</time>
      </trkpt>
      <trkpt lat="43.54875" lon="1.28446">
        <ele>158.8</ele>
        <time>2024-07-09T15:30:10Z</time>
      </trkpt>
      <trkpt lat="43.5487" lon="1.28445">
        <ele>158.8</ele>
        <time>2024-07-09T15:30:11Z</time>
      </trkpt>
      <trkpt lat="43.54864" lon="1.28444">
        <ele>158.8</ele>
        <time>2024-07-09T15:30:12Z</time>
      </trkpt>
      <trkpt lat="43.54864" lon="1.28444">
        <ele>158.8</ele>
        <time>2024-07-09T15:30:13Z</time>
      </trkpt>
      <trkpt lat="43.5485" lon="1.2844">
        <ele>158.8</ele>
        <time>2024-07-09T15:30:14Z</time>
      </trkpt>
      <trkpt lat="43.54843" lon="1.28438">
        <ele>158.8</ele>
        <time>2024-07-09T15:30:15Z</time>
      </trkpt>
      <trkpt lat="43.54838" lon="1.28437">
        <ele>158.8</ele>
        <time>2024-07-09T15:30:16Z</time>
      </trkpt>
      <trkpt lat="43.54832" lon="1.28435">
        <ele>158.8</ele>
        <time>2024-07-09T15:30:17Z</time>
      </trkpt>
      <trkpt lat="43.54832" lon="1.28435">
        <ele>158.8</ele>
        <time>2024-07-09T15:30:18Z</time>
      </trkpt>
      <trkpt lat="43.54819" lon="1.28431">
        <ele>158.8</ele>
        <time>2024-07-09T15:30:19Z</time>
      </trkpt>
      <trkpt lat="43.54812" lon="1.2843">
        <ele>158.8</ele>
        <time>2024-07-09T15:30:20Z</time>
      </trkpt>
      <trkpt lat="43.54807" lon="1.28428">
        <ele>158.8</ele>
        <time>2024-07-09T15:30:21Z</time>
      </trkpt>
      <trkpt lat="43.54801" lon="1.28427">
        <ele>158.8</ele>
        <time>2024-07-09T15:30:22Z</time>
      </trkpt>
      <trkpt lat="43.54794" lon="1.28425">
        <ele>158.8</ele>
        <time>2024-07-09T15:30:23Z</time>
      </trkpt>
      <trkpt lat="43.54788" lon="1.28424">
        <ele>158.8</ele>
        <time>2024-07-09T15:30:24Z</time>
      </trkpt>
      <trkpt lat="43.54781" lon="1.28423">
        <ele>158.8</ele>
        <time>2024-07-09T15:30:25Z</time>
      </trkpt>
      <trkpt lat="43.54775" lon="1.28422">
        <ele>158.8</ele>
        <time>2024-07-09T15:30:26Z</time>
      </trkpt>
      <trkpt lat="43.54768" lon="1.28421">
        <ele>158.8</ele>
        <time>2024-07-09T15:30:27Z</time>
      </trkpt>
      <trkpt lat="43.54762" lon="1.28419">
        <ele>158.8</ele>
        <time>2024-07-09T15:30:28Z</time>
      </trkpt>
      <trkpt lat="43.54755" lon="1.28418">
        <ele>158.8</ele>
        <time>2024-07-09T15:30:29Z</time>
      </trkpt>
      <trkpt lat="43.54748" lon="1.28416">
        <ele>158.8</ele>
        <time>2024-07-09T15:30:30Z</time>
      </trkpt>
      <trkpt lat="43.54741" lon="1.28415">
        <ele>158.8</ele>
        <time>2024-07-09T15:30:31Z</time>
      </trkpt>
      <trkpt lat="43.54735" lon="1.28414">
        <ele>158.8</ele>
        <time>2024-07-09T15:30:32Z</time>
      </trkpt>
      <trkpt lat="43.54729" lon="1.28412">
        <ele>158.8</ele>
        <time>2024-07-09T15:30:33Z</time>
      </trkpt>
      <trkpt lat="43.54723" lon="1.28411">
        <ele>158.8</ele>
        <time>2024-07-09T15:30:34Z</time>
      </trkpt>
      <trkpt lat="43.54716" lon="1.28409">
        <ele>158.8</ele>
        <time>2024-07-09T15:30:35Z</time>
      </trkpt>
      <trkpt lat="43.5471" lon="1.28407">
        <ele>158.8</ele>
        <time>2024-07-09T15:30:36Z</time>
      </trkpt>
      <trkpt lat="43.54703" lon="1.28405">
        <ele>158.8</ele>
        <time>2024-07-09T15:30:37Z</time>
      </trkpt>
      <trkpt lat="43.54697" lon="1.28402">
        <ele>158.8</ele>
        <time>2024-07-09T15:30:38Z</time>
      </trkpt>
      <trkpt lat="43.54691" lon="1.28399">
        <ele>158.6</ele>
        <time>2024-07-09T15:30:39Z</time>
      </trkpt>
      <trkpt lat="43.54685" lon="1.28396">
        <ele>158.6</ele>
        <time>2024-07-09T15:30:40Z</time>
      </trkpt>
      <trkpt lat="43.54679" lon="1.28392">
        <ele>158.6</ele>
        <time>2024-07-09T15:30:41Z</time>
      </trkpt>
      <trkpt lat="43.54673" lon="1.28388">
        <ele>158.6</ele>
        <time>2024-07-09T15:30:42Z</time>
      </trkpt>
      <trkpt lat="43.54673" lon="1.28388">
        <ele>158.6</ele>
        <time>2024-07-09T15:30:43Z</time>
      </trkpt>
      <trkpt lat="43.54661" lon="1.28381">
        <ele>158.6</ele>
        <time>2024-07-09T15:30:44Z</time>
      </trkpt>
      <trkpt lat="43.54655" lon="1.28377">
        <ele>158.6</ele>
        <time>2024-07-09T15:30:45Z</time>
      </trkpt>
      <trkpt lat="43.54649" lon="1.28373">
        <ele>158.4</ele>
        <time>2024-07-09T15:30:46Z</time>
      </trkpt>
      <trkpt lat="43.54643" lon="1.28368">
        <ele>158.4</ele>
        <time>2024-07-09T15:30:47Z</time>
      </trkpt>
      <trkpt lat="43.54638" lon="1.28362">
        <ele>158.2</ele>
        <time>2024-07-09T15:30:48Z</time>
      </trkpt>
      <trkpt lat="43.54633" lon="1.28356">
        <ele>158.2</ele>
        <time>2024-07-09T15:30:49Z</time>
      </trkpt>
      <trkpt lat="43.54628" lon="1.28349">
        <ele>158.2</ele>
        <time>2024-07-09T15:30:50Z</time>
      </trkpt>
      <trkpt lat="43.54624" lon="1.28342">
        <ele>158.2</ele>
        <time>2024-07-09T15:30:51Z</time>
      </trkpt>
      <trkpt lat="43.54619" lon="1.28335">
        <ele>158.2</ele>
        <time>2024-07-09T15:30:52Z</time>
      </trkpt>
      <trkpt lat="43.54615" lon="1.28327">
        <ele>158.2</ele>
        <time>2024-07-09T15:30:53Z</time>
      </trkpt>
      <trkpt lat="43.54611" lon="1.28319">
        <ele>158.4</ele>
        <time>2024-07-09T15:30:54Z</time>
      </trkpt>
      <trkpt lat="43.54607" lon="1.28312">
        <ele>158.4</ele>
        <time>2024-07-09T15:30:55Z</time>
      </trkpt>
      <trkpt lat="43.54603" lon="1.28305">
        <ele>158.4</ele>
        <time>2024-07-09T15:30:56Z</time>
      </trkpt>
      <trkpt lat="43.54598" lon="1.28297">
        <ele>158.4</ele>
        <time>2024-07-09T15:30:57Z</time>
      </trkpt>
      <trkpt lat="43.54594" lon="1.2829">
        <ele>158.4</ele>
        <time>2024-07-09T15:30:58Z</time>
      </trkpt>
      <trkpt lat="43.5459" lon="1.28282">
        <ele>158.4</ele>
        <time>2024-07-09T15:30:59Z</time>
      </trkpt>
      <trkpt lat="43.5459" lon="1.28282">
        <ele>158.4</ele>
        <time>2024-07-09T15:31:00Z</time>
      </trkpt>
      <trkpt lat="43.54581" lon="1.28267">
        <ele>158.4</ele>
        <time>2024-07-09T15:31:01Z</time>
      </trkpt>
      <trkpt lat="43.54581" lon="1.28267">
        <ele>158.4</ele>
        <time>2024-07-09T15:31:02Z</time>
      </trkpt>
      <trkpt lat="43.54576" lon="1.2826">
        <ele>158.4</ele>
        <time>2024-07-09T15:31:03Z</time>
      </trkpt>
      <trkpt lat="43.54567" lon="1.28245">
        <ele>158.4</ele>
        <time>2024-07-09T15:31:04Z</time>
      </trkpt>
      <trkpt lat="43.54562" lon="1.28238">
        <ele>158.2</ele>
        <time>2024-07-09T15:31:05Z</time>
      </trkpt>
      <trkpt lat="43.54562" lon="1.28238">
        <ele>158.2</ele>
        <time>2024-07-09T15:31:06Z</time>
      </trkpt>
      <trkpt lat="43.54553" lon="1.28224">
        <ele>158.2</ele>
        <time>2024-07-09T15:31:07Z</time>
      </trkpt>
      <trkpt lat="43.54553" lon="1.28224">
        <ele>158.2</ele>
        <time>2024-07-09T15:31:08Z</time>
      </trkpt>
      <trkpt lat="43.54544" lon="1.28211">
        <ele>158.2</ele>
        <time>2024-07-09T15:31:09Z</time>
      </trkpt>
      <trkpt lat="43.54544" lon="1.28211">
        <ele>158</ele>
        <time>2024-07-09T15:31:10Z</time>
      </trkpt>
      <trkpt lat="43.54534" lon="1.28197">
        <ele>158.2</ele>
        <time>2024-07-09T15:31:11Z</time>
      </trkpt>
      <trkpt lat="43.5453" lon="1.28191">
        <ele>158.2</ele>
        <time>2024-07-09T15:31:12Z</time>
      </trkpt>
      <trkpt lat="43.5453" lon="1.28191">
        <ele>158.2</ele>
        <time>2024-07-09T15:31:13Z</time>
      </trkpt>
      <trkpt lat="43.5452" lon="1.28177">
        <ele>158.2</ele>
        <time>2024-07-09T15:31:14Z</time>
      </trkpt>
      <trkpt lat="43.54515" lon="1.2817">
        <ele>158.2</ele>
        <time>2024-07-09T15:31:15Z</time>
      </trkpt>
      <trkpt lat="43.5451" lon="1.28164">
        <ele>158.2</ele>
        <time>2024-07-09T15:31:16Z</time>
      </trkpt>
      <trkpt lat="43.54505" lon="1.28157">
        <ele>158.2</ele>
        <time>2024-07-09T15:31:17Z</time>
      </trkpt>
      <trkpt lat="43.54505" lon="1.28157">
        <ele>158.4</ele>
        <time>2024-07-09T15:31:18Z</time>
      </trkpt>
      <trkpt lat="43.54495" lon="1.28143">
        <ele>158.4</ele>
        <time>2024-07-09T15:31:19Z</time>
      </trkpt>
      <trkpt lat="43.5449" lon="1.28136">
        <ele>158.4</ele>
        <time>2024-07-09T15:31:20Z</time>
      </trkpt>
      <trkpt lat="43.5449" lon="1.28136">
        <ele>158.4</ele>
        <time>2024-07-09T15:31:21Z</time>
      </trkpt>
      <trkpt lat="43.54481" lon="1.28122">
        <ele>158.4</ele>
        <time>2024-07-09T15:31:22Z</time>
      </trkpt>
      <trkpt lat="43.54481" lon="1.28122">
        <ele>158.6</ele>
        <time>2024-07-09T15:31:23Z</time>
      </trkpt>
      <trkpt lat="43.54471" lon="1.28108">
        <ele>158.6</ele>
        <time>2024-07-09T15:31:24Z</time>
      </trkpt>
      <trkpt lat="43.54466" lon="1.28102">
        <ele>158.6</ele>
        <time>2024-07-09T15:31:25Z</time>
      </trkpt>
      <trkpt lat="43.54461" lon="1.28095">
        <ele>158.6</ele>
        <time>2024-07-09T15:31:26Z</time>
      </trkpt>
      <trkpt lat="43.54461" lon="1.28095">
        <ele>158.6</ele>
        <time>2024-07-09T15:31:27Z</time>
      </trkpt>
      <trkpt lat="43.54456" lon="1.28088">
        <ele>158.6</ele>
        <time>2024-07-09T15:31:28Z</time>
      </trkpt>
      <trkpt lat="43.54447" lon="1.28073">
        <ele>158.6</ele>
        <time>2024-07-09T15:31:29Z</time>
      </trkpt>
      <trkpt lat="43.54443" lon="1.28066">
        <ele>158.6</ele>
        <time>2024-07-09T15:31:30Z</time>
      </trkpt>
      <trkpt lat="43.54438" lon="1.28058">
        <ele>158.6</ele>
        <time>2024-07-09T15:31:31Z</time>
      </trkpt>
      <trkpt lat="43.54434" lon="1.2805">
        <ele>158.6</ele>
        <time>2024-07-09T15:31:32Z</time>
      </trkpt>
      <trkpt lat="43.54434" lon="1.2805">
        <ele>158.6</ele>
        <time>2024-07-09T15:31:33Z</time>
      </trkpt>
      <trkpt lat="43.54425" lon="1.28035">
        <ele>158.6</ele>
        <time>2024-07-09T15:31:34Z</time>
      </trkpt>
      <trkpt lat="43.54421" lon="1.28027">
        <ele>158.6</ele>
        <time>2024-07-09T15:31:35Z</time>
      </trkpt>
      <trkpt lat="43.54421" lon="1.28027">
        <ele>158.6</ele>
        <time>2024-07-09T15:31:36Z</time>
      </trkpt>
      <trkpt lat="43.54413" lon="1.28012">
        <ele>158.6</ele>
        <time>2024-07-09T15:31:37Z</time>
      </trkpt>
      <trkpt lat="43.54413" lon="1.28012">
        <ele>158.6</ele>
        <time>2024-07-09T15:31:38Z</time>
      </trkpt>
      <trkpt lat="43.54405" lon="1.27996">
        <ele>158.6</ele>
        <time>2024-07-09T15:31:39Z</time>
      </trkpt>
      <trkpt lat="43.54401" lon="1.27989">
        <ele>158.6</ele>
        <time>2024-07-09T15:31:40Z</time>
      </trkpt>
      <trkpt lat="43.54397" lon="1.27981">
        <ele>158.6</ele>
        <time>2024-07-09T15:31:41Z</time>
      </trkpt>
      <trkpt lat="43.54393" lon="1.27973">
        <ele>158.6</ele>
        <time>2024-07-09T15:31:42Z</time>
      </trkpt>
      <trkpt lat="43.54393" lon="1.27973">
        <ele>158.6</ele>
        <time>2024-07-09T15:31:43Z</time>
      </trkpt>
      <trkpt lat="43.54385" lon="1.27957">
        <ele>158.8</ele>
        <time>2024-07-09T15:31:44Z</time>
      </trkpt>
      <trkpt lat="43.54381" lon="1.27949">
        <ele>158.8</ele>
        <time>2024-07-09T15:31:45Z</time>
      </trkpt>
      <trkpt lat="43.54381" lon="1.27949">
        <ele>158.8</ele>
        <time>2024-07-09T15:31:46Z</time>
      </trkpt>
      <trkpt lat="43.54374" lon="1.27933">
        <ele>158.8</ele>
        <time>2024-07-09T15:31:47Z</time>
      </trkpt>
      <trkpt lat="43.5437" lon="1.27926">
        <ele>158.8</ele>
        <time>2024-07-09T15:31:48Z</time>
      </trkpt>
      <trkpt lat="43.54366" lon="1.27918">
        <ele>158.8</ele>
        <time>2024-07-09T15:31:49Z</time>
      </trkpt>
      <trkpt lat="43.54363" lon="1.2791">
        <ele>158.8</ele>
        <time>2024-07-09T15:31:50Z</time>
      </trkpt>
      <trkpt lat="43.54359" lon="1.27902">
        <ele>158.8</ele>
        <time>2024-07-09T15:31:51Z</time>
      </trkpt>
      <trkpt lat="43.54355" lon="1.27894">
        <ele>158.8</ele>
        <time>2024-07-09T15:31:52Z</time>
      </trkpt>
      <trkpt lat="43.54351" lon="1.27885">
        <ele>159</ele>
        <time>2024-07-09T15:31:53Z</time>
      </trkpt>
      <trkpt lat="43.54347" lon="1.27877">
        <ele>159</ele>
        <time>2024-07-09T15:31:54Z</time>
      </trkpt>
      <trkpt lat="43.54347" lon="1.27877">
        <ele>159</ele>
        <time>2024-07-09T15:31:55Z</time>
      </trkpt>
      <trkpt lat="43.5434" lon="1.27861">
        <ele>159</ele>
        <time>2024-07-09T15:31:56Z</time>
      </trkpt>
      <trkpt lat="43.54336" lon="1.27853">
        <ele>159</ele>
        <time>2024-07-09T15:31:57Z</time>
      </trkpt>
      <trkpt lat="43.54333" lon="1.27845">
        <ele>159</ele>
        <time>2024-07-09T15:31:58Z</time>
      </trkpt>
      <trkpt lat="43.5433" lon="1.27837">
        <ele>159</ele>
        <time>2024-07-09T15:31:59Z</time>
      </trkpt>
      <trkpt lat="43.54326" lon="1.27829">
        <ele>159</ele>
        <time>2024-07-09T15:32:00Z</time>
      </trkpt>
      <trkpt lat="43.54323" lon="1.27821">
        <ele>159</ele>
        <time>2024-07-09T15:32:01Z</time>
      </trkpt>
      <trkpt lat="43.54319" lon="1.27813">
        <ele>159</ele>
        <time>2024-07-09T15:32:02Z</time>
      </trkpt>
      <trkpt lat="43.54319" lon="1.27813">
        <ele>159</ele>
        <time>2024-07-09T15:32:03Z</time>
      </trkpt>
      <trkpt lat="43.54313" lon="1.27798">
        <ele>159</ele>
        <time>2024-07-09T15:32:04Z</time>
      </trkpt>
      <trkpt lat="43.5431" lon="1.27791">
        <ele>159</ele>
        <time>2024-07-09T15:32:05Z</time>
      </trkpt>
      <trkpt lat="43.54307" lon="1.27783">
        <ele>159</ele>
        <time>2024-07-09T15:32:06Z</time>
      </trkpt>
      <trkpt lat="43.54305" lon="1.27775">
        <ele>159</ele>
        <time>2024-07-09T15:32:07Z</time>
      </trkpt>
      <trkpt lat="43.54303" lon="1.27767">
        <ele>159</ele>
        <time>2024-07-09T15:32:08Z</time>
      </trkpt>
      <trkpt lat="43.543" lon="1.27759">
        <ele>159</ele>
        <time>2024-07-09T15:32:09Z</time>
      </trkpt>
      <trkpt lat="43.54299" lon="1.27751">
        <ele>159.2</ele>
        <time>2024-07-09T15:32:10Z</time>
      </trkpt>
      <trkpt lat="43.54297" lon="1.27743">
        <ele>159.2</ele>
        <time>2024-07-09T15:32:11Z</time>
      </trkpt>
      <trkpt lat="43.54295" lon="1.27734">
        <ele>159.2</ele>
        <time>2024-07-09T15:32:12Z</time>
      </trkpt>
      <trkpt lat="43.54294" lon="1.27726">
        <ele>159.2</ele>
        <time>2024-07-09T15:32:13Z</time>
      </trkpt>
      <trkpt lat="43.54292" lon="1.27717">
        <ele>159.2</ele>
        <time>2024-07-09T15:32:14Z</time>
      </trkpt>
      <trkpt lat="43.54291" lon="1.27709">
        <ele>159.2</ele>
        <time>2024-07-09T15:32:15Z</time>
      </trkpt>
      <trkpt lat="43.54289" lon="1.277">
        <ele>159.2</ele>
        <time>2024-07-09T15:32:16Z</time>
      </trkpt>
      <trkpt lat="43.54288" lon="1.27692">
        <ele>159.2</ele>
        <time>2024-07-09T15:32:17Z</time>
      </trkpt>
      <trkpt lat="43.54286" lon="1.27683">
        <ele>159.2</ele>
        <time>2024-07-09T15:32:18Z</time>
      </trkpt>
      <trkpt lat="43.54286" lon="1.27683">
        <ele>159.2</ele>
        <time>2024-07-09T15:32:19Z</time>
      </trkpt>
      <trkpt lat="43.54283" lon="1.27666">
        <ele>159.2</ele>
        <time>2024-07-09T15:32:20Z</time>
      </trkpt>
      <trkpt lat="43.54282" lon="1.27657">
        <ele>159.2</ele>
        <time>2024-07-09T15:32:21Z</time>
      </trkpt>
      <trkpt lat="43.5428" lon="1.27648">
        <ele>159.2</ele>
        <time>2024-07-09T15:32:22Z</time>
      </trkpt>
      <trkpt lat="43.54279" lon="1.2764">
        <ele>159.2</ele>
        <time>2024-07-09T15:32:23Z</time>
      </trkpt>
      <trkpt lat="43.54277" lon="1.27631">
        <ele>159.2</ele>
        <time>2024-07-09T15:32:24Z</time>
      </trkpt>
      <trkpt lat="43.54276" lon="1.27622">
        <ele>159.4</ele>
        <time>2024-07-09T15:32:25Z</time>
      </trkpt>
      <trkpt lat="43.54275" lon="1.27614">
        <ele>159.4</ele>
        <time>2024-07-09T15:32:26Z</time>
      </trkpt>
      <trkpt lat="43.54273" lon="1.27605">
        <ele>159.6</ele>
        <time>2024-07-09T15:32:27Z</time>
      </trkpt>
      <trkpt lat="43.54273" lon="1.27605">
        <ele>159.6</ele>
        <time>2024-07-09T15:32:28Z</time>
      </trkpt>
      <trkpt lat="43.5427" lon="1.27589">
        <ele>159.6</ele>
        <time>2024-07-09T15:32:29Z</time>
      </trkpt>
      <trkpt lat="43.54269" lon="1.27581">
        <ele>159.8</ele>
        <time>2024-07-09T15:32:30Z</time>
      </trkpt>
      <trkpt lat="43.54267" lon="1.27573">
        <ele>159.8</ele>
        <time>2024-07-09T15:32:31Z</time>
      </trkpt>
      <trkpt lat="43.54265" lon="1.27565">
        <ele>159.8</ele>
        <time>2024-07-09T15:32:32Z</time>
      </trkpt>
      <trkpt lat="43.54263" lon="1.27557">
        <ele>159.8</ele>
        <time>2024-07-09T15:32:33Z</time>
      </trkpt>
      <trkpt lat="43.54261" lon="1.27549">
        <ele>159.8</ele>
        <time>2024-07-09T15:32:34Z</time>
      </trkpt>
      <trkpt lat="43.54261" lon="1.27549">
        <ele>159.8</ele>
        <time>2024-07-09T15:32:35Z</time>
      </trkpt>
      <trkpt lat="43.54261" lon="1.27533">
        <ele>159.8</ele>
        <time>2024-07-09T15:32:36Z</time>
      </trkpt>
      <trkpt lat="43.54264" lon="1.27526">
        <ele>159.8</ele>
        <time>2024-07-09T15:32:37Z</time>
      </trkpt>
      <trkpt lat="43.54268" lon="1.27519">
        <ele>159.8</ele>
        <time>2024-07-09T15:32:38Z</time>
      </trkpt>
      <trkpt lat="43.54272" lon="1.27513">
        <ele>159.8</ele>
        <time>2024-07-09T15:32:39Z</time>
      </trkpt>
      <trkpt lat="43.54276" lon="1.27507">
        <ele>160</ele>
        <time>2024-07-09T15:32:40Z</time>
      </trkpt>
      <trkpt lat="43.54281" lon="1.275">
        <ele>160</ele>
        <time>2024-07-09T15:32:41Z</time>
      </trkpt>
      <trkpt lat="43.54285" lon="1.27494">
        <ele>160</ele>
        <time>2024-07-09T15:32:42Z</time>
      </trkpt>
      <trkpt lat="43.5429" lon="1.27487">
        <ele>160</ele>
        <time>2024-07-09T15:32:43Z</time>
      </trkpt>
      <trkpt lat="43.54294" lon="1.27481">
        <ele>160</ele>
        <time>2024-07-09T15:32:44Z</time>
      </trkpt>
      <trkpt lat="43.54298" lon="1.27474">
        <ele>160</ele>
        <time>2024-07-09T15:32:45Z</time>
      </trkpt>
      <trkpt lat="43.54298" lon="1.27474">
        <ele>160</ele>
        <time>2024-07-09T15:32:46Z</time>
      </trkpt>
      <trkpt lat="43.54307" lon="1.2746">
        <ele>160.2</ele>
        <time>2024-07-09T15:32:47Z</time>
      </trkpt>
      <trkpt lat="43.54311" lon="1.27454">
        <ele>160.2</ele>
        <time>2024-07-09T15:32:48Z</time>
      </trkpt>
      <trkpt lat="43.54316" lon="1.27447">
        <ele>160.2</ele>
        <time>2024-07-09T15:32:49Z</time>
      </trkpt>
      <trkpt lat="43.5432" lon="1.2744">
        <ele>160.2</ele>
        <time>2024-07-09T15:32:50Z</time>
      </trkpt>
      <trkpt lat="43.54324" lon="1.27433">
        <ele>160.2</ele>
        <time>2024-07-09T15:32:51Z</time>
      </trkpt>
      <trkpt lat="43.54329" lon="1.27427">
        <ele>160.2</ele>
        <time>2024-07-09T15:32:52Z</time>
      </trkpt>
      <trkpt lat="43.54333" lon="1.2742">
        <ele>160.2</ele>
        <time>2024-07-09T15:32:53Z</time>
      </trkpt>
      <trkpt lat="43.54338" lon="1.27413">
        <ele>160.2</ele>
        <time>2024-07-09T15:32:54Z</time>
      </trkpt>
      <trkpt lat="43.54342" lon="1.27406">
        <ele>160.2</ele>
        <time>2024-07-09T15:32:55Z</time>
      </trkpt>
      <trkpt lat="43.54347" lon="1.274">
        <ele>160.2</ele>
        <time>2024-07-09T15:32:56Z</time>
      </trkpt>
      <trkpt lat="43.54351" lon="1.27393">
        <ele>160.2</ele>
        <time>2024-07-09T15:32:57Z</time>
      </trkpt>
      <trkpt lat="43.54355" lon="1.27386">
        <ele>160.2</ele>
        <time>2024-07-09T15:32:58Z</time>
      </trkpt>
      <trkpt lat="43.5436" lon="1.27378">
        <ele>160.2</ele>
        <time>2024-07-09T15:32:59Z</time>
      </trkpt>
      <trkpt lat="43.54365" lon="1.27371">
        <ele>160.2</ele>
        <time>2024-07-09T15:33:00Z</time>
      </trkpt>
      <trkpt lat="43.54369" lon="1.27364">
        <ele>160.2</ele>
        <time>2024-07-09T15:33:01Z</time>
      </trkpt>
      <trkpt lat="43.54369" lon="1.27364">
        <ele>160.2</ele>
        <time>2024-07-09T15:33:02Z</time>
      </trkpt>
      <trkpt lat="43.54378" lon="1.27349">
        <ele>160.2</ele>
        <time>2024-07-09T15:33:03Z</time>
      </trkpt>
      <trkpt lat="43.54383" lon="1.27342">
        <ele>160.2</ele>
        <time>2024-07-09T15:33:04Z</time>
      </trkpt>
      <trkpt lat="43.54388" lon="1.27334">
        <ele>160.2</ele>
        <time>2024-07-09T15:33:05Z</time>
      </trkpt>
      <trkpt lat="43.54392" lon="1.27327">
        <ele>160.4</ele>
        <time>2024-07-09T15:33:06Z</time>
      </trkpt>
      <trkpt lat="43.54397" lon="1.27319">
        <ele>160.4</ele>
        <time>2024-07-09T15:33:07Z</time>
      </trkpt>
      <trkpt lat="43.54402" lon="1.27312">
        <ele>160.4</ele>
        <time>2024-07-09T15:33:08Z</time>
      </trkpt>
      <trkpt lat="43.54407" lon="1.27305">
        <ele>160.4</ele>
        <time>2024-07-09T15:33:09Z</time>
      </trkpt>
      <trkpt lat="43.54411" lon="1.27298">
        <ele>160.4</ele>
        <time>2024-07-09T15:33:10Z</time>
      </trkpt>
      <trkpt lat="43.54416" lon="1.2729">
        <ele>160.4</ele>
        <time>2024-07-09T15:33:11Z</time>
      </trkpt>
      <trkpt lat="43.54421" lon="1.27283">
        <ele>160.4</ele>
        <time>2024-07-09T15:33:12Z</time>
      </trkpt>
      <trkpt lat="43.54426" lon="1.27275">
        <ele>160.4</ele>
        <time>2024-07-09T15:33:13Z</time>
      </trkpt>
      <trkpt lat="43.54431" lon="1.27268">
        <ele>160.2</ele>
        <time>2024-07-09T15:33:14Z</time>
      </trkpt>
      <trkpt lat="43.54436" lon="1.2726">
        <ele>160.2</ele>
        <time>2024-07-09T15:33:15Z</time>
      </trkpt>
      <trkpt lat="43.5444" lon="1.27252">
        <ele>160.2</ele>
        <time>2024-07-09T15:33:16Z</time>
      </trkpt>
      <trkpt lat="43.54445" lon="1.27245">
        <ele>160.2</ele>
        <time>2024-07-09T15:33:17Z</time>
      </trkpt>
      <trkpt lat="43.5445" lon="1.27237">
        <ele>160.2</ele>
        <time>2024-07-09T15:33:18Z</time>
      </trkpt>
      <trkpt lat="43.54455" lon="1.2723">
        <ele>160.2</ele>
        <time>2024-07-09T15:33:19Z</time>
      </trkpt>
      <trkpt lat="43.54459" lon="1.27222">
        <ele>160.2</ele>
        <time>2024-07-09T15:33:20Z</time>
      </trkpt>
      <trkpt lat="43.54464" lon="1.27215">
        <ele>160.4</ele>
        <time>2024-07-09T15:33:21Z</time>
      </trkpt>
      <trkpt lat="43.54469" lon="1.27207">
        <ele>160.4</ele>
        <time>2024-07-09T15:33:22Z</time>
      </trkpt>
      <trkpt lat="43.54474" lon="1.272">
        <ele>160.4</ele>
        <time>2024-07-09T15:33:23Z</time>
      </trkpt>
      <trkpt lat="43.54478" lon="1.27192">
        <ele>160.6</ele>
        <time>2024-07-09T15:33:24Z</time>
      </trkpt>
      <trkpt lat="43.54483" lon="1.27185">
        <ele>160.6</ele>
        <time>2024-07-09T15:33:25Z</time>
      </trkpt>
      <trkpt lat="43.54487" lon="1.27178">
        <ele>160.6</ele>
        <time>2024-07-09T15:33:26Z</time>
      </trkpt>
      <trkpt lat="43.54492" lon="1.2717">
        <ele>160.6</ele>
        <time>2024-07-09T15:33:27Z</time>
      </trkpt>
      <trkpt lat="43.54496" lon="1.27162">
        <ele>160.6</ele>
        <time>2024-07-09T15:33:28Z</time>
      </trkpt>
      <trkpt lat="43.545" lon="1.27154">
        <ele>160.8</ele>
        <time>2024-07-09T15:33:29Z</time>
      </trkpt>
      <trkpt lat="43.54505" lon="1.27146">
        <ele>160.6</ele>
        <time>2024-07-09T15:33:30Z</time>
      </trkpt>
      <trkpt lat="43.54509" lon="1.27138">
        <ele>160.6</ele>
        <time>2024-07-09T15:33:31Z</time>
      </trkpt>
      <trkpt lat="43.54513" lon="1.2713">
        <ele>160.6</ele>
        <time>2024-07-09T15:33:32Z</time>
      </trkpt>
      <trkpt lat="43.54518" lon="1.27122">
        <ele>160.6</ele>
        <time>2024-07-09T15:33:33Z</time>
      </trkpt>
      <trkpt lat="43.54518" lon="1.27122">
        <ele>160.8</ele>
        <time>2024-07-09T15:33:34Z</time>
      </trkpt>
      <trkpt lat="43.54526" lon="1.27105">
        <ele>160.8</ele>
        <time>2024-07-09T15:33:35Z</time>
      </trkpt>
      <trkpt lat="43.5453" lon="1.27097">
        <ele>160.8</ele>
        <time>2024-07-09T15:33:36Z</time>
      </trkpt>
      <trkpt lat="43.54535" lon="1.27089">
        <ele>160.8</ele>
        <time>2024-07-09T15:33:37Z</time>
      </trkpt>
      <trkpt lat="43.54539" lon="1.27081">
        <ele>160.8</ele>
        <time>2024-07-09T15:33:38Z</time>
      </trkpt>
      <trkpt lat="43.54543" lon="1.27073">
        <ele>160.8</ele>
        <time>2024-07-09T15:33:39Z</time>
      </trkpt>
      <trkpt lat="43.54547" lon="1.27065">
        <ele>160.8</ele>
        <time>2024-07-09T15:33:40Z</time>
      </trkpt>
      <trkpt lat="43.54551" lon="1.27057">
        <ele>160.8</ele>
        <time>2024-07-09T15:33:41Z</time>
      </trkpt>
      <trkpt lat="43.54555" lon="1.27048">
        <ele>160.8</ele>
        <time>2024-07-09T15:33:42Z</time>
      </trkpt>
      <trkpt lat="43.54559" lon="1.2704">
        <ele>160.8</ele>
        <time>2024-07-09T15:33:43Z</time>
      </trkpt>
      <trkpt lat="43.54562" lon="1.27032">
        <ele>160.8</ele>
        <time>2024-07-09T15:33:44Z</time>
      </trkpt>
      <trkpt lat="43.54566" lon="1.27025">
        <ele>160.8</ele>
        <time>2024-07-09T15:33:45Z</time>
      </trkpt>
      <trkpt lat="43.5457" lon="1.27017">
        <ele>160.8</ele>
        <time>2024-07-09T15:33:46Z</time>
      </trkpt>
      <trkpt lat="43.54574" lon="1.2701">
        <ele>160.8</ele>
        <time>2024-07-09T15:33:47Z</time>
      </trkpt>
      <trkpt lat="43.54578" lon="1.27002">
        <ele>160.8</ele>
        <time>2024-07-09T15:33:48Z</time>
      </trkpt>
      <trkpt lat="43.54582" lon="1.26995">
        <ele>160.8</ele>
        <time>2024-07-09T15:33:49Z</time>
      </trkpt>
      <trkpt lat="43.54586" lon="1.26988">
        <ele>160.8</ele>
        <time>2024-07-09T15:33:50Z</time>
      </trkpt>
      <trkpt lat="43.54586" lon="1.26988">
        <ele>160.6</ele>
        <time>2024-07-09T15:33:51Z</time>
      </trkpt>
      <trkpt lat="43.54595" lon="1.26973">
        <ele>160.6</ele>
        <time>2024-07-09T15:33:52Z</time>
      </trkpt>
      <trkpt lat="43.54598" lon="1.26967">
        <ele>160.6</ele>
        <time>2024-07-09T15:33:53Z</time>
      </trkpt>
      <trkpt lat="43.54601" lon="1.26961">
        <ele>160.6</ele>
        <time>2024-07-09T15:33:54Z</time>
      </trkpt>
      <trkpt lat="43.54606" lon="1.26953">
        <ele>161</ele>
        <time>2024-07-09T15:33:55Z</time>
      </trkpt>
      <trkpt lat="43.54609" lon="1.26946">
        <ele>160.8</ele>
        <time>2024-07-09T15:33:56Z</time>
      </trkpt>
      <trkpt lat="43.54612" lon="1.26941">
        <ele>160.8</ele>
        <time>2024-07-09T15:33:57Z</time>
      </trkpt>
      <trkpt lat="43.54613" lon="1.26935">
        <ele>160.8</ele>
        <time>2024-07-09T15:33:58Z</time>
      </trkpt>
      <trkpt lat="43.54612" lon="1.2693">
        <ele>160.8</ele>
        <time>2024-07-09T15:33:59Z</time>
      </trkpt>
      <trkpt lat="43.5461" lon="1.26925">
        <ele>160.8</ele>
        <time>2024-07-09T15:34:00Z</time>
      </trkpt>
      <trkpt lat="43.54608" lon="1.26921">
        <ele>160.8</ele>
        <time>2024-07-09T15:34:01Z</time>
      </trkpt>
      <trkpt lat="43.54607" lon="1.26917">
        <ele>161</ele>
        <time>2024-07-09T15:34:02Z</time>
      </trkpt>
      <trkpt lat="43.54608" lon="1.26915">
        <ele>161</ele>
        <time>2024-07-09T15:34:03Z</time>
      </trkpt>
      <trkpt lat="43.54609" lon="1.26914">
        <ele>161</ele>
        <time>2024-07-09T15:34:04Z</time>
      </trkpt>
      <trkpt lat="43.54612" lon="1.26914">
        <ele>161</ele>
        <time>2024-07-09T15:34:05Z</time>
      </trkpt>
      <trkpt lat="43.54615" lon="1.26914">
        <ele>161</ele>
        <time>2024-07-09T15:34:06Z</time>
      </trkpt>
      <trkpt lat="43.54618" lon="1.26914">
        <ele>161</ele>
        <time>2024-07-09T15:34:07Z</time>
      </trkpt>
      <trkpt lat="43.54621" lon="1.26913">
        <ele>161</ele>
        <time>2024-07-09T15:34:08Z</time>
      </trkpt>
      <trkpt lat="43.54625" lon="1.26913">
        <ele>161</ele>
        <time>2024-07-09T15:34:09Z</time>
      </trkpt>
      <trkpt lat="43.5463" lon="1.26912">
        <ele>161</ele>
        <time>2024-07-09T15:34:10Z</time>
      </trkpt>
      <trkpt lat="43.54634" lon="1.26912">
        <ele>161</ele>
        <time>2024-07-09T15:34:11Z</time>
      </trkpt>
      <trkpt lat="43.5464" lon="1.26912">
        <ele>161</ele>
        <time>2024-07-09T15:34:12Z</time>
      </trkpt>
      <trkpt lat="43.54643" lon="1.26911">
        <ele>161</ele>
        <time>2024-07-09T15:34:13Z</time>
      </trkpt>
      <trkpt lat="43.54647" lon="1.26907">
        <ele>161</ele>
        <time>2024-07-09T15:34:14Z</time>
      </trkpt>
      <trkpt lat="43.5465" lon="1.26902">
        <ele>161</ele>
        <time>2024-07-09T15:34:15Z</time>
      </trkpt>
      <trkpt lat="43.54652" lon="1.26897">
        <ele>161</ele>
        <time>2024-07-09T15:34:16Z</time>
      </trkpt>
      <trkpt lat="43.54654" lon="1.26892">
        <ele>160.8</ele>
        <time>2024-07-09T15:34:17Z</time>
      </trkpt>
      <trkpt lat="43.54656" lon="1.26887">
        <ele>160.8</ele>
        <time>2024-07-09T15:34:18Z</time>
      </trkpt>
      <trkpt lat="43.54656" lon="1.26887">
        <ele>160.8</ele>
        <time>2024-07-09T15:34:19Z</time>
      </trkpt>
      <trkpt lat="43.5466" lon="1.2688">
        <ele>160.8</ele>
        <time>2024-07-09T15:34:20Z</time>
      </trkpt>
      <trkpt lat="43.54661" lon="1.26876">
        <ele>160.8</ele>
        <time>2024-07-09T15:34:21Z</time>
      </trkpt>
      <trkpt lat="43.54663" lon="1.26872">
        <ele>160.8</ele>
        <time>2024-07-09T15:34:22Z</time>
      </trkpt>
      <trkpt lat="43.54666" lon="1.26868">
        <ele>160.8</ele>
        <time>2024-07-09T15:34:23Z</time>
      </trkpt>
      <trkpt lat="43.54669" lon="1.26863">
        <ele>160.8</ele>
        <time>2024-07-09T15:34:24Z</time>
      </trkpt>
      <trkpt lat="43.54673" lon="1.26858">
        <ele>160.8</ele>
        <time>2024-07-09T15:34:25Z</time>
      </trkpt>
      <trkpt lat="43.54677" lon="1.26853">
        <ele>160.8</ele>
        <time>2024-07-09T15:34:26Z</time>
      </trkpt>
      <trkpt lat="43.54679" lon="1.26848">
        <ele>160.8</ele>
        <time>2024-07-09T15:34:27Z</time>
      </trkpt>
      <trkpt lat="43.5468" lon="1.26843">
        <ele>160.6</ele>
        <time>2024-07-09T15:34:28Z</time>
      </trkpt>
      <trkpt lat="43.54683" lon="1.26838">
        <ele>160.6</ele>
        <time>2024-07-09T15:34:29Z</time>
      </trkpt>
      <trkpt lat="43.54685" lon="1.26834">
        <ele>160.4</ele>
        <time>2024-07-09T15:34:30Z</time>
      </trkpt>
      <trkpt lat="43.54688" lon="1.26829">
        <ele>160.4</ele>
        <time>2024-07-09T15:34:31Z</time>
      </trkpt>
      <trkpt lat="43.54691" lon="1.26822">
        <ele>160.4</ele>
        <time>2024-07-09T15:34:32Z</time>
      </trkpt>
      <trkpt lat="43.54694" lon="1.26816">
        <ele>160.2</ele>
        <time>2024-07-09T15:34:33Z</time>
      </trkpt>
      <trkpt lat="43.54697" lon="1.26809">
        <ele>160.2</ele>
        <time>2024-07-09T15:34:34Z</time>
      </trkpt>
      <trkpt lat="43.54699" lon="1.26804">
        <ele>160.4</ele>
        <time>2024-07-09T15:34:35Z</time>
      </trkpt>
      <trkpt lat="43.54701" lon="1.268">
        <ele>160.4</ele>
        <time>2024-07-09T15:34:36Z</time>
      </trkpt>
      <trkpt lat="43.54705" lon="1.26794">
        <ele>160.4</ele>
        <time>2024-07-09T15:34:37Z</time>
      </trkpt>
      <trkpt lat="43.54708" lon="1.26788">
        <ele>160.4</ele>
        <time>2024-07-09T15:34:38Z</time>
      </trkpt>
      <trkpt lat="43.54711" lon="1.26783">
        <ele>160.4</ele>
        <time>2024-07-09T15:34:39Z</time>
      </trkpt>
      <trkpt lat="43.54714" lon="1.26778">
        <ele>160.6</ele>
        <time>2024-07-09T15:34:40Z</time>
      </trkpt>
      <trkpt lat="43.54716" lon="1.26773">
        <ele>160.6</ele>
        <time>2024-07-09T15:34:41Z</time>
      </trkpt>
      <trkpt lat="43.54716" lon="1.26768">
        <ele>160.8</ele>
        <time>2024-07-09T15:34:42Z</time>
      </trkpt>
      <trkpt lat="43.54715" lon="1.26763">
        <ele>160.8</ele>
        <time>2024-07-09T15:34:43Z</time>
      </trkpt>
      <trkpt lat="43.54713" lon="1.26758">
        <ele>160.8</ele>
        <time>2024-07-09T15:34:44Z</time>
      </trkpt>
      <trkpt lat="43.5471" lon="1.2675">
        <ele>160.8</ele>
        <time>2024-07-09T15:34:45Z</time>
      </trkpt>
      <trkpt lat="43.54709" lon="1.26744">
        <ele>160.8</ele>
        <time>2024-07-09T15:34:46Z</time>
      </trkpt>
      <trkpt lat="43.54709" lon="1.26744">
        <ele>160.8</ele>
        <time>2024-07-09T15:34:47Z</time>
      </trkpt>
      <trkpt lat="43.54708" lon="1.26736">
        <ele>160.8</ele>
        <time>2024-07-09T15:34:48Z</time>
      </trkpt>
      <trkpt lat="43.54705" lon="1.26721">
        <ele>160.8</ele>
        <time>2024-07-09T15:34:49Z</time>
      </trkpt>
      <trkpt lat="43.54703" lon="1.26713">
        <ele>160.8</ele>
        <time>2024-07-09T15:34:50Z</time>
      </trkpt>
      <trkpt lat="43.54701" lon="1.26706">
        <ele>160.8</ele>
        <time>2024-07-09T15:34:51Z</time>
      </trkpt>
      <trkpt lat="43.547" lon="1.26698">
        <ele>160.8</ele>
        <time>2024-07-09T15:34:52Z</time>
      </trkpt>
      <trkpt lat="43.54698" lon="1.2669">
        <ele>160.8</ele>
        <time>2024-07-09T15:34:53Z</time>
      </trkpt>
      <trkpt lat="43.54698" lon="1.2669">
        <ele>160.8</ele>
        <time>2024-07-09T15:34:54Z</time>
      </trkpt>
      <trkpt lat="43.54697" lon="1.26682">
        <ele>160.8</ele>
        <time>2024-07-09T15:34:55Z</time>
      </trkpt>
      <trkpt lat="43.54696" lon="1.26676">
        <ele>161</ele>
        <time>2024-07-09T15:34:56Z</time>
      </trkpt>
      <trkpt lat="43.54693" lon="1.2666">
        <ele>161</ele>
        <time>2024-07-09T15:34:57Z</time>
      </trkpt>
      <trkpt lat="43.54692" lon="1.26651">
        <ele>161</ele>
        <time>2024-07-09T15:34:58Z</time>
      </trkpt>
      <trkpt lat="43.54692" lon="1.26651">
        <ele>161</ele>
        <time>2024-07-09T15:34:59Z</time>
      </trkpt>
      <trkpt lat="43.54691" lon="1.26642">
        <ele>161</ele>
        <time>2024-07-09T15:35:00Z</time>
      </trkpt>
      <trkpt lat="43.5469" lon="1.26636">
        <ele>161</ele>
        <time>2024-07-09T15:35:01Z</time>
      </trkpt>
      <trkpt lat="43.54688" lon="1.2662">
        <ele>161.2</ele>
        <time>2024-07-09T15:35:02Z</time>
      </trkpt>
      <trkpt lat="43.54688" lon="1.2662">
        <ele>161.2</ele>
        <time>2024-07-09T15:35:03Z</time>
      </trkpt>
      <trkpt lat="43.54686" lon="1.26601">
        <ele>161.2</ele>
        <time>2024-07-09T15:35:04Z</time>
      </trkpt>
      <trkpt lat="43.54686" lon="1.26601">
        <ele>161.2</ele>
        <time>2024-07-09T15:35:05Z</time>
      </trkpt>
      <trkpt lat="43.54685" lon="1.26592">
        <ele>161.2</ele>
        <time>2024-07-09T15:35:06Z</time>
      </trkpt>
      <trkpt lat="43.54685" lon="1.26586">
        <ele>161.2</ele>
        <time>2024-07-09T15:35:07Z</time>
      </trkpt>
      <trkpt lat="43.54684" lon="1.26577">
        <ele>161.2</ele>
        <time>2024-07-09T15:35:08Z</time>
      </trkpt>
      <trkpt lat="43.54682" lon="1.26558">
        <ele>161.2</ele>
        <time>2024-07-09T15:35:09Z</time>
      </trkpt>
      <trkpt lat="43.54682" lon="1.26558">
        <ele>161.2</ele>
        <time>2024-07-09T15:35:10Z</time>
      </trkpt>
      <trkpt lat="43.54681" lon="1.2655">
        <ele>161.2</ele>
        <time>2024-07-09T15:35:11Z</time>
      </trkpt>
      <trkpt lat="43.54681" lon="1.26542">
        <ele>161.2</ele>
        <time>2024-07-09T15:35:12Z</time>
      </trkpt>
      <trkpt lat="43.54682" lon="1.26534">
        <ele>161.2</ele>
        <time>2024-07-09T15:35:13Z</time>
      </trkpt>
      <trkpt lat="43.54683" lon="1.26514">
        <ele>161.2</ele>
        <time>2024-07-09T15:35:14Z</time>
      </trkpt>
      <trkpt lat="43.54683" lon="1.26514">
        <ele>161.2</ele>
        <time>2024-07-09T15:35:15Z</time>
      </trkpt>
      <trkpt lat="43.54684" lon="1.26505">
        <ele>161.2</ele>
        <time>2024-07-09T15:35:16Z</time>
      </trkpt>
      <trkpt lat="43.54683" lon="1.26498">
        <ele>161.2</ele>
        <time>2024-07-09T15:35:17Z</time>
      </trkpt>
      <trkpt lat="43.54681" lon="1.2649">
        <ele>161.2</ele>
        <time>2024-07-09T15:35:18Z</time>
      </trkpt>
      <trkpt lat="43.54673" lon="1.26474">
        <ele>161.2</ele>
        <time>2024-07-09T15:35:19Z</time>
      </trkpt>
      <trkpt lat="43.54673" lon="1.26474">
        <ele>161.2</ele>
        <time>2024-07-09T15:35:20Z</time>
      </trkpt>
      <trkpt lat="43.54668" lon="1.2647">
        <ele>161.2</ele>
        <time>2024-07-09T15:35:21Z</time>
      </trkpt>
      <trkpt lat="43.54663" lon="1.26466">
        <ele>161.2</ele>
        <time>2024-07-09T15:35:22Z</time>
      </trkpt>
      <trkpt lat="43.54658" lon="1.26463">
        <ele>161</ele>
        <time>2024-07-09T15:35:23Z</time>
      </trkpt>
      <trkpt lat="43.54646" lon="1.26453">
        <ele>161</ele>
        <time>2024-07-09T15:35:24Z</time>
      </trkpt>
      <trkpt lat="43.54646" lon="1.26453">
        <ele>160.8</ele>
        <time>2024-07-09T15:35:25Z</time>
      </trkpt>
      <trkpt lat="43.54642" lon="1.26447">
        <ele>160.6</ele>
        <time>2024-07-09T15:35:26Z</time>
      </trkpt>
      <trkpt lat="43.54638" lon="1.26442">
        <ele>160.6</ele>
        <time>2024-07-09T15:35:27Z</time>
      </trkpt>
      <trkpt lat="43.5463" lon="1.26428">
        <ele>160.8</ele>
        <time>2024-07-09T15:35:28Z</time>
      </trkpt>
      <trkpt lat="43.54625" lon="1.2642">
        <ele>160.8</ele>
        <time>2024-07-09T15:35:29Z</time>
      </trkpt>
      <trkpt lat="43.54625" lon="1.2642">
        <ele>160.8</ele>
        <time>2024-07-09T15:35:30Z</time>
      </trkpt>
      <trkpt lat="43.54621" lon="1.26413">
        <ele>160.8</ele>
        <time>2024-07-09T15:35:31Z</time>
      </trkpt>
      <trkpt lat="43.54617" lon="1.26409">
        <ele>160.8</ele>
        <time>2024-07-09T15:35:32Z</time>
      </trkpt>
      <trkpt lat="43.54607" lon="1.26397">
        <ele>160.8</ele>
        <time>2024-07-09T15:35:33Z</time>
      </trkpt>
      <trkpt lat="43.54601" lon="1.2639">
        <ele>160.6</ele>
        <time>2024-07-09T15:35:34Z</time>
      </trkpt>
      <trkpt lat="43.54601" lon="1.2639">
        <ele>160.8</ele>
        <time>2024-07-09T15:35:35Z</time>
      </trkpt>
      <trkpt lat="43.54596" lon="1.26385">
        <ele>160.8</ele>
        <time>2024-07-09T15:35:36Z</time>
      </trkpt>
      <trkpt lat="43.54592" lon="1.2638">
        <ele>161</ele>
        <time>2024-07-09T15:35:37Z</time>
      </trkpt>
      <trkpt lat="43.54587" lon="1.26365">
        <ele>161</ele>
        <time>2024-07-09T15:35:38Z</time>
      </trkpt>
      <trkpt lat="43.54588" lon="1.26354">
        <ele>161.2</ele>
        <time>2024-07-09T15:35:39Z</time>
      </trkpt>
      <trkpt lat="43.54588" lon="1.26354">
        <ele>161.2</ele>
        <time>2024-07-09T15:35:40Z</time>
      </trkpt>
      <trkpt lat="43.5459" lon="1.26346">
        <ele>161.4</ele>
        <time>2024-07-09T15:35:41Z</time>
      </trkpt>
      <trkpt lat="43.54592" lon="1.2634">
        <ele>161.4</ele>
        <time>2024-07-09T15:35:42Z</time>
      </trkpt>
      <trkpt lat="43.54596" lon="1.26323">
        <ele>161.4</ele>
        <time>2024-07-09T15:35:43Z</time>
      </trkpt>
      <trkpt lat="43.54598" lon="1.26312">
        <ele>161.4</ele>
        <time>2024-07-09T15:35:44Z</time>
      </trkpt>
      <trkpt lat="43.54598" lon="1.26312">
        <ele>161.6</ele>
        <time>2024-07-09T15:35:45Z</time>
      </trkpt>
      <trkpt lat="43.546" lon="1.26303">
        <ele>161.6</ele>
        <time>2024-07-09T15:35:46Z</time>
      </trkpt>
      <trkpt lat="43.54602" lon="1.26295">
        <ele>161.6</ele>
        <time>2024-07-09T15:35:47Z</time>
      </trkpt>
      <trkpt lat="43.54604" lon="1.26279">
        <ele>161.6</ele>
        <time>2024-07-09T15:35:48Z</time>
      </trkpt>
      <trkpt lat="43.54604" lon="1.26279">
        <ele>161.6</ele>
        <time>2024-07-09T15:35:49Z</time>
      </trkpt>
      <trkpt lat="43.54608" lon="1.26259">
        <ele>161.6</ele>
        <time>2024-07-09T15:35:50Z</time>
      </trkpt>
      <trkpt lat="43.54608" lon="1.26259">
        <ele>161.6</ele>
        <time>2024-07-09T15:35:51Z</time>
      </trkpt>
      <trkpt lat="43.5461" lon="1.2625">
        <ele>161.6</ele>
        <time>2024-07-09T15:35:52Z</time>
      </trkpt>
      <trkpt lat="43.54611" lon="1.26243">
        <ele>161.6</ele>
        <time>2024-07-09T15:35:53Z</time>
      </trkpt>
      <trkpt lat="43.54613" lon="1.26234">
        <ele>161.6</ele>
        <time>2024-07-09T15:35:54Z</time>
      </trkpt>
      <trkpt lat="43.54616" lon="1.26215">
        <ele>161.6</ele>
        <time>2024-07-09T15:35:55Z</time>
      </trkpt>
      <trkpt lat="43.54616" lon="1.26215">
        <ele>161.6</ele>
        <time>2024-07-09T15:35:56Z</time>
      </trkpt>
      <trkpt lat="43.54618" lon="1.26206">
        <ele>161.6</ele>
        <time>2024-07-09T15:35:57Z</time>
      </trkpt>
      <trkpt lat="43.5462" lon="1.26199">
        <ele>161.6</ele>
        <time>2024-07-09T15:35:58Z</time>
      </trkpt>
      <trkpt lat="43.54621" lon="1.2619">
        <ele>161.6</ele>
        <time>2024-07-09T15:35:59Z</time>
      </trkpt>
      <trkpt lat="43.54623" lon="1.26171">
        <ele>161.4</ele>
        <time>2024-07-09T15:36:00Z</time>
      </trkpt>
      <trkpt lat="43.54623" lon="1.26171">
        <ele>161.4</ele>
        <time>2024-07-09T15:36:01Z</time>
      </trkpt>
      <trkpt lat="43.54623" lon="1.26162">
        <ele>161.4</ele>
        <time>2024-07-09T15:36:02Z</time>
      </trkpt>
      <trkpt lat="43.54623" lon="1.26155">
        <ele>161.4</ele>
        <time>2024-07-09T15:36:03Z</time>
      </trkpt>
      <trkpt lat="43.54622" lon="1.26145">
        <ele>161.4</ele>
        <time>2024-07-09T15:36:04Z</time>
      </trkpt>
      <trkpt lat="43.54622" lon="1.26124">
        <ele>161.4</ele>
        <time>2024-07-09T15:36:05Z</time>
      </trkpt>
      <trkpt lat="43.54622" lon="1.26124">
        <ele>161.4</ele>
        <time>2024-07-09T15:36:06Z</time>
      </trkpt>
      <trkpt lat="43.54621" lon="1.26115">
        <ele>161.4</ele>
        <time>2024-07-09T15:36:07Z</time>
      </trkpt>
      <trkpt lat="43.54622" lon="1.26108">
        <ele>161.4</ele>
        <time>2024-07-09T15:36:08Z</time>
      </trkpt>
      <trkpt lat="43.54622" lon="1.26089">
        <ele>161.6</ele>
        <time>2024-07-09T15:36:09Z</time>
      </trkpt>
      <trkpt lat="43.54623" lon="1.26078">
        <ele>161.6</ele>
        <time>2024-07-09T15:36:10Z</time>
      </trkpt>
      <trkpt lat="43.54623" lon="1.26078">
        <ele>161.6</ele>
        <time>2024-07-09T15:36:11Z</time>
      </trkpt>
      <trkpt lat="43.54623" lon="1.26069">
        <ele>161.6</ele>
        <time>2024-07-09T15:36:12Z</time>
      </trkpt>
      <trkpt lat="43.54623" lon="1.26061">
        <ele>161.4</ele>
        <time>2024-07-09T15:36:13Z</time>
      </trkpt>
      <trkpt lat="43.54622" lon="1.26043">
        <ele>161.4</ele>
        <time>2024-07-09T15:36:14Z</time>
      </trkpt>
      <trkpt lat="43.54622" lon="1.26032">
        <ele>161.4</ele>
        <time>2024-07-09T15:36:15Z</time>
      </trkpt>
      <trkpt lat="43.54622" lon="1.26023">
        <ele>161.4</ele>
        <time>2024-07-09T15:36:16Z</time>
      </trkpt>
      <trkpt lat="43.54623" lon="1.26013">
        <ele>161.4</ele>
        <time>2024-07-09T15:36:17Z</time>
      </trkpt>
      <trkpt lat="43.54624" lon="1.26005">
        <ele>161.4</ele>
        <time>2024-07-09T15:36:18Z</time>
      </trkpt>
      <trkpt lat="43.54625" lon="1.25995">
        <ele>161.4</ele>
        <time>2024-07-09T15:36:19Z</time>
      </trkpt>
      <trkpt lat="43.54625" lon="1.25995">
        <ele>161.4</ele>
        <time>2024-07-09T15:36:20Z</time>
      </trkpt>
      <trkpt lat="43.54624" lon="1.25977">
        <ele>161.4</ele>
        <time>2024-07-09T15:36:21Z</time>
      </trkpt>
      <trkpt lat="43.54623" lon="1.25968">
        <ele>161.4</ele>
        <time>2024-07-09T15:36:22Z</time>
      </trkpt>
      <trkpt lat="43.54622" lon="1.25959">
        <ele>161.4</ele>
        <time>2024-07-09T15:36:23Z</time>
      </trkpt>
      <trkpt lat="43.54621" lon="1.2595">
        <ele>161.4</ele>
        <time>2024-07-09T15:36:24Z</time>
      </trkpt>
      <trkpt lat="43.54621" lon="1.2595">
        <ele>161.4</ele>
        <time>2024-07-09T15:36:25Z</time>
      </trkpt>
      <trkpt lat="43.54617" lon="1.25933">
        <ele>161.4</ele>
        <time>2024-07-09T15:36:26Z</time>
      </trkpt>
      <trkpt lat="43.54615" lon="1.25923">
        <ele>161.4</ele>
        <time>2024-07-09T15:36:27Z</time>
      </trkpt>
      <trkpt lat="43.54614" lon="1.25914">
        <ele>161.4</ele>
        <time>2024-07-09T15:36:28Z</time>
      </trkpt>
      <trkpt lat="43.54613" lon="1.25905">
        <ele>161.4</ele>
        <time>2024-07-09T15:36:29Z</time>
      </trkpt>
      <trkpt lat="43.54612" lon="1.25896">
        <ele>161.4</ele>
        <time>2024-07-09T15:36:30Z</time>
      </trkpt>
      <trkpt lat="43.54612" lon="1.25887">
        <ele>161.4</ele>
        <time>2024-07-09T15:36:31Z</time>
      </trkpt>
      <trkpt lat="43.54612" lon="1.25878">
        <ele>161.4</ele>
        <time>2024-07-09T15:36:32Z</time>
      </trkpt>
      <trkpt lat="43.54613" lon="1.25869">
        <ele>161.4</ele>
        <time>2024-07-09T15:36:33Z</time>
      </trkpt>
      <trkpt lat="43.54613" lon="1.2586">
        <ele>161.4</ele>
        <time>2024-07-09T15:36:34Z</time>
      </trkpt>
      <trkpt lat="43.54615" lon="1.25851">
        <ele>161.4</ele>
        <time>2024-07-09T15:36:35Z</time>
      </trkpt>
      <trkpt lat="43.54617" lon="1.25842">
        <ele>161.4</ele>
        <time>2024-07-09T15:36:36Z</time>
      </trkpt>
      <trkpt lat="43.54618" lon="1.25833">
        <ele>161.4</ele>
        <time>2024-07-09T15:36:37Z</time>
      </trkpt>
      <trkpt lat="43.54619" lon="1.25824">
        <ele>161.4</ele>
        <time>2024-07-09T15:36:38Z</time>
      </trkpt>
      <trkpt lat="43.5462" lon="1.25815">
        <ele>161.4</ele>
        <time>2024-07-09T15:36:39Z</time>
      </trkpt>
      <trkpt lat="43.54621" lon="1.25807">
        <ele>161.6</ele>
        <time>2024-07-09T15:36:40Z</time>
      </trkpt>
      <trkpt lat="43.54622" lon="1.25798">
        <ele>161.6</ele>
        <time>2024-07-09T15:36:41Z</time>
      </trkpt>
      <trkpt lat="43.54623" lon="1.2579">
        <ele>161.6</ele>
        <time>2024-07-09T15:36:42Z</time>
      </trkpt>
      <trkpt lat="43.54624" lon="1.25782">
        <ele>161.8</ele>
        <time>2024-07-09T15:36:43Z</time>
      </trkpt>
      <trkpt lat="43.54625" lon="1.25774">
        <ele>161.8</ele>
        <time>2024-07-09T15:36:44Z</time>
      </trkpt>
      <trkpt lat="43.54627" lon="1.25766">
        <ele>161.8</ele>
        <time>2024-07-09T15:36:45Z</time>
      </trkpt>
      <trkpt lat="43.54629" lon="1.25758">
        <ele>161.8</ele>
        <time>2024-07-09T15:36:46Z</time>
      </trkpt>
      <trkpt lat="43.54632" lon="1.2575">
        <ele>161.8</ele>
        <time>2024-07-09T15:36:47Z</time>
      </trkpt>
      <trkpt lat="43.54635" lon="1.25743">
        <ele>162</ele>
        <time>2024-07-09T15:36:48Z</time>
      </trkpt>
      <trkpt lat="43.54635" lon="1.25743">
        <ele>162</ele>
        <time>2024-07-09T15:36:49Z</time>
      </trkpt>
      <trkpt lat="43.54644" lon="1.25727">
        <ele>162</ele>
        <time>2024-07-09T15:36:50Z</time>
      </trkpt>
      <trkpt lat="43.54648" lon="1.25719">
        <ele>162</ele>
        <time>2024-07-09T15:36:51Z</time>
      </trkpt>
      <trkpt lat="43.54653" lon="1.25712">
        <ele>162</ele>
        <time>2024-07-09T15:36:52Z</time>
      </trkpt>
      <trkpt lat="43.54657" lon="1.25704">
        <ele>162</ele>
        <time>2024-07-09T15:36:53Z</time>
      </trkpt>
      <trkpt lat="43.54661" lon="1.25696">
        <ele>161.8</ele>
        <time>2024-07-09T15:36:54Z</time>
      </trkpt>
      <trkpt lat="43.54666" lon="1.25689">
        <ele>161.8</ele>
        <time>2024-07-09T15:36:55Z</time>
      </trkpt>
      <trkpt lat="43.5467" lon="1.25682">
        <ele>161.8</ele>
        <time>2024-07-09T15:36:56Z</time>
      </trkpt>
      <trkpt lat="43.54674" lon="1.25675">
        <ele>161.8</ele>
        <time>2024-07-09T15:36:57Z</time>
      </trkpt>
      <trkpt lat="43.54678" lon="1.25667">
        <ele>161.8</ele>
        <time>2024-07-09T15:36:58Z</time>
      </trkpt>
      <trkpt lat="43.54682" lon="1.25659">
        <ele>161.8</ele>
        <time>2024-07-09T15:36:59Z</time>
      </trkpt>
      <trkpt lat="43.54687" lon="1.25652">
        <ele>161.6</ele>
        <time>2024-07-09T15:37:00Z</time>
      </trkpt>
      <trkpt lat="43.54691" lon="1.25645">
        <ele>161.6</ele>
        <time>2024-07-09T15:37:01Z</time>
      </trkpt>
      <trkpt lat="43.54691" lon="1.25645">
        <ele>161.4</ele>
        <time>2024-07-09T15:37:02Z</time>
      </trkpt>
      <trkpt lat="43.54695" lon="1.25638">
        <ele>161.4</ele>
        <time>2024-07-09T15:37:03Z</time>
      </trkpt>
      <trkpt lat="43.54699" lon="1.25632">
        <ele>161.4</ele>
        <time>2024-07-09T15:37:04Z</time>
      </trkpt>
      <trkpt lat="43.54708" lon="1.25618">
        <ele>161.4</ele>
        <time>2024-07-09T15:37:05Z</time>
      </trkpt>
      <trkpt lat="43.54713" lon="1.2561">
        <ele>161.4</ele>
        <time>2024-07-09T15:37:06Z</time>
      </trkpt>
      <trkpt lat="43.54718" lon="1.25603">
        <ele>161.4</ele>
        <time>2024-07-09T15:37:07Z</time>
      </trkpt>
      <trkpt lat="43.54722" lon="1.25596">
        <ele>161.4</ele>
        <time>2024-07-09T15:37:08Z</time>
      </trkpt>
      <trkpt lat="43.54727" lon="1.25589">
        <ele>161.4</ele>
        <time>2024-07-09T15:37:09Z</time>
      </trkpt>
      <trkpt lat="43.54727" lon="1.25589">
        <ele>161.4</ele>
        <time>2024-07-09T15:37:10Z</time>
      </trkpt>
      <trkpt lat="43.54737" lon="1.25576">
        <ele>161.4</ele>
        <time>2024-07-09T15:37:11Z</time>
      </trkpt>
      <trkpt lat="43.54742" lon="1.25569">
        <ele>161.4</ele>
        <time>2024-07-09T15:37:12Z</time>
      </trkpt>
      <trkpt lat="43.54742" lon="1.25569">
        <ele>161.4</ele>
        <time>2024-07-09T15:37:13Z</time>
      </trkpt>
      <trkpt lat="43.54751" lon="1.25555">
        <ele>161.4</ele>
        <time>2024-07-09T15:37:14Z</time>
      </trkpt>
      <trkpt lat="43.54756" lon="1.25548">
        <ele>161.4</ele>
        <time>2024-07-09T15:37:15Z</time>
      </trkpt>
      <trkpt lat="43.54761" lon="1.25542">
        <ele>161.4</ele>
        <time>2024-07-09T15:37:16Z</time>
      </trkpt>
      <trkpt lat="43.54766" lon="1.25535">
        <ele>161.4</ele>
        <time>2024-07-09T15:37:17Z</time>
      </trkpt>
      <trkpt lat="43.54771" lon="1.25528">
        <ele>161.4</ele>
        <time>2024-07-09T15:37:18Z</time>
      </trkpt>
      <trkpt lat="43.54775" lon="1.25521">
        <ele>161.4</ele>
        <time>2024-07-09T15:37:19Z</time>
      </trkpt>
      <trkpt lat="43.5478" lon="1.25515">
        <ele>161.4</ele>
        <time>2024-07-09T15:37:20Z</time>
      </trkpt>
      <trkpt lat="43.54785" lon="1.25508">
        <ele>161.4</ele>
        <time>2024-07-09T15:37:21Z</time>
      </trkpt>
      <trkpt lat="43.5479" lon="1.25502">
        <ele>161.4</ele>
        <time>2024-07-09T15:37:22Z</time>
      </trkpt>
      <trkpt lat="43.54794" lon="1.25495">
        <ele>161.4</ele>
        <time>2024-07-09T15:37:23Z</time>
      </trkpt>
      <trkpt lat="43.54799" lon="1.25489">
        <ele>161.4</ele>
        <time>2024-07-09T15:37:24Z</time>
      </trkpt>
      <trkpt lat="43.54803" lon="1.25483">
        <ele>161.4</ele>
        <time>2024-07-09T15:37:25Z</time>
      </trkpt>
      <trkpt lat="43.54807" lon="1.25476">
        <ele>161.4</ele>
        <time>2024-07-09T15:37:26Z</time>
      </trkpt>
      <trkpt lat="43.54811" lon="1.2547">
        <ele>161.4</ele>
        <time>2024-07-09T15:37:27Z</time>
      </trkpt>
      <trkpt lat="43.54814" lon="1.25465">
        <ele>161.6</ele>
        <time>2024-07-09T15:37:28Z</time>
      </trkpt>
      <trkpt lat="43.54817" lon="1.25462">
        <ele>161.6</ele>
        <time>2024-07-09T15:37:29Z</time>
      </trkpt>
      <trkpt lat="43.54819" lon="1.2546">
        <ele>161.8</ele>
        <time>2024-07-09T15:37:30Z</time>
      </trkpt>
      <trkpt lat="43.5482" lon="1.25457">
        <ele>161.8</ele>
        <time>2024-07-09T15:37:31Z</time>
      </trkpt>
      <trkpt lat="43.5482" lon="1.25453">
        <ele>162</ele>
        <time>2024-07-09T15:37:32Z</time>
      </trkpt>
      <trkpt lat="43.5482" lon="1.25449">
        <ele>162.2</ele>
        <time>2024-07-09T15:37:33Z</time>
      </trkpt>
      <trkpt lat="43.54819" lon="1.25444">
        <ele>162.2</ele>
        <time>2024-07-09T15:37:34Z</time>
      </trkpt>
      <trkpt lat="43.54818" lon="1.2544">
        <ele>162.2</ele>
        <time>2024-07-09T15:37:35Z</time>
      </trkpt>
      <trkpt lat="43.54816" lon="1.25436">
        <ele>162.4</ele>
        <time>2024-07-09T15:37:36Z</time>
      </trkpt>
      <trkpt lat="43.54813" lon="1.2543">
        <ele>162.4</ele>
        <time>2024-07-09T15:37:37Z</time>
      </trkpt>
      <trkpt lat="43.54811" lon="1.25425">
        <ele>162.6</ele>
        <time>2024-07-09T15:37:38Z</time>
      </trkpt>
      <trkpt lat="43.54809" lon="1.2542">
        <ele>162.6</ele>
        <time>2024-07-09T15:37:39Z</time>
      </trkpt>
      <trkpt lat="43.54807" lon="1.25414">
        <ele>162.6</ele>
        <time>2024-07-09T15:37:40Z</time>
      </trkpt>
      <trkpt lat="43.54804" lon="1.25409">
        <ele>162.8</ele>
        <time>2024-07-09T15:37:41Z</time>
      </trkpt>
      <trkpt lat="43.54802" lon="1.25403">
        <ele>162.8</ele>
        <time>2024-07-09T15:37:42Z</time>
      </trkpt>
      <trkpt lat="43.548" lon="1.25398">
        <ele>162.8</ele>
        <time>2024-07-09T15:37:43Z</time>
      </trkpt>
      <trkpt lat="43.54797" lon="1.25392">
        <ele>163</ele>
        <time>2024-07-09T15:37:44Z</time>
      </trkpt>
      <trkpt lat="43.54794" lon="1.25386">
        <ele>163</ele>
        <time>2024-07-09T15:37:45Z</time>
      </trkpt>
      <trkpt lat="43.54792" lon="1.2538">
        <ele>163</ele>
        <time>2024-07-09T15:37:46Z</time>
      </trkpt>
      <trkpt lat="43.54789" lon="1.25374">
        <ele>163</ele>
        <time>2024-07-09T15:37:47Z</time>
      </trkpt>
      <trkpt lat="43.54786" lon="1.25367">
        <ele>163.2</ele>
        <time>2024-07-09T15:37:48Z</time>
      </trkpt>
      <trkpt lat="43.54782" lon="1.25359">
        <ele>163.2</ele>
        <time>2024-07-09T15:37:49Z</time>
      </trkpt>
      <trkpt lat="43.54779" lon="1.25352">
        <ele>163.2</ele>
        <time>2024-07-09T15:37:50Z</time>
      </trkpt>
      <trkpt lat="43.54776" lon="1.25345">
        <ele>163.2</ele>
        <time>2024-07-09T15:37:51Z</time>
      </trkpt>
      <trkpt lat="43.54773" lon="1.25337">
        <ele>163.4</ele>
        <time>2024-07-09T15:37:52Z</time>
      </trkpt>
      <trkpt lat="43.54769" lon="1.25328">
        <ele>163.4</ele>
        <time>2024-07-09T15:37:53Z</time>
      </trkpt>
      <trkpt lat="43.54766" lon="1.25322">
        <ele>163.4</ele>
        <time>2024-07-09T15:37:54Z</time>
      </trkpt>
      <trkpt lat="43.54763" lon="1.25314">
        <ele>163.4</ele>
        <time>2024-07-09T15:37:55Z</time>
      </trkpt>
      <trkpt lat="43.5476" lon="1.25306">
        <ele>163.4</ele>
        <time>2024-07-09T15:37:56Z</time>
      </trkpt>
      <trkpt lat="43.54757" lon="1.25299">
        <ele>163.4</ele>
        <time>2024-07-09T15:37:57Z</time>
      </trkpt>
      <trkpt lat="43.54754" lon="1.25291">
        <ele>163.4</ele>
        <time>2024-07-09T15:37:58Z</time>
      </trkpt>
      <trkpt lat="43.54754" lon="1.25291">
        <ele>163.4</ele>
        <time>2024-07-09T15:37:59Z</time>
      </trkpt>
      <trkpt lat="43.54748" lon="1.25275">
        <ele>163.4</ele>
        <time>2024-07-09T15:38:00Z</time>
      </trkpt>
      <trkpt lat="43.54744" lon="1.25267">
        <ele>163.4</ele>
        <time>2024-07-09T15:38:01Z</time>
      </trkpt>
      <trkpt lat="43.54741" lon="1.2526">
        <ele>163.4</ele>
        <time>2024-07-09T15:38:02Z</time>
      </trkpt>
      <trkpt lat="43.54738" lon="1.25252">
        <ele>163.4</ele>
        <time>2024-07-09T15:38:03Z</time>
      </trkpt>
      <trkpt lat="43.54735" lon="1.25244">
        <ele>163.4</ele>
        <time>2024-07-09T15:38:04Z</time>
      </trkpt>
      <trkpt lat="43.54732" lon="1.25237">
        <ele>163.4</ele>
        <time>2024-07-09T15:38:05Z</time>
      </trkpt>
      <trkpt lat="43.54729" lon="1.25229">
        <ele>163.4</ele>
        <time>2024-07-09T15:38:06Z</time>
      </trkpt>
      <trkpt lat="43.54725" lon="1.2522">
        <ele>163.4</ele>
        <time>2024-07-09T15:38:07Z</time>
      </trkpt>
      <trkpt lat="43.54722" lon="1.25214">
        <ele>163.4</ele>
        <time>2024-07-09T15:38:08Z</time>
      </trkpt>
      <trkpt lat="43.54719" lon="1.25206">
        <ele>163.4</ele>
        <time>2024-07-09T15:38:09Z</time>
      </trkpt>
      <trkpt lat="43.54715" lon="1.25198">
        <ele>163.2</ele>
        <time>2024-07-09T15:38:10Z</time>
      </trkpt>
      <trkpt lat="43.54712" lon="1.2519">
        <ele>163.2</ele>
        <time>2024-07-09T15:38:11Z</time>
      </trkpt>
      <trkpt lat="43.54709" lon="1.25182">
        <ele>163.2</ele>
        <time>2024-07-09T15:38:12Z</time>
      </trkpt>
      <trkpt lat="43.54706" lon="1.25174">
        <ele>163.2</ele>
        <time>2024-07-09T15:38:13Z</time>
      </trkpt>
      <trkpt lat="43.54703" lon="1.25167">
        <ele>163.2</ele>
        <time>2024-07-09T15:38:14Z</time>
      </trkpt>
      <trkpt lat="43.54699" lon="1.25159">
        <ele>163.2</ele>
        <time>2024-07-09T15:38:15Z</time>
      </trkpt>
      <trkpt lat="43.54696" lon="1.25151">
        <ele>163.2</ele>
        <time>2024-07-09T15:38:16Z</time>
      </trkpt>
      <trkpt lat="43.54693" lon="1.25143">
        <ele>163.2</ele>
        <time>2024-07-09T15:38:17Z</time>
      </trkpt>
      <trkpt lat="43.54691" lon="1.25135">
        <ele>163.4</ele>
        <time>2024-07-09T15:38:18Z</time>
      </trkpt>
      <trkpt lat="43.54688" lon="1.25126">
        <ele>163.4</ele>
        <time>2024-07-09T15:38:19Z</time>
      </trkpt>
      <trkpt lat="43.54687" lon="1.25118">
        <ele>163.4</ele>
        <time>2024-07-09T15:38:20Z</time>
      </trkpt>
      <trkpt lat="43.54686" lon="1.25109">
        <ele>163.4</ele>
        <time>2024-07-09T15:38:21Z</time>
      </trkpt>
      <trkpt lat="43.54686" lon="1.25109">
        <ele>163.4</ele>
        <time>2024-07-09T15:38:22Z</time>
      </trkpt>
      <trkpt lat="43.54692" lon="1.25094">
        <ele>163.4</ele>
        <time>2024-07-09T15:38:23Z</time>
      </trkpt>
      <trkpt lat="43.54698" lon="1.25091">
        <ele>163.4</ele>
        <time>2024-07-09T15:38:24Z</time>
      </trkpt>
      <trkpt lat="43.54705" lon="1.25093">
        <ele>163.2</ele>
        <time>2024-07-09T15:38:25Z</time>
      </trkpt>
      <trkpt lat="43.54711" lon="1.25097">
        <ele>163.2</ele>
        <time>2024-07-09T15:38:26Z</time>
      </trkpt>
      <trkpt lat="43.54717" lon="1.25101">
        <ele>163.2</ele>
        <time>2024-07-09T15:38:27Z</time>
      </trkpt>
      <trkpt lat="43.54723" lon="1.25105">
        <ele>163.2</ele>
        <time>2024-07-09T15:38:28Z</time>
      </trkpt>
      <trkpt lat="43.54729" lon="1.25108">
        <ele>163.2</ele>
        <time>2024-07-09T15:38:29Z</time>
      </trkpt>
      <trkpt lat="43.54735" lon="1.25111">
        <ele>163</ele>
        <time>2024-07-09T15:38:30Z</time>
      </trkpt>
      <trkpt lat="43.54741" lon="1.25115">
        <ele>163</ele>
        <time>2024-07-09T15:38:31Z</time>
      </trkpt>
      <trkpt lat="43.54748" lon="1.25117">
        <ele>163</ele>
        <time>2024-07-09T15:38:32Z</time>
      </trkpt>
      <trkpt lat="43.54755" lon="1.25117">
        <ele>163</ele>
        <time>2024-07-09T15:38:33Z</time>
      </trkpt>
      <trkpt lat="43.54761" lon="1.25113">
        <ele>163</ele>
        <time>2024-07-09T15:38:34Z</time>
      </trkpt>
      <trkpt lat="43.54765" lon="1.25106">
        <ele>163</ele>
        <time>2024-07-09T15:38:35Z</time>
      </trkpt>
      <trkpt lat="43.54769" lon="1.25099">
        <ele>163</ele>
        <time>2024-07-09T15:38:36Z</time>
      </trkpt>
      <trkpt lat="43.54773" lon="1.25092">
        <ele>163</ele>
        <time>2024-07-09T15:38:37Z</time>
      </trkpt>
      <trkpt lat="43.54776" lon="1.25085">
        <ele>163</ele>
        <time>2024-07-09T15:38:38Z</time>
      </trkpt>
      <trkpt lat="43.54779" lon="1.25078">
        <ele>163</ele>
        <time>2024-07-09T15:38:39Z</time>
      </trkpt>
      <trkpt lat="43.54782" lon="1.2507">
        <ele>163</ele>
        <time>2024-07-09T15:38:40Z</time>
      </trkpt>
      <trkpt lat="43.54785" lon="1.25063">
        <ele>163</ele>
        <time>2024-07-09T15:38:41Z</time>
      </trkpt>
      <trkpt lat="43.54788" lon="1.25056">
        <ele>163</ele>
        <time>2024-07-09T15:38:42Z</time>
      </trkpt>
      <trkpt lat="43.54791" lon="1.25048">
        <ele>163.2</ele>
        <time>2024-07-09T15:38:43Z</time>
      </trkpt>
      <trkpt lat="43.54795" lon="1.25041">
        <ele>163.2</ele>
        <time>2024-07-09T15:38:44Z</time>
      </trkpt>
      <trkpt lat="43.54798" lon="1.25034">
        <ele>163.2</ele>
        <time>2024-07-09T15:38:45Z</time>
      </trkpt>
      <trkpt lat="43.54801" lon="1.25027">
        <ele>163.2</ele>
        <time>2024-07-09T15:38:46Z</time>
      </trkpt>
      <trkpt lat="43.54805" lon="1.2502">
        <ele>163.4</ele>
        <time>2024-07-09T15:38:47Z</time>
      </trkpt>
      <trkpt lat="43.54808" lon="1.25013">
        <ele>163.4</ele>
        <time>2024-07-09T15:38:48Z</time>
      </trkpt>
      <trkpt lat="43.54808" lon="1.25013">
        <ele>163.4</ele>
        <time>2024-07-09T15:38:49Z</time>
      </trkpt>
      <trkpt lat="43.54814" lon="1.24998">
        <ele>163.4</ele>
        <time>2024-07-09T15:38:50Z</time>
      </trkpt>
      <trkpt lat="43.54817" lon="1.24991">
        <ele>163.6</ele>
        <time>2024-07-09T15:38:51Z</time>
      </trkpt>
      <trkpt lat="43.54821" lon="1.24984">
        <ele>163.6</ele>
        <time>2024-07-09T15:38:52Z</time>
      </trkpt>
      <trkpt lat="43.54824" lon="1.24976">
        <ele>163.8</ele>
        <time>2024-07-09T15:38:53Z</time>
      </trkpt>
      <trkpt lat="43.54827" lon="1.24969">
        <ele>164</ele>
        <time>2024-07-09T15:38:54Z</time>
      </trkpt>
      <trkpt lat="43.5483" lon="1.24963">
        <ele>164</ele>
        <time>2024-07-09T15:38:55Z</time>
      </trkpt>
      <trkpt lat="43.54833" lon="1.24956">
        <ele>164</ele>
        <time>2024-07-09T15:38:56Z</time>
      </trkpt>
      <trkpt lat="43.54836" lon="1.24948">
        <ele>164.2</ele>
        <time>2024-07-09T15:38:57Z</time>
      </trkpt>
      <trkpt lat="43.54839" lon="1.24942">
        <ele>164.2</ele>
        <time>2024-07-09T15:38:58Z</time>
      </trkpt>
      <trkpt lat="43.54842" lon="1.24935">
        <ele>164.2</ele>
        <time>2024-07-09T15:38:59Z</time>
      </trkpt>
      <trkpt lat="43.54846" lon="1.24928">
        <ele>164.4</ele>
        <time>2024-07-09T15:39:00Z</time>
      </trkpt>
      <trkpt lat="43.54849" lon="1.24922">
        <ele>164.4</ele>
        <time>2024-07-09T15:39:01Z</time>
      </trkpt>
      <trkpt lat="43.54852" lon="1.24916">
        <ele>164.6</ele>
        <time>2024-07-09T15:39:02Z</time>
      </trkpt>
      <trkpt lat="43.54855" lon="1.24909">
        <ele>164.6</ele>
        <time>2024-07-09T15:39:03Z</time>
      </trkpt>
      <trkpt lat="43.54859" lon="1.24903">
        <ele>164.6</ele>
        <time>2024-07-09T15:39:04Z</time>
      </trkpt>
      <trkpt lat="43.54859" lon="1.24903">
        <ele>164.8</ele>
        <time>2024-07-09T15:39:05Z</time>
      </trkpt>
      <trkpt lat="43.54865" lon="1.2489">
        <ele>164.8</ele>
        <time>2024-07-09T15:39:06Z</time>
      </trkpt>
      <trkpt lat="43.54867" lon="1.24883">
        <ele>165</ele>
        <time>2024-07-09T15:39:07Z</time>
      </trkpt>
      <trkpt lat="43.5487" lon="1.24877">
        <ele>165</ele>
        <time>2024-07-09T15:39:08Z</time>
      </trkpt>
      <trkpt lat="43.54873" lon="1.24871">
        <ele>165.2</ele>
        <time>2024-07-09T15:39:09Z</time>
      </trkpt>
      <trkpt lat="43.54876" lon="1.24865">
        <ele>165.2</ele>
        <time>2024-07-09T15:39:10Z</time>
      </trkpt>
      <trkpt lat="43.54879" lon="1.24859">
        <ele>165.4</ele>
        <time>2024-07-09T15:39:11Z</time>
      </trkpt>
      <trkpt lat="43.54881" lon="1.24853">
        <ele>165.6</ele>
        <time>2024-07-09T15:39:12Z</time>
      </trkpt>
      <trkpt lat="43.54884" lon="1.24847">
        <ele>165.8</ele>
        <time>2024-07-09T15:39:13Z</time>
      </trkpt>
      <trkpt lat="43.54886" lon="1.24841">
        <ele>165.8</ele>
        <time>2024-07-09T15:39:14Z</time>
      </trkpt>
      <trkpt lat="43.54889" lon="1.24836">
        <ele>166.2</ele>
        <time>2024-07-09T15:39:15Z</time>
      </trkpt>
      <trkpt lat="43.54889" lon="1.24836">
        <ele>166.4</ele>
        <time>2024-07-09T15:39:16Z</time>
      </trkpt>
      <trkpt lat="43.54894" lon="1.24825">
        <ele>166.4</ele>
        <time>2024-07-09T15:39:17Z</time>
      </trkpt>
      <trkpt lat="43.54896" lon="1.2482">
        <ele>166.6</ele>
        <time>2024-07-09T15:39:18Z</time>
      </trkpt>
      <trkpt lat="43.54899" lon="1.24815">
        <ele>166.8</ele>
        <time>2024-07-09T15:39:19Z</time>
      </trkpt>
      <trkpt lat="43.54902" lon="1.24811">
        <ele>167.2</ele>
        <time>2024-07-09T15:39:20Z</time>
      </trkpt>
      <trkpt lat="43.54905" lon="1.24808">
        <ele>167.6</ele>
        <time>2024-07-09T15:39:21Z</time>
      </trkpt>
      <trkpt lat="43.54909" lon="1.24805">
        <ele>167.6</ele>
        <time>2024-07-09T15:39:22Z</time>
      </trkpt>
      <trkpt lat="43.54913" lon="1.24803">
        <ele>168</ele>
        <time>2024-07-09T15:39:23Z</time>
      </trkpt>
      <trkpt lat="43.54917" lon="1.24803">
        <ele>168.2</ele>
        <time>2024-07-09T15:39:24Z</time>
      </trkpt>
      <trkpt lat="43.5492" lon="1.24803">
        <ele>168.4</ele>
        <time>2024-07-09T15:39:25Z</time>
      </trkpt>
      <trkpt lat="43.54924" lon="1.24804">
        <ele>168.6</ele>
        <time>2024-07-09T15:39:26Z</time>
      </trkpt>
      <trkpt lat="43.54928" lon="1.24804">
        <ele>168.8</ele>
        <time>2024-07-09T15:39:27Z</time>
      </trkpt>
      <trkpt lat="43.54931" lon="1.24805">
        <ele>169.2</ele>
        <time>2024-07-09T15:39:28Z</time>
      </trkpt>
      <trkpt lat="43.54934" lon="1.24806">
        <ele>169.4</ele>
        <time>2024-07-09T15:39:29Z</time>
      </trkpt>
      <trkpt lat="43.54938" lon="1.24806">
        <ele>170.2</ele>
        <time>2024-07-09T15:39:30Z</time>
      </trkpt>
      <trkpt lat="43.54941" lon="1.24807">
        <ele>170.4</ele>
        <time>2024-07-09T15:39:31Z</time>
      </trkpt>
      <trkpt lat="43.54945" lon="1.24808">
        <ele>171</ele>
        <time>2024-07-09T15:39:32Z</time>
      </trkpt>
      <trkpt lat="43.54949" lon="1.24808">
        <ele>171.4</ele>
        <time>2024-07-09T15:39:33Z</time>
      </trkpt>
      <trkpt lat="43.54953" lon="1.24809">
        <ele>171.6</ele>
        <time>2024-07-09T15:39:34Z</time>
      </trkpt>
      <trkpt lat="43.54957" lon="1.24809">
        <ele>171.8</ele>
        <time>2024-07-09T15:39:35Z</time>
      </trkpt>
      <trkpt lat="43.5496" lon="1.24809">
        <ele>172</ele>
        <time>2024-07-09T15:39:36Z</time>
      </trkpt>
      <trkpt lat="43.54964" lon="1.2481">
        <ele>172.2</ele>
        <time>2024-07-09T15:39:37Z</time>
      </trkpt>
      <trkpt lat="43.54968" lon="1.2481">
        <ele>172.4</ele>
        <time>2024-07-09T15:39:38Z</time>
      </trkpt>
      <trkpt lat="43.54971" lon="1.2481">
        <ele>172.6</ele>
        <time>2024-07-09T15:39:39Z</time>
      </trkpt>
      <trkpt lat="43.54971" lon="1.2481">
        <ele>173</ele>
        <time>2024-07-09T15:39:40Z</time>
      </trkpt>
      <trkpt lat="43.54979" lon="1.24808">
        <ele>173</ele>
        <time>2024-07-09T15:39:41Z</time>
      </trkpt>
      <trkpt lat="43.54983" lon="1.24808">
        <ele>173.4</ele>
        <time>2024-07-09T15:39:42Z</time>
      </trkpt>
      <trkpt lat="43.54988" lon="1.24807">
        <ele>173.6</ele>
        <time>2024-07-09T15:39:43Z</time>
      </trkpt>
      <trkpt lat="43.54992" lon="1.24807">
        <ele>173.8</ele>
        <time>2024-07-09T15:39:44Z</time>
      </trkpt>
      <trkpt lat="43.54996" lon="1.24806">
        <ele>174</ele>
        <time>2024-07-09T15:39:45Z</time>
      </trkpt>
      <trkpt lat="43.55" lon="1.24805">
        <ele>174</ele>
        <time>2024-07-09T15:39:46Z</time>
      </trkpt>
      <trkpt lat="43.55004" lon="1.24804">
        <ele>174.2</ele>
        <time>2024-07-09T15:39:47Z</time>
      </trkpt>
      <trkpt lat="43.55008" lon="1.24803">
        <ele>174.2</ele>
        <time>2024-07-09T15:39:48Z</time>
      </trkpt>
      <trkpt lat="43.55012" lon="1.24801">
        <ele>174.4</ele>
        <time>2024-07-09T15:39:49Z</time>
      </trkpt>
      <trkpt lat="43.55016" lon="1.248">
        <ele>174.6</ele>
        <time>2024-07-09T15:39:50Z</time>
      </trkpt>
      <trkpt lat="43.55021" lon="1.24798">
        <ele>174.6</ele>
        <time>2024-07-09T15:39:51Z</time>
      </trkpt>
      <trkpt lat="43.55025" lon="1.24796">
        <ele>174.8</ele>
        <time>2024-07-09T15:39:52Z</time>
      </trkpt>
      <trkpt lat="43.55029" lon="1.24794">
        <ele>174.8</ele>
        <time>2024-07-09T15:39:53Z</time>
      </trkpt>
      <trkpt lat="43.55033" lon="1.24793">
        <ele>174.8</ele>
        <time>2024-07-09T15:39:54Z</time>
      </trkpt>
      <trkpt lat="43.55037" lon="1.24791">
        <ele>175</ele>
        <time>2024-07-09T15:39:55Z</time>
      </trkpt>
      <trkpt lat="43.5504" lon="1.2479">
        <ele>175</ele>
        <time>2024-07-09T15:39:56Z</time>
      </trkpt>
      <trkpt lat="43.55043" lon="1.24788">
        <ele>175</ele>
        <time>2024-07-09T15:39:57Z</time>
      </trkpt>
      <trkpt lat="43.55047" lon="1.24786">
        <ele>175.2</ele>
        <time>2024-07-09T15:39:58Z</time>
      </trkpt>
      <trkpt lat="43.5505" lon="1.24784">
        <ele>175.4</ele>
        <time>2024-07-09T15:39:59Z</time>
      </trkpt>
      <trkpt lat="43.55052" lon="1.24783">
        <ele>175.4</ele>
        <time>2024-07-09T15:40:00Z</time>
      </trkpt>
      <trkpt lat="43.55055" lon="1.2478">
        <ele>175.6</ele>
        <time>2024-07-09T15:40:01Z</time>
      </trkpt>
      <trkpt lat="43.55057" lon="1.24777">
        <ele>175.8</ele>
        <time>2024-07-09T15:40:02Z</time>
      </trkpt>
      <trkpt lat="43.5506" lon="1.24773">
        <ele>175.8</ele>
        <time>2024-07-09T15:40:03Z</time>
      </trkpt>
      <trkpt lat="43.55062" lon="1.24769">
        <ele>176.2</ele>
        <time>2024-07-09T15:40:04Z</time>
      </trkpt>
      <trkpt lat="43.55064" lon="1.24766">
        <ele>176.4</ele>
        <time>2024-07-09T15:40:05Z</time>
      </trkpt>
      <trkpt lat="43.55066" lon="1.24761">
        <ele>176.8</ele>
        <time>2024-07-09T15:40:06Z</time>
      </trkpt>
      <trkpt lat="43.55069" lon="1.24757">
        <ele>177</ele>
        <time>2024-07-09T15:40:07Z</time>
      </trkpt>
      <trkpt lat="43.55072" lon="1.24753">
        <ele>177.2</ele>
        <time>2024-07-09T15:40:08Z</time>
      </trkpt>
      <trkpt lat="43.55075" lon="1.24749">
        <ele>177.6</ele>
        <time>2024-07-09T15:40:09Z</time>
      </trkpt>
      <trkpt lat="43.55077" lon="1.24745">
        <ele>177.8</ele>
        <time>2024-07-09T15:40:10Z</time>
      </trkpt>
      <trkpt lat="43.5508" lon="1.2474">
        <ele>178</ele>
        <time>2024-07-09T15:40:11Z</time>
      </trkpt>
      <trkpt lat="43.55083" lon="1.24735">
        <ele>178.2</ele>
        <time>2024-07-09T15:40:12Z</time>
      </trkpt>
      <trkpt lat="43.55086" lon="1.24731">
        <ele>178.2</ele>
        <time>2024-07-09T15:40:13Z</time>
      </trkpt>
      <trkpt lat="43.55089" lon="1.24726">
        <ele>178.4</ele>
        <time>2024-07-09T15:40:14Z</time>
      </trkpt>
      <trkpt lat="43.55091" lon="1.24721">
        <ele>178.4</ele>
        <time>2024-07-09T15:40:15Z</time>
      </trkpt>
      <trkpt lat="43.55094" lon="1.24716">
        <ele>178.8</ele>
        <time>2024-07-09T15:40:16Z</time>
      </trkpt>
      <trkpt lat="43.55096" lon="1.24712">
        <ele>179</ele>
        <time>2024-07-09T15:40:17Z</time>
      </trkpt>
      <trkpt lat="43.55098" lon="1.24708">
        <ele>179.2</ele>
        <time>2024-07-09T15:40:18Z</time>
      </trkpt>
      <trkpt lat="43.55101" lon="1.24704">
        <ele>179.8</ele>
        <time>2024-07-09T15:40:19Z</time>
      </trkpt>
      <trkpt lat="43.55105" lon="1.24699">
        <ele>179.8</ele>
        <time>2024-07-09T15:40:20Z</time>
      </trkpt>
      <trkpt lat="43.55109" lon="1.24694">
        <ele>180.2</ele>
        <time>2024-07-09T15:40:21Z</time>
      </trkpt>
      <trkpt lat="43.55113" lon="1.24689">
        <ele>180.2</ele>
        <time>2024-07-09T15:40:22Z</time>
      </trkpt>
      <trkpt lat="43.55116" lon="1.24684">
        <ele>180.4</ele>
        <time>2024-07-09T15:40:23Z</time>
      </trkpt>
      <trkpt lat="43.55119" lon="1.2468">
        <ele>180.6</ele>
        <time>2024-07-09T15:40:24Z</time>
      </trkpt>
      <trkpt lat="43.55121" lon="1.24675">
        <ele>180.8</ele>
        <time>2024-07-09T15:40:25Z</time>
      </trkpt>
      <trkpt lat="43.55123" lon="1.2467">
        <ele>181</ele>
        <time>2024-07-09T15:40:26Z</time>
      </trkpt>
      <trkpt lat="43.55125" lon="1.24665">
        <ele>181</ele>
        <time>2024-07-09T15:40:27Z</time>
      </trkpt>
      <trkpt lat="43.55128" lon="1.2466">
        <ele>181.2</ele>
        <time>2024-07-09T15:40:28Z</time>
      </trkpt>
      <trkpt lat="43.5513" lon="1.24656">
        <ele>181.6</ele>
        <time>2024-07-09T15:40:29Z</time>
      </trkpt>
      <trkpt lat="43.55131" lon="1.24651">
        <ele>181.8</ele>
        <time>2024-07-09T15:40:30Z</time>
      </trkpt>
      <trkpt lat="43.55132" lon="1.24646">
        <ele>182</ele>
        <time>2024-07-09T15:40:31Z</time>
      </trkpt>
      <trkpt lat="43.55133" lon="1.24642">
        <ele>182.2</ele>
        <time>2024-07-09T15:40:32Z</time>
      </trkpt>
      <trkpt lat="43.55134" lon="1.24637">
        <ele>182.4</ele>
        <time>2024-07-09T15:40:33Z</time>
      </trkpt>
      <trkpt lat="43.55136" lon="1.24632">
        <ele>182.4</ele>
        <time>2024-07-09T15:40:34Z</time>
      </trkpt>
      <trkpt lat="43.55137" lon="1.24626">
        <ele>182.8</ele>
        <time>2024-07-09T15:40:35Z</time>
      </trkpt>
      <trkpt lat="43.55138" lon="1.24621">
        <ele>183</ele>
        <time>2024-07-09T15:40:36Z</time>
      </trkpt>
      <trkpt lat="43.55141" lon="1.24614">
        <ele>183</ele>
        <time>2024-07-09T15:40:37Z</time>
      </trkpt>
      <trkpt lat="43.55143" lon="1.24607">
        <ele>183.2</ele>
        <time>2024-07-09T15:40:38Z</time>
      </trkpt>
      <trkpt lat="43.55145" lon="1.24602">
        <ele>183.4</ele>
        <time>2024-07-09T15:40:39Z</time>
      </trkpt>
      <trkpt lat="43.55148" lon="1.24596">
        <ele>183.8</ele>
        <time>2024-07-09T15:40:40Z</time>
      </trkpt>
      <trkpt lat="43.55148" lon="1.24596">
        <ele>184</ele>
        <time>2024-07-09T15:40:41Z</time>
      </trkpt>
      <trkpt lat="43.55148" lon="1.24585">
        <ele>184.2</ele>
        <time>2024-07-09T15:40:42Z</time>
      </trkpt>
      <trkpt lat="43.55149" lon="1.2458">
        <ele>184.4</ele>
        <time>2024-07-09T15:40:43Z</time>
      </trkpt>
      <trkpt lat="43.5515" lon="1.24574">
        <ele>184.6</ele>
        <time>2024-07-09T15:40:44Z</time>
      </trkpt>
      <trkpt lat="43.55151" lon="1.24568">
        <ele>184.8</ele>
        <time>2024-07-09T15:40:45Z</time>
      </trkpt>
      <trkpt lat="43.55151" lon="1.24562">
        <ele>185</ele>
        <time>2024-07-09T15:40:46Z</time>
      </trkpt>
      <trkpt lat="43.55151" lon="1.24556">
        <ele>185.2</ele>
        <time>2024-07-09T15:40:47Z</time>
      </trkpt>
      <trkpt lat="43.5515" lon="1.24551">
        <ele>185.4</ele>
        <time>2024-07-09T15:40:48Z</time>
      </trkpt>
      <trkpt lat="43.55148" lon="1.24545">
        <ele>185.4</ele>
        <time>2024-07-09T15:40:49Z</time>
      </trkpt>
      <trkpt lat="43.55146" lon="1.24541">
        <ele>185.8</ele>
        <time>2024-07-09T15:40:50Z</time>
      </trkpt>
      <trkpt lat="43.55143" lon="1.24535">
        <ele>185.8</ele>
        <time>2024-07-09T15:40:51Z</time>
      </trkpt>
      <trkpt lat="43.55141" lon="1.24531">
        <ele>186</ele>
        <time>2024-07-09T15:40:52Z</time>
      </trkpt>
      <trkpt lat="43.55139" lon="1.24526">
        <ele>186.2</ele>
        <time>2024-07-09T15:40:53Z</time>
      </trkpt>
      <trkpt lat="43.55137" lon="1.24521">
        <ele>186.2</ele>
        <time>2024-07-09T15:40:54Z</time>
      </trkpt>
      <trkpt lat="43.55135" lon="1.24516">
        <ele>186.2</ele>
        <time>2024-07-09T15:40:55Z</time>
      </trkpt>
      <trkpt lat="43.55133" lon="1.24511">
        <ele>186.2</ele>
        <time>2024-07-09T15:40:56Z</time>
      </trkpt>
      <trkpt lat="43.55133" lon="1.24506">
        <ele>186.4</ele>
        <time>2024-07-09T15:40:57Z</time>
      </trkpt>
      <trkpt lat="43.55133" lon="1.24501">
        <ele>186.6</ele>
        <time>2024-07-09T15:40:58Z</time>
      </trkpt>
      <trkpt lat="43.55133" lon="1.24495">
        <ele>186.6</ele>
        <time>2024-07-09T15:40:59Z</time>
      </trkpt>
      <trkpt lat="43.55136" lon="1.24489">
        <ele>186.8</ele>
        <time>2024-07-09T15:41:00Z</time>
      </trkpt>
      <trkpt lat="43.55139" lon="1.24485">
        <ele>186.8</ele>
        <time>2024-07-09T15:41:01Z</time>
      </trkpt>
      <trkpt lat="43.55143" lon="1.24482">
        <ele>187</ele>
        <time>2024-07-09T15:41:02Z</time>
      </trkpt>
      <trkpt lat="43.55147" lon="1.24481">
        <ele>187</ele>
        <time>2024-07-09T15:41:03Z</time>
      </trkpt>
      <trkpt lat="43.55151" lon="1.24479">
        <ele>187</ele>
        <time>2024-07-09T15:41:04Z</time>
      </trkpt>
      <trkpt lat="43.55154" lon="1.24477">
        <ele>187.2</ele>
        <time>2024-07-09T15:41:05Z</time>
      </trkpt>
      <trkpt lat="43.55158" lon="1.24474">
        <ele>187.2</ele>
        <time>2024-07-09T15:41:06Z</time>
      </trkpt>
      <trkpt lat="43.55161" lon="1.2447">
        <ele>187.2</ele>
        <time>2024-07-09T15:41:07Z</time>
      </trkpt>
      <trkpt lat="43.55164" lon="1.24464">
        <ele>187.2</ele>
        <time>2024-07-09T15:41:08Z</time>
      </trkpt>
      <trkpt lat="43.55166" lon="1.24458">
        <ele>187.2</ele>
        <time>2024-07-09T15:41:09Z</time>
      </trkpt>
      <trkpt lat="43.55167" lon="1.24451">
        <ele>187.4</ele>
        <time>2024-07-09T15:41:10Z</time>
      </trkpt>
      <trkpt lat="43.55167" lon="1.24444">
        <ele>187.4</ele>
        <time>2024-07-09T15:41:11Z</time>
      </trkpt>
      <trkpt lat="43.55168" lon="1.24437">
        <ele>187.4</ele>
        <time>2024-07-09T15:41:12Z</time>
      </trkpt>
      <trkpt lat="43.5517" lon="1.24429">
        <ele>187.4</ele>
        <time>2024-07-09T15:41:13Z</time>
      </trkpt>
      <trkpt lat="43.55173" lon="1.24423">
        <ele>187.6</ele>
        <time>2024-07-09T15:41:14Z</time>
      </trkpt>
      <trkpt lat="43.55176" lon="1.24416">
        <ele>187.6</ele>
        <time>2024-07-09T15:41:15Z</time>
      </trkpt>
      <trkpt lat="43.5518" lon="1.24408">
        <ele>187.6</ele>
        <time>2024-07-09T15:41:16Z</time>
      </trkpt>
      <trkpt lat="43.55182" lon="1.24403">
        <ele>187.6</ele>
        <time>2024-07-09T15:41:17Z</time>
      </trkpt>
      <trkpt lat="43.55185" lon="1.24395">
        <ele>187.8</ele>
        <time>2024-07-09T15:41:18Z</time>
      </trkpt>
      <trkpt lat="43.55188" lon="1.24388">
        <ele>187.8</ele>
        <time>2024-07-09T15:41:19Z</time>
      </trkpt>
      <trkpt lat="43.5519" lon="1.24381">
        <ele>187.8</ele>
        <time>2024-07-09T15:41:20Z</time>
      </trkpt>
      <trkpt lat="43.55192" lon="1.24374">
        <ele>187.8</ele>
        <time>2024-07-09T15:41:21Z</time>
      </trkpt>
      <trkpt lat="43.55194" lon="1.24366">
        <ele>187.8</ele>
        <time>2024-07-09T15:41:22Z</time>
      </trkpt>
      <trkpt lat="43.55196" lon="1.24359">
        <ele>187.8</ele>
        <time>2024-07-09T15:41:23Z</time>
      </trkpt>
      <trkpt lat="43.55198" lon="1.24351">
        <ele>187.8</ele>
        <time>2024-07-09T15:41:24Z</time>
      </trkpt>
      <trkpt lat="43.55199" lon="1.24343">
        <ele>187.8</ele>
        <time>2024-07-09T15:41:25Z</time>
      </trkpt>
      <trkpt lat="43.55201" lon="1.24334">
        <ele>187.8</ele>
        <time>2024-07-09T15:41:26Z</time>
      </trkpt>
      <trkpt lat="43.55203" lon="1.24326">
        <ele>187.8</ele>
        <time>2024-07-09T15:41:27Z</time>
      </trkpt>
      <trkpt lat="43.55205" lon="1.24318">
        <ele>187.8</ele>
        <time>2024-07-09T15:41:28Z</time>
      </trkpt>
      <trkpt lat="43.55207" lon="1.24309">
        <ele>188</ele>
        <time>2024-07-09T15:41:29Z</time>
      </trkpt>
      <trkpt lat="43.55209" lon="1.24301">
        <ele>188</ele>
        <time>2024-07-09T15:41:30Z</time>
      </trkpt>
      <trkpt lat="43.55211" lon="1.24293">
        <ele>188</ele>
        <time>2024-07-09T15:41:31Z</time>
      </trkpt>
      <trkpt lat="43.55213" lon="1.24284">
        <ele>188</ele>
        <time>2024-07-09T15:41:32Z</time>
      </trkpt>
      <trkpt lat="43.55215" lon="1.24276">
        <ele>188</ele>
        <time>2024-07-09T15:41:33Z</time>
      </trkpt>
      <trkpt lat="43.55216" lon="1.24267">
        <ele>188.2</ele>
        <time>2024-07-09T15:41:34Z</time>
      </trkpt>
      <trkpt lat="43.55218" lon="1.24258">
        <ele>188.2</ele>
        <time>2024-07-09T15:41:35Z</time>
      </trkpt>
      <trkpt lat="43.5522" lon="1.2425">
        <ele>188.2</ele>
        <time>2024-07-09T15:41:36Z</time>
      </trkpt>
      <trkpt lat="43.55222" lon="1.24241">
        <ele>188.2</ele>
        <time>2024-07-09T15:41:37Z</time>
      </trkpt>
      <trkpt lat="43.55225" lon="1.24233">
        <ele>188.2</ele>
        <time>2024-07-09T15:41:38Z</time>
      </trkpt>
      <trkpt lat="43.55227" lon="1.24224">
        <ele>188.4</ele>
        <time>2024-07-09T15:41:39Z</time>
      </trkpt>
      <trkpt lat="43.55229" lon="1.24215">
        <ele>188.4</ele>
        <time>2024-07-09T15:41:40Z</time>
      </trkpt>
      <trkpt lat="43.55232" lon="1.24207">
        <ele>188.2</ele>
        <time>2024-07-09T15:41:41Z</time>
      </trkpt>
      <trkpt lat="43.55234" lon="1.24198">
        <ele>188.2</ele>
        <time>2024-07-09T15:41:42Z</time>
      </trkpt>
      <trkpt lat="43.55237" lon="1.24189">
        <ele>188.4</ele>
        <time>2024-07-09T15:41:43Z</time>
      </trkpt>
      <trkpt lat="43.55239" lon="1.2418">
        <ele>188.4</ele>
        <time>2024-07-09T15:41:44Z</time>
      </trkpt>
      <trkpt lat="43.55242" lon="1.24171">
        <ele>188.4</ele>
        <time>2024-07-09T15:41:45Z</time>
      </trkpt>
      <trkpt lat="43.55244" lon="1.24162">
        <ele>188.4</ele>
        <time>2024-07-09T15:41:46Z</time>
      </trkpt>
      <trkpt lat="43.55246" lon="1.24154">
        <ele>188.4</ele>
        <time>2024-07-09T15:41:47Z</time>
      </trkpt>
      <trkpt lat="43.55248" lon="1.24145">
        <ele>188.4</ele>
        <time>2024-07-09T15:41:48Z</time>
      </trkpt>
      <trkpt lat="43.5525" lon="1.24136">
        <ele>188.4</ele>
        <time>2024-07-09T15:41:49Z</time>
      </trkpt>
      <trkpt lat="43.55252" lon="1.24126">
        <ele>188.4</ele>
        <time>2024-07-09T15:41:50Z</time>
      </trkpt>
      <trkpt lat="43.55255" lon="1.24118">
        <ele>188.4</ele>
        <time>2024-07-09T15:41:51Z</time>
      </trkpt>
      <trkpt lat="43.55257" lon="1.24109">
        <ele>188.4</ele>
        <time>2024-07-09T15:41:52Z</time>
      </trkpt>
      <trkpt lat="43.55259" lon="1.24099">
        <ele>188.4</ele>
        <time>2024-07-09T15:41:53Z</time>
      </trkpt>
      <trkpt lat="43.5526" lon="1.24091">
        <ele>188.4</ele>
        <time>2024-07-09T15:41:54Z</time>
      </trkpt>
      <trkpt lat="43.55262" lon="1.24081">
        <ele>188.4</ele>
        <time>2024-07-09T15:41:55Z</time>
      </trkpt>
      <trkpt lat="43.55263" lon="1.24073">
        <ele>188.4</ele>
        <time>2024-07-09T15:41:56Z</time>
      </trkpt>
      <trkpt lat="43.55265" lon="1.24064">
        <ele>188.6</ele>
        <time>2024-07-09T15:41:57Z</time>
      </trkpt>
      <trkpt lat="43.55266" lon="1.24055">
        <ele>188.6</ele>
        <time>2024-07-09T15:41:58Z</time>
      </trkpt>
      <trkpt lat="43.55267" lon="1.24046">
        <ele>188.6</ele>
        <time>2024-07-09T15:41:59Z</time>
      </trkpt>
      <trkpt lat="43.55268" lon="1.24037">
        <ele>188.6</ele>
        <time>2024-07-09T15:42:00Z</time>
      </trkpt>
      <trkpt lat="43.55268" lon="1.24028">
        <ele>188.6</ele>
        <time>2024-07-09T15:42:01Z</time>
      </trkpt>
      <trkpt lat="43.55269" lon="1.24018">
        <ele>188.6</ele>
        <time>2024-07-09T15:42:02Z</time>
      </trkpt>
      <trkpt lat="43.5527" lon="1.24009">
        <ele>188.6</ele>
        <time>2024-07-09T15:42:03Z</time>
      </trkpt>
      <trkpt lat="43.5527" lon="1.23999">
        <ele>188.6</ele>
        <time>2024-07-09T15:42:04Z</time>
      </trkpt>
      <trkpt lat="43.55271" lon="1.23989">
        <ele>188.6</ele>
        <time>2024-07-09T15:42:05Z</time>
      </trkpt>
      <trkpt lat="43.55271" lon="1.23989">
        <ele>188.6</ele>
        <time>2024-07-09T15:42:06Z</time>
      </trkpt>
      <trkpt lat="43.55272" lon="1.23969">
        <ele>188.6</ele>
        <time>2024-07-09T15:42:07Z</time>
      </trkpt>
      <trkpt lat="43.55273" lon="1.23959">
        <ele>188.6</ele>
        <time>2024-07-09T15:42:08Z</time>
      </trkpt>
      <trkpt lat="43.55273" lon="1.23948">
        <ele>188.6</ele>
        <time>2024-07-09T15:42:09Z</time>
      </trkpt>
      <trkpt lat="43.55274" lon="1.23938">
        <ele>188.6</ele>
        <time>2024-07-09T15:42:10Z</time>
      </trkpt>
      <trkpt lat="43.55275" lon="1.23927">
        <ele>188.4</ele>
        <time>2024-07-09T15:42:11Z</time>
      </trkpt>
      <trkpt lat="43.55276" lon="1.23916">
        <ele>188.4</ele>
        <time>2024-07-09T15:42:12Z</time>
      </trkpt>
      <trkpt lat="43.55277" lon="1.23906">
        <ele>188.4</ele>
        <time>2024-07-09T15:42:13Z</time>
      </trkpt>
      <trkpt lat="43.55278" lon="1.23892">
        <ele>188.4</ele>
        <time>2024-07-09T15:42:14Z</time>
      </trkpt>
      <trkpt lat="43.55279" lon="1.23883">
        <ele>188.2</ele>
        <time>2024-07-09T15:42:15Z</time>
      </trkpt>
      <trkpt lat="43.5528" lon="1.23871">
        <ele>188.2</ele>
        <time>2024-07-09T15:42:16Z</time>
      </trkpt>
      <trkpt lat="43.55281" lon="1.23859">
        <ele>188</ele>
        <time>2024-07-09T15:42:17Z</time>
      </trkpt>
      <trkpt lat="43.55282" lon="1.23847">
        <ele>187.8</ele>
        <time>2024-07-09T15:42:18Z</time>
      </trkpt>
      <trkpt lat="43.55283" lon="1.23835">
        <ele>187.6</ele>
        <time>2024-07-09T15:42:19Z</time>
      </trkpt>
      <trkpt lat="43.55284" lon="1.23823">
        <ele>187.2</ele>
        <time>2024-07-09T15:42:20Z</time>
      </trkpt>
      <trkpt lat="43.55286" lon="1.2381">
        <ele>186.8</ele>
        <time>2024-07-09T15:42:21Z</time>
      </trkpt>
      <trkpt lat="43.55287" lon="1.23798">
        <ele>186.4</ele>
        <time>2024-07-09T15:42:22Z</time>
      </trkpt>
      <trkpt lat="43.55288" lon="1.23785">
        <ele>186.2</ele>
        <time>2024-07-09T15:42:23Z</time>
      </trkpt>
      <trkpt lat="43.55289" lon="1.23773">
        <ele>185.8</ele>
        <time>2024-07-09T15:42:24Z</time>
      </trkpt>
      <trkpt lat="43.5529" lon="1.23761">
        <ele>185.4</ele>
        <time>2024-07-09T15:42:25Z</time>
      </trkpt>
      <trkpt lat="43.55291" lon="1.23749">
        <ele>185.2</ele>
        <time>2024-07-09T15:42:26Z</time>
      </trkpt>
      <trkpt lat="43.55292" lon="1.23738">
        <ele>185</ele>
        <time>2024-07-09T15:42:27Z</time>
      </trkpt>
      <trkpt lat="43.55293" lon="1.23728">
        <ele>184.8</ele>
        <time>2024-07-09T15:42:28Z</time>
      </trkpt>
      <trkpt lat="43.55294" lon="1.23717">
        <ele>184.6</ele>
        <time>2024-07-09T15:42:29Z</time>
      </trkpt>
      <trkpt lat="43.55295" lon="1.23706">
        <ele>184.4</ele>
        <time>2024-07-09T15:42:30Z</time>
      </trkpt>
      <trkpt lat="43.55296" lon="1.23696">
        <ele>184.4</ele>
        <time>2024-07-09T15:42:31Z</time>
      </trkpt>
      <trkpt lat="43.55296" lon="1.23685">
        <ele>184.2</ele>
        <time>2024-07-09T15:42:32Z</time>
      </trkpt>
      <trkpt lat="43.55297" lon="1.23675">
        <ele>184.2</ele>
        <time>2024-07-09T15:42:33Z</time>
      </trkpt>
      <trkpt lat="43.55297" lon="1.23664">
        <ele>184.2</ele>
        <time>2024-07-09T15:42:34Z</time>
      </trkpt>
      <trkpt lat="43.55297" lon="1.23655">
        <ele>184.2</ele>
        <time>2024-07-09T15:42:35Z</time>
      </trkpt>
      <trkpt lat="43.55297" lon="1.23645">
        <ele>184.2</ele>
        <time>2024-07-09T15:42:36Z</time>
      </trkpt>
      <trkpt lat="43.55297" lon="1.23636">
        <ele>184.4</ele>
        <time>2024-07-09T15:42:37Z</time>
      </trkpt>
      <trkpt lat="43.55297" lon="1.23627">
        <ele>184.4</ele>
        <time>2024-07-09T15:42:38Z</time>
      </trkpt>
      <trkpt lat="43.55297" lon="1.23619">
        <ele>184.6</ele>
        <time>2024-07-09T15:42:39Z</time>
      </trkpt>
      <trkpt lat="43.55299" lon="1.23612">
        <ele>184.6</ele>
        <time>2024-07-09T15:42:40Z</time>
      </trkpt>
      <trkpt lat="43.55302" lon="1.23609">
        <ele>184.8</ele>
        <time>2024-07-09T15:42:41Z</time>
      </trkpt>
      <trkpt lat="43.55306" lon="1.23609">
        <ele>185</ele>
        <time>2024-07-09T15:42:42Z</time>
      </trkpt>
      <trkpt lat="43.5531" lon="1.2361">
        <ele>185.2</ele>
        <time>2024-07-09T15:42:43Z</time>
      </trkpt>
      <trkpt lat="43.55314" lon="1.23613">
        <ele>185.4</ele>
        <time>2024-07-09T15:42:44Z</time>
      </trkpt>
      <trkpt lat="43.55318" lon="1.23616">
        <ele>185.6</ele>
        <time>2024-07-09T15:42:45Z</time>
      </trkpt>
      <trkpt lat="43.55322" lon="1.23619">
        <ele>185.8</ele>
        <time>2024-07-09T15:42:46Z</time>
      </trkpt>
      <trkpt lat="43.55326" lon="1.23623">
        <ele>186.2</ele>
        <time>2024-07-09T15:42:47Z</time>
      </trkpt>
      <trkpt lat="43.5533" lon="1.23627">
        <ele>186.4</ele>
        <time>2024-07-09T15:42:48Z</time>
      </trkpt>
      <trkpt lat="43.55334" lon="1.23633">
        <ele>186.6</ele>
        <time>2024-07-09T15:42:49Z</time>
      </trkpt>
      <trkpt lat="43.55337" lon="1.23638">
        <ele>186.6</ele>
        <time>2024-07-09T15:42:50Z</time>
      </trkpt>
      <trkpt lat="43.5534" lon="1.23644">
        <ele>186.8</ele>
        <time>2024-07-09T15:42:51Z</time>
      </trkpt>
      <trkpt lat="43.55344" lon="1.23649">
        <ele>187</ele>
        <time>2024-07-09T15:42:52Z</time>
      </trkpt>
      <trkpt lat="43.55347" lon="1.23655">
        <ele>187.2</ele>
        <time>2024-07-09T15:42:53Z</time>
      </trkpt>
      <trkpt lat="43.55351" lon="1.2366">
        <ele>187.2</ele>
        <time>2024-07-09T15:42:54Z</time>
      </trkpt>
      <trkpt lat="43.55355" lon="1.23665">
        <ele>187.2</ele>
        <time>2024-07-09T15:42:55Z</time>
      </trkpt>
      <trkpt lat="43.5536" lon="1.23671">
        <ele>187.4</ele>
        <time>2024-07-09T15:42:56Z</time>
      </trkpt>
      <trkpt lat="43.55364" lon="1.23676">
        <ele>187.4</ele>
        <time>2024-07-09T15:42:57Z</time>
      </trkpt>
      <trkpt lat="43.55369" lon="1.23681">
        <ele>187.6</ele>
        <time>2024-07-09T15:42:58Z</time>
      </trkpt>
      <trkpt lat="43.55373" lon="1.23686">
        <ele>187.6</ele>
        <time>2024-07-09T15:42:59Z</time>
      </trkpt>
      <trkpt lat="43.55377" lon="1.23692">
        <ele>187.6</ele>
        <time>2024-07-09T15:43:00Z</time>
      </trkpt>
      <trkpt lat="43.55382" lon="1.23698">
        <ele>187.8</ele>
        <time>2024-07-09T15:43:01Z</time>
      </trkpt>
      <trkpt lat="43.55386" lon="1.23703">
        <ele>187.8</ele>
        <time>2024-07-09T15:43:02Z</time>
      </trkpt>
      <trkpt lat="43.55391" lon="1.23708">
        <ele>187.8</ele>
        <time>2024-07-09T15:43:03Z</time>
      </trkpt>
      <trkpt lat="43.55396" lon="1.23711">
        <ele>187.8</ele>
        <time>2024-07-09T15:43:04Z</time>
      </trkpt>
      <trkpt lat="43.55401" lon="1.23713">
        <ele>187.8</ele>
        <time>2024-07-09T15:43:05Z</time>
      </trkpt>
      <trkpt lat="43.55406" lon="1.23712">
        <ele>188</ele>
        <time>2024-07-09T15:43:06Z</time>
      </trkpt>
      <trkpt lat="43.5541" lon="1.23709">
        <ele>188</ele>
        <time>2024-07-09T15:43:07Z</time>
      </trkpt>
      <trkpt lat="43.55415" lon="1.23705">
        <ele>188.2</ele>
        <time>2024-07-09T15:43:08Z</time>
      </trkpt>
      <trkpt lat="43.55419" lon="1.23701">
        <ele>188.2</ele>
        <time>2024-07-09T15:43:09Z</time>
      </trkpt>
      <trkpt lat="43.55424" lon="1.23698">
        <ele>188.2</ele>
        <time>2024-07-09T15:43:10Z</time>
      </trkpt>
      <trkpt lat="43.55428" lon="1.23694">
        <ele>188.4</ele>
        <time>2024-07-09T15:43:11Z</time>
      </trkpt>
      <trkpt lat="43.55433" lon="1.2369">
        <ele>188.4</ele>
        <time>2024-07-09T15:43:12Z</time>
      </trkpt>
      <trkpt lat="43.55438" lon="1.23686">
        <ele>188.4</ele>
        <time>2024-07-09T15:43:13Z</time>
      </trkpt>
      <trkpt lat="43.55443" lon="1.23682">
        <ele>188.4</ele>
        <time>2024-07-09T15:43:14Z</time>
      </trkpt>
      <trkpt lat="43.55449" lon="1.23678">
        <ele>188.6</ele>
        <time>2024-07-09T15:43:15Z</time>
      </trkpt>
      <trkpt lat="43.55454" lon="1.23675">
        <ele>188.6</ele>
        <time>2024-07-09T15:43:16Z</time>
      </trkpt>
      <trkpt lat="43.5546" lon="1.23671">
        <ele>188.6</ele>
        <time>2024-07-09T15:43:17Z</time>
      </trkpt>
      <trkpt lat="43.55465" lon="1.23667">
        <ele>188.6</ele>
        <time>2024-07-09T15:43:18Z</time>
      </trkpt>
      <trkpt lat="43.5547" lon="1.23663">
        <ele>188.6</ele>
        <time>2024-07-09T15:43:19Z</time>
      </trkpt>
      <trkpt lat="43.55475" lon="1.23659">
        <ele>188.6</ele>
        <time>2024-07-09T15:43:20Z</time>
      </trkpt>
      <trkpt lat="43.55479" lon="1.23654">
        <ele>188.6</ele>
        <time>2024-07-09T15:43:21Z</time>
      </trkpt>
      <trkpt lat="43.55482" lon="1.23648">
        <ele>188.6</ele>
        <time>2024-07-09T15:43:22Z</time>
      </trkpt>
      <trkpt lat="43.55483" lon="1.23642">
        <ele>188.6</ele>
        <time>2024-07-09T15:43:23Z</time>
      </trkpt>
      <trkpt lat="43.55482" lon="1.23639">
        <ele>188.6</ele>
        <time>2024-07-09T15:43:24Z</time>
      </trkpt>
      <trkpt lat="43.5548" lon="1.23635">
        <ele>188.6</ele>
        <time>2024-07-09T15:43:25Z</time>
      </trkpt>
      <trkpt lat="43.55478" lon="1.23632">
        <ele>188.8</ele>
        <time>2024-07-09T15:43:26Z</time>
      </trkpt>
      <trkpt lat="43.55475" lon="1.23627">
        <ele>188.8</ele>
        <time>2024-07-09T15:43:27Z</time>
      </trkpt>
      <trkpt lat="43.55472" lon="1.23622">
        <ele>188.8</ele>
        <time>2024-07-09T15:43:28Z</time>
      </trkpt>
      <trkpt lat="43.55469" lon="1.23617">
        <ele>188.8</ele>
        <time>2024-07-09T15:43:29Z</time>
      </trkpt>
      <trkpt lat="43.55467" lon="1.23612">
        <ele>188.8</ele>
        <time>2024-07-09T15:43:30Z</time>
      </trkpt>
      <trkpt lat="43.55464" lon="1.23606">
        <ele>188.8</ele>
        <time>2024-07-09T15:43:31Z</time>
      </trkpt>
      <trkpt lat="43.5546" lon="1.236">
        <ele>189</ele>
        <time>2024-07-09T15:43:32Z</time>
      </trkpt>
      <trkpt lat="43.5546" lon="1.236">
        <ele>188.8</ele>
        <time>2024-07-09T15:43:33Z</time>
      </trkpt>
      <trkpt lat="43.55453" lon="1.23588">
        <ele>188.8</ele>
        <time>2024-07-09T15:43:34Z</time>
      </trkpt>
      <trkpt lat="43.5545" lon="1.23582">
        <ele>188.8</ele>
        <time>2024-07-09T15:43:35Z</time>
      </trkpt>
      <trkpt lat="43.55447" lon="1.23577">
        <ele>188.8</ele>
        <time>2024-07-09T15:43:36Z</time>
      </trkpt>
      <trkpt lat="43.55445" lon="1.23571">
        <ele>188.8</ele>
        <time>2024-07-09T15:43:37Z</time>
      </trkpt>
      <trkpt lat="43.55444" lon="1.23564">
        <ele>188.8</ele>
        <time>2024-07-09T15:43:38Z</time>
      </trkpt>
      <trkpt lat="43.55444" lon="1.23559">
        <ele>188.8</ele>
        <time>2024-07-09T15:43:39Z</time>
      </trkpt>
      <trkpt lat="43.55446" lon="1.23553">
        <ele>188.8</ele>
        <time>2024-07-09T15:43:40Z</time>
      </trkpt>
      <trkpt lat="43.55449" lon="1.23547">
        <ele>188.8</ele>
        <time>2024-07-09T15:43:41Z</time>
      </trkpt>
      <trkpt lat="43.55452" lon="1.23542">
        <ele>188.8</ele>
        <time>2024-07-09T15:43:42Z</time>
      </trkpt>
      <trkpt lat="43.55456" lon="1.23536">
        <ele>188.8</ele>
        <time>2024-07-09T15:43:43Z</time>
      </trkpt>
      <trkpt lat="43.55461" lon="1.2353">
        <ele>188.8</ele>
        <time>2024-07-09T15:43:44Z</time>
      </trkpt>
      <trkpt lat="43.55466" lon="1.23524">
        <ele>188.8</ele>
        <time>2024-07-09T15:43:45Z</time>
      </trkpt>
      <trkpt lat="43.55471" lon="1.23519">
        <ele>189</ele>
        <time>2024-07-09T15:43:46Z</time>
      </trkpt>
      <trkpt lat="43.55475" lon="1.23514">
        <ele>189</ele>
        <time>2024-07-09T15:43:47Z</time>
      </trkpt>
      <trkpt lat="43.5548" lon="1.23509">
        <ele>189.2</ele>
        <time>2024-07-09T15:43:48Z</time>
      </trkpt>
      <trkpt lat="43.55484" lon="1.23503">
        <ele>189.2</ele>
        <time>2024-07-09T15:43:49Z</time>
      </trkpt>
      <trkpt lat="43.55488" lon="1.23497">
        <ele>189.4</ele>
        <time>2024-07-09T15:43:50Z</time>
      </trkpt>
      <trkpt lat="43.55492" lon="1.23491">
        <ele>189.4</ele>
        <time>2024-07-09T15:43:51Z</time>
      </trkpt>
      <trkpt lat="43.55497" lon="1.23485">
        <ele>189.6</ele>
        <time>2024-07-09T15:43:52Z</time>
      </trkpt>
      <trkpt lat="43.55502" lon="1.23479">
        <ele>189.6</ele>
        <time>2024-07-09T15:43:53Z</time>
      </trkpt>
      <trkpt lat="43.55507" lon="1.23474">
        <ele>189.6</ele>
        <time>2024-07-09T15:43:54Z</time>
      </trkpt>
      <trkpt lat="43.55511" lon="1.23468">
        <ele>189.6</ele>
        <time>2024-07-09T15:43:55Z</time>
      </trkpt>
      <trkpt lat="43.55516" lon="1.23463">
        <ele>189.4</ele>
        <time>2024-07-09T15:43:56Z</time>
      </trkpt>
      <trkpt lat="43.5552" lon="1.23457">
        <ele>189.4</ele>
        <time>2024-07-09T15:43:57Z</time>
      </trkpt>
      <trkpt lat="43.55525" lon="1.23452">
        <ele>189.4</ele>
        <time>2024-07-09T15:43:58Z</time>
      </trkpt>
      <trkpt lat="43.55529" lon="1.23446">
        <ele>189.4</ele>
        <time>2024-07-09T15:43:59Z</time>
      </trkpt>
      <trkpt lat="43.55532" lon="1.23441">
        <ele>189.4</ele>
        <time>2024-07-09T15:44:00Z</time>
      </trkpt>
      <trkpt lat="43.55532" lon="1.23436">
        <ele>189.4</ele>
        <time>2024-07-09T15:44:01Z</time>
      </trkpt>
      <trkpt lat="43.55531" lon="1.23433">
        <ele>189.4</ele>
        <time>2024-07-09T15:44:02Z</time>
      </trkpt>
      <trkpt lat="43.55529" lon="1.23429">
        <ele>189.4</ele>
        <time>2024-07-09T15:44:03Z</time>
      </trkpt>
      <trkpt lat="43.55526" lon="1.23427">
        <ele>189.4</ele>
        <time>2024-07-09T15:44:04Z</time>
      </trkpt>
      <trkpt lat="43.55524" lon="1.23425">
        <ele>189.4</ele>
        <time>2024-07-09T15:44:05Z</time>
      </trkpt>
      <trkpt lat="43.55521" lon="1.23423">
        <ele>189.4</ele>
        <time>2024-07-09T15:44:06Z</time>
      </trkpt>
      <trkpt lat="43.55518" lon="1.2342">
        <ele>189.2</ele>
        <time>2024-07-09T15:44:07Z</time>
      </trkpt>
      <trkpt lat="43.55514" lon="1.23418">
        <ele>189.2</ele>
        <time>2024-07-09T15:44:08Z</time>
      </trkpt>
      <trkpt lat="43.5551" lon="1.23415">
        <ele>189.2</ele>
        <time>2024-07-09T15:44:09Z</time>
      </trkpt>
      <trkpt lat="43.55506" lon="1.23412">
        <ele>189.2</ele>
        <time>2024-07-09T15:44:10Z</time>
      </trkpt>
      <trkpt lat="43.55501" lon="1.23409">
        <ele>189</ele>
        <time>2024-07-09T15:44:11Z</time>
      </trkpt>
      <trkpt lat="43.55497" lon="1.23405">
        <ele>189</ele>
        <time>2024-07-09T15:44:12Z</time>
      </trkpt>
      <trkpt lat="43.55492" lon="1.23401">
        <ele>189</ele>
        <time>2024-07-09T15:44:13Z</time>
      </trkpt>
      <trkpt lat="43.55488" lon="1.23395">
        <ele>189</ele>
        <time>2024-07-09T15:44:14Z</time>
      </trkpt>
      <trkpt lat="43.55485" lon="1.23387">
        <ele>189</ele>
        <time>2024-07-09T15:44:15Z</time>
      </trkpt>
      <trkpt lat="43.55482" lon="1.23379">
        <ele>188.8</ele>
        <time>2024-07-09T15:44:16Z</time>
      </trkpt>
      <trkpt lat="43.55479" lon="1.23372">
        <ele>188.8</ele>
        <time>2024-07-09T15:44:17Z</time>
      </trkpt>
      <trkpt lat="43.55476" lon="1.23365">
        <ele>188.8</ele>
        <time>2024-07-09T15:44:18Z</time>
      </trkpt>
      <trkpt lat="43.55474" lon="1.23357">
        <ele>188.8</ele>
        <time>2024-07-09T15:44:19Z</time>
      </trkpt>
      <trkpt lat="43.55472" lon="1.23349">
        <ele>188.8</ele>
        <time>2024-07-09T15:44:20Z</time>
      </trkpt>
      <trkpt lat="43.5547" lon="1.23342">
        <ele>188.6</ele>
        <time>2024-07-09T15:44:21Z</time>
      </trkpt>
      <trkpt lat="43.5547" lon="1.23334">
        <ele>188.6</ele>
        <time>2024-07-09T15:44:22Z</time>
      </trkpt>
      <trkpt lat="43.55472" lon="1.23329">
        <ele>188.6</ele>
        <time>2024-07-09T15:44:23Z</time>
      </trkpt>
      <trkpt lat="43.55476" lon="1.23323">
        <ele>188.4</ele>
        <time>2024-07-09T15:44:24Z</time>
      </trkpt>
      <trkpt lat="43.55479" lon="1.23317">
        <ele>188.4</ele>
        <time>2024-07-09T15:44:25Z</time>
      </trkpt>
      <trkpt lat="43.55483" lon="1.23312">
        <ele>188.2</ele>
        <time>2024-07-09T15:44:26Z</time>
      </trkpt>
      <trkpt lat="43.55486" lon="1.23305">
        <ele>188.2</ele>
        <time>2024-07-09T15:44:27Z</time>
      </trkpt>
      <trkpt lat="43.5549" lon="1.23299">
        <ele>188</ele>
        <time>2024-07-09T15:44:28Z</time>
      </trkpt>
      <trkpt lat="43.55494" lon="1.23293">
        <ele>188</ele>
        <time>2024-07-09T15:44:29Z</time>
      </trkpt>
      <trkpt lat="43.55498" lon="1.23288">
        <ele>188</ele>
        <time>2024-07-09T15:44:30Z</time>
      </trkpt>
      <trkpt lat="43.55502" lon="1.23281">
        <ele>188</ele>
        <time>2024-07-09T15:44:31Z</time>
      </trkpt>
      <trkpt lat="43.55506" lon="1.23274">
        <ele>188</ele>
        <time>2024-07-09T15:44:32Z</time>
      </trkpt>
      <trkpt lat="43.55509" lon="1.23268">
        <ele>188</ele>
        <time>2024-07-09T15:44:33Z</time>
      </trkpt>
      <trkpt lat="43.55513" lon="1.23262">
        <ele>188</ele>
        <time>2024-07-09T15:44:34Z</time>
      </trkpt>
      <trkpt lat="43.55516" lon="1.23254">
        <ele>188</ele>
        <time>2024-07-09T15:44:35Z</time>
      </trkpt>
      <trkpt lat="43.5552" lon="1.23247">
        <ele>188</ele>
        <time>2024-07-09T15:44:36Z</time>
      </trkpt>
      <trkpt lat="43.55522" lon="1.23239">
        <ele>188</ele>
        <time>2024-07-09T15:44:37Z</time>
      </trkpt>
      <trkpt lat="43.55524" lon="1.23231">
        <ele>188</ele>
        <time>2024-07-09T15:44:38Z</time>
      </trkpt>
      <trkpt lat="43.55525" lon="1.23222">
        <ele>188</ele>
        <time>2024-07-09T15:44:39Z</time>
      </trkpt>
      <trkpt lat="43.55526" lon="1.23213">
        <ele>188</ele>
        <time>2024-07-09T15:44:40Z</time>
      </trkpt>
      <trkpt lat="43.55528" lon="1.23205">
        <ele>188</ele>
        <time>2024-07-09T15:44:41Z</time>
      </trkpt>
      <trkpt lat="43.55529" lon="1.23197">
        <ele>188</ele>
        <time>2024-07-09T15:44:42Z</time>
      </trkpt>
      <trkpt lat="43.55531" lon="1.23189">
        <ele>188</ele>
        <time>2024-07-09T15:44:43Z</time>
      </trkpt>
      <trkpt lat="43.55533" lon="1.2318">
        <ele>188</ele>
        <time>2024-07-09T15:44:44Z</time>
      </trkpt>
      <trkpt lat="43.55534" lon="1.23172">
        <ele>188</ele>
        <time>2024-07-09T15:44:45Z</time>
      </trkpt>
      <trkpt lat="43.55536" lon="1.23164">
        <ele>188</ele>
        <time>2024-07-09T15:44:46Z</time>
      </trkpt>
      <trkpt lat="43.55537" lon="1.23156">
        <ele>187.8</ele>
        <time>2024-07-09T15:44:47Z</time>
      </trkpt>
      <trkpt lat="43.55539" lon="1.23146">
        <ele>187.8</ele>
        <time>2024-07-09T15:44:48Z</time>
      </trkpt>
      <trkpt lat="43.5554" lon="1.23139">
        <ele>187.8</ele>
        <time>2024-07-09T15:44:49Z</time>
      </trkpt>
      <trkpt lat="43.55541" lon="1.23132">
        <ele>187.8</ele>
        <time>2024-07-09T15:44:50Z</time>
      </trkpt>
      <trkpt lat="43.55542" lon="1.23124">
        <ele>187.8</ele>
        <time>2024-07-09T15:44:51Z</time>
      </trkpt>
      <trkpt lat="43.55544" lon="1.23117">
        <ele>187.6</ele>
        <time>2024-07-09T15:44:52Z</time>
      </trkpt>
      <trkpt lat="43.55546" lon="1.23113">
        <ele>187.6</ele>
        <time>2024-07-09T15:44:53Z</time>
      </trkpt>
      <trkpt lat="43.55549" lon="1.2311">
        <ele>187.4</ele>
        <time>2024-07-09T15:44:54Z</time>
      </trkpt>
      <trkpt lat="43.55551" lon="1.23108">
        <ele>187.4</ele>
        <time>2024-07-09T15:44:55Z</time>
      </trkpt>
      <trkpt lat="43.55553" lon="1.23105">
        <ele>187.4</ele>
        <time>2024-07-09T15:44:56Z</time>
      </trkpt>
      <trkpt lat="43.55555" lon="1.23103">
        <ele>187.4</ele>
        <time>2024-07-09T15:44:57Z</time>
      </trkpt>
      <trkpt lat="43.55557" lon="1.23102">
        <ele>187.4</ele>
        <time>2024-07-09T15:44:58Z</time>
      </trkpt>
      <trkpt lat="43.55559" lon="1.231">
        <ele>187.4</ele>
        <time>2024-07-09T15:44:59Z</time>
      </trkpt>
      <trkpt lat="43.55562" lon="1.23098">
        <ele>187.4</ele>
        <time>2024-07-09T15:45:00Z</time>
      </trkpt>
      <trkpt lat="43.55566" lon="1.23097">
        <ele>187.4</ele>
        <time>2024-07-09T15:45:01Z</time>
      </trkpt>
      <trkpt lat="43.55569" lon="1.23095">
        <ele>187.4</ele>
        <time>2024-07-09T15:45:02Z</time>
      </trkpt>
      <trkpt lat="43.55572" lon="1.23092">
        <ele>187.4</ele>
        <time>2024-07-09T15:45:03Z</time>
      </trkpt>
      <trkpt lat="43.55575" lon="1.23089">
        <ele>187.6</ele>
        <time>2024-07-09T15:45:04Z</time>
      </trkpt>
      <trkpt lat="43.55578" lon="1.23085">
        <ele>187.6</ele>
        <time>2024-07-09T15:45:05Z</time>
      </trkpt>
      <trkpt lat="43.5558" lon="1.2308">
        <ele>187.6</ele>
        <time>2024-07-09T15:45:06Z</time>
      </trkpt>
      <trkpt lat="43.55584" lon="1.23074">
        <ele>187.6</ele>
        <time>2024-07-09T15:45:07Z</time>
      </trkpt>
      <trkpt lat="43.55586" lon="1.23071">
        <ele>187.6</ele>
        <time>2024-07-09T15:45:08Z</time>
      </trkpt>
      <trkpt lat="43.55589" lon="1.23066">
        <ele>187.8</ele>
        <time>2024-07-09T15:45:09Z</time>
      </trkpt>
      <trkpt lat="43.55591" lon="1.23061">
        <ele>187.8</ele>
        <time>2024-07-09T15:45:10Z</time>
      </trkpt>
      <trkpt lat="43.55593" lon="1.23055">
        <ele>187.8</ele>
        <time>2024-07-09T15:45:11Z</time>
      </trkpt>
      <trkpt lat="43.55595" lon="1.2305">
        <ele>187.8</ele>
        <time>2024-07-09T15:45:12Z</time>
      </trkpt>
      <trkpt lat="43.55599" lon="1.23045">
        <ele>187.8</ele>
        <time>2024-07-09T15:45:13Z</time>
      </trkpt>
      <trkpt lat="43.55602" lon="1.2304">
        <ele>188</ele>
        <time>2024-07-09T15:45:14Z</time>
      </trkpt>
      <trkpt lat="43.55606" lon="1.23036">
        <ele>188</ele>
        <time>2024-07-09T15:45:15Z</time>
      </trkpt>
      <trkpt lat="43.5561" lon="1.23032">
        <ele>188.2</ele>
        <time>2024-07-09T15:45:16Z</time>
      </trkpt>
      <trkpt lat="43.55614" lon="1.23027">
        <ele>188.4</ele>
        <time>2024-07-09T15:45:17Z</time>
      </trkpt>
      <trkpt lat="43.55616" lon="1.23021">
        <ele>188.4</ele>
        <time>2024-07-09T15:45:18Z</time>
      </trkpt>
      <trkpt lat="43.55618" lon="1.23016">
        <ele>188.6</ele>
        <time>2024-07-09T15:45:19Z</time>
      </trkpt>
      <trkpt lat="43.55621" lon="1.23011">
        <ele>188.6</ele>
        <time>2024-07-09T15:45:20Z</time>
      </trkpt>
      <trkpt lat="43.55625" lon="1.23007">
        <ele>188.8</ele>
        <time>2024-07-09T15:45:21Z</time>
      </trkpt>
      <trkpt lat="43.5563" lon="1.23001">
        <ele>189</ele>
        <time>2024-07-09T15:45:22Z</time>
      </trkpt>
      <trkpt lat="43.55634" lon="1.22997">
        <ele>189</ele>
        <time>2024-07-09T15:45:23Z</time>
      </trkpt>
      <trkpt lat="43.55639" lon="1.22993">
        <ele>189</ele>
        <time>2024-07-09T15:45:24Z</time>
      </trkpt>
      <trkpt lat="43.55644" lon="1.22988">
        <ele>189</ele>
        <time>2024-07-09T15:45:25Z</time>
      </trkpt>
      <trkpt lat="43.5565" lon="1.22981">
        <ele>189</ele>
        <time>2024-07-09T15:45:26Z</time>
      </trkpt>
      <trkpt lat="43.55653" lon="1.22976">
        <ele>189</ele>
        <time>2024-07-09T15:45:27Z</time>
      </trkpt>
      <trkpt lat="43.55657" lon="1.22969">
        <ele>189</ele>
        <time>2024-07-09T15:45:28Z</time>
      </trkpt>
      <trkpt lat="43.55659" lon="1.22963">
        <ele>189</ele>
        <time>2024-07-09T15:45:29Z</time>
      </trkpt>
      <trkpt lat="43.55662" lon="1.22957">
        <ele>189</ele>
        <time>2024-07-09T15:45:30Z</time>
      </trkpt>
      <trkpt lat="43.55665" lon="1.22952">
        <ele>189</ele>
        <time>2024-07-09T15:45:31Z</time>
      </trkpt>
      <trkpt lat="43.55667" lon="1.22944">
        <ele>189</ele>
        <time>2024-07-09T15:45:32Z</time>
      </trkpt>
      <trkpt lat="43.55669" lon="1.22936">
        <ele>188.8</ele>
        <time>2024-07-09T15:45:33Z</time>
      </trkpt>
      <trkpt lat="43.55671" lon="1.22929">
        <ele>188.8</ele>
        <time>2024-07-09T15:45:34Z</time>
      </trkpt>
      <trkpt lat="43.55673" lon="1.22921">
        <ele>188.8</ele>
        <time>2024-07-09T15:45:35Z</time>
      </trkpt>
      <trkpt lat="43.55673" lon="1.22911">
        <ele>188.6</ele>
        <time>2024-07-09T15:45:36Z</time>
      </trkpt>
      <trkpt lat="43.55672" lon="1.229">
        <ele>188.6</ele>
        <time>2024-07-09T15:45:37Z</time>
      </trkpt>
      <trkpt lat="43.55671" lon="1.22892">
        <ele>188.4</ele>
        <time>2024-07-09T15:45:38Z</time>
      </trkpt>
      <trkpt lat="43.55672" lon="1.22886">
        <ele>188.2</ele>
        <time>2024-07-09T15:45:39Z</time>
      </trkpt>
      <trkpt lat="43.55675" lon="1.22884">
        <ele>188</ele>
        <time>2024-07-09T15:45:40Z</time>
      </trkpt>
      <trkpt lat="43.55679" lon="1.22883">
        <ele>187.6</ele>
        <time>2024-07-09T15:45:41Z</time>
      </trkpt>
      <trkpt lat="43.55683" lon="1.22882">
        <ele>187.4</ele>
        <time>2024-07-09T15:45:42Z</time>
      </trkpt>
      <trkpt lat="43.55688" lon="1.22883">
        <ele>187</ele>
        <time>2024-07-09T15:45:43Z</time>
      </trkpt>
      <trkpt lat="43.55693" lon="1.22884">
        <ele>186.4</ele>
        <time>2024-07-09T15:45:44Z</time>
      </trkpt>
      <trkpt lat="43.55697" lon="1.22885">
        <ele>186.2</ele>
        <time>2024-07-09T15:45:45Z</time>
      </trkpt>
      <trkpt lat="43.55702" lon="1.22885">
        <ele>186</ele>
        <time>2024-07-09T15:45:46Z</time>
      </trkpt>
      <trkpt lat="43.55706" lon="1.22885">
        <ele>186</ele>
        <time>2024-07-09T15:45:47Z</time>
      </trkpt>
      <trkpt lat="43.5571" lon="1.22886">
        <ele>185.8</ele>
        <time>2024-07-09T15:45:48Z</time>
      </trkpt>
      <trkpt lat="43.55715" lon="1.22887">
        <ele>185.8</ele>
        <time>2024-07-09T15:45:49Z</time>
      </trkpt>
      <trkpt lat="43.55721" lon="1.22888">
        <ele>185.6</ele>
        <time>2024-07-09T15:45:50Z</time>
      </trkpt>
      <trkpt lat="43.55725" lon="1.22889">
        <ele>185.4</ele>
        <time>2024-07-09T15:45:51Z</time>
      </trkpt>
      <trkpt lat="43.55729" lon="1.22887">
        <ele>185.2</ele>
        <time>2024-07-09T15:45:52Z</time>
      </trkpt>
      <trkpt lat="43.55732" lon="1.22883">
        <ele>185.2</ele>
        <time>2024-07-09T15:45:53Z</time>
      </trkpt>
      <trkpt lat="43.55733" lon="1.22878">
        <ele>185</ele>
        <time>2024-07-09T15:45:54Z</time>
      </trkpt>
      <trkpt lat="43.55733" lon="1.22872">
        <ele>185</ele>
        <time>2024-07-09T15:45:55Z</time>
      </trkpt>
      <trkpt lat="43.55733" lon="1.22867">
        <ele>184.8</ele>
        <time>2024-07-09T15:45:56Z</time>
      </trkpt>
      <trkpt lat="43.55732" lon="1.22862">
        <ele>184.8</ele>
        <time>2024-07-09T15:45:57Z</time>
      </trkpt>
      <trkpt lat="43.55732" lon="1.22856">
        <ele>185</ele>
        <time>2024-07-09T15:45:58Z</time>
      </trkpt>
      <trkpt lat="43.55732" lon="1.2285">
        <ele>185</ele>
        <time>2024-07-09T15:45:59Z</time>
      </trkpt>
      <trkpt lat="43.55732" lon="1.22846">
        <ele>185.2</ele>
        <time>2024-07-09T15:46:00Z</time>
      </trkpt>
      <trkpt lat="43.55732" lon="1.2284">
        <ele>185.4</ele>
        <time>2024-07-09T15:46:01Z</time>
      </trkpt>
      <trkpt lat="43.55732" lon="1.22834">
        <ele>185.4</ele>
        <time>2024-07-09T15:46:02Z</time>
      </trkpt>
      <trkpt lat="43.55732" lon="1.22828">
        <ele>185.6</ele>
        <time>2024-07-09T15:46:03Z</time>
      </trkpt>
      <trkpt lat="43.55733" lon="1.22822">
        <ele>185.8</ele>
        <time>2024-07-09T15:46:04Z</time>
      </trkpt>
      <trkpt lat="43.55733" lon="1.22815">
        <ele>185.8</ele>
        <time>2024-07-09T15:46:05Z</time>
      </trkpt>
      <trkpt lat="43.55733" lon="1.22809">
        <ele>186</ele>
        <time>2024-07-09T15:46:06Z</time>
      </trkpt>
      <trkpt lat="43.55733" lon="1.22801">
        <ele>186.2</ele>
        <time>2024-07-09T15:46:07Z</time>
      </trkpt>
      <trkpt lat="43.55733" lon="1.22796">
        <ele>186.2</ele>
        <time>2024-07-09T15:46:08Z</time>
      </trkpt>
      <trkpt lat="43.55733" lon="1.22789">
        <ele>186.2</ele>
        <time>2024-07-09T15:46:09Z</time>
      </trkpt>
      <trkpt lat="43.55734" lon="1.22782">
        <ele>186.4</ele>
        <time>2024-07-09T15:46:10Z</time>
      </trkpt>
      <trkpt lat="43.55734" lon="1.22776">
        <ele>186.4</ele>
        <time>2024-07-09T15:46:11Z</time>
      </trkpt>
      <trkpt lat="43.55734" lon="1.22769">
        <ele>186.6</ele>
        <time>2024-07-09T15:46:12Z</time>
      </trkpt>
      <trkpt lat="43.55734" lon="1.22761">
        <ele>186.6</ele>
        <time>2024-07-09T15:46:13Z</time>
      </trkpt>
      <trkpt lat="43.55734" lon="1.22756">
        <ele>186.6</ele>
        <time>2024-07-09T15:46:14Z</time>
      </trkpt>
      <trkpt lat="43.55734" lon="1.22749">
        <ele>186.6</ele>
        <time>2024-07-09T15:46:15Z</time>
      </trkpt>
      <trkpt lat="43.55733" lon="1.22743">
        <ele>186.8</ele>
        <time>2024-07-09T15:46:16Z</time>
      </trkpt>
      <trkpt lat="43.55733" lon="1.22736">
        <ele>187</ele>
        <time>2024-07-09T15:46:17Z</time>
      </trkpt>
      <trkpt lat="43.55733" lon="1.22729">
        <ele>187</ele>
        <time>2024-07-09T15:46:18Z</time>
      </trkpt>
      <trkpt lat="43.55733" lon="1.22723">
        <ele>187.2</ele>
        <time>2024-07-09T15:46:19Z</time>
      </trkpt>
      <trkpt lat="43.55734" lon="1.22716">
        <ele>187.4</ele>
        <time>2024-07-09T15:46:20Z</time>
      </trkpt>
      <trkpt lat="43.55734" lon="1.2271">
        <ele>187.4</ele>
        <time>2024-07-09T15:46:21Z</time>
      </trkpt>
      <trkpt lat="43.55734" lon="1.22703">
        <ele>187.6</ele>
        <time>2024-07-09T15:46:22Z</time>
      </trkpt>
      <trkpt lat="43.55734" lon="1.22694">
        <ele>187.8</ele>
        <time>2024-07-09T15:46:23Z</time>
      </trkpt>
      <trkpt lat="43.55734" lon="1.22689">
        <ele>187.8</ele>
        <time>2024-07-09T15:46:24Z</time>
      </trkpt>
      <trkpt lat="43.55735" lon="1.22682">
        <ele>188</ele>
        <time>2024-07-09T15:46:25Z</time>
      </trkpt>
      <trkpt lat="43.55735" lon="1.22674">
        <ele>188</ele>
        <time>2024-07-09T15:46:26Z</time>
      </trkpt>
      <trkpt lat="43.55736" lon="1.22668">
        <ele>188.2</ele>
        <time>2024-07-09T15:46:27Z</time>
      </trkpt>
      <trkpt lat="43.55738" lon="1.22664">
        <ele>188.4</ele>
        <time>2024-07-09T15:46:28Z</time>
      </trkpt>
      <trkpt lat="43.55741" lon="1.2266">
        <ele>188.6</ele>
        <time>2024-07-09T15:46:29Z</time>
      </trkpt>
      <trkpt lat="43.55744" lon="1.22658">
        <ele>188.6</ele>
        <time>2024-07-09T15:46:30Z</time>
      </trkpt>
      <trkpt lat="43.55749" lon="1.22657">
        <ele>188.6</ele>
        <time>2024-07-09T15:46:31Z</time>
      </trkpt>
      <trkpt lat="43.55755" lon="1.22657">
        <ele>188.6</ele>
        <time>2024-07-09T15:46:32Z</time>
      </trkpt>
      <trkpt lat="43.55759" lon="1.22658">
        <ele>188.6</ele>
        <time>2024-07-09T15:46:33Z</time>
      </trkpt>
      <trkpt lat="43.55764" lon="1.22658">
        <ele>188.6</ele>
        <time>2024-07-09T15:46:34Z</time>
      </trkpt>
      <trkpt lat="43.55769" lon="1.22657">
        <ele>188.6</ele>
        <time>2024-07-09T15:46:35Z</time>
      </trkpt>
      <trkpt lat="43.55774" lon="1.22655">
        <ele>188.4</ele>
        <time>2024-07-09T15:46:36Z</time>
      </trkpt>
      <trkpt lat="43.55777" lon="1.22649">
        <ele>188.4</ele>
        <time>2024-07-09T15:46:37Z</time>
      </trkpt>
      <trkpt lat="43.55777" lon="1.22649">
        <ele>188.4</ele>
        <time>2024-07-09T15:46:38Z</time>
      </trkpt>
      <trkpt lat="43.55779" lon="1.22634">
        <ele>188.2</ele>
        <time>2024-07-09T15:46:39Z</time>
      </trkpt>
      <trkpt lat="43.55778" lon="1.22625">
        <ele>188.2</ele>
        <time>2024-07-09T15:46:40Z</time>
      </trkpt>
      <trkpt lat="43.55776" lon="1.22619">
        <ele>188.4</ele>
        <time>2024-07-09T15:46:41Z</time>
      </trkpt>
      <trkpt lat="43.55774" lon="1.2261">
        <ele>188</ele>
        <time>2024-07-09T15:46:42Z</time>
      </trkpt>
      <trkpt lat="43.55772" lon="1.22602">
        <ele>188.2</ele>
        <time>2024-07-09T15:46:43Z</time>
      </trkpt>
      <trkpt lat="43.55771" lon="1.22594">
        <ele>188</ele>
        <time>2024-07-09T15:46:44Z</time>
      </trkpt>
      <trkpt lat="43.55769" lon="1.22586">
        <ele>188</ele>
        <time>2024-07-09T15:46:45Z</time>
      </trkpt>
      <trkpt lat="43.55768" lon="1.22576">
        <ele>188.4</ele>
        <time>2024-07-09T15:46:46Z</time>
      </trkpt>
      <trkpt lat="43.55769" lon="1.2257">
        <ele>188.4</ele>
        <time>2024-07-09T15:46:47Z</time>
      </trkpt>
      <trkpt lat="43.5577" lon="1.22562">
        <ele>188.4</ele>
        <time>2024-07-09T15:46:48Z</time>
      </trkpt>
      <trkpt lat="43.55773" lon="1.22553">
        <ele>188.4</ele>
        <time>2024-07-09T15:46:49Z</time>
      </trkpt>
      <trkpt lat="43.55776" lon="1.22548">
        <ele>188.4</ele>
        <time>2024-07-09T15:46:50Z</time>
      </trkpt>
      <trkpt lat="43.5578" lon="1.2254">
        <ele>188.6</ele>
        <time>2024-07-09T15:46:51Z</time>
      </trkpt>
      <trkpt lat="43.55783" lon="1.22534">
        <ele>188.6</ele>
        <time>2024-07-09T15:46:52Z</time>
      </trkpt>
      <trkpt lat="43.55786" lon="1.22528">
        <ele>188.6</ele>
        <time>2024-07-09T15:46:53Z</time>
      </trkpt>
      <trkpt lat="43.5579" lon="1.22521">
        <ele>188.6</ele>
        <time>2024-07-09T15:46:54Z</time>
      </trkpt>
      <trkpt lat="43.55794" lon="1.22515">
        <ele>189</ele>
        <time>2024-07-09T15:46:55Z</time>
      </trkpt>
      <trkpt lat="43.55798" lon="1.22508">
        <ele>189</ele>
        <time>2024-07-09T15:46:56Z</time>
      </trkpt>
      <trkpt lat="43.55803" lon="1.22502">
        <ele>189.2</ele>
        <time>2024-07-09T15:46:57Z</time>
      </trkpt>
      <trkpt lat="43.55807" lon="1.22495">
        <ele>189.4</ele>
        <time>2024-07-09T15:46:58Z</time>
      </trkpt>
      <trkpt lat="43.55811" lon="1.22488">
        <ele>189.4</ele>
        <time>2024-07-09T15:46:59Z</time>
      </trkpt>
      <trkpt lat="43.55815" lon="1.22482">
        <ele>189.4</ele>
        <time>2024-07-09T15:47:00Z</time>
      </trkpt>
      <trkpt lat="43.55819" lon="1.22475">
        <ele>189.4</ele>
        <time>2024-07-09T15:47:01Z</time>
      </trkpt>
      <trkpt lat="43.55823" lon="1.22469">
        <ele>189.4</ele>
        <time>2024-07-09T15:47:02Z</time>
      </trkpt>
      <trkpt lat="43.55828" lon="1.22462">
        <ele>189.6</ele>
        <time>2024-07-09T15:47:03Z</time>
      </trkpt>
      <trkpt lat="43.55832" lon="1.22455">
        <ele>189.6</ele>
        <time>2024-07-09T15:47:04Z</time>
      </trkpt>
      <trkpt lat="43.55836" lon="1.22449">
        <ele>189.6</ele>
        <time>2024-07-09T15:47:05Z</time>
      </trkpt>
      <trkpt lat="43.5584" lon="1.22442">
        <ele>189.8</ele>
        <time>2024-07-09T15:47:06Z</time>
      </trkpt>
      <trkpt lat="43.55844" lon="1.22436">
        <ele>189.8</ele>
        <time>2024-07-09T15:47:07Z</time>
      </trkpt>
      <trkpt lat="43.55848" lon="1.22431">
        <ele>189.8</ele>
        <time>2024-07-09T15:47:08Z</time>
      </trkpt>
      <trkpt lat="43.55852" lon="1.22425">
        <ele>189.8</ele>
        <time>2024-07-09T15:47:09Z</time>
      </trkpt>
      <trkpt lat="43.55857" lon="1.22419">
        <ele>189.8</ele>
        <time>2024-07-09T15:47:10Z</time>
      </trkpt>
      <trkpt lat="43.55862" lon="1.22416">
        <ele>189.8</ele>
        <time>2024-07-09T15:47:11Z</time>
      </trkpt>
      <trkpt lat="43.55867" lon="1.22417">
        <ele>190</ele>
        <time>2024-07-09T15:47:12Z</time>
      </trkpt>
      <trkpt lat="43.55871" lon="1.22421">
        <ele>190</ele>
        <time>2024-07-09T15:47:13Z</time>
      </trkpt>
      <trkpt lat="43.55876" lon="1.22427">
        <ele>190</ele>
        <time>2024-07-09T15:47:14Z</time>
      </trkpt>
      <trkpt lat="43.55879" lon="1.22432">
        <ele>190.2</ele>
        <time>2024-07-09T15:47:15Z</time>
      </trkpt>
      <trkpt lat="43.55883" lon="1.22438">
        <ele>190.2</ele>
        <time>2024-07-09T15:47:16Z</time>
      </trkpt>
      <trkpt lat="43.55887" lon="1.22445">
        <ele>190.2</ele>
        <time>2024-07-09T15:47:17Z</time>
      </trkpt>
      <trkpt lat="43.5589" lon="1.22452">
        <ele>190.4</ele>
        <time>2024-07-09T15:47:18Z</time>
      </trkpt>
      <trkpt lat="43.55894" lon="1.2246">
        <ele>190.4</ele>
        <time>2024-07-09T15:47:19Z</time>
      </trkpt>
      <trkpt lat="43.55897" lon="1.22466">
        <ele>190.4</ele>
        <time>2024-07-09T15:47:20Z</time>
      </trkpt>
      <trkpt lat="43.55901" lon="1.22473">
        <ele>190.4</ele>
        <time>2024-07-09T15:47:21Z</time>
      </trkpt>
      <trkpt lat="43.55904" lon="1.22479">
        <ele>190.6</ele>
        <time>2024-07-09T15:47:22Z</time>
      </trkpt>
      <trkpt lat="43.55908" lon="1.22486">
        <ele>190.6</ele>
        <time>2024-07-09T15:47:23Z</time>
      </trkpt>
      <trkpt lat="43.55911" lon="1.22493">
        <ele>190.6</ele>
        <time>2024-07-09T15:47:24Z</time>
      </trkpt>
      <trkpt lat="43.55914" lon="1.225">
        <ele>190.8</ele>
        <time>2024-07-09T15:47:25Z</time>
      </trkpt>
      <trkpt lat="43.55918" lon="1.22507">
        <ele>190.8</ele>
        <time>2024-07-09T15:47:26Z</time>
      </trkpt>
      <trkpt lat="43.55921" lon="1.22514">
        <ele>190.8</ele>
        <time>2024-07-09T15:47:27Z</time>
      </trkpt>
      <trkpt lat="43.55925" lon="1.2252">
        <ele>190.8</ele>
        <time>2024-07-09T15:47:28Z</time>
      </trkpt>
      <trkpt lat="43.55929" lon="1.22527">
        <ele>190.8</ele>
        <time>2024-07-09T15:47:29Z</time>
      </trkpt>
      <trkpt lat="43.55933" lon="1.22534">
        <ele>191</ele>
        <time>2024-07-09T15:47:30Z</time>
      </trkpt>
      <trkpt lat="43.55936" lon="1.22541">
        <ele>191</ele>
        <time>2024-07-09T15:47:31Z</time>
      </trkpt>
      <trkpt lat="43.5594" lon="1.22549">
        <ele>191</ele>
        <time>2024-07-09T15:47:32Z</time>
      </trkpt>
      <trkpt lat="43.55943" lon="1.22557">
        <ele>191</ele>
        <time>2024-07-09T15:47:33Z</time>
      </trkpt>
      <trkpt lat="43.55947" lon="1.22564">
        <ele>191</ele>
        <time>2024-07-09T15:47:34Z</time>
      </trkpt>
      <trkpt lat="43.55951" lon="1.22572">
        <ele>191</ele>
        <time>2024-07-09T15:47:35Z</time>
      </trkpt>
      <trkpt lat="43.55954" lon="1.2258">
        <ele>191</ele>
        <time>2024-07-09T15:47:36Z</time>
      </trkpt>
      <trkpt lat="43.55958" lon="1.22588">
        <ele>191</ele>
        <time>2024-07-09T15:47:37Z</time>
      </trkpt>
      <trkpt lat="43.55962" lon="1.22596">
        <ele>191</ele>
        <time>2024-07-09T15:47:38Z</time>
      </trkpt>
      <trkpt lat="43.55966" lon="1.22604">
        <ele>191</ele>
        <time>2024-07-09T15:47:39Z</time>
      </trkpt>
      <trkpt lat="43.55969" lon="1.22612">
        <ele>191</ele>
        <time>2024-07-09T15:47:40Z</time>
      </trkpt>
      <trkpt lat="43.55973" lon="1.2262">
        <ele>191</ele>
        <time>2024-07-09T15:47:41Z</time>
      </trkpt>
      <trkpt lat="43.55976" lon="1.22627">
        <ele>191</ele>
        <time>2024-07-09T15:47:42Z</time>
      </trkpt>
      <trkpt lat="43.55979" lon="1.22636">
        <ele>191</ele>
        <time>2024-07-09T15:47:43Z</time>
      </trkpt>
      <trkpt lat="43.55981" lon="1.22644">
        <ele>190.8</ele>
        <time>2024-07-09T15:47:44Z</time>
      </trkpt>
      <trkpt lat="43.55983" lon="1.22652">
        <ele>190.8</ele>
        <time>2024-07-09T15:47:45Z</time>
      </trkpt>
      <trkpt lat="43.55985" lon="1.2266">
        <ele>190.6</ele>
        <time>2024-07-09T15:47:46Z</time>
      </trkpt>
      <trkpt lat="43.55987" lon="1.2267">
        <ele>190.6</ele>
        <time>2024-07-09T15:47:47Z</time>
      </trkpt>
      <trkpt lat="43.55989" lon="1.22676">
        <ele>190.6</ele>
        <time>2024-07-09T15:47:48Z</time>
      </trkpt>
      <trkpt lat="43.55991" lon="1.22684">
        <ele>190.6</ele>
        <time>2024-07-09T15:47:49Z</time>
      </trkpt>
      <trkpt lat="43.55993" lon="1.22693">
        <ele>190.6</ele>
        <time>2024-07-09T15:47:50Z</time>
      </trkpt>
      <trkpt lat="43.55995" lon="1.22701">
        <ele>190.8</ele>
        <time>2024-07-09T15:47:51Z</time>
      </trkpt>
      <trkpt lat="43.55997" lon="1.22709">
        <ele>191</ele>
        <time>2024-07-09T15:47:52Z</time>
      </trkpt>
      <trkpt lat="43.56" lon="1.22718">
        <ele>191</ele>
        <time>2024-07-09T15:47:53Z</time>
      </trkpt>
      <trkpt lat="43.56002" lon="1.22726">
        <ele>191</ele>
        <time>2024-07-09T15:47:54Z</time>
      </trkpt>
      <trkpt lat="43.56004" lon="1.22735">
        <ele>191</ele>
        <time>2024-07-09T15:47:55Z</time>
      </trkpt>
      <trkpt lat="43.56007" lon="1.22743">
        <ele>191</ele>
        <time>2024-07-09T15:47:56Z</time>
      </trkpt>
      <trkpt lat="43.56009" lon="1.22751">
        <ele>191</ele>
        <time>2024-07-09T15:47:57Z</time>
      </trkpt>
      <trkpt lat="43.56011" lon="1.2276">
        <ele>191</ele>
        <time>2024-07-09T15:47:58Z</time>
      </trkpt>
      <trkpt lat="43.56013" lon="1.22768">
        <ele>191</ele>
        <time>2024-07-09T15:47:59Z</time>
      </trkpt>
      <trkpt lat="43.56015" lon="1.22777">
        <ele>191.2</ele>
        <time>2024-07-09T15:48:00Z</time>
      </trkpt>
      <trkpt lat="43.56018" lon="1.22786">
        <ele>191.2</ele>
        <time>2024-07-09T15:48:01Z</time>
      </trkpt>
      <trkpt lat="43.5602" lon="1.22794">
        <ele>191.2</ele>
        <time>2024-07-09T15:48:02Z</time>
      </trkpt>
      <trkpt lat="43.56023" lon="1.22803">
        <ele>191</ele>
        <time>2024-07-09T15:48:03Z</time>
      </trkpt>
      <trkpt lat="43.56025" lon="1.22811">
        <ele>191</ele>
        <time>2024-07-09T15:48:04Z</time>
      </trkpt>
      <trkpt lat="43.56027" lon="1.22819">
        <ele>191</ele>
        <time>2024-07-09T15:48:05Z</time>
      </trkpt>
      <trkpt lat="43.56029" lon="1.22828">
        <ele>190.8</ele>
        <time>2024-07-09T15:48:06Z</time>
      </trkpt>
      <trkpt lat="43.56031" lon="1.22836">
        <ele>190.8</ele>
        <time>2024-07-09T15:48:07Z</time>
      </trkpt>
      <trkpt lat="43.56033" lon="1.22845">
        <ele>190.8</ele>
        <time>2024-07-09T15:48:08Z</time>
      </trkpt>
      <trkpt lat="43.56035" lon="1.22853">
        <ele>191</ele>
        <time>2024-07-09T15:48:09Z</time>
      </trkpt>
      <trkpt lat="43.56038" lon="1.22861">
        <ele>190.8</ele>
        <time>2024-07-09T15:48:10Z</time>
      </trkpt>
      <trkpt lat="43.5604" lon="1.22869">
        <ele>190.8</ele>
        <time>2024-07-09T15:48:11Z</time>
      </trkpt>
      <trkpt lat="43.56043" lon="1.22877">
        <ele>190.8</ele>
        <time>2024-07-09T15:48:12Z</time>
      </trkpt>
      <trkpt lat="43.56047" lon="1.22885">
        <ele>190.8</ele>
        <time>2024-07-09T15:48:13Z</time>
      </trkpt>
      <trkpt lat="43.56051" lon="1.22891">
        <ele>190.8</ele>
        <time>2024-07-09T15:48:14Z</time>
      </trkpt>
      <trkpt lat="43.56056" lon="1.22897">
        <ele>190.8</ele>
        <time>2024-07-09T15:48:15Z</time>
      </trkpt>
      <trkpt lat="43.56061" lon="1.22902">
        <ele>190.8</ele>
        <time>2024-07-09T15:48:16Z</time>
      </trkpt>
      <trkpt lat="43.56065" lon="1.22908">
        <ele>191</ele>
        <time>2024-07-09T15:48:17Z</time>
      </trkpt>
      <trkpt lat="43.5607" lon="1.22913">
        <ele>191</ele>
        <time>2024-07-09T15:48:18Z</time>
      </trkpt>
      <trkpt lat="43.56075" lon="1.2292">
        <ele>191.2</ele>
        <time>2024-07-09T15:48:19Z</time>
      </trkpt>
      <trkpt lat="43.5608" lon="1.22926">
        <ele>191.2</ele>
        <time>2024-07-09T15:48:20Z</time>
      </trkpt>
      <trkpt lat="43.56085" lon="1.22933">
        <ele>191.4</ele>
        <time>2024-07-09T15:48:21Z</time>
      </trkpt>
      <trkpt lat="43.56089" lon="1.22939">
        <ele>191.4</ele>
        <time>2024-07-09T15:48:22Z</time>
      </trkpt>
      <trkpt lat="43.56094" lon="1.22945">
        <ele>191.4</ele>
        <time>2024-07-09T15:48:23Z</time>
      </trkpt>
      <trkpt lat="43.56099" lon="1.22952">
        <ele>191.4</ele>
        <time>2024-07-09T15:48:24Z</time>
      </trkpt>
      <trkpt lat="43.56104" lon="1.22959">
        <ele>191.4</ele>
        <time>2024-07-09T15:48:25Z</time>
      </trkpt>
      <trkpt lat="43.5611" lon="1.22967">
        <ele>191.4</ele>
        <time>2024-07-09T15:48:26Z</time>
      </trkpt>
      <trkpt lat="43.56114" lon="1.22972">
        <ele>191.4</ele>
        <time>2024-07-09T15:48:27Z</time>
      </trkpt>
      <trkpt lat="43.56119" lon="1.22978">
        <ele>191.4</ele>
        <time>2024-07-09T15:48:28Z</time>
      </trkpt>
      <trkpt lat="43.56124" lon="1.22984">
        <ele>191.4</ele>
        <time>2024-07-09T15:48:29Z</time>
      </trkpt>
      <trkpt lat="43.56128" lon="1.2299">
        <ele>191.4</ele>
        <time>2024-07-09T15:48:30Z</time>
      </trkpt>
      <trkpt lat="43.56133" lon="1.22997">
        <ele>191.4</ele>
        <time>2024-07-09T15:48:31Z</time>
      </trkpt>
      <trkpt lat="43.56138" lon="1.23003">
        <ele>191.2</ele>
        <time>2024-07-09T15:48:32Z</time>
      </trkpt>
      <trkpt lat="43.56143" lon="1.23009">
        <ele>191.2</ele>
        <time>2024-07-09T15:48:33Z</time>
      </trkpt>
      <trkpt lat="43.56147" lon="1.23014">
        <ele>191.2</ele>
        <time>2024-07-09T15:48:34Z</time>
      </trkpt>
      <trkpt lat="43.5615" lon="1.23021">
        <ele>191.2</ele>
        <time>2024-07-09T15:48:35Z</time>
      </trkpt>
      <trkpt lat="43.56151" lon="1.23028">
        <ele>191.2</ele>
        <time>2024-07-09T15:48:36Z</time>
      </trkpt>
      <trkpt lat="43.56149" lon="1.23035">
        <ele>191.2</ele>
        <time>2024-07-09T15:48:37Z</time>
      </trkpt>
      <trkpt lat="43.56147" lon="1.23041">
        <ele>191.2</ele>
        <time>2024-07-09T15:48:38Z</time>
      </trkpt>
      <trkpt lat="43.56144" lon="1.23048">
        <ele>191.2</ele>
        <time>2024-07-09T15:48:39Z</time>
      </trkpt>
      <trkpt lat="43.5614" lon="1.23057">
        <ele>191.2</ele>
        <time>2024-07-09T15:48:40Z</time>
      </trkpt>
      <trkpt lat="43.56138" lon="1.23062">
        <ele>191.2</ele>
        <time>2024-07-09T15:48:41Z</time>
      </trkpt>
      <trkpt lat="43.56135" lon="1.23069">
        <ele>191.2</ele>
        <time>2024-07-09T15:48:42Z</time>
      </trkpt>
      <trkpt lat="43.56131" lon="1.23077">
        <ele>191.2</ele>
        <time>2024-07-09T15:48:43Z</time>
      </trkpt>
      <trkpt lat="43.56128" lon="1.23084">
        <ele>191.2</ele>
        <time>2024-07-09T15:48:44Z</time>
      </trkpt>
      <trkpt lat="43.56125" lon="1.23091">
        <ele>191.2</ele>
        <time>2024-07-09T15:48:45Z</time>
      </trkpt>
      <trkpt lat="43.56121" lon="1.23098">
        <ele>191.2</ele>
        <time>2024-07-09T15:48:46Z</time>
      </trkpt>
      <trkpt lat="43.56118" lon="1.23105">
        <ele>191.2</ele>
        <time>2024-07-09T15:48:47Z</time>
      </trkpt>
      <trkpt lat="43.56114" lon="1.23112">
        <ele>191.2</ele>
        <time>2024-07-09T15:48:48Z</time>
      </trkpt>
      <trkpt lat="43.56111" lon="1.2312">
        <ele>191.2</ele>
        <time>2024-07-09T15:48:49Z</time>
      </trkpt>
      <trkpt lat="43.56107" lon="1.23127">
        <ele>191.2</ele>
        <time>2024-07-09T15:48:50Z</time>
      </trkpt>
      <trkpt lat="43.56104" lon="1.23134">
        <ele>191.2</ele>
        <time>2024-07-09T15:48:51Z</time>
      </trkpt>
      <trkpt lat="43.56101" lon="1.23141">
        <ele>191.2</ele>
        <time>2024-07-09T15:48:52Z</time>
      </trkpt>
      <trkpt lat="43.56098" lon="1.23147">
        <ele>191.2</ele>
        <time>2024-07-09T15:48:53Z</time>
      </trkpt>
      <trkpt lat="43.56095" lon="1.23153">
        <ele>191.4</ele>
        <time>2024-07-09T15:48:54Z</time>
      </trkpt>
      <trkpt lat="43.56093" lon="1.23158">
        <ele>191.4</ele>
        <time>2024-07-09T15:48:55Z</time>
      </trkpt>
      <trkpt lat="43.56092" lon="1.23161">
        <ele>191.6</ele>
        <time>2024-07-09T15:48:56Z</time>
      </trkpt>
      <trkpt lat="43.56091" lon="1.23164">
        <ele>191.6</ele>
        <time>2024-07-09T15:48:57Z</time>
      </trkpt>
      <trkpt lat="43.56091" lon="1.23169">
        <ele>191.6</ele>
        <time>2024-07-09T15:48:58Z</time>
      </trkpt>
      <trkpt lat="43.56093" lon="1.23173">
        <ele>191.6</ele>
        <time>2024-07-09T15:48:59Z</time>
      </trkpt>
      <trkpt lat="43.56095" lon="1.23178">
        <ele>191.6</ele>
        <time>2024-07-09T15:49:00Z</time>
      </trkpt>
      <trkpt lat="43.56098" lon="1.23182">
        <ele>191.6</ele>
        <time>2024-07-09T15:49:01Z</time>
      </trkpt>
      <trkpt lat="43.56101" lon="1.23187">
        <ele>191.8</ele>
        <time>2024-07-09T15:49:02Z</time>
      </trkpt>
      <trkpt lat="43.56105" lon="1.23192">
        <ele>191.8</ele>
        <time>2024-07-09T15:49:03Z</time>
      </trkpt>
      <trkpt lat="43.56109" lon="1.23196">
        <ele>191.8</ele>
        <time>2024-07-09T15:49:04Z</time>
      </trkpt>
      <trkpt lat="43.56114" lon="1.23203">
        <ele>191.8</ele>
        <time>2024-07-09T15:49:05Z</time>
      </trkpt>
      <trkpt lat="43.56118" lon="1.23207">
        <ele>191.8</ele>
        <time>2024-07-09T15:49:06Z</time>
      </trkpt>
      <trkpt lat="43.56122" lon="1.23213">
        <ele>191.8</ele>
        <time>2024-07-09T15:49:07Z</time>
      </trkpt>
      <trkpt lat="43.56127" lon="1.23219">
        <ele>191.6</ele>
        <time>2024-07-09T15:49:08Z</time>
      </trkpt>
      <trkpt lat="43.56132" lon="1.23225">
        <ele>191.6</ele>
        <time>2024-07-09T15:49:09Z</time>
      </trkpt>
      <trkpt lat="43.56138" lon="1.23232">
        <ele>191.6</ele>
        <time>2024-07-09T15:49:10Z</time>
      </trkpt>
      <trkpt lat="43.56143" lon="1.23238">
        <ele>191.4</ele>
        <time>2024-07-09T15:49:11Z</time>
      </trkpt>
      <trkpt lat="43.56149" lon="1.23244">
        <ele>191.4</ele>
        <time>2024-07-09T15:49:12Z</time>
      </trkpt>
      <trkpt lat="43.56154" lon="1.23251">
        <ele>191.2</ele>
        <time>2024-07-09T15:49:13Z</time>
      </trkpt>
      <trkpt lat="43.5616" lon="1.23258">
        <ele>191</ele>
        <time>2024-07-09T15:49:14Z</time>
      </trkpt>
      <trkpt lat="43.56167" lon="1.23265">
        <ele>190.8</ele>
        <time>2024-07-09T15:49:15Z</time>
      </trkpt>
      <trkpt lat="43.56167" lon="1.23265">
        <ele>190.4</ele>
        <time>2024-07-09T15:49:16Z</time>
      </trkpt>
      <trkpt lat="43.5618" lon="1.23278">
        <ele>190</ele>
        <time>2024-07-09T15:49:17Z</time>
      </trkpt>
      <trkpt lat="43.56187" lon="1.23285">
        <ele>189.4</ele>
        <time>2024-07-09T15:49:18Z</time>
      </trkpt>
      <trkpt lat="43.56196" lon="1.2329">
        <ele>189</ele>
        <time>2024-07-09T15:49:19Z</time>
      </trkpt>
      <trkpt lat="43.56206" lon="1.23295">
        <ele>188.6</ele>
        <time>2024-07-09T15:49:20Z</time>
      </trkpt>
      <trkpt lat="43.56216" lon="1.23298">
        <ele>188</ele>
        <time>2024-07-09T15:49:21Z</time>
      </trkpt>
      <trkpt lat="43.56228" lon="1.23302">
        <ele>187.6</ele>
        <time>2024-07-09T15:49:22Z</time>
      </trkpt>
      <trkpt lat="43.56239" lon="1.23306">
        <ele>186.6</ele>
        <time>2024-07-09T15:49:23Z</time>
      </trkpt>
      <trkpt lat="43.56251" lon="1.2331">
        <ele>186</ele>
        <time>2024-07-09T15:49:24Z</time>
      </trkpt>
      <trkpt lat="43.56263" lon="1.23314">
        <ele>184.6</ele>
        <time>2024-07-09T15:49:25Z</time>
      </trkpt>
      <trkpt lat="43.56275" lon="1.23318">
        <ele>183.4</ele>
        <time>2024-07-09T15:49:26Z</time>
      </trkpt>
      <trkpt lat="43.56286" lon="1.23322">
        <ele>182.6</ele>
        <time>2024-07-09T15:49:27Z</time>
      </trkpt>
      <trkpt lat="43.56297" lon="1.23325">
        <ele>181</ele>
        <time>2024-07-09T15:49:28Z</time>
      </trkpt>
      <trkpt lat="43.56306" lon="1.23328">
        <ele>180.4</ele>
        <time>2024-07-09T15:49:29Z</time>
      </trkpt>
      <trkpt lat="43.56315" lon="1.2333">
        <ele>179.2</ele>
        <time>2024-07-09T15:49:30Z</time>
      </trkpt>
      <trkpt lat="43.56315" lon="1.2333">
        <ele>178.8</ele>
        <time>2024-07-09T15:49:31Z</time>
      </trkpt>
      <trkpt lat="43.56325" lon="1.23337">
        <ele>177.4</ele>
        <time>2024-07-09T15:49:32Z</time>
      </trkpt>
      <trkpt lat="43.56328" lon="1.23342">
        <ele>176.6</ele>
        <time>2024-07-09T15:49:33Z</time>
      </trkpt>
      <trkpt lat="43.56327" lon="1.23349">
        <ele>176.4</ele>
        <time>2024-07-09T15:49:34Z</time>
      </trkpt>
      <trkpt lat="43.56325" lon="1.23355">
        <ele>176</ele>
        <time>2024-07-09T15:49:35Z</time>
      </trkpt>
      <trkpt lat="43.56322" lon="1.23363">
        <ele>176</ele>
        <time>2024-07-09T15:49:36Z</time>
      </trkpt>
      <trkpt lat="43.5632" lon="1.2337">
        <ele>175.6</ele>
        <time>2024-07-09T15:49:37Z</time>
      </trkpt>
      <trkpt lat="43.56319" lon="1.23378">
        <ele>175.4</ele>
        <time>2024-07-09T15:49:38Z</time>
      </trkpt>
      <trkpt lat="43.56317" lon="1.23386">
        <ele>175.4</ele>
        <time>2024-07-09T15:49:39Z</time>
      </trkpt>
      <trkpt lat="43.56316" lon="1.23394">
        <ele>175.2</ele>
        <time>2024-07-09T15:49:40Z</time>
      </trkpt>
      <trkpt lat="43.56314" lon="1.23402">
        <ele>175.2</ele>
        <time>2024-07-09T15:49:41Z</time>
      </trkpt>
      <trkpt lat="43.56312" lon="1.2341">
        <ele>175</ele>
        <time>2024-07-09T15:49:42Z</time>
      </trkpt>
      <trkpt lat="43.5631" lon="1.23418">
        <ele>175</ele>
        <time>2024-07-09T15:49:43Z</time>
      </trkpt>
      <trkpt lat="43.56308" lon="1.23426">
        <ele>175</ele>
        <time>2024-07-09T15:49:44Z</time>
      </trkpt>
      <trkpt lat="43.56307" lon="1.23435">
        <ele>175</ele>
        <time>2024-07-09T15:49:45Z</time>
      </trkpt>
      <trkpt lat="43.56304" lon="1.23443">
        <ele>175</ele>
        <time>2024-07-09T15:49:46Z</time>
      </trkpt>
      <trkpt lat="43.56302" lon="1.23451">
        <ele>175</ele>
        <time>2024-07-09T15:49:47Z</time>
      </trkpt>
      <trkpt lat="43.563" lon="1.23459">
        <ele>175</ele>
        <time>2024-07-09T15:49:48Z</time>
      </trkpt>
      <trkpt lat="43.563" lon="1.23459">
        <ele>175</ele>
        <time>2024-07-09T15:49:49Z</time>
      </trkpt>
      <trkpt lat="43.56296" lon="1.23477">
        <ele>175</ele>
        <time>2024-07-09T15:49:50Z</time>
      </trkpt>
      <trkpt lat="43.56295" lon="1.23485">
        <ele>175</ele>
        <time>2024-07-09T15:49:51Z</time>
      </trkpt>
      <trkpt lat="43.56293" lon="1.23494">
        <ele>175</ele>
        <time>2024-07-09T15:49:52Z</time>
      </trkpt>
      <trkpt lat="43.56291" lon="1.23503">
        <ele>174.8</ele>
        <time>2024-07-09T15:49:53Z</time>
      </trkpt>
      <trkpt lat="43.56291" lon="1.23503">
        <ele>174.8</ele>
        <time>2024-07-09T15:49:54Z</time>
      </trkpt>
      <trkpt lat="43.56288" lon="1.23521">
        <ele>174.8</ele>
        <time>2024-07-09T15:49:55Z</time>
      </trkpt>
      <trkpt lat="43.56286" lon="1.23529">
        <ele>174.8</ele>
        <time>2024-07-09T15:49:56Z</time>
      </trkpt>
      <trkpt lat="43.56284" lon="1.23538">
        <ele>174.8</ele>
        <time>2024-07-09T15:49:57Z</time>
      </trkpt>
      <trkpt lat="43.56282" lon="1.23548">
        <ele>174.8</ele>
        <time>2024-07-09T15:49:58Z</time>
      </trkpt>
      <trkpt lat="43.56282" lon="1.23548">
        <ele>174.8</ele>
        <time>2024-07-09T15:49:59Z</time>
      </trkpt>
      <trkpt lat="43.5628" lon="1.23557">
        <ele>174.8</ele>
        <time>2024-07-09T15:50:00Z</time>
      </trkpt>
      <trkpt lat="43.56279" lon="1.23575">
        <ele>174.6</ele>
        <time>2024-07-09T15:50:01Z</time>
      </trkpt>
      <trkpt lat="43.56279" lon="1.23584">
        <ele>174.6</ele>
        <time>2024-07-09T15:50:02Z</time>
      </trkpt>
      <trkpt lat="43.5628" lon="1.23593">
        <ele>174.6</ele>
        <time>2024-07-09T15:50:03Z</time>
      </trkpt>
      <trkpt lat="43.56281" lon="1.23603">
        <ele>174.6</ele>
        <time>2024-07-09T15:50:04Z</time>
      </trkpt>
      <trkpt lat="43.56282" lon="1.23612">
        <ele>174.8</ele>
        <time>2024-07-09T15:50:05Z</time>
      </trkpt>
      <trkpt lat="43.56283" lon="1.23621">
        <ele>174.8</ele>
        <time>2024-07-09T15:50:06Z</time>
      </trkpt>
      <trkpt lat="43.56284" lon="1.2363">
        <ele>174.8</ele>
        <time>2024-07-09T15:50:07Z</time>
      </trkpt>
      <trkpt lat="43.56284" lon="1.23639">
        <ele>174.6</ele>
        <time>2024-07-09T15:50:08Z</time>
      </trkpt>
      <trkpt lat="43.56285" lon="1.23647">
        <ele>174.8</ele>
        <time>2024-07-09T15:50:09Z</time>
      </trkpt>
      <trkpt lat="43.56284" lon="1.23655">
        <ele>174.8</ele>
        <time>2024-07-09T15:50:10Z</time>
      </trkpt>
      <trkpt lat="43.56285" lon="1.23662">
        <ele>174.8</ele>
        <time>2024-07-09T15:50:11Z</time>
      </trkpt>
      <trkpt lat="43.56286" lon="1.2367">
        <ele>174.8</ele>
        <time>2024-07-09T15:50:12Z</time>
      </trkpt>
      <trkpt lat="43.56286" lon="1.23678">
        <ele>174.8</ele>
        <time>2024-07-09T15:50:13Z</time>
      </trkpt>
      <trkpt lat="43.56287" lon="1.23685">
        <ele>174.8</ele>
        <time>2024-07-09T15:50:14Z</time>
      </trkpt>
      <trkpt lat="43.56288" lon="1.23691">
        <ele>174.8</ele>
        <time>2024-07-09T15:50:15Z</time>
      </trkpt>
      <trkpt lat="43.56288" lon="1.237">
        <ele>175</ele>
        <time>2024-07-09T15:50:16Z</time>
      </trkpt>
      <trkpt lat="43.56289" lon="1.23707">
        <ele>175.2</ele>
        <time>2024-07-09T15:50:17Z</time>
      </trkpt>
      <trkpt lat="43.56289" lon="1.23707">
        <ele>175.4</ele>
        <time>2024-07-09T15:50:18Z</time>
      </trkpt>
      <trkpt lat="43.56291" lon="1.23722">
        <ele>175.6</ele>
        <time>2024-07-09T15:50:19Z</time>
      </trkpt>
      <trkpt lat="43.56291" lon="1.2373">
        <ele>175.6</ele>
        <time>2024-07-09T15:50:20Z</time>
      </trkpt>
      <trkpt lat="43.56292" lon="1.23737">
        <ele>175.8</ele>
        <time>2024-07-09T15:50:21Z</time>
      </trkpt>
      <trkpt lat="43.56292" lon="1.23743">
        <ele>176</ele>
        <time>2024-07-09T15:50:22Z</time>
      </trkpt>
      <trkpt lat="43.56293" lon="1.23749">
        <ele>176.2</ele>
        <time>2024-07-09T15:50:23Z</time>
      </trkpt>
      <trkpt lat="43.56293" lon="1.23756">
        <ele>176.4</ele>
        <time>2024-07-09T15:50:24Z</time>
      </trkpt>
      <trkpt lat="43.56293" lon="1.23756">
        <ele>176.6</ele>
        <time>2024-07-09T15:50:25Z</time>
      </trkpt>
      <trkpt lat="43.56294" lon="1.23766">
        <ele>176.8</ele>
        <time>2024-07-09T15:50:26Z</time>
      </trkpt>
      <trkpt lat="43.56295" lon="1.23772">
        <ele>177</ele>
        <time>2024-07-09T15:50:27Z</time>
      </trkpt>
      <trkpt lat="43.56295" lon="1.23778">
        <ele>177.2</ele>
        <time>2024-07-09T15:50:28Z</time>
      </trkpt>
      <trkpt lat="43.56296" lon="1.23784">
        <ele>177.4</ele>
        <time>2024-07-09T15:50:29Z</time>
      </trkpt>
      <trkpt lat="43.56296" lon="1.2379">
        <ele>177.8</ele>
        <time>2024-07-09T15:50:30Z</time>
      </trkpt>
      <trkpt lat="43.56296" lon="1.23796">
        <ele>177.8</ele>
        <time>2024-07-09T15:50:31Z</time>
      </trkpt>
      <trkpt lat="43.56297" lon="1.23802">
        <ele>178</ele>
        <time>2024-07-09T15:50:32Z</time>
      </trkpt>
      <trkpt lat="43.56297" lon="1.23807">
        <ele>178.2</ele>
        <time>2024-07-09T15:50:33Z</time>
      </trkpt>
      <trkpt lat="43.56296" lon="1.23812">
        <ele>178.4</ele>
        <time>2024-07-09T15:50:34Z</time>
      </trkpt>
      <trkpt lat="43.56297" lon="1.23818">
        <ele>178.6</ele>
        <time>2024-07-09T15:50:35Z</time>
      </trkpt>
      <trkpt lat="43.56297" lon="1.23818">
        <ele>178.8</ele>
        <time>2024-07-09T15:50:36Z</time>
      </trkpt>
      <trkpt lat="43.56297" lon="1.23824">
        <ele>179</ele>
        <time>2024-07-09T15:50:37Z</time>
      </trkpt>
      <trkpt lat="43.56298" lon="1.23838">
        <ele>179.2</ele>
        <time>2024-07-09T15:50:38Z</time>
      </trkpt>
      <trkpt lat="43.56299" lon="1.23845">
        <ele>179.2</ele>
        <time>2024-07-09T15:50:39Z</time>
      </trkpt>
      <trkpt lat="43.56299" lon="1.23845">
        <ele>179.2</ele>
        <time>2024-07-09T15:50:40Z</time>
      </trkpt>
      <trkpt lat="43.563" lon="1.23861">
        <ele>179.2</ele>
        <time>2024-07-09T15:50:41Z</time>
      </trkpt>
      <trkpt lat="43.563" lon="1.23861">
        <ele>179.2</ele>
        <time>2024-07-09T15:50:42Z</time>
      </trkpt>
      <trkpt lat="43.56303" lon="1.23876">
        <ele>179.2</ele>
        <time>2024-07-09T15:50:43Z</time>
      </trkpt>
      <trkpt lat="43.56304" lon="1.23884">
        <ele>179.2</ele>
        <time>2024-07-09T15:50:44Z</time>
      </trkpt>
      <trkpt lat="43.56304" lon="1.23891">
        <ele>179.2</ele>
        <time>2024-07-09T15:50:45Z</time>
      </trkpt>
      <trkpt lat="43.56304" lon="1.239">
        <ele>179.2</ele>
        <time>2024-07-09T15:50:46Z</time>
      </trkpt>
      <trkpt lat="43.56304" lon="1.23907">
        <ele>179.4</ele>
        <time>2024-07-09T15:50:47Z</time>
      </trkpt>
      <trkpt lat="43.56304" lon="1.23915">
        <ele>179.4</ele>
        <time>2024-07-09T15:50:48Z</time>
      </trkpt>
      <trkpt lat="43.56305" lon="1.23924">
        <ele>179.4</ele>
        <time>2024-07-09T15:50:49Z</time>
      </trkpt>
      <trkpt lat="43.56305" lon="1.23932">
        <ele>179.4</ele>
        <time>2024-07-09T15:50:50Z</time>
      </trkpt>
      <trkpt lat="43.56306" lon="1.2394">
        <ele>179.4</ele>
        <time>2024-07-09T15:50:51Z</time>
      </trkpt>
      <trkpt lat="43.56306" lon="1.23948">
        <ele>179.4</ele>
        <time>2024-07-09T15:50:52Z</time>
      </trkpt>
      <trkpt lat="43.56307" lon="1.23956">
        <ele>179.4</ele>
        <time>2024-07-09T15:50:53Z</time>
      </trkpt>
      <trkpt lat="43.56308" lon="1.23964">
        <ele>179.4</ele>
        <time>2024-07-09T15:50:54Z</time>
      </trkpt>
      <trkpt lat="43.56308" lon="1.23972">
        <ele>179.4</ele>
        <time>2024-07-09T15:50:55Z</time>
      </trkpt>
      <trkpt lat="43.56308" lon="1.2398">
        <ele>179.4</ele>
        <time>2024-07-09T15:50:56Z</time>
      </trkpt>
      <trkpt lat="43.56308" lon="1.2398">
        <ele>179.4</ele>
        <time>2024-07-09T15:50:57Z</time>
      </trkpt>
      <trkpt lat="43.56309" lon="1.23997">
        <ele>179.4</ele>
        <time>2024-07-09T15:50:58Z</time>
      </trkpt>
      <trkpt lat="43.56309" lon="1.24005">
        <ele>179.4</ele>
        <time>2024-07-09T15:50:59Z</time>
      </trkpt>
      <trkpt lat="43.5631" lon="1.24015">
        <ele>179.4</ele>
        <time>2024-07-09T15:51:00Z</time>
      </trkpt>
      <trkpt lat="43.56312" lon="1.24025">
        <ele>179.4</ele>
        <time>2024-07-09T15:51:01Z</time>
      </trkpt>
      <trkpt lat="43.56312" lon="1.24033">
        <ele>179.4</ele>
        <time>2024-07-09T15:51:02Z</time>
      </trkpt>
      <trkpt lat="43.56312" lon="1.24043">
        <ele>179.4</ele>
        <time>2024-07-09T15:51:03Z</time>
      </trkpt>
      <trkpt lat="43.56313" lon="1.24052">
        <ele>179.2</ele>
        <time>2024-07-09T15:51:04Z</time>
      </trkpt>
      <trkpt lat="43.56314" lon="1.24061">
        <ele>179.2</ele>
        <time>2024-07-09T15:51:05Z</time>
      </trkpt>
      <trkpt lat="43.56314" lon="1.24061">
        <ele>179.2</ele>
        <time>2024-07-09T15:51:06Z</time>
      </trkpt>
      <trkpt lat="43.56315" lon="1.24079">
        <ele>179.2</ele>
        <time>2024-07-09T15:51:07Z</time>
      </trkpt>
      <trkpt lat="43.56315" lon="1.24088">
        <ele>179.2</ele>
        <time>2024-07-09T15:51:08Z</time>
      </trkpt>
      <trkpt lat="43.56314" lon="1.24097">
        <ele>179.2</ele>
        <time>2024-07-09T15:51:09Z</time>
      </trkpt>
      <trkpt lat="43.56314" lon="1.24106">
        <ele>179.2</ele>
        <time>2024-07-09T15:51:10Z</time>
      </trkpt>
      <trkpt lat="43.56314" lon="1.24115">
        <ele>179.2</ele>
        <time>2024-07-09T15:51:11Z</time>
      </trkpt>
      <trkpt lat="43.56314" lon="1.24115">
        <ele>179</ele>
        <time>2024-07-09T15:51:12Z</time>
      </trkpt>
      <trkpt lat="43.56316" lon="1.24133">
        <ele>179</ele>
        <time>2024-07-09T15:51:13Z</time>
      </trkpt>
      <trkpt lat="43.56317" lon="1.24142">
        <ele>179</ele>
        <time>2024-07-09T15:51:14Z</time>
      </trkpt>
      <trkpt lat="43.56318" lon="1.24151">
        <ele>178.8</ele>
        <time>2024-07-09T15:51:15Z</time>
      </trkpt>
      <trkpt lat="43.5632" lon="1.24159">
        <ele>178.8</ele>
        <time>2024-07-09T15:51:16Z</time>
      </trkpt>
      <trkpt lat="43.5632" lon="1.24159">
        <ele>178.8</ele>
        <time>2024-07-09T15:51:17Z</time>
      </trkpt>
      <trkpt lat="43.56322" lon="1.24176">
        <ele>178.6</ele>
        <time>2024-07-09T15:51:18Z</time>
      </trkpt>
      <trkpt lat="43.56324" lon="1.24185">
        <ele>178.6</ele>
        <time>2024-07-09T15:51:19Z</time>
      </trkpt>
      <trkpt lat="43.56326" lon="1.24194">
        <ele>178.6</ele>
        <time>2024-07-09T15:51:20Z</time>
      </trkpt>
      <trkpt lat="43.56328" lon="1.24202">
        <ele>178.4</ele>
        <time>2024-07-09T15:51:21Z</time>
      </trkpt>
      <trkpt lat="43.5633" lon="1.2421">
        <ele>178.4</ele>
        <time>2024-07-09T15:51:22Z</time>
      </trkpt>
      <trkpt lat="43.56333" lon="1.24218">
        <ele>178.4</ele>
        <time>2024-07-09T15:51:23Z</time>
      </trkpt>
      <trkpt lat="43.56336" lon="1.24226">
        <ele>178.4</ele>
        <time>2024-07-09T15:51:24Z</time>
      </trkpt>
      <trkpt lat="43.56338" lon="1.24234">
        <ele>178.4</ele>
        <time>2024-07-09T15:51:25Z</time>
      </trkpt>
      <trkpt lat="43.56341" lon="1.24242">
        <ele>178.4</ele>
        <time>2024-07-09T15:51:26Z</time>
      </trkpt>
      <trkpt lat="43.56343" lon="1.2425">
        <ele>178.4</ele>
        <time>2024-07-09T15:51:27Z</time>
      </trkpt>
      <trkpt lat="43.56345" lon="1.24258">
        <ele>178.2</ele>
        <time>2024-07-09T15:51:28Z</time>
      </trkpt>
      <trkpt lat="43.56347" lon="1.24267">
        <ele>178.2</ele>
        <time>2024-07-09T15:51:29Z</time>
      </trkpt>
      <trkpt lat="43.5635" lon="1.24275">
        <ele>178.2</ele>
        <time>2024-07-09T15:51:30Z</time>
      </trkpt>
      <trkpt lat="43.56352" lon="1.24283">
        <ele>178.4</ele>
        <time>2024-07-09T15:51:31Z</time>
      </trkpt>
      <trkpt lat="43.56352" lon="1.24283">
        <ele>178.2</ele>
        <time>2024-07-09T15:51:32Z</time>
      </trkpt>
      <trkpt lat="43.56356" lon="1.24299">
        <ele>178.2</ele>
        <time>2024-07-09T15:51:33Z</time>
      </trkpt>
      <trkpt lat="43.56358" lon="1.24308">
        <ele>178.2</ele>
        <time>2024-07-09T15:51:34Z</time>
      </trkpt>
      <trkpt lat="43.56361" lon="1.24317">
        <ele>178</ele>
        <time>2024-07-09T15:51:35Z</time>
      </trkpt>
      <trkpt lat="43.56364" lon="1.24326">
        <ele>177.8</ele>
        <time>2024-07-09T15:51:36Z</time>
      </trkpt>
      <trkpt lat="43.56367" lon="1.24335">
        <ele>177.6</ele>
        <time>2024-07-09T15:51:37Z</time>
      </trkpt>
      <trkpt lat="43.56369" lon="1.24343">
        <ele>177.6</ele>
        <time>2024-07-09T15:51:38Z</time>
      </trkpt>
      <trkpt lat="43.56371" lon="1.24351">
        <ele>177.4</ele>
        <time>2024-07-09T15:51:39Z</time>
      </trkpt>
      <trkpt lat="43.56372" lon="1.2436">
        <ele>177</ele>
        <time>2024-07-09T15:51:40Z</time>
      </trkpt>
      <trkpt lat="43.56372" lon="1.24369">
        <ele>176.8</ele>
        <time>2024-07-09T15:51:41Z</time>
      </trkpt>
      <trkpt lat="43.56371" lon="1.24378">
        <ele>176.6</ele>
        <time>2024-07-09T15:51:42Z</time>
      </trkpt>
      <trkpt lat="43.5637" lon="1.24387">
        <ele>176.4</ele>
        <time>2024-07-09T15:51:43Z</time>
      </trkpt>
      <trkpt lat="43.56369" lon="1.24395">
        <ele>176.4</ele>
        <time>2024-07-09T15:51:44Z</time>
      </trkpt>
      <trkpt lat="43.56367" lon="1.24404">
        <ele>176.2</ele>
        <time>2024-07-09T15:51:45Z</time>
      </trkpt>
      <trkpt lat="43.56365" lon="1.24412">
        <ele>176.2</ele>
        <time>2024-07-09T15:51:46Z</time>
      </trkpt>
      <trkpt lat="43.56362" lon="1.24419">
        <ele>176.2</ele>
        <time>2024-07-09T15:51:47Z</time>
      </trkpt>
      <trkpt lat="43.5636" lon="1.24425">
        <ele>176.2</ele>
        <time>2024-07-09T15:51:48Z</time>
      </trkpt>
      <trkpt lat="43.56357" lon="1.24432">
        <ele>176</ele>
        <time>2024-07-09T15:51:49Z</time>
      </trkpt>
      <trkpt lat="43.56354" lon="1.24437">
        <ele>176.2</ele>
        <time>2024-07-09T15:51:50Z</time>
      </trkpt>
      <trkpt lat="43.56351" lon="1.24443">
        <ele>176</ele>
        <time>2024-07-09T15:51:51Z</time>
      </trkpt>
      <trkpt lat="43.56348" lon="1.24449">
        <ele>176</ele>
        <time>2024-07-09T15:51:52Z</time>
      </trkpt>
      <trkpt lat="43.56346" lon="1.24454">
        <ele>176.2</ele>
        <time>2024-07-09T15:51:53Z</time>
      </trkpt>
      <trkpt lat="43.56344" lon="1.2446">
        <ele>176.6</ele>
        <time>2024-07-09T15:51:54Z</time>
      </trkpt>
      <trkpt lat="43.56342" lon="1.24465">
        <ele>176.6</ele>
        <time>2024-07-09T15:51:55Z</time>
      </trkpt>
      <trkpt lat="43.5634" lon="1.24471">
        <ele>176.8</ele>
        <time>2024-07-09T15:51:56Z</time>
      </trkpt>
      <trkpt lat="43.56338" lon="1.24477">
        <ele>177</ele>
        <time>2024-07-09T15:51:57Z</time>
      </trkpt>
      <trkpt lat="43.56338" lon="1.24477">
        <ele>176.8</ele>
        <time>2024-07-09T15:51:58Z</time>
      </trkpt>
      <trkpt lat="43.56338" lon="1.24488">
        <ele>177</ele>
        <time>2024-07-09T15:51:59Z</time>
      </trkpt>
      <trkpt lat="43.56339" lon="1.24497">
        <ele>177.2</ele>
        <time>2024-07-09T15:52:00Z</time>
      </trkpt>
      <trkpt lat="43.56341" lon="1.24504">
        <ele>177.2</ele>
        <time>2024-07-09T15:52:01Z</time>
      </trkpt>
      <trkpt lat="43.56343" lon="1.24513">
        <ele>177.4</ele>
        <time>2024-07-09T15:52:02Z</time>
      </trkpt>
      <trkpt lat="43.56344" lon="1.24521">
        <ele>177.4</ele>
        <time>2024-07-09T15:52:03Z</time>
      </trkpt>
      <trkpt lat="43.56345" lon="1.2453">
        <ele>177.4</ele>
        <time>2024-07-09T15:52:04Z</time>
      </trkpt>
      <trkpt lat="43.56346" lon="1.2454">
        <ele>177.4</ele>
        <time>2024-07-09T15:52:05Z</time>
      </trkpt>
      <trkpt lat="43.56347" lon="1.24549">
        <ele>177.4</ele>
        <time>2024-07-09T15:52:06Z</time>
      </trkpt>
      <trkpt lat="43.56347" lon="1.24558">
        <ele>177.4</ele>
        <time>2024-07-09T15:52:07Z</time>
      </trkpt>
      <trkpt lat="43.56346" lon="1.24566">
        <ele>177.4</ele>
        <time>2024-07-09T15:52:08Z</time>
      </trkpt>
      <trkpt lat="43.56344" lon="1.24573">
        <ele>177.2</ele>
        <time>2024-07-09T15:52:09Z</time>
      </trkpt>
      <trkpt lat="43.56342" lon="1.24582">
        <ele>177</ele>
        <time>2024-07-09T15:52:10Z</time>
      </trkpt>
      <trkpt lat="43.5634" lon="1.2459">
        <ele>176.8</ele>
        <time>2024-07-09T15:52:11Z</time>
      </trkpt>
      <trkpt lat="43.56338" lon="1.24598">
        <ele>176.6</ele>
        <time>2024-07-09T15:52:12Z</time>
      </trkpt>
      <trkpt lat="43.56336" lon="1.24606">
        <ele>176.6</ele>
        <time>2024-07-09T15:52:13Z</time>
      </trkpt>
      <trkpt lat="43.56334" lon="1.24613">
        <ele>176.2</ele>
        <time>2024-07-09T15:52:14Z</time>
      </trkpt>
      <trkpt lat="43.56333" lon="1.2462">
        <ele>176.2</ele>
        <time>2024-07-09T15:52:15Z</time>
      </trkpt>
      <trkpt lat="43.56332" lon="1.24628">
        <ele>176.2</ele>
        <time>2024-07-09T15:52:16Z</time>
      </trkpt>
      <trkpt lat="43.56331" lon="1.24637">
        <ele>176.2</ele>
        <time>2024-07-09T15:52:17Z</time>
      </trkpt>
      <trkpt lat="43.56331" lon="1.24643">
        <ele>176.2</ele>
        <time>2024-07-09T15:52:18Z</time>
      </trkpt>
      <trkpt lat="43.56331" lon="1.24651">
        <ele>176.2</ele>
        <time>2024-07-09T15:52:19Z</time>
      </trkpt>
      <trkpt lat="43.56332" lon="1.24658">
        <ele>176.2</ele>
        <time>2024-07-09T15:52:20Z</time>
      </trkpt>
      <trkpt lat="43.56333" lon="1.24665">
        <ele>176.2</ele>
        <time>2024-07-09T15:52:21Z</time>
      </trkpt>
      <trkpt lat="43.56335" lon="1.24673">
        <ele>176.4</ele>
        <time>2024-07-09T15:52:22Z</time>
      </trkpt>
      <trkpt lat="43.56337" lon="1.24679">
        <ele>176.6</ele>
        <time>2024-07-09T15:52:23Z</time>
      </trkpt>
      <trkpt lat="43.5634" lon="1.24686">
        <ele>176.6</ele>
        <time>2024-07-09T15:52:24Z</time>
      </trkpt>
      <trkpt lat="43.56342" lon="1.24693">
        <ele>176.8</ele>
        <time>2024-07-09T15:52:25Z</time>
      </trkpt>
      <trkpt lat="43.56345" lon="1.24701">
        <ele>176.8</ele>
        <time>2024-07-09T15:52:26Z</time>
      </trkpt>
      <trkpt lat="43.56348" lon="1.24708">
        <ele>176.8</ele>
        <time>2024-07-09T15:52:27Z</time>
      </trkpt>
      <trkpt lat="43.56351" lon="1.24716">
        <ele>176.8</ele>
        <time>2024-07-09T15:52:28Z</time>
      </trkpt>
      <trkpt lat="43.56354" lon="1.24723">
        <ele>176.6</ele>
        <time>2024-07-09T15:52:29Z</time>
      </trkpt>
      <trkpt lat="43.56356" lon="1.24731">
        <ele>176.6</ele>
        <time>2024-07-09T15:52:30Z</time>
      </trkpt>
      <trkpt lat="43.56358" lon="1.24738">
        <ele>176.4</ele>
        <time>2024-07-09T15:52:31Z</time>
      </trkpt>
      <trkpt lat="43.56361" lon="1.24745">
        <ele>176.4</ele>
        <time>2024-07-09T15:52:32Z</time>
      </trkpt>
      <trkpt lat="43.56363" lon="1.24751">
        <ele>176.2</ele>
        <time>2024-07-09T15:52:33Z</time>
      </trkpt>
      <trkpt lat="43.56366" lon="1.24756">
        <ele>176.2</ele>
        <time>2024-07-09T15:52:34Z</time>
      </trkpt>
      <trkpt lat="43.56368" lon="1.24762">
        <ele>176</ele>
        <time>2024-07-09T15:52:35Z</time>
      </trkpt>
      <trkpt lat="43.56371" lon="1.24766">
        <ele>175.8</ele>
        <time>2024-07-09T15:52:36Z</time>
      </trkpt>
      <trkpt lat="43.56373" lon="1.2477">
        <ele>175.8</ele>
        <time>2024-07-09T15:52:37Z</time>
      </trkpt>
      <trkpt lat="43.56376" lon="1.24773">
        <ele>175.6</ele>
        <time>2024-07-09T15:52:38Z</time>
      </trkpt>
      <trkpt lat="43.56378" lon="1.24777">
        <ele>175.6</ele>
        <time>2024-07-09T15:52:39Z</time>
      </trkpt>
      <trkpt lat="43.56381" lon="1.24782">
        <ele>175.6</ele>
        <time>2024-07-09T15:52:40Z</time>
      </trkpt>
      <trkpt lat="43.56385" lon="1.24788">
        <ele>175.4</ele>
        <time>2024-07-09T15:52:41Z</time>
      </trkpt>
      <trkpt lat="43.56388" lon="1.24791">
        <ele>175.2</ele>
        <time>2024-07-09T15:52:42Z</time>
      </trkpt>
      <trkpt lat="43.56391" lon="1.24796">
        <ele>175</ele>
        <time>2024-07-09T15:52:43Z</time>
      </trkpt>
      <trkpt lat="43.56395" lon="1.24801">
        <ele>174.8</ele>
        <time>2024-07-09T15:52:44Z</time>
      </trkpt>
      <trkpt lat="43.56398" lon="1.24805">
        <ele>174.6</ele>
        <time>2024-07-09T15:52:45Z</time>
      </trkpt>
      <trkpt lat="43.56402" lon="1.24811">
        <ele>174.2</ele>
        <time>2024-07-09T15:52:46Z</time>
      </trkpt>
      <trkpt lat="43.56405" lon="1.24816">
        <ele>174.2</ele>
        <time>2024-07-09T15:52:47Z</time>
      </trkpt>
      <trkpt lat="43.56408" lon="1.24822">
        <ele>173.6</ele>
        <time>2024-07-09T15:52:48Z</time>
      </trkpt>
      <trkpt lat="43.56412" lon="1.24827">
        <ele>173.4</ele>
        <time>2024-07-09T15:52:49Z</time>
      </trkpt>
      <trkpt lat="43.56416" lon="1.24832">
        <ele>173</ele>
        <time>2024-07-09T15:52:50Z</time>
      </trkpt>
      <trkpt lat="43.56421" lon="1.24835">
        <ele>173</ele>
        <time>2024-07-09T15:52:51Z</time>
      </trkpt>
      <trkpt lat="43.56426" lon="1.24838">
        <ele>172.8</ele>
        <time>2024-07-09T15:52:52Z</time>
      </trkpt>
      <trkpt lat="43.56432" lon="1.2484">
        <ele>172.6</ele>
        <time>2024-07-09T15:52:53Z</time>
      </trkpt>
      <trkpt lat="43.56432" lon="1.2484">
        <ele>172.6</ele>
        <time>2024-07-09T15:52:54Z</time>
      </trkpt>
      <trkpt lat="43.56444" lon="1.24843">
        <ele>172.4</ele>
        <time>2024-07-09T15:52:55Z</time>
      </trkpt>
      <trkpt lat="43.5645" lon="1.24844">
        <ele>172.4</ele>
        <time>2024-07-09T15:52:56Z</time>
      </trkpt>
      <trkpt lat="43.56456" lon="1.24845">
        <ele>172.2</ele>
        <time>2024-07-09T15:52:57Z</time>
      </trkpt>
      <trkpt lat="43.56463" lon="1.24845">
        <ele>171.8</ele>
        <time>2024-07-09T15:52:58Z</time>
      </trkpt>
      <trkpt lat="43.5647" lon="1.24844">
        <ele>171.6</ele>
        <time>2024-07-09T15:52:59Z</time>
      </trkpt>
      <trkpt lat="43.56476" lon="1.24843">
        <ele>171.4</ele>
        <time>2024-07-09T15:53:00Z</time>
      </trkpt>
      <trkpt lat="43.56483" lon="1.24842">
        <ele>171.4</ele>
        <time>2024-07-09T15:53:01Z</time>
      </trkpt>
      <trkpt lat="43.56489" lon="1.2484">
        <ele>171.2</ele>
        <time>2024-07-09T15:53:02Z</time>
      </trkpt>
      <trkpt lat="43.56496" lon="1.24838">
        <ele>171.2</ele>
        <time>2024-07-09T15:53:03Z</time>
      </trkpt>
      <trkpt lat="43.56502" lon="1.24836">
        <ele>171</ele>
        <time>2024-07-09T15:53:04Z</time>
      </trkpt>
      <trkpt lat="43.56509" lon="1.24834">
        <ele>170.8</ele>
        <time>2024-07-09T15:53:05Z</time>
      </trkpt>
      <trkpt lat="43.56515" lon="1.24831">
        <ele>170.8</ele>
        <time>2024-07-09T15:53:06Z</time>
      </trkpt>
      <trkpt lat="43.56515" lon="1.24831">
        <ele>170.6</ele>
        <time>2024-07-09T15:53:07Z</time>
      </trkpt>
      <trkpt lat="43.56527" lon="1.24828">
        <ele>170.6</ele>
        <time>2024-07-09T15:53:08Z</time>
      </trkpt>
      <trkpt lat="43.56533" lon="1.24828">
        <ele>170.8</ele>
        <time>2024-07-09T15:53:09Z</time>
      </trkpt>
      <trkpt lat="43.56538" lon="1.2483">
        <ele>170.8</ele>
        <time>2024-07-09T15:53:10Z</time>
      </trkpt>
      <trkpt lat="43.56542" lon="1.24834">
        <ele>170.6</ele>
        <time>2024-07-09T15:53:11Z</time>
      </trkpt>
      <trkpt lat="43.56545" lon="1.24839">
        <ele>170.6</ele>
        <time>2024-07-09T15:53:12Z</time>
      </trkpt>
      <trkpt lat="43.56545" lon="1.24839">
        <ele>170.6</ele>
        <time>2024-07-09T15:53:13Z</time>
      </trkpt>
      <trkpt lat="43.56553" lon="1.2485">
        <ele>170.4</ele>
        <time>2024-07-09T15:53:14Z</time>
      </trkpt>
      <trkpt lat="43.56556" lon="1.24855">
        <ele>170.4</ele>
        <time>2024-07-09T15:53:15Z</time>
      </trkpt>
      <trkpt lat="43.56556" lon="1.24855">
        <ele>170.4</ele>
        <time>2024-07-09T15:53:16Z</time>
      </trkpt>
      <trkpt lat="43.56561" lon="1.24859">
        <ele>170.4</ele>
        <time>2024-07-09T15:53:17Z</time>
      </trkpt>
      <trkpt lat="43.56565" lon="1.24863">
        <ele>170.4</ele>
        <time>2024-07-09T15:53:18Z</time>
      </trkpt>
      <trkpt lat="43.56575" lon="1.24872">
        <ele>170.4</ele>
        <time>2024-07-09T15:53:19Z</time>
      </trkpt>
      <trkpt lat="43.5658" lon="1.24877">
        <ele>170.4</ele>
        <time>2024-07-09T15:53:20Z</time>
      </trkpt>
      <trkpt lat="43.56585" lon="1.24881">
        <ele>170.4</ele>
        <time>2024-07-09T15:53:21Z</time>
      </trkpt>
      <trkpt lat="43.5659" lon="1.24885">
        <ele>170.6</ele>
        <time>2024-07-09T15:53:22Z</time>
      </trkpt>
      <trkpt lat="43.56594" lon="1.24889">
        <ele>170.6</ele>
        <time>2024-07-09T15:53:23Z</time>
      </trkpt>
      <trkpt lat="43.56598" lon="1.24894">
        <ele>170.6</ele>
        <time>2024-07-09T15:53:24Z</time>
      </trkpt>
      <trkpt lat="43.56602" lon="1.24899">
        <ele>170.6</ele>
        <time>2024-07-09T15:53:25Z</time>
      </trkpt>
      <trkpt lat="43.56605" lon="1.24906">
        <ele>170.8</ele>
        <time>2024-07-09T15:53:26Z</time>
      </trkpt>
      <trkpt lat="43.56608" lon="1.24913">
        <ele>170.8</ele>
        <time>2024-07-09T15:53:27Z</time>
      </trkpt>
      <trkpt lat="43.56611" lon="1.24919">
        <ele>171</ele>
        <time>2024-07-09T15:53:28Z</time>
      </trkpt>
      <trkpt lat="43.56614" lon="1.24925">
        <ele>171</ele>
        <time>2024-07-09T15:53:29Z</time>
      </trkpt>
      <trkpt lat="43.56616" lon="1.24931">
        <ele>171</ele>
        <time>2024-07-09T15:53:30Z</time>
      </trkpt>
      <trkpt lat="43.56618" lon="1.24938">
        <ele>171</ele>
        <time>2024-07-09T15:53:31Z</time>
      </trkpt>
      <trkpt lat="43.56621" lon="1.24944">
        <ele>171.2</ele>
        <time>2024-07-09T15:53:32Z</time>
      </trkpt>
      <trkpt lat="43.56623" lon="1.2495">
        <ele>171.2</ele>
        <time>2024-07-09T15:53:33Z</time>
      </trkpt>
      <trkpt lat="43.56625" lon="1.24957">
        <ele>171.2</ele>
        <time>2024-07-09T15:53:34Z</time>
      </trkpt>
      <trkpt lat="43.56626" lon="1.24964">
        <ele>171.4</ele>
        <time>2024-07-09T15:53:35Z</time>
      </trkpt>
      <trkpt lat="43.56629" lon="1.24972">
        <ele>171.4</ele>
        <time>2024-07-09T15:53:36Z</time>
      </trkpt>
      <trkpt lat="43.56631" lon="1.24979">
        <ele>171.4</ele>
        <time>2024-07-09T15:53:37Z</time>
      </trkpt>
      <trkpt lat="43.56633" lon="1.24987">
        <ele>171.4</ele>
        <time>2024-07-09T15:53:38Z</time>
      </trkpt>
      <trkpt lat="43.56635" lon="1.24994">
        <ele>171.6</ele>
        <time>2024-07-09T15:53:39Z</time>
      </trkpt>
      <trkpt lat="43.56638" lon="1.25002">
        <ele>171.6</ele>
        <time>2024-07-09T15:53:40Z</time>
      </trkpt>
      <trkpt lat="43.5664" lon="1.25009">
        <ele>171.8</ele>
        <time>2024-07-09T15:53:41Z</time>
      </trkpt>
      <trkpt lat="43.56642" lon="1.25016">
        <ele>171.8</ele>
        <time>2024-07-09T15:53:42Z</time>
      </trkpt>
      <trkpt lat="43.56644" lon="1.25022">
        <ele>172</ele>
        <time>2024-07-09T15:53:43Z</time>
      </trkpt>
      <trkpt lat="43.56647" lon="1.25029">
        <ele>172</ele>
        <time>2024-07-09T15:53:44Z</time>
      </trkpt>
      <trkpt lat="43.56649" lon="1.25036">
        <ele>172</ele>
        <time>2024-07-09T15:53:45Z</time>
      </trkpt>
      <trkpt lat="43.56651" lon="1.25044">
        <ele>172.2</ele>
        <time>2024-07-09T15:53:46Z</time>
      </trkpt>
      <trkpt lat="43.56654" lon="1.25051">
        <ele>172.4</ele>
        <time>2024-07-09T15:53:47Z</time>
      </trkpt>
      <trkpt lat="43.56657" lon="1.25058">
        <ele>172.6</ele>
        <time>2024-07-09T15:53:48Z</time>
      </trkpt>
      <trkpt lat="43.56658" lon="1.25064">
        <ele>172.8</ele>
        <time>2024-07-09T15:53:49Z</time>
      </trkpt>
      <trkpt lat="43.5666" lon="1.25071">
        <ele>172.8</ele>
        <time>2024-07-09T15:53:50Z</time>
      </trkpt>
      <trkpt lat="43.56662" lon="1.25078">
        <ele>173</ele>
        <time>2024-07-09T15:53:51Z</time>
      </trkpt>
      <trkpt lat="43.56663" lon="1.25083">
        <ele>173</ele>
        <time>2024-07-09T15:53:52Z</time>
      </trkpt>
      <trkpt lat="43.56665" lon="1.25089">
        <ele>173.4</ele>
        <time>2024-07-09T15:53:53Z</time>
      </trkpt>
      <trkpt lat="43.56668" lon="1.25095">
        <ele>173.6</ele>
        <time>2024-07-09T15:53:54Z</time>
      </trkpt>
      <trkpt lat="43.5667" lon="1.251">
        <ele>173.8</ele>
        <time>2024-07-09T15:53:55Z</time>
      </trkpt>
      <trkpt lat="43.56671" lon="1.25106">
        <ele>173.8</ele>
        <time>2024-07-09T15:53:56Z</time>
      </trkpt>
      <trkpt lat="43.56673" lon="1.25112">
        <ele>174</ele>
        <time>2024-07-09T15:53:57Z</time>
      </trkpt>
      <trkpt lat="43.56675" lon="1.25118">
        <ele>174.2</ele>
        <time>2024-07-09T15:53:58Z</time>
      </trkpt>
      <trkpt lat="43.56677" lon="1.25123">
        <ele>174.2</ele>
        <time>2024-07-09T15:53:59Z</time>
      </trkpt>
      <trkpt lat="43.56679" lon="1.25129">
        <ele>174.6</ele>
        <time>2024-07-09T15:54:00Z</time>
      </trkpt>
      <trkpt lat="43.56681" lon="1.25134">
        <ele>174.8</ele>
        <time>2024-07-09T15:54:01Z</time>
      </trkpt>
      <trkpt lat="43.56684" lon="1.2514">
        <ele>175.2</ele>
        <time>2024-07-09T15:54:02Z</time>
      </trkpt>
      <trkpt lat="43.56686" lon="1.25146">
        <ele>175.4</ele>
        <time>2024-07-09T15:54:03Z</time>
      </trkpt>
      <trkpt lat="43.56688" lon="1.25152">
        <ele>175.4</ele>
        <time>2024-07-09T15:54:04Z</time>
      </trkpt>
      <trkpt lat="43.56689" lon="1.25155">
        <ele>175.6</ele>
        <time>2024-07-09T15:54:05Z</time>
      </trkpt>
      <trkpt lat="43.56691" lon="1.2516">
        <ele>175.8</ele>
        <time>2024-07-09T15:54:06Z</time>
      </trkpt>
      <trkpt lat="43.56693" lon="1.25164">
        <ele>176.2</ele>
        <time>2024-07-09T15:54:07Z</time>
      </trkpt>
      <trkpt lat="43.56694" lon="1.2517">
        <ele>176.2</ele>
        <time>2024-07-09T15:54:08Z</time>
      </trkpt>
      <trkpt lat="43.56695" lon="1.25175">
        <ele>176.6</ele>
        <time>2024-07-09T15:54:09Z</time>
      </trkpt>
      <trkpt lat="43.56696" lon="1.2518">
        <ele>176.8</ele>
        <time>2024-07-09T15:54:10Z</time>
      </trkpt>
      <trkpt lat="43.56699" lon="1.25187">
        <ele>177</ele>
        <time>2024-07-09T15:54:11Z</time>
      </trkpt>
      <trkpt lat="43.56701" lon="1.25194">
        <ele>177.2</ele>
        <time>2024-07-09T15:54:12Z</time>
      </trkpt>
      <trkpt lat="43.56703" lon="1.252">
        <ele>177.2</ele>
        <time>2024-07-09T15:54:13Z</time>
      </trkpt>
      <trkpt lat="43.56705" lon="1.25207">
        <ele>177.4</ele>
        <time>2024-07-09T15:54:14Z</time>
      </trkpt>
      <trkpt lat="43.56707" lon="1.25214">
        <ele>177.4</ele>
        <time>2024-07-09T15:54:15Z</time>
      </trkpt>
      <trkpt lat="43.56709" lon="1.25222">
        <ele>177.4</ele>
        <time>2024-07-09T15:54:16Z</time>
      </trkpt>
      <trkpt lat="43.56712" lon="1.25231">
        <ele>177.4</ele>
        <time>2024-07-09T15:54:17Z</time>
      </trkpt>
      <trkpt lat="43.56714" lon="1.25241">
        <ele>177.4</ele>
        <time>2024-07-09T15:54:18Z</time>
      </trkpt>
      <trkpt lat="43.56715" lon="1.2525">
        <ele>177.4</ele>
        <time>2024-07-09T15:54:19Z</time>
      </trkpt>
      <trkpt lat="43.56716" lon="1.25257">
        <ele>177.4</ele>
        <time>2024-07-09T15:54:20Z</time>
      </trkpt>
      <trkpt lat="43.56718" lon="1.25267">
        <ele>177.2</ele>
        <time>2024-07-09T15:54:21Z</time>
      </trkpt>
      <trkpt lat="43.5672" lon="1.25277">
        <ele>177</ele>
        <time>2024-07-09T15:54:22Z</time>
      </trkpt>
      <trkpt lat="43.56721" lon="1.25286">
        <ele>177</ele>
        <time>2024-07-09T15:54:23Z</time>
      </trkpt>
      <trkpt lat="43.56723" lon="1.25296">
        <ele>176.8</ele>
        <time>2024-07-09T15:54:24Z</time>
      </trkpt>
      <trkpt lat="43.56725" lon="1.25304">
        <ele>176.8</ele>
        <time>2024-07-09T15:54:25Z</time>
      </trkpt>
      <trkpt lat="43.56726" lon="1.25313">
        <ele>176.6</ele>
        <time>2024-07-09T15:54:26Z</time>
      </trkpt>
      <trkpt lat="43.56728" lon="1.25323">
        <ele>176.6</ele>
        <time>2024-07-09T15:54:27Z</time>
      </trkpt>
      <trkpt lat="43.56729" lon="1.25332">
        <ele>176.6</ele>
        <time>2024-07-09T15:54:28Z</time>
      </trkpt>
      <trkpt lat="43.5673" lon="1.25341">
        <ele>176.4</ele>
        <time>2024-07-09T15:54:29Z</time>
      </trkpt>
      <trkpt lat="43.56732" lon="1.2535">
        <ele>176.4</ele>
        <time>2024-07-09T15:54:30Z</time>
      </trkpt>
      <trkpt lat="43.56733" lon="1.25359">
        <ele>176.2</ele>
        <time>2024-07-09T15:54:31Z</time>
      </trkpt>
      <trkpt lat="43.56735" lon="1.25369">
        <ele>176.2</ele>
        <time>2024-07-09T15:54:32Z</time>
      </trkpt>
      <trkpt lat="43.56736" lon="1.25378">
        <ele>176</ele>
        <time>2024-07-09T15:54:33Z</time>
      </trkpt>
      <trkpt lat="43.56737" lon="1.25387">
        <ele>175.8</ele>
        <time>2024-07-09T15:54:34Z</time>
      </trkpt>
      <trkpt lat="43.56738" lon="1.25396">
        <ele>175.8</ele>
        <time>2024-07-09T15:54:35Z</time>
      </trkpt>
      <trkpt lat="43.5674" lon="1.25405">
        <ele>175.6</ele>
        <time>2024-07-09T15:54:36Z</time>
      </trkpt>
      <trkpt lat="43.56742" lon="1.25414">
        <ele>175.6</ele>
        <time>2024-07-09T15:54:37Z</time>
      </trkpt>
      <trkpt lat="43.56743" lon="1.25423">
        <ele>175.6</ele>
        <time>2024-07-09T15:54:38Z</time>
      </trkpt>
      <trkpt lat="43.56745" lon="1.25432">
        <ele>175.6</ele>
        <time>2024-07-09T15:54:39Z</time>
      </trkpt>
      <trkpt lat="43.56747" lon="1.25441">
        <ele>175.6</ele>
        <time>2024-07-09T15:54:40Z</time>
      </trkpt>
      <trkpt lat="43.56749" lon="1.2545">
        <ele>175.4</ele>
        <time>2024-07-09T15:54:41Z</time>
      </trkpt>
      <trkpt lat="43.5675" lon="1.25458">
        <ele>175.4</ele>
        <time>2024-07-09T15:54:42Z</time>
      </trkpt>
      <trkpt lat="43.56752" lon="1.25466">
        <ele>175.2</ele>
        <time>2024-07-09T15:54:43Z</time>
      </trkpt>
      <trkpt lat="43.56753" lon="1.25474">
        <ele>175.2</ele>
        <time>2024-07-09T15:54:44Z</time>
      </trkpt>
      <trkpt lat="43.56754" lon="1.25483">
        <ele>175.2</ele>
        <time>2024-07-09T15:54:45Z</time>
      </trkpt>
      <trkpt lat="43.56755" lon="1.25491">
        <ele>175</ele>
        <time>2024-07-09T15:54:46Z</time>
      </trkpt>
      <trkpt lat="43.56757" lon="1.255">
        <ele>175</ele>
        <time>2024-07-09T15:54:47Z</time>
      </trkpt>
      <trkpt lat="43.56758" lon="1.25509">
        <ele>175</ele>
        <time>2024-07-09T15:54:48Z</time>
      </trkpt>
      <trkpt lat="43.56759" lon="1.25518">
        <ele>175</ele>
        <time>2024-07-09T15:54:49Z</time>
      </trkpt>
      <trkpt lat="43.5676" lon="1.25527">
        <ele>175</ele>
        <time>2024-07-09T15:54:50Z</time>
      </trkpt>
      <trkpt lat="43.56762" lon="1.25535">
        <ele>174.8</ele>
        <time>2024-07-09T15:54:51Z</time>
      </trkpt>
      <trkpt lat="43.56763" lon="1.25544">
        <ele>174.8</ele>
        <time>2024-07-09T15:54:52Z</time>
      </trkpt>
      <trkpt lat="43.56764" lon="1.25553">
        <ele>174.8</ele>
        <time>2024-07-09T15:54:53Z</time>
      </trkpt>
      <trkpt lat="43.56765" lon="1.25562">
        <ele>174.8</ele>
        <time>2024-07-09T15:54:54Z</time>
      </trkpt>
      <trkpt lat="43.56767" lon="1.25572">
        <ele>174.8</ele>
        <time>2024-07-09T15:54:55Z</time>
      </trkpt>
      <trkpt lat="43.56768" lon="1.25582">
        <ele>174.8</ele>
        <time>2024-07-09T15:54:56Z</time>
      </trkpt>
      <trkpt lat="43.56769" lon="1.25591">
        <ele>174.8</ele>
        <time>2024-07-09T15:54:57Z</time>
      </trkpt>
      <trkpt lat="43.56771" lon="1.25601">
        <ele>174.8</ele>
        <time>2024-07-09T15:54:58Z</time>
      </trkpt>
      <trkpt lat="43.56772" lon="1.25611">
        <ele>174.8</ele>
        <time>2024-07-09T15:54:59Z</time>
      </trkpt>
      <trkpt lat="43.56774" lon="1.2562">
        <ele>174.6</ele>
        <time>2024-07-09T15:55:00Z</time>
      </trkpt>
      <trkpt lat="43.56775" lon="1.2563">
        <ele>174.4</ele>
        <time>2024-07-09T15:55:01Z</time>
      </trkpt>
      <trkpt lat="43.56777" lon="1.25639">
        <ele>174.2</ele>
        <time>2024-07-09T15:55:02Z</time>
      </trkpt>
      <trkpt lat="43.56778" lon="1.25648">
        <ele>174.2</ele>
        <time>2024-07-09T15:55:03Z</time>
      </trkpt>
      <trkpt lat="43.56779" lon="1.25657">
        <ele>174</ele>
        <time>2024-07-09T15:55:04Z</time>
      </trkpt>
      <trkpt lat="43.56781" lon="1.25666">
        <ele>173.8</ele>
        <time>2024-07-09T15:55:05Z</time>
      </trkpt>
      <trkpt lat="43.56782" lon="1.25674">
        <ele>173.8</ele>
        <time>2024-07-09T15:55:06Z</time>
      </trkpt>
      <trkpt lat="43.56783" lon="1.25683">
        <ele>173.8</ele>
        <time>2024-07-09T15:55:07Z</time>
      </trkpt>
      <trkpt lat="43.56782" lon="1.25691">
        <ele>173.8</ele>
        <time>2024-07-09T15:55:08Z</time>
      </trkpt>
      <trkpt lat="43.56782" lon="1.257">
        <ele>173.8</ele>
        <time>2024-07-09T15:55:09Z</time>
      </trkpt>
      <trkpt lat="43.56781" lon="1.25709">
        <ele>173.8</ele>
        <time>2024-07-09T15:55:10Z</time>
      </trkpt>
      <trkpt lat="43.5678" lon="1.25717">
        <ele>173.8</ele>
        <time>2024-07-09T15:55:11Z</time>
      </trkpt>
      <trkpt lat="43.56778" lon="1.25725">
        <ele>173.8</ele>
        <time>2024-07-09T15:55:12Z</time>
      </trkpt>
      <trkpt lat="43.56777" lon="1.25733">
        <ele>173.8</ele>
        <time>2024-07-09T15:55:13Z</time>
      </trkpt>
      <trkpt lat="43.56776" lon="1.25741">
        <ele>173.8</ele>
        <time>2024-07-09T15:55:14Z</time>
      </trkpt>
      <trkpt lat="43.56774" lon="1.2575">
        <ele>173.8</ele>
        <time>2024-07-09T15:55:15Z</time>
      </trkpt>
      <trkpt lat="43.56773" lon="1.25757">
        <ele>173.8</ele>
        <time>2024-07-09T15:55:16Z</time>
      </trkpt>
      <trkpt lat="43.5677" lon="1.25765">
        <ele>173.8</ele>
        <time>2024-07-09T15:55:17Z</time>
      </trkpt>
      <trkpt lat="43.56768" lon="1.25773">
        <ele>173.8</ele>
        <time>2024-07-09T15:55:18Z</time>
      </trkpt>
      <trkpt lat="43.56767" lon="1.25781">
        <ele>173.8</ele>
        <time>2024-07-09T15:55:19Z</time>
      </trkpt>
      <trkpt lat="43.56766" lon="1.2579">
        <ele>173.8</ele>
        <time>2024-07-09T15:55:20Z</time>
      </trkpt>
      <trkpt lat="43.56765" lon="1.25798">
        <ele>173.8</ele>
        <time>2024-07-09T15:55:21Z</time>
      </trkpt>
      <trkpt lat="43.56764" lon="1.25806">
        <ele>173.8</ele>
        <time>2024-07-09T15:55:22Z</time>
      </trkpt>
      <trkpt lat="43.56764" lon="1.25815">
        <ele>173.8</ele>
        <time>2024-07-09T15:55:23Z</time>
      </trkpt>
      <trkpt lat="43.56764" lon="1.25823">
        <ele>173.8</ele>
        <time>2024-07-09T15:55:24Z</time>
      </trkpt>
      <trkpt lat="43.56765" lon="1.2583">
        <ele>174</ele>
        <time>2024-07-09T15:55:25Z</time>
      </trkpt>
      <trkpt lat="43.56765" lon="1.25838">
        <ele>174.2</ele>
        <time>2024-07-09T15:55:26Z</time>
      </trkpt>
      <trkpt lat="43.56765" lon="1.25846">
        <ele>174.6</ele>
        <time>2024-07-09T15:55:27Z</time>
      </trkpt>
      <trkpt lat="43.56765" lon="1.25853">
        <ele>174.6</ele>
        <time>2024-07-09T15:55:28Z</time>
      </trkpt>
      <trkpt lat="43.56766" lon="1.2586">
        <ele>175</ele>
        <time>2024-07-09T15:55:29Z</time>
      </trkpt>
      <trkpt lat="43.56766" lon="1.25866">
        <ele>175</ele>
        <time>2024-07-09T15:55:30Z</time>
      </trkpt>
      <trkpt lat="43.56767" lon="1.25872">
        <ele>175.2</ele>
        <time>2024-07-09T15:55:31Z</time>
      </trkpt>
      <trkpt lat="43.56768" lon="1.25878">
        <ele>175.2</ele>
        <time>2024-07-09T15:55:32Z</time>
      </trkpt>
      <trkpt lat="43.56769" lon="1.25883">
        <ele>175.4</ele>
        <time>2024-07-09T15:55:33Z</time>
      </trkpt>
      <trkpt lat="43.5677" lon="1.25889">
        <ele>175.6</ele>
        <time>2024-07-09T15:55:34Z</time>
      </trkpt>
      <trkpt lat="43.56771" lon="1.25895">
        <ele>175.8</ele>
        <time>2024-07-09T15:55:35Z</time>
      </trkpt>
      <trkpt lat="43.56771" lon="1.259">
        <ele>176</ele>
        <time>2024-07-09T15:55:36Z</time>
      </trkpt>
      <trkpt lat="43.56772" lon="1.25904">
        <ele>176.2</ele>
        <time>2024-07-09T15:55:37Z</time>
      </trkpt>
      <trkpt lat="43.56772" lon="1.25909">
        <ele>176.4</ele>
        <time>2024-07-09T15:55:38Z</time>
      </trkpt>
      <trkpt lat="43.56773" lon="1.25915">
        <ele>176.8</ele>
        <time>2024-07-09T15:55:39Z</time>
      </trkpt>
      <trkpt lat="43.56774" lon="1.2592">
        <ele>177</ele>
        <time>2024-07-09T15:55:40Z</time>
      </trkpt>
      <trkpt lat="43.56774" lon="1.25926">
        <ele>177.4</ele>
        <time>2024-07-09T15:55:41Z</time>
      </trkpt>
      <trkpt lat="43.56774" lon="1.25933">
        <ele>177.6</ele>
        <time>2024-07-09T15:55:42Z</time>
      </trkpt>
      <trkpt lat="43.56775" lon="1.25939">
        <ele>177.8</ele>
        <time>2024-07-09T15:55:43Z</time>
      </trkpt>
      <trkpt lat="43.56775" lon="1.25945">
        <ele>178.4</ele>
        <time>2024-07-09T15:55:44Z</time>
      </trkpt>
      <trkpt lat="43.56774" lon="1.25951">
        <ele>178.6</ele>
        <time>2024-07-09T15:55:45Z</time>
      </trkpt>
      <trkpt lat="43.56775" lon="1.25957">
        <ele>178.8</ele>
        <time>2024-07-09T15:55:46Z</time>
      </trkpt>
      <trkpt lat="43.56775" lon="1.25962">
        <ele>179</ele>
        <time>2024-07-09T15:55:47Z</time>
      </trkpt>
      <trkpt lat="43.56774" lon="1.25967">
        <ele>179.2</ele>
        <time>2024-07-09T15:55:48Z</time>
      </trkpt>
      <trkpt lat="43.56773" lon="1.25973">
        <ele>179.4</ele>
        <time>2024-07-09T15:55:49Z</time>
      </trkpt>
      <trkpt lat="43.56772" lon="1.25978">
        <ele>179.6</ele>
        <time>2024-07-09T15:55:50Z</time>
      </trkpt>
      <trkpt lat="43.5677" lon="1.25984">
        <ele>180</ele>
        <time>2024-07-09T15:55:51Z</time>
      </trkpt>
      <trkpt lat="43.56769" lon="1.25991">
        <ele>180</ele>
        <time>2024-07-09T15:55:52Z</time>
      </trkpt>
      <trkpt lat="43.56767" lon="1.26">
        <ele>180.2</ele>
        <time>2024-07-09T15:55:53Z</time>
      </trkpt>
      <trkpt lat="43.56766" lon="1.26007">
        <ele>180.4</ele>
        <time>2024-07-09T15:55:54Z</time>
      </trkpt>
      <trkpt lat="43.56765" lon="1.26014">
        <ele>180.6</ele>
        <time>2024-07-09T15:55:55Z</time>
      </trkpt>
      <trkpt lat="43.56765" lon="1.2602">
        <ele>180.6</ele>
        <time>2024-07-09T15:55:56Z</time>
      </trkpt>
      <trkpt lat="43.56765" lon="1.26027">
        <ele>180.6</ele>
        <time>2024-07-09T15:55:57Z</time>
      </trkpt>
      <trkpt lat="43.56765" lon="1.26033">
        <ele>180.6</ele>
        <time>2024-07-09T15:55:58Z</time>
      </trkpt>
      <trkpt lat="43.56765" lon="1.26036">
        <ele>180.6</ele>
        <time>2024-07-09T15:55:59Z</time>
      </trkpt>
      <trkpt lat="43.56764" lon="1.26041">
        <ele>181</ele>
        <time>2024-07-09T15:56:00Z</time>
      </trkpt>
      <trkpt lat="43.56763" lon="1.26047">
        <ele>181</ele>
        <time>2024-07-09T15:56:01Z</time>
      </trkpt>
      <trkpt lat="43.56762" lon="1.26053">
        <ele>181</ele>
        <time>2024-07-09T15:56:02Z</time>
      </trkpt>
      <trkpt lat="43.56762" lon="1.26058">
        <ele>181.2</ele>
        <time>2024-07-09T15:56:03Z</time>
      </trkpt>
      <trkpt lat="43.56763" lon="1.26063">
        <ele>181.2</ele>
        <time>2024-07-09T15:56:04Z</time>
      </trkpt>
      <trkpt lat="43.56763" lon="1.26068">
        <ele>181.2</ele>
        <time>2024-07-09T15:56:05Z</time>
      </trkpt>
      <trkpt lat="43.56763" lon="1.26074">
        <ele>181.2</ele>
        <time>2024-07-09T15:56:06Z</time>
      </trkpt>
      <trkpt lat="43.56764" lon="1.26081">
        <ele>181.4</ele>
        <time>2024-07-09T15:56:07Z</time>
      </trkpt>
      <trkpt lat="43.56764" lon="1.26087">
        <ele>181.6</ele>
        <time>2024-07-09T15:56:08Z</time>
      </trkpt>
      <trkpt lat="43.56763" lon="1.2609">
        <ele>181.6</ele>
        <time>2024-07-09T15:56:09Z</time>
      </trkpt>
      <trkpt lat="43.56764" lon="1.26096">
        <ele>181.6</ele>
        <time>2024-07-09T15:56:10Z</time>
      </trkpt>
      <trkpt lat="43.56764" lon="1.26101">
        <ele>181.6</ele>
        <time>2024-07-09T15:56:11Z</time>
      </trkpt>
      <trkpt lat="43.56765" lon="1.26108">
        <ele>181.6</ele>
        <time>2024-07-09T15:56:12Z</time>
      </trkpt>
      <trkpt lat="43.56766" lon="1.26113">
        <ele>181.8</ele>
        <time>2024-07-09T15:56:13Z</time>
      </trkpt>
      <trkpt lat="43.56766" lon="1.26118">
        <ele>182.2</ele>
        <time>2024-07-09T15:56:14Z</time>
      </trkpt>
      <trkpt lat="43.56767" lon="1.26123">
        <ele>182.4</ele>
        <time>2024-07-09T15:56:15Z</time>
      </trkpt>
      <trkpt lat="43.56767" lon="1.26129">
        <ele>182.4</ele>
        <time>2024-07-09T15:56:16Z</time>
      </trkpt>
      <trkpt lat="43.56768" lon="1.26134">
        <ele>182.6</ele>
        <time>2024-07-09T15:56:17Z</time>
      </trkpt>
      <trkpt lat="43.56768" lon="1.26141">
        <ele>182.6</ele>
        <time>2024-07-09T15:56:18Z</time>
      </trkpt>
      <trkpt lat="43.56768" lon="1.26147">
        <ele>182.8</ele>
        <time>2024-07-09T15:56:19Z</time>
      </trkpt>
      <trkpt lat="43.56768" lon="1.26154">
        <ele>183</ele>
        <time>2024-07-09T15:56:20Z</time>
      </trkpt>
      <trkpt lat="43.56768" lon="1.26163">
        <ele>183.2</ele>
        <time>2024-07-09T15:56:21Z</time>
      </trkpt>
      <trkpt lat="43.56768" lon="1.26169">
        <ele>183.4</ele>
        <time>2024-07-09T15:56:22Z</time>
      </trkpt>
      <trkpt lat="43.56768" lon="1.26176">
        <ele>183.4</ele>
        <time>2024-07-09T15:56:23Z</time>
      </trkpt>
      <trkpt lat="43.56768" lon="1.26184">
        <ele>183.6</ele>
        <time>2024-07-09T15:56:24Z</time>
      </trkpt>
      <trkpt lat="43.56767" lon="1.26191">
        <ele>183.8</ele>
        <time>2024-07-09T15:56:25Z</time>
      </trkpt>
      <trkpt lat="43.56767" lon="1.26198">
        <ele>184</ele>
        <time>2024-07-09T15:56:26Z</time>
      </trkpt>
      <trkpt lat="43.56766" lon="1.26206">
        <ele>184</ele>
        <time>2024-07-09T15:56:27Z</time>
      </trkpt>
      <trkpt lat="43.56765" lon="1.26213">
        <ele>184</ele>
        <time>2024-07-09T15:56:28Z</time>
      </trkpt>
      <trkpt lat="43.56765" lon="1.26221">
        <ele>184.2</ele>
        <time>2024-07-09T15:56:29Z</time>
      </trkpt>
      <trkpt lat="43.56764" lon="1.26228">
        <ele>184.2</ele>
        <time>2024-07-09T15:56:30Z</time>
      </trkpt>
      <trkpt lat="43.56763" lon="1.26234">
        <ele>184.4</ele>
        <time>2024-07-09T15:56:31Z</time>
      </trkpt>
      <trkpt lat="43.56762" lon="1.26243">
        <ele>184.4</ele>
        <time>2024-07-09T15:56:32Z</time>
      </trkpt>
      <trkpt lat="43.56761" lon="1.2625">
        <ele>184.4</ele>
        <time>2024-07-09T15:56:33Z</time>
      </trkpt>
      <trkpt lat="43.56761" lon="1.26257">
        <ele>184.6</ele>
        <time>2024-07-09T15:56:34Z</time>
      </trkpt>
      <trkpt lat="43.5676" lon="1.26265">
        <ele>184.6</ele>
        <time>2024-07-09T15:56:35Z</time>
      </trkpt>
      <trkpt lat="43.56759" lon="1.26274">
        <ele>184.8</ele>
        <time>2024-07-09T15:56:36Z</time>
      </trkpt>
      <trkpt lat="43.56758" lon="1.2628">
        <ele>184.8</ele>
        <time>2024-07-09T15:56:37Z</time>
      </trkpt>
      <trkpt lat="43.56757" lon="1.26287">
        <ele>184.8</ele>
        <time>2024-07-09T15:56:38Z</time>
      </trkpt>
      <trkpt lat="43.56756" lon="1.26296">
        <ele>185</ele>
        <time>2024-07-09T15:56:39Z</time>
      </trkpt>
      <trkpt lat="43.56756" lon="1.26302">
        <ele>185</ele>
        <time>2024-07-09T15:56:40Z</time>
      </trkpt>
      <trkpt lat="43.56756" lon="1.26312">
        <ele>185</ele>
        <time>2024-07-09T15:56:41Z</time>
      </trkpt>
      <trkpt lat="43.56755" lon="1.26318">
        <ele>185</ele>
        <time>2024-07-09T15:56:42Z</time>
      </trkpt>
      <trkpt lat="43.56755" lon="1.26326">
        <ele>185</ele>
        <time>2024-07-09T15:56:43Z</time>
      </trkpt>
      <trkpt lat="43.56755" lon="1.26334">
        <ele>185</ele>
        <time>2024-07-09T15:56:44Z</time>
      </trkpt>
      <trkpt lat="43.56754" lon="1.26342">
        <ele>185</ele>
        <time>2024-07-09T15:56:45Z</time>
      </trkpt>
      <trkpt lat="43.56754" lon="1.2635">
        <ele>185</ele>
        <time>2024-07-09T15:56:46Z</time>
      </trkpt>
      <trkpt lat="43.56754" lon="1.26358">
        <ele>185</ele>
        <time>2024-07-09T15:56:47Z</time>
      </trkpt>
      <trkpt lat="43.56755" lon="1.26366">
        <ele>185</ele>
        <time>2024-07-09T15:56:48Z</time>
      </trkpt>
      <trkpt lat="43.56755" lon="1.26376">
        <ele>185</ele>
        <time>2024-07-09T15:56:49Z</time>
      </trkpt>
      <trkpt lat="43.56756" lon="1.26384">
        <ele>185</ele>
        <time>2024-07-09T15:56:50Z</time>
      </trkpt>
      <trkpt lat="43.56756" lon="1.26391">
        <ele>185</ele>
        <time>2024-07-09T15:56:51Z</time>
      </trkpt>
      <trkpt lat="43.56757" lon="1.26399">
        <ele>185</ele>
        <time>2024-07-09T15:56:52Z</time>
      </trkpt>
      <trkpt lat="43.56758" lon="1.26408">
        <ele>185</ele>
        <time>2024-07-09T15:56:53Z</time>
      </trkpt>
      <trkpt lat="43.56758" lon="1.26417">
        <ele>185</ele>
        <time>2024-07-09T15:56:54Z</time>
      </trkpt>
      <trkpt lat="43.56759" lon="1.26425">
        <ele>185</ele>
        <time>2024-07-09T15:56:55Z</time>
      </trkpt>
      <trkpt lat="43.56759" lon="1.26425">
        <ele>185</ele>
        <time>2024-07-09T15:56:56Z</time>
      </trkpt>
      <trkpt lat="43.56761" lon="1.26443">
        <ele>185</ele>
        <time>2024-07-09T15:56:57Z</time>
      </trkpt>
      <trkpt lat="43.56762" lon="1.26452">
        <ele>185.2</ele>
        <time>2024-07-09T15:56:58Z</time>
      </trkpt>
      <trkpt lat="43.56763" lon="1.26461">
        <ele>185.2</ele>
        <time>2024-07-09T15:56:59Z</time>
      </trkpt>
      <trkpt lat="43.56764" lon="1.2647">
        <ele>185.2</ele>
        <time>2024-07-09T15:57:00Z</time>
      </trkpt>
      <trkpt lat="43.56765" lon="1.26479">
        <ele>185.2</ele>
        <time>2024-07-09T15:57:01Z</time>
      </trkpt>
      <trkpt lat="43.56767" lon="1.26488">
        <ele>185.2</ele>
        <time>2024-07-09T15:57:02Z</time>
      </trkpt>
      <trkpt lat="43.56767" lon="1.26497">
        <ele>185.2</ele>
        <time>2024-07-09T15:57:03Z</time>
      </trkpt>
      <trkpt lat="43.56768" lon="1.26506">
        <ele>185.2</ele>
        <time>2024-07-09T15:57:04Z</time>
      </trkpt>
      <trkpt lat="43.56769" lon="1.26515">
        <ele>185.2</ele>
        <time>2024-07-09T15:57:05Z</time>
      </trkpt>
      <trkpt lat="43.5677" lon="1.26524">
        <ele>185.2</ele>
        <time>2024-07-09T15:57:06Z</time>
      </trkpt>
      <trkpt lat="43.56771" lon="1.26533">
        <ele>185</ele>
        <time>2024-07-09T15:57:07Z</time>
      </trkpt>
      <trkpt lat="43.56772" lon="1.26542">
        <ele>185</ele>
        <time>2024-07-09T15:57:08Z</time>
      </trkpt>
      <trkpt lat="43.56773" lon="1.2655">
        <ele>185</ele>
        <time>2024-07-09T15:57:09Z</time>
      </trkpt>
      <trkpt lat="43.56773" lon="1.26559">
        <ele>185</ele>
        <time>2024-07-09T15:57:10Z</time>
      </trkpt>
      <trkpt lat="43.56774" lon="1.26568">
        <ele>185</ele>
        <time>2024-07-09T15:57:11Z</time>
      </trkpt>
      <trkpt lat="43.56775" lon="1.26576">
        <ele>185</ele>
        <time>2024-07-09T15:57:12Z</time>
      </trkpt>
      <trkpt lat="43.56776" lon="1.26586">
        <ele>185</ele>
        <time>2024-07-09T15:57:13Z</time>
      </trkpt>
      <trkpt lat="43.56777" lon="1.26594">
        <ele>185</ele>
        <time>2024-07-09T15:57:14Z</time>
      </trkpt>
      <trkpt lat="43.56778" lon="1.266">
        <ele>184.8</ele>
        <time>2024-07-09T15:57:15Z</time>
      </trkpt>
      <trkpt lat="43.56778" lon="1.26607">
        <ele>184.8</ele>
        <time>2024-07-09T15:57:16Z</time>
      </trkpt>
      <trkpt lat="43.56778" lon="1.26613">
        <ele>184.8</ele>
        <time>2024-07-09T15:57:17Z</time>
      </trkpt>
      <trkpt lat="43.56775" lon="1.26618">
        <ele>184.8</ele>
        <time>2024-07-09T15:57:18Z</time>
      </trkpt>
      <trkpt lat="43.56772" lon="1.26622">
        <ele>184.8</ele>
        <time>2024-07-09T15:57:19Z</time>
      </trkpt>
      <trkpt lat="43.5677" lon="1.26623">
        <ele>184.8</ele>
        <time>2024-07-09T15:57:20Z</time>
      </trkpt>
      <trkpt lat="43.56768" lon="1.26624">
        <ele>184.8</ele>
        <time>2024-07-09T15:57:21Z</time>
      </trkpt>
      <trkpt lat="43.56765" lon="1.26624">
        <ele>185</ele>
        <time>2024-07-09T15:57:22Z</time>
      </trkpt>
      <trkpt lat="43.56761" lon="1.26623">
        <ele>185</ele>
        <time>2024-07-09T15:57:23Z</time>
      </trkpt>
      <trkpt lat="43.56757" lon="1.26622">
        <ele>185</ele>
        <time>2024-07-09T15:57:24Z</time>
      </trkpt>
      <trkpt lat="43.56753" lon="1.26622">
        <ele>185</ele>
        <time>2024-07-09T15:57:25Z</time>
      </trkpt>
      <trkpt lat="43.56749" lon="1.26621">
        <ele>185</ele>
        <time>2024-07-09T15:57:26Z</time>
      </trkpt>
      <trkpt lat="43.56744" lon="1.26621">
        <ele>185</ele>
        <time>2024-07-09T15:57:27Z</time>
      </trkpt>
      <trkpt lat="43.5674" lon="1.2662">
        <ele>185</ele>
        <time>2024-07-09T15:57:28Z</time>
      </trkpt>
      <trkpt lat="43.56734" lon="1.26619">
        <ele>185</ele>
        <time>2024-07-09T15:57:29Z</time>
      </trkpt>
      <trkpt lat="43.5673" lon="1.26618">
        <ele>185</ele>
        <time>2024-07-09T15:57:30Z</time>
      </trkpt>
      <trkpt lat="43.56724" lon="1.26617">
        <ele>185</ele>
        <time>2024-07-09T15:57:31Z</time>
      </trkpt>
      <trkpt lat="43.56718" lon="1.26615">
        <ele>185</ele>
        <time>2024-07-09T15:57:32Z</time>
      </trkpt>
      <trkpt lat="43.56712" lon="1.26613">
        <ele>185</ele>
        <time>2024-07-09T15:57:33Z</time>
      </trkpt>
      <trkpt lat="43.56708" lon="1.26612">
        <ele>185</ele>
        <time>2024-07-09T15:57:34Z</time>
      </trkpt>
      <trkpt lat="43.56703" lon="1.2661">
        <ele>185</ele>
        <time>2024-07-09T15:57:35Z</time>
      </trkpt>
      <trkpt lat="43.56697" lon="1.26609">
        <ele>185</ele>
        <time>2024-07-09T15:57:36Z</time>
      </trkpt>
      <trkpt lat="43.56691" lon="1.26606">
        <ele>185</ele>
        <time>2024-07-09T15:57:37Z</time>
      </trkpt>
      <trkpt lat="43.56685" lon="1.26603">
        <ele>185</ele>
        <time>2024-07-09T15:57:38Z</time>
      </trkpt>
      <trkpt lat="43.5668" lon="1.26601">
        <ele>185.2</ele>
        <time>2024-07-09T15:57:39Z</time>
      </trkpt>
      <trkpt lat="43.56674" lon="1.26599">
        <ele>185</ele>
        <time>2024-07-09T15:57:40Z</time>
      </trkpt>
      <trkpt lat="43.56667" lon="1.26597">
        <ele>185</ele>
        <time>2024-07-09T15:57:41Z</time>
      </trkpt>
      <trkpt lat="43.56663" lon="1.26595">
        <ele>185</ele>
        <time>2024-07-09T15:57:42Z</time>
      </trkpt>
      <trkpt lat="43.56655" lon="1.26592">
        <ele>185</ele>
        <time>2024-07-09T15:57:43Z</time>
      </trkpt>
      <trkpt lat="43.56651" lon="1.2659">
        <ele>185</ele>
        <time>2024-07-09T15:57:44Z</time>
      </trkpt>
      <trkpt lat="43.56645" lon="1.26588">
        <ele>185</ele>
        <time>2024-07-09T15:57:45Z</time>
      </trkpt>
      <trkpt lat="43.56639" lon="1.26585">
        <ele>185</ele>
        <time>2024-07-09T15:57:46Z</time>
      </trkpt>
      <trkpt lat="43.56633" lon="1.26583">
        <ele>185</ele>
        <time>2024-07-09T15:57:47Z</time>
      </trkpt>
      <trkpt lat="43.56627" lon="1.26582">
        <ele>185</ele>
        <time>2024-07-09T15:57:48Z</time>
      </trkpt>
      <trkpt lat="43.5662" lon="1.2658">
        <ele>185</ele>
        <time>2024-07-09T15:57:49Z</time>
      </trkpt>
      <trkpt lat="43.56614" lon="1.26578">
        <ele>185</ele>
        <time>2024-07-09T15:57:50Z</time>
      </trkpt>
      <trkpt lat="43.56608" lon="1.26577">
        <ele>185</ele>
        <time>2024-07-09T15:57:51Z</time>
      </trkpt>
      <trkpt lat="43.566" lon="1.26576">
        <ele>185</ele>
        <time>2024-07-09T15:57:52Z</time>
      </trkpt>
      <trkpt lat="43.56593" lon="1.26575">
        <ele>185</ele>
        <time>2024-07-09T15:57:53Z</time>
      </trkpt>
      <trkpt lat="43.56588" lon="1.26574">
        <ele>185</ele>
        <time>2024-07-09T15:57:54Z</time>
      </trkpt>
      <trkpt lat="43.56581" lon="1.26574">
        <ele>185</ele>
        <time>2024-07-09T15:57:55Z</time>
      </trkpt>
      <trkpt lat="43.56575" lon="1.26573">
        <ele>185</ele>
        <time>2024-07-09T15:57:56Z</time>
      </trkpt>
      <trkpt lat="43.56567" lon="1.26572">
        <ele>185</ele>
        <time>2024-07-09T15:57:57Z</time>
      </trkpt>
      <trkpt lat="43.56561" lon="1.26571">
        <ele>185</ele>
        <time>2024-07-09T15:57:58Z</time>
      </trkpt>
      <trkpt lat="43.56554" lon="1.26571">
        <ele>185</ele>
        <time>2024-07-09T15:57:59Z</time>
      </trkpt>
      <trkpt lat="43.56546" lon="1.26571">
        <ele>185</ele>
        <time>2024-07-09T15:58:00Z</time>
      </trkpt>
      <trkpt lat="43.56539" lon="1.26571">
        <ele>185</ele>
        <time>2024-07-09T15:58:01Z</time>
      </trkpt>
      <trkpt lat="43.56533" lon="1.26571">
        <ele>185</ele>
        <time>2024-07-09T15:58:02Z</time>
      </trkpt>
      <trkpt lat="43.56528" lon="1.26571">
        <ele>185</ele>
        <time>2024-07-09T15:58:03Z</time>
      </trkpt>
      <trkpt lat="43.56521" lon="1.26571">
        <ele>185</ele>
        <time>2024-07-09T15:58:04Z</time>
      </trkpt>
      <trkpt lat="43.56514" lon="1.26569">
        <ele>185</ele>
        <time>2024-07-09T15:58:05Z</time>
      </trkpt>
      <trkpt lat="43.56507" lon="1.26568">
        <ele>185</ele>
        <time>2024-07-09T15:58:06Z</time>
      </trkpt>
      <trkpt lat="43.56501" lon="1.26567">
        <ele>185</ele>
        <time>2024-07-09T15:58:07Z</time>
      </trkpt>
      <trkpt lat="43.56496" lon="1.26566">
        <ele>185</ele>
        <time>2024-07-09T15:58:08Z</time>
      </trkpt>
      <trkpt lat="43.56489" lon="1.26566">
        <ele>185</ele>
        <time>2024-07-09T15:58:09Z</time>
      </trkpt>
      <trkpt lat="43.56483" lon="1.26565">
        <ele>185</ele>
        <time>2024-07-09T15:58:10Z</time>
      </trkpt>
      <trkpt lat="43.56475" lon="1.26564">
        <ele>185</ele>
        <time>2024-07-09T15:58:11Z</time>
      </trkpt>
      <trkpt lat="43.56468" lon="1.26564">
        <ele>185</ele>
        <time>2024-07-09T15:58:12Z</time>
      </trkpt>
      <trkpt lat="43.56462" lon="1.26563">
        <ele>185</ele>
        <time>2024-07-09T15:58:13Z</time>
      </trkpt>
      <trkpt lat="43.56457" lon="1.26563">
        <ele>185</ele>
        <time>2024-07-09T15:58:14Z</time>
      </trkpt>
      <trkpt lat="43.5645" lon="1.26562">
        <ele>185</ele>
        <time>2024-07-09T15:58:15Z</time>
      </trkpt>
      <trkpt lat="43.56442" lon="1.26561">
        <ele>185</ele>
        <time>2024-07-09T15:58:16Z</time>
      </trkpt>
      <trkpt lat="43.56435" lon="1.26561">
        <ele>185.2</ele>
        <time>2024-07-09T15:58:17Z</time>
      </trkpt>
      <trkpt lat="43.56429" lon="1.2656">
        <ele>185.2</ele>
        <time>2024-07-09T15:58:18Z</time>
      </trkpt>
      <trkpt lat="43.56423" lon="1.2656">
        <ele>185.2</ele>
        <time>2024-07-09T15:58:19Z</time>
      </trkpt>
      <trkpt lat="43.56417" lon="1.2656">
        <ele>185.2</ele>
        <time>2024-07-09T15:58:20Z</time>
      </trkpt>
      <trkpt lat="43.5641" lon="1.26559">
        <ele>185.2</ele>
        <time>2024-07-09T15:58:21Z</time>
      </trkpt>
      <trkpt lat="43.56403" lon="1.26559">
        <ele>185.2</ele>
        <time>2024-07-09T15:58:22Z</time>
      </trkpt>
      <trkpt lat="43.56396" lon="1.26559">
        <ele>185.2</ele>
        <time>2024-07-09T15:58:23Z</time>
      </trkpt>
      <trkpt lat="43.56391" lon="1.26559">
        <ele>185.2</ele>
        <time>2024-07-09T15:58:24Z</time>
      </trkpt>
      <trkpt lat="43.56385" lon="1.26559">
        <ele>185.2</ele>
        <time>2024-07-09T15:58:25Z</time>
      </trkpt>
      <trkpt lat="43.56378" lon="1.26558">
        <ele>185.2</ele>
        <time>2024-07-09T15:58:26Z</time>
      </trkpt>
      <trkpt lat="43.56372" lon="1.26558">
        <ele>185.2</ele>
        <time>2024-07-09T15:58:27Z</time>
      </trkpt>
      <trkpt lat="43.56364" lon="1.26557">
        <ele>185.2</ele>
        <time>2024-07-09T15:58:28Z</time>
      </trkpt>
      <trkpt lat="43.56358" lon="1.26556">
        <ele>185.2</ele>
        <time>2024-07-09T15:58:29Z</time>
      </trkpt>
      <trkpt lat="43.56352" lon="1.26556">
        <ele>185.2</ele>
        <time>2024-07-09T15:58:30Z</time>
      </trkpt>
      <trkpt lat="43.56345" lon="1.26555">
        <ele>185.2</ele>
        <time>2024-07-09T15:58:31Z</time>
      </trkpt>
      <trkpt lat="43.56337" lon="1.26554">
        <ele>185.2</ele>
        <time>2024-07-09T15:58:32Z</time>
      </trkpt>
      <trkpt lat="43.56332" lon="1.26553">
        <ele>185.2</ele>
        <time>2024-07-09T15:58:33Z</time>
      </trkpt>
      <trkpt lat="43.56325" lon="1.26552">
        <ele>185.2</ele>
        <time>2024-07-09T15:58:34Z</time>
      </trkpt>
      <trkpt lat="43.5632" lon="1.26552">
        <ele>185.2</ele>
        <time>2024-07-09T15:58:35Z</time>
      </trkpt>
      <trkpt lat="43.56313" lon="1.26552">
        <ele>185.2</ele>
        <time>2024-07-09T15:58:36Z</time>
      </trkpt>
      <trkpt lat="43.56307" lon="1.26552">
        <ele>185.2</ele>
        <time>2024-07-09T15:58:37Z</time>
      </trkpt>
      <trkpt lat="43.56299" lon="1.26552">
        <ele>185.4</ele>
        <time>2024-07-09T15:58:38Z</time>
      </trkpt>
      <trkpt lat="43.56294" lon="1.26551">
        <ele>185.2</ele>
        <time>2024-07-09T15:58:39Z</time>
      </trkpt>
      <trkpt lat="43.56289" lon="1.26551">
        <ele>185.2</ele>
        <time>2024-07-09T15:58:40Z</time>
      </trkpt>
      <trkpt lat="43.56283" lon="1.26552">
        <ele>185.4</ele>
        <time>2024-07-09T15:58:41Z</time>
      </trkpt>
      <trkpt lat="43.5628" lon="1.26557">
        <ele>185.4</ele>
        <time>2024-07-09T15:58:42Z</time>
      </trkpt>
      <trkpt lat="43.56278" lon="1.26565">
        <ele>185.4</ele>
        <time>2024-07-09T15:58:43Z</time>
      </trkpt>
      <trkpt lat="43.56278" lon="1.26573">
        <ele>185.4</ele>
        <time>2024-07-09T15:58:44Z</time>
      </trkpt>
      <trkpt lat="43.5628" lon="1.26579">
        <ele>185.4</ele>
        <time>2024-07-09T15:58:45Z</time>
      </trkpt>
      <trkpt lat="43.56283" lon="1.26587">
        <ele>185.4</ele>
        <time>2024-07-09T15:58:46Z</time>
      </trkpt>
      <trkpt lat="43.56287" lon="1.26593">
        <ele>185.4</ele>
        <time>2024-07-09T15:58:47Z</time>
      </trkpt>
      <trkpt lat="43.56293" lon="1.26601">
        <ele>185.4</ele>
        <time>2024-07-09T15:58:48Z</time>
      </trkpt>
      <trkpt lat="43.56298" lon="1.26607">
        <ele>185.4</ele>
        <time>2024-07-09T15:58:49Z</time>
      </trkpt>
      <trkpt lat="43.56303" lon="1.26613">
        <ele>185.4</ele>
        <time>2024-07-09T15:58:50Z</time>
      </trkpt>
      <trkpt lat="43.56306" lon="1.26618">
        <ele>185.2</ele>
        <time>2024-07-09T15:58:51Z</time>
      </trkpt>
      <trkpt lat="43.56311" lon="1.26625">
        <ele>185.4</ele>
        <time>2024-07-09T15:58:52Z</time>
      </trkpt>
      <trkpt lat="43.56315" lon="1.26632">
        <ele>185.4</ele>
        <time>2024-07-09T15:58:53Z</time>
      </trkpt>
      <trkpt lat="43.5632" lon="1.2664">
        <ele>185.2</ele>
        <time>2024-07-09T15:58:54Z</time>
      </trkpt>
      <trkpt lat="43.56324" lon="1.26647">
        <ele>185.2</ele>
        <time>2024-07-09T15:58:55Z</time>
      </trkpt>
      <trkpt lat="43.56327" lon="1.26654">
        <ele>185.2</ele>
        <time>2024-07-09T15:58:56Z</time>
      </trkpt>
      <trkpt lat="43.56327" lon="1.2666">
        <ele>185.2</ele>
        <time>2024-07-09T15:58:57Z</time>
      </trkpt>
      <trkpt lat="43.56327" lon="1.26668">
        <ele>185.2</ele>
        <time>2024-07-09T15:58:58Z</time>
      </trkpt>
      <trkpt lat="43.56325" lon="1.26677">
        <ele>185.2</ele>
        <time>2024-07-09T15:58:59Z</time>
      </trkpt>
      <trkpt lat="43.56322" lon="1.26684">
        <ele>185.2</ele>
        <time>2024-07-09T15:59:00Z</time>
      </trkpt>
      <trkpt lat="43.56318" lon="1.26688">
        <ele>185.2</ele>
        <time>2024-07-09T15:59:01Z</time>
      </trkpt>
      <trkpt lat="43.56313" lon="1.26692">
        <ele>185.2</ele>
        <time>2024-07-09T15:59:02Z</time>
      </trkpt>
      <trkpt lat="43.56308" lon="1.26697">
        <ele>185</ele>
        <time>2024-07-09T15:59:03Z</time>
      </trkpt>
      <trkpt lat="43.56303" lon="1.26702">
        <ele>185</ele>
        <time>2024-07-09T15:59:04Z</time>
      </trkpt>
      <trkpt lat="43.56299" lon="1.26708">
        <ele>185</ele>
        <time>2024-07-09T15:59:05Z</time>
      </trkpt>
      <trkpt lat="43.56294" lon="1.26713">
        <ele>185</ele>
        <time>2024-07-09T15:59:06Z</time>
      </trkpt>
      <trkpt lat="43.56289" lon="1.26719">
        <ele>184.8</ele>
        <time>2024-07-09T15:59:07Z</time>
      </trkpt>
      <trkpt lat="43.56284" lon="1.26723">
        <ele>184.8</ele>
        <time>2024-07-09T15:59:08Z</time>
      </trkpt>
      <trkpt lat="43.5628" lon="1.26729">
        <ele>184.8</ele>
        <time>2024-07-09T15:59:09Z</time>
      </trkpt>
      <trkpt lat="43.56274" lon="1.26735">
        <ele>184.8</ele>
        <time>2024-07-09T15:59:10Z</time>
      </trkpt>
      <trkpt lat="43.5627" lon="1.26741">
        <ele>184.8</ele>
        <time>2024-07-09T15:59:11Z</time>
      </trkpt>
      <trkpt lat="43.56266" lon="1.26745">
        <ele>185</ele>
        <time>2024-07-09T15:59:12Z</time>
      </trkpt>
      <trkpt lat="43.56261" lon="1.2675">
        <ele>185</ele>
        <time>2024-07-09T15:59:13Z</time>
      </trkpt>
      <trkpt lat="43.56256" lon="1.26756">
        <ele>185</ele>
        <time>2024-07-09T15:59:14Z</time>
      </trkpt>
      <trkpt lat="43.56251" lon="1.26762">
        <ele>185</ele>
        <time>2024-07-09T15:59:15Z</time>
      </trkpt>
      <trkpt lat="43.56247" lon="1.26767">
        <ele>185.2</ele>
        <time>2024-07-09T15:59:16Z</time>
      </trkpt>
      <trkpt lat="43.56243" lon="1.26772">
        <ele>185.2</ele>
        <time>2024-07-09T15:59:17Z</time>
      </trkpt>
      <trkpt lat="43.56238" lon="1.26778">
        <ele>185.2</ele>
        <time>2024-07-09T15:59:18Z</time>
      </trkpt>
      <trkpt lat="43.56234" lon="1.26784">
        <ele>185.4</ele>
        <time>2024-07-09T15:59:19Z</time>
      </trkpt>
      <trkpt lat="43.56228" lon="1.26791">
        <ele>185.4</ele>
        <time>2024-07-09T15:59:20Z</time>
      </trkpt>
      <trkpt lat="43.56223" lon="1.26796">
        <ele>185.4</ele>
        <time>2024-07-09T15:59:21Z</time>
      </trkpt>
      <trkpt lat="43.56219" lon="1.26802">
        <ele>185.4</ele>
        <time>2024-07-09T15:59:22Z</time>
      </trkpt>
      <trkpt lat="43.56215" lon="1.26808">
        <ele>185.4</ele>
        <time>2024-07-09T15:59:23Z</time>
      </trkpt>
      <trkpt lat="43.56211" lon="1.26814">
        <ele>185.4</ele>
        <time>2024-07-09T15:59:24Z</time>
      </trkpt>
      <trkpt lat="43.56207" lon="1.26823">
        <ele>185.4</ele>
        <time>2024-07-09T15:59:25Z</time>
      </trkpt>
      <trkpt lat="43.56203" lon="1.26831">
        <ele>185.4</ele>
        <time>2024-07-09T15:59:26Z</time>
      </trkpt>
      <trkpt lat="43.56201" lon="1.26838">
        <ele>185.2</ele>
        <time>2024-07-09T15:59:27Z</time>
      </trkpt>
      <trkpt lat="43.56198" lon="1.26846">
        <ele>185.2</ele>
        <time>2024-07-09T15:59:28Z</time>
      </trkpt>
      <trkpt lat="43.56195" lon="1.26854">
        <ele>185.2</ele>
        <time>2024-07-09T15:59:29Z</time>
      </trkpt>
      <trkpt lat="43.56192" lon="1.26864">
        <ele>185.2</ele>
        <time>2024-07-09T15:59:30Z</time>
      </trkpt>
      <trkpt lat="43.5619" lon="1.26873">
        <ele>185</ele>
        <time>2024-07-09T15:59:31Z</time>
      </trkpt>
      <trkpt lat="43.56187" lon="1.26881">
        <ele>185</ele>
        <time>2024-07-09T15:59:32Z</time>
      </trkpt>
      <trkpt lat="43.56186" lon="1.26887">
        <ele>185</ele>
        <time>2024-07-09T15:59:33Z</time>
      </trkpt>
      <trkpt lat="43.56184" lon="1.26895">
        <ele>185</ele>
        <time>2024-07-09T15:59:34Z</time>
      </trkpt>
      <trkpt lat="43.56182" lon="1.26903">
        <ele>184.8</ele>
        <time>2024-07-09T15:59:35Z</time>
      </trkpt>
      <trkpt lat="43.5618" lon="1.26913">
        <ele>184.8</ele>
        <time>2024-07-09T15:59:36Z</time>
      </trkpt>
      <trkpt lat="43.56179" lon="1.26922">
        <ele>184.8</ele>
        <time>2024-07-09T15:59:37Z</time>
      </trkpt>
      <trkpt lat="43.56177" lon="1.26931">
        <ele>184.8</ele>
        <time>2024-07-09T15:59:38Z</time>
      </trkpt>
      <trkpt lat="43.56177" lon="1.26938">
        <ele>184.8</ele>
        <time>2024-07-09T15:59:39Z</time>
      </trkpt>
      <trkpt lat="43.56176" lon="1.26947">
        <ele>184.8</ele>
        <time>2024-07-09T15:59:40Z</time>
      </trkpt>
      <trkpt lat="43.56175" lon="1.26957">
        <ele>184.8</ele>
        <time>2024-07-09T15:59:41Z</time>
      </trkpt>
      <trkpt lat="43.56176" lon="1.26966">
        <ele>184.8</ele>
        <time>2024-07-09T15:59:42Z</time>
      </trkpt>
      <trkpt lat="43.56177" lon="1.26975">
        <ele>184.6</ele>
        <time>2024-07-09T15:59:43Z</time>
      </trkpt>
      <trkpt lat="43.56178" lon="1.26982">
        <ele>184.6</ele>
        <time>2024-07-09T15:59:44Z</time>
      </trkpt>
      <trkpt lat="43.56179" lon="1.26991">
        <ele>184.6</ele>
        <time>2024-07-09T15:59:45Z</time>
      </trkpt>
      <trkpt lat="43.5618" lon="1.27002">
        <ele>184.6</ele>
        <time>2024-07-09T15:59:46Z</time>
      </trkpt>
      <trkpt lat="43.56182" lon="1.27011">
        <ele>184.4</ele>
        <time>2024-07-09T15:59:47Z</time>
      </trkpt>
      <trkpt lat="43.56184" lon="1.27019">
        <ele>184.4</ele>
        <time>2024-07-09T15:59:48Z</time>
      </trkpt>
      <trkpt lat="43.56186" lon="1.27027">
        <ele>184</ele>
        <time>2024-07-09T15:59:49Z</time>
      </trkpt>
      <trkpt lat="43.56188" lon="1.27034">
        <ele>184</ele>
        <time>2024-07-09T15:59:50Z</time>
      </trkpt>
      <trkpt lat="43.56191" lon="1.27042">
        <ele>184</ele>
        <time>2024-07-09T15:59:51Z</time>
      </trkpt>
      <trkpt lat="43.56195" lon="1.27052">
        <ele>183.8</ele>
        <time>2024-07-09T15:59:52Z</time>
      </trkpt>
      <trkpt lat="43.56198" lon="1.27059">
        <ele>183.4</ele>
        <time>2024-07-09T15:59:53Z</time>
      </trkpt>
      <trkpt lat="43.56202" lon="1.27069">
        <ele>183.2</ele>
        <time>2024-07-09T15:59:54Z</time>
      </trkpt>
      <trkpt lat="43.56205" lon="1.27075">
        <ele>183</ele>
        <time>2024-07-09T15:59:55Z</time>
      </trkpt>
      <trkpt lat="43.56208" lon="1.27084">
        <ele>182.8</ele>
        <time>2024-07-09T15:59:56Z</time>
      </trkpt>
      <trkpt lat="43.56213" lon="1.27095">
        <ele>182.8</ele>
        <time>2024-07-09T15:59:57Z</time>
      </trkpt>
      <trkpt lat="43.56218" lon="1.27103">
        <ele>182.4</ele>
        <time>2024-07-09T15:59:58Z</time>
      </trkpt>
      <trkpt lat="43.56221" lon="1.27112">
        <ele>182</ele>
        <time>2024-07-09T15:59:59Z</time>
      </trkpt>
      <trkpt lat="43.56224" lon="1.27119">
        <ele>181</ele>
        <time>2024-07-09T16:00:00Z</time>
      </trkpt>
      <trkpt lat="43.56226" lon="1.27128">
        <ele>180.4</ele>
        <time>2024-07-09T16:00:01Z</time>
      </trkpt>
      <trkpt lat="43.56227" lon="1.2714">
        <ele>180.4</ele>
        <time>2024-07-09T16:00:02Z</time>
      </trkpt>
      <trkpt lat="43.56227" lon="1.27151">
        <ele>180.2</ele>
        <time>2024-07-09T16:00:03Z</time>
      </trkpt>
      <trkpt lat="43.56227" lon="1.27163">
        <ele>179.8</ele>
        <time>2024-07-09T16:00:04Z</time>
      </trkpt>
      <trkpt lat="43.56226" lon="1.27173">
        <ele>179.6</ele>
        <time>2024-07-09T16:00:05Z</time>
      </trkpt>
      <trkpt lat="43.56224" lon="1.27188">
        <ele>179.4</ele>
        <time>2024-07-09T16:00:06Z</time>
      </trkpt>
      <trkpt lat="43.56223" lon="1.27202">
        <ele>179</ele>
        <time>2024-07-09T16:00:07Z</time>
      </trkpt>
      <trkpt lat="43.56221" lon="1.27216">
        <ele>178.4</ele>
        <time>2024-07-09T16:00:08Z</time>
      </trkpt>
      <trkpt lat="43.56219" lon="1.2723">
        <ele>177.4</ele>
        <time>2024-07-09T16:00:09Z</time>
      </trkpt>
      <trkpt lat="43.56218" lon="1.2724">
        <ele>176</ele>
        <time>2024-07-09T16:00:10Z</time>
      </trkpt>
      <trkpt lat="43.56217" lon="1.27253">
        <ele>175.6</ele>
        <time>2024-07-09T16:00:11Z</time>
      </trkpt>
      <trkpt lat="43.56215" lon="1.27266">
        <ele>173.8</ele>
        <time>2024-07-09T16:00:12Z</time>
      </trkpt>
      <trkpt lat="43.56212" lon="1.27275">
        <ele>172.6</ele>
        <time>2024-07-09T16:00:13Z</time>
      </trkpt>
      <trkpt lat="43.56208" lon="1.27284">
        <ele>172.2</ele>
        <time>2024-07-09T16:00:14Z</time>
      </trkpt>
      <trkpt lat="43.56204" lon="1.2729">
        <ele>171.4</ele>
        <time>2024-07-09T16:00:15Z</time>
      </trkpt>
      <trkpt lat="43.56198" lon="1.27298">
        <ele>171</ele>
        <time>2024-07-09T16:00:16Z</time>
      </trkpt>
      <trkpt lat="43.56192" lon="1.27304">
        <ele>170.4</ele>
        <time>2024-07-09T16:00:17Z</time>
      </trkpt>
      <trkpt lat="43.56187" lon="1.27309">
        <ele>170.2</ele>
        <time>2024-07-09T16:00:18Z</time>
      </trkpt>
      <trkpt lat="43.5618" lon="1.27318">
        <ele>169.4</ele>
        <time>2024-07-09T16:00:19Z</time>
      </trkpt>
      <trkpt lat="43.56175" lon="1.27324">
        <ele>168.8</ele>
        <time>2024-07-09T16:00:20Z</time>
      </trkpt>
      <trkpt lat="43.56169" lon="1.2733">
        <ele>168.6</ele>
        <time>2024-07-09T16:00:21Z</time>
      </trkpt>
      <trkpt lat="43.56164" lon="1.27336">
        <ele>168</ele>
        <time>2024-07-09T16:00:22Z</time>
      </trkpt>
      <trkpt lat="43.5616" lon="1.27342">
        <ele>168</ele>
        <time>2024-07-09T16:00:23Z</time>
      </trkpt>
      <trkpt lat="43.56156" lon="1.27346">
        <ele>167.6</ele>
        <time>2024-07-09T16:00:24Z</time>
      </trkpt>
      <trkpt lat="43.56153" lon="1.27352">
        <ele>167.4</ele>
        <time>2024-07-09T16:00:25Z</time>
      </trkpt>
      <trkpt lat="43.56151" lon="1.27361">
        <ele>167.4</ele>
        <time>2024-07-09T16:00:26Z</time>
      </trkpt>
      <trkpt lat="43.56152" lon="1.27369">
        <ele>167.2</ele>
        <time>2024-07-09T16:00:27Z</time>
      </trkpt>
      <trkpt lat="43.56152" lon="1.27376">
        <ele>167</ele>
        <time>2024-07-09T16:00:28Z</time>
      </trkpt>
      <trkpt lat="43.56154" lon="1.27386">
        <ele>166.8</ele>
        <time>2024-07-09T16:00:29Z</time>
      </trkpt>
      <trkpt lat="43.56156" lon="1.27395">
        <ele>166.6</ele>
        <time>2024-07-09T16:00:30Z</time>
      </trkpt>
      <trkpt lat="43.56158" lon="1.27404">
        <ele>166.4</ele>
        <time>2024-07-09T16:00:31Z</time>
      </trkpt>
      <trkpt lat="43.5616" lon="1.27413">
        <ele>166</ele>
        <time>2024-07-09T16:00:32Z</time>
      </trkpt>
      <trkpt lat="43.56161" lon="1.2742">
        <ele>165.8</ele>
        <time>2024-07-09T16:00:33Z</time>
      </trkpt>
      <trkpt lat="43.56163" lon="1.2743">
        <ele>165.8</ele>
        <time>2024-07-09T16:00:34Z</time>
      </trkpt>
      <trkpt lat="43.56164" lon="1.27441">
        <ele>165.6</ele>
        <time>2024-07-09T16:00:35Z</time>
      </trkpt>
      <trkpt lat="43.56166" lon="1.2745">
        <ele>165.4</ele>
        <time>2024-07-09T16:00:36Z</time>
      </trkpt>
      <trkpt lat="43.56167" lon="1.27459">
        <ele>165.2</ele>
        <time>2024-07-09T16:00:37Z</time>
      </trkpt>
      <trkpt lat="43.56169" lon="1.27469">
        <ele>165.2</ele>
        <time>2024-07-09T16:00:38Z</time>
      </trkpt>
      <trkpt lat="43.56171" lon="1.27476">
        <ele>165</ele>
        <time>2024-07-09T16:00:39Z</time>
      </trkpt>
      <trkpt lat="43.56173" lon="1.27488">
        <ele>165</ele>
        <time>2024-07-09T16:00:40Z</time>
      </trkpt>
      <trkpt lat="43.56174" lon="1.27497">
        <ele>165</ele>
        <time>2024-07-09T16:00:41Z</time>
      </trkpt>
      <trkpt lat="43.56176" lon="1.27507">
        <ele>165</ele>
        <time>2024-07-09T16:00:42Z</time>
      </trkpt>
      <trkpt lat="43.56178" lon="1.27515">
        <ele>164.8</ele>
        <time>2024-07-09T16:00:43Z</time>
      </trkpt>
      <trkpt lat="43.5618" lon="1.27526">
        <ele>164.8</ele>
        <time>2024-07-09T16:00:44Z</time>
      </trkpt>
      <trkpt lat="43.56182" lon="1.27536">
        <ele>164.8</ele>
        <time>2024-07-09T16:00:45Z</time>
      </trkpt>
      <trkpt lat="43.56184" lon="1.27546">
        <ele>164.6</ele>
        <time>2024-07-09T16:00:46Z</time>
      </trkpt>
      <trkpt lat="43.56186" lon="1.27553">
        <ele>164.6</ele>
        <time>2024-07-09T16:00:47Z</time>
      </trkpt>
      <trkpt lat="43.56189" lon="1.27562">
        <ele>164.6</ele>
        <time>2024-07-09T16:00:48Z</time>
      </trkpt>
      <trkpt lat="43.56194" lon="1.27573">
        <ele>164.4</ele>
        <time>2024-07-09T16:00:49Z</time>
      </trkpt>
      <trkpt lat="43.56198" lon="1.27582">
        <ele>164.4</ele>
        <time>2024-07-09T16:00:50Z</time>
      </trkpt>
      <trkpt lat="43.56202" lon="1.2759">
        <ele>164.2</ele>
        <time>2024-07-09T16:00:51Z</time>
      </trkpt>
      <trkpt lat="43.56206" lon="1.27597">
        <ele>164.2</ele>
        <time>2024-07-09T16:00:52Z</time>
      </trkpt>
      <trkpt lat="43.56211" lon="1.27606">
        <ele>164</ele>
        <time>2024-07-09T16:00:53Z</time>
      </trkpt>
      <trkpt lat="43.56216" lon="1.27614">
        <ele>163.8</ele>
        <time>2024-07-09T16:00:54Z</time>
      </trkpt>
      <trkpt lat="43.56221" lon="1.27621">
        <ele>163.8</ele>
        <time>2024-07-09T16:00:55Z</time>
      </trkpt>
      <trkpt lat="43.56226" lon="1.27629">
        <ele>163.6</ele>
        <time>2024-07-09T16:00:56Z</time>
      </trkpt>
      <trkpt lat="43.5623" lon="1.27635">
        <ele>163.6</ele>
        <time>2024-07-09T16:00:57Z</time>
      </trkpt>
      <trkpt lat="43.56236" lon="1.27644">
        <ele>163.6</ele>
        <time>2024-07-09T16:00:58Z</time>
      </trkpt>
      <trkpt lat="43.5624" lon="1.27652">
        <ele>163.4</ele>
        <time>2024-07-09T16:00:59Z</time>
      </trkpt>
      <trkpt lat="43.56245" lon="1.27659">
        <ele>163.4</ele>
        <time>2024-07-09T16:01:00Z</time>
      </trkpt>
      <trkpt lat="43.56249" lon="1.27668">
        <ele>163.4</ele>
        <time>2024-07-09T16:01:01Z</time>
      </trkpt>
      <trkpt lat="43.56254" lon="1.27676">
        <ele>163.4</ele>
        <time>2024-07-09T16:01:02Z</time>
      </trkpt>
      <trkpt lat="43.56258" lon="1.27684">
        <ele>163.4</ele>
        <time>2024-07-09T16:01:03Z</time>
      </trkpt>
      <trkpt lat="43.56262" lon="1.27693">
        <ele>163.4</ele>
        <time>2024-07-09T16:01:04Z</time>
      </trkpt>
      <trkpt lat="43.56265" lon="1.27699">
        <ele>163.4</ele>
        <time>2024-07-09T16:01:05Z</time>
      </trkpt>
      <trkpt lat="43.56269" lon="1.27708">
        <ele>163.4</ele>
        <time>2024-07-09T16:01:06Z</time>
      </trkpt>
      <trkpt lat="43.56274" lon="1.27718">
        <ele>163.4</ele>
        <time>2024-07-09T16:01:07Z</time>
      </trkpt>
      <trkpt lat="43.56277" lon="1.27727">
        <ele>163.4</ele>
        <time>2024-07-09T16:01:08Z</time>
      </trkpt>
      <trkpt lat="43.56281" lon="1.27736">
        <ele>163.4</ele>
        <time>2024-07-09T16:01:09Z</time>
      </trkpt>
      <trkpt lat="43.56283" lon="1.27743">
        <ele>163.4</ele>
        <time>2024-07-09T16:01:10Z</time>
      </trkpt>
      <trkpt lat="43.56286" lon="1.27752">
        <ele>163.4</ele>
        <time>2024-07-09T16:01:11Z</time>
      </trkpt>
      <trkpt lat="43.5629" lon="1.27763">
        <ele>163.4</ele>
        <time>2024-07-09T16:01:12Z</time>
      </trkpt>
      <trkpt lat="43.56293" lon="1.27772">
        <ele>163.4</ele>
        <time>2024-07-09T16:01:13Z</time>
      </trkpt>
      <trkpt lat="43.56297" lon="1.2778">
        <ele>163.4</ele>
        <time>2024-07-09T16:01:14Z</time>
      </trkpt>
      <trkpt lat="43.56301" lon="1.27788">
        <ele>163.4</ele>
        <time>2024-07-09T16:01:15Z</time>
      </trkpt>
      <trkpt lat="43.56305" lon="1.27794">
        <ele>163.6</ele>
        <time>2024-07-09T16:01:16Z</time>
      </trkpt>
      <trkpt lat="43.56309" lon="1.27802">
        <ele>163.6</ele>
        <time>2024-07-09T16:01:17Z</time>
      </trkpt>
      <trkpt lat="43.56314" lon="1.27812">
        <ele>163.6</ele>
        <time>2024-07-09T16:01:18Z</time>
      </trkpt>
      <trkpt lat="43.56318" lon="1.2782">
        <ele>163.6</ele>
        <time>2024-07-09T16:01:19Z</time>
      </trkpt>
      <trkpt lat="43.56321" lon="1.27829">
        <ele>163.6</ele>
        <time>2024-07-09T16:01:20Z</time>
      </trkpt>
      <trkpt lat="43.56324" lon="1.27835">
        <ele>163.6</ele>
        <time>2024-07-09T16:01:21Z</time>
      </trkpt>
      <trkpt lat="43.56328" lon="1.27844">
        <ele>163.6</ele>
        <time>2024-07-09T16:01:22Z</time>
      </trkpt>
      <trkpt lat="43.56332" lon="1.27854">
        <ele>163.6</ele>
        <time>2024-07-09T16:01:23Z</time>
      </trkpt>
      <trkpt lat="43.56336" lon="1.27862">
        <ele>163.6</ele>
        <time>2024-07-09T16:01:24Z</time>
      </trkpt>
      <trkpt lat="43.56339" lon="1.2787">
        <ele>163.6</ele>
        <time>2024-07-09T16:01:25Z</time>
      </trkpt>
      <trkpt lat="43.56342" lon="1.27877">
        <ele>163.6</ele>
        <time>2024-07-09T16:01:26Z</time>
      </trkpt>
      <trkpt lat="43.56346" lon="1.27885">
        <ele>163.6</ele>
        <time>2024-07-09T16:01:27Z</time>
      </trkpt>
      <trkpt lat="43.56349" lon="1.27894">
        <ele>163.6</ele>
        <time>2024-07-09T16:01:28Z</time>
      </trkpt>
      <trkpt lat="43.56353" lon="1.27904">
        <ele>163.8</ele>
        <time>2024-07-09T16:01:29Z</time>
      </trkpt>
      <trkpt lat="43.56357" lon="1.27913">
        <ele>163.8</ele>
        <time>2024-07-09T16:01:30Z</time>
      </trkpt>
      <trkpt lat="43.56361" lon="1.27921">
        <ele>163.8</ele>
        <time>2024-07-09T16:01:31Z</time>
      </trkpt>
      <trkpt lat="43.56363" lon="1.27928">
        <ele>163.8</ele>
        <time>2024-07-09T16:01:32Z</time>
      </trkpt>
      <trkpt lat="43.56367" lon="1.27937">
        <ele>164</ele>
        <time>2024-07-09T16:01:33Z</time>
      </trkpt>
      <trkpt lat="43.56371" lon="1.27948">
        <ele>164</ele>
        <time>2024-07-09T16:01:34Z</time>
      </trkpt>
      <trkpt lat="43.56375" lon="1.27956">
        <ele>164.2</ele>
        <time>2024-07-09T16:01:35Z</time>
      </trkpt>
      <trkpt lat="43.56378" lon="1.27965">
        <ele>164.2</ele>
        <time>2024-07-09T16:01:36Z</time>
      </trkpt>
      <trkpt lat="43.56381" lon="1.27972">
        <ele>164.2</ele>
        <time>2024-07-09T16:01:37Z</time>
      </trkpt>
      <trkpt lat="43.56385" lon="1.2798">
        <ele>164.2</ele>
        <time>2024-07-09T16:01:38Z</time>
      </trkpt>
      <trkpt lat="43.56389" lon="1.27991">
        <ele>164.2</ele>
        <time>2024-07-09T16:01:39Z</time>
      </trkpt>
      <trkpt lat="43.56393" lon="1.27999">
        <ele>164</ele>
        <time>2024-07-09T16:01:40Z</time>
      </trkpt>
      <trkpt lat="43.56396" lon="1.28008">
        <ele>164</ele>
        <time>2024-07-09T16:01:41Z</time>
      </trkpt>
      <trkpt lat="43.56399" lon="1.28015">
        <ele>164</ele>
        <time>2024-07-09T16:01:42Z</time>
      </trkpt>
      <trkpt lat="43.56403" lon="1.28024">
        <ele>164</ele>
        <time>2024-07-09T16:01:43Z</time>
      </trkpt>
      <trkpt lat="43.56406" lon="1.28033">
        <ele>164</ele>
        <time>2024-07-09T16:01:44Z</time>
      </trkpt>
      <trkpt lat="43.5641" lon="1.28042">
        <ele>164</ele>
        <time>2024-07-09T16:01:45Z</time>
      </trkpt>
      <trkpt lat="43.56415" lon="1.28053">
        <ele>164</ele>
        <time>2024-07-09T16:01:46Z</time>
      </trkpt>
      <trkpt lat="43.56417" lon="1.2806">
        <ele>164</ele>
        <time>2024-07-09T16:01:47Z</time>
      </trkpt>
      <trkpt lat="43.56421" lon="1.2807">
        <ele>164</ele>
        <time>2024-07-09T16:01:48Z</time>
      </trkpt>
      <trkpt lat="43.56424" lon="1.28079">
        <ele>164</ele>
        <time>2024-07-09T16:01:49Z</time>
      </trkpt>
      <trkpt lat="43.56428" lon="1.2809">
        <ele>164</ele>
        <time>2024-07-09T16:01:50Z</time>
      </trkpt>
      <trkpt lat="43.56431" lon="1.28097">
        <ele>164</ele>
        <time>2024-07-09T16:01:51Z</time>
      </trkpt>
      <trkpt lat="43.56435" lon="1.28108">
        <ele>163.8</ele>
        <time>2024-07-09T16:01:52Z</time>
      </trkpt>
      <trkpt lat="43.56439" lon="1.28115">
        <ele>163.8</ele>
        <time>2024-07-09T16:01:53Z</time>
      </trkpt>
      <trkpt lat="43.56442" lon="1.28124">
        <ele>163.8</ele>
        <time>2024-07-09T16:01:54Z</time>
      </trkpt>
      <trkpt lat="43.56447" lon="1.28134">
        <ele>163.8</ele>
        <time>2024-07-09T16:01:55Z</time>
      </trkpt>
      <trkpt lat="43.56451" lon="1.28143">
        <ele>163.6</ele>
        <time>2024-07-09T16:01:56Z</time>
      </trkpt>
      <trkpt lat="43.56454" lon="1.2815">
        <ele>163.6</ele>
        <time>2024-07-09T16:01:57Z</time>
      </trkpt>
      <trkpt lat="43.56459" lon="1.28159">
        <ele>163.6</ele>
        <time>2024-07-09T16:01:58Z</time>
      </trkpt>
      <trkpt lat="43.56463" lon="1.28167">
        <ele>163.4</ele>
        <time>2024-07-09T16:01:59Z</time>
      </trkpt>
      <trkpt lat="43.56467" lon="1.28176">
        <ele>163.4</ele>
        <time>2024-07-09T16:02:00Z</time>
      </trkpt>
      <trkpt lat="43.5647" lon="1.28185">
        <ele>163.4</ele>
        <time>2024-07-09T16:02:01Z</time>
      </trkpt>
      <trkpt lat="43.56474" lon="1.28196">
        <ele>163.4</ele>
        <time>2024-07-09T16:02:02Z</time>
      </trkpt>
      <trkpt lat="43.56477" lon="1.28204">
        <ele>163.2</ele>
        <time>2024-07-09T16:02:03Z</time>
      </trkpt>
      <trkpt lat="43.56481" lon="1.28213">
        <ele>163.2</ele>
        <time>2024-07-09T16:02:04Z</time>
      </trkpt>
      <trkpt lat="43.56485" lon="1.28222">
        <ele>163.2</ele>
        <time>2024-07-09T16:02:05Z</time>
      </trkpt>
      <trkpt lat="43.56489" lon="1.28232">
        <ele>163</ele>
        <time>2024-07-09T16:02:06Z</time>
      </trkpt>
      <trkpt lat="43.56492" lon="1.28241">
        <ele>163</ele>
        <time>2024-07-09T16:02:07Z</time>
      </trkpt>
      <trkpt lat="43.56496" lon="1.2825">
        <ele>163</ele>
        <time>2024-07-09T16:02:08Z</time>
      </trkpt>
      <trkpt lat="43.56499" lon="1.28257">
        <ele>163</ele>
        <time>2024-07-09T16:02:09Z</time>
      </trkpt>
      <trkpt lat="43.56502" lon="1.28265">
        <ele>163</ele>
        <time>2024-07-09T16:02:10Z</time>
      </trkpt>
      <trkpt lat="43.56506" lon="1.28276">
        <ele>163</ele>
        <time>2024-07-09T16:02:11Z</time>
      </trkpt>
      <trkpt lat="43.5651" lon="1.28284">
        <ele>163</ele>
        <time>2024-07-09T16:02:12Z</time>
      </trkpt>
      <trkpt lat="43.56513" lon="1.28293">
        <ele>162.8</ele>
        <time>2024-07-09T16:02:13Z</time>
      </trkpt>
      <trkpt lat="43.56516" lon="1.283">
        <ele>162.8</ele>
        <time>2024-07-09T16:02:14Z</time>
      </trkpt>
      <trkpt lat="43.5652" lon="1.28307">
        <ele>162.8</ele>
        <time>2024-07-09T16:02:15Z</time>
      </trkpt>
      <trkpt lat="43.56525" lon="1.28317">
        <ele>163</ele>
        <time>2024-07-09T16:02:16Z</time>
      </trkpt>
      <trkpt lat="43.5653" lon="1.28325">
        <ele>163</ele>
        <time>2024-07-09T16:02:17Z</time>
      </trkpt>
      <trkpt lat="43.56534" lon="1.28332">
        <ele>163</ele>
        <time>2024-07-09T16:02:18Z</time>
      </trkpt>
      <trkpt lat="43.56538" lon="1.28338">
        <ele>163</ele>
        <time>2024-07-09T16:02:19Z</time>
      </trkpt>
      <trkpt lat="43.56542" lon="1.28346">
        <ele>163</ele>
        <time>2024-07-09T16:02:20Z</time>
      </trkpt>
      <trkpt lat="43.56546" lon="1.28353">
        <ele>163.2</ele>
        <time>2024-07-09T16:02:21Z</time>
      </trkpt>
      <trkpt lat="43.56551" lon="1.28362">
        <ele>163.2</ele>
        <time>2024-07-09T16:02:22Z</time>
      </trkpt>
      <trkpt lat="43.56555" lon="1.28368">
        <ele>163.4</ele>
        <time>2024-07-09T16:02:23Z</time>
      </trkpt>
      <trkpt lat="43.56559" lon="1.28376">
        <ele>163.4</ele>
        <time>2024-07-09T16:02:24Z</time>
      </trkpt>
      <trkpt lat="43.56564" lon="1.28383">
        <ele>163.4</ele>
        <time>2024-07-09T16:02:25Z</time>
      </trkpt>
      <trkpt lat="43.56568" lon="1.2839">
        <ele>163.4</ele>
        <time>2024-07-09T16:02:26Z</time>
      </trkpt>
      <trkpt lat="43.56572" lon="1.28397">
        <ele>163.6</ele>
        <time>2024-07-09T16:02:27Z</time>
      </trkpt>
      <trkpt lat="43.56578" lon="1.28405">
        <ele>163.6</ele>
        <time>2024-07-09T16:02:28Z</time>
      </trkpt>
      <trkpt lat="43.56582" lon="1.28412">
        <ele>163.6</ele>
        <time>2024-07-09T16:02:29Z</time>
      </trkpt>
      <trkpt lat="43.56586" lon="1.28418">
        <ele>163.6</ele>
        <time>2024-07-09T16:02:30Z</time>
      </trkpt>
      <trkpt lat="43.56591" lon="1.28425">
        <ele>163.6</ele>
        <time>2024-07-09T16:02:31Z</time>
      </trkpt>
      <trkpt lat="43.56596" lon="1.28433">
        <ele>163.6</ele>
        <time>2024-07-09T16:02:32Z</time>
      </trkpt>
      <trkpt lat="43.566" lon="1.28438">
        <ele>163.6</ele>
        <time>2024-07-09T16:02:33Z</time>
      </trkpt>
      <trkpt lat="43.56606" lon="1.28446">
        <ele>163.4</ele>
        <time>2024-07-09T16:02:34Z</time>
      </trkpt>
      <trkpt lat="43.56609" lon="1.28451">
        <ele>163.4</ele>
        <time>2024-07-09T16:02:35Z</time>
      </trkpt>
      <trkpt lat="43.56613" lon="1.28456">
        <ele>163.4</ele>
        <time>2024-07-09T16:02:36Z</time>
      </trkpt>
      <trkpt lat="43.56616" lon="1.28461">
        <ele>163.4</ele>
        <time>2024-07-09T16:02:37Z</time>
      </trkpt>
      <trkpt lat="43.56619" lon="1.28464">
        <ele>163.6</ele>
        <time>2024-07-09T16:02:38Z</time>
      </trkpt>
      <trkpt lat="43.56621" lon="1.28466">
        <ele>163.6</ele>
        <time>2024-07-09T16:02:39Z</time>
      </trkpt>
      <trkpt lat="43.56623" lon="1.28468">
        <ele>163.6</ele>
        <time>2024-07-09T16:02:40Z</time>
      </trkpt>
      <trkpt lat="43.56626" lon="1.28469">
        <ele>163.6</ele>
        <time>2024-07-09T16:02:41Z</time>
      </trkpt>
      <trkpt lat="43.56629" lon="1.28471">
        <ele>163.6</ele>
        <time>2024-07-09T16:02:42Z</time>
      </trkpt>
      <trkpt lat="43.56633" lon="1.28474">
        <ele>163.6</ele>
        <time>2024-07-09T16:02:43Z</time>
      </trkpt>
      <trkpt lat="43.56636" lon="1.28476">
        <ele>163.6</ele>
        <time>2024-07-09T16:02:44Z</time>
      </trkpt>
      <trkpt lat="43.56638" lon="1.28479">
        <ele>163.6</ele>
        <time>2024-07-09T16:02:45Z</time>
      </trkpt>
      <trkpt lat="43.56641" lon="1.28483">
        <ele>163.8</ele>
        <time>2024-07-09T16:02:46Z</time>
      </trkpt>
      <trkpt lat="43.56644" lon="1.28487">
        <ele>163.8</ele>
        <time>2024-07-09T16:02:47Z</time>
      </trkpt>
      <trkpt lat="43.56648" lon="1.28492">
        <ele>163.8</ele>
        <time>2024-07-09T16:02:48Z</time>
      </trkpt>
      <trkpt lat="43.56652" lon="1.28496">
        <ele>163.8</ele>
        <time>2024-07-09T16:02:49Z</time>
      </trkpt>
      <trkpt lat="43.56654" lon="1.285">
        <ele>163.8</ele>
        <time>2024-07-09T16:02:50Z</time>
      </trkpt>
      <trkpt lat="43.56657" lon="1.28505">
        <ele>164</ele>
        <time>2024-07-09T16:02:51Z</time>
      </trkpt>
      <trkpt lat="43.56661" lon="1.2851">
        <ele>164</ele>
        <time>2024-07-09T16:02:52Z</time>
      </trkpt>
      <trkpt lat="43.56664" lon="1.28515">
        <ele>164.2</ele>
        <time>2024-07-09T16:02:53Z</time>
      </trkpt>
      <trkpt lat="43.56668" lon="1.2852">
        <ele>164.2</ele>
        <time>2024-07-09T16:02:54Z</time>
      </trkpt>
      <trkpt lat="43.56672" lon="1.28523">
        <ele>164.4</ele>
        <time>2024-07-09T16:02:55Z</time>
      </trkpt>
      <trkpt lat="43.56676" lon="1.28528">
        <ele>164.6</ele>
        <time>2024-07-09T16:02:56Z</time>
      </trkpt>
      <trkpt lat="43.5668" lon="1.28531">
        <ele>164.6</ele>
        <time>2024-07-09T16:02:57Z</time>
      </trkpt>
      <trkpt lat="43.56684" lon="1.28535">
        <ele>164.8</ele>
        <time>2024-07-09T16:02:58Z</time>
      </trkpt>
      <trkpt lat="43.56688" lon="1.28539">
        <ele>164.8</ele>
        <time>2024-07-09T16:02:59Z</time>
      </trkpt>
      <trkpt lat="43.56692" lon="1.28542">
        <ele>165</ele>
        <time>2024-07-09T16:03:00Z</time>
      </trkpt>
      <trkpt lat="43.56697" lon="1.28546">
        <ele>165</ele>
        <time>2024-07-09T16:03:01Z</time>
      </trkpt>
      <trkpt lat="43.567" lon="1.28548">
        <ele>165.2</ele>
        <time>2024-07-09T16:03:02Z</time>
      </trkpt>
      <trkpt lat="43.56704" lon="1.28552">
        <ele>165.6</ele>
        <time>2024-07-09T16:03:03Z</time>
      </trkpt>
      <trkpt lat="43.56709" lon="1.28556">
        <ele>165.6</ele>
        <time>2024-07-09T16:03:04Z</time>
      </trkpt>
      <trkpt lat="43.56713" lon="1.28559">
        <ele>165.8</ele>
        <time>2024-07-09T16:03:05Z</time>
      </trkpt>
      <trkpt lat="43.56718" lon="1.28563">
        <ele>166.2</ele>
        <time>2024-07-09T16:03:06Z</time>
      </trkpt>
      <trkpt lat="43.56721" lon="1.28566">
        <ele>166.2</ele>
        <time>2024-07-09T16:03:07Z</time>
      </trkpt>
      <trkpt lat="43.56726" lon="1.28568">
        <ele>166.6</ele>
        <time>2024-07-09T16:03:08Z</time>
      </trkpt>
      <trkpt lat="43.5673" lon="1.28571">
        <ele>166.6</ele>
        <time>2024-07-09T16:03:09Z</time>
      </trkpt>
      <trkpt lat="43.56735" lon="1.28575">
        <ele>166.8</ele>
        <time>2024-07-09T16:03:10Z</time>
      </trkpt>
      <trkpt lat="43.56739" lon="1.28578">
        <ele>167.2</ele>
        <time>2024-07-09T16:03:11Z</time>
      </trkpt>
      <trkpt lat="43.56743" lon="1.28581">
        <ele>167.4</ele>
        <time>2024-07-09T16:03:12Z</time>
      </trkpt>
      <trkpt lat="43.56746" lon="1.28584">
        <ele>167.6</ele>
        <time>2024-07-09T16:03:13Z</time>
      </trkpt>
      <trkpt lat="43.56749" lon="1.28588">
        <ele>167.6</ele>
        <time>2024-07-09T16:03:14Z</time>
      </trkpt>
      <trkpt lat="43.56753" lon="1.28594">
        <ele>167.8</ele>
        <time>2024-07-09T16:03:15Z</time>
      </trkpt>
      <trkpt lat="43.56756" lon="1.28599">
        <ele>168</ele>
        <time>2024-07-09T16:03:16Z</time>
      </trkpt>
      <trkpt lat="43.56758" lon="1.28603">
        <ele>168.4</ele>
        <time>2024-07-09T16:03:17Z</time>
      </trkpt>
      <trkpt lat="43.56761" lon="1.28609">
        <ele>168.8</ele>
        <time>2024-07-09T16:03:18Z</time>
      </trkpt>
      <trkpt lat="43.56763" lon="1.28616">
        <ele>169</ele>
        <time>2024-07-09T16:03:19Z</time>
      </trkpt>
      <trkpt lat="43.56765" lon="1.28624">
        <ele>169.4</ele>
        <time>2024-07-09T16:03:20Z</time>
      </trkpt>
      <trkpt lat="43.56767" lon="1.28631">
        <ele>169.4</ele>
        <time>2024-07-09T16:03:21Z</time>
      </trkpt>
      <trkpt lat="43.56769" lon="1.28638">
        <ele>169.6</ele>
        <time>2024-07-09T16:03:22Z</time>
      </trkpt>
      <trkpt lat="43.56771" lon="1.28643">
        <ele>169.8</ele>
        <time>2024-07-09T16:03:23Z</time>
      </trkpt>
      <trkpt lat="43.56773" lon="1.28651">
        <ele>169.8</ele>
        <time>2024-07-09T16:03:24Z</time>
      </trkpt>
      <trkpt lat="43.56775" lon="1.28658">
        <ele>169.8</ele>
        <time>2024-07-09T16:03:25Z</time>
      </trkpt>
      <trkpt lat="43.56778" lon="1.28667">
        <ele>169.8</ele>
        <time>2024-07-09T16:03:26Z</time>
      </trkpt>
      <trkpt lat="43.5678" lon="1.28674">
        <ele>170</ele>
        <time>2024-07-09T16:03:27Z</time>
      </trkpt>
      <trkpt lat="43.56783" lon="1.28683">
        <ele>170</ele>
        <time>2024-07-09T16:03:28Z</time>
      </trkpt>
      <trkpt lat="43.56786" lon="1.28689">
        <ele>169.8</ele>
        <time>2024-07-09T16:03:29Z</time>
      </trkpt>
      <trkpt lat="43.56789" lon="1.28697">
        <ele>169.8</ele>
        <time>2024-07-09T16:03:30Z</time>
      </trkpt>
      <trkpt lat="43.56793" lon="1.28706">
        <ele>169.8</ele>
        <time>2024-07-09T16:03:31Z</time>
      </trkpt>
      <trkpt lat="43.56797" lon="1.28714">
        <ele>169.8</ele>
        <time>2024-07-09T16:03:32Z</time>
      </trkpt>
      <trkpt lat="43.568" lon="1.2872">
        <ele>169.8</ele>
        <time>2024-07-09T16:03:33Z</time>
      </trkpt>
      <trkpt lat="43.56805" lon="1.28728">
        <ele>169.8</ele>
        <time>2024-07-09T16:03:34Z</time>
      </trkpt>
      <trkpt lat="43.56809" lon="1.28735">
        <ele>169.8</ele>
        <time>2024-07-09T16:03:35Z</time>
      </trkpt>
      <trkpt lat="43.56814" lon="1.28742">
        <ele>169.6</ele>
        <time>2024-07-09T16:03:36Z</time>
      </trkpt>
      <trkpt lat="43.56819" lon="1.28751">
        <ele>169.6</ele>
        <time>2024-07-09T16:03:37Z</time>
      </trkpt>
      <trkpt lat="43.56824" lon="1.28758">
        <ele>169.6</ele>
        <time>2024-07-09T16:03:38Z</time>
      </trkpt>
      <trkpt lat="43.56827" lon="1.28763">
        <ele>169.4</ele>
        <time>2024-07-09T16:03:39Z</time>
      </trkpt>
      <trkpt lat="43.56831" lon="1.28769">
        <ele>169.4</ele>
        <time>2024-07-09T16:03:40Z</time>
      </trkpt>
      <trkpt lat="43.56835" lon="1.28775">
        <ele>169.4</ele>
        <time>2024-07-09T16:03:41Z</time>
      </trkpt>
      <trkpt lat="43.56841" lon="1.28783">
        <ele>169.2</ele>
        <time>2024-07-09T16:03:42Z</time>
      </trkpt>
      <trkpt lat="43.56845" lon="1.2879">
        <ele>169.2</ele>
        <time>2024-07-09T16:03:43Z</time>
      </trkpt>
      <trkpt lat="43.56849" lon="1.28797">
        <ele>169.2</ele>
        <time>2024-07-09T16:03:44Z</time>
      </trkpt>
      <trkpt lat="43.56852" lon="1.28803">
        <ele>169.2</ele>
        <time>2024-07-09T16:03:45Z</time>
      </trkpt>
      <trkpt lat="43.56857" lon="1.2881">
        <ele>169.2</ele>
        <time>2024-07-09T16:03:46Z</time>
      </trkpt>
      <trkpt lat="43.56862" lon="1.28818">
        <ele>169.2</ele>
        <time>2024-07-09T16:03:47Z</time>
      </trkpt>
      <trkpt lat="43.56865" lon="1.28826">
        <ele>169.2</ele>
        <time>2024-07-09T16:03:48Z</time>
      </trkpt>
      <trkpt lat="43.56868" lon="1.28833">
        <ele>169</ele>
        <time>2024-07-09T16:03:49Z</time>
      </trkpt>
      <trkpt lat="43.5687" lon="1.28839">
        <ele>169</ele>
        <time>2024-07-09T16:03:50Z</time>
      </trkpt>
      <trkpt lat="43.56873" lon="1.28847">
        <ele>169</ele>
        <time>2024-07-09T16:03:51Z</time>
      </trkpt>
      <trkpt lat="43.56875" lon="1.28853">
        <ele>169</ele>
        <time>2024-07-09T16:03:52Z</time>
      </trkpt>
      <trkpt lat="43.56877" lon="1.28858">
        <ele>169</ele>
        <time>2024-07-09T16:03:53Z</time>
      </trkpt>
      <trkpt lat="43.56878" lon="1.28861">
        <ele>169</ele>
        <time>2024-07-09T16:03:54Z</time>
      </trkpt>
      <trkpt lat="43.56878" lon="1.28863">
        <ele>169</ele>
        <time>2024-07-09T16:03:55Z</time>
      </trkpt>
      <trkpt lat="43.56878" lon="1.28866">
        <ele>169</ele>
        <time>2024-07-09T16:03:56Z</time>
      </trkpt>
      <trkpt lat="43.56878" lon="1.28869">
        <ele>169</ele>
        <time>2024-07-09T16:03:57Z</time>
      </trkpt>
      <trkpt lat="43.5688" lon="1.28874">
        <ele>169</ele>
        <time>2024-07-09T16:03:58Z</time>
      </trkpt>
      <trkpt lat="43.5688" lon="1.28879">
        <ele>169</ele>
        <time>2024-07-09T16:03:59Z</time>
      </trkpt>
      <trkpt lat="43.56881" lon="1.28885">
        <ele>169</ele>
        <time>2024-07-09T16:04:00Z</time>
      </trkpt>
      <trkpt lat="43.56882" lon="1.28891">
        <ele>169</ele>
        <time>2024-07-09T16:04:01Z</time>
      </trkpt>
      <trkpt lat="43.56884" lon="1.28897">
        <ele>169</ele>
        <time>2024-07-09T16:04:02Z</time>
      </trkpt>
      <trkpt lat="43.56886" lon="1.28905">
        <ele>168.8</ele>
        <time>2024-07-09T16:04:03Z</time>
      </trkpt>
      <trkpt lat="43.56889" lon="1.28913">
        <ele>168.8</ele>
        <time>2024-07-09T16:04:04Z</time>
      </trkpt>
      <trkpt lat="43.56892" lon="1.28921">
        <ele>168.8</ele>
        <time>2024-07-09T16:04:05Z</time>
      </trkpt>
      <trkpt lat="43.56894" lon="1.28927">
        <ele>168.6</ele>
        <time>2024-07-09T16:04:06Z</time>
      </trkpt>
      <trkpt lat="43.56896" lon="1.28935">
        <ele>168.6</ele>
        <time>2024-07-09T16:04:07Z</time>
      </trkpt>
      <trkpt lat="43.56898" lon="1.28944">
        <ele>168.4</ele>
        <time>2024-07-09T16:04:08Z</time>
      </trkpt>
      <trkpt lat="43.56901" lon="1.28956">
        <ele>168.4</ele>
        <time>2024-07-09T16:04:09Z</time>
      </trkpt>
      <trkpt lat="43.56903" lon="1.28965">
        <ele>168.2</ele>
        <time>2024-07-09T16:04:10Z</time>
      </trkpt>
      <trkpt lat="43.56905" lon="1.28975">
        <ele>167.8</ele>
        <time>2024-07-09T16:04:11Z</time>
      </trkpt>
      <trkpt lat="43.56907" lon="1.28983">
        <ele>167.8</ele>
        <time>2024-07-09T16:04:12Z</time>
      </trkpt>
      <trkpt lat="43.5691" lon="1.28994">
        <ele>167.6</ele>
        <time>2024-07-09T16:04:13Z</time>
      </trkpt>
      <trkpt lat="43.56912" lon="1.29006">
        <ele>167.4</ele>
        <time>2024-07-09T16:04:14Z</time>
      </trkpt>
      <trkpt lat="43.56915" lon="1.29016">
        <ele>167</ele>
        <time>2024-07-09T16:04:15Z</time>
      </trkpt>
      <trkpt lat="43.56917" lon="1.29027">
        <ele>166.8</ele>
        <time>2024-07-09T16:04:16Z</time>
      </trkpt>
      <trkpt lat="43.56919" lon="1.29035">
        <ele>166.6</ele>
        <time>2024-07-09T16:04:17Z</time>
      </trkpt>
      <trkpt lat="43.56923" lon="1.29047">
        <ele>166.4</ele>
        <time>2024-07-09T16:04:18Z</time>
      </trkpt>
      <trkpt lat="43.56925" lon="1.29057">
        <ele>166.2</ele>
        <time>2024-07-09T16:04:19Z</time>
      </trkpt>
      <trkpt lat="43.56927" lon="1.29066">
        <ele>165.6</ele>
        <time>2024-07-09T16:04:20Z</time>
      </trkpt>
      <trkpt lat="43.56929" lon="1.29074">
        <ele>165.4</ele>
        <time>2024-07-09T16:04:21Z</time>
      </trkpt>
      <trkpt lat="43.56932" lon="1.29084">
        <ele>165</ele>
        <time>2024-07-09T16:04:22Z</time>
      </trkpt>
      <trkpt lat="43.56935" lon="1.29095">
        <ele>164.8</ele>
        <time>2024-07-09T16:04:23Z</time>
      </trkpt>
      <trkpt lat="43.56936" lon="1.29104">
        <ele>164.8</ele>
        <time>2024-07-09T16:04:24Z</time>
      </trkpt>
      <trkpt lat="43.56938" lon="1.29112">
        <ele>164.6</ele>
        <time>2024-07-09T16:04:25Z</time>
      </trkpt>
      <trkpt lat="43.56941" lon="1.29121">
        <ele>164.6</ele>
        <time>2024-07-09T16:04:26Z</time>
      </trkpt>
      <trkpt lat="43.56943" lon="1.29128">
        <ele>164.4</ele>
        <time>2024-07-09T16:04:27Z</time>
      </trkpt>
      <trkpt lat="43.56946" lon="1.29139">
        <ele>164.2</ele>
        <time>2024-07-09T16:04:28Z</time>
      </trkpt>
      <trkpt lat="43.56948" lon="1.29147">
        <ele>164.2</ele>
        <time>2024-07-09T16:04:29Z</time>
      </trkpt>
      <trkpt lat="43.5695" lon="1.29153">
        <ele>164</ele>
        <time>2024-07-09T16:04:30Z</time>
      </trkpt>
      <trkpt lat="43.56952" lon="1.2916">
        <ele>163.8</ele>
        <time>2024-07-09T16:04:31Z</time>
      </trkpt>
      <trkpt lat="43.56954" lon="1.29166">
        <ele>163.8</ele>
        <time>2024-07-09T16:04:32Z</time>
      </trkpt>
      <trkpt lat="43.56955" lon="1.2917">
        <ele>163.8</ele>
        <time>2024-07-09T16:04:33Z</time>
      </trkpt>
      <trkpt lat="43.56956" lon="1.29172">
        <ele>163.6</ele>
        <time>2024-07-09T16:04:34Z</time>
      </trkpt>
      <trkpt lat="43.56957" lon="1.29174">
        <ele>163.4</ele>
        <time>2024-07-09T16:04:35Z</time>
      </trkpt>
      <trkpt lat="43.56958" lon="1.29177">
        <ele>163.4</ele>
        <time>2024-07-09T16:04:36Z</time>
      </trkpt>
      <trkpt lat="43.56959" lon="1.29182">
        <ele>163.4</ele>
        <time>2024-07-09T16:04:37Z</time>
      </trkpt>
      <trkpt lat="43.5696" lon="1.29186">
        <ele>163.2</ele>
        <time>2024-07-09T16:04:38Z</time>
      </trkpt>
      <trkpt lat="43.56961" lon="1.2919">
        <ele>163.2</ele>
        <time>2024-07-09T16:04:39Z</time>
      </trkpt>
      <trkpt lat="43.56963" lon="1.29195">
        <ele>163.2</ele>
        <time>2024-07-09T16:04:40Z</time>
      </trkpt>
      <trkpt lat="43.56964" lon="1.29202">
        <ele>163.2</ele>
        <time>2024-07-09T16:04:41Z</time>
      </trkpt>
      <trkpt lat="43.56965" lon="1.29208">
        <ele>163</ele>
        <time>2024-07-09T16:04:42Z</time>
      </trkpt>
      <trkpt lat="43.56967" lon="1.29215">
        <ele>163</ele>
        <time>2024-07-09T16:04:43Z</time>
      </trkpt>
      <trkpt lat="43.56968" lon="1.29222">
        <ele>163</ele>
        <time>2024-07-09T16:04:44Z</time>
      </trkpt>
      <trkpt lat="43.56971" lon="1.2923">
        <ele>162.8</ele>
        <time>2024-07-09T16:04:45Z</time>
      </trkpt>
      <trkpt lat="43.56973" lon="1.29238">
        <ele>162.6</ele>
        <time>2024-07-09T16:04:46Z</time>
      </trkpt>
      <trkpt lat="43.56976" lon="1.29247">
        <ele>162.6</ele>
        <time>2024-07-09T16:04:47Z</time>
      </trkpt>
      <trkpt lat="43.56979" lon="1.29256">
        <ele>162.6</ele>
        <time>2024-07-09T16:04:48Z</time>
      </trkpt>
      <trkpt lat="43.56981" lon="1.29264">
        <ele>162.4</ele>
        <time>2024-07-09T16:04:49Z</time>
      </trkpt>
      <trkpt lat="43.56983" lon="1.2927">
        <ele>162.4</ele>
        <time>2024-07-09T16:04:50Z</time>
      </trkpt>
      <trkpt lat="43.56986" lon="1.29279">
        <ele>162.4</ele>
        <time>2024-07-09T16:04:51Z</time>
      </trkpt>
      <trkpt lat="43.56989" lon="1.29289">
        <ele>162.4</ele>
        <time>2024-07-09T16:04:52Z</time>
      </trkpt>
      <trkpt lat="43.56991" lon="1.29297">
        <ele>162.4</ele>
        <time>2024-07-09T16:04:53Z</time>
      </trkpt>
      <trkpt lat="43.56993" lon="1.29305">
        <ele>162.4</ele>
        <time>2024-07-09T16:04:54Z</time>
      </trkpt>
      <trkpt lat="43.56995" lon="1.29312">
        <ele>162.4</ele>
        <time>2024-07-09T16:04:55Z</time>
      </trkpt>
      <trkpt lat="43.56998" lon="1.29322">
        <ele>162.4</ele>
        <time>2024-07-09T16:04:56Z</time>
      </trkpt>
      <trkpt lat="43.57" lon="1.29331">
        <ele>162.4</ele>
        <time>2024-07-09T16:04:57Z</time>
      </trkpt>
      <trkpt lat="43.57002" lon="1.2934">
        <ele>162.4</ele>
        <time>2024-07-09T16:04:58Z</time>
      </trkpt>
      <trkpt lat="43.57004" lon="1.29346">
        <ele>162.6</ele>
        <time>2024-07-09T16:04:59Z</time>
      </trkpt>
      <trkpt lat="43.57007" lon="1.29355">
        <ele>162.6</ele>
        <time>2024-07-09T16:05:00Z</time>
      </trkpt>
      <trkpt lat="43.5701" lon="1.29365">
        <ele>162.6</ele>
        <time>2024-07-09T16:05:01Z</time>
      </trkpt>
      <trkpt lat="43.57013" lon="1.29374">
        <ele>162.6</ele>
        <time>2024-07-09T16:05:02Z</time>
      </trkpt>
      <trkpt lat="43.57015" lon="1.29382">
        <ele>162.8</ele>
        <time>2024-07-09T16:05:03Z</time>
      </trkpt>
      <trkpt lat="43.57017" lon="1.29389">
        <ele>162.8</ele>
        <time>2024-07-09T16:05:04Z</time>
      </trkpt>
      <trkpt lat="43.57019" lon="1.29397">
        <ele>162.8</ele>
        <time>2024-07-09T16:05:05Z</time>
      </trkpt>
      <trkpt lat="43.57022" lon="1.29405">
        <ele>163</ele>
        <time>2024-07-09T16:05:06Z</time>
      </trkpt>
      <trkpt lat="43.57023" lon="1.29411">
        <ele>163</ele>
        <time>2024-07-09T16:05:07Z</time>
      </trkpt>
      <trkpt lat="43.57024" lon="1.29415">
        <ele>163</ele>
        <time>2024-07-09T16:05:08Z</time>
      </trkpt>
      <trkpt lat="43.57024" lon="1.29416">
        <ele>163</ele>
        <time>2024-07-09T16:05:09Z</time>
      </trkpt>
      <trkpt lat="43.57025" lon="1.29418">
        <ele>163</ele>
        <time>2024-07-09T16:05:10Z</time>
      </trkpt>
      <trkpt lat="43.57026" lon="1.29422">
        <ele>163</ele>
        <time>2024-07-09T16:05:11Z</time>
      </trkpt>
      <trkpt lat="43.57028" lon="1.29427">
        <ele>163</ele>
        <time>2024-07-09T16:05:12Z</time>
      </trkpt>
      <trkpt lat="43.57029" lon="1.29431">
        <ele>163</ele>
        <time>2024-07-09T16:05:13Z</time>
      </trkpt>
      <trkpt lat="43.57031" lon="1.29436">
        <ele>163</ele>
        <time>2024-07-09T16:05:14Z</time>
      </trkpt>
      <trkpt lat="43.57033" lon="1.29443">
        <ele>163</ele>
        <time>2024-07-09T16:05:15Z</time>
      </trkpt>
      <trkpt lat="43.57035" lon="1.2945">
        <ele>162.8</ele>
        <time>2024-07-09T16:05:16Z</time>
      </trkpt>
      <trkpt lat="43.57038" lon="1.29456">
        <ele>162.8</ele>
        <time>2024-07-09T16:05:17Z</time>
      </trkpt>
      <trkpt lat="43.5704" lon="1.29463">
        <ele>162.8</ele>
        <time>2024-07-09T16:05:18Z</time>
      </trkpt>
      <trkpt lat="43.57042" lon="1.29468">
        <ele>162.8</ele>
        <time>2024-07-09T16:05:19Z</time>
      </trkpt>
      <trkpt lat="43.57045" lon="1.29477">
        <ele>162.6</ele>
        <time>2024-07-09T16:05:20Z</time>
      </trkpt>
      <trkpt lat="43.57048" lon="1.29484">
        <ele>162.6</ele>
        <time>2024-07-09T16:05:21Z</time>
      </trkpt>
      <trkpt lat="43.57051" lon="1.29491">
        <ele>162.6</ele>
        <time>2024-07-09T16:05:22Z</time>
      </trkpt>
      <trkpt lat="43.57053" lon="1.29497">
        <ele>162.8</ele>
        <time>2024-07-09T16:05:23Z</time>
      </trkpt>
      <trkpt lat="43.57056" lon="1.29505">
        <ele>162.6</ele>
        <time>2024-07-09T16:05:24Z</time>
      </trkpt>
      <trkpt lat="43.57059" lon="1.29514">
        <ele>162.6</ele>
        <time>2024-07-09T16:05:25Z</time>
      </trkpt>
      <trkpt lat="43.57062" lon="1.29522">
        <ele>162.8</ele>
        <time>2024-07-09T16:05:26Z</time>
      </trkpt>
      <trkpt lat="43.57065" lon="1.2953">
        <ele>162.8</ele>
        <time>2024-07-09T16:05:27Z</time>
      </trkpt>
      <trkpt lat="43.57067" lon="1.29537">
        <ele>162.8</ele>
        <time>2024-07-09T16:05:28Z</time>
      </trkpt>
      <trkpt lat="43.57069" lon="1.29545">
        <ele>162.8</ele>
        <time>2024-07-09T16:05:29Z</time>
      </trkpt>
      <trkpt lat="43.57073" lon="1.29554">
        <ele>162.8</ele>
        <time>2024-07-09T16:05:30Z</time>
      </trkpt>
      <trkpt lat="43.57076" lon="1.29562">
        <ele>162.8</ele>
        <time>2024-07-09T16:05:31Z</time>
      </trkpt>
      <trkpt lat="43.57079" lon="1.29571">
        <ele>162.8</ele>
        <time>2024-07-09T16:05:32Z</time>
      </trkpt>
      <trkpt lat="43.57081" lon="1.29577">
        <ele>162.8</ele>
        <time>2024-07-09T16:05:33Z</time>
      </trkpt>
      <trkpt lat="43.57084" lon="1.29587">
        <ele>162.8</ele>
        <time>2024-07-09T16:05:34Z</time>
      </trkpt>
      <trkpt lat="43.57087" lon="1.29596">
        <ele>162.8</ele>
        <time>2024-07-09T16:05:35Z</time>
      </trkpt>
      <trkpt lat="43.5709" lon="1.29604">
        <ele>162.8</ele>
        <time>2024-07-09T16:05:36Z</time>
      </trkpt>
      <trkpt lat="43.57092" lon="1.29611">
        <ele>162.8</ele>
        <time>2024-07-09T16:05:37Z</time>
      </trkpt>
      <trkpt lat="43.57095" lon="1.2962">
        <ele>162.6</ele>
        <time>2024-07-09T16:05:38Z</time>
      </trkpt>
      <trkpt lat="43.57099" lon="1.29631">
        <ele>162.6</ele>
        <time>2024-07-09T16:05:39Z</time>
      </trkpt>
      <trkpt lat="43.57102" lon="1.29641">
        <ele>162.6</ele>
        <time>2024-07-09T16:05:40Z</time>
      </trkpt>
      <trkpt lat="43.57105" lon="1.29649">
        <ele>162.6</ele>
        <time>2024-07-09T16:05:41Z</time>
      </trkpt>
      <trkpt lat="43.57108" lon="1.29658">
        <ele>162.4</ele>
        <time>2024-07-09T16:05:42Z</time>
      </trkpt>
      <trkpt lat="43.57111" lon="1.2967">
        <ele>162.4</ele>
        <time>2024-07-09T16:05:43Z</time>
      </trkpt>
      <trkpt lat="43.57114" lon="1.29679">
        <ele>162.2</ele>
        <time>2024-07-09T16:05:44Z</time>
      </trkpt>
      <trkpt lat="43.57117" lon="1.29689">
        <ele>162.2</ele>
        <time>2024-07-09T16:05:45Z</time>
      </trkpt>
      <trkpt lat="43.5712" lon="1.29697">
        <ele>162.2</ele>
        <time>2024-07-09T16:05:46Z</time>
      </trkpt>
      <trkpt lat="43.57123" lon="1.29706">
        <ele>161.8</ele>
        <time>2024-07-09T16:05:47Z</time>
      </trkpt>
      <trkpt lat="43.57126" lon="1.29718">
        <ele>161.6</ele>
        <time>2024-07-09T16:05:48Z</time>
      </trkpt>
      <trkpt lat="43.57129" lon="1.29727">
        <ele>161.2</ele>
        <time>2024-07-09T16:05:49Z</time>
      </trkpt>
      <trkpt lat="43.57132" lon="1.29737">
        <ele>161.2</ele>
        <time>2024-07-09T16:05:50Z</time>
      </trkpt>
      <trkpt lat="43.57134" lon="1.29745">
        <ele>161</ele>
        <time>2024-07-09T16:05:51Z</time>
      </trkpt>
      <trkpt lat="43.57136" lon="1.29755">
        <ele>160.8</ele>
        <time>2024-07-09T16:05:52Z</time>
      </trkpt>
      <trkpt lat="43.57138" lon="1.29767">
        <ele>160.8</ele>
        <time>2024-07-09T16:05:53Z</time>
      </trkpt>
      <trkpt lat="43.57141" lon="1.29778">
        <ele>160.6</ele>
        <time>2024-07-09T16:05:54Z</time>
      </trkpt>
      <trkpt lat="43.57143" lon="1.29788">
        <ele>160.6</ele>
        <time>2024-07-09T16:05:55Z</time>
      </trkpt>
      <trkpt lat="43.57145" lon="1.29796">
        <ele>160.4</ele>
        <time>2024-07-09T16:05:56Z</time>
      </trkpt>
      <trkpt lat="43.57148" lon="1.29806">
        <ele>160.2</ele>
        <time>2024-07-09T16:05:57Z</time>
      </trkpt>
      <trkpt lat="43.5715" lon="1.29819">
        <ele>160.2</ele>
        <time>2024-07-09T16:05:58Z</time>
      </trkpt>
      <trkpt lat="43.57153" lon="1.29829">
        <ele>160</ele>
        <time>2024-07-09T16:05:59Z</time>
      </trkpt>
      <trkpt lat="43.57155" lon="1.29838">
        <ele>160</ele>
        <time>2024-07-09T16:06:00Z</time>
      </trkpt>
      <trkpt lat="43.57157" lon="1.29848">
        <ele>159.8</ele>
        <time>2024-07-09T16:06:01Z</time>
      </trkpt>
      <trkpt lat="43.5716" lon="1.2986">
        <ele>159.8</ele>
        <time>2024-07-09T16:06:02Z</time>
      </trkpt>
      <trkpt lat="43.57163" lon="1.2987">
        <ele>159.6</ele>
        <time>2024-07-09T16:06:03Z</time>
      </trkpt>
      <trkpt lat="43.57165" lon="1.29879">
        <ele>159.6</ele>
        <time>2024-07-09T16:06:04Z</time>
      </trkpt>
      <trkpt lat="43.57167" lon="1.29887">
        <ele>159.4</ele>
        <time>2024-07-09T16:06:05Z</time>
      </trkpt>
      <trkpt lat="43.5717" lon="1.29897">
        <ele>159.4</ele>
        <time>2024-07-09T16:06:06Z</time>
      </trkpt>
      <trkpt lat="43.57173" lon="1.29908">
        <ele>159.2</ele>
        <time>2024-07-09T16:06:07Z</time>
      </trkpt>
      <trkpt lat="43.57176" lon="1.29918">
        <ele>159.2</ele>
        <time>2024-07-09T16:06:08Z</time>
      </trkpt>
      <trkpt lat="43.57178" lon="1.29926">
        <ele>159</ele>
        <time>2024-07-09T16:06:09Z</time>
      </trkpt>
      <trkpt lat="43.57181" lon="1.29936">
        <ele>159</ele>
        <time>2024-07-09T16:06:10Z</time>
      </trkpt>
      <trkpt lat="43.57184" lon="1.29945">
        <ele>159</ele>
        <time>2024-07-09T16:06:11Z</time>
      </trkpt>
      <trkpt lat="43.57187" lon="1.29955">
        <ele>159</ele>
        <time>2024-07-09T16:06:12Z</time>
      </trkpt>
      <trkpt lat="43.5719" lon="1.29965">
        <ele>159</ele>
        <time>2024-07-09T16:06:13Z</time>
      </trkpt>
      <trkpt lat="43.57194" lon="1.29978">
        <ele>158.8</ele>
        <time>2024-07-09T16:06:14Z</time>
      </trkpt>
      <trkpt lat="43.57197" lon="1.29986">
        <ele>158.8</ele>
        <time>2024-07-09T16:06:15Z</time>
      </trkpt>
      <trkpt lat="43.57201" lon="1.29995">
        <ele>158.8</ele>
        <time>2024-07-09T16:06:16Z</time>
      </trkpt>
      <trkpt lat="43.57204" lon="1.30005">
        <ele>158.8</ele>
        <time>2024-07-09T16:06:17Z</time>
      </trkpt>
      <trkpt lat="43.57209" lon="1.30017">
        <ele>158.6</ele>
        <time>2024-07-09T16:06:18Z</time>
      </trkpt>
      <trkpt lat="43.57212" lon="1.30025">
        <ele>158.4</ele>
        <time>2024-07-09T16:06:19Z</time>
      </trkpt>
      <trkpt lat="43.57215" lon="1.30034">
        <ele>158.4</ele>
        <time>2024-07-09T16:06:20Z</time>
      </trkpt>
      <trkpt lat="43.57219" lon="1.30043">
        <ele>158.2</ele>
        <time>2024-07-09T16:06:21Z</time>
      </trkpt>
      <trkpt lat="43.57222" lon="1.30052">
        <ele>158.2</ele>
        <time>2024-07-09T16:06:22Z</time>
      </trkpt>
      <trkpt lat="43.57228" lon="1.30062">
        <ele>158.2</ele>
        <time>2024-07-09T16:06:23Z</time>
      </trkpt>
      <trkpt lat="43.57234" lon="1.30068">
        <ele>158</ele>
        <time>2024-07-09T16:06:24Z</time>
      </trkpt>
      <trkpt lat="43.5724" lon="1.3007">
        <ele>157.8</ele>
        <time>2024-07-09T16:06:25Z</time>
      </trkpt>
      <trkpt lat="43.57245" lon="1.30069">
        <ele>157.8</ele>
        <time>2024-07-09T16:06:26Z</time>
      </trkpt>
      <trkpt lat="43.57253" lon="1.30069">
        <ele>157.6</ele>
        <time>2024-07-09T16:06:27Z</time>
      </trkpt>
      <trkpt lat="43.57259" lon="1.30072">
        <ele>157.6</ele>
        <time>2024-07-09T16:06:28Z</time>
      </trkpt>
      <trkpt lat="43.57264" lon="1.30079">
        <ele>157.6</ele>
        <time>2024-07-09T16:06:29Z</time>
      </trkpt>
      <trkpt lat="43.57267" lon="1.30087">
        <ele>157.6</ele>
        <time>2024-07-09T16:06:30Z</time>
      </trkpt>
      <trkpt lat="43.5727" lon="1.30096">
        <ele>157.6</ele>
        <time>2024-07-09T16:06:31Z</time>
      </trkpt>
      <trkpt lat="43.57272" lon="1.30103">
        <ele>157.6</ele>
        <time>2024-07-09T16:06:32Z</time>
      </trkpt>
      <trkpt lat="43.57275" lon="1.30112">
        <ele>157.6</ele>
        <time>2024-07-09T16:06:33Z</time>
      </trkpt>
      <trkpt lat="43.57279" lon="1.30122">
        <ele>157.4</ele>
        <time>2024-07-09T16:06:34Z</time>
      </trkpt>
      <trkpt lat="43.57282" lon="1.30131">
        <ele>157.4</ele>
        <time>2024-07-09T16:06:35Z</time>
      </trkpt>
      <trkpt lat="43.57286" lon="1.30141">
        <ele>157.4</ele>
        <time>2024-07-09T16:06:36Z</time>
      </trkpt>
      <trkpt lat="43.57289" lon="1.30148">
        <ele>157.4</ele>
        <time>2024-07-09T16:06:37Z</time>
      </trkpt>
      <trkpt lat="43.57292" lon="1.30157">
        <ele>157.4</ele>
        <time>2024-07-09T16:06:38Z</time>
      </trkpt>
      <trkpt lat="43.57297" lon="1.30168">
        <ele>157.4</ele>
        <time>2024-07-09T16:06:39Z</time>
      </trkpt>
      <trkpt lat="43.573" lon="1.30177">
        <ele>157.2</ele>
        <time>2024-07-09T16:06:40Z</time>
      </trkpt>
      <trkpt lat="43.57303" lon="1.30186">
        <ele>157.2</ele>
        <time>2024-07-09T16:06:41Z</time>
      </trkpt>
      <trkpt lat="43.57306" lon="1.30193">
        <ele>157.2</ele>
        <time>2024-07-09T16:06:42Z</time>
      </trkpt>
      <trkpt lat="43.5731" lon="1.30202">
        <ele>157.2</ele>
        <time>2024-07-09T16:06:43Z</time>
      </trkpt>
      <trkpt lat="43.57313" lon="1.30211">
        <ele>157.2</ele>
        <time>2024-07-09T16:06:44Z</time>
      </trkpt>
      <trkpt lat="43.57318" lon="1.30221">
        <ele>157.2</ele>
        <time>2024-07-09T16:06:45Z</time>
      </trkpt>
      <trkpt lat="43.57322" lon="1.3023">
        <ele>157.2</ele>
        <time>2024-07-09T16:06:46Z</time>
      </trkpt>
      <trkpt lat="43.57326" lon="1.30238">
        <ele>157.2</ele>
        <time>2024-07-09T16:06:47Z</time>
      </trkpt>
      <trkpt lat="43.57329" lon="1.30245">
        <ele>157</ele>
        <time>2024-07-09T16:06:48Z</time>
      </trkpt>
      <trkpt lat="43.57333" lon="1.30253">
        <ele>157</ele>
        <time>2024-07-09T16:06:49Z</time>
      </trkpt>
      <trkpt lat="43.57338" lon="1.30263">
        <ele>157</ele>
        <time>2024-07-09T16:06:50Z</time>
      </trkpt>
      <trkpt lat="43.57342" lon="1.3027">
        <ele>157</ele>
        <time>2024-07-09T16:06:51Z</time>
      </trkpt>
      <trkpt lat="43.57346" lon="1.30278">
        <ele>157</ele>
        <time>2024-07-09T16:06:52Z</time>
      </trkpt>
      <trkpt lat="43.57349" lon="1.30284">
        <ele>157</ele>
        <time>2024-07-09T16:06:53Z</time>
      </trkpt>
      <trkpt lat="43.57352" lon="1.30292">
        <ele>157</ele>
        <time>2024-07-09T16:06:54Z</time>
      </trkpt>
      <trkpt lat="43.57356" lon="1.30301">
        <ele>157</ele>
        <time>2024-07-09T16:06:55Z</time>
      </trkpt>
      <trkpt lat="43.57359" lon="1.30307">
        <ele>157</ele>
        <time>2024-07-09T16:06:56Z</time>
      </trkpt>
      <trkpt lat="43.57362" lon="1.30313">
        <ele>157</ele>
        <time>2024-07-09T16:06:57Z</time>
      </trkpt>
      <trkpt lat="43.57365" lon="1.30317">
        <ele>157</ele>
        <time>2024-07-09T16:06:58Z</time>
      </trkpt>
      <trkpt lat="43.57367" lon="1.30319">
        <ele>157.2</ele>
        <time>2024-07-09T16:06:59Z</time>
      </trkpt>
      <trkpt lat="43.57367" lon="1.30323">
        <ele>157.2</ele>
        <time>2024-07-09T16:07:00Z</time>
      </trkpt>
      <trkpt lat="43.57366" lon="1.30327">
        <ele>157.2</ele>
        <time>2024-07-09T16:07:01Z</time>
      </trkpt>
      <trkpt lat="43.57364" lon="1.3033">
        <ele>157.2</ele>
        <time>2024-07-09T16:07:02Z</time>
      </trkpt>
      <trkpt lat="43.57361" lon="1.30333">
        <ele>157.2</ele>
        <time>2024-07-09T16:07:03Z</time>
      </trkpt>
      <trkpt lat="43.57359" lon="1.30338">
        <ele>157.2</ele>
        <time>2024-07-09T16:07:04Z</time>
      </trkpt>
      <trkpt lat="43.57357" lon="1.30342">
        <ele>157.2</ele>
        <time>2024-07-09T16:07:05Z</time>
      </trkpt>
      <trkpt lat="43.57355" lon="1.30348">
        <ele>157.2</ele>
        <time>2024-07-09T16:07:06Z</time>
      </trkpt>
      <trkpt lat="43.57353" lon="1.30352">
        <ele>157.2</ele>
        <time>2024-07-09T16:07:07Z</time>
      </trkpt>
      <trkpt lat="43.5735" lon="1.30356">
        <ele>157.2</ele>
        <time>2024-07-09T16:07:08Z</time>
      </trkpt>
      <trkpt lat="43.57348" lon="1.30361">
        <ele>157.2</ele>
        <time>2024-07-09T16:07:09Z</time>
      </trkpt>
      <trkpt lat="43.57345" lon="1.30366">
        <ele>157.2</ele>
        <time>2024-07-09T16:07:10Z</time>
      </trkpt>
      <trkpt lat="43.57342" lon="1.30372">
        <ele>157.2</ele>
        <time>2024-07-09T16:07:11Z</time>
      </trkpt>
      <trkpt lat="43.57339" lon="1.30378">
        <ele>157.2</ele>
        <time>2024-07-09T16:07:12Z</time>
      </trkpt>
      <trkpt lat="43.57337" lon="1.30383">
        <ele>157.2</ele>
        <time>2024-07-09T16:07:13Z</time>
      </trkpt>
      <trkpt lat="43.57334" lon="1.30389">
        <ele>157.2</ele>
        <time>2024-07-09T16:07:14Z</time>
      </trkpt>
      <trkpt lat="43.5733" lon="1.30397">
        <ele>157.2</ele>
        <time>2024-07-09T16:07:15Z</time>
      </trkpt>
      <trkpt lat="43.57327" lon="1.30403">
        <ele>157.2</ele>
        <time>2024-07-09T16:07:16Z</time>
      </trkpt>
      <trkpt lat="43.57323" lon="1.30409">
        <ele>157</ele>
        <time>2024-07-09T16:07:17Z</time>
      </trkpt>
      <trkpt lat="43.57319" lon="1.30415">
        <ele>157</ele>
        <time>2024-07-09T16:07:18Z</time>
      </trkpt>
      <trkpt lat="43.57316" lon="1.3042">
        <ele>156.8</ele>
        <time>2024-07-09T16:07:19Z</time>
      </trkpt>
      <trkpt lat="43.57314" lon="1.30427">
        <ele>156.8</ele>
        <time>2024-07-09T16:07:20Z</time>
      </trkpt>
      <trkpt lat="43.57314" lon="1.30432">
        <ele>156.8</ele>
        <time>2024-07-09T16:07:21Z</time>
      </trkpt>
      <trkpt lat="43.57317" lon="1.30437">
        <ele>156.8</ele>
        <time>2024-07-09T16:07:22Z</time>
      </trkpt>
      <trkpt lat="43.57321" lon="1.3044">
        <ele>156.6</ele>
        <time>2024-07-09T16:07:23Z</time>
      </trkpt>
      <trkpt lat="43.57325" lon="1.30444">
        <ele>156.6</ele>
        <time>2024-07-09T16:07:24Z</time>
      </trkpt>
      <trkpt lat="43.5733" lon="1.30449">
        <ele>156.6</ele>
        <time>2024-07-09T16:07:25Z</time>
      </trkpt>
      <trkpt lat="43.57334" lon="1.30454">
        <ele>156.6</ele>
        <time>2024-07-09T16:07:26Z</time>
      </trkpt>
      <trkpt lat="43.57338" lon="1.30459">
        <ele>156.6</ele>
        <time>2024-07-09T16:07:27Z</time>
      </trkpt>
      <trkpt lat="43.57343" lon="1.30464">
        <ele>156.6</ele>
        <time>2024-07-09T16:07:28Z</time>
      </trkpt>
      <trkpt lat="43.57348" lon="1.3047">
        <ele>156.6</ele>
        <time>2024-07-09T16:07:29Z</time>
      </trkpt>
      <trkpt lat="43.57353" lon="1.30475">
        <ele>156.6</ele>
        <time>2024-07-09T16:07:30Z</time>
      </trkpt>
      <trkpt lat="43.57359" lon="1.3048">
        <ele>156.6</ele>
        <time>2024-07-09T16:07:31Z</time>
      </trkpt>
      <trkpt lat="43.57364" lon="1.30485">
        <ele>156.6</ele>
        <time>2024-07-09T16:07:32Z</time>
      </trkpt>
      <trkpt lat="43.57369" lon="1.30491">
        <ele>156.4</ele>
        <time>2024-07-09T16:07:33Z</time>
      </trkpt>
      <trkpt lat="43.57374" lon="1.30496">
        <ele>156.4</ele>
        <time>2024-07-09T16:07:34Z</time>
      </trkpt>
      <trkpt lat="43.57379" lon="1.30502">
        <ele>156.4</ele>
        <time>2024-07-09T16:07:35Z</time>
      </trkpt>
      <trkpt lat="43.57384" lon="1.30507">
        <ele>156.4</ele>
        <time>2024-07-09T16:07:36Z</time>
      </trkpt>
      <trkpt lat="43.5739" lon="1.30512">
        <ele>156.2</ele>
        <time>2024-07-09T16:07:37Z</time>
      </trkpt>
      <trkpt lat="43.57394" lon="1.30517">
        <ele>156.2</ele>
        <time>2024-07-09T16:07:38Z</time>
      </trkpt>
      <trkpt lat="43.574" lon="1.30523">
        <ele>156.2</ele>
        <time>2024-07-09T16:07:39Z</time>
      </trkpt>
      <trkpt lat="43.57405" lon="1.30529">
        <ele>156.2</ele>
        <time>2024-07-09T16:07:40Z</time>
      </trkpt>
      <trkpt lat="43.5741" lon="1.30533">
        <ele>156.2</ele>
        <time>2024-07-09T16:07:41Z</time>
      </trkpt>
      <trkpt lat="43.57415" lon="1.30538">
        <ele>156.2</ele>
        <time>2024-07-09T16:07:42Z</time>
      </trkpt>
      <trkpt lat="43.57421" lon="1.30545">
        <ele>156.2</ele>
        <time>2024-07-09T16:07:43Z</time>
      </trkpt>
      <trkpt lat="43.57427" lon="1.3055">
        <ele>156.2</ele>
        <time>2024-07-09T16:07:44Z</time>
      </trkpt>
      <trkpt lat="43.57432" lon="1.30555">
        <ele>156.2</ele>
        <time>2024-07-09T16:07:45Z</time>
      </trkpt>
      <trkpt lat="43.57437" lon="1.30561">
        <ele>156.2</ele>
        <time>2024-07-09T16:07:46Z</time>
      </trkpt>
      <trkpt lat="43.57442" lon="1.30567">
        <ele>156.2</ele>
        <time>2024-07-09T16:07:47Z</time>
      </trkpt>
      <trkpt lat="43.57447" lon="1.30573">
        <ele>156</ele>
        <time>2024-07-09T16:07:48Z</time>
      </trkpt>
      <trkpt lat="43.57452" lon="1.30579">
        <ele>156</ele>
        <time>2024-07-09T16:07:49Z</time>
      </trkpt>
      <trkpt lat="43.57458" lon="1.30585">
        <ele>156</ele>
        <time>2024-07-09T16:07:50Z</time>
      </trkpt>
      <trkpt lat="43.57462" lon="1.30589">
        <ele>156</ele>
        <time>2024-07-09T16:07:51Z</time>
      </trkpt>
      <trkpt lat="43.57469" lon="1.30595">
        <ele>156</ele>
        <time>2024-07-09T16:07:52Z</time>
      </trkpt>
      <trkpt lat="43.57474" lon="1.30599">
        <ele>156</ele>
        <time>2024-07-09T16:07:53Z</time>
      </trkpt>
      <trkpt lat="43.57478" lon="1.30604">
        <ele>156</ele>
        <time>2024-07-09T16:07:54Z</time>
      </trkpt>
      <trkpt lat="43.5748" lon="1.30609">
        <ele>156</ele>
        <time>2024-07-09T16:07:55Z</time>
      </trkpt>
      <trkpt lat="43.5748" lon="1.30614">
        <ele>156</ele>
        <time>2024-07-09T16:07:56Z</time>
      </trkpt>
      <trkpt lat="43.57477" lon="1.30619">
        <ele>156</ele>
        <time>2024-07-09T16:07:57Z</time>
      </trkpt>
      <trkpt lat="43.57473" lon="1.30622">
        <ele>156.2</ele>
        <time>2024-07-09T16:07:58Z</time>
      </trkpt>
      <trkpt lat="43.57469" lon="1.30623">
        <ele>156.2</ele>
        <time>2024-07-09T16:07:59Z</time>
      </trkpt>
      <trkpt lat="43.57467" lon="1.30625">
        <ele>156.2</ele>
        <time>2024-07-09T16:08:00Z</time>
      </trkpt>
      <trkpt lat="43.57463" lon="1.30629">
        <ele>156.2</ele>
        <time>2024-07-09T16:08:01Z</time>
      </trkpt>
      <trkpt lat="43.5746" lon="1.30634">
        <ele>156.4</ele>
        <time>2024-07-09T16:08:02Z</time>
      </trkpt>
      <trkpt lat="43.57458" lon="1.30639">
        <ele>156.4</ele>
        <time>2024-07-09T16:08:03Z</time>
      </trkpt>
      <trkpt lat="43.57456" lon="1.30644">
        <ele>156.6</ele>
        <time>2024-07-09T16:08:04Z</time>
      </trkpt>
      <trkpt lat="43.57453" lon="1.30651">
        <ele>156.8</ele>
        <time>2024-07-09T16:08:05Z</time>
      </trkpt>
      <trkpt lat="43.57451" lon="1.30658">
        <ele>157</ele>
        <time>2024-07-09T16:08:06Z</time>
      </trkpt>
      <trkpt lat="43.57449" lon="1.30665">
        <ele>157.2</ele>
        <time>2024-07-09T16:08:07Z</time>
      </trkpt>
      <trkpt lat="43.57446" lon="1.30672">
        <ele>157.2</ele>
        <time>2024-07-09T16:08:08Z</time>
      </trkpt>
      <trkpt lat="43.57444" lon="1.30679">
        <ele>157.4</ele>
        <time>2024-07-09T16:08:09Z</time>
      </trkpt>
      <trkpt lat="43.57443" lon="1.30684">
        <ele>157.4</ele>
        <time>2024-07-09T16:08:10Z</time>
      </trkpt>
      <trkpt lat="43.5744" lon="1.30693">
        <ele>157.6</ele>
        <time>2024-07-09T16:08:11Z</time>
      </trkpt>
      <trkpt lat="43.57438" lon="1.307">
        <ele>157.6</ele>
        <time>2024-07-09T16:08:12Z</time>
      </trkpt>
      <trkpt lat="43.57436" lon="1.30706">
        <ele>157.8</ele>
        <time>2024-07-09T16:08:13Z</time>
      </trkpt>
      <trkpt lat="43.57434" lon="1.30714">
        <ele>157.8</ele>
        <time>2024-07-09T16:08:14Z</time>
      </trkpt>
      <trkpt lat="43.57433" lon="1.30721">
        <ele>158</ele>
        <time>2024-07-09T16:08:15Z</time>
      </trkpt>
      <trkpt lat="43.57431" lon="1.30731">
        <ele>158</ele>
        <time>2024-07-09T16:08:16Z</time>
      </trkpt>
      <trkpt lat="43.57429" lon="1.30739">
        <ele>158</ele>
        <time>2024-07-09T16:08:17Z</time>
      </trkpt>
      <trkpt lat="43.57428" lon="1.30747">
        <ele>158</ele>
        <time>2024-07-09T16:08:18Z</time>
      </trkpt>
      <trkpt lat="43.57428" lon="1.30756">
        <ele>158</ele>
        <time>2024-07-09T16:08:19Z</time>
      </trkpt>
      <trkpt lat="43.57427" lon="1.30765">
        <ele>158</ele>
        <time>2024-07-09T16:08:20Z</time>
      </trkpt>
      <trkpt lat="43.57427" lon="1.30774">
        <ele>158</ele>
        <time>2024-07-09T16:08:21Z</time>
      </trkpt>
      <trkpt lat="43.57427" lon="1.30783">
        <ele>158</ele>
        <time>2024-07-09T16:08:22Z</time>
      </trkpt>
      <trkpt lat="43.57427" lon="1.3079">
        <ele>158</ele>
        <time>2024-07-09T16:08:23Z</time>
      </trkpt>
      <trkpt lat="43.57428" lon="1.30801">
        <ele>158</ele>
        <time>2024-07-09T16:08:24Z</time>
      </trkpt>
      <trkpt lat="43.57428" lon="1.3081">
        <ele>157.8</ele>
        <time>2024-07-09T16:08:25Z</time>
      </trkpt>
      <trkpt lat="43.57428" lon="1.3082">
        <ele>157.8</ele>
        <time>2024-07-09T16:08:26Z</time>
      </trkpt>
      <trkpt lat="43.57428" lon="1.30829">
        <ele>157.8</ele>
        <time>2024-07-09T16:08:27Z</time>
      </trkpt>
      <trkpt lat="43.57428" lon="1.30838">
        <ele>157.6</ele>
        <time>2024-07-09T16:08:28Z</time>
      </trkpt>
      <trkpt lat="43.57428" lon="1.30848">
        <ele>157.6</ele>
        <time>2024-07-09T16:08:29Z</time>
      </trkpt>
      <trkpt lat="43.57428" lon="1.30857">
        <ele>157.6</ele>
        <time>2024-07-09T16:08:30Z</time>
      </trkpt>
      <trkpt lat="43.57428" lon="1.30867">
        <ele>157.6</ele>
        <time>2024-07-09T16:08:31Z</time>
      </trkpt>
      <trkpt lat="43.57428" lon="1.30874">
        <ele>157.6</ele>
        <time>2024-07-09T16:08:32Z</time>
      </trkpt>
      <trkpt lat="43.57429" lon="1.30883">
        <ele>157.6</ele>
        <time>2024-07-09T16:08:33Z</time>
      </trkpt>
      <trkpt lat="43.5743" lon="1.30894">
        <ele>157.6</ele>
        <time>2024-07-09T16:08:34Z</time>
      </trkpt>
      <trkpt lat="43.57431" lon="1.30903">
        <ele>157.6</ele>
        <time>2024-07-09T16:08:35Z</time>
      </trkpt>
      <trkpt lat="43.57433" lon="1.30911">
        <ele>157.6</ele>
        <time>2024-07-09T16:08:36Z</time>
      </trkpt>
      <trkpt lat="43.57434" lon="1.30919">
        <ele>157.6</ele>
        <time>2024-07-09T16:08:37Z</time>
      </trkpt>
      <trkpt lat="43.57435" lon="1.30925">
        <ele>157.6</ele>
        <time>2024-07-09T16:08:38Z</time>
      </trkpt>
      <trkpt lat="43.57437" lon="1.30934">
        <ele>157.8</ele>
        <time>2024-07-09T16:08:39Z</time>
      </trkpt>
      <trkpt lat="43.57437" lon="1.30942">
        <ele>157.8</ele>
        <time>2024-07-09T16:08:40Z</time>
      </trkpt>
      <trkpt lat="43.57438" lon="1.3095">
        <ele>157.8</ele>
        <time>2024-07-09T16:08:41Z</time>
      </trkpt>
      <trkpt lat="43.57438" lon="1.30957">
        <ele>158</ele>
        <time>2024-07-09T16:08:42Z</time>
      </trkpt>
      <trkpt lat="43.57438" lon="1.30967">
        <ele>158.4</ele>
        <time>2024-07-09T16:08:43Z</time>
      </trkpt>
      <trkpt lat="43.57438" lon="1.30976">
        <ele>158.4</ele>
        <time>2024-07-09T16:08:44Z</time>
      </trkpt>
      <trkpt lat="43.57439" lon="1.30985">
        <ele>158.8</ele>
        <time>2024-07-09T16:08:45Z</time>
      </trkpt>
      <trkpt lat="43.57439" lon="1.30994">
        <ele>158.8</ele>
        <time>2024-07-09T16:08:46Z</time>
      </trkpt>
      <trkpt lat="43.57439" lon="1.31002">
        <ele>158.8</ele>
        <time>2024-07-09T16:08:47Z</time>
      </trkpt>
      <trkpt lat="43.57439" lon="1.31014">
        <ele>158.8</ele>
        <time>2024-07-09T16:08:48Z</time>
      </trkpt>
      <trkpt lat="43.57439" lon="1.31023">
        <ele>158.8</ele>
        <time>2024-07-09T16:08:49Z</time>
      </trkpt>
      <trkpt lat="43.5744" lon="1.31034">
        <ele>158.6</ele>
        <time>2024-07-09T16:08:50Z</time>
      </trkpt>
      <trkpt lat="43.5744" lon="1.31042">
        <ele>158.8</ele>
        <time>2024-07-09T16:08:51Z</time>
      </trkpt>
      <trkpt lat="43.57439" lon="1.31055">
        <ele>158.6</ele>
        <time>2024-07-09T16:08:52Z</time>
      </trkpt>
      <trkpt lat="43.57436" lon="1.31064">
        <ele>158.4</ele>
        <time>2024-07-09T16:08:53Z</time>
      </trkpt>
      <trkpt lat="43.57432" lon="1.31072">
        <ele>158.2</ele>
        <time>2024-07-09T16:08:54Z</time>
      </trkpt>
      <trkpt lat="43.57429" lon="1.31078">
        <ele>157.8</ele>
        <time>2024-07-09T16:08:55Z</time>
      </trkpt>
      <trkpt lat="43.57424" lon="1.31084">
        <ele>157.6</ele>
        <time>2024-07-09T16:08:56Z</time>
      </trkpt>
      <trkpt lat="43.57418" lon="1.3109">
        <ele>157.4</ele>
        <time>2024-07-09T16:08:57Z</time>
      </trkpt>
      <trkpt lat="43.57413" lon="1.31096">
        <ele>157.2</ele>
        <time>2024-07-09T16:08:58Z</time>
      </trkpt>
      <trkpt lat="43.57409" lon="1.31101">
        <ele>157</ele>
        <time>2024-07-09T16:08:59Z</time>
      </trkpt>
      <trkpt lat="43.57406" lon="1.31106">
        <ele>157</ele>
        <time>2024-07-09T16:09:00Z</time>
      </trkpt>
      <trkpt lat="43.57404" lon="1.31113">
        <ele>157</ele>
        <time>2024-07-09T16:09:01Z</time>
      </trkpt>
      <trkpt lat="43.57404" lon="1.31122">
        <ele>157</ele>
        <time>2024-07-09T16:09:02Z</time>
      </trkpt>
      <trkpt lat="43.57405" lon="1.31129">
        <ele>157</ele>
        <time>2024-07-09T16:09:03Z</time>
      </trkpt>
      <trkpt lat="43.57407" lon="1.31137">
        <ele>157</ele>
        <time>2024-07-09T16:09:04Z</time>
      </trkpt>
      <trkpt lat="43.5741" lon="1.31144">
        <ele>157</ele>
        <time>2024-07-09T16:09:05Z</time>
      </trkpt>
      <trkpt lat="43.57414" lon="1.31152">
        <ele>157</ele>
        <time>2024-07-09T16:09:06Z</time>
      </trkpt>
      <trkpt lat="43.57417" lon="1.31159">
        <ele>157</ele>
        <time>2024-07-09T16:09:07Z</time>
      </trkpt>
      <trkpt lat="43.5742" lon="1.31167">
        <ele>157</ele>
        <time>2024-07-09T16:09:08Z</time>
      </trkpt>
      <trkpt lat="43.57422" lon="1.31175">
        <ele>157</ele>
        <time>2024-07-09T16:09:09Z</time>
      </trkpt>
      <trkpt lat="43.57425" lon="1.31181">
        <ele>157</ele>
        <time>2024-07-09T16:09:10Z</time>
      </trkpt>
      <trkpt lat="43.57428" lon="1.31191">
        <ele>157.2</ele>
        <time>2024-07-09T16:09:11Z</time>
      </trkpt>
      <trkpt lat="43.5743" lon="1.312">
        <ele>157.2</ele>
        <time>2024-07-09T16:09:12Z</time>
      </trkpt>
      <trkpt lat="43.57434" lon="1.31208">
        <ele>157.2</ele>
        <time>2024-07-09T16:09:13Z</time>
      </trkpt>
      <trkpt lat="43.57436" lon="1.31215">
        <ele>157.2</ele>
        <time>2024-07-09T16:09:14Z</time>
      </trkpt>
      <trkpt lat="43.57439" lon="1.31224">
        <ele>157.2</ele>
        <time>2024-07-09T16:09:15Z</time>
      </trkpt>
      <trkpt lat="43.57443" lon="1.31235">
        <ele>157</ele>
        <time>2024-07-09T16:09:16Z</time>
      </trkpt>
      <trkpt lat="43.57446" lon="1.31243">
        <ele>157</ele>
        <time>2024-07-09T16:09:17Z</time>
      </trkpt>
      <trkpt lat="43.5745" lon="1.31251">
        <ele>156.8</ele>
        <time>2024-07-09T16:09:18Z</time>
      </trkpt>
      <trkpt lat="43.57452" lon="1.31258">
        <ele>156.4</ele>
        <time>2024-07-09T16:09:19Z</time>
      </trkpt>
      <trkpt lat="43.57455" lon="1.31266">
        <ele>156.2</ele>
        <time>2024-07-09T16:09:20Z</time>
      </trkpt>
      <trkpt lat="43.57459" lon="1.31276">
        <ele>156</ele>
        <time>2024-07-09T16:09:21Z</time>
      </trkpt>
      <trkpt lat="43.57463" lon="1.31284">
        <ele>156</ele>
        <time>2024-07-09T16:09:22Z</time>
      </trkpt>
      <trkpt lat="43.57466" lon="1.31292">
        <ele>156</ele>
        <time>2024-07-09T16:09:23Z</time>
      </trkpt>
      <trkpt lat="43.57468" lon="1.31298">
        <ele>155.8</ele>
        <time>2024-07-09T16:09:24Z</time>
      </trkpt>
      <trkpt lat="43.57472" lon="1.31308">
        <ele>155.8</ele>
        <time>2024-07-09T16:09:25Z</time>
      </trkpt>
      <trkpt lat="43.57475" lon="1.31316">
        <ele>155.8</ele>
        <time>2024-07-09T16:09:26Z</time>
      </trkpt>
      <trkpt lat="43.57478" lon="1.31324">
        <ele>155.8</ele>
        <time>2024-07-09T16:09:27Z</time>
      </trkpt>
      <trkpt lat="43.57481" lon="1.31332">
        <ele>155.6</ele>
        <time>2024-07-09T16:09:28Z</time>
      </trkpt>
      <trkpt lat="43.57484" lon="1.3134">
        <ele>155.6</ele>
        <time>2024-07-09T16:09:29Z</time>
      </trkpt>
      <trkpt lat="43.57487" lon="1.31348">
        <ele>155.6</ele>
        <time>2024-07-09T16:09:30Z</time>
      </trkpt>
      <trkpt lat="43.5749" lon="1.31356">
        <ele>155.6</ele>
        <time>2024-07-09T16:09:31Z</time>
      </trkpt>
      <trkpt lat="43.57492" lon="1.31362">
        <ele>155.6</ele>
        <time>2024-07-09T16:09:32Z</time>
      </trkpt>
      <trkpt lat="43.57495" lon="1.3137">
        <ele>155.6</ele>
        <time>2024-07-09T16:09:33Z</time>
      </trkpt>
      <trkpt lat="43.57499" lon="1.31379">
        <ele>155.6</ele>
        <time>2024-07-09T16:09:34Z</time>
      </trkpt>
      <trkpt lat="43.57503" lon="1.31387">
        <ele>155.6</ele>
        <time>2024-07-09T16:09:35Z</time>
      </trkpt>
      <trkpt lat="43.57506" lon="1.31395">
        <ele>155.6</ele>
        <time>2024-07-09T16:09:36Z</time>
      </trkpt>
      <trkpt lat="43.57509" lon="1.31402">
        <ele>155.6</ele>
        <time>2024-07-09T16:09:37Z</time>
      </trkpt>
      <trkpt lat="43.57512" lon="1.3141">
        <ele>155.6</ele>
        <time>2024-07-09T16:09:38Z</time>
      </trkpt>
      <trkpt lat="43.57516" lon="1.3142">
        <ele>155.6</ele>
        <time>2024-07-09T16:09:39Z</time>
      </trkpt>
      <trkpt lat="43.57519" lon="1.31428">
        <ele>155.4</ele>
        <time>2024-07-09T16:09:40Z</time>
      </trkpt>
      <trkpt lat="43.57522" lon="1.31437">
        <ele>155.4</ele>
        <time>2024-07-09T16:09:41Z</time>
      </trkpt>
      <trkpt lat="43.57525" lon="1.31445">
        <ele>155.4</ele>
        <time>2024-07-09T16:09:42Z</time>
      </trkpt>
      <trkpt lat="43.57528" lon="1.31453">
        <ele>155.4</ele>
        <time>2024-07-09T16:09:43Z</time>
      </trkpt>
      <trkpt lat="43.57531" lon="1.31461">
        <ele>155.4</ele>
        <time>2024-07-09T16:09:44Z</time>
      </trkpt>
      <trkpt lat="43.57534" lon="1.31469">
        <ele>155.2</ele>
        <time>2024-07-09T16:09:45Z</time>
      </trkpt>
      <trkpt lat="43.57537" lon="1.31477">
        <ele>155.2</ele>
        <time>2024-07-09T16:09:46Z</time>
      </trkpt>
      <trkpt lat="43.57541" lon="1.31481">
        <ele>155.2</ele>
        <time>2024-07-09T16:09:47Z</time>
      </trkpt>
      <trkpt lat="43.57546" lon="1.31486">
        <ele>155.2</ele>
        <time>2024-07-09T16:09:48Z</time>
      </trkpt>
      <trkpt lat="43.57551" lon="1.31491">
        <ele>155.2</ele>
        <time>2024-07-09T16:09:49Z</time>
      </trkpt>
      <trkpt lat="43.57556" lon="1.31496">
        <ele>155.2</ele>
        <time>2024-07-09T16:09:50Z</time>
      </trkpt>
      <trkpt lat="43.57561" lon="1.31497">
        <ele>155.2</ele>
        <time>2024-07-09T16:09:51Z</time>
      </trkpt>
      <trkpt lat="43.57565" lon="1.31495">
        <ele>155.2</ele>
        <time>2024-07-09T16:09:52Z</time>
      </trkpt>
      <trkpt lat="43.57571" lon="1.31492">
        <ele>155.2</ele>
        <time>2024-07-09T16:09:53Z</time>
      </trkpt>
      <trkpt lat="43.57576" lon="1.31492">
        <ele>155.2</ele>
        <time>2024-07-09T16:09:54Z</time>
      </trkpt>
      <trkpt lat="43.57579" lon="1.31496">
        <ele>155.2</ele>
        <time>2024-07-09T16:09:55Z</time>
      </trkpt>
      <trkpt lat="43.5758" lon="1.315">
        <ele>155.2</ele>
        <time>2024-07-09T16:09:56Z</time>
      </trkpt>
      <trkpt lat="43.57579" lon="1.31505">
        <ele>155.2</ele>
        <time>2024-07-09T16:09:57Z</time>
      </trkpt>
      <trkpt lat="43.57576" lon="1.31512">
        <ele>155.2</ele>
        <time>2024-07-09T16:09:58Z</time>
      </trkpt>
      <trkpt lat="43.57575" lon="1.31519">
        <ele>155.2</ele>
        <time>2024-07-09T16:09:59Z</time>
      </trkpt>
      <trkpt lat="43.57574" lon="1.31526">
        <ele>155.2</ele>
        <time>2024-07-09T16:10:00Z</time>
      </trkpt>
      <trkpt lat="43.57573" lon="1.31534">
        <ele>155.2</ele>
        <time>2024-07-09T16:10:01Z</time>
      </trkpt>
      <trkpt lat="43.57572" lon="1.31541">
        <ele>155.2</ele>
        <time>2024-07-09T16:10:02Z</time>
      </trkpt>
      <trkpt lat="43.5757" lon="1.31549">
        <ele>155</ele>
        <time>2024-07-09T16:10:03Z</time>
      </trkpt>
      <trkpt lat="43.57571" lon="1.31557">
        <ele>155</ele>
        <time>2024-07-09T16:10:04Z</time>
      </trkpt>
      <trkpt lat="43.57572" lon="1.31563">
        <ele>155</ele>
        <time>2024-07-09T16:10:05Z</time>
      </trkpt>
      <trkpt lat="43.57574" lon="1.31571">
        <ele>155</ele>
        <time>2024-07-09T16:10:06Z</time>
      </trkpt>
      <trkpt lat="43.57578" lon="1.31581">
        <ele>155</ele>
        <time>2024-07-09T16:10:07Z</time>
      </trkpt>
      <trkpt lat="43.57581" lon="1.31588">
        <ele>155</ele>
        <time>2024-07-09T16:10:08Z</time>
      </trkpt>
      <trkpt lat="43.57584" lon="1.31596">
        <ele>155</ele>
        <time>2024-07-09T16:10:09Z</time>
      </trkpt>
      <trkpt lat="43.57586" lon="1.31602">
        <ele>155</ele>
        <time>2024-07-09T16:10:10Z</time>
      </trkpt>
      <trkpt lat="43.5759" lon="1.31612">
        <ele>155</ele>
        <time>2024-07-09T16:10:11Z</time>
      </trkpt>
      <trkpt lat="43.57593" lon="1.3162">
        <ele>155</ele>
        <time>2024-07-09T16:10:12Z</time>
      </trkpt>
      <trkpt lat="43.57595" lon="1.31628">
        <ele>155</ele>
        <time>2024-07-09T16:10:13Z</time>
      </trkpt>
      <trkpt lat="43.57597" lon="1.31635">
        <ele>155</ele>
        <time>2024-07-09T16:10:14Z</time>
      </trkpt>
      <trkpt lat="43.576" lon="1.31645">
        <ele>155</ele>
        <time>2024-07-09T16:10:15Z</time>
      </trkpt>
      <trkpt lat="43.57603" lon="1.31653">
        <ele>155</ele>
        <time>2024-07-09T16:10:16Z</time>
      </trkpt>
      <trkpt lat="43.57606" lon="1.31661">
        <ele>155</ele>
        <time>2024-07-09T16:10:17Z</time>
      </trkpt>
      <trkpt lat="43.57609" lon="1.31669">
        <ele>155</ele>
        <time>2024-07-09T16:10:18Z</time>
      </trkpt>
      <trkpt lat="43.57611" lon="1.31676">
        <ele>155.2</ele>
        <time>2024-07-09T16:10:19Z</time>
      </trkpt>
      <trkpt lat="43.57615" lon="1.31684">
        <ele>155.2</ele>
        <time>2024-07-09T16:10:20Z</time>
      </trkpt>
      <trkpt lat="43.57618" lon="1.31694">
        <ele>155</ele>
        <time>2024-07-09T16:10:21Z</time>
      </trkpt>
      <trkpt lat="43.57621" lon="1.31702">
        <ele>155</ele>
        <time>2024-07-09T16:10:22Z</time>
      </trkpt>
      <trkpt lat="43.57624" lon="1.31711">
        <ele>155.2</ele>
        <time>2024-07-09T16:10:23Z</time>
      </trkpt>
      <trkpt lat="43.57627" lon="1.31718">
        <ele>155.2</ele>
        <time>2024-07-09T16:10:24Z</time>
      </trkpt>
      <trkpt lat="43.57631" lon="1.31728">
        <ele>155.2</ele>
        <time>2024-07-09T16:10:25Z</time>
      </trkpt>
      <trkpt lat="43.57634" lon="1.31736">
        <ele>155.2</ele>
        <time>2024-07-09T16:10:26Z</time>
      </trkpt>
      <trkpt lat="43.57637" lon="1.31745">
        <ele>155.2</ele>
        <time>2024-07-09T16:10:27Z</time>
      </trkpt>
      <trkpt lat="43.5764" lon="1.31753">
        <ele>155.2</ele>
        <time>2024-07-09T16:10:28Z</time>
      </trkpt>
      <trkpt lat="43.57643" lon="1.31761">
        <ele>155.2</ele>
        <time>2024-07-09T16:10:29Z</time>
      </trkpt>
      <trkpt lat="43.57646" lon="1.31769">
        <ele>155.2</ele>
        <time>2024-07-09T16:10:30Z</time>
      </trkpt>
      <trkpt lat="43.57649" lon="1.31777">
        <ele>155.2</ele>
        <time>2024-07-09T16:10:31Z</time>
      </trkpt>
      <trkpt lat="43.57652" lon="1.31785">
        <ele>155.2</ele>
        <time>2024-07-09T16:10:32Z</time>
      </trkpt>
      <trkpt lat="43.57655" lon="1.31793">
        <ele>155</ele>
        <time>2024-07-09T16:10:33Z</time>
      </trkpt>
      <trkpt lat="43.57658" lon="1.318">
        <ele>155</ele>
        <time>2024-07-09T16:10:34Z</time>
      </trkpt>
      <trkpt lat="43.57661" lon="1.31809">
        <ele>155</ele>
        <time>2024-07-09T16:10:35Z</time>
      </trkpt>
      <trkpt lat="43.57664" lon="1.31818">
        <ele>154.8</ele>
        <time>2024-07-09T16:10:36Z</time>
      </trkpt>
      <trkpt lat="43.57666" lon="1.31825">
        <ele>154.8</ele>
        <time>2024-07-09T16:10:37Z</time>
      </trkpt>
      <trkpt lat="43.57669" lon="1.31833">
        <ele>154.8</ele>
        <time>2024-07-09T16:10:38Z</time>
      </trkpt>
      <trkpt lat="43.57673" lon="1.31844">
        <ele>154.8</ele>
        <time>2024-07-09T16:10:39Z</time>
      </trkpt>
      <trkpt lat="43.57675" lon="1.31852">
        <ele>154.8</ele>
        <time>2024-07-09T16:10:40Z</time>
      </trkpt>
      <trkpt lat="43.57678" lon="1.3186">
        <ele>154.8</ele>
        <time>2024-07-09T16:10:41Z</time>
      </trkpt>
      <trkpt lat="43.5768" lon="1.31866">
        <ele>154.8</ele>
        <time>2024-07-09T16:10:42Z</time>
      </trkpt>
      <trkpt lat="43.57683" lon="1.31873">
        <ele>154.8</ele>
        <time>2024-07-09T16:10:43Z</time>
      </trkpt>
      <trkpt lat="43.57686" lon="1.31882">
        <ele>154.8</ele>
        <time>2024-07-09T16:10:44Z</time>
      </trkpt>
      <trkpt lat="43.57689" lon="1.31889">
        <ele>154.8</ele>
        <time>2024-07-09T16:10:45Z</time>
      </trkpt>
      <trkpt lat="43.57692" lon="1.31896">
        <ele>154.8</ele>
        <time>2024-07-09T16:10:46Z</time>
      </trkpt>
      <trkpt lat="43.57695" lon="1.31902">
        <ele>155</ele>
        <time>2024-07-09T16:10:47Z</time>
      </trkpt>
      <trkpt lat="43.57697" lon="1.31907">
        <ele>155</ele>
        <time>2024-07-09T16:10:48Z</time>
      </trkpt>
      <trkpt lat="43.577" lon="1.31916">
        <ele>155</ele>
        <time>2024-07-09T16:10:49Z</time>
      </trkpt>
      <trkpt lat="43.57702" lon="1.31924">
        <ele>155</ele>
        <time>2024-07-09T16:10:50Z</time>
      </trkpt>
      <trkpt lat="43.57705" lon="1.31932">
        <ele>155</ele>
        <time>2024-07-09T16:10:51Z</time>
      </trkpt>
      <trkpt lat="43.57708" lon="1.3194">
        <ele>155</ele>
        <time>2024-07-09T16:10:52Z</time>
      </trkpt>
      <trkpt lat="43.5771" lon="1.31948">
        <ele>155</ele>
        <time>2024-07-09T16:10:53Z</time>
      </trkpt>
      <trkpt lat="43.57714" lon="1.31956">
        <ele>155</ele>
        <time>2024-07-09T16:10:54Z</time>
      </trkpt>
      <trkpt lat="43.57717" lon="1.31964">
        <ele>155</ele>
        <time>2024-07-09T16:10:55Z</time>
      </trkpt>
      <trkpt lat="43.57719" lon="1.31971">
        <ele>155</ele>
        <time>2024-07-09T16:10:56Z</time>
      </trkpt>
      <trkpt lat="43.57723" lon="1.31979">
        <ele>155.2</ele>
        <time>2024-07-09T16:10:57Z</time>
      </trkpt>
      <trkpt lat="43.57726" lon="1.31989">
        <ele>155.2</ele>
        <time>2024-07-09T16:10:58Z</time>
      </trkpt>
      <trkpt lat="43.57729" lon="1.31998">
        <ele>155.2</ele>
        <time>2024-07-09T16:10:59Z</time>
      </trkpt>
      <trkpt lat="43.57732" lon="1.32007">
        <ele>155</ele>
        <time>2024-07-09T16:11:00Z</time>
      </trkpt>
      <trkpt lat="43.57735" lon="1.32014">
        <ele>155</ele>
        <time>2024-07-09T16:11:01Z</time>
      </trkpt>
      <trkpt lat="43.57738" lon="1.32022">
        <ele>155</ele>
        <time>2024-07-09T16:11:02Z</time>
      </trkpt>
      <trkpt lat="43.57742" lon="1.32033">
        <ele>155</ele>
        <time>2024-07-09T16:11:03Z</time>
      </trkpt>
      <trkpt lat="43.57746" lon="1.32042">
        <ele>154.8</ele>
        <time>2024-07-09T16:11:04Z</time>
      </trkpt>
      <trkpt lat="43.57749" lon="1.32051">
        <ele>154.6</ele>
        <time>2024-07-09T16:11:05Z</time>
      </trkpt>
      <trkpt lat="43.57752" lon="1.32058">
        <ele>154.6</ele>
        <time>2024-07-09T16:11:06Z</time>
      </trkpt>
      <trkpt lat="43.57755" lon="1.32066">
        <ele>154.6</ele>
        <time>2024-07-09T16:11:07Z</time>
      </trkpt>
      <trkpt lat="43.57759" lon="1.32077">
        <ele>154.6</ele>
        <time>2024-07-09T16:11:08Z</time>
      </trkpt>
      <trkpt lat="43.57762" lon="1.32086">
        <ele>154.4</ele>
        <time>2024-07-09T16:11:09Z</time>
      </trkpt>
      <trkpt lat="43.57765" lon="1.32094">
        <ele>154.2</ele>
        <time>2024-07-09T16:11:10Z</time>
      </trkpt>
      <trkpt lat="43.57769" lon="1.32103">
        <ele>154.2</ele>
        <time>2024-07-09T16:11:11Z</time>
      </trkpt>
      <trkpt lat="43.57772" lon="1.32111">
        <ele>154</ele>
        <time>2024-07-09T16:11:12Z</time>
      </trkpt>
      <trkpt lat="43.57775" lon="1.3212">
        <ele>154</ele>
        <time>2024-07-09T16:11:13Z</time>
      </trkpt>
      <trkpt lat="43.57778" lon="1.32128">
        <ele>154</ele>
        <time>2024-07-09T16:11:14Z</time>
      </trkpt>
      <trkpt lat="43.5778" lon="1.32135">
        <ele>154</ele>
        <time>2024-07-09T16:11:15Z</time>
      </trkpt>
      <trkpt lat="43.57783" lon="1.32143">
        <ele>153.8</ele>
        <time>2024-07-09T16:11:16Z</time>
      </trkpt>
      <trkpt lat="43.57787" lon="1.32153">
        <ele>153.8</ele>
        <time>2024-07-09T16:11:17Z</time>
      </trkpt>
      <trkpt lat="43.5779" lon="1.32162">
        <ele>153.8</ele>
        <time>2024-07-09T16:11:18Z</time>
      </trkpt>
      <trkpt lat="43.57793" lon="1.3217">
        <ele>153.8</ele>
        <time>2024-07-09T16:11:19Z</time>
      </trkpt>
      <trkpt lat="43.57796" lon="1.32178">
        <ele>153.6</ele>
        <time>2024-07-09T16:11:20Z</time>
      </trkpt>
      <trkpt lat="43.57799" lon="1.32186">
        <ele>153.6</ele>
        <time>2024-07-09T16:11:21Z</time>
      </trkpt>
      <trkpt lat="43.57803" lon="1.32194">
        <ele>153.6</ele>
        <time>2024-07-09T16:11:22Z</time>
      </trkpt>
      <trkpt lat="43.57805" lon="1.322">
        <ele>153.6</ele>
        <time>2024-07-09T16:11:23Z</time>
      </trkpt>
      <trkpt lat="43.57808" lon="1.32208">
        <ele>153.6</ele>
        <time>2024-07-09T16:11:24Z</time>
      </trkpt>
      <trkpt lat="43.57811" lon="1.32216">
        <ele>153.6</ele>
        <time>2024-07-09T16:11:25Z</time>
      </trkpt>
      <trkpt lat="43.57814" lon="1.32225">
        <ele>153.6</ele>
        <time>2024-07-09T16:11:26Z</time>
      </trkpt>
      <trkpt lat="43.57817" lon="1.32233">
        <ele>153.8</ele>
        <time>2024-07-09T16:11:27Z</time>
      </trkpt>
      <trkpt lat="43.57819" lon="1.32241">
        <ele>153.8</ele>
        <time>2024-07-09T16:11:28Z</time>
      </trkpt>
      <trkpt lat="43.57822" lon="1.32249">
        <ele>153.8</ele>
        <time>2024-07-09T16:11:29Z</time>
      </trkpt>
      <trkpt lat="43.57825" lon="1.32255">
        <ele>153.8</ele>
        <time>2024-07-09T16:11:30Z</time>
      </trkpt>
      <trkpt lat="43.57828" lon="1.32264">
        <ele>153.8</ele>
        <time>2024-07-09T16:11:31Z</time>
      </trkpt>
      <trkpt lat="43.5783" lon="1.32271">
        <ele>153.8</ele>
        <time>2024-07-09T16:11:32Z</time>
      </trkpt>
      <trkpt lat="43.57833" lon="1.32278">
        <ele>153.8</ele>
        <time>2024-07-09T16:11:33Z</time>
      </trkpt>
      <trkpt lat="43.57835" lon="1.32284">
        <ele>154</ele>
        <time>2024-07-09T16:11:34Z</time>
      </trkpt>
      <trkpt lat="43.57837" lon="1.32293">
        <ele>154</ele>
        <time>2024-07-09T16:11:35Z</time>
      </trkpt>
      <trkpt lat="43.57839" lon="1.32301">
        <ele>154</ele>
        <time>2024-07-09T16:11:36Z</time>
      </trkpt>
      <trkpt lat="43.57841" lon="1.32309">
        <ele>154</ele>
        <time>2024-07-09T16:11:37Z</time>
      </trkpt>
      <trkpt lat="43.57843" lon="1.32317">
        <ele>154</ele>
        <time>2024-07-09T16:11:38Z</time>
      </trkpt>
      <trkpt lat="43.57845" lon="1.32324">
        <ele>154.2</ele>
        <time>2024-07-09T16:11:39Z</time>
      </trkpt>
      <trkpt lat="43.57847" lon="1.32334">
        <ele>154.2</ele>
        <time>2024-07-09T16:11:40Z</time>
      </trkpt>
      <trkpt lat="43.57849" lon="1.32342">
        <ele>154.2</ele>
        <time>2024-07-09T16:11:41Z</time>
      </trkpt>
      <trkpt lat="43.57851" lon="1.32349">
        <ele>154.2</ele>
        <time>2024-07-09T16:11:42Z</time>
      </trkpt>
      <trkpt lat="43.57853" lon="1.32357">
        <ele>154.2</ele>
        <time>2024-07-09T16:11:43Z</time>
      </trkpt>
      <trkpt lat="43.57855" lon="1.32367">
        <ele>154.2</ele>
        <time>2024-07-09T16:11:44Z</time>
      </trkpt>
      <trkpt lat="43.57857" lon="1.32376">
        <ele>154.2</ele>
        <time>2024-07-09T16:11:45Z</time>
      </trkpt>
      <trkpt lat="43.57859" lon="1.32385">
        <ele>154</ele>
        <time>2024-07-09T16:11:46Z</time>
      </trkpt>
      <trkpt lat="43.57861" lon="1.32391">
        <ele>154</ele>
        <time>2024-07-09T16:11:47Z</time>
      </trkpt>
      <trkpt lat="43.57863" lon="1.324">
        <ele>154</ele>
        <time>2024-07-09T16:11:48Z</time>
      </trkpt>
      <trkpt lat="43.57866" lon="1.32409">
        <ele>154</ele>
        <time>2024-07-09T16:11:49Z</time>
      </trkpt>
      <trkpt lat="43.57868" lon="1.32417">
        <ele>154</ele>
        <time>2024-07-09T16:11:50Z</time>
      </trkpt>
      <trkpt lat="43.57871" lon="1.32423">
        <ele>154</ele>
        <time>2024-07-09T16:11:51Z</time>
      </trkpt>
      <trkpt lat="43.57875" lon="1.3243">
        <ele>154</ele>
        <time>2024-07-09T16:11:52Z</time>
      </trkpt>
      <trkpt lat="43.57877" lon="1.32436">
        <ele>153.8</ele>
        <time>2024-07-09T16:11:53Z</time>
      </trkpt>
      <trkpt lat="43.5788" lon="1.32446">
        <ele>153.8</ele>
        <time>2024-07-09T16:11:54Z</time>
      </trkpt>
      <trkpt lat="43.57882" lon="1.32454">
        <ele>153.8</ele>
        <time>2024-07-09T16:11:55Z</time>
      </trkpt>
      <trkpt lat="43.57883" lon="1.32463">
        <ele>153.8</ele>
        <time>2024-07-09T16:11:56Z</time>
      </trkpt>
      <trkpt lat="43.57884" lon="1.32469">
        <ele>153.8</ele>
        <time>2024-07-09T16:11:57Z</time>
      </trkpt>
      <trkpt lat="43.57887" lon="1.32479">
        <ele>153.8</ele>
        <time>2024-07-09T16:11:58Z</time>
      </trkpt>
      <trkpt lat="43.57888" lon="1.32488">
        <ele>153.8</ele>
        <time>2024-07-09T16:11:59Z</time>
      </trkpt>
      <trkpt lat="43.5789" lon="1.32496">
        <ele>153.8</ele>
        <time>2024-07-09T16:12:00Z</time>
      </trkpt>
      <trkpt lat="43.57892" lon="1.32503">
        <ele>153.8</ele>
        <time>2024-07-09T16:12:01Z</time>
      </trkpt>
      <trkpt lat="43.57894" lon="1.32513">
        <ele>153.8</ele>
        <time>2024-07-09T16:12:02Z</time>
      </trkpt>
      <trkpt lat="43.57896" lon="1.32521">
        <ele>153.8</ele>
        <time>2024-07-09T16:12:03Z</time>
      </trkpt>
      <trkpt lat="43.57899" lon="1.32529">
        <ele>154</ele>
        <time>2024-07-09T16:12:04Z</time>
      </trkpt>
      <trkpt lat="43.57901" lon="1.32537">
        <ele>154</ele>
        <time>2024-07-09T16:12:05Z</time>
      </trkpt>
      <trkpt lat="43.57904" lon="1.32543">
        <ele>154</ele>
        <time>2024-07-09T16:12:06Z</time>
      </trkpt>
      <trkpt lat="43.57907" lon="1.32549">
        <ele>154</ele>
        <time>2024-07-09T16:12:07Z</time>
      </trkpt>
      <trkpt lat="43.57912" lon="1.32556">
        <ele>154</ele>
        <time>2024-07-09T16:12:08Z</time>
      </trkpt>
      <trkpt lat="43.57916" lon="1.3256">
        <ele>154</ele>
        <time>2024-07-09T16:12:09Z</time>
      </trkpt>
      <trkpt lat="43.57919" lon="1.32564">
        <ele>154.2</ele>
        <time>2024-07-09T16:12:10Z</time>
      </trkpt>
      <trkpt lat="43.57923" lon="1.3257">
        <ele>154.2</ele>
        <time>2024-07-09T16:12:11Z</time>
      </trkpt>
      <trkpt lat="43.57923" lon="1.32578">
        <ele>154.2</ele>
        <time>2024-07-09T16:12:12Z</time>
      </trkpt>
      <trkpt lat="43.57922" lon="1.32585">
        <ele>154.2</ele>
        <time>2024-07-09T16:12:13Z</time>
      </trkpt>
      <trkpt lat="43.57919" lon="1.32592">
        <ele>154.2</ele>
        <time>2024-07-09T16:12:14Z</time>
      </trkpt>
      <trkpt lat="43.57919" lon="1.326">
        <ele>154.2</ele>
        <time>2024-07-09T16:12:15Z</time>
      </trkpt>
      <trkpt lat="43.5792" lon="1.32606">
        <ele>154.2</ele>
        <time>2024-07-09T16:12:16Z</time>
      </trkpt>
      <trkpt lat="43.57923" lon="1.32615">
        <ele>154</ele>
        <time>2024-07-09T16:12:17Z</time>
      </trkpt>
      <trkpt lat="43.57926" lon="1.32623">
        <ele>154</ele>
        <time>2024-07-09T16:12:18Z</time>
      </trkpt>
      <trkpt lat="43.57928" lon="1.32628">
        <ele>153.8</ele>
        <time>2024-07-09T16:12:19Z</time>
      </trkpt>
      <trkpt lat="43.57931" lon="1.32636">
        <ele>153.8</ele>
        <time>2024-07-09T16:12:20Z</time>
      </trkpt>
      <trkpt lat="43.57935" lon="1.32644">
        <ele>153.8</ele>
        <time>2024-07-09T16:12:21Z</time>
      </trkpt>
      <trkpt lat="43.57938" lon="1.32652">
        <ele>153.6</ele>
        <time>2024-07-09T16:12:22Z</time>
      </trkpt>
      <trkpt lat="43.57942" lon="1.3266">
        <ele>153.6</ele>
        <time>2024-07-09T16:12:23Z</time>
      </trkpt>
      <trkpt lat="43.57944" lon="1.32667">
        <ele>153.6</ele>
        <time>2024-07-09T16:12:24Z</time>
      </trkpt>
      <trkpt lat="43.57948" lon="1.32675">
        <ele>153.6</ele>
        <time>2024-07-09T16:12:25Z</time>
      </trkpt>
      <trkpt lat="43.57952" lon="1.32685">
        <ele>153.6</ele>
        <time>2024-07-09T16:12:26Z</time>
      </trkpt>
      <trkpt lat="43.57955" lon="1.32693">
        <ele>153.6</ele>
        <time>2024-07-09T16:12:27Z</time>
      </trkpt>
      <trkpt lat="43.57959" lon="1.32701">
        <ele>153.6</ele>
        <time>2024-07-09T16:12:28Z</time>
      </trkpt>
      <trkpt lat="43.57964" lon="1.32709">
        <ele>153.6</ele>
        <time>2024-07-09T16:12:29Z</time>
      </trkpt>
      <trkpt lat="43.57969" lon="1.32717">
        <ele>153.6</ele>
        <time>2024-07-09T16:12:30Z</time>
      </trkpt>
      <trkpt lat="43.57976" lon="1.32725">
        <ele>153.4</ele>
        <time>2024-07-09T16:12:31Z</time>
      </trkpt>
      <trkpt lat="43.57982" lon="1.32732">
        <ele>153.2</ele>
        <time>2024-07-09T16:12:32Z</time>
      </trkpt>
      <trkpt lat="43.57988" lon="1.32741">
        <ele>153</ele>
        <time>2024-07-09T16:12:33Z</time>
      </trkpt>
      <trkpt lat="43.57993" lon="1.32752">
        <ele>153</ele>
        <time>2024-07-09T16:12:34Z</time>
      </trkpt>
      <trkpt lat="43.57995" lon="1.32762">
        <ele>152.6</ele>
        <time>2024-07-09T16:12:35Z</time>
      </trkpt>
      <trkpt lat="43.57995" lon="1.32771">
        <ele>152.2</ele>
        <time>2024-07-09T16:12:36Z</time>
      </trkpt>
      <trkpt lat="43.57996" lon="1.3278">
        <ele>152.2</ele>
        <time>2024-07-09T16:12:37Z</time>
      </trkpt>
      <trkpt lat="43.57997" lon="1.32786">
        <ele>152</ele>
        <time>2024-07-09T16:12:38Z</time>
      </trkpt>
      <trkpt lat="43.57999" lon="1.32794">
        <ele>152</ele>
        <time>2024-07-09T16:12:39Z</time>
      </trkpt>
      <trkpt lat="43.58002" lon="1.32802">
        <ele>152</ele>
        <time>2024-07-09T16:12:40Z</time>
      </trkpt>
      <trkpt lat="43.58005" lon="1.32809">
        <ele>152</ele>
        <time>2024-07-09T16:12:41Z</time>
      </trkpt>
      <trkpt lat="43.58008" lon="1.32816">
        <ele>152</ele>
        <time>2024-07-09T16:12:42Z</time>
      </trkpt>
      <trkpt lat="43.58012" lon="1.32823">
        <ele>152.2</ele>
        <time>2024-07-09T16:12:43Z</time>
      </trkpt>
      <trkpt lat="43.58014" lon="1.32829">
        <ele>152.4</ele>
        <time>2024-07-09T16:12:44Z</time>
      </trkpt>
      <trkpt lat="43.58019" lon="1.32838">
        <ele>152.6</ele>
        <time>2024-07-09T16:12:45Z</time>
      </trkpt>
      <trkpt lat="43.58022" lon="1.32845">
        <ele>152.8</ele>
        <time>2024-07-09T16:12:46Z</time>
      </trkpt>
      <trkpt lat="43.58025" lon="1.32851">
        <ele>152.8</ele>
        <time>2024-07-09T16:12:47Z</time>
      </trkpt>
      <trkpt lat="43.58029" lon="1.32858">
        <ele>152.8</ele>
        <time>2024-07-09T16:12:48Z</time>
      </trkpt>
      <trkpt lat="43.58033" lon="1.32867">
        <ele>153</ele>
        <time>2024-07-09T16:12:49Z</time>
      </trkpt>
      <trkpt lat="43.58036" lon="1.32875">
        <ele>153</ele>
        <time>2024-07-09T16:12:50Z</time>
      </trkpt>
      <trkpt lat="43.5804" lon="1.32882">
        <ele>153</ele>
        <time>2024-07-09T16:12:51Z</time>
      </trkpt>
      <trkpt lat="43.58043" lon="1.32889">
        <ele>153</ele>
        <time>2024-07-09T16:12:52Z</time>
      </trkpt>
      <trkpt lat="43.58046" lon="1.32896">
        <ele>153</ele>
        <time>2024-07-09T16:12:53Z</time>
      </trkpt>
      <trkpt lat="43.58049" lon="1.32903">
        <ele>153</ele>
        <time>2024-07-09T16:12:54Z</time>
      </trkpt>
      <trkpt lat="43.58052" lon="1.3291">
        <ele>153</ele>
        <time>2024-07-09T16:12:55Z</time>
      </trkpt>
      <trkpt lat="43.58055" lon="1.32917">
        <ele>153</ele>
        <time>2024-07-09T16:12:56Z</time>
      </trkpt>
      <trkpt lat="43.58058" lon="1.32923">
        <ele>153</ele>
        <time>2024-07-09T16:12:57Z</time>
      </trkpt>
      <trkpt lat="43.58061" lon="1.32932">
        <ele>153</ele>
        <time>2024-07-09T16:12:58Z</time>
      </trkpt>
      <trkpt lat="43.58065" lon="1.3294">
        <ele>153</ele>
        <time>2024-07-09T16:12:59Z</time>
      </trkpt>
      <trkpt lat="43.58068" lon="1.32948">
        <ele>153</ele>
        <time>2024-07-09T16:13:00Z</time>
      </trkpt>
      <trkpt lat="43.58071" lon="1.32955">
        <ele>153</ele>
        <time>2024-07-09T16:13:01Z</time>
      </trkpt>
      <trkpt lat="43.58075" lon="1.32963">
        <ele>153</ele>
        <time>2024-07-09T16:13:02Z</time>
      </trkpt>
      <trkpt lat="43.58078" lon="1.3297">
        <ele>153.2</ele>
        <time>2024-07-09T16:13:03Z</time>
      </trkpt>
      <trkpt lat="43.58082" lon="1.32978">
        <ele>153.2</ele>
        <time>2024-07-09T16:13:04Z</time>
      </trkpt>
      <trkpt lat="43.58086" lon="1.32986">
        <ele>153.2</ele>
        <time>2024-07-09T16:13:05Z</time>
      </trkpt>
      <trkpt lat="43.58089" lon="1.32994">
        <ele>153.2</ele>
        <time>2024-07-09T16:13:06Z</time>
      </trkpt>
      <trkpt lat="43.58093" lon="1.33001">
        <ele>153.2</ele>
        <time>2024-07-09T16:13:07Z</time>
      </trkpt>
      <trkpt lat="43.58096" lon="1.33009">
        <ele>153.2</ele>
        <time>2024-07-09T16:13:08Z</time>
      </trkpt>
      <trkpt lat="43.581" lon="1.33016">
        <ele>153.2</ele>
        <time>2024-07-09T16:13:09Z</time>
      </trkpt>
      <trkpt lat="43.58104" lon="1.33024">
        <ele>153.2</ele>
        <time>2024-07-09T16:13:10Z</time>
      </trkpt>
      <trkpt lat="43.58107" lon="1.33032">
        <ele>153.2</ele>
        <time>2024-07-09T16:13:11Z</time>
      </trkpt>
      <trkpt lat="43.58111" lon="1.3304">
        <ele>153.2</ele>
        <time>2024-07-09T16:13:12Z</time>
      </trkpt>
      <trkpt lat="43.58114" lon="1.33048">
        <ele>153.2</ele>
        <time>2024-07-09T16:13:13Z</time>
      </trkpt>
      <trkpt lat="43.58118" lon="1.33056">
        <ele>153.2</ele>
        <time>2024-07-09T16:13:14Z</time>
      </trkpt>
      <trkpt lat="43.58121" lon="1.33063">
        <ele>153.2</ele>
        <time>2024-07-09T16:13:15Z</time>
      </trkpt>
      <trkpt lat="43.58125" lon="1.33071">
        <ele>153.2</ele>
        <time>2024-07-09T16:13:16Z</time>
      </trkpt>
      <trkpt lat="43.58129" lon="1.33081">
        <ele>153.2</ele>
        <time>2024-07-09T16:13:17Z</time>
      </trkpt>
      <trkpt lat="43.58133" lon="1.3309">
        <ele>153.2</ele>
        <time>2024-07-09T16:13:18Z</time>
      </trkpt>
      <trkpt lat="43.58137" lon="1.33098">
        <ele>153.2</ele>
        <time>2024-07-09T16:13:19Z</time>
      </trkpt>
      <trkpt lat="43.5814" lon="1.33106">
        <ele>153.2</ele>
        <time>2024-07-09T16:13:20Z</time>
      </trkpt>
      <trkpt lat="43.58143" lon="1.33113">
        <ele>153.2</ele>
        <time>2024-07-09T16:13:21Z</time>
      </trkpt>
      <trkpt lat="43.58148" lon="1.33123">
        <ele>153.2</ele>
        <time>2024-07-09T16:13:22Z</time>
      </trkpt>
      <trkpt lat="43.58151" lon="1.33131">
        <ele>153.2</ele>
        <time>2024-07-09T16:13:23Z</time>
      </trkpt>
      <trkpt lat="43.58154" lon="1.33137">
        <ele>153.2</ele>
        <time>2024-07-09T16:13:24Z</time>
      </trkpt>
      <trkpt lat="43.58157" lon="1.33145">
        <ele>153.2</ele>
        <time>2024-07-09T16:13:25Z</time>
      </trkpt>
      <trkpt lat="43.58161" lon="1.33155">
        <ele>153.2</ele>
        <time>2024-07-09T16:13:26Z</time>
      </trkpt>
      <trkpt lat="43.58165" lon="1.33163">
        <ele>153.2</ele>
        <time>2024-07-09T16:13:27Z</time>
      </trkpt>
      <trkpt lat="43.58169" lon="1.33171">
        <ele>153.2</ele>
        <time>2024-07-09T16:13:28Z</time>
      </trkpt>
      <trkpt lat="43.58172" lon="1.33177">
        <ele>153.2</ele>
        <time>2024-07-09T16:13:29Z</time>
      </trkpt>
      <trkpt lat="43.58175" lon="1.33185">
        <ele>153.2</ele>
        <time>2024-07-09T16:13:30Z</time>
      </trkpt>
      <trkpt lat="43.5818" lon="1.33195">
        <ele>153.2</ele>
        <time>2024-07-09T16:13:31Z</time>
      </trkpt>
      <trkpt lat="43.58183" lon="1.33203">
        <ele>153.2</ele>
        <time>2024-07-09T16:13:32Z</time>
      </trkpt>
      <trkpt lat="43.58187" lon="1.33211">
        <ele>153.2</ele>
        <time>2024-07-09T16:13:33Z</time>
      </trkpt>
      <trkpt lat="43.58191" lon="1.33219">
        <ele>153.2</ele>
        <time>2024-07-09T16:13:34Z</time>
      </trkpt>
      <trkpt lat="43.58193" lon="1.33225">
        <ele>153.2</ele>
        <time>2024-07-09T16:13:35Z</time>
      </trkpt>
      <trkpt lat="43.58197" lon="1.33235">
        <ele>153.4</ele>
        <time>2024-07-09T16:13:36Z</time>
      </trkpt>
      <trkpt lat="43.58201" lon="1.33242">
        <ele>153.4</ele>
        <time>2024-07-09T16:13:37Z</time>
      </trkpt>
      <trkpt lat="43.58204" lon="1.33247">
        <ele>153.4</ele>
        <time>2024-07-09T16:13:38Z</time>
      </trkpt>
      <trkpt lat="43.58209" lon="1.33253">
        <ele>153.4</ele>
        <time>2024-07-09T16:13:39Z</time>
      </trkpt>
      <trkpt lat="43.58213" lon="1.33261">
        <ele>153.4</ele>
        <time>2024-07-09T16:13:40Z</time>
      </trkpt>
      <trkpt lat="43.58217" lon="1.33268">
        <ele>153.4</ele>
        <time>2024-07-09T16:13:41Z</time>
      </trkpt>
      <trkpt lat="43.5822" lon="1.33275">
        <ele>153.4</ele>
        <time>2024-07-09T16:13:42Z</time>
      </trkpt>
      <trkpt lat="43.58223" lon="1.33281">
        <ele>153.4</ele>
        <time>2024-07-09T16:13:43Z</time>
      </trkpt>
      <trkpt lat="43.58226" lon="1.33289">
        <ele>153.4</ele>
        <time>2024-07-09T16:13:44Z</time>
      </trkpt>
      <trkpt lat="43.5823" lon="1.33298">
        <ele>153.4</ele>
        <time>2024-07-09T16:13:45Z</time>
      </trkpt>
      <trkpt lat="43.58234" lon="1.33306">
        <ele>153.4</ele>
        <time>2024-07-09T16:13:46Z</time>
      </trkpt>
      <trkpt lat="43.58237" lon="1.33314">
        <ele>153.4</ele>
        <time>2024-07-09T16:13:47Z</time>
      </trkpt>
      <trkpt lat="43.58239" lon="1.33321">
        <ele>153.4</ele>
        <time>2024-07-09T16:13:48Z</time>
      </trkpt>
      <trkpt lat="43.58242" lon="1.33332">
        <ele>153.4</ele>
        <time>2024-07-09T16:13:49Z</time>
      </trkpt>
      <trkpt lat="43.58245" lon="1.3334">
        <ele>153.4</ele>
        <time>2024-07-09T16:13:50Z</time>
      </trkpt>
      <trkpt lat="43.58249" lon="1.33349">
        <ele>153.4</ele>
        <time>2024-07-09T16:13:51Z</time>
      </trkpt>
      <trkpt lat="43.58251" lon="1.33355">
        <ele>153.4</ele>
        <time>2024-07-09T16:13:52Z</time>
      </trkpt>
      <trkpt lat="43.58255" lon="1.33364">
        <ele>153.4</ele>
        <time>2024-07-09T16:13:53Z</time>
      </trkpt>
      <trkpt lat="43.58259" lon="1.33373">
        <ele>153.2</ele>
        <time>2024-07-09T16:13:54Z</time>
      </trkpt>
      <trkpt lat="43.58263" lon="1.33382">
        <ele>153.2</ele>
        <time>2024-07-09T16:13:55Z</time>
      </trkpt>
      <trkpt lat="43.58267" lon="1.3339">
        <ele>153.2</ele>
        <time>2024-07-09T16:13:56Z</time>
      </trkpt>
      <trkpt lat="43.58269" lon="1.33397">
        <ele>153</ele>
        <time>2024-07-09T16:13:57Z</time>
      </trkpt>
      <trkpt lat="43.58273" lon="1.33405">
        <ele>153</ele>
        <time>2024-07-09T16:13:58Z</time>
      </trkpt>
      <trkpt lat="43.58278" lon="1.33416">
        <ele>153</ele>
        <time>2024-07-09T16:13:59Z</time>
      </trkpt>
      <trkpt lat="43.58281" lon="1.33424">
        <ele>153</ele>
        <time>2024-07-09T16:14:00Z</time>
      </trkpt>
      <trkpt lat="43.58285" lon="1.33433">
        <ele>153</ele>
        <time>2024-07-09T16:14:01Z</time>
      </trkpt>
      <trkpt lat="43.58288" lon="1.33439">
        <ele>152.8</ele>
        <time>2024-07-09T16:14:02Z</time>
      </trkpt>
      <trkpt lat="43.58292" lon="1.3345">
        <ele>152.8</ele>
        <time>2024-07-09T16:14:03Z</time>
      </trkpt>
      <trkpt lat="43.58296" lon="1.33458">
        <ele>152.8</ele>
        <time>2024-07-09T16:14:04Z</time>
      </trkpt>
      <trkpt lat="43.583" lon="1.33467">
        <ele>152.8</ele>
        <time>2024-07-09T16:14:05Z</time>
      </trkpt>
      <trkpt lat="43.58303" lon="1.33476">
        <ele>152.8</ele>
        <time>2024-07-09T16:14:06Z</time>
      </trkpt>
      <trkpt lat="43.58307" lon="1.33482">
        <ele>152.8</ele>
        <time>2024-07-09T16:14:07Z</time>
      </trkpt>
      <trkpt lat="43.58311" lon="1.33493">
        <ele>152.6</ele>
        <time>2024-07-09T16:14:08Z</time>
      </trkpt>
      <trkpt lat="43.58315" lon="1.33501">
        <ele>152.6</ele>
        <time>2024-07-09T16:14:09Z</time>
      </trkpt>
      <trkpt lat="43.58318" lon="1.33508">
        <ele>152.6</ele>
        <time>2024-07-09T16:14:10Z</time>
      </trkpt>
      <trkpt lat="43.58322" lon="1.33517">
        <ele>152.6</ele>
        <time>2024-07-09T16:14:11Z</time>
      </trkpt>
      <trkpt lat="43.58327" lon="1.33527">
        <ele>152.6</ele>
        <time>2024-07-09T16:14:12Z</time>
      </trkpt>
      <trkpt lat="43.58331" lon="1.33535">
        <ele>152.6</ele>
        <time>2024-07-09T16:14:13Z</time>
      </trkpt>
      <trkpt lat="43.58335" lon="1.33543">
        <ele>152.6</ele>
        <time>2024-07-09T16:14:14Z</time>
      </trkpt>
      <trkpt lat="43.58338" lon="1.3355">
        <ele>152.6</ele>
        <time>2024-07-09T16:14:15Z</time>
      </trkpt>
      <trkpt lat="43.58343" lon="1.33559">
        <ele>152.6</ele>
        <time>2024-07-09T16:14:16Z</time>
      </trkpt>
      <trkpt lat="43.58347" lon="1.33566">
        <ele>152.6</ele>
        <time>2024-07-09T16:14:17Z</time>
      </trkpt>
      <trkpt lat="43.58352" lon="1.33571">
        <ele>152.6</ele>
        <time>2024-07-09T16:14:18Z</time>
      </trkpt>
      <trkpt lat="43.58357" lon="1.33573">
        <ele>152.6</ele>
        <time>2024-07-09T16:14:19Z</time>
      </trkpt>
      <trkpt lat="43.58362" lon="1.33571">
        <ele>152.4</ele>
        <time>2024-07-09T16:14:20Z</time>
      </trkpt>
      <trkpt lat="43.58368" lon="1.33568">
        <ele>152.4</ele>
        <time>2024-07-09T16:14:21Z</time>
      </trkpt>
      <trkpt lat="43.58371" lon="1.33562">
        <ele>152.4</ele>
        <time>2024-07-09T16:14:22Z</time>
      </trkpt>
      <trkpt lat="43.58375" lon="1.33553">
        <ele>152.2</ele>
        <time>2024-07-09T16:14:23Z</time>
      </trkpt>
      <trkpt lat="43.58378" lon="1.33545">
        <ele>152.2</ele>
        <time>2024-07-09T16:14:24Z</time>
      </trkpt>
      <trkpt lat="43.5838" lon="1.33537">
        <ele>152.2</ele>
        <time>2024-07-09T16:14:25Z</time>
      </trkpt>
      <trkpt lat="43.58384" lon="1.33526">
        <ele>152.2</ele>
        <time>2024-07-09T16:14:26Z</time>
      </trkpt>
      <trkpt lat="43.58387" lon="1.33518">
        <ele>152.2</ele>
        <time>2024-07-09T16:14:27Z</time>
      </trkpt>
      <trkpt lat="43.5839" lon="1.33509">
        <ele>152.2</ele>
        <time>2024-07-09T16:14:28Z</time>
      </trkpt>
      <trkpt lat="43.58393" lon="1.33501">
        <ele>152.4</ele>
        <time>2024-07-09T16:14:29Z</time>
      </trkpt>
      <trkpt lat="43.58396" lon="1.33494">
        <ele>152.2</ele>
        <time>2024-07-09T16:14:30Z</time>
      </trkpt>
      <trkpt lat="43.58399" lon="1.33484">
        <ele>152.2</ele>
        <time>2024-07-09T16:14:31Z</time>
      </trkpt>
      <trkpt lat="43.58402" lon="1.33476">
        <ele>152.2</ele>
        <time>2024-07-09T16:14:32Z</time>
      </trkpt>
      <trkpt lat="43.58404" lon="1.33469">
        <ele>152.2</ele>
        <time>2024-07-09T16:14:33Z</time>
      </trkpt>
      <trkpt lat="43.58407" lon="1.33462">
        <ele>152.4</ele>
        <time>2024-07-09T16:14:34Z</time>
      </trkpt>
      <trkpt lat="43.5841" lon="1.33455">
        <ele>152.4</ele>
        <time>2024-07-09T16:14:35Z</time>
      </trkpt>
      <trkpt lat="43.58413" lon="1.33446">
        <ele>152.4</ele>
        <time>2024-07-09T16:14:36Z</time>
      </trkpt>
      <trkpt lat="43.58414" lon="1.33441">
        <ele>152.4</ele>
        <time>2024-07-09T16:14:37Z</time>
      </trkpt>
      <trkpt lat="43.58416" lon="1.33438">
        <ele>152.4</ele>
        <time>2024-07-09T16:14:38Z</time>
      </trkpt>
      <trkpt lat="43.58418" lon="1.33437">
        <ele>152.6</ele>
        <time>2024-07-09T16:14:39Z</time>
      </trkpt>
      <trkpt lat="43.58421" lon="1.33437">
        <ele>152.6</ele>
        <time>2024-07-09T16:14:40Z</time>
      </trkpt>
      <trkpt lat="43.58424" lon="1.33439">
        <ele>152.8</ele>
        <time>2024-07-09T16:14:41Z</time>
      </trkpt>
      <trkpt lat="43.58427" lon="1.33439">
        <ele>152.8</ele>
        <time>2024-07-09T16:14:42Z</time>
      </trkpt>
      <trkpt lat="43.5843" lon="1.33437">
        <ele>152.8</ele>
        <time>2024-07-09T16:14:43Z</time>
      </trkpt>
      <trkpt lat="43.58434" lon="1.33434">
        <ele>152.8</ele>
        <time>2024-07-09T16:14:44Z</time>
      </trkpt>
      <trkpt lat="43.58439" lon="1.33431">
        <ele>152.8</ele>
        <time>2024-07-09T16:14:45Z</time>
      </trkpt>
      <trkpt lat="43.58443" lon="1.33428">
        <ele>152.8</ele>
        <time>2024-07-09T16:14:46Z</time>
      </trkpt>
      <trkpt lat="43.58448" lon="1.33425">
        <ele>152.8</ele>
        <time>2024-07-09T16:14:47Z</time>
      </trkpt>
      <trkpt lat="43.58451" lon="1.33421">
        <ele>152.8</ele>
        <time>2024-07-09T16:14:48Z</time>
      </trkpt>
      <trkpt lat="43.58455" lon="1.33417">
        <ele>152.8</ele>
        <time>2024-07-09T16:14:49Z</time>
      </trkpt>
      <trkpt lat="43.5846" lon="1.33412">
        <ele>152.8</ele>
        <time>2024-07-09T16:14:50Z</time>
      </trkpt>
      <trkpt lat="43.58466" lon="1.3341">
        <ele>152.8</ele>
        <time>2024-07-09T16:14:51Z</time>
      </trkpt>
      <trkpt lat="43.5847" lon="1.3341">
        <ele>152.6</ele>
        <time>2024-07-09T16:14:52Z</time>
      </trkpt>
      <trkpt lat="43.58476" lon="1.3341">
        <ele>152.6</ele>
        <time>2024-07-09T16:14:53Z</time>
      </trkpt>
      <trkpt lat="43.58483" lon="1.33411">
        <ele>152.6</ele>
        <time>2024-07-09T16:14:54Z</time>
      </trkpt>
      <trkpt lat="43.58489" lon="1.33412">
        <ele>152.6</ele>
        <time>2024-07-09T16:14:55Z</time>
      </trkpt>
      <trkpt lat="43.58495" lon="1.33414">
        <ele>152.6</ele>
        <time>2024-07-09T16:14:56Z</time>
      </trkpt>
      <trkpt lat="43.585" lon="1.33415">
        <ele>152.6</ele>
        <time>2024-07-09T16:14:57Z</time>
      </trkpt>
      <trkpt lat="43.58505" lon="1.33418">
        <ele>152.6</ele>
        <time>2024-07-09T16:14:58Z</time>
      </trkpt>
      <trkpt lat="43.58512" lon="1.33422">
        <ele>152.6</ele>
        <time>2024-07-09T16:14:59Z</time>
      </trkpt>
      <trkpt lat="43.58518" lon="1.33427">
        <ele>152.6</ele>
        <time>2024-07-09T16:15:00Z</time>
      </trkpt>
      <trkpt lat="43.58522" lon="1.33432">
        <ele>152.4</ele>
        <time>2024-07-09T16:15:01Z</time>
      </trkpt>
      <trkpt lat="43.58526" lon="1.33437">
        <ele>152.4</ele>
        <time>2024-07-09T16:15:02Z</time>
      </trkpt>
      <trkpt lat="43.58531" lon="1.33443">
        <ele>152.4</ele>
        <time>2024-07-09T16:15:03Z</time>
      </trkpt>
      <trkpt lat="43.58536" lon="1.3345">
        <ele>152.4</ele>
        <time>2024-07-09T16:15:04Z</time>
      </trkpt>
      <trkpt lat="43.58541" lon="1.33456">
        <ele>152.4</ele>
        <time>2024-07-09T16:15:05Z</time>
      </trkpt>
      <trkpt lat="43.58545" lon="1.33461">
        <ele>152.4</ele>
        <time>2024-07-09T16:15:06Z</time>
      </trkpt>
      <trkpt lat="43.5855" lon="1.33467">
        <ele>152.4</ele>
        <time>2024-07-09T16:15:07Z</time>
      </trkpt>
      <trkpt lat="43.58555" lon="1.33475">
        <ele>152.4</ele>
        <time>2024-07-09T16:15:08Z</time>
      </trkpt>
      <trkpt lat="43.5856" lon="1.33481">
        <ele>152.4</ele>
        <time>2024-07-09T16:15:09Z</time>
      </trkpt>
      <trkpt lat="43.58565" lon="1.33488">
        <ele>152.4</ele>
        <time>2024-07-09T16:15:10Z</time>
      </trkpt>
      <trkpt lat="43.58569" lon="1.33494">
        <ele>152.4</ele>
        <time>2024-07-09T16:15:11Z</time>
      </trkpt>
      <trkpt lat="43.58569" lon="1.33494">
        <ele>152.4</ele>
        <time>2024-07-09T16:15:12Z</time>
      </trkpt>
      <trkpt lat="43.5858" lon="1.33507">
        <ele>152.6</ele>
        <time>2024-07-09T16:15:13Z</time>
      </trkpt>
      <trkpt lat="43.58586" lon="1.33512">
        <ele>152.6</ele>
        <time>2024-07-09T16:15:14Z</time>
      </trkpt>
      <trkpt lat="43.5859" lon="1.33516">
        <ele>152.6</ele>
        <time>2024-07-09T16:15:15Z</time>
      </trkpt>
      <trkpt lat="43.58595" lon="1.33521">
        <ele>152.6</ele>
        <time>2024-07-09T16:15:16Z</time>
      </trkpt>
      <trkpt lat="43.586" lon="1.33529">
        <ele>152.6</ele>
        <time>2024-07-09T16:15:17Z</time>
      </trkpt>
      <trkpt lat="43.58602" lon="1.33534">
        <ele>152.6</ele>
        <time>2024-07-09T16:15:18Z</time>
      </trkpt>
      <trkpt lat="43.58605" lon="1.33543">
        <ele>152.6</ele>
        <time>2024-07-09T16:15:19Z</time>
      </trkpt>
      <trkpt lat="43.58609" lon="1.33546">
        <ele>152.6</ele>
        <time>2024-07-09T16:15:20Z</time>
      </trkpt>
      <trkpt lat="43.58614" lon="1.33548">
        <ele>152.4</ele>
        <time>2024-07-09T16:15:21Z</time>
      </trkpt>
      <trkpt lat="43.58619" lon="1.3355">
        <ele>152.6</ele>
        <time>2024-07-09T16:15:22Z</time>
      </trkpt>
      <trkpt lat="43.58624" lon="1.33556">
        <ele>152.6</ele>
        <time>2024-07-09T16:15:23Z</time>
      </trkpt>
      <trkpt lat="43.58627" lon="1.33562">
        <ele>152.6</ele>
        <time>2024-07-09T16:15:24Z</time>
      </trkpt>
      <trkpt lat="43.5863" lon="1.3357">
        <ele>152.6</ele>
        <time>2024-07-09T16:15:25Z</time>
      </trkpt>
      <trkpt lat="43.58633" lon="1.33575">
        <ele>152.6</ele>
        <time>2024-07-09T16:15:26Z</time>
      </trkpt>
      <trkpt lat="43.58638" lon="1.33584">
        <ele>152.6</ele>
        <time>2024-07-09T16:15:27Z</time>
      </trkpt>
      <trkpt lat="43.58642" lon="1.3359">
        <ele>152.6</ele>
        <time>2024-07-09T16:15:28Z</time>
      </trkpt>
      <trkpt lat="43.58647" lon="1.33597">
        <ele>152.6</ele>
        <time>2024-07-09T16:15:29Z</time>
      </trkpt>
      <trkpt lat="43.5865" lon="1.33602">
        <ele>152.6</ele>
        <time>2024-07-09T16:15:30Z</time>
      </trkpt>
      <trkpt lat="43.58655" lon="1.33608">
        <ele>152.6</ele>
        <time>2024-07-09T16:15:31Z</time>
      </trkpt>
      <trkpt lat="43.5866" lon="1.33616">
        <ele>152.6</ele>
        <time>2024-07-09T16:15:32Z</time>
      </trkpt>
      <trkpt lat="43.58665" lon="1.33623">
        <ele>152.6</ele>
        <time>2024-07-09T16:15:33Z</time>
      </trkpt>
      <trkpt lat="43.5867" lon="1.33629">
        <ele>152.6</ele>
        <time>2024-07-09T16:15:34Z</time>
      </trkpt>
      <trkpt lat="43.58675" lon="1.33635">
        <ele>152.6</ele>
        <time>2024-07-09T16:15:35Z</time>
      </trkpt>
      <trkpt lat="43.58678" lon="1.3364">
        <ele>152.6</ele>
        <time>2024-07-09T16:15:36Z</time>
      </trkpt>
      <trkpt lat="43.58685" lon="1.33647">
        <ele>152.6</ele>
        <time>2024-07-09T16:15:37Z</time>
      </trkpt>
      <trkpt lat="43.58691" lon="1.33653">
        <ele>152.6</ele>
        <time>2024-07-09T16:15:38Z</time>
      </trkpt>
      <trkpt lat="43.58695" lon="1.33658">
        <ele>152.6</ele>
        <time>2024-07-09T16:15:39Z</time>
      </trkpt>
      <trkpt lat="43.587" lon="1.33665">
        <ele>152.6</ele>
        <time>2024-07-09T16:15:40Z</time>
      </trkpt>
      <trkpt lat="43.58705" lon="1.33672">
        <ele>152.6</ele>
        <time>2024-07-09T16:15:41Z</time>
      </trkpt>
      <trkpt lat="43.58711" lon="1.3368">
        <ele>152.6</ele>
        <time>2024-07-09T16:15:42Z</time>
      </trkpt>
      <trkpt lat="43.58716" lon="1.33687">
        <ele>152.6</ele>
        <time>2024-07-09T16:15:43Z</time>
      </trkpt>
      <trkpt lat="43.5872" lon="1.33693">
        <ele>152.6</ele>
        <time>2024-07-09T16:15:44Z</time>
      </trkpt>
      <trkpt lat="43.58725" lon="1.33699">
        <ele>152.6</ele>
        <time>2024-07-09T16:15:45Z</time>
      </trkpt>
      <trkpt lat="43.58731" lon="1.33707">
        <ele>152.6</ele>
        <time>2024-07-09T16:15:46Z</time>
      </trkpt>
      <trkpt lat="43.58736" lon="1.33714">
        <ele>152.8</ele>
        <time>2024-07-09T16:15:47Z</time>
      </trkpt>
      <trkpt lat="43.58741" lon="1.33721">
        <ele>152.8</ele>
        <time>2024-07-09T16:15:48Z</time>
      </trkpt>
      <trkpt lat="43.58744" lon="1.33727">
        <ele>152.8</ele>
        <time>2024-07-09T16:15:49Z</time>
      </trkpt>
      <trkpt lat="43.58749" lon="1.33735">
        <ele>152.8</ele>
        <time>2024-07-09T16:15:50Z</time>
      </trkpt>
      <trkpt lat="43.58753" lon="1.33745">
        <ele>152.8</ele>
        <time>2024-07-09T16:15:51Z</time>
      </trkpt>
      <trkpt lat="43.58757" lon="1.33753">
        <ele>152.8</ele>
        <time>2024-07-09T16:15:52Z</time>
      </trkpt>
      <trkpt lat="43.58761" lon="1.3376">
        <ele>152.8</ele>
        <time>2024-07-09T16:15:53Z</time>
      </trkpt>
      <trkpt lat="43.58764" lon="1.33767">
        <ele>152.8</ele>
        <time>2024-07-09T16:15:54Z</time>
      </trkpt>
      <trkpt lat="43.58768" lon="1.33774">
        <ele>153</ele>
        <time>2024-07-09T16:15:55Z</time>
      </trkpt>
      <trkpt lat="43.58774" lon="1.33782">
        <ele>153</ele>
        <time>2024-07-09T16:15:56Z</time>
      </trkpt>
      <trkpt lat="43.58778" lon="1.33787">
        <ele>153</ele>
        <time>2024-07-09T16:15:57Z</time>
      </trkpt>
      <trkpt lat="43.58783" lon="1.33793">
        <ele>153</ele>
        <time>2024-07-09T16:15:58Z</time>
      </trkpt>
      <trkpt lat="43.58787" lon="1.338">
        <ele>153.2</ele>
        <time>2024-07-09T16:15:59Z</time>
      </trkpt>
      <trkpt lat="43.58789" lon="1.33807">
        <ele>153.2</ele>
        <time>2024-07-09T16:16:00Z</time>
      </trkpt>
      <trkpt lat="43.58789" lon="1.33815">
        <ele>153.2</ele>
        <time>2024-07-09T16:16:01Z</time>
      </trkpt>
      <trkpt lat="43.58789" lon="1.33825">
        <ele>153.2</ele>
        <time>2024-07-09T16:16:02Z</time>
      </trkpt>
      <trkpt lat="43.58791" lon="1.3383">
        <ele>153.2</ele>
        <time>2024-07-09T16:16:03Z</time>
      </trkpt>
      <trkpt lat="43.58795" lon="1.33836">
        <ele>153.2</ele>
        <time>2024-07-09T16:16:04Z</time>
      </trkpt>
      <trkpt lat="43.588" lon="1.33839">
        <ele>153.2</ele>
        <time>2024-07-09T16:16:05Z</time>
      </trkpt>
      <trkpt lat="43.58806" lon="1.33838">
        <ele>153.2</ele>
        <time>2024-07-09T16:16:06Z</time>
      </trkpt>
      <trkpt lat="43.58812" lon="1.33837">
        <ele>153.2</ele>
        <time>2024-07-09T16:16:07Z</time>
      </trkpt>
      <trkpt lat="43.58817" lon="1.33837">
        <ele>153.2</ele>
        <time>2024-07-09T16:16:08Z</time>
      </trkpt>
      <trkpt lat="43.58823" lon="1.3384">
        <ele>153.2</ele>
        <time>2024-07-09T16:16:09Z</time>
      </trkpt>
      <trkpt lat="43.58829" lon="1.33845">
        <ele>153.2</ele>
        <time>2024-07-09T16:16:10Z</time>
      </trkpt>
      <trkpt lat="43.58834" lon="1.33851">
        <ele>153.2</ele>
        <time>2024-07-09T16:16:11Z</time>
      </trkpt>
      <trkpt lat="43.5884" lon="1.33857">
        <ele>153.2</ele>
        <time>2024-07-09T16:16:12Z</time>
      </trkpt>
      <trkpt lat="43.58844" lon="1.33862">
        <ele>153.2</ele>
        <time>2024-07-09T16:16:13Z</time>
      </trkpt>
      <trkpt lat="43.58849" lon="1.33868">
        <ele>153</ele>
        <time>2024-07-09T16:16:14Z</time>
      </trkpt>
      <trkpt lat="43.58854" lon="1.33874">
        <ele>153</ele>
        <time>2024-07-09T16:16:15Z</time>
      </trkpt>
      <trkpt lat="43.5886" lon="1.33881">
        <ele>153</ele>
        <time>2024-07-09T16:16:16Z</time>
      </trkpt>
      <trkpt lat="43.58864" lon="1.33886">
        <ele>152.8</ele>
        <time>2024-07-09T16:16:17Z</time>
      </trkpt>
      <trkpt lat="43.58869" lon="1.33891">
        <ele>152.8</ele>
        <time>2024-07-09T16:16:18Z</time>
      </trkpt>
      <trkpt lat="43.58872" lon="1.33899">
        <ele>152.8</ele>
        <time>2024-07-09T16:16:19Z</time>
      </trkpt>
      <trkpt lat="43.58872" lon="1.33905">
        <ele>152.8</ele>
        <time>2024-07-09T16:16:20Z</time>
      </trkpt>
      <trkpt lat="43.58873" lon="1.33913">
        <ele>152.8</ele>
        <time>2024-07-09T16:16:21Z</time>
      </trkpt>
      <trkpt lat="43.58874" lon="1.33919">
        <ele>152.8</ele>
        <time>2024-07-09T16:16:22Z</time>
      </trkpt>
      <trkpt lat="43.58878" lon="1.33924">
        <ele>152.8</ele>
        <time>2024-07-09T16:16:23Z</time>
      </trkpt>
      <trkpt lat="43.58883" lon="1.33925">
        <ele>152.8</ele>
        <time>2024-07-09T16:16:24Z</time>
      </trkpt>
      <trkpt lat="43.58888" lon="1.33926">
        <ele>152.6</ele>
        <time>2024-07-09T16:16:25Z</time>
      </trkpt>
      <trkpt lat="43.58893" lon="1.33926">
        <ele>152.6</ele>
        <time>2024-07-09T16:16:26Z</time>
      </trkpt>
      <trkpt lat="43.58899" lon="1.33928">
        <ele>152.6</ele>
        <time>2024-07-09T16:16:27Z</time>
      </trkpt>
      <trkpt lat="43.58904" lon="1.33932">
        <ele>152.8</ele>
        <time>2024-07-09T16:16:28Z</time>
      </trkpt>
      <trkpt lat="43.58908" lon="1.33938">
        <ele>152.8</ele>
        <time>2024-07-09T16:16:29Z</time>
      </trkpt>
      <trkpt lat="43.58913" lon="1.33943">
        <ele>152.8</ele>
        <time>2024-07-09T16:16:30Z</time>
      </trkpt>
      <trkpt lat="43.58918" lon="1.33949">
        <ele>152.6</ele>
        <time>2024-07-09T16:16:31Z</time>
      </trkpt>
      <trkpt lat="43.58922" lon="1.33954">
        <ele>152.6</ele>
        <time>2024-07-09T16:16:32Z</time>
      </trkpt>
      <trkpt lat="43.58927" lon="1.3396">
        <ele>152.8</ele>
        <time>2024-07-09T16:16:33Z</time>
      </trkpt>
      <trkpt lat="43.58932" lon="1.33966">
        <ele>152.8</ele>
        <time>2024-07-09T16:16:34Z</time>
      </trkpt>
      <trkpt lat="43.58936" lon="1.33972">
        <ele>153</ele>
        <time>2024-07-09T16:16:35Z</time>
      </trkpt>
      <trkpt lat="43.58942" lon="1.33977">
        <ele>153</ele>
        <time>2024-07-09T16:16:36Z</time>
      </trkpt>
      <trkpt lat="43.58947" lon="1.33982">
        <ele>153</ele>
        <time>2024-07-09T16:16:37Z</time>
      </trkpt>
      <trkpt lat="43.58952" lon="1.33988">
        <ele>153</ele>
        <time>2024-07-09T16:16:38Z</time>
      </trkpt>
      <trkpt lat="43.58957" lon="1.33994">
        <ele>153</ele>
        <time>2024-07-09T16:16:39Z</time>
      </trkpt>
      <trkpt lat="43.58962" lon="1.34">
        <ele>153</ele>
        <time>2024-07-09T16:16:40Z</time>
      </trkpt>
      <trkpt lat="43.58966" lon="1.34005">
        <ele>153</ele>
        <time>2024-07-09T16:16:41Z</time>
      </trkpt>
      <trkpt lat="43.58973" lon="1.34013">
        <ele>153</ele>
        <time>2024-07-09T16:16:42Z</time>
      </trkpt>
      <trkpt lat="43.58978" lon="1.34019">
        <ele>153</ele>
        <time>2024-07-09T16:16:43Z</time>
      </trkpt>
      <trkpt lat="43.58984" lon="1.34025">
        <ele>153</ele>
        <time>2024-07-09T16:16:44Z</time>
      </trkpt>
      <trkpt lat="43.58989" lon="1.34031">
        <ele>153</ele>
        <time>2024-07-09T16:16:45Z</time>
      </trkpt>
      <trkpt lat="43.58994" lon="1.34036">
        <ele>153</ele>
        <time>2024-07-09T16:16:46Z</time>
      </trkpt>
      <trkpt lat="43.59" lon="1.34044">
        <ele>153</ele>
        <time>2024-07-09T16:16:47Z</time>
      </trkpt>
      <trkpt lat="43.59006" lon="1.3405">
        <ele>153</ele>
        <time>2024-07-09T16:16:48Z</time>
      </trkpt>
      <trkpt lat="43.59011" lon="1.34056">
        <ele>153</ele>
        <time>2024-07-09T16:16:49Z</time>
      </trkpt>
      <trkpt lat="43.59016" lon="1.34062">
        <ele>153</ele>
        <time>2024-07-09T16:16:50Z</time>
      </trkpt>
      <trkpt lat="43.59021" lon="1.34067">
        <ele>153</ele>
        <time>2024-07-09T16:16:51Z</time>
      </trkpt>
      <trkpt lat="43.59025" lon="1.34073">
        <ele>153</ele>
        <time>2024-07-09T16:16:52Z</time>
      </trkpt>
      <trkpt lat="43.59029" lon="1.34078">
        <ele>153</ele>
        <time>2024-07-09T16:16:53Z</time>
      </trkpt>
      <trkpt lat="43.59033" lon="1.34081">
        <ele>153</ele>
        <time>2024-07-09T16:16:54Z</time>
      </trkpt>
      <trkpt lat="43.59037" lon="1.34083">
        <ele>153</ele>
        <time>2024-07-09T16:16:55Z</time>
      </trkpt>
      <trkpt lat="43.5904" lon="1.34082">
        <ele>153</ele>
        <time>2024-07-09T16:16:56Z</time>
      </trkpt>
      <trkpt lat="43.59044" lon="1.3408">
        <ele>153</ele>
        <time>2024-07-09T16:16:57Z</time>
      </trkpt>
      <trkpt lat="43.59048" lon="1.34078">
        <ele>153</ele>
        <time>2024-07-09T16:16:58Z</time>
      </trkpt>
      <trkpt lat="43.59053" lon="1.34076">
        <ele>153</ele>
        <time>2024-07-09T16:16:59Z</time>
      </trkpt>
      <trkpt lat="43.59057" lon="1.34075">
        <ele>153</ele>
        <time>2024-07-09T16:17:00Z</time>
      </trkpt>
      <trkpt lat="43.5906" lon="1.34073">
        <ele>153</ele>
        <time>2024-07-09T16:17:01Z</time>
      </trkpt>
      <trkpt lat="43.59064" lon="1.34068">
        <ele>153</ele>
        <time>2024-07-09T16:17:02Z</time>
      </trkpt>
      <trkpt lat="43.59068" lon="1.34063">
        <ele>153</ele>
        <time>2024-07-09T16:17:03Z</time>
      </trkpt>
      <trkpt lat="43.59071" lon="1.34057">
        <ele>153</ele>
        <time>2024-07-09T16:17:04Z</time>
      </trkpt>
      <trkpt lat="43.59074" lon="1.34052">
        <ele>153</ele>
        <time>2024-07-09T16:17:05Z</time>
      </trkpt>
      <trkpt lat="43.59078" lon="1.34045">
        <ele>153</ele>
        <time>2024-07-09T16:17:06Z</time>
      </trkpt>
      <trkpt lat="43.59082" lon="1.34038">
        <ele>153</ele>
        <time>2024-07-09T16:17:07Z</time>
      </trkpt>
      <trkpt lat="43.59086" lon="1.34031">
        <ele>153</ele>
        <time>2024-07-09T16:17:08Z</time>
      </trkpt>
      <trkpt lat="43.5909" lon="1.34024">
        <ele>153</ele>
        <time>2024-07-09T16:17:09Z</time>
      </trkpt>
      <trkpt lat="43.59093" lon="1.34018">
        <ele>153</ele>
        <time>2024-07-09T16:17:10Z</time>
      </trkpt>
      <trkpt lat="43.59097" lon="1.34013">
        <ele>153</ele>
        <time>2024-07-09T16:17:11Z</time>
      </trkpt>
      <trkpt lat="43.59101" lon="1.34006">
        <ele>153</ele>
        <time>2024-07-09T16:17:12Z</time>
      </trkpt>
      <trkpt lat="43.59106" lon="1.33999">
        <ele>153</ele>
        <time>2024-07-09T16:17:13Z</time>
      </trkpt>
      <trkpt lat="43.5911" lon="1.33993">
        <ele>153.2</ele>
        <time>2024-07-09T16:17:14Z</time>
      </trkpt>
      <trkpt lat="43.59113" lon="1.33987">
        <ele>153.2</ele>
        <time>2024-07-09T16:17:15Z</time>
      </trkpt>
      <trkpt lat="43.59117" lon="1.3398">
        <ele>153.2</ele>
        <time>2024-07-09T16:17:16Z</time>
      </trkpt>
      <trkpt lat="43.59121" lon="1.33974">
        <ele>153.4</ele>
        <time>2024-07-09T16:17:17Z</time>
      </trkpt>
      <trkpt lat="43.59124" lon="1.33967">
        <ele>153.4</ele>
        <time>2024-07-09T16:17:18Z</time>
      </trkpt>
      <trkpt lat="43.59128" lon="1.3396">
        <ele>153.4</ele>
        <time>2024-07-09T16:17:19Z</time>
      </trkpt>
      <trkpt lat="43.59132" lon="1.33956">
        <ele>153.4</ele>
        <time>2024-07-09T16:17:20Z</time>
      </trkpt>
      <trkpt lat="43.59137" lon="1.33948">
        <ele>153.4</ele>
        <time>2024-07-09T16:17:21Z</time>
      </trkpt>
      <trkpt lat="43.59141" lon="1.33942">
        <ele>153.4</ele>
        <time>2024-07-09T16:17:22Z</time>
      </trkpt>
      <trkpt lat="43.59145" lon="1.33936">
        <ele>153.4</ele>
        <time>2024-07-09T16:17:23Z</time>
      </trkpt>
      <trkpt lat="43.59148" lon="1.33931">
        <ele>153.6</ele>
        <time>2024-07-09T16:17:24Z</time>
      </trkpt>
      <trkpt lat="43.59152" lon="1.33925">
        <ele>153.6</ele>
        <time>2024-07-09T16:17:25Z</time>
      </trkpt>
      <trkpt lat="43.59157" lon="1.33917">
        <ele>153.6</ele>
        <time>2024-07-09T16:17:26Z</time>
      </trkpt>
      <trkpt lat="43.59161" lon="1.33911">
        <ele>153.6</ele>
        <time>2024-07-09T16:17:27Z</time>
      </trkpt>
      <trkpt lat="43.59165" lon="1.33905">
        <ele>153.8</ele>
        <time>2024-07-09T16:17:28Z</time>
      </trkpt>
      <trkpt lat="43.59168" lon="1.339">
        <ele>153.8</ele>
        <time>2024-07-09T16:17:29Z</time>
      </trkpt>
      <trkpt lat="43.59171" lon="1.33894">
        <ele>154</ele>
        <time>2024-07-09T16:17:30Z</time>
      </trkpt>
      <trkpt lat="43.59176" lon="1.33887">
        <ele>154.2</ele>
        <time>2024-07-09T16:17:31Z</time>
      </trkpt>
      <trkpt lat="43.59179" lon="1.33881">
        <ele>154.2</ele>
        <time>2024-07-09T16:17:32Z</time>
      </trkpt>
      <trkpt lat="43.59183" lon="1.33876">
        <ele>154.4</ele>
        <time>2024-07-09T16:17:33Z</time>
      </trkpt>
      <trkpt lat="43.59187" lon="1.3387">
        <ele>154.4</ele>
        <time>2024-07-09T16:17:34Z</time>
      </trkpt>
      <trkpt lat="43.5919" lon="1.33864">
        <ele>154.4</ele>
        <time>2024-07-09T16:17:35Z</time>
      </trkpt>
      <trkpt lat="43.59193" lon="1.3386">
        <ele>154.6</ele>
        <time>2024-07-09T16:17:36Z</time>
      </trkpt>
      <trkpt lat="43.59197" lon="1.33853">
        <ele>154.6</ele>
        <time>2024-07-09T16:17:37Z</time>
      </trkpt>
      <trkpt lat="43.59201" lon="1.33848">
        <ele>154.8</ele>
        <time>2024-07-09T16:17:38Z</time>
      </trkpt>
      <trkpt lat="43.59204" lon="1.33842">
        <ele>155</ele>
        <time>2024-07-09T16:17:39Z</time>
      </trkpt>
      <trkpt lat="43.59207" lon="1.33837">
        <ele>155.2</ele>
        <time>2024-07-09T16:17:40Z</time>
      </trkpt>
      <trkpt lat="43.59211" lon="1.33832">
        <ele>155.2</ele>
        <time>2024-07-09T16:17:41Z</time>
      </trkpt>
      <trkpt lat="43.59214" lon="1.33826">
        <ele>155.4</ele>
        <time>2024-07-09T16:17:42Z</time>
      </trkpt>
      <trkpt lat="43.59217" lon="1.33821">
        <ele>155.4</ele>
        <time>2024-07-09T16:17:43Z</time>
      </trkpt>
      <trkpt lat="43.59221" lon="1.33815">
        <ele>155.6</ele>
        <time>2024-07-09T16:17:44Z</time>
      </trkpt>
      <trkpt lat="43.59224" lon="1.33809">
        <ele>155.8</ele>
        <time>2024-07-09T16:17:45Z</time>
      </trkpt>
      <trkpt lat="43.59228" lon="1.33804">
        <ele>156</ele>
        <time>2024-07-09T16:17:46Z</time>
      </trkpt>
      <trkpt lat="43.59231" lon="1.33798">
        <ele>156.2</ele>
        <time>2024-07-09T16:17:47Z</time>
      </trkpt>
      <trkpt lat="43.59234" lon="1.33793">
        <ele>156.4</ele>
        <time>2024-07-09T16:17:48Z</time>
      </trkpt>
      <trkpt lat="43.59236" lon="1.33788">
        <ele>156.4</ele>
        <time>2024-07-09T16:17:49Z</time>
      </trkpt>
      <trkpt lat="43.5924" lon="1.33782">
        <ele>156.6</ele>
        <time>2024-07-09T16:17:50Z</time>
      </trkpt>
      <trkpt lat="43.59242" lon="1.33776">
        <ele>156.6</ele>
        <time>2024-07-09T16:17:51Z</time>
      </trkpt>
      <trkpt lat="43.59244" lon="1.3377">
        <ele>157</ele>
        <time>2024-07-09T16:17:52Z</time>
      </trkpt>
      <trkpt lat="43.59245" lon="1.33765">
        <ele>157.4</ele>
        <time>2024-07-09T16:17:53Z</time>
      </trkpt>
      <trkpt lat="43.59247" lon="1.33759">
        <ele>157.6</ele>
        <time>2024-07-09T16:17:54Z</time>
      </trkpt>
      <trkpt lat="43.59247" lon="1.33754">
        <ele>157.8</ele>
        <time>2024-07-09T16:17:55Z</time>
      </trkpt>
      <trkpt lat="43.59249" lon="1.33746">
        <ele>157.8</ele>
        <time>2024-07-09T16:17:56Z</time>
      </trkpt>
      <trkpt lat="43.59249" lon="1.33739">
        <ele>158.2</ele>
        <time>2024-07-09T16:17:57Z</time>
      </trkpt>
      <trkpt lat="43.5925" lon="1.33733">
        <ele>158.4</ele>
        <time>2024-07-09T16:17:58Z</time>
      </trkpt>
      <trkpt lat="43.59251" lon="1.33727">
        <ele>158.4</ele>
        <time>2024-07-09T16:17:59Z</time>
      </trkpt>
      <trkpt lat="43.59251" lon="1.33723">
        <ele>158.8</ele>
        <time>2024-07-09T16:18:00Z</time>
      </trkpt>
      <trkpt lat="43.59252" lon="1.33716">
        <ele>158.8</ele>
        <time>2024-07-09T16:18:01Z</time>
      </trkpt>
      <trkpt lat="43.59253" lon="1.33711">
        <ele>159</ele>
        <time>2024-07-09T16:18:02Z</time>
      </trkpt>
      <trkpt lat="43.59253" lon="1.33705">
        <ele>159</ele>
        <time>2024-07-09T16:18:03Z</time>
      </trkpt>
      <trkpt lat="43.59254" lon="1.33699">
        <ele>159.2</ele>
        <time>2024-07-09T16:18:04Z</time>
      </trkpt>
      <trkpt lat="43.59254" lon="1.33693">
        <ele>159.4</ele>
        <time>2024-07-09T16:18:05Z</time>
      </trkpt>
      <trkpt lat="43.59255" lon="1.33687">
        <ele>159.6</ele>
        <time>2024-07-09T16:18:06Z</time>
      </trkpt>
      <trkpt lat="43.59256" lon="1.33682">
        <ele>159.8</ele>
        <time>2024-07-09T16:18:07Z</time>
      </trkpt>
      <trkpt lat="43.59256" lon="1.33677">
        <ele>160</ele>
        <time>2024-07-09T16:18:08Z</time>
      </trkpt>
      <trkpt lat="43.59257" lon="1.33671">
        <ele>160.2</ele>
        <time>2024-07-09T16:18:09Z</time>
      </trkpt>
      <trkpt lat="43.59257" lon="1.33665">
        <ele>160.6</ele>
        <time>2024-07-09T16:18:10Z</time>
      </trkpt>
      <trkpt lat="43.59257" lon="1.3366">
        <ele>160.8</ele>
        <time>2024-07-09T16:18:11Z</time>
      </trkpt>
      <trkpt lat="43.59258" lon="1.33654">
        <ele>161</ele>
        <time>2024-07-09T16:18:12Z</time>
      </trkpt>
      <trkpt lat="43.59258" lon="1.33648">
        <ele>161.2</ele>
        <time>2024-07-09T16:18:13Z</time>
      </trkpt>
      <trkpt lat="43.59259" lon="1.33643">
        <ele>161.4</ele>
        <time>2024-07-09T16:18:14Z</time>
      </trkpt>
      <trkpt lat="43.59259" lon="1.33638">
        <ele>161.6</ele>
        <time>2024-07-09T16:18:15Z</time>
      </trkpt>
      <trkpt lat="43.59259" lon="1.33632">
        <ele>161.4</ele>
        <time>2024-07-09T16:18:16Z</time>
      </trkpt>
      <trkpt lat="43.59259" lon="1.33626">
        <ele>161.6</ele>
        <time>2024-07-09T16:18:17Z</time>
      </trkpt>
      <trkpt lat="43.59259" lon="1.33621">
        <ele>162</ele>
        <time>2024-07-09T16:18:18Z</time>
      </trkpt>
      <trkpt lat="43.59258" lon="1.33616">
        <ele>162.2</ele>
        <time>2024-07-09T16:18:19Z</time>
      </trkpt>
      <trkpt lat="43.59257" lon="1.33611">
        <ele>162.4</ele>
        <time>2024-07-09T16:18:20Z</time>
      </trkpt>
      <trkpt lat="43.59256" lon="1.33604">
        <ele>162.8</ele>
        <time>2024-07-09T16:18:21Z</time>
      </trkpt>
      <trkpt lat="43.59255" lon="1.33598">
        <ele>163</ele>
        <time>2024-07-09T16:18:22Z</time>
      </trkpt>
      <trkpt lat="43.59254" lon="1.33593">
        <ele>163.2</ele>
        <time>2024-07-09T16:18:23Z</time>
      </trkpt>
      <trkpt lat="43.59253" lon="1.33587">
        <ele>163.6</ele>
        <time>2024-07-09T16:18:24Z</time>
      </trkpt>
      <trkpt lat="43.59252" lon="1.3358">
        <ele>163.8</ele>
        <time>2024-07-09T16:18:25Z</time>
      </trkpt>
      <trkpt lat="43.59252" lon="1.33575">
        <ele>164</ele>
        <time>2024-07-09T16:18:26Z</time>
      </trkpt>
      <trkpt lat="43.59251" lon="1.3357">
        <ele>164.2</ele>
        <time>2024-07-09T16:18:27Z</time>
      </trkpt>
      <trkpt lat="43.5925" lon="1.33566">
        <ele>164.2</ele>
        <time>2024-07-09T16:18:28Z</time>
      </trkpt>
      <trkpt lat="43.59249" lon="1.33561">
        <ele>164.4</ele>
        <time>2024-07-09T16:18:29Z</time>
      </trkpt>
      <trkpt lat="43.59247" lon="1.33555">
        <ele>164.6</ele>
        <time>2024-07-09T16:18:30Z</time>
      </trkpt>
      <trkpt lat="43.59245" lon="1.3355">
        <ele>165</ele>
        <time>2024-07-09T16:18:31Z</time>
      </trkpt>
      <trkpt lat="43.59245" lon="1.33544">
        <ele>165.2</ele>
        <time>2024-07-09T16:18:32Z</time>
      </trkpt>
      <trkpt lat="43.59244" lon="1.33539">
        <ele>165.4</ele>
        <time>2024-07-09T16:18:33Z</time>
      </trkpt>
      <trkpt lat="43.59243" lon="1.33532">
        <ele>165.6</ele>
        <time>2024-07-09T16:18:34Z</time>
      </trkpt>
      <trkpt lat="43.59241" lon="1.33525">
        <ele>165.8</ele>
        <time>2024-07-09T16:18:35Z</time>
      </trkpt>
      <trkpt lat="43.59239" lon="1.3352">
        <ele>166.2</ele>
        <time>2024-07-09T16:18:36Z</time>
      </trkpt>
      <trkpt lat="43.59237" lon="1.33514">
        <ele>166.2</ele>
        <time>2024-07-09T16:18:37Z</time>
      </trkpt>
      <trkpt lat="43.59236" lon="1.33507">
        <ele>166.6</ele>
        <time>2024-07-09T16:18:38Z</time>
      </trkpt>
      <trkpt lat="43.59234" lon="1.33502">
        <ele>167</ele>
        <time>2024-07-09T16:18:39Z</time>
      </trkpt>
      <trkpt lat="43.59232" lon="1.33494">
        <ele>167</ele>
        <time>2024-07-09T16:18:40Z</time>
      </trkpt>
      <trkpt lat="43.59229" lon="1.33488">
        <ele>167.4</ele>
        <time>2024-07-09T16:18:41Z</time>
      </trkpt>
      <trkpt lat="43.59227" lon="1.33482">
        <ele>167.6</ele>
        <time>2024-07-09T16:18:42Z</time>
      </trkpt>
      <trkpt lat="43.59225" lon="1.33478">
        <ele>168</ele>
        <time>2024-07-09T16:18:43Z</time>
      </trkpt>
      <trkpt lat="43.59223" lon="1.33472">
        <ele>168.2</ele>
        <time>2024-07-09T16:18:44Z</time>
      </trkpt>
      <trkpt lat="43.59221" lon="1.33466">
        <ele>168.2</ele>
        <time>2024-07-09T16:18:45Z</time>
      </trkpt>
      <trkpt lat="43.59218" lon="1.3346">
        <ele>168.2</ele>
        <time>2024-07-09T16:18:46Z</time>
      </trkpt>
      <trkpt lat="43.59216" lon="1.33453">
        <ele>168.4</ele>
        <time>2024-07-09T16:18:47Z</time>
      </trkpt>
      <trkpt lat="43.59214" lon="1.33449">
        <ele>168.4</ele>
        <time>2024-07-09T16:18:48Z</time>
      </trkpt>
      <trkpt lat="43.59212" lon="1.33444">
        <ele>168.6</ele>
        <time>2024-07-09T16:18:49Z</time>
      </trkpt>
      <trkpt lat="43.5921" lon="1.33439">
        <ele>168.6</ele>
        <time>2024-07-09T16:18:50Z</time>
      </trkpt>
      <trkpt lat="43.59207" lon="1.33432">
        <ele>168.4</ele>
        <time>2024-07-09T16:18:51Z</time>
      </trkpt>
      <trkpt lat="43.59205" lon="1.33427">
        <ele>168.6</ele>
        <time>2024-07-09T16:18:52Z</time>
      </trkpt>
      <trkpt lat="43.59204" lon="1.33423">
        <ele>168.8</ele>
        <time>2024-07-09T16:18:53Z</time>
      </trkpt>
      <trkpt lat="43.59202" lon="1.33417">
        <ele>168.8</ele>
        <time>2024-07-09T16:18:54Z</time>
      </trkpt>
      <trkpt lat="43.592" lon="1.33411">
        <ele>168.8</ele>
        <time>2024-07-09T16:18:55Z</time>
      </trkpt>
      <trkpt lat="43.59199" lon="1.33405">
        <ele>169</ele>
        <time>2024-07-09T16:18:56Z</time>
      </trkpt>
      <trkpt lat="43.59198" lon="1.334">
        <ele>169</ele>
        <time>2024-07-09T16:18:57Z</time>
      </trkpt>
      <trkpt lat="43.59197" lon="1.33395">
        <ele>169.2</ele>
        <time>2024-07-09T16:18:58Z</time>
      </trkpt>
      <trkpt lat="43.59196" lon="1.3339">
        <ele>169.2</ele>
        <time>2024-07-09T16:18:59Z</time>
      </trkpt>
      <trkpt lat="43.59194" lon="1.33384">
        <ele>169.2</ele>
        <time>2024-07-09T16:19:00Z</time>
      </trkpt>
      <trkpt lat="43.59194" lon="1.33378">
        <ele>169.4</ele>
        <time>2024-07-09T16:19:01Z</time>
      </trkpt>
      <trkpt lat="43.59193" lon="1.33372">
        <ele>169.4</ele>
        <time>2024-07-09T16:19:02Z</time>
      </trkpt>
      <trkpt lat="43.59192" lon="1.33368">
        <ele>169.6</ele>
        <time>2024-07-09T16:19:03Z</time>
      </trkpt>
      <trkpt lat="43.59192" lon="1.33362">
        <ele>169.8</ele>
        <time>2024-07-09T16:19:04Z</time>
      </trkpt>
      <trkpt lat="43.59191" lon="1.33356">
        <ele>169.8</ele>
        <time>2024-07-09T16:19:05Z</time>
      </trkpt>
      <trkpt lat="43.5919" lon="1.33351">
        <ele>170</ele>
        <time>2024-07-09T16:19:06Z</time>
      </trkpt>
      <trkpt lat="43.59189" lon="1.33346">
        <ele>170.2</ele>
        <time>2024-07-09T16:19:07Z</time>
      </trkpt>
      <trkpt lat="43.59189" lon="1.33342">
        <ele>170.4</ele>
        <time>2024-07-09T16:19:08Z</time>
      </trkpt>
      <trkpt lat="43.59188" lon="1.33336">
        <ele>170.6</ele>
        <time>2024-07-09T16:19:09Z</time>
      </trkpt>
      <trkpt lat="43.59187" lon="1.33327">
        <ele>170.6</ele>
        <time>2024-07-09T16:19:10Z</time>
      </trkpt>
      <trkpt lat="43.59187" lon="1.3332">
        <ele>170.6</ele>
        <time>2024-07-09T16:19:11Z</time>
      </trkpt>
      <trkpt lat="43.59186" lon="1.33314">
        <ele>170.8</ele>
        <time>2024-07-09T16:19:12Z</time>
      </trkpt>
      <trkpt lat="43.59186" lon="1.33308">
        <ele>170.8</ele>
        <time>2024-07-09T16:19:13Z</time>
      </trkpt>
      <trkpt lat="43.59185" lon="1.33302">
        <ele>171</ele>
        <time>2024-07-09T16:19:14Z</time>
      </trkpt>
      <trkpt lat="43.59184" lon="1.33295">
        <ele>171</ele>
        <time>2024-07-09T16:19:15Z</time>
      </trkpt>
      <trkpt lat="43.59183" lon="1.33289">
        <ele>171</ele>
        <time>2024-07-09T16:19:16Z</time>
      </trkpt>
      <trkpt lat="43.59182" lon="1.33283">
        <ele>171</ele>
        <time>2024-07-09T16:19:17Z</time>
      </trkpt>
      <trkpt lat="43.59181" lon="1.33276">
        <ele>171.2</ele>
        <time>2024-07-09T16:19:18Z</time>
      </trkpt>
      <trkpt lat="43.59181" lon="1.33271">
        <ele>171.4</ele>
        <time>2024-07-09T16:19:19Z</time>
      </trkpt>
      <trkpt lat="43.5918" lon="1.33263">
        <ele>171.6</ele>
        <time>2024-07-09T16:19:20Z</time>
      </trkpt>
      <trkpt lat="43.59178" lon="1.33256">
        <ele>171.8</ele>
        <time>2024-07-09T16:19:21Z</time>
      </trkpt>
      <trkpt lat="43.59177" lon="1.33251">
        <ele>172</ele>
        <time>2024-07-09T16:19:22Z</time>
      </trkpt>
      <trkpt lat="43.59177" lon="1.33245">
        <ele>172</ele>
        <time>2024-07-09T16:19:23Z</time>
      </trkpt>
      <trkpt lat="43.59176" lon="1.33238">
        <ele>172</ele>
        <time>2024-07-09T16:19:24Z</time>
      </trkpt>
      <trkpt lat="43.59176" lon="1.33231">
        <ele>172.2</ele>
        <time>2024-07-09T16:19:25Z</time>
      </trkpt>
      <trkpt lat="43.59175" lon="1.33223">
        <ele>172.4</ele>
        <time>2024-07-09T16:19:26Z</time>
      </trkpt>
      <trkpt lat="43.59175" lon="1.33217">
        <ele>172.6</ele>
        <time>2024-07-09T16:19:27Z</time>
      </trkpt>
      <trkpt lat="43.59174" lon="1.33211">
        <ele>172.6</ele>
        <time>2024-07-09T16:19:28Z</time>
      </trkpt>
      <trkpt lat="43.59175" lon="1.33204">
        <ele>172.8</ele>
        <time>2024-07-09T16:19:29Z</time>
      </trkpt>
      <trkpt lat="43.59177" lon="1.33198">
        <ele>172.8</ele>
        <time>2024-07-09T16:19:30Z</time>
      </trkpt>
      <trkpt lat="43.59178" lon="1.3319">
        <ele>172.8</ele>
        <time>2024-07-09T16:19:31Z</time>
      </trkpt>
      <trkpt lat="43.59178" lon="1.33184">
        <ele>172.8</ele>
        <time>2024-07-09T16:19:32Z</time>
      </trkpt>
      <trkpt lat="43.59179" lon="1.33179">
        <ele>173</ele>
        <time>2024-07-09T16:19:33Z</time>
      </trkpt>
      <trkpt lat="43.5918" lon="1.33173">
        <ele>173.2</ele>
        <time>2024-07-09T16:19:34Z</time>
      </trkpt>
      <trkpt lat="43.59182" lon="1.33164">
        <ele>173.6</ele>
        <time>2024-07-09T16:19:35Z</time>
      </trkpt>
      <trkpt lat="43.59183" lon="1.33159">
        <ele>173.8</ele>
        <time>2024-07-09T16:19:36Z</time>
      </trkpt>
      <trkpt lat="43.59185" lon="1.33153">
        <ele>174.2</ele>
        <time>2024-07-09T16:19:37Z</time>
      </trkpt>
      <trkpt lat="43.59185" lon="1.33145">
        <ele>174.2</ele>
        <time>2024-07-09T16:19:38Z</time>
      </trkpt>
      <trkpt lat="43.59186" lon="1.33138">
        <ele>174.4</ele>
        <time>2024-07-09T16:19:39Z</time>
      </trkpt>
      <trkpt lat="43.59187" lon="1.3313">
        <ele>174.4</ele>
        <time>2024-07-09T16:19:40Z</time>
      </trkpt>
      <trkpt lat="43.59188" lon="1.33123">
        <ele>174.4</ele>
        <time>2024-07-09T16:19:41Z</time>
      </trkpt>
      <trkpt lat="43.59188" lon="1.33117">
        <ele>174.6</ele>
        <time>2024-07-09T16:19:42Z</time>
      </trkpt>
      <trkpt lat="43.59189" lon="1.33109">
        <ele>174.6</ele>
        <time>2024-07-09T16:19:43Z</time>
      </trkpt>
      <trkpt lat="43.59189" lon="1.33102">
        <ele>174.8</ele>
        <time>2024-07-09T16:19:44Z</time>
      </trkpt>
      <trkpt lat="43.5919" lon="1.33095">
        <ele>174.8</ele>
        <time>2024-07-09T16:19:45Z</time>
      </trkpt>
      <trkpt lat="43.59191" lon="1.33088">
        <ele>175</ele>
        <time>2024-07-09T16:19:46Z</time>
      </trkpt>
      <trkpt lat="43.59191" lon="1.33082">
        <ele>175</ele>
        <time>2024-07-09T16:19:47Z</time>
      </trkpt>
      <trkpt lat="43.59192" lon="1.33075">
        <ele>175</ele>
        <time>2024-07-09T16:19:48Z</time>
      </trkpt>
      <trkpt lat="43.59193" lon="1.33065">
        <ele>175</ele>
        <time>2024-07-09T16:19:49Z</time>
      </trkpt>
      <trkpt lat="43.59194" lon="1.33058">
        <ele>175.2</ele>
        <time>2024-07-09T16:19:50Z</time>
      </trkpt>
      <trkpt lat="43.59195" lon="1.3305">
        <ele>175.2</ele>
        <time>2024-07-09T16:19:51Z</time>
      </trkpt>
      <trkpt lat="43.59196" lon="1.33045">
        <ele>175.2</ele>
        <time>2024-07-09T16:19:52Z</time>
      </trkpt>
      <trkpt lat="43.59197" lon="1.33037">
        <ele>175.4</ele>
        <time>2024-07-09T16:19:53Z</time>
      </trkpt>
      <trkpt lat="43.59199" lon="1.33028">
        <ele>175.4</ele>
        <time>2024-07-09T16:19:54Z</time>
      </trkpt>
      <trkpt lat="43.592" lon="1.33021">
        <ele>175.4</ele>
        <time>2024-07-09T16:19:55Z</time>
      </trkpt>
      <trkpt lat="43.59202" lon="1.33013">
        <ele>175.4</ele>
        <time>2024-07-09T16:19:56Z</time>
      </trkpt>
      <trkpt lat="43.59203" lon="1.33007">
        <ele>175.4</ele>
        <time>2024-07-09T16:19:57Z</time>
      </trkpt>
      <trkpt lat="43.59204" lon="1.32999">
        <ele>175.4</ele>
        <time>2024-07-09T16:19:58Z</time>
      </trkpt>
      <trkpt lat="43.59206" lon="1.3299">
        <ele>175.6</ele>
        <time>2024-07-09T16:19:59Z</time>
      </trkpt>
      <trkpt lat="43.59208" lon="1.32983">
        <ele>175.6</ele>
        <time>2024-07-09T16:20:00Z</time>
      </trkpt>
      <trkpt lat="43.5921" lon="1.32975">
        <ele>175.6</ele>
        <time>2024-07-09T16:20:01Z</time>
      </trkpt>
      <trkpt lat="43.5921" lon="1.32968">
        <ele>175.6</ele>
        <time>2024-07-09T16:20:02Z</time>
      </trkpt>
      <trkpt lat="43.5921" lon="1.3296">
        <ele>175.6</ele>
        <time>2024-07-09T16:20:03Z</time>
      </trkpt>
      <trkpt lat="43.59209" lon="1.32951">
        <ele>175.8</ele>
        <time>2024-07-09T16:20:04Z</time>
      </trkpt>
      <trkpt lat="43.59207" lon="1.32944">
        <ele>175.8</ele>
        <time>2024-07-09T16:20:05Z</time>
      </trkpt>
      <trkpt lat="43.59204" lon="1.32939">
        <ele>175.8</ele>
        <time>2024-07-09T16:20:06Z</time>
      </trkpt>
      <trkpt lat="43.592" lon="1.32933">
        <ele>175.8</ele>
        <time>2024-07-09T16:20:07Z</time>
      </trkpt>
      <trkpt lat="43.59195" lon="1.32928">
        <ele>176</ele>
        <time>2024-07-09T16:20:08Z</time>
      </trkpt>
      <trkpt lat="43.5919" lon="1.32924">
        <ele>176</ele>
        <time>2024-07-09T16:20:09Z</time>
      </trkpt>
      <trkpt lat="43.59185" lon="1.3292">
        <ele>176</ele>
        <time>2024-07-09T16:20:10Z</time>
      </trkpt>
      <trkpt lat="43.59181" lon="1.32917">
        <ele>176</ele>
        <time>2024-07-09T16:20:11Z</time>
      </trkpt>
      <trkpt lat="43.59176" lon="1.32914">
        <ele>176.2</ele>
        <time>2024-07-09T16:20:12Z</time>
      </trkpt>
      <trkpt lat="43.5917" lon="1.32909">
        <ele>176.2</ele>
        <time>2024-07-09T16:20:13Z</time>
      </trkpt>
      <trkpt lat="43.59165" lon="1.32905">
        <ele>176.2</ele>
        <time>2024-07-09T16:20:14Z</time>
      </trkpt>
      <trkpt lat="43.5916" lon="1.32901">
        <ele>176.2</ele>
        <time>2024-07-09T16:20:15Z</time>
      </trkpt>
      <trkpt lat="43.59155" lon="1.32897">
        <ele>176.4</ele>
        <time>2024-07-09T16:20:16Z</time>
      </trkpt>
      <trkpt lat="43.59151" lon="1.32894">
        <ele>176.4</ele>
        <time>2024-07-09T16:20:17Z</time>
      </trkpt>
      <trkpt lat="43.59145" lon="1.32891">
        <ele>176.4</ele>
        <time>2024-07-09T16:20:18Z</time>
      </trkpt>
      <trkpt lat="43.59139" lon="1.32888">
        <ele>176.4</ele>
        <time>2024-07-09T16:20:19Z</time>
      </trkpt>
      <trkpt lat="43.59134" lon="1.32887">
        <ele>176.6</ele>
        <time>2024-07-09T16:20:20Z</time>
      </trkpt>
      <trkpt lat="43.59129" lon="1.32885">
        <ele>176.6</ele>
        <time>2024-07-09T16:20:21Z</time>
      </trkpt>
      <trkpt lat="43.59126" lon="1.32883">
        <ele>176.6</ele>
        <time>2024-07-09T16:20:22Z</time>
      </trkpt>
      <trkpt lat="43.5912" lon="1.32879">
        <ele>176.8</ele>
        <time>2024-07-09T16:20:23Z</time>
      </trkpt>
      <trkpt lat="43.59116" lon="1.32876">
        <ele>176.8</ele>
        <time>2024-07-09T16:20:24Z</time>
      </trkpt>
      <trkpt lat="43.59111" lon="1.32872">
        <ele>176.8</ele>
        <time>2024-07-09T16:20:25Z</time>
      </trkpt>
      <trkpt lat="43.59107" lon="1.32869">
        <ele>176.8</ele>
        <time>2024-07-09T16:20:26Z</time>
      </trkpt>
      <trkpt lat="43.59102" lon="1.32866">
        <ele>176.8</ele>
        <time>2024-07-09T16:20:27Z</time>
      </trkpt>
      <trkpt lat="43.59096" lon="1.32862">
        <ele>176.8</ele>
        <time>2024-07-09T16:20:28Z</time>
      </trkpt>
      <trkpt lat="43.59091" lon="1.32858">
        <ele>176.8</ele>
        <time>2024-07-09T16:20:29Z</time>
      </trkpt>
      <trkpt lat="43.59087" lon="1.32855">
        <ele>176.8</ele>
        <time>2024-07-09T16:20:30Z</time>
      </trkpt>
      <trkpt lat="43.59082" lon="1.32852">
        <ele>176.8</ele>
        <time>2024-07-09T16:20:31Z</time>
      </trkpt>
      <trkpt lat="43.59075" lon="1.32847">
        <ele>176.8</ele>
        <time>2024-07-09T16:20:32Z</time>
      </trkpt>
      <trkpt lat="43.5907" lon="1.32843">
        <ele>176.8</ele>
        <time>2024-07-09T16:20:33Z</time>
      </trkpt>
      <trkpt lat="43.59065" lon="1.32839">
        <ele>176.8</ele>
        <time>2024-07-09T16:20:34Z</time>
      </trkpt>
      <trkpt lat="43.59061" lon="1.32835">
        <ele>177</ele>
        <time>2024-07-09T16:20:35Z</time>
      </trkpt>
      <trkpt lat="43.59056" lon="1.32831">
        <ele>177</ele>
        <time>2024-07-09T16:20:36Z</time>
      </trkpt>
      <trkpt lat="43.5905" lon="1.32826">
        <ele>177</ele>
        <time>2024-07-09T16:20:37Z</time>
      </trkpt>
      <trkpt lat="43.59045" lon="1.32822">
        <ele>177</ele>
        <time>2024-07-09T16:20:38Z</time>
      </trkpt>
      <trkpt lat="43.5904" lon="1.32819">
        <ele>177</ele>
        <time>2024-07-09T16:20:39Z</time>
      </trkpt>
      <trkpt lat="43.59036" lon="1.32816">
        <ele>177</ele>
        <time>2024-07-09T16:20:40Z</time>
      </trkpt>
      <trkpt lat="43.59032" lon="1.32812">
        <ele>177</ele>
        <time>2024-07-09T16:20:41Z</time>
      </trkpt>
      <trkpt lat="43.59026" lon="1.32808">
        <ele>177.2</ele>
        <time>2024-07-09T16:20:42Z</time>
      </trkpt>
      <trkpt lat="43.59021" lon="1.32805">
        <ele>177.2</ele>
        <time>2024-07-09T16:20:43Z</time>
      </trkpt>
      <trkpt lat="43.59016" lon="1.32801">
        <ele>177.2</ele>
        <time>2024-07-09T16:20:44Z</time>
      </trkpt>
      <trkpt lat="43.59012" lon="1.32798">
        <ele>177.4</ele>
        <time>2024-07-09T16:20:45Z</time>
      </trkpt>
      <trkpt lat="43.59006" lon="1.32793">
        <ele>177.4</ele>
        <time>2024-07-09T16:20:46Z</time>
      </trkpt>
      <trkpt lat="43.59002" lon="1.3279">
        <ele>177.4</ele>
        <time>2024-07-09T16:20:47Z</time>
      </trkpt>
      <trkpt lat="43.58995" lon="1.32785">
        <ele>177.4</ele>
        <time>2024-07-09T16:20:48Z</time>
      </trkpt>
      <trkpt lat="43.5899" lon="1.32782">
        <ele>177.4</ele>
        <time>2024-07-09T16:20:49Z</time>
      </trkpt>
      <trkpt lat="43.58986" lon="1.32779">
        <ele>177.4</ele>
        <time>2024-07-09T16:20:50Z</time>
      </trkpt>
      <trkpt lat="43.58981" lon="1.32775">
        <ele>177.6</ele>
        <time>2024-07-09T16:20:51Z</time>
      </trkpt>
      <trkpt lat="43.58975" lon="1.3277">
        <ele>177.6</ele>
        <time>2024-07-09T16:20:52Z</time>
      </trkpt>
      <trkpt lat="43.5897" lon="1.32766">
        <ele>177.6</ele>
        <time>2024-07-09T16:20:53Z</time>
      </trkpt>
      <trkpt lat="43.58965" lon="1.32762">
        <ele>177.6</ele>
        <time>2024-07-09T16:20:54Z</time>
      </trkpt>
      <trkpt lat="43.5896" lon="1.32758">
        <ele>177.6</ele>
        <time>2024-07-09T16:20:55Z</time>
      </trkpt>
      <trkpt lat="43.58954" lon="1.32754">
        <ele>177.6</ele>
        <time>2024-07-09T16:20:56Z</time>
      </trkpt>
      <trkpt lat="43.58949" lon="1.3275">
        <ele>177.6</ele>
        <time>2024-07-09T16:20:57Z</time>
      </trkpt>
      <trkpt lat="43.58943" lon="1.32747">
        <ele>177.6</ele>
        <time>2024-07-09T16:20:58Z</time>
      </trkpt>
      <trkpt lat="43.58939" lon="1.32744">
        <ele>177.6</ele>
        <time>2024-07-09T16:20:59Z</time>
      </trkpt>
      <trkpt lat="43.58932" lon="1.32739">
        <ele>177.6</ele>
        <time>2024-07-09T16:21:00Z</time>
      </trkpt>
      <trkpt lat="43.58928" lon="1.32736">
        <ele>177.6</ele>
        <time>2024-07-09T16:21:01Z</time>
      </trkpt>
      <trkpt lat="43.58923" lon="1.3273">
        <ele>177.6</ele>
        <time>2024-07-09T16:21:02Z</time>
      </trkpt>
      <trkpt lat="43.5892" lon="1.32723">
        <ele>177.6</ele>
        <time>2024-07-09T16:21:03Z</time>
      </trkpt>
      <trkpt lat="43.58919" lon="1.32717">
        <ele>177.8</ele>
        <time>2024-07-09T16:21:04Z</time>
      </trkpt>
      <trkpt lat="43.58919" lon="1.32709">
        <ele>177.8</ele>
        <time>2024-07-09T16:21:05Z</time>
      </trkpt>
      <trkpt lat="43.58919" lon="1.32701">
        <ele>177.8</ele>
        <time>2024-07-09T16:21:06Z</time>
      </trkpt>
      <trkpt lat="43.58921" lon="1.32694">
        <ele>177.8</ele>
        <time>2024-07-09T16:21:07Z</time>
      </trkpt>
      <trkpt lat="43.58924" lon="1.32687">
        <ele>177.8</ele>
        <time>2024-07-09T16:21:08Z</time>
      </trkpt>
      <trkpt lat="43.58926" lon="1.32681">
        <ele>178</ele>
        <time>2024-07-09T16:21:09Z</time>
      </trkpt>
      <trkpt lat="43.58928" lon="1.32673">
        <ele>178</ele>
        <time>2024-07-09T16:21:10Z</time>
      </trkpt>
      <trkpt lat="43.5893" lon="1.32664">
        <ele>178</ele>
        <time>2024-07-09T16:21:11Z</time>
      </trkpt>
      <trkpt lat="43.58933" lon="1.32656">
        <ele>178</ele>
        <time>2024-07-09T16:21:12Z</time>
      </trkpt>
      <trkpt lat="43.58935" lon="1.32647">
        <ele>178</ele>
        <time>2024-07-09T16:21:13Z</time>
      </trkpt>
      <trkpt lat="43.58937" lon="1.3264">
        <ele>178</ele>
        <time>2024-07-09T16:21:14Z</time>
      </trkpt>
      <trkpt lat="43.58939" lon="1.32632">
        <ele>178</ele>
        <time>2024-07-09T16:21:15Z</time>
      </trkpt>
      <trkpt lat="43.58942" lon="1.32622">
        <ele>178</ele>
        <time>2024-07-09T16:21:16Z</time>
      </trkpt>
      <trkpt lat="43.58944" lon="1.32613">
        <ele>178</ele>
        <time>2024-07-09T16:21:17Z</time>
      </trkpt>
      <trkpt lat="43.58946" lon="1.32606">
        <ele>178</ele>
        <time>2024-07-09T16:21:18Z</time>
      </trkpt>
      <trkpt lat="43.58948" lon="1.32598">
        <ele>177.8</ele>
        <time>2024-07-09T16:21:19Z</time>
      </trkpt>
      <trkpt lat="43.5895" lon="1.32588">
        <ele>177.8</ele>
        <time>2024-07-09T16:21:20Z</time>
      </trkpt>
      <trkpt lat="43.58953" lon="1.32579">
        <ele>177.8</ele>
        <time>2024-07-09T16:21:21Z</time>
      </trkpt>
      <trkpt lat="43.58955" lon="1.32571">
        <ele>177.8</ele>
        <time>2024-07-09T16:21:22Z</time>
      </trkpt>
      <trkpt lat="43.58957" lon="1.32564">
        <ele>177.8</ele>
        <time>2024-07-09T16:21:23Z</time>
      </trkpt>
      <trkpt lat="43.58959" lon="1.32556">
        <ele>177.8</ele>
        <time>2024-07-09T16:21:24Z</time>
      </trkpt>
      <trkpt lat="43.58961" lon="1.32546">
        <ele>177.8</ele>
        <time>2024-07-09T16:21:25Z</time>
      </trkpt>
      <trkpt lat="43.58962" lon="1.32538">
        <ele>177.8</ele>
        <time>2024-07-09T16:21:26Z</time>
      </trkpt>
      <trkpt lat="43.58962" lon="1.3253">
        <ele>177.8</ele>
        <time>2024-07-09T16:21:27Z</time>
      </trkpt>
      <trkpt lat="43.58963" lon="1.32524">
        <ele>177.8</ele>
        <time>2024-07-09T16:21:28Z</time>
      </trkpt>
      <trkpt lat="43.58965" lon="1.32516">
        <ele>177.8</ele>
        <time>2024-07-09T16:21:29Z</time>
      </trkpt>
      <trkpt lat="43.58967" lon="1.32509">
        <ele>177.8</ele>
        <time>2024-07-09T16:21:30Z</time>
      </trkpt>
      <trkpt lat="43.58969" lon="1.32501">
        <ele>177.8</ele>
        <time>2024-07-09T16:21:31Z</time>
      </trkpt>
      <trkpt lat="43.58971" lon="1.32494">
        <ele>177.8</ele>
        <time>2024-07-09T16:21:32Z</time>
      </trkpt>
      <trkpt lat="43.58973" lon="1.32486">
        <ele>178</ele>
        <time>2024-07-09T16:21:33Z</time>
      </trkpt>
      <trkpt lat="43.58975" lon="1.32478">
        <ele>178</ele>
        <time>2024-07-09T16:21:34Z</time>
      </trkpt>
      <trkpt lat="43.58977" lon="1.32472">
        <ele>178</ele>
        <time>2024-07-09T16:21:35Z</time>
      </trkpt>
      <trkpt lat="43.58977" lon="1.32467">
        <ele>178</ele>
        <time>2024-07-09T16:21:36Z</time>
      </trkpt>
      <trkpt lat="43.58978" lon="1.32465">
        <ele>178.2</ele>
        <time>2024-07-09T16:21:37Z</time>
      </trkpt>
      <trkpt lat="43.58978" lon="1.32463">
        <ele>178.2</ele>
        <time>2024-07-09T16:21:38Z</time>
      </trkpt>
      <trkpt lat="43.58979" lon="1.3246">
        <ele>178.2</ele>
        <time>2024-07-09T16:21:39Z</time>
      </trkpt>
      <trkpt lat="43.5898" lon="1.32457">
        <ele>178.2</ele>
        <time>2024-07-09T16:21:40Z</time>
      </trkpt>
      <trkpt lat="43.58981" lon="1.32454">
        <ele>178.2</ele>
        <time>2024-07-09T16:21:41Z</time>
      </trkpt>
      <trkpt lat="43.58982" lon="1.3245">
        <ele>178.2</ele>
        <time>2024-07-09T16:21:42Z</time>
      </trkpt>
      <trkpt lat="43.58982" lon="1.32445">
        <ele>178.2</ele>
        <time>2024-07-09T16:21:43Z</time>
      </trkpt>
      <trkpt lat="43.58983" lon="1.3244">
        <ele>178.2</ele>
        <time>2024-07-09T16:21:44Z</time>
      </trkpt>
      <trkpt lat="43.58984" lon="1.32435">
        <ele>178.2</ele>
        <time>2024-07-09T16:21:45Z</time>
      </trkpt>
      <trkpt lat="43.58985" lon="1.32431">
        <ele>178.2</ele>
        <time>2024-07-09T16:21:46Z</time>
      </trkpt>
      <trkpt lat="43.58985" lon="1.32427">
        <ele>178.2</ele>
        <time>2024-07-09T16:21:47Z</time>
      </trkpt>
      <trkpt lat="43.58986" lon="1.32423">
        <ele>178.2</ele>
        <time>2024-07-09T16:21:48Z</time>
      </trkpt>
      <trkpt lat="43.58985" lon="1.32419">
        <ele>178.2</ele>
        <time>2024-07-09T16:21:49Z</time>
      </trkpt>
      <trkpt lat="43.58984" lon="1.32416">
        <ele>178.2</ele>
        <time>2024-07-09T16:21:50Z</time>
      </trkpt>
      <trkpt lat="43.58982" lon="1.32413">
        <ele>178.2</ele>
        <time>2024-07-09T16:21:51Z</time>
      </trkpt>
      <trkpt lat="43.5898" lon="1.32411">
        <ele>178.2</ele>
        <time>2024-07-09T16:21:52Z</time>
      </trkpt>
      <trkpt lat="43.58978" lon="1.32408">
        <ele>178.2</ele>
        <time>2024-07-09T16:21:53Z</time>
      </trkpt>
      <trkpt lat="43.58975" lon="1.32405">
        <ele>178</ele>
        <time>2024-07-09T16:21:54Z</time>
      </trkpt>
      <trkpt lat="43.58973" lon="1.32401">
        <ele>178.2</ele>
        <time>2024-07-09T16:21:55Z</time>
      </trkpt>
      <trkpt lat="43.58969" lon="1.32398">
        <ele>178.2</ele>
        <time>2024-07-09T16:21:56Z</time>
      </trkpt>
      <trkpt lat="43.58967" lon="1.32394">
        <ele>178.2</ele>
        <time>2024-07-09T16:21:57Z</time>
      </trkpt>
      <trkpt lat="43.58963" lon="1.3239">
        <ele>178.2</ele>
        <time>2024-07-09T16:21:58Z</time>
      </trkpt>
      <trkpt lat="43.5896" lon="1.32385">
        <ele>178</ele>
        <time>2024-07-09T16:21:59Z</time>
      </trkpt>
      <trkpt lat="43.58956" lon="1.32381">
        <ele>178</ele>
        <time>2024-07-09T16:22:00Z</time>
      </trkpt>
      <trkpt lat="43.58953" lon="1.32376">
        <ele>177.8</ele>
        <time>2024-07-09T16:22:01Z</time>
      </trkpt>
      <trkpt lat="43.5895" lon="1.32372">
        <ele>178</ele>
        <time>2024-07-09T16:22:02Z</time>
      </trkpt>
      <trkpt lat="43.58947" lon="1.32368">
        <ele>178</ele>
        <time>2024-07-09T16:22:03Z</time>
      </trkpt>
      <trkpt lat="43.58944" lon="1.32366">
        <ele>178.2</ele>
        <time>2024-07-09T16:22:04Z</time>
      </trkpt>
      <trkpt lat="43.58941" lon="1.32364">
        <ele>178</ele>
        <time>2024-07-09T16:22:05Z</time>
      </trkpt>
      <trkpt lat="43.58939" lon="1.32363">
        <ele>178</ele>
        <time>2024-07-09T16:22:06Z</time>
      </trkpt>
      <trkpt lat="43.58936" lon="1.32361">
        <ele>177.8</ele>
        <time>2024-07-09T16:22:07Z</time>
      </trkpt>
      <trkpt lat="43.58932" lon="1.32359">
        <ele>177.8</ele>
        <time>2024-07-09T16:22:08Z</time>
      </trkpt>
      <trkpt lat="43.58928" lon="1.32357">
        <ele>177.6</ele>
        <time>2024-07-09T16:22:09Z</time>
      </trkpt>
      <trkpt lat="43.58924" lon="1.32354">
        <ele>177.4</ele>
        <time>2024-07-09T16:22:10Z</time>
      </trkpt>
      <trkpt lat="43.58921" lon="1.3235">
        <ele>177.2</ele>
        <time>2024-07-09T16:22:11Z</time>
      </trkpt>
      <trkpt lat="43.58919" lon="1.32346">
        <ele>177.2</ele>
        <time>2024-07-09T16:22:12Z</time>
      </trkpt>
      <trkpt lat="43.58917" lon="1.32341">
        <ele>177</ele>
        <time>2024-07-09T16:22:13Z</time>
      </trkpt>
      <trkpt lat="43.58916" lon="1.3234">
        <ele>176.8</ele>
        <time>2024-07-09T16:22:14Z</time>
      </trkpt>
      <trkpt lat="43.58915" lon="1.32338">
        <ele>176.6</ele>
        <time>2024-07-09T16:22:15Z</time>
      </trkpt>
      <trkpt lat="43.58914" lon="1.32336">
        <ele>176.4</ele>
        <time>2024-07-09T16:22:16Z</time>
      </trkpt>
      <trkpt lat="43.58913" lon="1.32333">
        <ele>176.2</ele>
        <time>2024-07-09T16:22:17Z</time>
      </trkpt>
      <trkpt lat="43.58913" lon="1.32329">
        <ele>176.2</ele>
        <time>2024-07-09T16:22:18Z</time>
      </trkpt>
      <trkpt lat="43.58913" lon="1.32325">
        <ele>176</ele>
        <time>2024-07-09T16:22:19Z</time>
      </trkpt>
      <trkpt lat="43.58912" lon="1.32322">
        <ele>176</ele>
        <time>2024-07-09T16:22:20Z</time>
      </trkpt>
      <trkpt lat="43.5891" lon="1.32319">
        <ele>175.8</ele>
        <time>2024-07-09T16:22:21Z</time>
      </trkpt>
      <trkpt lat="43.58907" lon="1.32315">
        <ele>175.8</ele>
        <time>2024-07-09T16:22:22Z</time>
      </trkpt>
      <trkpt lat="43.58903" lon="1.32311">
        <ele>175.6</ele>
        <time>2024-07-09T16:22:23Z</time>
      </trkpt>
      <trkpt lat="43.58899" lon="1.32305">
        <ele>175.6</ele>
        <time>2024-07-09T16:22:24Z</time>
      </trkpt>
      <trkpt lat="43.58897" lon="1.32302">
        <ele>175.6</ele>
        <time>2024-07-09T16:22:25Z</time>
      </trkpt>
      <trkpt lat="43.58894" lon="1.32298">
        <ele>175.4</ele>
        <time>2024-07-09T16:22:26Z</time>
      </trkpt>
      <trkpt lat="43.58889" lon="1.32292">
        <ele>175.4</ele>
        <time>2024-07-09T16:22:27Z</time>
      </trkpt>
      <trkpt lat="43.58886" lon="1.32286">
        <ele>175.2</ele>
        <time>2024-07-09T16:22:28Z</time>
      </trkpt>
      <trkpt lat="43.58883" lon="1.32281">
        <ele>175.4</ele>
        <time>2024-07-09T16:22:29Z</time>
      </trkpt>
      <trkpt lat="43.5888" lon="1.32277">
        <ele>175.4</ele>
        <time>2024-07-09T16:22:30Z</time>
      </trkpt>
      <trkpt lat="43.58877" lon="1.32271">
        <ele>175.2</ele>
        <time>2024-07-09T16:22:31Z</time>
      </trkpt>
      <trkpt lat="43.58874" lon="1.32264">
        <ele>175.4</ele>
        <time>2024-07-09T16:22:32Z</time>
      </trkpt>
      <trkpt lat="43.58871" lon="1.32258">
        <ele>175.4</ele>
        <time>2024-07-09T16:22:33Z</time>
      </trkpt>
      <trkpt lat="43.58869" lon="1.32252">
        <ele>175.4</ele>
        <time>2024-07-09T16:22:34Z</time>
      </trkpt>
      <trkpt lat="43.58867" lon="1.32247">
        <ele>175.4</ele>
        <time>2024-07-09T16:22:35Z</time>
      </trkpt>
      <trkpt lat="43.58865" lon="1.32241">
        <ele>175.6</ele>
        <time>2024-07-09T16:22:36Z</time>
      </trkpt>
      <trkpt lat="43.58862" lon="1.32233">
        <ele>175.6</ele>
        <time>2024-07-09T16:22:37Z</time>
      </trkpt>
      <trkpt lat="43.58859" lon="1.32227">
        <ele>175.6</ele>
        <time>2024-07-09T16:22:38Z</time>
      </trkpt>
      <trkpt lat="43.58858" lon="1.32222">
        <ele>175.6</ele>
        <time>2024-07-09T16:22:39Z</time>
      </trkpt>
      <trkpt lat="43.58855" lon="1.32215">
        <ele>175.8</ele>
        <time>2024-07-09T16:22:40Z</time>
      </trkpt>
      <trkpt lat="43.58852" lon="1.3221">
        <ele>175.8</ele>
        <time>2024-07-09T16:22:41Z</time>
      </trkpt>
      <trkpt lat="43.58848" lon="1.32203">
        <ele>176</ele>
        <time>2024-07-09T16:22:42Z</time>
      </trkpt>
      <trkpt lat="43.58845" lon="1.32197">
        <ele>176</ele>
        <time>2024-07-09T16:22:43Z</time>
      </trkpt>
      <trkpt lat="43.58843" lon="1.32192">
        <ele>176</ele>
        <time>2024-07-09T16:22:44Z</time>
      </trkpt>
      <trkpt lat="43.58839" lon="1.32187">
        <ele>176.2</ele>
        <time>2024-07-09T16:22:45Z</time>
      </trkpt>
      <trkpt lat="43.58836" lon="1.3218">
        <ele>176.2</ele>
        <time>2024-07-09T16:22:46Z</time>
      </trkpt>
      <trkpt lat="43.58832" lon="1.32175">
        <ele>176.2</ele>
        <time>2024-07-09T16:22:47Z</time>
      </trkpt>
      <trkpt lat="43.5883" lon="1.3217">
        <ele>176.4</ele>
        <time>2024-07-09T16:22:48Z</time>
      </trkpt>
      <trkpt lat="43.58828" lon="1.32166">
        <ele>176.4</ele>
        <time>2024-07-09T16:22:49Z</time>
      </trkpt>
      <trkpt lat="43.58826" lon="1.32162">
        <ele>176.6</ele>
        <time>2024-07-09T16:22:50Z</time>
      </trkpt>
      <trkpt lat="43.58826" lon="1.32158">
        <ele>176.6</ele>
        <time>2024-07-09T16:22:51Z</time>
      </trkpt>
      <trkpt lat="43.58826" lon="1.32155">
        <ele>176.6</ele>
        <time>2024-07-09T16:22:52Z</time>
      </trkpt>
      <trkpt lat="43.58826" lon="1.32152">
        <ele>176.8</ele>
        <time>2024-07-09T16:22:53Z</time>
      </trkpt>
      <trkpt lat="43.58825" lon="1.32149">
        <ele>176.8</ele>
        <time>2024-07-09T16:22:54Z</time>
      </trkpt>
      <trkpt lat="43.58823" lon="1.32146">
        <ele>176.8</ele>
        <time>2024-07-09T16:22:55Z</time>
      </trkpt>
      <trkpt lat="43.5882" lon="1.32143">
        <ele>176.8</ele>
        <time>2024-07-09T16:22:56Z</time>
      </trkpt>
      <trkpt lat="43.58817" lon="1.32141">
        <ele>176.8</ele>
        <time>2024-07-09T16:22:57Z</time>
      </trkpt>
      <trkpt lat="43.58813" lon="1.32138">
        <ele>176.8</ele>
        <time>2024-07-09T16:22:58Z</time>
      </trkpt>
      <trkpt lat="43.5881" lon="1.32134">
        <ele>176.8</ele>
        <time>2024-07-09T16:22:59Z</time>
      </trkpt>
      <trkpt lat="43.58808" lon="1.32128">
        <ele>176.8</ele>
        <time>2024-07-09T16:23:00Z</time>
      </trkpt>
      <trkpt lat="43.58805" lon="1.32123">
        <ele>176.8</ele>
        <time>2024-07-09T16:23:01Z</time>
      </trkpt>
      <trkpt lat="43.58802" lon="1.32118">
        <ele>176.8</ele>
        <time>2024-07-09T16:23:02Z</time>
      </trkpt>
      <trkpt lat="43.58799" lon="1.32113">
        <ele>176.8</ele>
        <time>2024-07-09T16:23:03Z</time>
      </trkpt>
      <trkpt lat="43.58795" lon="1.32107">
        <ele>176.8</ele>
        <time>2024-07-09T16:23:04Z</time>
      </trkpt>
      <trkpt lat="43.58792" lon="1.32102">
        <ele>176.8</ele>
        <time>2024-07-09T16:23:05Z</time>
      </trkpt>
      <trkpt lat="43.58789" lon="1.32097">
        <ele>176.8</ele>
        <time>2024-07-09T16:23:06Z</time>
      </trkpt>
      <trkpt lat="43.58786" lon="1.32091">
        <ele>176.8</ele>
        <time>2024-07-09T16:23:07Z</time>
      </trkpt>
      <trkpt lat="43.58782" lon="1.32085">
        <ele>176.8</ele>
        <time>2024-07-09T16:23:08Z</time>
      </trkpt>
      <trkpt lat="43.58778" lon="1.32079">
        <ele>176.8</ele>
        <time>2024-07-09T16:23:09Z</time>
      </trkpt>
      <trkpt lat="43.58774" lon="1.32074">
        <ele>176.8</ele>
        <time>2024-07-09T16:23:10Z</time>
      </trkpt>
      <trkpt lat="43.5877" lon="1.32068">
        <ele>177</ele>
        <time>2024-07-09T16:23:11Z</time>
      </trkpt>
      <trkpt lat="43.58766" lon="1.32063">
        <ele>177</ele>
        <time>2024-07-09T16:23:12Z</time>
      </trkpt>
      <trkpt lat="43.58762" lon="1.32057">
        <ele>177</ele>
        <time>2024-07-09T16:23:13Z</time>
      </trkpt>
      <trkpt lat="43.58758" lon="1.32051">
        <ele>177</ele>
        <time>2024-07-09T16:23:14Z</time>
      </trkpt>
      <trkpt lat="43.58753" lon="1.32046">
        <ele>177</ele>
        <time>2024-07-09T16:23:15Z</time>
      </trkpt>
      <trkpt lat="43.58749" lon="1.3204">
        <ele>177</ele>
        <time>2024-07-09T16:23:16Z</time>
      </trkpt>
      <trkpt lat="43.58745" lon="1.32035">
        <ele>177</ele>
        <time>2024-07-09T16:23:17Z</time>
      </trkpt>
      <trkpt lat="43.5874" lon="1.32029">
        <ele>177.2</ele>
        <time>2024-07-09T16:23:18Z</time>
      </trkpt>
      <trkpt lat="43.58736" lon="1.32023">
        <ele>177.2</ele>
        <time>2024-07-09T16:23:19Z</time>
      </trkpt>
      <trkpt lat="43.58732" lon="1.32018">
        <ele>177.2</ele>
        <time>2024-07-09T16:23:20Z</time>
      </trkpt>
      <trkpt lat="43.58727" lon="1.32012">
        <ele>177.2</ele>
        <time>2024-07-09T16:23:21Z</time>
      </trkpt>
      <trkpt lat="43.58723" lon="1.32006">
        <ele>177.2</ele>
        <time>2024-07-09T16:23:22Z</time>
      </trkpt>
      <trkpt lat="43.58719" lon="1.32">
        <ele>177.2</ele>
        <time>2024-07-09T16:23:23Z</time>
      </trkpt>
      <trkpt lat="43.58715" lon="1.31995">
        <ele>177.2</ele>
        <time>2024-07-09T16:23:24Z</time>
      </trkpt>
      <trkpt lat="43.58711" lon="1.3199">
        <ele>177</ele>
        <time>2024-07-09T16:23:25Z</time>
      </trkpt>
      <trkpt lat="43.58707" lon="1.31986">
        <ele>177</ele>
        <time>2024-07-09T16:23:26Z</time>
      </trkpt>
      <trkpt lat="43.58703" lon="1.31986">
        <ele>177</ele>
        <time>2024-07-09T16:23:27Z</time>
      </trkpt>
      <trkpt lat="43.58699" lon="1.31987">
        <ele>176.8</ele>
        <time>2024-07-09T16:23:28Z</time>
      </trkpt>
      <trkpt lat="43.58696" lon="1.3199">
        <ele>176.8</ele>
        <time>2024-07-09T16:23:29Z</time>
      </trkpt>
      <trkpt lat="43.58693" lon="1.31995">
        <ele>176.8</ele>
        <time>2024-07-09T16:23:30Z</time>
      </trkpt>
      <trkpt lat="43.58692" lon="1.32002">
        <ele>176.8</ele>
        <time>2024-07-09T16:23:31Z</time>
      </trkpt>
      <trkpt lat="43.58692" lon="1.3201">
        <ele>176.6</ele>
        <time>2024-07-09T16:23:32Z</time>
      </trkpt>
      <trkpt lat="43.58692" lon="1.32018">
        <ele>176.6</ele>
        <time>2024-07-09T16:23:33Z</time>
      </trkpt>
      <trkpt lat="43.58693" lon="1.32026">
        <ele>176.6</ele>
        <time>2024-07-09T16:23:34Z</time>
      </trkpt>
      <trkpt lat="43.58693" lon="1.32034">
        <ele>176.4</ele>
        <time>2024-07-09T16:23:35Z</time>
      </trkpt>
      <trkpt lat="43.58693" lon="1.32042">
        <ele>176.2</ele>
        <time>2024-07-09T16:23:36Z</time>
      </trkpt>
      <trkpt lat="43.58693" lon="1.32051">
        <ele>176.2</ele>
        <time>2024-07-09T16:23:37Z</time>
      </trkpt>
      <trkpt lat="43.58693" lon="1.3206">
        <ele>176</ele>
        <time>2024-07-09T16:23:38Z</time>
      </trkpt>
      <trkpt lat="43.58693" lon="1.32068">
        <ele>176</ele>
        <time>2024-07-09T16:23:39Z</time>
      </trkpt>
      <trkpt lat="43.58693" lon="1.32077">
        <ele>176</ele>
        <time>2024-07-09T16:23:40Z</time>
      </trkpt>
      <trkpt lat="43.58693" lon="1.32086">
        <ele>175.8</ele>
        <time>2024-07-09T16:23:41Z</time>
      </trkpt>
      <trkpt lat="43.58692" lon="1.32095">
        <ele>175.8</ele>
        <time>2024-07-09T16:23:42Z</time>
      </trkpt>
      <trkpt lat="43.58693" lon="1.32103">
        <ele>175.8</ele>
        <time>2024-07-09T16:23:43Z</time>
      </trkpt>
      <trkpt lat="43.58693" lon="1.32111">
        <ele>176</ele>
        <time>2024-07-09T16:23:44Z</time>
      </trkpt>
      <trkpt lat="43.58693" lon="1.3212">
        <ele>176</ele>
        <time>2024-07-09T16:23:45Z</time>
      </trkpt>
      <trkpt lat="43.58692" lon="1.32128">
        <ele>176</ele>
        <time>2024-07-09T16:23:46Z</time>
      </trkpt>
      <trkpt lat="43.58692" lon="1.32136">
        <ele>176</ele>
        <time>2024-07-09T16:23:47Z</time>
      </trkpt>
      <trkpt lat="43.58691" lon="1.32144">
        <ele>176</ele>
        <time>2024-07-09T16:23:48Z</time>
      </trkpt>
      <trkpt lat="43.58691" lon="1.32152">
        <ele>176.2</ele>
        <time>2024-07-09T16:23:49Z</time>
      </trkpt>
      <trkpt lat="43.5869" lon="1.3216">
        <ele>176.2</ele>
        <time>2024-07-09T16:23:50Z</time>
      </trkpt>
      <trkpt lat="43.58689" lon="1.32167">
        <ele>176.4</ele>
        <time>2024-07-09T16:23:51Z</time>
      </trkpt>
      <trkpt lat="43.58688" lon="1.32174">
        <ele>176.4</ele>
        <time>2024-07-09T16:23:52Z</time>
      </trkpt>
      <trkpt lat="43.58687" lon="1.32181">
        <ele>176.6</ele>
        <time>2024-07-09T16:23:53Z</time>
      </trkpt>
      <trkpt lat="43.58687" lon="1.32188">
        <ele>176.6</ele>
        <time>2024-07-09T16:23:54Z</time>
      </trkpt>
      <trkpt lat="43.58686" lon="1.32195">
        <ele>176.6</ele>
        <time>2024-07-09T16:23:55Z</time>
      </trkpt>
      <trkpt lat="43.58685" lon="1.32201">
        <ele>176.6</ele>
        <time>2024-07-09T16:23:56Z</time>
      </trkpt>
      <trkpt lat="43.58685" lon="1.32205">
        <ele>176.8</ele>
        <time>2024-07-09T16:23:57Z</time>
      </trkpt>
      <trkpt lat="43.58685" lon="1.32208">
        <ele>176.8</ele>
        <time>2024-07-09T16:23:58Z</time>
      </trkpt>
      <trkpt lat="43.58685" lon="1.32209">
        <ele>176.8</ele>
        <time>2024-07-09T16:23:59Z</time>
      </trkpt>
      <trkpt lat="43.58685" lon="1.32209">
        <ele>176.8</ele>
        <time>2024-07-09T16:24:00Z</time>
      </trkpt>
      <trkpt lat="43.58685" lon="1.32209">
        <ele>176.8</ele>
        <time>2024-07-09T16:24:01Z</time>
      </trkpt>
    </trkseg>
  </trk>
</gpx>